<?xml version="1.0" encoding="UTF-8"?>
<gpx creator="Garmin Connect" version="1.1"
  xsi:schemaLocation="http://www.topografix.com/GPX/1/1 http://www.topografix.com/GPX/11.xsd"
  xmlns:ns3="http://www.garmin.com/xmlschemas/TrackPointExtension/v1"
  xmlns="http://www.topografix.com/GPX/1/1"
  xmlns:xsi="http://www.w3.org/2001/XMLSchema-instance" xmlns:ns2="http://www.garmin.com/xmlschemas/GpxExtensions/v3">
  <metadata>
    <link href="connect.garmin.com">
      <text>Garmin Connect</text>
    </link>
    <time>2021-06-06T07:08:33.000Z</time>
  </metadata>
  <trk>
    <name>Camerino Ciclismo</name>
    <type>cycling</type>
    <trkseg>
      <trkpt lat="43.14232659526169300079345703125" lon="13.07800683192908763885498046875">
        <ele>568.79998779296875</ele>
        <time>2021-06-06T07:08:33.000Z</time>
        <extensions>
          <ns3:TrackPointExtension>
            <ns3:atemp>27.0</ns3:atemp>
          </ns3:TrackPointExtension>
        </extensions>
      </trkpt>
      <trkpt lat="43.14233682118356227874755859375" lon="13.0780137889087200164794921875">
        <ele>568.4000244140625</ele>
        <time>2021-06-06T07:08:53.000Z</time>
        <extensions>
          <ns3:TrackPointExtension>
            <ns3:atemp>28.0</ns3:atemp>
          </ns3:TrackPointExtension>
        </extensions>
      </trkpt>
      <trkpt lat="43.14235207624733448028564453125" lon="13.0780171416699886322021484375">
        <ele>568.4000244140625</ele>
        <time>2021-06-06T07:09:23.000Z</time>
        <extensions>
          <ns3:TrackPointExtension>
            <ns3:atemp>28.0</ns3:atemp>
          </ns3:TrackPointExtension>
        </extensions>
      </trkpt>
      <trkpt lat="43.142400272190570831298828125" lon="13.07803474366664886474609375">
        <ele>568.4000244140625</ele>
        <time>2021-06-06T07:09:29.000Z</time>
        <extensions>
          <ns3:TrackPointExtension>
            <ns3:atemp>28.0</ns3:atemp>
          </ns3:TrackPointExtension>
        </extensions>
      </trkpt>
      <trkpt lat="43.14240873791277408599853515625" lon="13.0780295468866825103759765625">
        <ele>568.4000244140625</ele>
        <time>2021-06-06T07:09:30.000Z</time>
        <extensions>
          <ns3:TrackPointExtension>
            <ns3:atemp>28.0</ns3:atemp>
          </ns3:TrackPointExtension>
        </extensions>
      </trkpt>
      <trkpt lat="43.14248149283230304718017578125" lon="13.077999539673328399658203125">
        <ele>568.5999755859375</ele>
        <time>2021-06-06T07:09:36.000Z</time>
        <extensions>
          <ns3:TrackPointExtension>
            <ns3:atemp>28.0</ns3:atemp>
          </ns3:TrackPointExtension>
        </extensions>
      </trkpt>
      <trkpt lat="43.14250764437019824981689453125" lon="13.077992834150791168212890625">
        <ele>568.5999755859375</ele>
        <time>2021-06-06T07:09:38.000Z</time>
        <extensions>
          <ns3:TrackPointExtension>
            <ns3:atemp>28.0</ns3:atemp>
          </ns3:TrackPointExtension>
        </extensions>
      </trkpt>
      <trkpt lat="43.142527006566524505615234375" lon="13.077971041202545166015625">
        <ele>568.79998779296875</ele>
        <time>2021-06-06T07:09:40.000Z</time>
        <extensions>
          <ns3:TrackPointExtension>
            <ns3:atemp>28.0</ns3:atemp>
          </ns3:TrackPointExtension>
        </extensions>
      </trkpt>
      <trkpt lat="43.14253429882228374481201171875" lon="13.07794949971139430999755859375">
        <ele>568.79998779296875</ele>
        <time>2021-06-06T07:09:41.000Z</time>
        <extensions>
          <ns3:TrackPointExtension>
            <ns3:atemp>28.0</ns3:atemp>
          </ns3:TrackPointExtension>
        </extensions>
      </trkpt>
      <trkpt lat="43.1425037048757076263427734375" lon="13.077814467251300811767578125">
        <ele>569</ele>
        <time>2021-06-06T07:09:45.000Z</time>
        <extensions>
          <ns3:TrackPointExtension>
            <ns3:atemp>28.0</ns3:atemp>
          </ns3:TrackPointExtension>
        </extensions>
      </trkpt>
      <trkpt lat="43.1424094922840595245361328125" lon="13.07759494520723819732666015625">
        <ele>568.79998779296875</ele>
        <time>2021-06-06T07:09:52.000Z</time>
        <extensions>
          <ns3:TrackPointExtension>
            <ns3:atemp>28.0</ns3:atemp>
          </ns3:TrackPointExtension>
        </extensions>
      </trkpt>
      <trkpt lat="43.14231854863464832305908203125" lon="13.07733460329473018646240234375">
        <ele>568.5999755859375</ele>
        <time>2021-06-06T07:09:59.000Z</time>
        <extensions>
          <ns3:TrackPointExtension>
            <ns3:atemp>28.0</ns3:atemp>
          </ns3:TrackPointExtension>
        </extensions>
      </trkpt>
      <trkpt lat="43.1422297842800617218017578125" lon="13.0770585872232913970947265625">
        <ele>568.5999755859375</ele>
        <time>2021-06-06T07:10:06.000Z</time>
        <extensions>
          <ns3:TrackPointExtension>
            <ns3:atemp>28.0</ns3:atemp>
          </ns3:TrackPointExtension>
        </extensions>
      </trkpt>
      <trkpt lat="43.14213515259325504302978515625" lon="13.07674996554851531982421875">
        <ele>569</ele>
        <time>2021-06-06T07:10:13.000Z</time>
        <extensions>
          <ns3:TrackPointExtension>
            <ns3:atemp>28.0</ns3:atemp>
          </ns3:TrackPointExtension>
        </extensions>
      </trkpt>
      <trkpt lat="43.1420306302607059478759765625" lon="13.07642952539026737213134765625">
        <ele>569</ele>
        <time>2021-06-06T07:10:20.000Z</time>
        <extensions>
          <ns3:TrackPointExtension>
            <ns3:atemp>27.0</ns3:atemp>
          </ns3:TrackPointExtension>
        </extensions>
      </trkpt>
      <trkpt lat="43.14190632663667201995849609375" lon="13.07612693868577480316162109375">
        <ele>569.20001220703125</ele>
        <time>2021-06-06T07:10:27.000Z</time>
        <extensions>
          <ns3:TrackPointExtension>
            <ns3:atemp>27.0</ns3:atemp>
          </ns3:TrackPointExtension>
        </extensions>
      </trkpt>
      <trkpt lat="43.14172142185270786285400390625" lon="13.0758800916373729705810546875">
        <ele>569.5999755859375</ele>
        <time>2021-06-06T07:10:34.000Z</time>
        <extensions>
          <ns3:TrackPointExtension>
            <ns3:atemp>27.0</ns3:atemp>
          </ns3:TrackPointExtension>
        </extensions>
      </trkpt>
      <trkpt lat="43.1415749900043010711669921875" lon="13.07575193233788013458251953125">
        <ele>569.79998779296875</ele>
        <time>2021-06-06T07:10:39.000Z</time>
        <extensions>
          <ns3:TrackPointExtension>
            <ns3:atemp>27.0</ns3:atemp>
          </ns3:TrackPointExtension>
        </extensions>
      </trkpt>
      <trkpt lat="43.1415153108537197113037109375" lon="13.07570683769881725311279296875">
        <ele>570</ele>
        <time>2021-06-06T07:10:41.000Z</time>
        <extensions>
          <ns3:TrackPointExtension>
            <ns3:atemp>27.0</ns3:atemp>
          </ns3:TrackPointExtension>
        </extensions>
      </trkpt>
      <trkpt lat="43.14132194034755229949951171875" lon="13.07555126957595348358154296875">
        <ele>570.79998779296875</ele>
        <time>2021-06-06T07:10:48.000Z</time>
        <extensions>
          <ns3:TrackPointExtension>
            <ns3:atemp>27.0</ns3:atemp>
          </ns3:TrackPointExtension>
        </extensions>
      </trkpt>
      <trkpt lat="43.141294531524181365966796875" lon="13.07553199119865894317626953125">
        <ele>570.79998779296875</ele>
        <time>2021-06-06T07:10:49.000Z</time>
        <extensions>
          <ns3:TrackPointExtension>
            <ns3:atemp>27.0</ns3:atemp>
          </ns3:TrackPointExtension>
        </extensions>
      </trkpt>
      <trkpt lat="43.14114055596292018890380859375" lon="13.07540559209883213043212890625">
        <ele>571.79998779296875</ele>
        <time>2021-06-06T07:10:55.000Z</time>
        <extensions>
          <ns3:TrackPointExtension>
            <ns3:atemp>27.0</ns3:atemp>
          </ns3:TrackPointExtension>
        </extensions>
      </trkpt>
      <trkpt lat="43.14109177328646183013916015625" lon="13.0753664486110210418701171875">
        <ele>572.4000244140625</ele>
        <time>2021-06-06T07:10:57.000Z</time>
        <extensions>
          <ns3:TrackPointExtension>
            <ns3:atemp>26.0</ns3:atemp>
          </ns3:TrackPointExtension>
        </extensions>
      </trkpt>
      <trkpt lat="43.14097040332853794097900390625" lon="13.07526997290551662445068359375">
        <ele>573</ele>
        <time>2021-06-06T07:11:02.000Z</time>
        <extensions>
          <ns3:TrackPointExtension>
            <ns3:atemp>26.0</ns3:atemp>
          </ns3:TrackPointExtension>
        </extensions>
      </trkpt>
      <trkpt lat="43.14090519212186336517333984375" lon="13.0752085335552692413330078125">
        <ele>573.79998779296875</ele>
        <time>2021-06-06T07:11:05.000Z</time>
        <extensions>
          <ns3:TrackPointExtension>
            <ns3:atemp>26.0</ns3:atemp>
          </ns3:TrackPointExtension>
        </extensions>
      </trkpt>
      <trkpt lat="43.14086646772921085357666015625" lon="13.0751729942858219146728515625">
        <ele>574.20001220703125</ele>
        <time>2021-06-06T07:11:07.000Z</time>
        <extensions>
          <ns3:TrackPointExtension>
            <ns3:atemp>26.0</ns3:atemp>
          </ns3:TrackPointExtension>
        </extensions>
      </trkpt>
      <trkpt lat="43.140764124691486358642578125" lon="13.07508171536028385162353515625">
        <ele>575.5999755859375</ele>
        <time>2021-06-06T07:11:12.000Z</time>
        <extensions>
          <ns3:TrackPointExtension>
            <ns3:atemp>26.0</ns3:atemp>
          </ns3:TrackPointExtension>
        </extensions>
      </trkpt>
      <trkpt lat="43.14073738642036914825439453125" lon="13.0750693939626216888427734375">
        <ele>576</ele>
        <time>2021-06-06T07:11:13.000Z</time>
        <extensions>
          <ns3:TrackPointExtension>
            <ns3:atemp>26.0</ns3:atemp>
          </ns3:TrackPointExtension>
        </extensions>
      </trkpt>
      <trkpt lat="43.1406526453793048858642578125" lon="13.07501968927681446075439453125">
        <ele>576.5999755859375</ele>
        <time>2021-06-06T07:11:16.000Z</time>
        <extensions>
          <ns3:TrackPointExtension>
            <ns3:atemp>26.0</ns3:atemp>
          </ns3:TrackPointExtension>
        </extensions>
      </trkpt>
      <trkpt lat="43.14053236506879329681396484375" lon="13.074934445321559906005859375">
        <ele>577.20001220703125</ele>
        <time>2021-06-06T07:11:20.000Z</time>
        <extensions>
          <ns3:TrackPointExtension>
            <ns3:atemp>26.0</ns3:atemp>
          </ns3:TrackPointExtension>
        </extensions>
      </trkpt>
      <trkpt lat="43.14045759849250316619873046875" lon="13.074892200529575347900390625">
        <ele>577.79998779296875</ele>
        <time>2021-06-06T07:11:23.000Z</time>
        <extensions>
          <ns3:TrackPointExtension>
            <ns3:atemp>26.0</ns3:atemp>
          </ns3:TrackPointExtension>
        </extensions>
      </trkpt>
      <trkpt lat="43.14036003313958644866943359375" lon="13.0748243071138858795166015625">
        <ele>578.5999755859375</ele>
        <time>2021-06-06T07:11:27.000Z</time>
        <extensions>
          <ns3:TrackPointExtension>
            <ns3:atemp>26.0</ns3:atemp>
          </ns3:TrackPointExtension>
        </extensions>
      </trkpt>
      <trkpt lat="43.14033539034426212310791015625" lon="13.07480494491755962371826171875">
        <ele>579</ele>
        <time>2021-06-06T07:11:28.000Z</time>
        <extensions>
          <ns3:TrackPointExtension>
            <ns3:atemp>26.0</ns3:atemp>
          </ns3:TrackPointExtension>
        </extensions>
      </trkpt>
      <trkpt lat="43.14024101011455059051513671875" lon="13.07472087442874908447265625">
        <ele>580.20001220703125</ele>
        <time>2021-06-06T07:11:32.000Z</time>
        <extensions>
          <ns3:TrackPointExtension>
            <ns3:atemp>26.0</ns3:atemp>
          </ns3:TrackPointExtension>
        </extensions>
      </trkpt>
      <trkpt lat="43.1401658244431018829345703125" lon="13.0746680684387683868408203125">
        <ele>581</ele>
        <time>2021-06-06T07:11:35.000Z</time>
        <extensions>
          <ns3:TrackPointExtension>
            <ns3:atemp>26.0</ns3:atemp>
          </ns3:TrackPointExtension>
        </extensions>
      </trkpt>
      <trkpt lat="43.14014109782874584197998046875" lon="13.07465205900371074676513671875">
        <ele>581.20001220703125</ele>
        <time>2021-06-06T07:11:36.000Z</time>
        <extensions>
          <ns3:TrackPointExtension>
            <ns3:atemp>26.0</ns3:atemp>
          </ns3:TrackPointExtension>
        </extensions>
      </trkpt>
      <trkpt lat="43.1400209851562976837158203125" lon="13.07456991635262966156005859375">
        <ele>582.5999755859375</ele>
        <time>2021-06-06T07:11:41.000Z</time>
        <extensions>
          <ns3:TrackPointExtension>
            <ns3:atemp>26.0</ns3:atemp>
          </ns3:TrackPointExtension>
        </extensions>
      </trkpt>
      <trkpt lat="43.13990372233092784881591796875" lon="13.074491880834102630615234375">
        <ele>583.79998779296875</ele>
        <time>2021-06-06T07:11:46.000Z</time>
        <extensions>
          <ns3:TrackPointExtension>
            <ns3:atemp>25.0</ns3:atemp>
          </ns3:TrackPointExtension>
        </extensions>
      </trkpt>
      <trkpt lat="43.1398322246968746185302734375" lon="13.07445810176432132720947265625">
        <ele>584.79998779296875</ele>
        <time>2021-06-06T07:11:49.000Z</time>
        <extensions>
          <ns3:TrackPointExtension>
            <ns3:atemp>25.0</ns3:atemp>
          </ns3:TrackPointExtension>
        </extensions>
      </trkpt>
      <trkpt lat="43.1398114375770092010498046875" lon="13.07444058358669281005859375">
        <ele>585</ele>
        <time>2021-06-06T07:11:50.000Z</time>
        <extensions>
          <ns3:TrackPointExtension>
            <ns3:atemp>25.0</ns3:atemp>
          </ns3:TrackPointExtension>
        </extensions>
      </trkpt>
      <trkpt lat="43.139722757041454315185546875" lon="13.07436288334429264068603515625">
        <ele>586</ele>
        <time>2021-06-06T07:11:54.000Z</time>
        <extensions>
          <ns3:TrackPointExtension>
            <ns3:atemp>25.0</ns3:atemp>
          </ns3:TrackPointExtension>
        </extensions>
      </trkpt>
      <trkpt lat="43.13963533379137516021728515625" lon="13.07427034713327884674072265625">
        <ele>587</ele>
        <time>2021-06-06T07:11:58.000Z</time>
        <extensions>
          <ns3:TrackPointExtension>
            <ns3:atemp>25.0</ns3:atemp>
          </ns3:TrackPointExtension>
        </extensions>
      </trkpt>
      <trkpt lat="43.13961488194763660430908203125" lon="13.074245452880859375">
        <ele>587.4000244140625</ele>
        <time>2021-06-06T07:11:59.000Z</time>
        <extensions>
          <ns3:TrackPointExtension>
            <ns3:atemp>25.0</ns3:atemp>
          </ns3:TrackPointExtension>
        </extensions>
      </trkpt>
      <trkpt lat="43.13952351920306682586669921875" lon="13.07415132410824298858642578125">
        <ele>588.20001220703125</ele>
        <time>2021-06-06T07:12:03.000Z</time>
        <extensions>
          <ns3:TrackPointExtension>
            <ns3:atemp>25.0</ns3:atemp>
          </ns3:TrackPointExtension>
        </extensions>
      </trkpt>
      <trkpt lat="43.1394201703369617462158203125" lon="13.0740213207900524139404296875">
        <ele>589.20001220703125</ele>
        <time>2021-06-06T07:12:08.000Z</time>
        <extensions>
          <ns3:TrackPointExtension>
            <ns3:atemp>25.0</ns3:atemp>
          </ns3:TrackPointExtension>
        </extensions>
      </trkpt>
      <trkpt lat="43.139402568340301513671875" lon="13.0739928223192691802978515625">
        <ele>589.4000244140625</ele>
        <time>2021-06-06T07:12:09.000Z</time>
        <extensions>
          <ns3:TrackPointExtension>
            <ns3:atemp>25.0</ns3:atemp>
          </ns3:TrackPointExtension>
        </extensions>
      </trkpt>
      <trkpt lat="43.1393266282975673675537109375" lon="13.07388796471059322357177734375">
        <ele>590.5999755859375</ele>
        <time>2021-06-06T07:12:13.000Z</time>
        <extensions>
          <ns3:TrackPointExtension>
            <ns3:atemp>25.0</ns3:atemp>
          </ns3:TrackPointExtension>
        </extensions>
      </trkpt>
      <trkpt lat="43.1392176635563373565673828125" lon="13.07375938631594181060791015625">
        <ele>591.20001220703125</ele>
        <time>2021-06-06T07:12:18.000Z</time>
        <extensions>
          <ns3:TrackPointExtension>
            <ns3:atemp>25.0</ns3:atemp>
          </ns3:TrackPointExtension>
        </extensions>
      </trkpt>
      <trkpt lat="43.13911548815667629241943359375" lon="13.0736722983419895172119140625">
        <ele>591.79998779296875</ele>
        <time>2021-06-06T07:12:22.000Z</time>
        <extensions>
          <ns3:TrackPointExtension>
            <ns3:atemp>25.0</ns3:atemp>
          </ns3:TrackPointExtension>
        </extensions>
      </trkpt>
      <trkpt lat="43.1390874087810516357421875" lon="13.07365142740309238433837890625">
        <ele>592</ele>
        <time>2021-06-06T07:12:23.000Z</time>
        <extensions>
          <ns3:TrackPointExtension>
            <ns3:atemp>25.0</ns3:atemp>
          </ns3:TrackPointExtension>
        </extensions>
      </trkpt>
      <trkpt lat="43.13903384841978549957275390625" lon="13.07360935024917125701904296875">
        <ele>592.5999755859375</ele>
        <time>2021-06-06T07:12:25.000Z</time>
        <extensions>
          <ns3:TrackPointExtension>
            <ns3:atemp>25.0</ns3:atemp>
          </ns3:TrackPointExtension>
        </extensions>
      </trkpt>
      <trkpt lat="43.13896595500409603118896484375" lon="13.07352921925485134124755859375">
        <ele>592.79998779296875</ele>
        <time>2021-06-06T07:12:28.000Z</time>
        <extensions>
          <ns3:TrackPointExtension>
            <ns3:atemp>25.0</ns3:atemp>
          </ns3:TrackPointExtension>
        </extensions>
      </trkpt>
      <trkpt lat="43.13892714679241180419921875" lon="13.0734716355800628662109375">
        <ele>593.20001220703125</ele>
        <time>2021-06-06T07:12:30.000Z</time>
        <extensions>
          <ns3:TrackPointExtension>
            <ns3:atemp>25.0</ns3:atemp>
          </ns3:TrackPointExtension>
        </extensions>
      </trkpt>
      <trkpt lat="43.1387952156364917755126953125" lon="13.07332620956003665924072265625">
        <ele>593.79998779296875</ele>
        <time>2021-06-06T07:12:36.000Z</time>
        <extensions>
          <ns3:TrackPointExtension>
            <ns3:atemp>25.0</ns3:atemp>
          </ns3:TrackPointExtension>
        </extensions>
      </trkpt>
      <trkpt lat="43.1387848220765590667724609375" lon="13.07329888455569744110107421875">
        <ele>594</ele>
        <time>2021-06-06T07:12:37.000Z</time>
        <extensions>
          <ns3:TrackPointExtension>
            <ns3:atemp>25.0</ns3:atemp>
          </ns3:TrackPointExtension>
        </extensions>
      </trkpt>
      <trkpt lat="43.13872472383081912994384765625" lon="13.073232583701610565185546875">
        <ele>594.79998779296875</ele>
        <time>2021-06-06T07:12:40.000Z</time>
        <extensions>
          <ns3:TrackPointExtension>
            <ns3:atemp>25.0</ns3:atemp>
          </ns3:TrackPointExtension>
        </extensions>
      </trkpt>
      <trkpt lat="43.13869169913232326507568359375" lon="13.073188997805118560791015625">
        <ele>595.20001220703125</ele>
        <time>2021-06-06T07:12:42.000Z</time>
        <extensions>
          <ns3:TrackPointExtension>
            <ns3:atemp>25.0</ns3:atemp>
          </ns3:TrackPointExtension>
        </extensions>
      </trkpt>
      <trkpt lat="43.13864375464618206024169921875" lon="13.07316787540912628173828125">
        <ele>596</ele>
        <time>2021-06-06T07:12:45.000Z</time>
        <extensions>
          <ns3:TrackPointExtension>
            <ns3:atemp>25.0</ns3:atemp>
          </ns3:TrackPointExtension>
        </extensions>
      </trkpt>
      <trkpt lat="43.13860737718641757965087890625" lon="13.0731563083827495574951171875">
        <ele>596.5999755859375</ele>
        <time>2021-06-06T07:12:47.000Z</time>
        <extensions>
          <ns3:TrackPointExtension>
            <ns3:atemp>25.0</ns3:atemp>
          </ns3:TrackPointExtension>
        </extensions>
      </trkpt>
      <trkpt lat="43.13856915570795536041259765625" lon="13.0731435678899288177490234375">
        <ele>597.4000244140625</ele>
        <time>2021-06-06T07:12:49.000Z</time>
        <extensions>
          <ns3:TrackPointExtension>
            <ns3:atemp>25.0</ns3:atemp>
          </ns3:TrackPointExtension>
        </extensions>
      </trkpt>
      <trkpt lat="43.13849120400846004486083984375" lon="13.07315580546855926513671875">
        <ele>598.4000244140625</ele>
        <time>2021-06-06T07:12:53.000Z</time>
        <extensions>
          <ns3:TrackPointExtension>
            <ns3:atemp>25.0</ns3:atemp>
          </ns3:TrackPointExtension>
        </extensions>
      </trkpt>
      <trkpt lat="43.1384559161961078643798828125" lon="13.073170222342014312744140625">
        <ele>599</ele>
        <time>2021-06-06T07:12:55.000Z</time>
        <extensions>
          <ns3:TrackPointExtension>
            <ns3:atemp>25.0</ns3:atemp>
          </ns3:TrackPointExtension>
        </extensions>
      </trkpt>
      <trkpt lat="43.13840721733868122100830078125" lon="13.07319310493767261505126953125">
        <ele>599.5999755859375</ele>
        <time>2021-06-06T07:12:58.000Z</time>
        <extensions>
          <ns3:TrackPointExtension>
            <ns3:atemp>25.0</ns3:atemp>
          </ns3:TrackPointExtension>
        </extensions>
      </trkpt>
      <trkpt lat="43.13832540996372699737548828125" lon="13.0732166580855846405029296875">
        <ele>600.4000244140625</ele>
        <time>2021-06-06T07:13:03.000Z</time>
        <extensions>
          <ns3:TrackPointExtension>
            <ns3:atemp>25.0</ns3:atemp>
          </ns3:TrackPointExtension>
        </extensions>
      </trkpt>
      <trkpt lat="43.13831082545220851898193359375" lon="13.073219172656536102294921875">
        <ele>600.5999755859375</ele>
        <time>2021-06-06T07:13:04.000Z</time>
        <extensions>
          <ns3:TrackPointExtension>
            <ns3:atemp>25.0</ns3:atemp>
          </ns3:TrackPointExtension>
        </extensions>
      </trkpt>
      <trkpt lat="43.13821711577475070953369140625" lon="13.07323224842548370361328125">
        <ele>602</ele>
        <time>2021-06-06T07:13:08.000Z</time>
        <extensions>
          <ns3:TrackPointExtension>
            <ns3:atemp>25.0</ns3:atemp>
          </ns3:TrackPointExtension>
        </extensions>
      </trkpt>
      <trkpt lat="43.138159029185771942138671875" lon="13.0732250399887561798095703125">
        <ele>602.79998779296875</ele>
        <time>2021-06-06T07:13:10.000Z</time>
        <extensions>
          <ns3:TrackPointExtension>
            <ns3:atemp>25.0</ns3:atemp>
          </ns3:TrackPointExtension>
        </extensions>
      </trkpt>
      <trkpt lat="43.13808568753302097320556640625" lon="13.07320986874401569366455078125">
        <ele>603.20001220703125</ele>
        <time>2021-06-06T07:13:12.000Z</time>
        <extensions>
          <ns3:TrackPointExtension>
            <ns3:atemp>25.0</ns3:atemp>
          </ns3:TrackPointExtension>
        </extensions>
      </trkpt>
      <trkpt lat="43.13800136558711528778076171875" lon="13.07328245602548122406005859375">
        <ele>604</ele>
        <time>2021-06-06T07:13:15.000Z</time>
        <extensions>
          <ns3:TrackPointExtension>
            <ns3:atemp>25.0</ns3:atemp>
          </ns3:TrackPointExtension>
        </extensions>
      </trkpt>
      <trkpt lat="43.1379623897373676300048828125" lon="13.07329150848090648651123046875">
        <ele>604.20001220703125</ele>
        <time>2021-06-06T07:13:16.000Z</time>
        <extensions>
          <ns3:TrackPointExtension>
            <ns3:atemp>25.0</ns3:atemp>
          </ns3:TrackPointExtension>
        </extensions>
      </trkpt>
      <trkpt lat="43.1377910636365413665771484375" lon="13.0732203461229801177978515625">
        <ele>605</ele>
        <time>2021-06-06T07:13:21.000Z</time>
        <extensions>
          <ns3:TrackPointExtension>
            <ns3:atemp>25.0</ns3:atemp>
          </ns3:TrackPointExtension>
        </extensions>
      </trkpt>
      <trkpt lat="43.13759543001651763916015625" lon="13.0731264688074588775634765625">
        <ele>605.79998779296875</ele>
        <time>2021-06-06T07:13:26.000Z</time>
        <extensions>
          <ns3:TrackPointExtension>
            <ns3:atemp>25.0</ns3:atemp>
          </ns3:TrackPointExtension>
        </extensions>
      </trkpt>
      <trkpt lat="43.13743290491402149200439453125" lon="13.07293963618576526641845703125">
        <ele>606</ele>
        <time>2021-06-06T07:13:31.000Z</time>
        <extensions>
          <ns3:TrackPointExtension>
            <ns3:atemp>25.0</ns3:atemp>
          </ns3:TrackPointExtension>
        </extensions>
      </trkpt>
      <trkpt lat="43.13737372867763042449951171875" lon="13.07277535088360309600830078125">
        <ele>606.20001220703125</ele>
        <time>2021-06-06T07:13:35.000Z</time>
        <extensions>
          <ns3:TrackPointExtension>
            <ns3:atemp>25.0</ns3:atemp>
          </ns3:TrackPointExtension>
        </extensions>
      </trkpt>
      <trkpt lat="43.13734824769198894500732421875" lon="13.07268784381449222564697265625">
        <ele>606.20001220703125</ele>
        <time>2021-06-06T07:13:37.000Z</time>
        <extensions>
          <ns3:TrackPointExtension>
            <ns3:atemp>25.0</ns3:atemp>
          </ns3:TrackPointExtension>
        </extensions>
      </trkpt>
      <trkpt lat="43.13723760657012462615966796875" lon="13.07244678027927875518798828125">
        <ele>606.5999755859375</ele>
        <time>2021-06-06T07:13:44.000Z</time>
        <extensions>
          <ns3:TrackPointExtension>
            <ns3:atemp>25.0</ns3:atemp>
          </ns3:TrackPointExtension>
        </extensions>
      </trkpt>
      <trkpt lat="43.13713568262755870819091796875" lon="13.07213882915675640106201171875">
        <ele>607.20001220703125</ele>
        <time>2021-06-06T07:13:51.000Z</time>
        <extensions>
          <ns3:TrackPointExtension>
            <ns3:atemp>24.0</ns3:atemp>
          </ns3:TrackPointExtension>
        </extensions>
      </trkpt>
      <trkpt lat="43.13702906481921672821044921875" lon="13.07186407037079334259033203125">
        <ele>608.20001220703125</ele>
        <time>2021-06-06T07:13:57.000Z</time>
        <extensions>
          <ns3:TrackPointExtension>
            <ns3:atemp>24.0</ns3:atemp>
          </ns3:TrackPointExtension>
        </extensions>
      </trkpt>
      <trkpt lat="43.13701297156512737274169921875" lon="13.07182199321687221527099609375">
        <ele>608.5999755859375</ele>
        <time>2021-06-06T07:13:58.000Z</time>
        <extensions>
          <ns3:TrackPointExtension>
            <ns3:atemp>24.0</ns3:atemp>
          </ns3:TrackPointExtension>
        </extensions>
      </trkpt>
      <trkpt lat="43.13693133182823657989501953125" lon="13.0716579593718051910400390625">
        <ele>609.20001220703125</ele>
        <time>2021-06-06T07:14:02.000Z</time>
        <extensions>
          <ns3:TrackPointExtension>
            <ns3:atemp>24.0</ns3:atemp>
          </ns3:TrackPointExtension>
        </extensions>
      </trkpt>
      <trkpt lat="43.136876262724399566650390625" lon="13.07151965796947479248046875">
        <ele>609.5999755859375</ele>
        <time>2021-06-06T07:14:05.000Z</time>
        <extensions>
          <ns3:TrackPointExtension>
            <ns3:atemp>24.0</ns3:atemp>
          </ns3:TrackPointExtension>
        </extensions>
      </trkpt>
      <trkpt lat="43.136675767600536346435546875" lon="13.0712009780108928680419921875">
        <ele>610</ele>
        <time>2021-06-06T07:14:13.000Z</time>
        <extensions>
          <ns3:TrackPointExtension>
            <ns3:atemp>24.0</ns3:atemp>
          </ns3:TrackPointExtension>
        </extensions>
      </trkpt>
      <trkpt lat="43.13660963438451290130615234375" lon="13.07109645567834377288818359375">
        <ele>610.4000244140625</ele>
        <time>2021-06-06T07:14:16.000Z</time>
        <extensions>
          <ns3:TrackPointExtension>
            <ns3:atemp>24.0</ns3:atemp>
          </ns3:TrackPointExtension>
        </extensions>
      </trkpt>
      <trkpt lat="43.13652497716248035430908203125" lon="13.0709974654018878936767578125">
        <ele>610.79998779296875</ele>
        <time>2021-06-06T07:14:19.000Z</time>
        <extensions>
          <ns3:TrackPointExtension>
            <ns3:atemp>24.0</ns3:atemp>
          </ns3:TrackPointExtension>
        </extensions>
      </trkpt>
      <trkpt lat="43.13633537851274013519287109375" lon="13.07081096805632114410400390625">
        <ele>611.4000244140625</ele>
        <time>2021-06-06T07:14:25.000Z</time>
        <extensions>
          <ns3:TrackPointExtension>
            <ns3:atemp>24.0</ns3:atemp>
          </ns3:TrackPointExtension>
        </extensions>
      </trkpt>
      <trkpt lat="43.1363051198422908782958984375" lon="13.0707785300910472869873046875">
        <ele>611.5999755859375</ele>
        <time>2021-06-06T07:14:26.000Z</time>
        <extensions>
          <ns3:TrackPointExtension>
            <ns3:atemp>24.0</ns3:atemp>
          </ns3:TrackPointExtension>
        </extensions>
      </trkpt>
      <trkpt lat="43.136180229485034942626953125" lon="13.0706471018493175506591796875">
        <ele>612.5999755859375</ele>
        <time>2021-06-06T07:14:30.000Z</time>
        <extensions>
          <ns3:TrackPointExtension>
            <ns3:atemp>24.0</ns3:atemp>
          </ns3:TrackPointExtension>
        </extensions>
      </trkpt>
      <trkpt lat="43.13603103160858154296875" lon="13.07048876769840717315673828125">
        <ele>613.4000244140625</ele>
        <time>2021-06-06T07:14:35.000Z</time>
        <extensions>
          <ns3:TrackPointExtension>
            <ns3:atemp>24.0</ns3:atemp>
          </ns3:TrackPointExtension>
        </extensions>
      </trkpt>
      <trkpt lat="43.13600110821425914764404296875" lon="13.07045641355216503143310546875">
        <ele>613.5999755859375</ele>
        <time>2021-06-06T07:14:36.000Z</time>
        <extensions>
          <ns3:TrackPointExtension>
            <ns3:atemp>24.0</ns3:atemp>
          </ns3:TrackPointExtension>
        </extensions>
      </trkpt>
      <trkpt lat="43.135811425745487213134765625" lon="13.07027284987270832061767578125">
        <ele>614.4000244140625</ele>
        <time>2021-06-06T07:14:42.000Z</time>
        <extensions>
          <ns3:TrackPointExtension>
            <ns3:atemp>24.0</ns3:atemp>
          </ns3:TrackPointExtension>
        </extensions>
      </trkpt>
      <trkpt lat="43.1357787363231182098388671875" lon="13.07024292647838592529296875">
        <ele>614.79998779296875</ele>
        <time>2021-06-06T07:14:43.000Z</time>
        <extensions>
          <ns3:TrackPointExtension>
            <ns3:atemp>24.0</ns3:atemp>
          </ns3:TrackPointExtension>
        </extensions>
      </trkpt>
      <trkpt lat="43.13553658314049243927001953125" lon="13.07002474553883075714111328125">
        <ele>615.20001220703125</ele>
        <time>2021-06-06T07:14:50.000Z</time>
        <extensions>
          <ns3:TrackPointExtension>
            <ns3:atemp>24.0</ns3:atemp>
          </ns3:TrackPointExtension>
        </extensions>
      </trkpt>
      <trkpt lat="43.13531714491546154022216796875" lon="13.069846630096435546875">
        <ele>615.5999755859375</ele>
        <time>2021-06-06T07:14:56.000Z</time>
        <extensions>
          <ns3:TrackPointExtension>
            <ns3:atemp>24.0</ns3:atemp>
          </ns3:TrackPointExtension>
        </extensions>
      </trkpt>
      <trkpt lat="43.13527942635118961334228515625" lon="13.06981855072081089019775390625">
        <ele>615.5999755859375</ele>
        <time>2021-06-06T07:14:57.000Z</time>
        <extensions>
          <ns3:TrackPointExtension>
            <ns3:atemp>23.0</ns3:atemp>
          </ns3:TrackPointExtension>
        </extensions>
      </trkpt>
      <trkpt lat="43.1352426297962665557861328125" lon="13.069786615669727325439453125">
        <ele>615.5999755859375</ele>
        <time>2021-06-06T07:14:58.000Z</time>
        <extensions>
          <ns3:TrackPointExtension>
            <ns3:atemp>23.0</ns3:atemp>
          </ns3:TrackPointExtension>
        </extensions>
      </trkpt>
      <trkpt lat="43.1351293064653873443603515625" lon="13.06961596012115478515625">
        <ele>615.79998779296875</ele>
        <time>2021-06-06T07:15:02.000Z</time>
        <extensions>
          <ns3:TrackPointExtension>
            <ns3:atemp>23.0</ns3:atemp>
          </ns3:TrackPointExtension>
        </extensions>
      </trkpt>
      <trkpt lat="43.1350726447999477386474609375" lon="13.069547228515148162841796875">
        <ele>616</ele>
        <time>2021-06-06T07:15:04.000Z</time>
        <extensions>
          <ns3:TrackPointExtension>
            <ns3:atemp>23.0</ns3:atemp>
          </ns3:TrackPointExtension>
        </extensions>
      </trkpt>
      <trkpt lat="43.13496418297290802001953125" lon="13.0694575421512126922607421875">
        <ele>616.20001220703125</ele>
        <time>2021-06-06T07:15:07.000Z</time>
        <extensions>
          <ns3:TrackPointExtension>
            <ns3:atemp>23.0</ns3:atemp>
          </ns3:TrackPointExtension>
        </extensions>
      </trkpt>
      <trkpt lat="43.13478187657892704010009765625" lon="13.06930021382868289947509765625">
        <ele>616.5999755859375</ele>
        <time>2021-06-06T07:15:12.000Z</time>
        <extensions>
          <ns3:TrackPointExtension>
            <ns3:atemp>23.0</ns3:atemp>
          </ns3:TrackPointExtension>
        </extensions>
      </trkpt>
      <trkpt lat="43.13470040448009967803955078125" lon="13.06923978030681610107421875">
        <ele>616.5999755859375</ele>
        <time>2021-06-06T07:15:14.000Z</time>
        <extensions>
          <ns3:TrackPointExtension>
            <ns3:atemp>23.0</ns3:atemp>
          </ns3:TrackPointExtension>
        </extensions>
      </trkpt>
      <trkpt lat="43.134536035358905792236328125" lon="13.06912788189947605133056640625">
        <ele>617.20001220703125</ele>
        <time>2021-06-06T07:15:18.000Z</time>
        <extensions>
          <ns3:TrackPointExtension>
            <ns3:atemp>23.0</ns3:atemp>
          </ns3:TrackPointExtension>
        </extensions>
      </trkpt>
      <trkpt lat="43.1344497017562389373779296875" lon="13.06906141340732574462890625">
        <ele>617</ele>
        <time>2021-06-06T07:15:20.000Z</time>
        <extensions>
          <ns3:TrackPointExtension>
            <ns3:atemp>23.0</ns3:atemp>
          </ns3:TrackPointExtension>
        </extensions>
      </trkpt>
      <trkpt lat="43.13428784720599651336669921875" lon="13.06891514919698238372802734375">
        <ele>617</ele>
        <time>2021-06-06T07:15:24.000Z</time>
        <extensions>
          <ns3:TrackPointExtension>
            <ns3:atemp>23.0</ns3:atemp>
          </ns3:TrackPointExtension>
        </extensions>
      </trkpt>
      <trkpt lat="43.1341781280934810638427734375" lon="13.068768717348575592041015625">
        <ele>617</ele>
        <time>2021-06-06T07:15:27.000Z</time>
        <extensions>
          <ns3:TrackPointExtension>
            <ns3:atemp>23.0</ns3:atemp>
          </ns3:TrackPointExtension>
        </extensions>
      </trkpt>
      <trkpt lat="43.1340775452554225921630859375" lon="13.06861080229282379150390625">
        <ele>616.79998779296875</ele>
        <time>2021-06-06T07:15:30.000Z</time>
        <extensions>
          <ns3:TrackPointExtension>
            <ns3:atemp>23.0</ns3:atemp>
          </ns3:TrackPointExtension>
        </extensions>
      </trkpt>
      <trkpt lat="43.13394586555659770965576171875" lon="13.06838021613657474517822265625">
        <ele>616.4000244140625</ele>
        <time>2021-06-06T07:15:34.000Z</time>
        <extensions>
          <ns3:TrackPointExtension>
            <ns3:atemp>23.0</ns3:atemp>
          </ns3:TrackPointExtension>
        </extensions>
      </trkpt>
      <trkpt lat="43.1337144412100315093994140625" lon="13.06798048317432403564453125">
        <ele>615.79998779296875</ele>
        <time>2021-06-06T07:15:41.000Z</time>
        <extensions>
          <ns3:TrackPointExtension>
            <ns3:atemp>23.0</ns3:atemp>
          </ns3:TrackPointExtension>
        </extensions>
      </trkpt>
      <trkpt lat="43.13346876762807369232177734375" lon="13.06761436164379119873046875">
        <ele>615.5999755859375</ele>
        <time>2021-06-06T07:15:48.000Z</time>
        <extensions>
          <ns3:TrackPointExtension>
            <ns3:atemp>23.0</ns3:atemp>
          </ns3:TrackPointExtension>
        </extensions>
      </trkpt>
      <trkpt lat="43.13333817757666110992431640625" lon="13.06743674911558628082275390625">
        <ele>615.20001220703125</ele>
        <time>2021-06-06T07:15:52.000Z</time>
        <extensions>
          <ns3:TrackPointExtension>
            <ns3:atemp>23.0</ns3:atemp>
          </ns3:TrackPointExtension>
        </extensions>
      </trkpt>
      <trkpt lat="43.13321345485746860504150390625" lon="13.06726492010056972503662109375">
        <ele>614.79998779296875</ele>
        <time>2021-06-06T07:15:56.000Z</time>
        <extensions>
          <ns3:TrackPointExtension>
            <ns3:atemp>23.0</ns3:atemp>
          </ns3:TrackPointExtension>
        </extensions>
      </trkpt>
      <trkpt lat="43.13304548151791095733642578125" lon="13.06725134141743183135986328125">
        <ele>614.79998779296875</ele>
        <time>2021-06-06T07:16:00.000Z</time>
        <extensions>
          <ns3:TrackPointExtension>
            <ns3:atemp>23.0</ns3:atemp>
          </ns3:TrackPointExtension>
        </extensions>
      </trkpt>
      <trkpt lat="43.1328866444528102874755859375" lon="13.0671974457800388336181640625">
        <ele>614.79998779296875</ele>
        <time>2021-06-06T07:16:03.000Z</time>
        <extensions>
          <ns3:TrackPointExtension>
            <ns3:atemp>23.0</ns3:atemp>
          </ns3:TrackPointExtension>
        </extensions>
      </trkpt>
      <trkpt lat="43.132745325565338134765625" lon="13.06700491346418857574462890625">
        <ele>614.79998779296875</ele>
        <time>2021-06-06T07:16:06.000Z</time>
        <extensions>
          <ns3:TrackPointExtension>
            <ns3:atemp>23.0</ns3:atemp>
          </ns3:TrackPointExtension>
        </extensions>
      </trkpt>
      <trkpt lat="43.132700733840465545654296875" lon="13.0669275484979152679443359375">
        <ele>614.79998779296875</ele>
        <time>2021-06-06T07:16:07.000Z</time>
        <extensions>
          <ns3:TrackPointExtension>
            <ns3:atemp>23.0</ns3:atemp>
          </ns3:TrackPointExtension>
        </extensions>
      </trkpt>
      <trkpt lat="43.13256486319005489349365234375" lon="13.06668438948690891265869140625">
        <ele>613.79998779296875</ele>
        <time>2021-06-06T07:16:10.000Z</time>
        <extensions>
          <ns3:TrackPointExtension>
            <ns3:atemp>23.0</ns3:atemp>
          </ns3:TrackPointExtension>
        </extensions>
      </trkpt>
      <trkpt lat="43.13246511854231357574462890625" lon="13.0665403045713901519775390625">
        <ele>611.79998779296875</ele>
        <time>2021-06-06T07:16:12.000Z</time>
        <extensions>
          <ns3:TrackPointExtension>
            <ns3:atemp>23.0</ns3:atemp>
          </ns3:TrackPointExtension>
        </extensions>
      </trkpt>
      <trkpt lat="43.132415749132633209228515625" lon="13.06646746583282947540283203125">
        <ele>611.20001220703125</ele>
        <time>2021-06-06T07:16:13.000Z</time>
        <extensions>
          <ns3:TrackPointExtension>
            <ns3:atemp>23.0</ns3:atemp>
          </ns3:TrackPointExtension>
        </extensions>
      </trkpt>
      <trkpt lat="43.132362104952335357666015625" lon="13.06639890186488628387451171875">
        <ele>610.5999755859375</ele>
        <time>2021-06-06T07:16:14.000Z</time>
        <extensions>
          <ns3:TrackPointExtension>
            <ns3:atemp>23.0</ns3:atemp>
          </ns3:TrackPointExtension>
        </extensions>
      </trkpt>
      <trkpt lat="43.13223763369023799896240234375" lon="13.0662725865840911865234375">
        <ele>608.79998779296875</ele>
        <time>2021-06-06T07:16:16.000Z</time>
        <extensions>
          <ns3:TrackPointExtension>
            <ns3:atemp>23.0</ns3:atemp>
          </ns3:TrackPointExtension>
        </extensions>
      </trkpt>
      <trkpt lat="43.13210503198206424713134765625" lon="13.06616001762449741363525390625">
        <ele>607.79998779296875</ele>
        <time>2021-06-06T07:16:18.000Z</time>
        <extensions>
          <ns3:TrackPointExtension>
            <ns3:atemp>23.0</ns3:atemp>
          </ns3:TrackPointExtension>
        </extensions>
      </trkpt>
      <trkpt lat="43.1318982504308223724365234375" lon="13.0660070478916168212890625">
        <ele>606.5999755859375</ele>
        <time>2021-06-06T07:16:21.000Z</time>
        <extensions>
          <ns3:TrackPointExtension>
            <ns3:atemp>23.0</ns3:atemp>
          </ns3:TrackPointExtension>
        </extensions>
      </trkpt>
      <trkpt lat="43.131752908229827880859375" lon="13.06590177118778228759765625">
        <ele>605.5999755859375</ele>
        <time>2021-06-06T07:16:23.000Z</time>
        <extensions>
          <ns3:TrackPointExtension>
            <ns3:atemp>23.0</ns3:atemp>
          </ns3:TrackPointExtension>
        </extensions>
      </trkpt>
      <trkpt lat="43.1316786445677280426025390625" lon="13.06585273705422878265380859375">
        <ele>604.79998779296875</ele>
        <time>2021-06-06T07:16:24.000Z</time>
        <extensions>
          <ns3:TrackPointExtension>
            <ns3:atemp>23.0</ns3:atemp>
          </ns3:TrackPointExtension>
        </extensions>
      </trkpt>
      <trkpt lat="43.13160563819110393524169921875" lon="13.06580529548227787017822265625">
        <ele>603.79998779296875</ele>
        <time>2021-06-06T07:16:25.000Z</time>
        <extensions>
          <ns3:TrackPointExtension>
            <ns3:atemp>23.0</ns3:atemp>
          </ns3:TrackPointExtension>
        </extensions>
      </trkpt>
      <trkpt lat="43.13153003342449665069580078125" lon="13.06577034294605255126953125">
        <ele>603</ele>
        <time>2021-06-06T07:16:26.000Z</time>
        <extensions>
          <ns3:TrackPointExtension>
            <ns3:atemp>23.0</ns3:atemp>
          </ns3:TrackPointExtension>
        </extensions>
      </trkpt>
      <trkpt lat="43.131453506648540496826171875" lon="13.06574620306491851806640625">
        <ele>602.4000244140625</ele>
        <time>2021-06-06T07:16:27.000Z</time>
        <extensions>
          <ns3:TrackPointExtension>
            <ns3:atemp>23.0</ns3:atemp>
          </ns3:TrackPointExtension>
        </extensions>
      </trkpt>
      <trkpt lat="43.13137211836874485015869140625" lon="13.06573807261884212493896484375">
        <ele>601.79998779296875</ele>
        <time>2021-06-06T07:16:28.000Z</time>
        <extensions>
          <ns3:TrackPointExtension>
            <ns3:atemp>23.0</ns3:atemp>
          </ns3:TrackPointExtension>
        </extensions>
      </trkpt>
      <trkpt lat="43.1312162987887859344482421875" lon="13.065759278833866119384765625">
        <ele>601.4000244140625</ele>
        <time>2021-06-06T07:16:30.000Z</time>
        <extensions>
          <ns3:TrackPointExtension>
            <ns3:atemp>23.0</ns3:atemp>
          </ns3:TrackPointExtension>
        </extensions>
      </trkpt>
      <trkpt lat="43.1311448849737644195556640625" lon="13.0657889507710933685302734375">
        <ele>600.79998779296875</ele>
        <time>2021-06-06T07:16:31.000Z</time>
        <extensions>
          <ns3:TrackPointExtension>
            <ns3:atemp>23.0</ns3:atemp>
          </ns3:TrackPointExtension>
        </extensions>
      </trkpt>
      <trkpt lat="43.13100750558078289031982421875" lon="13.0658851750195026397705078125">
        <ele>600</ele>
        <time>2021-06-06T07:16:33.000Z</time>
        <extensions>
          <ns3:TrackPointExtension>
            <ns3:atemp>23.0</ns3:atemp>
          </ns3:TrackPointExtension>
        </extensions>
      </trkpt>
      <trkpt lat="43.1308744847774505615234375" lon="13.0659830756485462188720703125">
        <ele>599</ele>
        <time>2021-06-06T07:16:35.000Z</time>
        <extensions>
          <ns3:TrackPointExtension>
            <ns3:atemp>22.0</ns3:atemp>
          </ns3:TrackPointExtension>
        </extensions>
      </trkpt>
      <trkpt lat="43.13080810010433197021484375" lon="13.0660172738134860992431640625">
        <ele>598.5999755859375</ele>
        <time>2021-06-06T07:16:36.000Z</time>
        <extensions>
          <ns3:TrackPointExtension>
            <ns3:atemp>22.0</ns3:atemp>
          </ns3:TrackPointExtension>
        </extensions>
      </trkpt>
      <trkpt lat="43.1306738220155239105224609375" lon="13.06602607481181621551513671875">
        <ele>598.20001220703125</ele>
        <time>2021-06-06T07:16:38.000Z</time>
        <extensions>
          <ns3:TrackPointExtension>
            <ns3:atemp>22.0</ns3:atemp>
          </ns3:TrackPointExtension>
        </extensions>
      </trkpt>
      <trkpt lat="43.13060902990400791168212890625" lon="13.065999336540699005126953125">
        <ele>597.5999755859375</ele>
        <time>2021-06-06T07:16:39.000Z</time>
        <extensions>
          <ns3:TrackPointExtension>
            <ns3:atemp>22.0</ns3:atemp>
          </ns3:TrackPointExtension>
        </extensions>
      </trkpt>
      <trkpt lat="43.13050107099115848541259765625" lon="13.06588525883853435516357421875">
        <ele>596.5999755859375</ele>
        <time>2021-06-06T07:16:41.000Z</time>
        <extensions>
          <ns3:TrackPointExtension>
            <ns3:atemp>22.0</ns3:atemp>
          </ns3:TrackPointExtension>
        </extensions>
      </trkpt>
      <trkpt lat="43.1304568983614444732666015625" lon="13.06580713950097560882568359375">
        <ele>596.4000244140625</ele>
        <time>2021-06-06T07:16:42.000Z</time>
        <extensions>
          <ns3:TrackPointExtension>
            <ns3:atemp>22.0</ns3:atemp>
          </ns3:TrackPointExtension>
        </extensions>
      </trkpt>
      <trkpt lat="43.13032932579517364501953125" lon="13.06557479314506053924560546875">
        <ele>595.4000244140625</ele>
        <time>2021-06-06T07:16:45.000Z</time>
        <extensions>
          <ns3:TrackPointExtension>
            <ns3:atemp>22.0</ns3:atemp>
          </ns3:TrackPointExtension>
        </extensions>
      </trkpt>
      <trkpt lat="43.13024844042956829071044921875" lon="13.06542358361184597015380859375">
        <ele>594</ele>
        <time>2021-06-06T07:16:47.000Z</time>
        <extensions>
          <ns3:TrackPointExtension>
            <ns3:atemp>22.0</ns3:atemp>
          </ns3:TrackPointExtension>
        </extensions>
      </trkpt>
      <trkpt lat="43.13020669855177402496337890625" lon="13.06534931994974613189697265625">
        <ele>593.5999755859375</ele>
        <time>2021-06-06T07:16:48.000Z</time>
        <extensions>
          <ns3:TrackPointExtension>
            <ns3:atemp>22.0</ns3:atemp>
          </ns3:TrackPointExtension>
        </extensions>
      </trkpt>
      <trkpt lat="43.1300445087254047393798828125" lon="13.06504824198782444000244140625">
        <ele>592.79998779296875</ele>
        <time>2021-06-06T07:16:52.000Z</time>
        <extensions>
          <ns3:TrackPointExtension>
            <ns3:atemp>22.0</ns3:atemp>
          </ns3:TrackPointExtension>
        </extensions>
      </trkpt>
      <trkpt lat="43.1299254857003688812255859375" lon="13.06482830084860324859619140625">
        <ele>591.4000244140625</ele>
        <time>2021-06-06T07:16:55.000Z</time>
        <extensions>
          <ns3:TrackPointExtension>
            <ns3:atemp>22.0</ns3:atemp>
          </ns3:TrackPointExtension>
        </extensions>
      </trkpt>
      <trkpt lat="43.129887096583843231201171875" lon="13.06476124562323093414306640625">
        <ele>591.20001220703125</ele>
        <time>2021-06-06T07:16:56.000Z</time>
        <extensions>
          <ns3:TrackPointExtension>
            <ns3:atemp>22.0</ns3:atemp>
          </ns3:TrackPointExtension>
        </extensions>
      </trkpt>
      <trkpt lat="43.129729516804218292236328125" lon="13.0644803680479526519775390625">
        <ele>590.20001220703125</ele>
        <time>2021-06-06T07:17:00.000Z</time>
        <extensions>
          <ns3:TrackPointExtension>
            <ns3:atemp>22.0</ns3:atemp>
          </ns3:TrackPointExtension>
        </extensions>
      </trkpt>
      <trkpt lat="43.129606805741786956787109375" lon="13.06426830589771270751953125">
        <ele>589.79998779296875</ele>
        <time>2021-06-06T07:17:03.000Z</time>
        <extensions>
          <ns3:TrackPointExtension>
            <ns3:atemp>22.0</ns3:atemp>
          </ns3:TrackPointExtension>
        </extensions>
      </trkpt>
      <trkpt lat="43.12942382879555225372314453125" lon="13.063908554613590240478515625">
        <ele>589.4000244140625</ele>
        <time>2021-06-06T07:17:08.000Z</time>
        <extensions>
          <ns3:TrackPointExtension>
            <ns3:atemp>22.0</ns3:atemp>
          </ns3:TrackPointExtension>
        </extensions>
      </trkpt>
      <trkpt lat="43.12938745133578777313232421875" lon="13.06383621878921985626220703125">
        <ele>589</ele>
        <time>2021-06-06T07:17:09.000Z</time>
        <extensions>
          <ns3:TrackPointExtension>
            <ns3:atemp>22.0</ns3:atemp>
          </ns3:TrackPointExtension>
        </extensions>
      </trkpt>
      <trkpt lat="43.1293563544750213623046875" lon="13.06376011110842227935791015625">
        <ele>588.5999755859375</ele>
        <time>2021-06-06T07:17:10.000Z</time>
        <extensions>
          <ns3:TrackPointExtension>
            <ns3:atemp>22.0</ns3:atemp>
          </ns3:TrackPointExtension>
        </extensions>
      </trkpt>
      <trkpt lat="43.1293008662760257720947265625" lon="13.06359850801527500152587890625">
        <ele>588.20001220703125</ele>
        <time>2021-06-06T07:17:12.000Z</time>
        <extensions>
          <ns3:TrackPointExtension>
            <ns3:atemp>22.0</ns3:atemp>
          </ns3:TrackPointExtension>
        </extensions>
      </trkpt>
      <trkpt lat="43.1292703561484813690185546875" lon="13.06340957991778850555419921875">
        <ele>588</ele>
        <time>2021-06-06T07:17:14.000Z</time>
        <extensions>
          <ns3:TrackPointExtension>
            <ns3:atemp>22.0</ns3:atemp>
          </ns3:TrackPointExtension>
        </extensions>
      </trkpt>
      <trkpt lat="43.1292696855962276458740234375" lon="13.0633115954697132110595703125">
        <ele>588</ele>
        <time>2021-06-06T07:17:15.000Z</time>
        <extensions>
          <ns3:TrackPointExtension>
            <ns3:atemp>22.0</ns3:atemp>
          </ns3:TrackPointExtension>
        </extensions>
      </trkpt>
      <trkpt lat="43.12927186489105224609375" lon="13.0632163770496845245361328125">
        <ele>587.79998779296875</ele>
        <time>2021-06-06T07:17:16.000Z</time>
        <extensions>
          <ns3:TrackPointExtension>
            <ns3:atemp>22.0</ns3:atemp>
          </ns3:TrackPointExtension>
        </extensions>
      </trkpt>
      <trkpt lat="43.12927396036684513092041015625" lon="13.06291990913450717926025390625">
        <ele>587.5999755859375</ele>
        <time>2021-06-06T07:17:19.000Z</time>
        <extensions>
          <ns3:TrackPointExtension>
            <ns3:atemp>22.0</ns3:atemp>
          </ns3:TrackPointExtension>
        </extensions>
      </trkpt>
      <trkpt lat="43.12932475470006465911865234375" lon="13.0624261312186717987060546875">
        <ele>586.79998779296875</ele>
        <time>2021-06-06T07:17:24.000Z</time>
        <extensions>
          <ns3:TrackPointExtension>
            <ns3:atemp>22.0</ns3:atemp>
          </ns3:TrackPointExtension>
        </extensions>
      </trkpt>
      <trkpt lat="43.1293622218072414398193359375" lon="13.0622358620166778564453125">
        <ele>586.4000244140625</ele>
        <time>2021-06-06T07:17:26.000Z</time>
        <extensions>
          <ns3:TrackPointExtension>
            <ns3:atemp>22.0</ns3:atemp>
          </ns3:TrackPointExtension>
        </extensions>
      </trkpt>
      <trkpt lat="43.129478394985198974609375" lon="13.06179623119533061981201171875">
        <ele>585.5999755859375</ele>
        <time>2021-06-06T07:17:31.000Z</time>
        <extensions>
          <ns3:TrackPointExtension>
            <ns3:atemp>22.0</ns3:atemp>
          </ns3:TrackPointExtension>
        </extensions>
      </trkpt>
      <trkpt lat="43.129504211246967315673828125" lon="13.0617089755833148956298828125">
        <ele>585.20001220703125</ele>
        <time>2021-06-06T07:17:32.000Z</time>
        <extensions>
          <ns3:TrackPointExtension>
            <ns3:atemp>22.0</ns3:atemp>
          </ns3:TrackPointExtension>
        </extensions>
      </trkpt>
      <trkpt lat="43.1295650638639926910400390625" lon="13.06153236888349056243896484375">
        <ele>584.4000244140625</ele>
        <time>2021-06-06T07:17:34.000Z</time>
        <extensions>
          <ns3:TrackPointExtension>
            <ns3:atemp>22.0</ns3:atemp>
          </ns3:TrackPointExtension>
        </extensions>
      </trkpt>
      <trkpt lat="43.1296941451728343963623046875" lon="13.06118552573025226593017578125">
        <ele>583.20001220703125</ele>
        <time>2021-06-06T07:17:38.000Z</time>
        <extensions>
          <ns3:TrackPointExtension>
            <ns3:atemp>22.0</ns3:atemp>
          </ns3:TrackPointExtension>
        </extensions>
      </trkpt>
      <trkpt lat="43.129824735224246978759765625" lon="13.0609532631933689117431640625">
        <ele>582.20001220703125</ele>
        <time>2021-06-06T07:17:41.000Z</time>
        <extensions>
          <ns3:TrackPointExtension>
            <ns3:atemp>22.0</ns3:atemp>
          </ns3:TrackPointExtension>
        </extensions>
      </trkpt>
      <trkpt lat="43.1299303472042083740234375" lon="13.06081454269587993621826171875">
        <ele>581.79998779296875</ele>
        <time>2021-06-06T07:17:43.000Z</time>
        <extensions>
          <ns3:TrackPointExtension>
            <ns3:atemp>22.0</ns3:atemp>
          </ns3:TrackPointExtension>
        </extensions>
      </trkpt>
      <trkpt lat="43.13003403134644031524658203125" lon="13.06069099344313144683837890625">
        <ele>581.4000244140625</ele>
        <time>2021-06-06T07:17:45.000Z</time>
        <extensions>
          <ns3:TrackPointExtension>
            <ns3:atemp>22.0</ns3:atemp>
          </ns3:TrackPointExtension>
        </extensions>
      </trkpt>
      <trkpt lat="43.13014551065862178802490234375" lon="13.06057222187519073486328125">
        <ele>581.20001220703125</ele>
        <time>2021-06-06T07:17:47.000Z</time>
        <extensions>
          <ns3:TrackPointExtension>
            <ns3:atemp>22.0</ns3:atemp>
          </ns3:TrackPointExtension>
        </extensions>
      </trkpt>
      <trkpt lat="43.13021306879818439483642578125" lon="13.0605254508554935455322265625">
        <ele>581</ele>
        <time>2021-06-06T07:17:48.000Z</time>
        <extensions>
          <ns3:TrackPointExtension>
            <ns3:atemp>22.0</ns3:atemp>
          </ns3:TrackPointExtension>
        </extensions>
      </trkpt>
      <trkpt lat="43.13028280623257160186767578125" lon="13.06048681028187274932861328125">
        <ele>581</ele>
        <time>2021-06-06T07:17:49.000Z</time>
        <extensions>
          <ns3:TrackPointExtension>
            <ns3:atemp>22.0</ns3:atemp>
          </ns3:TrackPointExtension>
        </extensions>
      </trkpt>
      <trkpt lat="43.13052252866327762603759765625" lon="13.0604158155620098114013671875">
        <ele>580.5999755859375</ele>
        <time>2021-06-06T07:17:52.000Z</time>
        <extensions>
          <ns3:TrackPointExtension>
            <ns3:atemp>22.0</ns3:atemp>
          </ns3:TrackPointExtension>
        </extensions>
      </trkpt>
      <trkpt lat="43.13060291111469268798828125" lon="13.060409612953662872314453125">
        <ele>580.5999755859375</ele>
        <time>2021-06-06T07:17:53.000Z</time>
        <extensions>
          <ns3:TrackPointExtension>
            <ns3:atemp>22.0</ns3:atemp>
          </ns3:TrackPointExtension>
        </extensions>
      </trkpt>
      <trkpt lat="43.1307685375213623046875" lon="13.0604198388755321502685546875">
        <ele>580</ele>
        <time>2021-06-06T07:17:55.000Z</time>
        <extensions>
          <ns3:TrackPointExtension>
            <ns3:atemp>22.0</ns3:atemp>
          </ns3:TrackPointExtension>
        </extensions>
      </trkpt>
      <trkpt lat="43.130852691829204559326171875" lon="13.0604288913309574127197265625">
        <ele>579.79998779296875</ele>
        <time>2021-06-06T07:17:56.000Z</time>
        <extensions>
          <ns3:TrackPointExtension>
            <ns3:atemp>22.0</ns3:atemp>
          </ns3:TrackPointExtension>
        </extensions>
      </trkpt>
      <trkpt lat="43.13109484501183032989501953125" lon="13.06041656993329524993896484375">
        <ele>578.79998779296875</ele>
        <time>2021-06-06T07:17:59.000Z</time>
        <extensions>
          <ns3:TrackPointExtension>
            <ns3:atemp>21.0</ns3:atemp>
          </ns3:TrackPointExtension>
        </extensions>
      </trkpt>
      <trkpt lat="43.13125426881015300750732421875" lon="13.06038388051092624664306640625">
        <ele>578.4000244140625</ele>
        <time>2021-06-06T07:18:01.000Z</time>
        <extensions>
          <ns3:TrackPointExtension>
            <ns3:atemp>21.0</ns3:atemp>
          </ns3:TrackPointExtension>
        </extensions>
      </trkpt>
      <trkpt lat="43.131393827497959136962890625" lon="13.0603470839560031890869140625">
        <ele>577.4000244140625</ele>
        <time>2021-06-06T07:18:03.000Z</time>
        <extensions>
          <ns3:TrackPointExtension>
            <ns3:atemp>21.0</ns3:atemp>
          </ns3:TrackPointExtension>
        </extensions>
      </trkpt>
      <trkpt lat="43.1315250881016254425048828125" lon="13.0603288114070892333984375">
        <ele>576.4000244140625</ele>
        <time>2021-06-06T07:18:05.000Z</time>
        <extensions>
          <ns3:TrackPointExtension>
            <ns3:atemp>21.0</ns3:atemp>
          </ns3:TrackPointExtension>
        </extensions>
      </trkpt>
      <trkpt lat="43.13158568926155567169189453125" lon="13.06032487191259860992431640625">
        <ele>575.79998779296875</ele>
        <time>2021-06-06T07:18:06.000Z</time>
        <extensions>
          <ns3:TrackPointExtension>
            <ns3:atemp>21.0</ns3:atemp>
          </ns3:TrackPointExtension>
        </extensions>
      </trkpt>
      <trkpt lat="43.13164654187858104705810546875" lon="13.06031967513263225555419921875">
        <ele>575.20001220703125</ele>
        <time>2021-06-06T07:18:07.000Z</time>
        <extensions>
          <ns3:TrackPointExtension>
            <ns3:atemp>21.0</ns3:atemp>
          </ns3:TrackPointExtension>
        </extensions>
      </trkpt>
      <trkpt lat="43.1318094022572040557861328125" lon="13.06021959520876407623291015625">
        <ele>574.20001220703125</ele>
        <time>2021-06-06T07:18:10.000Z</time>
        <extensions>
          <ns3:TrackPointExtension>
            <ns3:atemp>21.0</ns3:atemp>
          </ns3:TrackPointExtension>
        </extensions>
      </trkpt>
      <trkpt lat="43.13186732120811939239501953125" lon="13.06008280254900455474853515625">
        <ele>574</ele>
        <time>2021-06-06T07:18:12.000Z</time>
        <extensions>
          <ns3:TrackPointExtension>
            <ns3:atemp>21.0</ns3:atemp>
          </ns3:TrackPointExtension>
        </extensions>
      </trkpt>
      <trkpt lat="43.1318798102438449859619140625" lon="13.06000225245952606201171875">
        <ele>574</ele>
        <time>2021-06-06T07:18:13.000Z</time>
        <extensions>
          <ns3:TrackPointExtension>
            <ns3:atemp>21.0</ns3:atemp>
          </ns3:TrackPointExtension>
        </extensions>
      </trkpt>
      <trkpt lat="43.1318950653076171875" lon="13.05983536876738071441650390625">
        <ele>573.79998779296875</ele>
        <time>2021-06-06T07:18:15.000Z</time>
        <extensions>
          <ns3:TrackPointExtension>
            <ns3:atemp>21.0</ns3:atemp>
          </ns3:TrackPointExtension>
        </extensions>
      </trkpt>
      <trkpt lat="43.13191073946654796600341796875" lon="13.05961559526622295379638671875">
        <ele>573.5999755859375</ele>
        <time>2021-06-06T07:18:18.000Z</time>
        <extensions>
          <ns3:TrackPointExtension>
            <ns3:atemp>21.0</ns3:atemp>
          </ns3:TrackPointExtension>
        </extensions>
      </trkpt>
      <trkpt lat="43.13190705142915248870849609375" lon="13.05956798605620861053466796875">
        <ele>573.20001220703125</ele>
        <time>2021-06-06T07:18:19.000Z</time>
        <extensions>
          <ns3:TrackPointExtension>
            <ns3:atemp>21.0</ns3:atemp>
          </ns3:TrackPointExtension>
        </extensions>
      </trkpt>
      <trkpt lat="43.1318969093263149261474609375" lon="13.0595333687961101531982421875">
        <ele>572.4000244140625</ele>
        <time>2021-06-06T07:18:20.000Z</time>
        <extensions>
          <ns3:TrackPointExtension>
            <ns3:atemp>21.0</ns3:atemp>
          </ns3:TrackPointExtension>
        </extensions>
      </trkpt>
      <trkpt lat="43.13186530955135822296142578125" lon="13.0594716779887676239013671875">
        <ele>571.20001220703125</ele>
        <time>2021-06-06T07:18:22.000Z</time>
        <extensions>
          <ns3:TrackPointExtension>
            <ns3:atemp>21.0</ns3:atemp>
          </ns3:TrackPointExtension>
        </extensions>
      </trkpt>
      <trkpt lat="43.13181619159877300262451171875" lon="13.05943354032933712005615234375">
        <ele>570</ele>
        <time>2021-06-06T07:18:24.000Z</time>
        <extensions>
          <ns3:TrackPointExtension>
            <ns3:atemp>21.0</ns3:atemp>
          </ns3:TrackPointExtension>
        </extensions>
      </trkpt>
      <trkpt lat="43.1317604519426822662353515625" lon="13.05934687145054340362548828125">
        <ele>569</ele>
        <time>2021-06-06T07:18:27.000Z</time>
        <extensions>
          <ns3:TrackPointExtension>
            <ns3:atemp>21.0</ns3:atemp>
          </ns3:TrackPointExtension>
        </extensions>
      </trkpt>
      <trkpt lat="43.13179037533700466156005859375" lon="13.05927042849361896514892578125">
        <ele>568.79998779296875</ele>
        <time>2021-06-06T07:18:29.000Z</time>
        <extensions>
          <ns3:TrackPointExtension>
            <ns3:atemp>21.0</ns3:atemp>
          </ns3:TrackPointExtension>
        </extensions>
      </trkpt>
      <trkpt lat="43.13182331621646881103515625" lon="13.05917236022651195526123046875">
        <ele>568.5999755859375</ele>
        <time>2021-06-06T07:18:31.000Z</time>
        <extensions>
          <ns3:TrackPointExtension>
            <ns3:atemp>21.0</ns3:atemp>
          </ns3:TrackPointExtension>
        </extensions>
      </trkpt>
      <trkpt lat="43.13184200786054134368896484375" lon="13.0589778162539005279541015625">
        <ele>568.20001220703125</ele>
        <time>2021-06-06T07:18:34.000Z</time>
        <extensions>
          <ns3:TrackPointExtension>
            <ns3:atemp>21.0</ns3:atemp>
          </ns3:TrackPointExtension>
        </extensions>
      </trkpt>
      <trkpt lat="43.13184184022247791290283203125" lon="13.058901540935039520263671875">
        <ele>568.20001220703125</ele>
        <time>2021-06-06T07:18:35.000Z</time>
        <extensions>
          <ns3:TrackPointExtension>
            <ns3:atemp>21.0</ns3:atemp>
          </ns3:TrackPointExtension>
        </extensions>
      </trkpt>
      <trkpt lat="43.1318429298698902130126953125" lon="13.05865653790533542633056640625">
        <ele>568</ele>
        <time>2021-06-06T07:18:38.000Z</time>
        <extensions>
          <ns3:TrackPointExtension>
            <ns3:atemp>21.0</ns3:atemp>
          </ns3:TrackPointExtension>
        </extensions>
      </trkpt>
      <trkpt lat="43.1318365596234798431396484375" lon="13.0584879778325557708740234375">
        <ele>567.79998779296875</ele>
        <time>2021-06-06T07:18:40.000Z</time>
        <extensions>
          <ns3:TrackPointExtension>
            <ns3:atemp>21.0</ns3:atemp>
          </ns3:TrackPointExtension>
        </extensions>
      </trkpt>
      <trkpt lat="43.13182541169226169586181640625" lon="13.05839963257312774658203125">
        <ele>567.4000244140625</ele>
        <time>2021-06-06T07:18:41.000Z</time>
        <extensions>
          <ns3:TrackPointExtension>
            <ns3:atemp>21.0</ns3:atemp>
          </ns3:TrackPointExtension>
        </extensions>
      </trkpt>
      <trkpt lat="43.13181283883750438690185546875" lon="13.05831053294241428375244140625">
        <ele>566.79998779296875</ele>
        <time>2021-06-06T07:18:42.000Z</time>
        <extensions>
          <ns3:TrackPointExtension>
            <ns3:atemp>21.0</ns3:atemp>
          </ns3:TrackPointExtension>
        </extensions>
      </trkpt>
      <trkpt lat="43.1317775510251522064208984375" lon="13.05813551880419254302978515625">
        <ele>565.4000244140625</ele>
        <time>2021-06-06T07:18:44.000Z</time>
        <extensions>
          <ns3:TrackPointExtension>
            <ns3:atemp>21.0</ns3:atemp>
          </ns3:TrackPointExtension>
        </extensions>
      </trkpt>
      <trkpt lat="43.13173346221446990966796875" lon="13.05795371532440185546875">
        <ele>563.79998779296875</ele>
        <time>2021-06-06T07:18:46.000Z</time>
        <extensions>
          <ns3:TrackPointExtension>
            <ns3:atemp>21.0</ns3:atemp>
          </ns3:TrackPointExtension>
        </extensions>
      </trkpt>
      <trkpt lat="43.1317078135907649993896484375" lon="13.057862184941768646240234375">
        <ele>563</ele>
        <time>2021-06-06T07:18:47.000Z</time>
        <extensions>
          <ns3:TrackPointExtension>
            <ns3:atemp>21.0</ns3:atemp>
          </ns3:TrackPointExtension>
        </extensions>
      </trkpt>
      <trkpt lat="43.13167789019644260406494140625" lon="13.05777333676815032958984375">
        <ele>562.4000244140625</ele>
        <time>2021-06-06T07:18:48.000Z</time>
        <extensions>
          <ns3:TrackPointExtension>
            <ns3:atemp>21.0</ns3:atemp>
          </ns3:TrackPointExtension>
        </extensions>
      </trkpt>
      <trkpt lat="43.1316442787647247314453125" lon="13.05768884718418121337890625">
        <ele>561.4000244140625</ele>
        <time>2021-06-06T07:18:49.000Z</time>
        <extensions>
          <ns3:TrackPointExtension>
            <ns3:atemp>21.0</ns3:atemp>
          </ns3:TrackPointExtension>
        </extensions>
      </trkpt>
      <trkpt lat="43.1315693445503711700439453125" lon="13.05752196349203586578369140625">
        <ele>560</ele>
        <time>2021-06-06T07:18:51.000Z</time>
        <extensions>
          <ns3:TrackPointExtension>
            <ns3:atemp>21.0</ns3:atemp>
          </ns3:TrackPointExtension>
        </extensions>
      </trkpt>
      <trkpt lat="43.13152827322483062744140625" lon="13.05743881501257419586181640625">
        <ele>559.20001220703125</ele>
        <time>2021-06-06T07:18:52.000Z</time>
        <extensions>
          <ns3:TrackPointExtension>
            <ns3:atemp>21.0</ns3:atemp>
          </ns3:TrackPointExtension>
        </extensions>
      </trkpt>
      <trkpt lat="43.13148678280413150787353515625" lon="13.05735784582793712615966796875">
        <ele>558.4000244140625</ele>
        <time>2021-06-06T07:18:53.000Z</time>
        <extensions>
          <ns3:TrackPointExtension>
            <ns3:atemp>21.0</ns3:atemp>
          </ns3:TrackPointExtension>
        </extensions>
      </trkpt>
      <trkpt lat="43.13144420273602008819580078125" lon="13.057277463376522064208984375">
        <ele>557.4000244140625</ele>
        <time>2021-06-06T07:18:54.000Z</time>
        <extensions>
          <ns3:TrackPointExtension>
            <ns3:atemp>21.0</ns3:atemp>
          </ns3:TrackPointExtension>
        </extensions>
      </trkpt>
      <trkpt lat="43.13135367818176746368408203125" lon="13.0571140162646770477294921875">
        <ele>555.5999755859375</ele>
        <time>2021-06-06T07:18:56.000Z</time>
        <extensions>
          <ns3:TrackPointExtension>
            <ns3:atemp>21.0</ns3:atemp>
          </ns3:TrackPointExtension>
        </extensions>
      </trkpt>
      <trkpt lat="43.13125242479145526885986328125" lon="13.056935481727123260498046875">
        <ele>553.5999755859375</ele>
        <time>2021-06-06T07:18:58.000Z</time>
        <extensions>
          <ns3:TrackPointExtension>
            <ns3:atemp>21.0</ns3:atemp>
          </ns3:TrackPointExtension>
        </extensions>
      </trkpt>
      <trkpt lat="43.13120196573436260223388671875" lon="13.0568488128483295440673828125">
        <ele>552.4000244140625</ele>
        <time>2021-06-06T07:18:59.000Z</time>
        <extensions>
          <ns3:TrackPointExtension>
            <ns3:atemp>21.0</ns3:atemp>
          </ns3:TrackPointExtension>
        </extensions>
      </trkpt>
      <trkpt lat="43.1311039812862873077392578125" lon="13.05668528191745281219482421875">
        <ele>550.79998779296875</ele>
        <time>2021-06-06T07:19:01.000Z</time>
        <extensions>
          <ns3:TrackPointExtension>
            <ns3:atemp>21.0</ns3:atemp>
          </ns3:TrackPointExtension>
        </extensions>
      </trkpt>
      <trkpt lat="43.13101035542786121368408203125" lon="13.0565323121845722198486328125">
        <ele>549.5999755859375</ele>
        <time>2021-06-06T07:19:03.000Z</time>
        <extensions>
          <ns3:TrackPointExtension>
            <ns3:atemp>21.0</ns3:atemp>
          </ns3:TrackPointExtension>
        </extensions>
      </trkpt>
      <trkpt lat="43.13091664575040340423583984375" lon="13.0563764087855815887451171875">
        <ele>548.4000244140625</ele>
        <time>2021-06-06T07:19:05.000Z</time>
        <extensions>
          <ns3:TrackPointExtension>
            <ns3:atemp>21.0</ns3:atemp>
          </ns3:TrackPointExtension>
        </extensions>
      </trkpt>
      <trkpt lat="43.13086844980716705322265625" lon="13.05629468522965908050537109375">
        <ele>547.20001220703125</ele>
        <time>2021-06-06T07:19:06.000Z</time>
        <extensions>
          <ns3:TrackPointExtension>
            <ns3:atemp>21.0</ns3:atemp>
          </ns3:TrackPointExtension>
        </extensions>
      </trkpt>
      <trkpt lat="43.13076652586460113525390625" lon="13.0561283044517040252685546875">
        <ele>545.4000244140625</ele>
        <time>2021-06-06T07:19:08.000Z</time>
        <extensions>
          <ns3:TrackPointExtension>
            <ns3:atemp>21.0</ns3:atemp>
          </ns3:TrackPointExtension>
        </extensions>
      </trkpt>
      <trkpt lat="43.1306533701717853546142578125" lon="13.05598069913685321807861328125">
        <ele>544.20001220703125</ele>
        <time>2021-06-06T07:19:10.000Z</time>
        <extensions>
          <ns3:TrackPointExtension>
            <ns3:atemp>21.0</ns3:atemp>
          </ns3:TrackPointExtension>
        </extensions>
      </trkpt>
      <trkpt lat="43.1305953674018383026123046875" lon="13.0559174157679080963134765625">
        <ele>543.5999755859375</ele>
        <time>2021-06-06T07:19:11.000Z</time>
        <extensions>
          <ns3:TrackPointExtension>
            <ns3:atemp>21.0</ns3:atemp>
          </ns3:TrackPointExtension>
        </extensions>
      </trkpt>
      <trkpt lat="43.1305353529751300811767578125" lon="13.05585958063602447509765625">
        <ele>542.79998779296875</ele>
        <time>2021-06-06T07:19:12.000Z</time>
        <extensions>
          <ns3:TrackPointExtension>
            <ns3:atemp>21.0</ns3:atemp>
          </ns3:TrackPointExtension>
        </extensions>
      </trkpt>
      <trkpt lat="43.1304170005023479461669921875" lon="13.0557548068463802337646484375">
        <ele>541</ele>
        <time>2021-06-06T07:19:14.000Z</time>
        <extensions>
          <ns3:TrackPointExtension>
            <ns3:atemp>21.0</ns3:atemp>
          </ns3:TrackPointExtension>
        </extensions>
      </trkpt>
      <trkpt lat="43.13030711375176906585693359375" lon="13.05564542300999164581298828125">
        <ele>539</ele>
        <time>2021-06-06T07:19:16.000Z</time>
        <extensions>
          <ns3:TrackPointExtension>
            <ns3:atemp>21.0</ns3:atemp>
          </ns3:TrackPointExtension>
        </extensions>
      </trkpt>
      <trkpt lat="43.13025288283824920654296875" lon="13.0555891804397106170654296875">
        <ele>538</ele>
        <time>2021-06-06T07:19:17.000Z</time>
        <extensions>
          <ns3:TrackPointExtension>
            <ns3:atemp>21.0</ns3:atemp>
          </ns3:TrackPointExtension>
        </extensions>
      </trkpt>
      <trkpt lat="43.13019831664860248565673828125" lon="13.0555365420877933502197265625">
        <ele>536.4000244140625</ele>
        <time>2021-06-06T07:19:18.000Z</time>
        <extensions>
          <ns3:TrackPointExtension>
            <ns3:atemp>21.0</ns3:atemp>
          </ns3:TrackPointExtension>
        </extensions>
      </trkpt>
      <trkpt lat="43.13009136356413364410400390625" lon="13.05543051101267337799072265625">
        <ele>535.4000244140625</ele>
        <time>2021-06-06T07:19:20.000Z</time>
        <extensions>
          <ns3:TrackPointExtension>
            <ns3:atemp>21.0</ns3:atemp>
          </ns3:TrackPointExtension>
        </extensions>
      </trkpt>
      <trkpt lat="43.1299774535000324249267578125" lon="13.05533847771584987640380859375">
        <ele>534</ele>
        <time>2021-06-06T07:19:22.000Z</time>
        <extensions>
          <ns3:TrackPointExtension>
            <ns3:atemp>21.0</ns3:atemp>
          </ns3:TrackPointExtension>
        </extensions>
      </trkpt>
      <trkpt lat="43.12985264696180820465087890625" lon="13.0552673153579235076904296875">
        <ele>532.5999755859375</ele>
        <time>2021-06-06T07:19:24.000Z</time>
        <extensions>
          <ns3:TrackPointExtension>
            <ns3:atemp>21.0</ns3:atemp>
          </ns3:TrackPointExtension>
        </extensions>
      </trkpt>
      <trkpt lat="43.12972339801490306854248046875" lon="13.05521794594824314117431640625">
        <ele>531.5999755859375</ele>
        <time>2021-06-06T07:19:26.000Z</time>
        <extensions>
          <ns3:TrackPointExtension>
            <ns3:atemp>21.0</ns3:atemp>
          </ns3:TrackPointExtension>
        </extensions>
      </trkpt>
      <trkpt lat="43.1295523233711719512939453125" lon="13.0551548302173614501953125">
        <ele>530.20001220703125</ele>
        <time>2021-06-06T07:19:29.000Z</time>
        <extensions>
          <ns3:TrackPointExtension>
            <ns3:atemp>21.0</ns3:atemp>
          </ns3:TrackPointExtension>
        </extensions>
      </trkpt>
      <trkpt lat="43.12950127758085727691650390625" lon="13.0551271699368953704833984375">
        <ele>529.4000244140625</ele>
        <time>2021-06-06T07:19:30.000Z</time>
        <extensions>
          <ns3:TrackPointExtension>
            <ns3:atemp>21.0</ns3:atemp>
          </ns3:TrackPointExtension>
        </extensions>
      </trkpt>
      <trkpt lat="43.1294557638466358184814453125" lon="13.05508484132587909698486328125">
        <ele>528.20001220703125</ele>
        <time>2021-06-06T07:19:31.000Z</time>
        <extensions>
          <ns3:TrackPointExtension>
            <ns3:atemp>21.0</ns3:atemp>
          </ns3:TrackPointExtension>
        </extensions>
      </trkpt>
      <trkpt lat="43.12942416407167911529541015625" lon="13.05502566508948802947998046875">
        <ele>526.79998779296875</ele>
        <time>2021-06-06T07:19:32.000Z</time>
        <extensions>
          <ns3:TrackPointExtension>
            <ns3:atemp>21.0</ns3:atemp>
          </ns3:TrackPointExtension>
        </extensions>
      </trkpt>
      <trkpt lat="43.12940589152276515960693359375" lon="13.0549538321793079376220703125">
        <ele>525.5999755859375</ele>
        <time>2021-06-06T07:19:33.000Z</time>
        <extensions>
          <ns3:TrackPointExtension>
            <ns3:atemp>21.0</ns3:atemp>
          </ns3:TrackPointExtension>
        </extensions>
      </trkpt>
      <trkpt lat="43.12939516268670558929443359375" lon="13.0548794008791446685791015625">
        <ele>524.5999755859375</ele>
        <time>2021-06-06T07:19:34.000Z</time>
        <extensions>
          <ns3:TrackPointExtension>
            <ns3:atemp>21.0</ns3:atemp>
          </ns3:TrackPointExtension>
        </extensions>
      </trkpt>
      <trkpt lat="43.1293853558599948883056640625" lon="13.05480773560702800750732421875">
        <ele>523.5999755859375</ele>
        <time>2021-06-06T07:19:35.000Z</time>
        <extensions>
          <ns3:TrackPointExtension>
            <ns3:atemp>21.0</ns3:atemp>
          </ns3:TrackPointExtension>
        </extensions>
      </trkpt>
      <trkpt lat="43.1293712742626667022705078125" lon="13.05473883636295795440673828125">
        <ele>522.79998779296875</ele>
        <time>2021-06-06T07:19:36.000Z</time>
        <extensions>
          <ns3:TrackPointExtension>
            <ns3:atemp>21.0</ns3:atemp>
          </ns3:TrackPointExtension>
        </extensions>
      </trkpt>
      <trkpt lat="43.12935434281826019287109375" lon="13.0546708591282367706298828125">
        <ele>521.5999755859375</ele>
        <time>2021-06-06T07:19:37.000Z</time>
        <extensions>
          <ns3:TrackPointExtension>
            <ns3:atemp>21.0</ns3:atemp>
          </ns3:TrackPointExtension>
        </extensions>
      </trkpt>
      <trkpt lat="43.1293390877544879913330078125" lon="13.054598271846771240234375">
        <ele>520.5999755859375</ele>
        <time>2021-06-06T07:19:38.000Z</time>
        <extensions>
          <ns3:TrackPointExtension>
            <ns3:atemp>21.0</ns3:atemp>
          </ns3:TrackPointExtension>
        </extensions>
      </trkpt>
      <trkpt lat="43.129327185451984405517578125" lon="13.054517805576324462890625">
        <ele>519.4000244140625</ele>
        <time>2021-06-06T07:19:39.000Z</time>
        <extensions>
          <ns3:TrackPointExtension>
            <ns3:atemp>21.0</ns3:atemp>
          </ns3:TrackPointExtension>
        </extensions>
      </trkpt>
      <trkpt lat="43.12931545078754425048828125" lon="13.05434145033359527587890625">
        <ele>517.79998779296875</ele>
        <time>2021-06-06T07:19:41.000Z</time>
        <extensions>
          <ns3:TrackPointExtension>
            <ns3:atemp>21.0</ns3:atemp>
          </ns3:TrackPointExtension>
        </extensions>
      </trkpt>
      <trkpt lat="43.129311092197895050048828125" lon="13.05416920222342014312744140625">
        <ele>516</ele>
        <time>2021-06-06T07:19:43.000Z</time>
        <extensions>
          <ns3:TrackPointExtension>
            <ns3:atemp>21.0</ns3:atemp>
          </ns3:TrackPointExtension>
        </extensions>
      </trkpt>
      <trkpt lat="43.12930245883762836456298828125" lon="13.054009862244129180908203125">
        <ele>514.79998779296875</ele>
        <time>2021-06-06T07:19:45.000Z</time>
        <extensions>
          <ns3:TrackPointExtension>
            <ns3:atemp>21.0</ns3:atemp>
          </ns3:TrackPointExtension>
        </extensions>
      </trkpt>
      <trkpt lat="43.12928996980190277099609375" lon="13.0538648553192615509033203125">
        <ele>513.4000244140625</ele>
        <time>2021-06-06T07:19:47.000Z</time>
        <extensions>
          <ns3:TrackPointExtension>
            <ns3:atemp>21.0</ns3:atemp>
          </ns3:TrackPointExtension>
        </extensions>
      </trkpt>
      <trkpt lat="43.129269517958164215087890625" lon="13.0537183396518230438232421875">
        <ele>512</ele>
        <time>2021-06-06T07:19:49.000Z</time>
        <extensions>
          <ns3:TrackPointExtension>
            <ns3:atemp>21.0</ns3:atemp>
          </ns3:TrackPointExtension>
        </extensions>
      </trkpt>
      <trkpt lat="43.12925317324697971343994140625" lon="13.0536435730755329132080078125">
        <ele>511.399993896484375</ele>
        <time>2021-06-06T07:19:50.000Z</time>
        <extensions>
          <ns3:TrackPointExtension>
            <ns3:atemp>21.0</ns3:atemp>
          </ns3:TrackPointExtension>
        </extensions>
      </trkpt>
      <trkpt lat="43.129231967031955718994140625" lon="13.05357123725116252899169921875">
        <ele>511</ele>
        <time>2021-06-06T07:19:51.000Z</time>
        <extensions>
          <ns3:TrackPointExtension>
            <ns3:atemp>21.0</ns3:atemp>
          </ns3:TrackPointExtension>
        </extensions>
      </trkpt>
      <trkpt lat="43.12918025068938732147216796875" lon="13.05342606268823146820068359375">
        <ele>510.399993896484375</ele>
        <time>2021-06-06T07:19:53.000Z</time>
        <extensions>
          <ns3:TrackPointExtension>
            <ns3:atemp>21.0</ns3:atemp>
          </ns3:TrackPointExtension>
        </extensions>
      </trkpt>
      <trkpt lat="43.12908939085900783538818359375" lon="13.05320980958640575408935546875">
        <ele>510</ele>
        <time>2021-06-06T07:19:56.000Z</time>
        <extensions>
          <ns3:TrackPointExtension>
            <ns3:atemp>21.0</ns3:atemp>
          </ns3:TrackPointExtension>
        </extensions>
      </trkpt>
      <trkpt lat="43.12898260541260242462158203125" lon="13.052987270057201385498046875">
        <ele>508.79998779296875</ele>
        <time>2021-06-06T07:19:59.000Z</time>
        <extensions>
          <ns3:TrackPointExtension>
            <ns3:atemp>21.0</ns3:atemp>
          </ns3:TrackPointExtension>
        </extensions>
      </trkpt>
      <trkpt lat="43.12889006920158863067626953125" lon="13.05285978130996227264404296875">
        <ele>507.600006103515625</ele>
        <time>2021-06-06T07:20:01.000Z</time>
        <extensions>
          <ns3:TrackPointExtension>
            <ns3:atemp>21.0</ns3:atemp>
          </ns3:TrackPointExtension>
        </extensions>
      </trkpt>
      <trkpt lat="43.12883709557354450225830078125" lon="13.05280320346355438232421875">
        <ele>507</ele>
        <time>2021-06-06T07:20:02.000Z</time>
        <extensions>
          <ns3:TrackPointExtension>
            <ns3:atemp>21.0</ns3:atemp>
          </ns3:TrackPointExtension>
        </extensions>
      </trkpt>
      <trkpt lat="43.1287764944136142730712890625" lon="13.0527544207870960235595703125">
        <ele>506.600006103515625</ele>
        <time>2021-06-06T07:20:03.000Z</time>
        <extensions>
          <ns3:TrackPointExtension>
            <ns3:atemp>21.0</ns3:atemp>
          </ns3:TrackPointExtension>
        </extensions>
      </trkpt>
      <trkpt lat="43.1286373548209667205810546875" lon="13.0526871979236602783203125">
        <ele>505.600006103515625</ele>
        <time>2021-06-06T07:20:05.000Z</time>
        <extensions>
          <ns3:TrackPointExtension>
            <ns3:atemp>21.0</ns3:atemp>
          </ns3:TrackPointExtension>
        </extensions>
      </trkpt>
      <trkpt lat="43.12857071869075298309326171875" lon="13.05264855735003948211669921875">
        <ele>505.20001220703125</ele>
        <time>2021-06-06T07:20:06.000Z</time>
        <extensions>
          <ns3:TrackPointExtension>
            <ns3:atemp>21.0</ns3:atemp>
          </ns3:TrackPointExtension>
        </extensions>
      </trkpt>
      <trkpt lat="43.1283721514046192169189453125" lon="13.0525438673794269561767578125">
        <ele>504.20001220703125</ele>
        <time>2021-06-06T07:20:09.000Z</time>
        <extensions>
          <ns3:TrackPointExtension>
            <ns3:atemp>21.0</ns3:atemp>
          </ns3:TrackPointExtension>
        </extensions>
      </trkpt>
      <trkpt lat="43.128308951854705810546875" lon="13.05252886377274990081787109375">
        <ele>504</ele>
        <time>2021-06-06T07:20:10.000Z</time>
        <extensions>
          <ns3:TrackPointExtension>
            <ns3:atemp>21.0</ns3:atemp>
          </ns3:TrackPointExtension>
        </extensions>
      </trkpt>
      <trkpt lat="43.1281458400189876556396484375" lon="13.05248963646590709686279296875">
        <ele>503.399993896484375</ele>
        <time>2021-06-06T07:20:13.000Z</time>
        <extensions>
          <ns3:TrackPointExtension>
            <ns3:atemp>21.0</ns3:atemp>
          </ns3:TrackPointExtension>
        </extensions>
      </trkpt>
      <trkpt lat="43.127998150885105133056640625" lon="13.05245049297809600830078125">
        <ele>503.20001220703125</ele>
        <time>2021-06-06T07:20:16.000Z</time>
        <extensions>
          <ns3:TrackPointExtension>
            <ns3:atemp>21.0</ns3:atemp>
          </ns3:TrackPointExtension>
        </extensions>
      </trkpt>
      <trkpt lat="43.1278521381318569183349609375" lon="13.05237564258277416229248046875">
        <ele>503.20001220703125</ele>
        <time>2021-06-06T07:20:19.000Z</time>
        <extensions>
          <ns3:TrackPointExtension>
            <ns3:atemp>21.0</ns3:atemp>
          </ns3:TrackPointExtension>
        </extensions>
      </trkpt>
      <trkpt lat="43.12756539322435855865478515625" lon="13.05219308473169803619384765625">
        <ele>503.79998779296875</ele>
        <time>2021-06-06T07:20:25.000Z</time>
        <extensions>
          <ns3:TrackPointExtension>
            <ns3:atemp>21.0</ns3:atemp>
          </ns3:TrackPointExtension>
        </extensions>
      </trkpt>
      <trkpt lat="43.12735483981668949127197265625" lon="13.0520032346248626708984375">
        <ele>504.600006103515625</ele>
        <time>2021-06-06T07:20:30.000Z</time>
        <extensions>
          <ns3:TrackPointExtension>
            <ns3:atemp>21.0</ns3:atemp>
          </ns3:TrackPointExtension>
        </extensions>
      </trkpt>
      <trkpt lat="43.12732131220400333404541015625" lon="13.05196057073771953582763671875">
        <ele>504.79998779296875</ele>
        <time>2021-06-06T07:20:31.000Z</time>
        <extensions>
          <ns3:TrackPointExtension>
            <ns3:atemp>21.0</ns3:atemp>
          </ns3:TrackPointExtension>
        </extensions>
      </trkpt>
      <trkpt lat="43.12725895084440708160400390625" lon="13.05187524296343326568603515625">
        <ele>505.20001220703125</ele>
        <time>2021-06-06T07:20:33.000Z</time>
        <extensions>
          <ns3:TrackPointExtension>
            <ns3:atemp>21.0</ns3:atemp>
          </ns3:TrackPointExtension>
        </extensions>
      </trkpt>
      <trkpt lat="43.12712819315493106842041015625" lon="13.0516510270535945892333984375">
        <ele>505.79998779296875</ele>
        <time>2021-06-06T07:20:38.000Z</time>
        <extensions>
          <ns3:TrackPointExtension>
            <ns3:atemp>21.0</ns3:atemp>
          </ns3:TrackPointExtension>
        </extensions>
      </trkpt>
      <trkpt lat="43.12708326615393161773681640625" lon="13.051556311547756195068359375">
        <ele>506.20001220703125</ele>
        <time>2021-06-06T07:20:40.000Z</time>
        <extensions>
          <ns3:TrackPointExtension>
            <ns3:atemp>21.0</ns3:atemp>
          </ns3:TrackPointExtension>
        </extensions>
      </trkpt>
      <trkpt lat="43.127050660550594329833984375" lon="13.0514506995677947998046875">
        <ele>506.79998779296875</ele>
        <time>2021-06-06T07:20:42.000Z</time>
        <extensions>
          <ns3:TrackPointExtension>
            <ns3:atemp>21.0</ns3:atemp>
          </ns3:TrackPointExtension>
        </extensions>
      </trkpt>
      <trkpt lat="43.12703347764909267425537109375" lon="13.05133226327598094940185546875">
        <ele>507</ele>
        <time>2021-06-06T07:20:44.000Z</time>
        <extensions>
          <ns3:TrackPointExtension>
            <ns3:atemp>21.0</ns3:atemp>
          </ns3:TrackPointExtension>
        </extensions>
      </trkpt>
      <trkpt lat="43.1270281970500946044921875" lon="13.05127032101154327392578125">
        <ele>507.399993896484375</ele>
        <time>2021-06-06T07:20:45.000Z</time>
        <extensions>
          <ns3:TrackPointExtension>
            <ns3:atemp>21.0</ns3:atemp>
          </ns3:TrackPointExtension>
        </extensions>
      </trkpt>
      <trkpt lat="43.12702492810785770416259765625" lon="13.0510874278843402862548828125">
        <ele>508.399993896484375</ele>
        <time>2021-06-06T07:20:48.000Z</time>
        <extensions>
          <ns3:TrackPointExtension>
            <ns3:atemp>21.0</ns3:atemp>
          </ns3:TrackPointExtension>
        </extensions>
      </trkpt>
      <trkpt lat="43.12702844850718975067138671875" lon="13.05096362717449665069580078125">
        <ele>508.79998779296875</ele>
        <time>2021-06-06T07:20:50.000Z</time>
        <extensions>
          <ns3:TrackPointExtension>
            <ns3:atemp>21.0</ns3:atemp>
          </ns3:TrackPointExtension>
        </extensions>
      </trkpt>
      <trkpt lat="43.12703917734324932098388671875" lon="13.05071686394512653350830078125">
        <ele>509.399993896484375</ele>
        <time>2021-06-06T07:20:54.000Z</time>
        <extensions>
          <ns3:TrackPointExtension>
            <ns3:atemp>21.0</ns3:atemp>
          </ns3:TrackPointExtension>
        </extensions>
      </trkpt>
      <trkpt lat="43.12703850679099559783935546875" lon="13.05052391253411769866943359375">
        <ele>509.600006103515625</ele>
        <time>2021-06-06T07:20:57.000Z</time>
        <extensions>
          <ns3:TrackPointExtension>
            <ns3:atemp>21.0</ns3:atemp>
          </ns3:TrackPointExtension>
        </extensions>
      </trkpt>
      <trkpt lat="43.12702224589884281158447265625" lon="13.05039684288203716278076171875">
        <ele>510</ele>
        <time>2021-06-06T07:20:59.000Z</time>
        <extensions>
          <ns3:TrackPointExtension>
            <ns3:atemp>21.0</ns3:atemp>
          </ns3:TrackPointExtension>
        </extensions>
      </trkpt>
      <trkpt lat="43.12698637135326862335205078125" lon="13.0502758920192718505859375">
        <ele>510.399993896484375</ele>
        <time>2021-06-06T07:21:01.000Z</time>
        <extensions>
          <ns3:TrackPointExtension>
            <ns3:atemp>21.0</ns3:atemp>
          </ns3:TrackPointExtension>
        </extensions>
      </trkpt>
      <trkpt lat="43.12693222425878047943115234375" lon="13.05016717873513698577880859375">
        <ele>511</ele>
        <time>2021-06-06T07:21:03.000Z</time>
        <extensions>
          <ns3:TrackPointExtension>
            <ns3:atemp>21.0</ns3:atemp>
          </ns3:TrackPointExtension>
        </extensions>
      </trkpt>
      <trkpt lat="43.126899786293506622314453125" lon="13.05011655203998088836669921875">
        <ele>511</ele>
        <time>2021-06-06T07:21:04.000Z</time>
        <extensions>
          <ns3:TrackPointExtension>
            <ns3:atemp>21.0</ns3:atemp>
          </ns3:TrackPointExtension>
        </extensions>
      </trkpt>
      <trkpt lat="43.12673742882907390594482421875" lon="13.04994321428239345550537109375">
        <ele>511.20001220703125</ele>
        <time>2021-06-06T07:21:08.000Z</time>
        <extensions>
          <ns3:TrackPointExtension>
            <ns3:atemp>21.0</ns3:atemp>
          </ns3:TrackPointExtension>
        </extensions>
      </trkpt>
      <trkpt lat="43.12644523568451404571533203125" lon="13.049712963402271270751953125">
        <ele>511.600006103515625</ele>
        <time>2021-06-06T07:21:15.000Z</time>
        <extensions>
          <ns3:TrackPointExtension>
            <ns3:atemp>21.0</ns3:atemp>
          </ns3:TrackPointExtension>
        </extensions>
      </trkpt>
      <trkpt lat="43.1262029148638248443603515625" lon="13.0494838021695613861083984375">
        <ele>512.79998779296875</ele>
        <time>2021-06-06T07:21:22.000Z</time>
        <extensions>
          <ns3:TrackPointExtension>
            <ns3:atemp>21.0</ns3:atemp>
          </ns3:TrackPointExtension>
        </extensions>
      </trkpt>
      <trkpt lat="43.12613175250589847564697265625" lon="13.0494202673435211181640625">
        <ele>513.20001220703125</ele>
        <time>2021-06-06T07:21:24.000Z</time>
        <extensions>
          <ns3:TrackPointExtension>
            <ns3:atemp>21.0</ns3:atemp>
          </ns3:TrackPointExtension>
        </extensions>
      </trkpt>
      <trkpt lat="43.12602664344012737274169921875" lon="13.04932697676122188568115234375">
        <ele>513.79998779296875</ele>
        <time>2021-06-06T07:21:27.000Z</time>
        <extensions>
          <ns3:TrackPointExtension>
            <ns3:atemp>21.0</ns3:atemp>
          </ns3:TrackPointExtension>
        </extensions>
      </trkpt>
      <trkpt lat="43.12593452632427215576171875" lon="13.04921197704970836639404296875">
        <ele>514.5999755859375</ele>
        <time>2021-06-06T07:21:30.000Z</time>
        <extensions>
          <ns3:TrackPointExtension>
            <ns3:atemp>21.0</ns3:atemp>
          </ns3:TrackPointExtension>
        </extensions>
      </trkpt>
      <trkpt lat="43.12588633038103580474853515625" lon="13.04912053048610687255859375">
        <ele>515</ele>
        <time>2021-06-06T07:21:32.000Z</time>
        <extensions>
          <ns3:TrackPointExtension>
            <ns3:atemp>21.0</ns3:atemp>
          </ns3:TrackPointExtension>
        </extensions>
      </trkpt>
      <trkpt lat="43.12586604617536067962646484375" lon="13.04907149635255336761474609375">
        <ele>515.20001220703125</ele>
        <time>2021-06-06T07:21:33.000Z</time>
        <extensions>
          <ns3:TrackPointExtension>
            <ns3:atemp>21.0</ns3:atemp>
          </ns3:TrackPointExtension>
        </extensions>
      </trkpt>
      <trkpt lat="43.12582765705883502960205078125" lon="13.0488565005362033843994140625">
        <ele>516</ele>
        <time>2021-06-06T07:21:37.000Z</time>
        <extensions>
          <ns3:TrackPointExtension>
            <ns3:atemp>21.0</ns3:atemp>
          </ns3:TrackPointExtension>
        </extensions>
      </trkpt>
      <trkpt lat="43.1258399784564971923828125" lon="13.0486858449876308441162109375">
        <ele>516.4000244140625</ele>
        <time>2021-06-06T07:21:40.000Z</time>
        <extensions>
          <ns3:TrackPointExtension>
            <ns3:atemp>21.0</ns3:atemp>
          </ns3:TrackPointExtension>
        </extensions>
      </trkpt>
      <trkpt lat="43.12587124295532703399658203125" lon="13.0485235713422298431396484375">
        <ele>517</ele>
        <time>2021-06-06T07:21:43.000Z</time>
        <extensions>
          <ns3:TrackPointExtension>
            <ns3:atemp>21.0</ns3:atemp>
          </ns3:TrackPointExtension>
        </extensions>
      </trkpt>
      <trkpt lat="43.12592522241175174713134765625" lon="13.0482452921569347381591796875">
        <ele>518.20001220703125</ele>
        <time>2021-06-06T07:21:48.000Z</time>
        <extensions>
          <ns3:TrackPointExtension>
            <ns3:atemp>21.0</ns3:atemp>
          </ns3:TrackPointExtension>
        </extensions>
      </trkpt>
      <trkpt lat="43.1259380467236042022705078125" lon="13.04818955250084400177001953125">
        <ele>518.20001220703125</ele>
        <time>2021-06-06T07:21:49.000Z</time>
        <extensions>
          <ns3:TrackPointExtension>
            <ns3:atemp>21.0</ns3:atemp>
          </ns3:TrackPointExtension>
        </extensions>
      </trkpt>
      <trkpt lat="43.1260198540985584259033203125" lon="13.04773726500570774078369140625">
        <ele>519.4000244140625</ele>
        <time>2021-06-06T07:21:57.000Z</time>
        <extensions>
          <ns3:TrackPointExtension>
            <ns3:atemp>21.0</ns3:atemp>
          </ns3:TrackPointExtension>
        </extensions>
      </trkpt>
      <trkpt lat="43.126033432781696319580078125" lon="13.0475690402090549468994140625">
        <ele>519.5999755859375</ele>
        <time>2021-06-06T07:22:00.000Z</time>
        <extensions>
          <ns3:TrackPointExtension>
            <ns3:atemp>21.0</ns3:atemp>
          </ns3:TrackPointExtension>
        </extensions>
      </trkpt>
      <trkpt lat="43.126037456095218658447265625" lon="13.0473333410918712615966796875">
        <ele>519.79998779296875</ele>
        <time>2021-06-06T07:22:04.000Z</time>
        <extensions>
          <ns3:TrackPointExtension>
            <ns3:atemp>21.0</ns3:atemp>
          </ns3:TrackPointExtension>
        </extensions>
      </trkpt>
      <trkpt lat="43.12603586353361606597900390625" lon="13.04708884097635746002197265625">
        <ele>519.79998779296875</ele>
        <time>2021-06-06T07:22:08.000Z</time>
        <extensions>
          <ns3:TrackPointExtension>
            <ns3:atemp>21.0</ns3:atemp>
          </ns3:TrackPointExtension>
        </extensions>
      </trkpt>
      <trkpt lat="43.12603418715298175811767578125" lon="13.04695791564881801605224609375">
        <ele>520</ele>
        <time>2021-06-06T07:22:10.000Z</time>
        <extensions>
          <ns3:TrackPointExtension>
            <ns3:atemp>21.0</ns3:atemp>
          </ns3:TrackPointExtension>
        </extensions>
      </trkpt>
      <trkpt lat="43.12599697150290012359619140625" lon="13.0467462725937366485595703125">
        <ele>520.20001220703125</ele>
        <time>2021-06-06T07:22:13.000Z</time>
        <extensions>
          <ns3:TrackPointExtension>
            <ns3:atemp>21.0</ns3:atemp>
          </ns3:TrackPointExtension>
        </extensions>
      </trkpt>
      <trkpt lat="43.125928826630115509033203125" lon="13.0465395748615264892578125">
        <ele>520.20001220703125</ele>
        <time>2021-06-06T07:22:16.000Z</time>
        <extensions>
          <ns3:TrackPointExtension>
            <ns3:atemp>21.0</ns3:atemp>
          </ns3:TrackPointExtension>
        </extensions>
      </trkpt>
      <trkpt lat="43.12586202286183834075927734375" lon="13.04641962982714176177978515625">
        <ele>520.20001220703125</ele>
        <time>2021-06-06T07:22:18.000Z</time>
        <extensions>
          <ns3:TrackPointExtension>
            <ns3:atemp>21.0</ns3:atemp>
          </ns3:TrackPointExtension>
        </extensions>
      </trkpt>
      <trkpt lat="43.12573344446718692779541015625" lon="13.0462691746652126312255859375">
        <ele>520.20001220703125</ele>
        <time>2021-06-06T07:22:21.000Z</time>
        <extensions>
          <ns3:TrackPointExtension>
            <ns3:atemp>21.0</ns3:atemp>
          </ns3:TrackPointExtension>
        </extensions>
      </trkpt>
      <trkpt lat="43.125594221055507659912109375" lon="13.04613783024251461029052734375">
        <ele>520</ele>
        <time>2021-06-06T07:22:24.000Z</time>
        <extensions>
          <ns3:TrackPointExtension>
            <ns3:atemp>21.0</ns3:atemp>
          </ns3:TrackPointExtension>
        </extensions>
      </trkpt>
      <trkpt lat="43.12537469901144504547119140625" lon="13.0458909831941127777099609375">
        <ele>519.79998779296875</ele>
        <time>2021-06-06T07:22:29.000Z</time>
        <extensions>
          <ns3:TrackPointExtension>
            <ns3:atemp>21.0</ns3:atemp>
          </ns3:TrackPointExtension>
        </extensions>
      </trkpt>
      <trkpt lat="43.12533798627555370330810546875" lon="13.045826442539691925048828125">
        <ele>519.5999755859375</ele>
        <time>2021-06-06T07:22:30.000Z</time>
        <extensions>
          <ns3:TrackPointExtension>
            <ns3:atemp>21.0</ns3:atemp>
          </ns3:TrackPointExtension>
        </extensions>
      </trkpt>
      <trkpt lat="43.12507865019142627716064453125" lon="13.045273907482624053955078125">
        <ele>519.20001220703125</ele>
        <time>2021-06-06T07:22:38.000Z</time>
        <extensions>
          <ns3:TrackPointExtension>
            <ns3:atemp>21.0</ns3:atemp>
          </ns3:TrackPointExtension>
        </extensions>
      </trkpt>
      <trkpt lat="43.12494722194969654083251953125" lon="13.0449783615767955780029296875">
        <ele>518</ele>
        <time>2021-06-06T07:22:42.000Z</time>
        <extensions>
          <ns3:TrackPointExtension>
            <ns3:atemp>21.0</ns3:atemp>
          </ns3:TrackPointExtension>
        </extensions>
      </trkpt>
      <trkpt lat="43.12477807514369487762451171875" lon="13.04460444487631320953369140625">
        <ele>517.20001220703125</ele>
        <time>2021-06-06T07:22:47.000Z</time>
        <extensions>
          <ns3:TrackPointExtension>
            <ns3:atemp>21.0</ns3:atemp>
          </ns3:TrackPointExtension>
        </extensions>
      </trkpt>
      <trkpt lat="43.124745301902294158935546875" lon="13.044527582824230194091796875">
        <ele>516.79998779296875</ele>
        <time>2021-06-06T07:22:48.000Z</time>
        <extensions>
          <ns3:TrackPointExtension>
            <ns3:atemp>21.0</ns3:atemp>
          </ns3:TrackPointExtension>
        </extensions>
      </trkpt>
      <trkpt lat="43.12460758723318576812744140625" lon="13.044232539832592010498046875">
        <ele>515.5999755859375</ele>
        <time>2021-06-06T07:22:52.000Z</time>
        <extensions>
          <ns3:TrackPointExtension>
            <ns3:atemp>21.0</ns3:atemp>
          </ns3:TrackPointExtension>
        </extensions>
      </trkpt>
      <trkpt lat="43.12445755116641521453857421875" lon="13.04395820014178752899169921875">
        <ele>514.79998779296875</ele>
        <time>2021-06-06T07:22:56.000Z</time>
        <extensions>
          <ns3:TrackPointExtension>
            <ns3:atemp>21.0</ns3:atemp>
          </ns3:TrackPointExtension>
        </extensions>
      </trkpt>
      <trkpt lat="43.12419100664556026458740234375" lon="13.0436459742486476898193359375">
        <ele>514.20001220703125</ele>
        <time>2021-06-06T07:23:02.000Z</time>
        <extensions>
          <ns3:TrackPointExtension>
            <ns3:atemp>21.0</ns3:atemp>
          </ns3:TrackPointExtension>
        </extensions>
      </trkpt>
      <trkpt lat="43.1239783577620983123779296875" lon="13.043461404740810394287109375">
        <ele>514</ele>
        <time>2021-06-06T07:23:07.000Z</time>
        <extensions>
          <ns3:TrackPointExtension>
            <ns3:atemp>21.0</ns3:atemp>
          </ns3:TrackPointExtension>
        </extensions>
      </trkpt>
      <trkpt lat="43.12395094893872737884521484375" lon="13.04341270588338375091552734375">
        <ele>514</ele>
        <time>2021-06-06T07:23:08.000Z</time>
        <extensions>
          <ns3:TrackPointExtension>
            <ns3:atemp>21.0</ns3:atemp>
          </ns3:TrackPointExtension>
        </extensions>
      </trkpt>
      <trkpt lat="43.1239488534629344940185546875" lon="13.04321162402629852294921875">
        <ele>514</ele>
        <time>2021-06-06T07:23:11.000Z</time>
        <extensions>
          <ns3:TrackPointExtension>
            <ns3:atemp>21.0</ns3:atemp>
          </ns3:TrackPointExtension>
        </extensions>
      </trkpt>
      <trkpt lat="43.12401213683187961578369140625" lon="13.04308556020259857177734375">
        <ele>513.5999755859375</ele>
        <time>2021-06-06T07:23:13.000Z</time>
        <extensions>
          <ns3:TrackPointExtension>
            <ns3:atemp>21.0</ns3:atemp>
          </ns3:TrackPointExtension>
        </extensions>
      </trkpt>
      <trkpt lat="43.12406175769865512847900390625" lon="13.043034262955188751220703125">
        <ele>513.5999755859375</ele>
        <time>2021-06-06T07:23:14.000Z</time>
        <extensions>
          <ns3:TrackPointExtension>
            <ns3:atemp>21.0</ns3:atemp>
          </ns3:TrackPointExtension>
        </extensions>
      </trkpt>
      <trkpt lat="43.124172985553741455078125" lon="13.04293669760227203369140625">
        <ele>513.4000244140625</ele>
        <time>2021-06-06T07:23:16.000Z</time>
        <extensions>
          <ns3:TrackPointExtension>
            <ns3:atemp>21.0</ns3:atemp>
          </ns3:TrackPointExtension>
        </extensions>
      </trkpt>
      <trkpt lat="43.12428371049463748931884765625" lon="13.04282697848975658416748046875">
        <ele>513.4000244140625</ele>
        <time>2021-06-06T07:23:18.000Z</time>
        <extensions>
          <ns3:TrackPointExtension>
            <ns3:atemp>21.0</ns3:atemp>
          </ns3:TrackPointExtension>
        </extensions>
      </trkpt>
      <trkpt lat="43.1243257038295269012451171875" lon="13.042758665978908538818359375">
        <ele>513</ele>
        <time>2021-06-06T07:23:19.000Z</time>
        <extensions>
          <ns3:TrackPointExtension>
            <ns3:atemp>21.0</ns3:atemp>
          </ns3:TrackPointExtension>
        </extensions>
      </trkpt>
      <trkpt lat="43.12435009516775608062744140625" lon="13.04267576895654201507568359375">
        <ele>512.5999755859375</ele>
        <time>2021-06-06T07:23:20.000Z</time>
        <extensions>
          <ns3:TrackPointExtension>
            <ns3:atemp>21.0</ns3:atemp>
          </ns3:TrackPointExtension>
        </extensions>
      </trkpt>
      <trkpt lat="43.12435202300548553466796875" lon="13.04258524440228939056396484375">
        <ele>512</ele>
        <time>2021-06-06T07:23:21.000Z</time>
        <extensions>
          <ns3:TrackPointExtension>
            <ns3:atemp>21.0</ns3:atemp>
          </ns3:TrackPointExtension>
        </extensions>
      </trkpt>
      <trkpt lat="43.12433735467493534088134765625" lon="13.0424899421632289886474609375">
        <ele>511</ele>
        <time>2021-06-06T07:23:22.000Z</time>
        <extensions>
          <ns3:TrackPointExtension>
            <ns3:atemp>21.0</ns3:atemp>
          </ns3:TrackPointExtension>
        </extensions>
      </trkpt>
      <trkpt lat="43.12428002245724201202392578125" lon="13.04230998270213603973388671875">
        <ele>509.20001220703125</ele>
        <time>2021-06-06T07:23:24.000Z</time>
        <extensions>
          <ns3:TrackPointExtension>
            <ns3:atemp>21.0</ns3:atemp>
          </ns3:TrackPointExtension>
        </extensions>
      </trkpt>
      <trkpt lat="43.1242519430816173553466796875" lon="13.0422213859856128692626953125">
        <ele>508.20001220703125</ele>
        <time>2021-06-06T07:23:25.000Z</time>
        <extensions>
          <ns3:TrackPointExtension>
            <ns3:atemp>21.0</ns3:atemp>
          </ns3:TrackPointExtension>
        </extensions>
      </trkpt>
      <trkpt lat="43.12420374713838100433349609375" lon="13.0420410074293613433837890625">
        <ele>506.79998779296875</ele>
        <time>2021-06-06T07:23:27.000Z</time>
        <extensions>
          <ns3:TrackPointExtension>
            <ns3:atemp>21.0</ns3:atemp>
          </ns3:TrackPointExtension>
        </extensions>
      </trkpt>
      <trkpt lat="43.1241731531918048858642578125" lon="13.0418550968170166015625">
        <ele>506</ele>
        <time>2021-06-06T07:23:29.000Z</time>
        <extensions>
          <ns3:TrackPointExtension>
            <ns3:atemp>21.0</ns3:atemp>
          </ns3:TrackPointExtension>
        </extensions>
      </trkpt>
      <trkpt lat="43.1241627596318721771240234375" lon="13.041760884225368499755859375">
        <ele>505.20001220703125</ele>
        <time>2021-06-06T07:23:30.000Z</time>
        <extensions>
          <ns3:TrackPointExtension>
            <ns3:atemp>21.0</ns3:atemp>
          </ns3:TrackPointExtension>
        </extensions>
      </trkpt>
      <trkpt lat="43.1241386197507381439208984375" lon="13.041565753519535064697265625">
        <ele>503.600006103515625</ele>
        <time>2021-06-06T07:23:32.000Z</time>
        <extensions>
          <ns3:TrackPointExtension>
            <ns3:atemp>21.0</ns3:atemp>
          </ns3:TrackPointExtension>
        </extensions>
      </trkpt>
      <trkpt lat="43.1241201795637607574462890625" lon="13.0413630791008472442626953125">
        <ele>502.399993896484375</ele>
        <time>2021-06-06T07:23:34.000Z</time>
        <extensions>
          <ns3:TrackPointExtension>
            <ns3:atemp>21.0</ns3:atemp>
          </ns3:TrackPointExtension>
        </extensions>
      </trkpt>
      <trkpt lat="43.1241166591644287109375" lon="13.04104917682707309722900390625">
        <ele>501.600006103515625</ele>
        <time>2021-06-06T07:23:37.000Z</time>
        <extensions>
          <ns3:TrackPointExtension>
            <ns3:atemp>21.0</ns3:atemp>
          </ns3:TrackPointExtension>
        </extensions>
      </trkpt>
      <trkpt lat="43.12412495724856853485107421875" lon="13.04094004444777965545654296875">
        <ele>501.20001220703125</ele>
        <time>2021-06-06T07:23:38.000Z</time>
        <extensions>
          <ns3:TrackPointExtension>
            <ns3:atemp>21.0</ns3:atemp>
          </ns3:TrackPointExtension>
        </extensions>
      </trkpt>
      <trkpt lat="43.12415127642452716827392578125" lon="13.0407210253179073333740234375">
        <ele>499.79998779296875</ele>
        <time>2021-06-06T07:23:40.000Z</time>
        <extensions>
          <ns3:TrackPointExtension>
            <ns3:atemp>21.0</ns3:atemp>
          </ns3:TrackPointExtension>
        </extensions>
      </trkpt>
      <trkpt lat="43.124184720218181610107421875" lon="13.04051122628152370452880859375">
        <ele>497.399993896484375</ele>
        <time>2021-06-06T07:23:42.000Z</time>
        <extensions>
          <ns3:TrackPointExtension>
            <ns3:atemp>21.0</ns3:atemp>
          </ns3:TrackPointExtension>
        </extensions>
      </trkpt>
      <trkpt lat="43.12419603578746318817138671875" lon="13.04040896706283092498779296875">
        <ele>496.79998779296875</ele>
        <time>2021-06-06T07:23:43.000Z</time>
        <extensions>
          <ns3:TrackPointExtension>
            <ns3:atemp>21.0</ns3:atemp>
          </ns3:TrackPointExtension>
        </extensions>
      </trkpt>
      <trkpt lat="43.12419821508228778839111328125" lon="13.040307462215423583984375">
        <ele>496.20001220703125</ele>
        <time>2021-06-06T07:23:44.000Z</time>
        <extensions>
          <ns3:TrackPointExtension>
            <ns3:atemp>21.0</ns3:atemp>
          </ns3:TrackPointExtension>
        </extensions>
      </trkpt>
      <trkpt lat="43.124171979725360870361328125" lon="13.04012163542211055755615234375">
        <ele>494.399993896484375</ele>
        <time>2021-06-06T07:23:46.000Z</time>
        <extensions>
          <ns3:TrackPointExtension>
            <ns3:atemp>21.0</ns3:atemp>
          </ns3:TrackPointExtension>
        </extensions>
      </trkpt>
      <trkpt lat="43.124121688306331634521484375" lon="13.0399398319423198699951171875">
        <ele>492</ele>
        <time>2021-06-06T07:23:48.000Z</time>
        <extensions>
          <ns3:TrackPointExtension>
            <ns3:atemp>21.0</ns3:atemp>
          </ns3:TrackPointExtension>
        </extensions>
      </trkpt>
      <trkpt lat="43.1240883283317089080810546875" lon="13.03985224105417728424072265625">
        <ele>490.600006103515625</ele>
        <time>2021-06-06T07:23:49.000Z</time>
        <extensions>
          <ns3:TrackPointExtension>
            <ns3:atemp>21.0</ns3:atemp>
          </ns3:TrackPointExtension>
        </extensions>
      </trkpt>
      <trkpt lat="43.12400861643254756927490234375" lon="13.03968527354300022125244140625">
        <ele>489.399993896484375</ele>
        <time>2021-06-06T07:23:51.000Z</time>
        <extensions>
          <ns3:TrackPointExtension>
            <ns3:atemp>21.0</ns3:atemp>
          </ns3:TrackPointExtension>
        </extensions>
      </trkpt>
      <trkpt lat="43.1239652819931507110595703125" lon="13.039603717625141143798828125">
        <ele>489</ele>
        <time>2021-06-06T07:23:52.000Z</time>
        <extensions>
          <ns3:TrackPointExtension>
            <ns3:atemp>21.0</ns3:atemp>
          </ns3:TrackPointExtension>
        </extensions>
      </trkpt>
      <trkpt lat="43.12387702055275440216064453125" lon="13.0394399352371692657470703125">
        <ele>488.20001220703125</ele>
        <time>2021-06-06T07:23:54.000Z</time>
        <extensions>
          <ns3:TrackPointExtension>
            <ns3:atemp>21.0</ns3:atemp>
          </ns3:TrackPointExtension>
        </extensions>
      </trkpt>
      <trkpt lat="43.12373511493206024169921875" lon="13.0392203293740749359130859375">
        <ele>487.600006103515625</ele>
        <time>2021-06-06T07:23:57.000Z</time>
        <extensions>
          <ns3:TrackPointExtension>
            <ns3:atemp>21.0</ns3:atemp>
          </ns3:TrackPointExtension>
        </extensions>
      </trkpt>
      <trkpt lat="43.12358952127397060394287109375" lon="13.039014637470245361328125">
        <ele>487.20001220703125</ele>
        <time>2021-06-06T07:24:00.000Z</time>
        <extensions>
          <ns3:TrackPointExtension>
            <ns3:atemp>21.0</ns3:atemp>
          </ns3:TrackPointExtension>
        </extensions>
      </trkpt>
      <trkpt lat="43.1234630383551120758056640625" lon="13.038783967494964599609375">
        <ele>486.79998779296875</ele>
        <time>2021-06-06T07:24:03.000Z</time>
        <extensions>
          <ns3:TrackPointExtension>
            <ns3:atemp>20.0</ns3:atemp>
          </ns3:TrackPointExtension>
        </extensions>
      </trkpt>
      <trkpt lat="43.1234010122716426849365234375" lon="13.0386029183864593505859375">
        <ele>486</ele>
        <time>2021-06-06T07:24:05.000Z</time>
        <extensions>
          <ns3:TrackPointExtension>
            <ns3:atemp>20.0</ns3:atemp>
          </ns3:TrackPointExtension>
        </extensions>
      </trkpt>
      <trkpt lat="43.12333303503692150115966796875" lon="13.03831282071769237518310546875">
        <ele>485.399993896484375</ele>
        <time>2021-06-06T07:24:08.000Z</time>
        <extensions>
          <ns3:TrackPointExtension>
            <ns3:atemp>20.0</ns3:atemp>
          </ns3:TrackPointExtension>
        </extensions>
      </trkpt>
      <trkpt lat="43.12328718602657318115234375" lon="13.0380074679851531982421875">
        <ele>484.399993896484375</ele>
        <time>2021-06-06T07:24:11.000Z</time>
        <extensions>
          <ns3:TrackPointExtension>
            <ns3:atemp>20.0</ns3:atemp>
          </ns3:TrackPointExtension>
        </extensions>
      </trkpt>
      <trkpt lat="43.12323178164660930633544921875" lon="13.037695996463298797607421875">
        <ele>483.20001220703125</ele>
        <time>2021-06-06T07:24:14.000Z</time>
        <extensions>
          <ns3:TrackPointExtension>
            <ns3:atemp>20.0</ns3:atemp>
          </ns3:TrackPointExtension>
        </extensions>
      </trkpt>
      <trkpt lat="43.12316539697349071502685546875" lon="13.03739667870104312896728515625">
        <ele>482</ele>
        <time>2021-06-06T07:24:17.000Z</time>
        <extensions>
          <ns3:TrackPointExtension>
            <ns3:atemp>20.0</ns3:atemp>
          </ns3:TrackPointExtension>
        </extensions>
      </trkpt>
      <trkpt lat="43.1230731122195720672607421875" lon="13.0371228419244289398193359375">
        <ele>481.20001220703125</ele>
        <time>2021-06-06T07:24:20.000Z</time>
        <extensions>
          <ns3:TrackPointExtension>
            <ns3:atemp>20.0</ns3:atemp>
          </ns3:TrackPointExtension>
        </extensions>
      </trkpt>
      <trkpt lat="43.12303933314979076385498046875" lon="13.03703592158854007720947265625">
        <ele>480.399993896484375</ele>
        <time>2021-06-06T07:24:21.000Z</time>
        <extensions>
          <ns3:TrackPointExtension>
            <ns3:atemp>20.0</ns3:atemp>
          </ns3:TrackPointExtension>
        </extensions>
      </trkpt>
      <trkpt lat="43.12297009862959384918212890625" lon="13.0368643440306186676025390625">
        <ele>479.20001220703125</ele>
        <time>2021-06-06T07:24:23.000Z</time>
        <extensions>
          <ns3:TrackPointExtension>
            <ns3:atemp>20.0</ns3:atemp>
          </ns3:TrackPointExtension>
        </extensions>
      </trkpt>
      <trkpt lat="43.12283464707434177398681640625" lon="13.03652697242796421051025390625">
        <ele>478.600006103515625</ele>
        <time>2021-06-06T07:24:27.000Z</time>
        <extensions>
          <ns3:TrackPointExtension>
            <ns3:atemp>20.0</ns3:atemp>
          </ns3:TrackPointExtension>
        </extensions>
      </trkpt>
      <trkpt lat="43.12269936315715312957763671875" lon="13.03619404323399066925048828125">
        <ele>478.20001220703125</ele>
        <time>2021-06-06T07:24:31.000Z</time>
        <extensions>
          <ns3:TrackPointExtension>
            <ns3:atemp>20.0</ns3:atemp>
          </ns3:TrackPointExtension>
        </extensions>
      </trkpt>
      <trkpt lat="43.12257279641926288604736328125" lon="13.03587335161864757537841796875">
        <ele>477.600006103515625</ele>
        <time>2021-06-06T07:24:35.000Z</time>
        <extensions>
          <ns3:TrackPointExtension>
            <ns3:atemp>20.0</ns3:atemp>
          </ns3:TrackPointExtension>
        </extensions>
      </trkpt>
      <trkpt lat="43.12242460437119007110595703125" lon="13.035492561757564544677734375">
        <ele>477</ele>
        <time>2021-06-06T07:24:40.000Z</time>
        <extensions>
          <ns3:TrackPointExtension>
            <ns3:atemp>20.0</ns3:atemp>
          </ns3:TrackPointExtension>
        </extensions>
      </trkpt>
      <trkpt lat="43.12231086194515228271484375" lon="13.035207577049732208251953125">
        <ele>476.20001220703125</ele>
        <time>2021-06-06T07:24:44.000Z</time>
        <extensions>
          <ns3:TrackPointExtension>
            <ns3:atemp>20.0</ns3:atemp>
          </ns3:TrackPointExtension>
        </extensions>
      </trkpt>
      <trkpt lat="43.12225445173680782318115234375" lon="13.03506935946643352508544921875">
        <ele>476</ele>
        <time>2021-06-06T07:24:46.000Z</time>
        <extensions>
          <ns3:TrackPointExtension>
            <ns3:atemp>20.0</ns3:atemp>
          </ns3:TrackPointExtension>
        </extensions>
      </trkpt>
      <trkpt lat="43.1220532022416591644287109375" lon="13.03458136506378650665283203125">
        <ele>475.600006103515625</ele>
        <time>2021-06-06T07:24:53.000Z</time>
        <extensions>
          <ns3:TrackPointExtension>
            <ns3:atemp>20.0</ns3:atemp>
          </ns3:TrackPointExtension>
        </extensions>
      </trkpt>
      <trkpt lat="43.12194080092012882232666015625" lon="13.03412823937833309173583984375">
        <ele>475</ele>
        <time>2021-06-06T07:24:59.000Z</time>
        <extensions>
          <ns3:TrackPointExtension>
            <ns3:atemp>20.0</ns3:atemp>
          </ns3:TrackPointExtension>
        </extensions>
      </trkpt>
      <trkpt lat="43.12194566242396831512451171875" lon="13.03396663628518581390380859375">
        <ele>475</ele>
        <time>2021-06-06T07:25:01.000Z</time>
        <extensions>
          <ns3:TrackPointExtension>
            <ns3:atemp>20.0</ns3:atemp>
          </ns3:TrackPointExtension>
        </extensions>
      </trkpt>
      <trkpt lat="43.1219708919525146484375" lon="13.03373127244412899017333984375">
        <ele>474.79998779296875</ele>
        <time>2021-06-06T07:25:04.000Z</time>
        <extensions>
          <ns3:TrackPointExtension>
            <ns3:atemp>20.0</ns3:atemp>
          </ns3:TrackPointExtension>
        </extensions>
      </trkpt>
      <trkpt lat="43.12206904403865337371826171875" lon="13.03319734521210193634033203125">
        <ele>473.79998779296875</ele>
        <time>2021-06-06T07:25:11.000Z</time>
        <extensions>
          <ns3:TrackPointExtension>
            <ns3:atemp>20.0</ns3:atemp>
          </ns3:TrackPointExtension>
        </extensions>
      </trkpt>
      <trkpt lat="43.12211313284933567047119140625" lon="13.03304336965084075927734375">
        <ele>473.600006103515625</ele>
        <time>2021-06-06T07:25:13.000Z</time>
        <extensions>
          <ns3:TrackPointExtension>
            <ns3:atemp>20.0</ns3:atemp>
          </ns3:TrackPointExtension>
        </extensions>
      </trkpt>
      <trkpt lat="43.1222037412226200103759765625" lon="13.03280758671462535858154296875">
        <ele>473.399993896484375</ele>
        <time>2021-06-06T07:25:16.000Z</time>
        <extensions>
          <ns3:TrackPointExtension>
            <ns3:atemp>20.0</ns3:atemp>
          </ns3:TrackPointExtension>
        </extensions>
      </trkpt>
      <trkpt lat="43.12233324162662029266357421875" lon="13.03255462087690830230712890625">
        <ele>473</ele>
        <time>2021-06-06T07:25:19.000Z</time>
        <extensions>
          <ns3:TrackPointExtension>
            <ns3:atemp>20.0</ns3:atemp>
          </ns3:TrackPointExtension>
        </extensions>
      </trkpt>
      <trkpt lat="43.1224364228546619415283203125" lon="13.032354377210140228271484375">
        <ele>472.79998779296875</ele>
        <time>2021-06-06T07:25:21.000Z</time>
        <extensions>
          <ns3:TrackPointExtension>
            <ns3:atemp>20.0</ns3:atemp>
          </ns3:TrackPointExtension>
        </extensions>
      </trkpt>
      <trkpt lat="43.12266784720122814178466796875" lon="13.03188264369964599609375">
        <ele>471.600006103515625</ele>
        <time>2021-06-06T07:25:25.000Z</time>
        <extensions>
          <ns3:TrackPointExtension>
            <ns3:atemp>20.0</ns3:atemp>
          </ns3:TrackPointExtension>
        </extensions>
      </trkpt>
      <trkpt lat="43.12272920273244380950927734375" lon="13.0317580886185169219970703125">
        <ele>471</ele>
        <time>2021-06-06T07:25:26.000Z</time>
        <extensions>
          <ns3:TrackPointExtension>
            <ns3:atemp>20.0</ns3:atemp>
          </ns3:TrackPointExtension>
        </extensions>
      </trkpt>
      <trkpt lat="43.12279089353978633880615234375" lon="13.031630851328372955322265625">
        <ele>470</ele>
        <time>2021-06-06T07:25:27.000Z</time>
        <extensions>
          <ns3:TrackPointExtension>
            <ns3:atemp>20.0</ns3:atemp>
          </ns3:TrackPointExtension>
        </extensions>
      </trkpt>
      <trkpt lat="43.12285074032843112945556640625" lon="13.0315052904188632965087890625">
        <ele>468.79998779296875</ele>
        <time>2021-06-06T07:25:28.000Z</time>
        <extensions>
          <ns3:TrackPointExtension>
            <ns3:atemp>20.0</ns3:atemp>
          </ns3:TrackPointExtension>
        </extensions>
      </trkpt>
      <trkpt lat="43.12290807254612445831298828125" lon="13.031383417546749114990234375">
        <ele>467.600006103515625</ele>
        <time>2021-06-06T07:25:29.000Z</time>
        <extensions>
          <ns3:TrackPointExtension>
            <ns3:atemp>20.0</ns3:atemp>
          </ns3:TrackPointExtension>
        </extensions>
      </trkpt>
      <trkpt lat="43.12296473421156406402587890625" lon="13.0312670767307281494140625">
        <ele>466.399993896484375</ele>
        <time>2021-06-06T07:25:30.000Z</time>
        <extensions>
          <ns3:TrackPointExtension>
            <ns3:atemp>20.0</ns3:atemp>
          </ns3:TrackPointExtension>
        </extensions>
      </trkpt>
      <trkpt lat="43.1230214796960353851318359375" lon="13.031155765056610107421875">
        <ele>465</ele>
        <time>2021-06-06T07:25:31.000Z</time>
        <extensions>
          <ns3:TrackPointExtension>
            <ns3:atemp>20.0</ns3:atemp>
          </ns3:TrackPointExtension>
        </extensions>
      </trkpt>
      <trkpt lat="43.12307604588568210601806640625" lon="13.03104822523891925811767578125">
        <ele>463.399993896484375</ele>
        <time>2021-06-06T07:25:32.000Z</time>
        <extensions>
          <ns3:TrackPointExtension>
            <ns3:atemp>20.0</ns3:atemp>
          </ns3:TrackPointExtension>
        </extensions>
      </trkpt>
      <trkpt lat="43.1231264211237430572509765625" lon="13.03094747476279735565185546875">
        <ele>461.79998779296875</ele>
        <time>2021-06-06T07:25:33.000Z</time>
        <extensions>
          <ns3:TrackPointExtension>
            <ns3:atemp>20.0</ns3:atemp>
          </ns3:TrackPointExtension>
        </extensions>
      </trkpt>
      <trkpt lat="43.1231753714382648468017578125" lon="13.030851669609546661376953125">
        <ele>460.600006103515625</ele>
        <time>2021-06-06T07:25:34.000Z</time>
        <extensions>
          <ns3:TrackPointExtension>
            <ns3:atemp>20.0</ns3:atemp>
          </ns3:TrackPointExtension>
        </extensions>
      </trkpt>
      <trkpt lat="43.1233052909374237060546875" lon="13.0305779166519641876220703125">
        <ele>459.600006103515625</ele>
        <time>2021-06-06T07:25:37.000Z</time>
        <extensions>
          <ns3:TrackPointExtension>
            <ns3:atemp>20.0</ns3:atemp>
          </ns3:TrackPointExtension>
        </extensions>
      </trkpt>
      <trkpt lat="43.1234603561460971832275390625" lon="13.0301940254867076873779296875">
        <ele>459.399993896484375</ele>
        <time>2021-06-06T07:25:42.000Z</time>
        <extensions>
          <ns3:TrackPointExtension>
            <ns3:atemp>20.0</ns3:atemp>
          </ns3:TrackPointExtension>
        </extensions>
      </trkpt>
      <trkpt lat="43.123530261218547821044921875" lon="13.02999495528638362884521484375">
        <ele>461</ele>
        <time>2021-06-06T07:25:45.000Z</time>
        <extensions>
          <ns3:TrackPointExtension>
            <ns3:atemp>20.0</ns3:atemp>
          </ns3:TrackPointExtension>
        </extensions>
      </trkpt>
      <trkpt lat="43.1235840730369091033935546875" lon="13.02980015985667705535888671875">
        <ele>461.79998779296875</ele>
        <time>2021-06-06T07:25:48.000Z</time>
        <extensions>
          <ns3:TrackPointExtension>
            <ns3:atemp>20.0</ns3:atemp>
          </ns3:TrackPointExtension>
        </extensions>
      </trkpt>
      <trkpt lat="43.12359706498682498931884765625" lon="13.029732517898082733154296875">
        <ele>462.20001220703125</ele>
        <time>2021-06-06T07:25:49.000Z</time>
        <extensions>
          <ns3:TrackPointExtension>
            <ns3:atemp>20.0</ns3:atemp>
          </ns3:TrackPointExtension>
        </extensions>
      </trkpt>
      <trkpt lat="43.123616091907024383544921875" lon="13.02960209548473358154296875">
        <ele>462.399993896484375</ele>
        <time>2021-06-06T07:25:51.000Z</time>
        <extensions>
          <ns3:TrackPointExtension>
            <ns3:atemp>20.0</ns3:atemp>
          </ns3:TrackPointExtension>
        </extensions>
      </trkpt>
      <trkpt lat="43.123620785772800445556640625" lon="13.02946656011044979095458984375">
        <ele>462.600006103515625</ele>
        <time>2021-06-06T07:25:53.000Z</time>
        <extensions>
          <ns3:TrackPointExtension>
            <ns3:atemp>20.0</ns3:atemp>
          </ns3:TrackPointExtension>
        </extensions>
      </trkpt>
      <trkpt lat="43.1236165948212146759033203125" lon="13.02939564920961856842041015625">
        <ele>462.600006103515625</ele>
        <time>2021-06-06T07:25:54.000Z</time>
        <extensions>
          <ns3:TrackPointExtension>
            <ns3:atemp>20.0</ns3:atemp>
          </ns3:TrackPointExtension>
        </extensions>
      </trkpt>
      <trkpt lat="43.12351743690669536590576171875" lon="13.0290547572076320648193359375">
        <ele>462.600006103515625</ele>
        <time>2021-06-06T07:25:59.000Z</time>
        <extensions>
          <ns3:TrackPointExtension>
            <ns3:atemp>20.0</ns3:atemp>
          </ns3:TrackPointExtension>
        </extensions>
      </trkpt>
      <trkpt lat="43.1234841607511043548583984375" lon="13.02899331785738468170166015625">
        <ele>462.600006103515625</ele>
        <time>2021-06-06T07:26:00.000Z</time>
        <extensions>
          <ns3:TrackPointExtension>
            <ns3:atemp>20.0</ns3:atemp>
          </ns3:TrackPointExtension>
        </extensions>
      </trkpt>
      <trkpt lat="43.12329833395779132843017578125" lon="13.0286158807575702667236328125">
        <ele>462</ele>
        <time>2021-06-06T07:26:06.000Z</time>
        <extensions>
          <ns3:TrackPointExtension>
            <ns3:atemp>20.0</ns3:atemp>
          </ns3:TrackPointExtension>
        </extensions>
      </trkpt>
      <trkpt lat="43.123143352568149566650390625" lon="13.02817046642303466796875">
        <ele>461.79998779296875</ele>
        <time>2021-06-06T07:26:12.000Z</time>
        <extensions>
          <ns3:TrackPointExtension>
            <ns3:atemp>20.0</ns3:atemp>
          </ns3:TrackPointExtension>
        </extensions>
      </trkpt>
      <trkpt lat="43.122917711734771728515625" lon="13.027548529207706451416015625">
        <ele>461.20001220703125</ele>
        <time>2021-06-06T07:26:19.000Z</time>
        <extensions>
          <ns3:TrackPointExtension>
            <ns3:atemp>20.0</ns3:atemp>
          </ns3:TrackPointExtension>
        </extensions>
      </trkpt>
      <trkpt lat="43.1228934042155742645263671875" lon="13.027464710175991058349609375">
        <ele>461</ele>
        <time>2021-06-06T07:26:20.000Z</time>
        <extensions>
          <ns3:TrackPointExtension>
            <ns3:atemp>20.0</ns3:atemp>
          </ns3:TrackPointExtension>
        </extensions>
      </trkpt>
      <trkpt lat="43.122832216322422027587890625" lon="13.02725424058735370635986328125">
        <ele>460.399993896484375</ele>
        <time>2021-06-06T07:26:23.000Z</time>
        <extensions>
          <ns3:TrackPointExtension>
            <ns3:atemp>20.0</ns3:atemp>
          </ns3:TrackPointExtension>
        </extensions>
      </trkpt>
      <trkpt lat="43.122772537171840667724609375" lon="13.0269998498260974884033203125">
        <ele>460.399993896484375</ele>
        <time>2021-06-06T07:26:28.000Z</time>
        <extensions>
          <ns3:TrackPointExtension>
            <ns3:atemp>20.0</ns3:atemp>
          </ns3:TrackPointExtension>
        </extensions>
      </trkpt>
      <trkpt lat="43.12269148416817188262939453125" lon="13.0266877077519893646240234375">
        <ele>461.600006103515625</ele>
        <time>2021-06-06T07:26:35.000Z</time>
        <extensions>
          <ns3:TrackPointExtension>
            <ns3:atemp>20.0</ns3:atemp>
          </ns3:TrackPointExtension>
        </extensions>
      </trkpt>
      <trkpt lat="43.122680000960826873779296875" lon="13.0266441218554973602294921875">
        <ele>462.600006103515625</ele>
        <time>2021-06-06T07:26:36.000Z</time>
        <extensions>
          <ns3:TrackPointExtension>
            <ns3:atemp>20.0</ns3:atemp>
          </ns3:TrackPointExtension>
        </extensions>
      </trkpt>
      <trkpt lat="43.1226561963558197021484375" lon="13.02655636332929134368896484375">
        <ele>463.600006103515625</ele>
        <time>2021-06-06T07:26:38.000Z</time>
        <extensions>
          <ns3:TrackPointExtension>
            <ns3:atemp>20.0</ns3:atemp>
          </ns3:TrackPointExtension>
        </extensions>
      </trkpt>
      <trkpt lat="43.1226181425154209136962890625" lon="13.0264298804104328155517578125">
        <ele>465</ele>
        <time>2021-06-06T07:26:41.000Z</time>
        <extensions>
          <ns3:TrackPointExtension>
            <ns3:atemp>20.0</ns3:atemp>
          </ns3:TrackPointExtension>
        </extensions>
      </trkpt>
      <trkpt lat="43.122592829167842864990234375" lon="13.02634949795901775360107421875">
        <ele>465.79998779296875</ele>
        <time>2021-06-06T07:26:43.000Z</time>
        <extensions>
          <ns3:TrackPointExtension>
            <ns3:atemp>20.0</ns3:atemp>
          </ns3:TrackPointExtension>
        </extensions>
      </trkpt>
      <trkpt lat="43.12258134596049785614013671875" lon="13.02631060592830181121826171875">
        <ele>466.20001220703125</ele>
        <time>2021-06-06T07:26:44.000Z</time>
        <extensions>
          <ns3:TrackPointExtension>
            <ns3:atemp>20.0</ns3:atemp>
          </ns3:TrackPointExtension>
        </extensions>
      </trkpt>
      <trkpt lat="43.12254714779555797576904296875" lon="13.0261928401887416839599609375">
        <ele>467.399993896484375</ele>
        <time>2021-06-06T07:26:47.000Z</time>
        <extensions>
          <ns3:TrackPointExtension>
            <ns3:atemp>20.0</ns3:atemp>
          </ns3:TrackPointExtension>
        </extensions>
      </trkpt>
      <trkpt lat="43.12250557355582714080810546875" lon="13.0260724760591983795166015625">
        <ele>468.399993896484375</ele>
        <time>2021-06-06T07:26:50.000Z</time>
        <extensions>
          <ns3:TrackPointExtension>
            <ns3:atemp>20.0</ns3:atemp>
          </ns3:TrackPointExtension>
        </extensions>
      </trkpt>
      <trkpt lat="43.1224716268479824066162109375" lon="13.02594549022614955902099609375">
        <ele>469.399993896484375</ele>
        <time>2021-06-06T07:26:53.000Z</time>
        <extensions>
          <ns3:TrackPointExtension>
            <ns3:atemp>20.0</ns3:atemp>
          </ns3:TrackPointExtension>
        </extensions>
      </trkpt>
      <trkpt lat="43.12243650667369365692138671875" lon="13.02583501674234867095947265625">
        <ele>470.399993896484375</ele>
        <time>2021-06-06T07:26:56.000Z</time>
        <extensions>
          <ns3:TrackPointExtension>
            <ns3:atemp>20.0</ns3:atemp>
          </ns3:TrackPointExtension>
        </extensions>
      </trkpt>
      <trkpt lat="43.1223911605775356292724609375" lon="13.02569570951163768768310546875">
        <ele>471.79998779296875</ele>
        <time>2021-06-06T07:27:00.000Z</time>
        <extensions>
          <ns3:TrackPointExtension>
            <ns3:atemp>20.0</ns3:atemp>
          </ns3:TrackPointExtension>
        </extensions>
      </trkpt>
      <trkpt lat="43.1223611533641815185546875" lon="13.025592528283596038818359375">
        <ele>473</ele>
        <time>2021-06-06T07:27:03.000Z</time>
        <extensions>
          <ns3:TrackPointExtension>
            <ns3:atemp>20.0</ns3:atemp>
          </ns3:TrackPointExtension>
        </extensions>
      </trkpt>
      <trkpt lat="43.12233894132077693939208984375" lon="13.02552220411598682403564453125">
        <ele>474.20001220703125</ele>
        <time>2021-06-06T07:27:05.000Z</time>
        <extensions>
          <ns3:TrackPointExtension>
            <ns3:atemp>20.0</ns3:atemp>
          </ns3:TrackPointExtension>
        </extensions>
      </trkpt>
      <trkpt lat="43.122316561639308929443359375" lon="13.02545162849128246307373046875">
        <ele>474.600006103515625</ele>
        <time>2021-06-06T07:27:07.000Z</time>
        <extensions>
          <ns3:TrackPointExtension>
            <ns3:atemp>20.0</ns3:atemp>
          </ns3:TrackPointExtension>
        </extensions>
      </trkpt>
      <trkpt lat="43.12228697352111339569091796875" lon="13.02534274756908416748046875">
        <ele>475.399993896484375</ele>
        <time>2021-06-06T07:27:10.000Z</time>
        <extensions>
          <ns3:TrackPointExtension>
            <ns3:atemp>20.0</ns3:atemp>
          </ns3:TrackPointExtension>
        </extensions>
      </trkpt>
      <trkpt lat="43.1222469918429851531982421875" lon="13.02519078366458415985107421875">
        <ele>476.600006103515625</ele>
        <time>2021-06-06T07:27:14.000Z</time>
        <extensions>
          <ns3:TrackPointExtension>
            <ns3:atemp>20.0</ns3:atemp>
          </ns3:TrackPointExtension>
        </extensions>
      </trkpt>
      <trkpt lat="43.122169710695743560791015625" lon="13.0250073038041591644287109375">
        <ele>477.79998779296875</ele>
        <time>2021-06-06T07:27:19.000Z</time>
        <extensions>
          <ns3:TrackPointExtension>
            <ns3:atemp>20.0</ns3:atemp>
          </ns3:TrackPointExtension>
        </extensions>
      </trkpt>
      <trkpt lat="43.12212486751377582550048828125" lon="13.02486187778413295745849609375">
        <ele>479.20001220703125</ele>
        <time>2021-06-06T07:27:23.000Z</time>
        <extensions>
          <ns3:TrackPointExtension>
            <ns3:atemp>20.0</ns3:atemp>
          </ns3:TrackPointExtension>
        </extensions>
      </trkpt>
      <trkpt lat="43.122087903320789337158203125" lon="13.0247538350522518157958984375">
        <ele>479.79998779296875</ele>
        <time>2021-06-06T07:27:26.000Z</time>
        <extensions>
          <ns3:TrackPointExtension>
            <ns3:atemp>20.0</ns3:atemp>
          </ns3:TrackPointExtension>
        </extensions>
      </trkpt>
      <trkpt lat="43.122073151171207427978515625" lon="13.02471167407929897308349609375">
        <ele>480.20001220703125</ele>
        <time>2021-06-06T07:27:27.000Z</time>
        <extensions>
          <ns3:TrackPointExtension>
            <ns3:atemp>20.0</ns3:atemp>
          </ns3:TrackPointExtension>
        </extensions>
      </trkpt>
      <trkpt lat="43.1220354326069355010986328125" lon="13.02458242513239383697509765625">
        <ele>481.20001220703125</ele>
        <time>2021-06-06T07:27:30.000Z</time>
        <extensions>
          <ns3:TrackPointExtension>
            <ns3:atemp>20.0</ns3:atemp>
          </ns3:TrackPointExtension>
        </extensions>
      </trkpt>
      <trkpt lat="43.12199528329074382781982421875" lon="13.02445954643189907073974609375">
        <ele>482.399993896484375</ele>
        <time>2021-06-06T07:27:33.000Z</time>
        <extensions>
          <ns3:TrackPointExtension>
            <ns3:atemp>20.0</ns3:atemp>
          </ns3:TrackPointExtension>
        </extensions>
      </trkpt>
      <trkpt lat="43.12197147868573665618896484375" lon="13.02438595332205295562744140625">
        <ele>483.20001220703125</ele>
        <time>2021-06-06T07:27:35.000Z</time>
        <extensions>
          <ns3:TrackPointExtension>
            <ns3:atemp>20.0</ns3:atemp>
          </ns3:TrackPointExtension>
        </extensions>
      </trkpt>
      <trkpt lat="43.1219610013067722320556640625" lon="13.0243531800806522369384765625">
        <ele>483.399993896484375</ele>
        <time>2021-06-06T07:27:36.000Z</time>
        <extensions>
          <ns3:TrackPointExtension>
            <ns3:atemp>20.0</ns3:atemp>
          </ns3:TrackPointExtension>
        </extensions>
      </trkpt>
      <trkpt lat="43.12191984616219997406005859375" lon="13.024221248924732208251953125">
        <ele>484.600006103515625</ele>
        <time>2021-06-06T07:27:40.000Z</time>
        <extensions>
          <ns3:TrackPointExtension>
            <ns3:atemp>20.0</ns3:atemp>
          </ns3:TrackPointExtension>
        </extensions>
      </trkpt>
      <trkpt lat="43.12189780175685882568359375" lon="13.024159558117389678955078125">
        <ele>485.20001220703125</ele>
        <time>2021-06-06T07:27:42.000Z</time>
        <extensions>
          <ns3:TrackPointExtension>
            <ns3:atemp>20.0</ns3:atemp>
          </ns3:TrackPointExtension>
        </extensions>
      </trkpt>
      <trkpt lat="43.121873326599597930908203125" lon="13.02409443072974681854248046875">
        <ele>485.79998779296875</ele>
        <time>2021-06-06T07:27:44.000Z</time>
        <extensions>
          <ns3:TrackPointExtension>
            <ns3:atemp>20.0</ns3:atemp>
          </ns3:TrackPointExtension>
        </extensions>
      </trkpt>
      <trkpt lat="43.12183116562664508819580078125" lon="13.023956716060638427734375">
        <ele>487</ele>
        <time>2021-06-06T07:27:48.000Z</time>
        <extensions>
          <ns3:TrackPointExtension>
            <ns3:atemp>20.0</ns3:atemp>
          </ns3:TrackPointExtension>
        </extensions>
      </trkpt>
      <trkpt lat="43.12181171961128711700439453125" lon="13.0238874815404415130615234375">
        <ele>487.399993896484375</ele>
        <time>2021-06-06T07:27:50.000Z</time>
        <extensions>
          <ns3:TrackPointExtension>
            <ns3:atemp>20.0</ns3:atemp>
          </ns3:TrackPointExtension>
        </extensions>
      </trkpt>
      <trkpt lat="43.12179210595786571502685546875" lon="13.0237748287618160247802734375">
        <ele>488.20001220703125</ele>
        <time>2021-06-06T07:27:53.000Z</time>
        <extensions>
          <ns3:TrackPointExtension>
            <ns3:atemp>20.0</ns3:atemp>
          </ns3:TrackPointExtension>
        </extensions>
      </trkpt>
      <trkpt lat="43.12178942374885082244873046875" lon="13.0236212722957134246826171875">
        <ele>489.399993896484375</ele>
        <time>2021-06-06T07:27:57.000Z</time>
        <extensions>
          <ns3:TrackPointExtension>
            <ns3:atemp>20.0</ns3:atemp>
          </ns3:TrackPointExtension>
        </extensions>
      </trkpt>
      <trkpt lat="43.12179277651011943817138671875" lon="13.0235833860933780670166015625">
        <ele>489.600006103515625</ele>
        <time>2021-06-06T07:27:58.000Z</time>
        <extensions>
          <ns3:TrackPointExtension>
            <ns3:atemp>20.0</ns3:atemp>
          </ns3:TrackPointExtension>
        </extensions>
      </trkpt>
      <trkpt lat="43.1218040920794010162353515625" lon="13.0234703980386257171630859375">
        <ele>490.399993896484375</ele>
        <time>2021-06-06T07:28:01.000Z</time>
        <extensions>
          <ns3:TrackPointExtension>
            <ns3:atemp>20.0</ns3:atemp>
          </ns3:TrackPointExtension>
        </extensions>
      </trkpt>
      <trkpt lat="43.121819011867046356201171875" lon="13.02335648797452449798583984375">
        <ele>491.79998779296875</ele>
        <time>2021-06-06T07:28:04.000Z</time>
        <extensions>
          <ns3:TrackPointExtension>
            <ns3:atemp>20.0</ns3:atemp>
          </ns3:TrackPointExtension>
        </extensions>
      </trkpt>
      <trkpt lat="43.1218396313488483428955078125" lon="13.02321013994514942169189453125">
        <ele>492.79998779296875</ele>
        <time>2021-06-06T07:28:08.000Z</time>
        <extensions>
          <ns3:TrackPointExtension>
            <ns3:atemp>20.0</ns3:atemp>
          </ns3:TrackPointExtension>
        </extensions>
      </trkpt>
      <trkpt lat="43.12186519615352153778076171875" lon="13.02304082550108432769775390625">
        <ele>494.20001220703125</ele>
        <time>2021-06-06T07:28:13.000Z</time>
        <extensions>
          <ns3:TrackPointExtension>
            <ns3:atemp>20.0</ns3:atemp>
          </ns3:TrackPointExtension>
        </extensions>
      </trkpt>
      <trkpt lat="43.12187978066504001617431640625" lon="13.02298047579824924468994140625">
        <ele>494.79998779296875</ele>
        <time>2021-06-06T07:28:15.000Z</time>
        <extensions>
          <ns3:TrackPointExtension>
            <ns3:atemp>20.0</ns3:atemp>
          </ns3:TrackPointExtension>
        </extensions>
      </trkpt>
      <trkpt lat="43.121892772614955902099609375" lon="13.022951893508434295654296875">
        <ele>495.20001220703125</ele>
        <time>2021-06-06T07:28:16.000Z</time>
        <extensions>
          <ns3:TrackPointExtension>
            <ns3:atemp>20.0</ns3:atemp>
          </ns3:TrackPointExtension>
        </extensions>
      </trkpt>
      <trkpt lat="43.12197952531278133392333984375" lon="13.02287268452346324920654296875">
        <ele>496.399993896484375</ele>
        <time>2021-06-06T07:28:20.000Z</time>
        <extensions>
          <ns3:TrackPointExtension>
            <ns3:atemp>20.0</ns3:atemp>
          </ns3:TrackPointExtension>
        </extensions>
      </trkpt>
      <trkpt lat="43.122086562216281890869140625" lon="13.02292431704699993133544921875">
        <ele>497.600006103515625</ele>
        <time>2021-06-06T07:28:24.000Z</time>
        <extensions>
          <ns3:TrackPointExtension>
            <ns3:atemp>20.0</ns3:atemp>
          </ns3:TrackPointExtension>
        </extensions>
      </trkpt>
      <trkpt lat="43.12217113561928272247314453125" lon="13.02306580357253551483154296875">
        <ele>498.79998779296875</ele>
        <time>2021-06-06T07:28:28.000Z</time>
        <extensions>
          <ns3:TrackPointExtension>
            <ns3:atemp>20.0</ns3:atemp>
          </ns3:TrackPointExtension>
        </extensions>
      </trkpt>
      <trkpt lat="43.1222302280366420745849609375" lon="13.02317879162728786468505859375">
        <ele>499.600006103515625</ele>
        <time>2021-06-06T07:28:31.000Z</time>
        <extensions>
          <ns3:TrackPointExtension>
            <ns3:atemp>20.0</ns3:atemp>
          </ns3:TrackPointExtension>
        </extensions>
      </trkpt>
      <trkpt lat="43.12225311063230037689208984375" lon="13.023212067782878875732421875">
        <ele>499.79998779296875</ele>
        <time>2021-06-06T07:28:32.000Z</time>
        <extensions>
          <ns3:TrackPointExtension>
            <ns3:atemp>20.0</ns3:atemp>
          </ns3:TrackPointExtension>
        </extensions>
      </trkpt>
      <trkpt lat="43.12239862047135829925537109375" lon="13.02334207110106945037841796875">
        <ele>500.600006103515625</ele>
        <time>2021-06-06T07:28:37.000Z</time>
        <extensions>
          <ns3:TrackPointExtension>
            <ns3:atemp>20.0</ns3:atemp>
          </ns3:TrackPointExtension>
        </extensions>
      </trkpt>
      <trkpt lat="43.1225073337554931640625" lon="13.02340082824230194091796875">
        <ele>501</ele>
        <time>2021-06-06T07:28:40.000Z</time>
        <extensions>
          <ns3:TrackPointExtension>
            <ns3:atemp>20.0</ns3:atemp>
          </ns3:TrackPointExtension>
        </extensions>
      </trkpt>
      <trkpt lat="43.1226848624646663665771484375" lon="13.02346478216350078582763671875">
        <ele>501.79998779296875</ele>
        <time>2021-06-06T07:28:45.000Z</time>
        <extensions>
          <ns3:TrackPointExtension>
            <ns3:atemp>20.0</ns3:atemp>
          </ns3:TrackPointExtension>
        </extensions>
      </trkpt>
      <trkpt lat="43.1227579526603221893310546875" lon="13.02347123622894287109375">
        <ele>502</ele>
        <time>2021-06-06T07:28:47.000Z</time>
        <extensions>
          <ns3:TrackPointExtension>
            <ns3:atemp>20.0</ns3:atemp>
          </ns3:TrackPointExtension>
        </extensions>
      </trkpt>
      <trkpt lat="43.12298133037984371185302734375" lon="13.0234833061695098876953125">
        <ele>503.399993896484375</ele>
        <time>2021-06-06T07:28:53.000Z</time>
        <extensions>
          <ns3:TrackPointExtension>
            <ns3:atemp>20.0</ns3:atemp>
          </ns3:TrackPointExtension>
        </extensions>
      </trkpt>
      <trkpt lat="43.12311820685863494873046875" lon="13.02346562035381793975830078125">
        <ele>504.399993896484375</ele>
        <time>2021-06-06T07:28:57.000Z</time>
        <extensions>
          <ns3:TrackPointExtension>
            <ns3:atemp>20.0</ns3:atemp>
          </ns3:TrackPointExtension>
        </extensions>
      </trkpt>
      <trkpt lat="43.12321476638317108154296875" lon="13.0234140716493129730224609375">
        <ele>505</ele>
        <time>2021-06-06T07:29:00.000Z</time>
        <extensions>
          <ns3:TrackPointExtension>
            <ns3:atemp>20.0</ns3:atemp>
          </ns3:TrackPointExtension>
        </extensions>
      </trkpt>
      <trkpt lat="43.1232719309628009796142578125" lon="13.023366630077362060546875">
        <ele>506</ele>
        <time>2021-06-06T07:29:02.000Z</time>
        <extensions>
          <ns3:TrackPointExtension>
            <ns3:atemp>20.0</ns3:atemp>
          </ns3:TrackPointExtension>
        </extensions>
      </trkpt>
      <trkpt lat="43.12337972223758697509765625" lon="13.02326093427836894989013671875">
        <ele>507</ele>
        <time>2021-06-06T07:29:06.000Z</time>
        <extensions>
          <ns3:TrackPointExtension>
            <ns3:atemp>20.0</ns3:atemp>
          </ns3:TrackPointExtension>
        </extensions>
      </trkpt>
      <trkpt lat="43.1234072148799896240234375" lon="13.0232346989214420318603515625">
        <ele>507.20001220703125</ele>
        <time>2021-06-06T07:29:07.000Z</time>
        <extensions>
          <ns3:TrackPointExtension>
            <ns3:atemp>20.0</ns3:atemp>
          </ns3:TrackPointExtension>
        </extensions>
      </trkpt>
      <trkpt lat="43.1234876811504364013671875" lon="13.02315314300358295440673828125">
        <ele>508.20001220703125</ele>
        <time>2021-06-06T07:29:10.000Z</time>
        <extensions>
          <ns3:TrackPointExtension>
            <ns3:atemp>20.0</ns3:atemp>
          </ns3:TrackPointExtension>
        </extensions>
      </trkpt>
      <trkpt lat="43.123568482697010040283203125" lon="13.0230684019625186920166015625">
        <ele>509</ele>
        <time>2021-06-06T07:29:13.000Z</time>
        <extensions>
          <ns3:TrackPointExtension>
            <ns3:atemp>20.0</ns3:atemp>
          </ns3:TrackPointExtension>
        </extensions>
      </trkpt>
      <trkpt lat="43.12362036667764186859130859375" lon="13.0230100639164447784423828125">
        <ele>509.399993896484375</ele>
        <time>2021-06-06T07:29:15.000Z</time>
        <extensions>
          <ns3:TrackPointExtension>
            <ns3:atemp>20.0</ns3:atemp>
          </ns3:TrackPointExtension>
        </extensions>
      </trkpt>
      <trkpt lat="43.12372245825827121734619140625" lon="13.022898919880390167236328125">
        <ele>510.600006103515625</ele>
        <time>2021-06-06T07:29:19.000Z</time>
        <extensions>
          <ns3:TrackPointExtension>
            <ns3:atemp>20.0</ns3:atemp>
          </ns3:TrackPointExtension>
        </extensions>
      </trkpt>
      <trkpt lat="43.1237476877868175506591796875" lon="13.02287167869508266448974609375">
        <ele>511</ele>
        <time>2021-06-06T07:29:20.000Z</time>
        <extensions>
          <ns3:TrackPointExtension>
            <ns3:atemp>20.0</ns3:atemp>
          </ns3:TrackPointExtension>
        </extensions>
      </trkpt>
      <trkpt lat="43.1238305009901523590087890625" lon="13.02279523573815822601318359375">
        <ele>511.79998779296875</ele>
        <time>2021-06-06T07:29:23.000Z</time>
        <extensions>
          <ns3:TrackPointExtension>
            <ns3:atemp>20.0</ns3:atemp>
          </ns3:TrackPointExtension>
        </extensions>
      </trkpt>
      <trkpt lat="43.12394508160650730133056640625" lon="13.02268627099692821502685546875">
        <ele>513</ele>
        <time>2021-06-06T07:29:27.000Z</time>
        <extensions>
          <ns3:TrackPointExtension>
            <ns3:atemp>20.0</ns3:atemp>
          </ns3:TrackPointExtension>
        </extensions>
      </trkpt>
      <trkpt lat="43.12397249042987823486328125" lon="13.02265877835452556610107421875">
        <ele>513.4000244140625</ele>
        <time>2021-06-06T07:29:28.000Z</time>
        <extensions>
          <ns3:TrackPointExtension>
            <ns3:atemp>20.0</ns3:atemp>
          </ns3:TrackPointExtension>
        </extensions>
      </trkpt>
      <trkpt lat="43.124026469886302947998046875" lon="13.02260446362197399139404296875">
        <ele>514</ele>
        <time>2021-06-06T07:29:30.000Z</time>
        <extensions>
          <ns3:TrackPointExtension>
            <ns3:atemp>20.0</ns3:atemp>
          </ns3:TrackPointExtension>
        </extensions>
      </trkpt>
      <trkpt lat="43.12410567887127399444580078125" lon="13.02252508699893951416015625">
        <ele>515.4000244140625</ele>
        <time>2021-06-06T07:29:33.000Z</time>
        <extensions>
          <ns3:TrackPointExtension>
            <ns3:atemp>20.0</ns3:atemp>
          </ns3:TrackPointExtension>
        </extensions>
      </trkpt>
      <trkpt lat="43.1242113746702671051025390625" lon="13.02242224104702472686767578125">
        <ele>516.4000244140625</ele>
        <time>2021-06-06T07:29:37.000Z</time>
        <extensions>
          <ns3:TrackPointExtension>
            <ns3:atemp>20.0</ns3:atemp>
          </ns3:TrackPointExtension>
        </extensions>
      </trkpt>
      <trkpt lat="43.1242368556559085845947265625" lon="13.022395670413970947265625">
        <ele>516.79998779296875</ele>
        <time>2021-06-06T07:29:38.000Z</time>
        <extensions>
          <ns3:TrackPointExtension>
            <ns3:atemp>20.0</ns3:atemp>
          </ns3:TrackPointExtension>
        </extensions>
      </trkpt>
      <trkpt lat="43.1243082694709300994873046875" lon="13.022318221628665924072265625">
        <ele>517.79998779296875</ele>
        <time>2021-06-06T07:29:41.000Z</time>
        <extensions>
          <ns3:TrackPointExtension>
            <ns3:atemp>20.0</ns3:atemp>
          </ns3:TrackPointExtension>
        </extensions>
      </trkpt>
      <trkpt lat="43.12439837493002414703369140625" lon="13.02221260964870452880859375">
        <ele>519</ele>
        <time>2021-06-06T07:29:45.000Z</time>
        <extensions>
          <ns3:TrackPointExtension>
            <ns3:atemp>20.0</ns3:atemp>
          </ns3:TrackPointExtension>
        </extensions>
      </trkpt>
      <trkpt lat="43.124450929462909698486328125" lon="13.0221202410757541656494140625">
        <ele>520</ele>
        <time>2021-06-06T07:29:48.000Z</time>
        <extensions>
          <ns3:TrackPointExtension>
            <ns3:atemp>20.0</ns3:atemp>
          </ns3:TrackPointExtension>
        </extensions>
      </trkpt>
      <trkpt lat="43.12446543015539646148681640625" lon="13.0220853723585605621337890625">
        <ele>520.4000244140625</ele>
        <time>2021-06-06T07:29:49.000Z</time>
        <extensions>
          <ns3:TrackPointExtension>
            <ns3:atemp>20.0</ns3:atemp>
          </ns3:TrackPointExtension>
        </extensions>
      </trkpt>
      <trkpt lat="43.1244950182735919952392578125" lon="13.02197565324604511260986328125">
        <ele>521.4000244140625</ele>
        <time>2021-06-06T07:29:52.000Z</time>
        <extensions>
          <ns3:TrackPointExtension>
            <ns3:atemp>20.0</ns3:atemp>
          </ns3:TrackPointExtension>
        </extensions>
      </trkpt>
      <trkpt lat="43.12450801022350788116455078125" lon="13.02185512147843837738037109375">
        <ele>522.5999755859375</ele>
        <time>2021-06-06T07:29:55.000Z</time>
        <extensions>
          <ns3:TrackPointExtension>
            <ns3:atemp>20.0</ns3:atemp>
          </ns3:TrackPointExtension>
        </extensions>
      </trkpt>
      <trkpt lat="43.12450281344354152679443359375" lon="13.02173517644405364990234375">
        <ele>523.5999755859375</ele>
        <time>2021-06-06T07:29:58.000Z</time>
        <extensions>
          <ns3:TrackPointExtension>
            <ns3:atemp>20.0</ns3:atemp>
          </ns3:TrackPointExtension>
        </extensions>
      </trkpt>
      <trkpt lat="43.12448747456073760986328125" lon="13.02162922918796539306640625">
        <ele>524.79998779296875</ele>
        <time>2021-06-06T07:30:01.000Z</time>
        <extensions>
          <ns3:TrackPointExtension>
            <ns3:atemp>20.0</ns3:atemp>
          </ns3:TrackPointExtension>
        </extensions>
      </trkpt>
      <trkpt lat="43.12448420561850070953369140625" lon="13.02159142680466175079345703125">
        <ele>525.20001220703125</ele>
        <time>2021-06-06T07:30:02.000Z</time>
        <extensions>
          <ns3:TrackPointExtension>
            <ns3:atemp>20.0</ns3:atemp>
          </ns3:TrackPointExtension>
        </extensions>
      </trkpt>
      <trkpt lat="43.12446760945022106170654296875" lon="13.0214701406657695770263671875">
        <ele>526</ele>
        <time>2021-06-06T07:30:05.000Z</time>
        <extensions>
          <ns3:TrackPointExtension>
            <ns3:atemp>20.0</ns3:atemp>
          </ns3:TrackPointExtension>
        </extensions>
      </trkpt>
      <trkpt lat="43.12444414012134075164794921875" lon="13.0213048495352268218994140625">
        <ele>527.20001220703125</ele>
        <time>2021-06-06T07:30:09.000Z</time>
        <extensions>
          <ns3:TrackPointExtension>
            <ns3:atemp>20.0</ns3:atemp>
          </ns3:TrackPointExtension>
        </extensions>
      </trkpt>
      <trkpt lat="43.1244098581373691558837890625" lon="13.021060265600681304931640625">
        <ele>528.5999755859375</ele>
        <time>2021-06-06T07:30:15.000Z</time>
        <extensions>
          <ns3:TrackPointExtension>
            <ns3:atemp>20.0</ns3:atemp>
          </ns3:TrackPointExtension>
        </extensions>
      </trkpt>
      <trkpt lat="43.12439317815005779266357421875" lon="13.0209434218704700469970703125">
        <ele>529.79998779296875</ele>
        <time>2021-06-06T07:30:18.000Z</time>
        <extensions>
          <ns3:TrackPointExtension>
            <ns3:atemp>20.0</ns3:atemp>
          </ns3:TrackPointExtension>
        </extensions>
      </trkpt>
      <trkpt lat="43.124377839267253875732421875" lon="13.02082188427448272705078125">
        <ele>530.79998779296875</ele>
        <time>2021-06-06T07:30:21.000Z</time>
        <extensions>
          <ns3:TrackPointExtension>
            <ns3:atemp>20.0</ns3:atemp>
          </ns3:TrackPointExtension>
        </extensions>
      </trkpt>
      <trkpt lat="43.124360740184783935546875" lon="13.02070562727749347686767578125">
        <ele>531.79998779296875</ele>
        <time>2021-06-06T07:30:24.000Z</time>
        <extensions>
          <ns3:TrackPointExtension>
            <ns3:atemp>20.0</ns3:atemp>
          </ns3:TrackPointExtension>
        </extensions>
      </trkpt>
      <trkpt lat="43.12435998581349849700927734375" lon="13.02062666974961757659912109375">
        <ele>532.5999755859375</ele>
        <time>2021-06-06T07:30:26.000Z</time>
        <extensions>
          <ns3:TrackPointExtension>
            <ns3:atemp>20.0</ns3:atemp>
          </ns3:TrackPointExtension>
        </extensions>
      </trkpt>
      <trkpt lat="43.1243620812892913818359375" lon="13.02054201252758502960205078125">
        <ele>533</ele>
        <time>2021-06-06T07:30:28.000Z</time>
        <extensions>
          <ns3:TrackPointExtension>
            <ns3:atemp>20.0</ns3:atemp>
          </ns3:TrackPointExtension>
        </extensions>
      </trkpt>
      <trkpt lat="43.1243884004652500152587890625" lon="13.02029541693627834320068359375">
        <ele>534.20001220703125</ele>
        <time>2021-06-06T07:30:34.000Z</time>
        <extensions>
          <ns3:TrackPointExtension>
            <ns3:atemp>20.0</ns3:atemp>
          </ns3:TrackPointExtension>
        </extensions>
      </trkpt>
      <trkpt lat="43.1244192458689212799072265625" lon="13.0201333947479724884033203125">
        <ele>535.20001220703125</ele>
        <time>2021-06-06T07:30:38.000Z</time>
        <extensions>
          <ns3:TrackPointExtension>
            <ns3:atemp>20.0</ns3:atemp>
          </ns3:TrackPointExtension>
        </extensions>
      </trkpt>
      <trkpt lat="43.12444464303553104400634765625" lon="13.02002015523612499237060546875">
        <ele>535.79998779296875</ele>
        <time>2021-06-06T07:30:41.000Z</time>
        <extensions>
          <ns3:TrackPointExtension>
            <ns3:atemp>20.0</ns3:atemp>
          </ns3:TrackPointExtension>
        </extensions>
      </trkpt>
      <trkpt lat="43.12446794472634792327880859375" lon="13.01990113221108913421630859375">
        <ele>536.4000244140625</ele>
        <time>2021-06-06T07:30:44.000Z</time>
        <extensions>
          <ns3:TrackPointExtension>
            <ns3:atemp>20.0</ns3:atemp>
          </ns3:TrackPointExtension>
        </extensions>
      </trkpt>
      <trkpt lat="43.1244827806949615478515625" lon="13.01973600871860980987548828125">
        <ele>537.4000244140625</ele>
        <time>2021-06-06T07:30:48.000Z</time>
        <extensions>
          <ns3:TrackPointExtension>
            <ns3:atemp>20.0</ns3:atemp>
          </ns3:TrackPointExtension>
        </extensions>
      </trkpt>
      <trkpt lat="43.12447783537209033966064453125" lon="13.01957054995000362396240234375">
        <ele>538.4000244140625</ele>
        <time>2021-06-06T07:30:52.000Z</time>
        <extensions>
          <ns3:TrackPointExtension>
            <ns3:atemp>20.0</ns3:atemp>
          </ns3:TrackPointExtension>
        </extensions>
      </trkpt>
      <trkpt lat="43.12446593306958675384521484375" lon="13.0194055102765560150146484375">
        <ele>539.4000244140625</ele>
        <time>2021-06-06T07:30:56.000Z</time>
        <extensions>
          <ns3:TrackPointExtension>
            <ns3:atemp>20.0</ns3:atemp>
          </ns3:TrackPointExtension>
        </extensions>
      </trkpt>
      <trkpt lat="43.12446190975606441497802734375" lon="13.0193659476935863494873046875">
        <ele>539.5999755859375</ele>
        <time>2021-06-06T07:30:57.000Z</time>
        <extensions>
          <ns3:TrackPointExtension>
            <ns3:atemp>20.0</ns3:atemp>
          </ns3:TrackPointExtension>
        </extensions>
      </trkpt>
      <trkpt lat="43.12444313429296016693115234375" lon="13.01916704513132572174072265625">
        <ele>540.79998779296875</ele>
        <time>2021-06-06T07:31:02.000Z</time>
        <extensions>
          <ns3:TrackPointExtension>
            <ns3:atemp>20.0</ns3:atemp>
          </ns3:TrackPointExtension>
        </extensions>
      </trkpt>
      <trkpt lat="43.1244279630482196807861328125" lon="13.0190457589924335479736328125">
        <ele>541.4000244140625</ele>
        <time>2021-06-06T07:31:05.000Z</time>
        <extensions>
          <ns3:TrackPointExtension>
            <ns3:atemp>20.0</ns3:atemp>
          </ns3:TrackPointExtension>
        </extensions>
      </trkpt>
      <trkpt lat="43.124416731297969818115234375" lon="13.01896638236939907073974609375">
        <ele>541.79998779296875</ele>
        <time>2021-06-06T07:31:07.000Z</time>
        <extensions>
          <ns3:TrackPointExtension>
            <ns3:atemp>20.0</ns3:atemp>
          </ns3:TrackPointExtension>
        </extensions>
      </trkpt>
      <trkpt lat="43.124406337738037109375" lon="13.01880897022783756256103515625">
        <ele>542.79998779296875</ele>
        <time>2021-06-06T07:31:11.000Z</time>
        <extensions>
          <ns3:TrackPointExtension>
            <ns3:atemp>20.0</ns3:atemp>
          </ns3:TrackPointExtension>
        </extensions>
      </trkpt>
      <trkpt lat="43.12440088950097560882568359375" lon="13.01872749812901020050048828125">
        <ele>543.20001220703125</ele>
        <time>2021-06-06T07:31:13.000Z</time>
        <extensions>
          <ns3:TrackPointExtension>
            <ns3:atemp>20.0</ns3:atemp>
          </ns3:TrackPointExtension>
        </extensions>
      </trkpt>
      <trkpt lat="43.1243766658008098602294921875" lon="13.01852046512067317962646484375">
        <ele>544.20001220703125</ele>
        <time>2021-06-06T07:31:18.000Z</time>
        <extensions>
          <ns3:TrackPointExtension>
            <ns3:atemp>20.0</ns3:atemp>
          </ns3:TrackPointExtension>
        </extensions>
      </trkpt>
      <trkpt lat="43.1243629194796085357666015625" lon="13.0183976702392101287841796875">
        <ele>545</ele>
        <time>2021-06-06T07:31:21.000Z</time>
        <extensions>
          <ns3:TrackPointExtension>
            <ns3:atemp>20.0</ns3:atemp>
          </ns3:TrackPointExtension>
        </extensions>
      </trkpt>
      <trkpt lat="43.12436082400381565093994140625" lon="13.0183554254472255706787109375">
        <ele>545.4000244140625</ele>
        <time>2021-06-06T07:31:22.000Z</time>
        <extensions>
          <ns3:TrackPointExtension>
            <ns3:atemp>20.0</ns3:atemp>
          </ns3:TrackPointExtension>
        </extensions>
      </trkpt>
      <trkpt lat="43.12434372492134571075439453125" lon="13.018188960850238800048828125">
        <ele>546.79998779296875</ele>
        <time>2021-06-06T07:31:26.000Z</time>
        <extensions>
          <ns3:TrackPointExtension>
            <ns3:atemp>20.0</ns3:atemp>
          </ns3:TrackPointExtension>
        </extensions>
      </trkpt>
      <trkpt lat="43.12432729639112949371337890625" lon="13.0180620588362216949462890625">
        <ele>548</ele>
        <time>2021-06-06T07:31:29.000Z</time>
        <extensions>
          <ns3:TrackPointExtension>
            <ns3:atemp>20.0</ns3:atemp>
          </ns3:TrackPointExtension>
        </extensions>
      </trkpt>
      <trkpt lat="43.12430231831967830657958984375" lon="13.01784723065793514251708984375">
        <ele>549.20001220703125</ele>
        <time>2021-06-06T07:31:34.000Z</time>
        <extensions>
          <ns3:TrackPointExtension>
            <ns3:atemp>20.0</ns3:atemp>
          </ns3:TrackPointExtension>
        </extensions>
      </trkpt>
      <trkpt lat="43.124301731586456298828125" lon="13.0177720449864864349365234375">
        <ele>549.5999755859375</ele>
        <time>2021-06-06T07:31:36.000Z</time>
        <extensions>
          <ns3:TrackPointExtension>
            <ns3:atemp>20.0</ns3:atemp>
          </ns3:TrackPointExtension>
        </extensions>
      </trkpt>
      <trkpt lat="43.12431673519313335418701171875" lon="13.01762578077614307403564453125">
        <ele>550.4000244140625</ele>
        <time>2021-06-06T07:31:40.000Z</time>
        <extensions>
          <ns3:TrackPointExtension>
            <ns3:atemp>20.0</ns3:atemp>
          </ns3:TrackPointExtension>
        </extensions>
      </trkpt>
      <trkpt lat="43.1243183277547359466552734375" lon="13.01754564978182315826416015625">
        <ele>550.79998779296875</ele>
        <time>2021-06-06T07:31:42.000Z</time>
        <extensions>
          <ns3:TrackPointExtension>
            <ns3:atemp>20.0</ns3:atemp>
          </ns3:TrackPointExtension>
        </extensions>
      </trkpt>
      <trkpt lat="43.1243109516799449920654296875" lon="13.0174226872622966766357421875">
        <ele>551.79998779296875</ele>
        <time>2021-06-06T07:31:45.000Z</time>
        <extensions>
          <ns3:TrackPointExtension>
            <ns3:atemp>20.0</ns3:atemp>
          </ns3:TrackPointExtension>
        </extensions>
      </trkpt>
      <trkpt lat="43.124299384653568267822265625" lon="13.01725362427532672882080078125">
        <ele>552.79998779296875</ele>
        <time>2021-06-06T07:31:49.000Z</time>
        <extensions>
          <ns3:TrackPointExtension>
            <ns3:atemp>20.0</ns3:atemp>
          </ns3:TrackPointExtension>
        </extensions>
      </trkpt>
      <trkpt lat="43.12429578043520450592041015625" lon="13.01721028983592987060546875">
        <ele>553.20001220703125</ele>
        <time>2021-06-06T07:31:50.000Z</time>
        <extensions>
          <ns3:TrackPointExtension>
            <ns3:atemp>20.0</ns3:atemp>
          </ns3:TrackPointExtension>
        </extensions>
      </trkpt>
      <trkpt lat="43.1242911703884601593017578125" lon="13.01708263345062732696533203125">
        <ele>554</ele>
        <time>2021-06-06T07:31:53.000Z</time>
        <extensions>
          <ns3:TrackPointExtension>
            <ns3:atemp>20.0</ns3:atemp>
          </ns3:TrackPointExtension>
        </extensions>
      </trkpt>
      <trkpt lat="43.12428421340882778167724609375" lon="13.01692421548068523406982421875">
        <ele>555.4000244140625</ele>
        <time>2021-06-06T07:31:57.000Z</time>
        <extensions>
          <ns3:TrackPointExtension>
            <ns3:atemp>20.0</ns3:atemp>
          </ns3:TrackPointExtension>
        </extensions>
      </trkpt>
      <trkpt lat="43.1242707185447216033935546875" lon="13.01680569536983966827392578125">
        <ele>556.20001220703125</ele>
        <time>2021-06-06T07:32:00.000Z</time>
        <extensions>
          <ns3:TrackPointExtension>
            <ns3:atemp>20.0</ns3:atemp>
          </ns3:TrackPointExtension>
        </extensions>
      </trkpt>
      <trkpt lat="43.12426309101283550262451171875" lon="13.01676747389137744903564453125">
        <ele>556.4000244140625</ele>
        <time>2021-06-06T07:32:01.000Z</time>
        <extensions>
          <ns3:TrackPointExtension>
            <ns3:atemp>20.0</ns3:atemp>
          </ns3:TrackPointExtension>
        </extensions>
      </trkpt>
      <trkpt lat="43.1242038309574127197265625" lon="13.0166203714907169342041015625">
        <ele>557.5999755859375</ele>
        <time>2021-06-06T07:32:05.000Z</time>
        <extensions>
          <ns3:TrackPointExtension>
            <ns3:atemp>20.0</ns3:atemp>
          </ns3:TrackPointExtension>
        </extensions>
      </trkpt>
      <trkpt lat="43.12418161891400814056396484375" lon="13.01659069955348968505859375">
        <ele>558</ele>
        <time>2021-06-06T07:32:06.000Z</time>
        <extensions>
          <ns3:TrackPointExtension>
            <ns3:atemp>20.0</ns3:atemp>
          </ns3:TrackPointExtension>
        </extensions>
      </trkpt>
      <trkpt lat="43.12411129474639892578125" lon="13.0165315233170986175537109375">
        <ele>558.79998779296875</ele>
        <time>2021-06-06T07:32:09.000Z</time>
        <extensions>
          <ns3:TrackPointExtension>
            <ns3:atemp>20.0</ns3:atemp>
          </ns3:TrackPointExtension>
        </extensions>
      </trkpt>
      <trkpt lat="43.12403409741818904876708984375" lon="13.01648433320224285125732421875">
        <ele>559.5999755859375</ele>
        <time>2021-06-06T07:32:12.000Z</time>
        <extensions>
          <ns3:TrackPointExtension>
            <ns3:atemp>20.0</ns3:atemp>
          </ns3:TrackPointExtension>
        </extensions>
      </trkpt>
      <trkpt lat="43.1240092031657695770263671875" lon="13.01646597683429718017578125">
        <ele>560</ele>
        <time>2021-06-06T07:32:13.000Z</time>
        <extensions>
          <ns3:TrackPointExtension>
            <ns3:atemp>20.0</ns3:atemp>
          </ns3:TrackPointExtension>
        </extensions>
      </trkpt>
      <trkpt lat="43.12386126257479190826416015625" lon="13.01637017168104648590087890625">
        <ele>561.20001220703125</ele>
        <time>2021-06-06T07:32:19.000Z</time>
        <extensions>
          <ns3:TrackPointExtension>
            <ns3:atemp>20.0</ns3:atemp>
          </ns3:TrackPointExtension>
        </extensions>
      </trkpt>
      <trkpt lat="43.123843409121036529541015625" lon="13.0163571797311305999755859375">
        <ele>561.4000244140625</ele>
        <time>2021-06-06T07:32:20.000Z</time>
        <extensions>
          <ns3:TrackPointExtension>
            <ns3:atemp>20.0</ns3:atemp>
          </ns3:TrackPointExtension>
        </extensions>
      </trkpt>
      <trkpt lat="43.12375095672905445098876953125" lon="13.01628652028739452362060546875">
        <ele>562.20001220703125</ele>
        <time>2021-06-06T07:32:24.000Z</time>
        <extensions>
          <ns3:TrackPointExtension>
            <ns3:atemp>20.0</ns3:atemp>
          </ns3:TrackPointExtension>
        </extensions>
      </trkpt>
      <trkpt lat="43.12364987097680568695068359375" lon="13.01620990969240665435791015625">
        <ele>563.20001220703125</ele>
        <time>2021-06-06T07:32:28.000Z</time>
        <extensions>
          <ns3:TrackPointExtension>
            <ns3:atemp>20.0</ns3:atemp>
          </ns3:TrackPointExtension>
        </extensions>
      </trkpt>
      <trkpt lat="43.1235974840819835662841796875" lon="13.016172945499420166015625">
        <ele>563.79998779296875</ele>
        <time>2021-06-06T07:32:30.000Z</time>
        <extensions>
          <ns3:TrackPointExtension>
            <ns3:atemp>20.0</ns3:atemp>
          </ns3:TrackPointExtension>
        </extensions>
      </trkpt>
      <trkpt lat="43.1235445104539394378662109375" lon="13.0161365680396556854248046875">
        <ele>564.20001220703125</ele>
        <time>2021-06-06T07:32:32.000Z</time>
        <extensions>
          <ns3:TrackPointExtension>
            <ns3:atemp>20.0</ns3:atemp>
          </ns3:TrackPointExtension>
        </extensions>
      </trkpt>
      <trkpt lat="43.12343831174075603485107421875" lon="13.01606423221528530120849609375">
        <ele>565.4000244140625</ele>
        <time>2021-06-06T07:32:36.000Z</time>
        <extensions>
          <ns3:TrackPointExtension>
            <ns3:atemp>20.0</ns3:atemp>
          </ns3:TrackPointExtension>
        </extensions>
      </trkpt>
      <trkpt lat="43.12336103059351444244384765625" lon="13.015998937189579010009765625">
        <ele>566.20001220703125</ele>
        <time>2021-06-06T07:32:39.000Z</time>
        <extensions>
          <ns3:TrackPointExtension>
            <ns3:atemp>20.0</ns3:atemp>
          </ns3:TrackPointExtension>
        </extensions>
      </trkpt>
      <trkpt lat="43.12326095066964626312255859375" lon="13.01588594913482666015625">
        <ele>566.5999755859375</ele>
        <time>2021-06-06T07:32:43.000Z</time>
        <extensions>
          <ns3:TrackPointExtension>
            <ns3:atemp>20.0</ns3:atemp>
          </ns3:TrackPointExtension>
        </extensions>
      </trkpt>
      <trkpt lat="43.12319875694811344146728515625" lon="13.015787042677402496337890625">
        <ele>566.79998779296875</ele>
        <time>2021-06-06T07:32:46.000Z</time>
        <extensions>
          <ns3:TrackPointExtension>
            <ns3:atemp>20.0</ns3:atemp>
          </ns3:TrackPointExtension>
        </extensions>
      </trkpt>
      <trkpt lat="43.12312315218150615692138671875" lon="13.01566190086305141448974609375">
        <ele>567.5999755859375</ele>
        <time>2021-06-06T07:32:50.000Z</time>
        <extensions>
          <ns3:TrackPointExtension>
            <ns3:atemp>20.0</ns3:atemp>
          </ns3:TrackPointExtension>
        </extensions>
      </trkpt>
      <trkpt lat="43.123046122491359710693359375" lon="13.0155354179441928863525390625">
        <ele>568.5999755859375</ele>
        <time>2021-06-06T07:32:54.000Z</time>
        <extensions>
          <ns3:TrackPointExtension>
            <ns3:atemp>20.0</ns3:atemp>
          </ns3:TrackPointExtension>
        </extensions>
      </trkpt>
      <trkpt lat="43.1230295263230800628662109375" lon="13.0155032314360141754150390625">
        <ele>568.79998779296875</ele>
        <time>2021-06-06T07:32:55.000Z</time>
        <extensions>
          <ns3:TrackPointExtension>
            <ns3:atemp>20.0</ns3:atemp>
          </ns3:TrackPointExtension>
        </extensions>
      </trkpt>
      <trkpt lat="43.1229244172573089599609375" lon="13.01532729528844356536865234375">
        <ele>570</ele>
        <time>2021-06-06T07:33:01.000Z</time>
        <extensions>
          <ns3:TrackPointExtension>
            <ns3:atemp>20.0</ns3:atemp>
          </ns3:TrackPointExtension>
        </extensions>
      </trkpt>
      <trkpt lat="43.122905306518077850341796875" lon="13.01530114375054836273193359375">
        <ele>570.4000244140625</ele>
        <time>2021-06-06T07:33:02.000Z</time>
        <extensions>
          <ns3:TrackPointExtension>
            <ns3:atemp>20.0</ns3:atemp>
          </ns3:TrackPointExtension>
        </extensions>
      </trkpt>
      <trkpt lat="43.12285208143293857574462890625" lon="13.01520927809178829193115234375">
        <ele>571</ele>
        <time>2021-06-06T07:33:05.000Z</time>
        <extensions>
          <ns3:TrackPointExtension>
            <ns3:atemp>20.0</ns3:atemp>
          </ns3:TrackPointExtension>
        </extensions>
      </trkpt>
      <trkpt lat="43.12277681194245815277099609375" lon="13.01507684402167797088623046875">
        <ele>572</ele>
        <time>2021-06-06T07:33:09.000Z</time>
        <extensions>
          <ns3:TrackPointExtension>
            <ns3:atemp>20.0</ns3:atemp>
          </ns3:TrackPointExtension>
        </extensions>
      </trkpt>
      <trkpt lat="43.12275770120322704315185546875" lon="13.01504306495189666748046875">
        <ele>572.4000244140625</ele>
        <time>2021-06-06T07:33:10.000Z</time>
        <extensions>
          <ns3:TrackPointExtension>
            <ns3:atemp>20.0</ns3:atemp>
          </ns3:TrackPointExtension>
        </extensions>
      </trkpt>
      <trkpt lat="43.12267966568470001220703125" lon="13.01488087512552738189697265625">
        <ele>573.4000244140625</ele>
        <time>2021-06-06T07:33:15.000Z</time>
        <extensions>
          <ns3:TrackPointExtension>
            <ns3:atemp>20.0</ns3:atemp>
          </ns3:TrackPointExtension>
        </extensions>
      </trkpt>
      <trkpt lat="43.12266583554446697235107421875" lon="13.0148477666079998016357421875">
        <ele>573.4000244140625</ele>
        <time>2021-06-06T07:33:16.000Z</time>
        <extensions>
          <ns3:TrackPointExtension>
            <ns3:atemp>20.0</ns3:atemp>
          </ns3:TrackPointExtension>
        </extensions>
      </trkpt>
      <trkpt lat="43.1225435435771942138671875" lon="13.01463411189615726470947265625">
        <ele>574.5999755859375</ele>
        <time>2021-06-06T07:33:23.000Z</time>
        <extensions>
          <ns3:TrackPointExtension>
            <ns3:atemp>20.0</ns3:atemp>
          </ns3:TrackPointExtension>
        </extensions>
      </trkpt>
      <trkpt lat="43.122505657374858856201171875" lon="13.0145694874227046966552734375">
        <ele>575.5999755859375</ele>
        <time>2021-06-06T07:33:25.000Z</time>
        <extensions>
          <ns3:TrackPointExtension>
            <ns3:atemp>20.0</ns3:atemp>
          </ns3:TrackPointExtension>
        </extensions>
      </trkpt>
      <trkpt lat="43.1224870495498180389404296875" lon="13.01453671418130397796630859375">
        <ele>575.79998779296875</ele>
        <time>2021-06-06T07:33:26.000Z</time>
        <extensions>
          <ns3:TrackPointExtension>
            <ns3:atemp>20.0</ns3:atemp>
          </ns3:TrackPointExtension>
        </extensions>
      </trkpt>
      <trkpt lat="43.12237699516117572784423828125" lon="13.01434778608381748199462890625">
        <ele>577</ele>
        <time>2021-06-06T07:33:32.000Z</time>
        <extensions>
          <ns3:TrackPointExtension>
            <ns3:atemp>20.0</ns3:atemp>
          </ns3:TrackPointExtension>
        </extensions>
      </trkpt>
      <trkpt lat="43.12232402153313159942626953125" lon="13.01424988545477390289306640625">
        <ele>578</ele>
        <time>2021-06-06T07:33:35.000Z</time>
        <extensions>
          <ns3:TrackPointExtension>
            <ns3:atemp>19.0</ns3:atemp>
          </ns3:TrackPointExtension>
        </extensions>
      </trkpt>
      <trkpt lat="43.12230558134615421295166015625" lon="13.0142171122133731842041015625">
        <ele>578.4000244140625</ele>
        <time>2021-06-06T07:33:36.000Z</time>
        <extensions>
          <ns3:TrackPointExtension>
            <ns3:atemp>19.0</ns3:atemp>
          </ns3:TrackPointExtension>
        </extensions>
      </trkpt>
      <trkpt lat="43.12224640510976314544677734375" lon="13.01407805643975734710693359375">
        <ele>579</ele>
        <time>2021-06-06T07:33:40.000Z</time>
        <extensions>
          <ns3:TrackPointExtension>
            <ns3:atemp>19.0</ns3:atemp>
          </ns3:TrackPointExtension>
        </extensions>
      </trkpt>
      <trkpt lat="43.12219711951911449432373046875" lon="13.013929612934589385986328125">
        <ele>579.79998779296875</ele>
        <time>2021-06-06T07:33:44.000Z</time>
        <extensions>
          <ns3:TrackPointExtension>
            <ns3:atemp>19.0</ns3:atemp>
          </ns3:TrackPointExtension>
        </extensions>
      </trkpt>
      <trkpt lat="43.12218748033046722412109375" lon="13.0138905532658100128173828125">
        <ele>580</ele>
        <time>2021-06-06T07:33:45.000Z</time>
        <extensions>
          <ns3:TrackPointExtension>
            <ns3:atemp>19.0</ns3:atemp>
          </ns3:TrackPointExtension>
        </extensions>
      </trkpt>
      <trkpt lat="43.12215554527938365936279296875" lon="13.013689555227756500244140625">
        <ele>581</ele>
        <time>2021-06-06T07:33:50.000Z</time>
        <extensions>
          <ns3:TrackPointExtension>
            <ns3:atemp>19.0</ns3:atemp>
          </ns3:TrackPointExtension>
        </extensions>
      </trkpt>
      <trkpt lat="43.1221370212733745574951171875" lon="13.01357380114495754241943359375">
        <ele>581.5999755859375</ele>
        <time>2021-06-06T07:33:53.000Z</time>
        <extensions>
          <ns3:TrackPointExtension>
            <ns3:atemp>19.0</ns3:atemp>
          </ns3:TrackPointExtension>
        </extensions>
      </trkpt>
      <trkpt lat="43.12213056720793247222900390625" lon="13.013534657657146453857421875">
        <ele>582</ele>
        <time>2021-06-06T07:33:54.000Z</time>
        <extensions>
          <ns3:TrackPointExtension>
            <ns3:atemp>19.0</ns3:atemp>
          </ns3:TrackPointExtension>
        </extensions>
      </trkpt>
      <trkpt lat="43.1220917589962482452392578125" lon="13.01333852112293243408203125">
        <ele>583.20001220703125</ele>
        <time>2021-06-06T07:33:59.000Z</time>
        <extensions>
          <ns3:TrackPointExtension>
            <ns3:atemp>19.0</ns3:atemp>
          </ns3:TrackPointExtension>
        </extensions>
      </trkpt>
      <trkpt lat="43.1220283918082714080810546875" lon="13.0131676979362964630126953125">
        <ele>584.4000244140625</ele>
        <time>2021-06-06T07:34:04.000Z</time>
        <extensions>
          <ns3:TrackPointExtension>
            <ns3:atemp>19.0</ns3:atemp>
          </ns3:TrackPointExtension>
        </extensions>
      </trkpt>
      <trkpt lat="43.1219532899558544158935546875" lon="13.01301707513630390167236328125">
        <ele>585.5999755859375</ele>
        <time>2021-06-06T07:34:09.000Z</time>
        <extensions>
          <ns3:TrackPointExtension>
            <ns3:atemp>19.0</ns3:atemp>
          </ns3:TrackPointExtension>
        </extensions>
      </trkpt>
      <trkpt lat="43.12192353419959545135498046875" lon="13.01295764744281768798828125">
        <ele>586.20001220703125</ele>
        <time>2021-06-06T07:34:11.000Z</time>
        <extensions>
          <ns3:TrackPointExtension>
            <ns3:atemp>19.0</ns3:atemp>
          </ns3:TrackPointExtension>
        </extensions>
      </trkpt>
      <trkpt lat="43.1218889169394969940185546875" lon="13.01289997994899749755859375">
        <ele>586.79998779296875</ele>
        <time>2021-06-06T07:34:13.000Z</time>
        <extensions>
          <ns3:TrackPointExtension>
            <ns3:atemp>19.0</ns3:atemp>
          </ns3:TrackPointExtension>
        </extensions>
      </trkpt>
      <trkpt lat="43.1218087859451770782470703125" lon="13.01279545761644840240478515625">
        <ele>587.79998779296875</ele>
        <time>2021-06-06T07:34:17.000Z</time>
        <extensions>
          <ns3:TrackPointExtension>
            <ns3:atemp>19.0</ns3:atemp>
          </ns3:TrackPointExtension>
        </extensions>
      </trkpt>
      <trkpt lat="43.12177249230444431304931640625" lon="13.012750111520290374755859375">
        <ele>588.20001220703125</ele>
        <time>2021-06-06T07:34:19.000Z</time>
        <extensions>
          <ns3:TrackPointExtension>
            <ns3:atemp>19.0</ns3:atemp>
          </ns3:TrackPointExtension>
        </extensions>
      </trkpt>
      <trkpt lat="43.1217269785702228546142578125" lon="13.01269588060677051544189453125">
        <ele>588.79998779296875</ele>
        <time>2021-06-06T07:34:22.000Z</time>
        <extensions>
          <ns3:TrackPointExtension>
            <ns3:atemp>19.0</ns3:atemp>
          </ns3:TrackPointExtension>
        </extensions>
      </trkpt>
      <trkpt lat="43.12164542265236377716064453125" lon="13.01261457614600658416748046875">
        <ele>590</ele>
        <time>2021-06-06T07:34:26.000Z</time>
        <extensions>
          <ns3:TrackPointExtension>
            <ns3:atemp>19.0</ns3:atemp>
          </ns3:TrackPointExtension>
        </extensions>
      </trkpt>
      <trkpt lat="43.121546767652034759521484375" lon="13.01253947429358959197998046875">
        <ele>591</ele>
        <time>2021-06-06T07:34:30.000Z</time>
        <extensions>
          <ns3:TrackPointExtension>
            <ns3:atemp>19.0</ns3:atemp>
          </ns3:TrackPointExtension>
        </extensions>
      </trkpt>
      <trkpt lat="43.12145364470779895782470703125" lon="13.01246202550828456878662109375">
        <ele>592.20001220703125</ele>
        <time>2021-06-06T07:34:34.000Z</time>
        <extensions>
          <ns3:TrackPointExtension>
            <ns3:atemp>19.0</ns3:atemp>
          </ns3:TrackPointExtension>
        </extensions>
      </trkpt>
      <trkpt lat="43.12132179737091064453125" lon="13.01238792948424816131591796875">
        <ele>593.20001220703125</ele>
        <time>2021-06-06T07:34:39.000Z</time>
        <extensions>
          <ns3:TrackPointExtension>
            <ns3:atemp>19.0</ns3:atemp>
          </ns3:TrackPointExtension>
        </extensions>
      </trkpt>
      <trkpt lat="43.12122414819896221160888671875" lon="13.01233805716037750244140625">
        <ele>594</ele>
        <time>2021-06-06T07:34:43.000Z</time>
        <extensions>
          <ns3:TrackPointExtension>
            <ns3:atemp>19.0</ns3:atemp>
          </ns3:TrackPointExtension>
        </extensions>
      </trkpt>
      <trkpt lat="43.12119900248944759368896484375" lon="13.01233143545687198638916015625">
        <ele>594.20001220703125</ele>
        <time>2021-06-06T07:34:44.000Z</time>
        <extensions>
          <ns3:TrackPointExtension>
            <ns3:atemp>19.0</ns3:atemp>
          </ns3:TrackPointExtension>
        </extensions>
      </trkpt>
      <trkpt lat="43.1210678257048130035400390625" lon="13.01229514181613922119140625">
        <ele>595.4000244140625</ele>
        <time>2021-06-06T07:34:49.000Z</time>
        <extensions>
          <ns3:TrackPointExtension>
            <ns3:atemp>19.0</ns3:atemp>
          </ns3:TrackPointExtension>
        </extensions>
      </trkpt>
      <trkpt lat="43.1210487149655818939208984375" lon="13.0122728459537029266357421875">
        <ele>595.5999755859375</ele>
        <time>2021-06-06T07:34:50.000Z</time>
        <extensions>
          <ns3:TrackPointExtension>
            <ns3:atemp>19.0</ns3:atemp>
          </ns3:TrackPointExtension>
        </extensions>
      </trkpt>
      <trkpt lat="43.121040500700473785400390625" lon="13.01224661059677600860595703125">
        <ele>595.79998779296875</ele>
        <time>2021-06-06T07:34:51.000Z</time>
        <extensions>
          <ns3:TrackPointExtension>
            <ns3:atemp>19.0</ns3:atemp>
          </ns3:TrackPointExtension>
        </extensions>
      </trkpt>
      <trkpt lat="43.12104678712785243988037109375" lon="13.01221668720245361328125">
        <ele>596.4000244140625</ele>
        <time>2021-06-06T07:34:52.000Z</time>
        <extensions>
          <ns3:TrackPointExtension>
            <ns3:atemp>19.0</ns3:atemp>
          </ns3:TrackPointExtension>
        </extensions>
      </trkpt>
      <trkpt lat="43.12108936719596385955810546875" lon="13.01217712461948394775390625">
        <ele>596.79998779296875</ele>
        <time>2021-06-06T07:34:54.000Z</time>
        <extensions>
          <ns3:TrackPointExtension>
            <ns3:atemp>19.0</ns3:atemp>
          </ns3:TrackPointExtension>
        </extensions>
      </trkpt>
      <trkpt lat="43.12117628753185272216796875" lon="13.01216639578342437744140625">
        <ele>597.4000244140625</ele>
        <time>2021-06-06T07:34:57.000Z</time>
        <extensions>
          <ns3:TrackPointExtension>
            <ns3:atemp>19.0</ns3:atemp>
          </ns3:TrackPointExtension>
        </extensions>
      </trkpt>
      <trkpt lat="43.121206462383270263671875" lon="13.01216932944953441619873046875">
        <ele>597.5999755859375</ele>
        <time>2021-06-06T07:34:58.000Z</time>
        <extensions>
          <ns3:TrackPointExtension>
            <ns3:atemp>19.0</ns3:atemp>
          </ns3:TrackPointExtension>
        </extensions>
      </trkpt>
      <trkpt lat="43.121263124048709869384765625" lon="13.0121732689440250396728515625">
        <ele>598</ele>
        <time>2021-06-06T07:35:00.000Z</time>
        <extensions>
          <ns3:TrackPointExtension>
            <ns3:atemp>19.0</ns3:atemp>
          </ns3:TrackPointExtension>
        </extensions>
      </trkpt>
      <trkpt lat="43.12135423533618450164794921875" lon="13.0121796391904354095458984375">
        <ele>598.5999755859375</ele>
        <time>2021-06-06T07:35:03.000Z</time>
        <extensions>
          <ns3:TrackPointExtension>
            <ns3:atemp>19.0</ns3:atemp>
          </ns3:TrackPointExtension>
        </extensions>
      </trkpt>
      <trkpt lat="43.1214936263859272003173828125" lon="13.012203611433506011962890625">
        <ele>599.20001220703125</ele>
        <time>2021-06-06T07:35:08.000Z</time>
        <extensions>
          <ns3:TrackPointExtension>
            <ns3:atemp>19.0</ns3:atemp>
          </ns3:TrackPointExtension>
        </extensions>
      </trkpt>
      <trkpt lat="43.1215439178049564361572265625" lon="13.0122148431837558746337890625">
        <ele>599.5999755859375</ele>
        <time>2021-06-06T07:35:10.000Z</time>
        <extensions>
          <ns3:TrackPointExtension>
            <ns3:atemp>19.0</ns3:atemp>
          </ns3:TrackPointExtension>
        </extensions>
      </trkpt>
      <trkpt lat="43.121677525341510772705078125" lon="13.01224795170128345489501953125">
        <ele>600.5999755859375</ele>
        <time>2021-06-06T07:35:15.000Z</time>
        <extensions>
          <ns3:TrackPointExtension>
            <ns3:atemp>19.0</ns3:atemp>
          </ns3:TrackPointExtension>
        </extensions>
      </trkpt>
      <trkpt lat="43.12170468270778656005859375" lon="13.0122537352144718170166015625">
        <ele>600.79998779296875</ele>
        <time>2021-06-06T07:35:16.000Z</time>
        <extensions>
          <ns3:TrackPointExtension>
            <ns3:atemp>19.0</ns3:atemp>
          </ns3:TrackPointExtension>
        </extensions>
      </trkpt>
      <trkpt lat="43.1218413077294826507568359375" lon="13.0122931301593780517578125">
        <ele>601.79998779296875</ele>
        <time>2021-06-06T07:35:21.000Z</time>
        <extensions>
          <ns3:TrackPointExtension>
            <ns3:atemp>19.0</ns3:atemp>
          </ns3:TrackPointExtension>
        </extensions>
      </trkpt>
      <trkpt lat="43.1219418905675411224365234375" lon="13.01233805716037750244140625">
        <ele>602.4000244140625</ele>
        <time>2021-06-06T07:35:25.000Z</time>
        <extensions>
          <ns3:TrackPointExtension>
            <ns3:atemp>19.0</ns3:atemp>
          </ns3:TrackPointExtension>
        </extensions>
      </trkpt>
      <trkpt lat="43.1220151484012603759765625" lon="13.01237971521914005279541015625">
        <ele>603</ele>
        <time>2021-06-06T07:35:28.000Z</time>
        <extensions>
          <ns3:TrackPointExtension>
            <ns3:atemp>19.0</ns3:atemp>
          </ns3:TrackPointExtension>
        </extensions>
      </trkpt>
      <trkpt lat="43.1221492588520050048828125" lon="13.0124706588685512542724609375">
        <ele>604</ele>
        <time>2021-06-06T07:35:34.000Z</time>
        <extensions>
          <ns3:TrackPointExtension>
            <ns3:atemp>19.0</ns3:atemp>
          </ns3:TrackPointExtension>
        </extensions>
      </trkpt>
      <trkpt lat="43.122171722352504730224609375" lon="13.0124889314174652099609375">
        <ele>604.20001220703125</ele>
        <time>2021-06-06T07:35:35.000Z</time>
        <extensions>
          <ns3:TrackPointExtension>
            <ns3:atemp>19.0</ns3:atemp>
          </ns3:TrackPointExtension>
        </extensions>
      </trkpt>
      <trkpt lat="43.12228814698755741119384765625" lon="13.01257484592497348785400390625">
        <ele>605.4000244140625</ele>
        <time>2021-06-06T07:35:40.000Z</time>
        <extensions>
          <ns3:TrackPointExtension>
            <ns3:atemp>19.0</ns3:atemp>
          </ns3:TrackPointExtension>
        </extensions>
      </trkpt>
      <trkpt lat="43.122359476983547210693359375" lon="13.01263117231428623199462890625">
        <ele>606</ele>
        <time>2021-06-06T07:35:43.000Z</time>
        <extensions>
          <ns3:TrackPointExtension>
            <ns3:atemp>19.0</ns3:atemp>
          </ns3:TrackPointExtension>
        </extensions>
      </trkpt>
      <trkpt lat="43.1224075891077518463134765625" lon="13.0126624368131160736083984375">
        <ele>606.4000244140625</ele>
        <time>2021-06-06T07:35:45.000Z</time>
        <extensions>
          <ns3:TrackPointExtension>
            <ns3:atemp>19.0</ns3:atemp>
          </ns3:TrackPointExtension>
        </extensions>
      </trkpt>
      <trkpt lat="43.122543208301067352294921875" lon="13.01271163858473300933837890625">
        <ele>607.5999755859375</ele>
        <time>2021-06-06T07:35:50.000Z</time>
        <extensions>
          <ns3:TrackPointExtension>
            <ns3:atemp>19.0</ns3:atemp>
          </ns3:TrackPointExtension>
        </extensions>
      </trkpt>
      <trkpt lat="43.12267086468636989593505859375" lon="13.01270292140543460845947265625">
        <ele>608.79998779296875</ele>
        <time>2021-06-06T07:35:55.000Z</time>
        <extensions>
          <ns3:TrackPointExtension>
            <ns3:atemp>19.0</ns3:atemp>
          </ns3:TrackPointExtension>
        </extensions>
      </trkpt>
      <trkpt lat="43.12269601039588451385498046875" lon="13.01269018091261386871337890625">
        <ele>608.79998779296875</ele>
        <time>2021-06-06T07:35:56.000Z</time>
        <extensions>
          <ns3:TrackPointExtension>
            <ns3:atemp>19.0</ns3:atemp>
          </ns3:TrackPointExtension>
        </extensions>
      </trkpt>
      <trkpt lat="43.12281151302158832550048828125" lon="13.01259689033031463623046875">
        <ele>609.79998779296875</ele>
        <time>2021-06-06T07:36:01.000Z</time>
        <extensions>
          <ns3:TrackPointExtension>
            <ns3:atemp>19.0</ns3:atemp>
          </ns3:TrackPointExtension>
        </extensions>
      </trkpt>
      <trkpt lat="43.12287420965731143951416015625" lon="13.0125286616384983062744140625">
        <ele>610.5999755859375</ele>
        <time>2021-06-06T07:36:04.000Z</time>
        <extensions>
          <ns3:TrackPointExtension>
            <ns3:atemp>19.0</ns3:atemp>
          </ns3:TrackPointExtension>
        </extensions>
      </trkpt>
      <trkpt lat="43.12291461043059825897216796875" lon="13.01248021423816680908203125">
        <ele>610.79998779296875</ele>
        <time>2021-06-06T07:36:06.000Z</time>
        <extensions>
          <ns3:TrackPointExtension>
            <ns3:atemp>19.0</ns3:atemp>
          </ns3:TrackPointExtension>
        </extensions>
      </trkpt>
      <trkpt lat="43.1230603717267513275146484375" lon="13.01234166137874126434326171875">
        <ele>611.79998779296875</ele>
        <time>2021-06-06T07:36:13.000Z</time>
        <extensions>
          <ns3:TrackPointExtension>
            <ns3:atemp>19.0</ns3:atemp>
          </ns3:TrackPointExtension>
        </extensions>
      </trkpt>
      <trkpt lat="43.12308325432240962982177734375" lon="13.0123261548578739166259765625">
        <ele>612</ele>
        <time>2021-06-06T07:36:14.000Z</time>
        <extensions>
          <ns3:TrackPointExtension>
            <ns3:atemp>19.0</ns3:atemp>
          </ns3:TrackPointExtension>
        </extensions>
      </trkpt>
      <trkpt lat="43.1232221424579620361328125" lon="13.01223705522716045379638671875">
        <ele>613.20001220703125</ele>
        <time>2021-06-06T07:36:20.000Z</time>
        <extensions>
          <ns3:TrackPointExtension>
            <ns3:atemp>19.0</ns3:atemp>
          </ns3:TrackPointExtension>
        </extensions>
      </trkpt>
      <trkpt lat="43.1232726015150547027587890625" lon="13.01221140660345554351806640625">
        <ele>613.4000244140625</ele>
        <time>2021-06-06T07:36:22.000Z</time>
        <extensions>
          <ns3:TrackPointExtension>
            <ns3:atemp>19.0</ns3:atemp>
          </ns3:TrackPointExtension>
        </extensions>
      </trkpt>
      <trkpt lat="43.12337175942957401275634765625" lon="13.01215223036706447601318359375">
        <ele>614.4000244140625</ele>
        <time>2021-06-06T07:36:26.000Z</time>
        <extensions>
          <ns3:TrackPointExtension>
            <ns3:atemp>19.0</ns3:atemp>
          </ns3:TrackPointExtension>
        </extensions>
      </trkpt>
      <trkpt lat="43.12346463091671466827392578125" lon="13.0120901204645633697509765625">
        <ele>615.20001220703125</ele>
        <time>2021-06-06T07:36:30.000Z</time>
        <extensions>
          <ns3:TrackPointExtension>
            <ns3:atemp>19.0</ns3:atemp>
          </ns3:TrackPointExtension>
        </extensions>
      </trkpt>
      <trkpt lat="43.123506791889667510986328125" lon="13.01205617375671863555908203125">
        <ele>615.5999755859375</ele>
        <time>2021-06-06T07:36:32.000Z</time>
        <extensions>
          <ns3:TrackPointExtension>
            <ns3:atemp>19.0</ns3:atemp>
          </ns3:TrackPointExtension>
        </extensions>
      </trkpt>
      <trkpt lat="43.123591281473636627197265625" lon="13.0119814909994602203369140625">
        <ele>616.79998779296875</ele>
        <time>2021-06-06T07:36:36.000Z</time>
        <extensions>
          <ns3:TrackPointExtension>
            <ns3:atemp>19.0</ns3:atemp>
          </ns3:TrackPointExtension>
        </extensions>
      </trkpt>
      <trkpt lat="43.12361684627830982208251953125" lon="13.0119573511183261871337890625">
        <ele>617</ele>
        <time>2021-06-06T07:36:37.000Z</time>
        <extensions>
          <ns3:TrackPointExtension>
            <ns3:atemp>19.0</ns3:atemp>
          </ns3:TrackPointExtension>
        </extensions>
      </trkpt>
      <trkpt lat="43.1236876733601093292236328125" lon="13.0118695087730884552001953125">
        <ele>617.79998779296875</ele>
        <time>2021-06-06T07:36:40.000Z</time>
        <extensions>
          <ns3:TrackPointExtension>
            <ns3:atemp>19.0</ns3:atemp>
          </ns3:TrackPointExtension>
        </extensions>
      </trkpt>
      <trkpt lat="43.123760931193828582763671875" lon="13.0117377452552318572998046875">
        <ele>618.79998779296875</ele>
        <time>2021-06-06T07:36:44.000Z</time>
        <extensions>
          <ns3:TrackPointExtension>
            <ns3:atemp>19.0</ns3:atemp>
          </ns3:TrackPointExtension>
        </extensions>
      </trkpt>
      <trkpt lat="43.1237733364105224609375" lon="13.01170195452868938446044921875">
        <ele>619</ele>
        <time>2021-06-06T07:36:45.000Z</time>
        <extensions>
          <ns3:TrackPointExtension>
            <ns3:atemp>19.0</ns3:atemp>
          </ns3:TrackPointExtension>
        </extensions>
      </trkpt>
      <trkpt lat="43.12382161617279052734375" lon="13.01144178025424480438232421875">
        <ele>620</ele>
        <time>2021-06-06T07:36:52.000Z</time>
        <extensions>
          <ns3:TrackPointExtension>
            <ns3:atemp>19.0</ns3:atemp>
          </ns3:TrackPointExtension>
        </extensions>
      </trkpt>
      <trkpt lat="43.12382454983890056610107421875" lon="13.01140842027962207794189453125">
        <ele>620</ele>
        <time>2021-06-06T07:36:53.000Z</time>
        <extensions>
          <ns3:TrackPointExtension>
            <ns3:atemp>19.0</ns3:atemp>
          </ns3:TrackPointExtension>
        </extensions>
      </trkpt>
      <trkpt lat="43.1238341890275478363037109375" lon="13.01122871227562427520751953125">
        <ele>621</ele>
        <time>2021-06-06T07:36:58.000Z</time>
        <extensions>
          <ns3:TrackPointExtension>
            <ns3:atemp>19.0</ns3:atemp>
          </ns3:TrackPointExtension>
        </extensions>
      </trkpt>
      <trkpt lat="43.12383326701819896697998046875" lon="13.01119300536811351776123046875">
        <ele>621.20001220703125</ele>
        <time>2021-06-06T07:36:59.000Z</time>
        <extensions>
          <ns3:TrackPointExtension>
            <ns3:atemp>19.0</ns3:atemp>
          </ns3:TrackPointExtension>
        </extensions>
      </trkpt>
      <trkpt lat="43.12380594201385974884033203125" lon="13.01100826822221279144287109375">
        <ele>622.20001220703125</ele>
        <time>2021-06-06T07:37:04.000Z</time>
        <extensions>
          <ns3:TrackPointExtension>
            <ns3:atemp>19.0</ns3:atemp>
          </ns3:TrackPointExtension>
        </extensions>
      </trkpt>
      <trkpt lat="43.12379186041653156280517578125" lon="13.01097809337079524993896484375">
        <ele>622.4000244140625</ele>
        <time>2021-06-06T07:37:05.000Z</time>
        <extensions>
          <ns3:TrackPointExtension>
            <ns3:atemp>19.0</ns3:atemp>
          </ns3:TrackPointExtension>
        </extensions>
      </trkpt>
      <trkpt lat="43.1237000785768032073974609375" lon="13.01087197847664356231689453125">
        <ele>623.4000244140625</ele>
        <time>2021-06-06T07:37:10.000Z</time>
        <extensions>
          <ns3:TrackPointExtension>
            <ns3:atemp>19.0</ns3:atemp>
          </ns3:TrackPointExtension>
        </extensions>
      </trkpt>
      <trkpt lat="43.12361801974475383758544921875" lon="13.01082956604659557342529296875">
        <ele>624.4000244140625</ele>
        <time>2021-06-06T07:37:14.000Z</time>
        <extensions>
          <ns3:TrackPointExtension>
            <ns3:atemp>19.0</ns3:atemp>
          </ns3:TrackPointExtension>
        </extensions>
      </trkpt>
      <trkpt lat="43.123558424413204193115234375" lon="13.01079402677714824676513671875">
        <ele>625.5999755859375</ele>
        <time>2021-06-06T07:37:17.000Z</time>
        <extensions>
          <ns3:TrackPointExtension>
            <ns3:atemp>19.0</ns3:atemp>
          </ns3:TrackPointExtension>
        </extensions>
      </trkpt>
      <trkpt lat="43.123454153537750244140625" lon="13.0107154883444309234619140625">
        <ele>626.5999755859375</ele>
        <time>2021-06-06T07:37:22.000Z</time>
        <extensions>
          <ns3:TrackPointExtension>
            <ns3:atemp>19.0</ns3:atemp>
          </ns3:TrackPointExtension>
        </extensions>
      </trkpt>
      <trkpt lat="43.12341433949768543243408203125" lon="13.01066896878182888031005859375">
        <ele>627</ele>
        <time>2021-06-06T07:37:24.000Z</time>
        <extensions>
          <ns3:TrackPointExtension>
            <ns3:atemp>19.0</ns3:atemp>
          </ns3:TrackPointExtension>
        </extensions>
      </trkpt>
      <trkpt lat="43.1233601085841655731201171875" lon="13.010596297681331634521484375">
        <ele>627.5999755859375</ele>
        <time>2021-06-06T07:37:27.000Z</time>
        <extensions>
          <ns3:TrackPointExtension>
            <ns3:atemp>19.0</ns3:atemp>
          </ns3:TrackPointExtension>
        </extensions>
      </trkpt>
      <trkpt lat="43.12328374944627285003662109375" lon="13.01046595908701419830322265625">
        <ele>628.79998779296875</ele>
        <time>2021-06-06T07:37:32.000Z</time>
        <extensions>
          <ns3:TrackPointExtension>
            <ns3:atemp>19.0</ns3:atemp>
          </ns3:TrackPointExtension>
        </extensions>
      </trkpt>
      <trkpt lat="43.12322390265762805938720703125" lon="13.0103512108325958251953125">
        <ele>630</ele>
        <time>2021-06-06T07:37:36.000Z</time>
        <extensions>
          <ns3:TrackPointExtension>
            <ns3:atemp>19.0</ns3:atemp>
          </ns3:TrackPointExtension>
        </extensions>
      </trkpt>
      <trkpt lat="43.12314276583492755889892578125" lon="13.01027770154178142547607421875">
        <ele>631</ele>
        <time>2021-06-06T07:37:40.000Z</time>
        <extensions>
          <ns3:TrackPointExtension>
            <ns3:atemp>19.0</ns3:atemp>
          </ns3:TrackPointExtension>
        </extensions>
      </trkpt>
      <trkpt lat="43.12312046997249126434326171875" lon="13.01026429049670696258544921875">
        <ele>631.20001220703125</ele>
        <time>2021-06-06T07:37:41.000Z</time>
        <extensions>
          <ns3:TrackPointExtension>
            <ns3:atemp>19.0</ns3:atemp>
          </ns3:TrackPointExtension>
        </extensions>
      </trkpt>
      <trkpt lat="43.12298451550304889678955078125" lon="13.01025289110839366912841796875">
        <ele>632.5999755859375</ele>
        <time>2021-06-06T07:37:46.000Z</time>
        <extensions>
          <ns3:TrackPointExtension>
            <ns3:atemp>19.0</ns3:atemp>
          </ns3:TrackPointExtension>
        </extensions>
      </trkpt>
      <trkpt lat="43.12284554354846477508544921875" lon="13.01026739180088043212890625">
        <ele>633.79998779296875</ele>
        <time>2021-06-06T07:37:51.000Z</time>
        <extensions>
          <ns3:TrackPointExtension>
            <ns3:atemp>19.0</ns3:atemp>
          </ns3:TrackPointExtension>
        </extensions>
      </trkpt>
      <trkpt lat="43.12278687022626399993896484375" lon="13.0102692358195781707763671875">
        <ele>634</ele>
        <time>2021-06-06T07:37:53.000Z</time>
        <extensions>
          <ns3:TrackPointExtension>
            <ns3:atemp>19.0</ns3:atemp>
          </ns3:TrackPointExtension>
        </extensions>
      </trkpt>
      <trkpt lat="43.1226741336286067962646484375" lon="13.01028306595981121063232421875">
        <ele>634.79998779296875</ele>
        <time>2021-06-06T07:37:57.000Z</time>
        <extensions>
          <ns3:TrackPointExtension>
            <ns3:atemp>19.0</ns3:atemp>
          </ns3:TrackPointExtension>
        </extensions>
      </trkpt>
      <trkpt lat="43.122568689286708831787109375" lon="13.01029999740421772003173828125">
        <ele>635.5999755859375</ele>
        <time>2021-06-06T07:38:01.000Z</time>
        <extensions>
          <ns3:TrackPointExtension>
            <ns3:atemp>19.0</ns3:atemp>
          </ns3:TrackPointExtension>
        </extensions>
      </trkpt>
      <trkpt lat="43.12254278920590877532958984375" lon="13.010306619107723236083984375">
        <ele>635.79998779296875</ele>
        <time>2021-06-06T07:38:02.000Z</time>
        <extensions>
          <ns3:TrackPointExtension>
            <ns3:atemp>19.0</ns3:atemp>
          </ns3:TrackPointExtension>
        </extensions>
      </trkpt>
      <trkpt lat="43.12242058105766773223876953125" lon="13.0103235505521297454833984375">
        <ele>636.79998779296875</ele>
        <time>2021-06-06T07:38:07.000Z</time>
        <extensions>
          <ns3:TrackPointExtension>
            <ns3:atemp>19.0</ns3:atemp>
          </ns3:TrackPointExtension>
        </extensions>
      </trkpt>
      <trkpt lat="43.12234648503363132476806640625" lon="13.010338135063648223876953125">
        <ele>637.5999755859375</ele>
        <time>2021-06-06T07:38:10.000Z</time>
        <extensions>
          <ns3:TrackPointExtension>
            <ns3:atemp>19.0</ns3:atemp>
          </ns3:TrackPointExtension>
        </extensions>
      </trkpt>
      <trkpt lat="43.1223209202289581298828125" lon="13.01034341566264629364013671875">
        <ele>638</ele>
        <time>2021-06-06T07:38:11.000Z</time>
        <extensions>
          <ns3:TrackPointExtension>
            <ns3:atemp>19.0</ns3:atemp>
          </ns3:TrackPointExtension>
        </extensions>
      </trkpt>
      <trkpt lat="43.12223031185567378997802734375" lon="13.01036185584962368011474609375">
        <ele>639.4000244140625</ele>
        <time>2021-06-06T07:38:15.000Z</time>
        <extensions>
          <ns3:TrackPointExtension>
            <ns3:atemp>19.0</ns3:atemp>
          </ns3:TrackPointExtension>
        </extensions>
      </trkpt>
      <trkpt lat="43.12221430242061614990234375" lon="13.01035364158451557159423828125">
        <ele>639.79998779296875</ele>
        <time>2021-06-06T07:38:16.000Z</time>
        <extensions>
          <ns3:TrackPointExtension>
            <ns3:atemp>19.0</ns3:atemp>
          </ns3:TrackPointExtension>
        </extensions>
      </trkpt>
      <trkpt lat="43.12219812534749507904052734375" lon="13.01033821888267993927001953125">
        <ele>640</ele>
        <time>2021-06-06T07:38:17.000Z</time>
        <extensions>
          <ns3:TrackPointExtension>
            <ns3:atemp>19.0</ns3:atemp>
          </ns3:TrackPointExtension>
        </extensions>
      </trkpt>
      <trkpt lat="43.12219192273914813995361328125" lon="13.0102769471704959869384765625">
        <ele>640.5999755859375</ele>
        <time>2021-06-06T07:38:19.000Z</time>
        <extensions>
          <ns3:TrackPointExtension>
            <ns3:atemp>19.0</ns3:atemp>
          </ns3:TrackPointExtension>
        </extensions>
      </trkpt>
      <trkpt lat="43.1221960298717021942138671875" lon="13.0102447606623172760009765625">
        <ele>640.79998779296875</ele>
        <time>2021-06-06T07:38:20.000Z</time>
        <extensions>
          <ns3:TrackPointExtension>
            <ns3:atemp>19.0</ns3:atemp>
          </ns3:TrackPointExtension>
        </extensions>
      </trkpt>
      <trkpt lat="43.1222282163798809051513671875" lon="13.0101512186229228973388671875">
        <ele>641.4000244140625</ele>
        <time>2021-06-06T07:38:23.000Z</time>
        <extensions>
          <ns3:TrackPointExtension>
            <ns3:atemp>19.0</ns3:atemp>
          </ns3:TrackPointExtension>
        </extensions>
      </trkpt>
      <trkpt lat="43.12224271707236766815185546875" lon="13.010120205581188201904296875">
        <ele>641.79998779296875</ele>
        <time>2021-06-06T07:38:24.000Z</time>
        <extensions>
          <ns3:TrackPointExtension>
            <ns3:atemp>19.0</ns3:atemp>
          </ns3:TrackPointExtension>
        </extensions>
      </trkpt>
      <trkpt lat="43.1222731433808803558349609375" lon="13.01006362773478031158447265625">
        <ele>642.4000244140625</ele>
        <time>2021-06-06T07:38:26.000Z</time>
        <extensions>
          <ns3:TrackPointExtension>
            <ns3:atemp>19.0</ns3:atemp>
          </ns3:TrackPointExtension>
        </extensions>
      </trkpt>
      <trkpt lat="43.12230281531810760498046875" lon="13.01000612787902355194091796875">
        <ele>642.79998779296875</ele>
        <time>2021-06-06T07:38:28.000Z</time>
        <extensions>
          <ns3:TrackPointExtension>
            <ns3:atemp>19.0</ns3:atemp>
          </ns3:TrackPointExtension>
        </extensions>
      </trkpt>
      <trkpt lat="43.122370541095733642578125" lon="13.0098710954189300537109375">
        <ele>644.20001220703125</ele>
        <time>2021-06-06T07:38:33.000Z</time>
        <extensions>
          <ns3:TrackPointExtension>
            <ns3:atemp>19.0</ns3:atemp>
          </ns3:TrackPointExtension>
        </extensions>
      </trkpt>
      <trkpt lat="43.12239493243396282196044921875" lon="13.0098142661154270172119140625">
        <ele>644.5999755859375</ele>
        <time>2021-06-06T07:38:35.000Z</time>
        <extensions>
          <ns3:TrackPointExtension>
            <ns3:atemp>19.0</ns3:atemp>
          </ns3:TrackPointExtension>
        </extensions>
      </trkpt>
      <trkpt lat="43.12241991050541400909423828125" lon="13.00971728749573230743408203125">
        <ele>645.4000244140625</ele>
        <time>2021-06-06T07:38:38.000Z</time>
        <extensions>
          <ns3:TrackPointExtension>
            <ns3:atemp>19.0</ns3:atemp>
          </ns3:TrackPointExtension>
        </extensions>
      </trkpt>
      <trkpt lat="43.1224174797534942626953125" lon="13.00964377820491790771484375">
        <ele>645.79998779296875</ele>
        <time>2021-06-06T07:38:40.000Z</time>
        <extensions>
          <ns3:TrackPointExtension>
            <ns3:atemp>19.0</ns3:atemp>
          </ns3:TrackPointExtension>
        </extensions>
      </trkpt>
      <trkpt lat="43.12238722108304500579833984375" lon="13.0095755495131015777587890625">
        <ele>646.4000244140625</ele>
        <time>2021-06-06T07:38:42.000Z</time>
        <extensions>
          <ns3:TrackPointExtension>
            <ns3:atemp>19.0</ns3:atemp>
          </ns3:TrackPointExtension>
        </extensions>
      </trkpt>
      <trkpt lat="43.12234447337687015533447265625" lon="13.00953623838722705841064453125">
        <ele>647.4000244140625</ele>
        <time>2021-06-06T07:38:44.000Z</time>
        <extensions>
          <ns3:TrackPointExtension>
            <ns3:atemp>19.0</ns3:atemp>
          </ns3:TrackPointExtension>
        </extensions>
      </trkpt>
      <trkpt lat="43.122321926057338714599609375" lon="13.0095235817134380340576171875">
        <ele>647.5999755859375</ele>
        <time>2021-06-06T07:38:45.000Z</time>
        <extensions>
          <ns3:TrackPointExtension>
            <ns3:atemp>19.0</ns3:atemp>
          </ns3:TrackPointExtension>
        </extensions>
      </trkpt>
      <trkpt lat="43.122226707637310028076171875" lon="13.00951310433447360992431640625">
        <ele>648.79998779296875</ele>
        <time>2021-06-06T07:38:49.000Z</time>
        <extensions>
          <ns3:TrackPointExtension>
            <ns3:atemp>19.0</ns3:atemp>
          </ns3:TrackPointExtension>
        </extensions>
      </trkpt>
      <trkpt lat="43.12220265157520771026611328125" lon="13.0095192231237888336181640625">
        <ele>649</ele>
        <time>2021-06-06T07:38:50.000Z</time>
        <extensions>
          <ns3:TrackPointExtension>
            <ns3:atemp>19.0</ns3:atemp>
          </ns3:TrackPointExtension>
        </extensions>
      </trkpt>
      <trkpt lat="43.12212050892412662506103515625" lon="13.0095504038035869598388671875">
        <ele>650.20001220703125</ele>
        <time>2021-06-06T07:38:53.000Z</time>
        <extensions>
          <ns3:TrackPointExtension>
            <ns3:atemp>19.0</ns3:atemp>
          </ns3:TrackPointExtension>
        </extensions>
      </trkpt>
      <trkpt lat="43.12207088805735111236572265625" lon="13.00958703272044658660888671875">
        <ele>650.79998779296875</ele>
        <time>2021-06-06T07:38:55.000Z</time>
        <extensions>
          <ns3:TrackPointExtension>
            <ns3:atemp>19.0</ns3:atemp>
          </ns3:TrackPointExtension>
        </extensions>
      </trkpt>
      <trkpt lat="43.12201506458222866058349609375" lon="13.0096151120960712432861328125">
        <ele>651.20001220703125</ele>
        <time>2021-06-06T07:38:57.000Z</time>
        <extensions>
          <ns3:TrackPointExtension>
            <ns3:atemp>19.0</ns3:atemp>
          </ns3:TrackPointExtension>
        </extensions>
      </trkpt>
      <trkpt lat="43.12188246287405490875244140625" lon="13.00969046540558338165283203125">
        <ele>652</ele>
        <time>2021-06-06T07:39:02.000Z</time>
        <extensions>
          <ns3:TrackPointExtension>
            <ns3:atemp>19.0</ns3:atemp>
          </ns3:TrackPointExtension>
        </extensions>
      </trkpt>
      <trkpt lat="43.12185513786971569061279296875" lon="13.0097016133368015289306640625">
        <ele>652.20001220703125</ele>
        <time>2021-06-06T07:39:03.000Z</time>
        <extensions>
          <ns3:TrackPointExtension>
            <ns3:atemp>19.0</ns3:atemp>
          </ns3:TrackPointExtension>
        </extensions>
      </trkpt>
      <trkpt lat="43.12179076485335826873779296875" lon="13.0097016133368015289306640625">
        <ele>653</ele>
        <time>2021-06-06T07:39:06.000Z</time>
        <extensions>
          <ns3:TrackPointExtension>
            <ns3:atemp>19.0</ns3:atemp>
          </ns3:TrackPointExtension>
        </extensions>
      </trkpt>
      <trkpt lat="43.121777437627315521240234375" lon="13.00968610681593418121337890625">
        <ele>653.20001220703125</ele>
        <time>2021-06-06T07:39:07.000Z</time>
        <extensions>
          <ns3:TrackPointExtension>
            <ns3:atemp>19.0</ns3:atemp>
          </ns3:TrackPointExtension>
        </extensions>
      </trkpt>
      <trkpt lat="43.12176343984901905059814453125" lon="13.0096623860299587249755859375">
        <ele>653.20001220703125</ele>
        <time>2021-06-06T07:39:08.000Z</time>
        <extensions>
          <ns3:TrackPointExtension>
            <ns3:atemp>19.0</ns3:atemp>
          </ns3:TrackPointExtension>
        </extensions>
      </trkpt>
      <trkpt lat="43.1217739172279834747314453125" lon="13.00954897888004779815673828125">
        <ele>654.20001220703125</ele>
        <time>2021-06-06T07:39:12.000Z</time>
        <extensions>
          <ns3:TrackPointExtension>
            <ns3:atemp>19.0</ns3:atemp>
          </ns3:TrackPointExtension>
        </extensions>
      </trkpt>
      <trkpt lat="43.121784813702106475830078125" lon="13.00951930694282054901123046875">
        <ele>654.4000244140625</ele>
        <time>2021-06-06T07:39:13.000Z</time>
        <extensions>
          <ns3:TrackPointExtension>
            <ns3:atemp>19.0</ns3:atemp>
          </ns3:TrackPointExtension>
        </extensions>
      </trkpt>
      <trkpt lat="43.1218124739825725555419921875" lon="13.0094652436673641204833984375">
        <ele>655.5999755859375</ele>
        <time>2021-06-06T07:39:15.000Z</time>
        <extensions>
          <ns3:TrackPointExtension>
            <ns3:atemp>19.0</ns3:atemp>
          </ns3:TrackPointExtension>
        </extensions>
      </trkpt>
      <trkpt lat="43.12182747758924961090087890625" lon="13.00943749956786632537841796875">
        <ele>656</ele>
        <time>2021-06-06T07:39:16.000Z</time>
        <extensions>
          <ns3:TrackPointExtension>
            <ns3:atemp>19.0</ns3:atemp>
          </ns3:TrackPointExtension>
        </extensions>
      </trkpt>
      <trkpt lat="43.12185027636587619781494140625" lon="13.00937798805534839630126953125">
        <ele>656.5999755859375</ele>
        <time>2021-06-06T07:39:18.000Z</time>
        <extensions>
          <ns3:TrackPointExtension>
            <ns3:atemp>19.0</ns3:atemp>
          </ns3:TrackPointExtension>
        </extensions>
      </trkpt>
      <trkpt lat="43.1218627654016017913818359375" lon="13.009348399937152862548828125">
        <ele>656.79998779296875</ele>
        <time>2021-06-06T07:39:19.000Z</time>
        <extensions>
          <ns3:TrackPointExtension>
            <ns3:atemp>19.0</ns3:atemp>
          </ns3:TrackPointExtension>
        </extensions>
      </trkpt>
      <trkpt lat="43.1219130568206310272216796875" lon="13.00921990536153316497802734375">
        <ele>657.79998779296875</ele>
        <time>2021-06-06T07:39:23.000Z</time>
        <extensions>
          <ns3:TrackPointExtension>
            <ns3:atemp>19.0</ns3:atemp>
          </ns3:TrackPointExtension>
        </extensions>
      </trkpt>
      <trkpt lat="43.1219358555972576141357421875" lon="13.0091584660112857818603515625">
        <ele>658.5999755859375</ele>
        <time>2021-06-06T07:39:25.000Z</time>
        <extensions>
          <ns3:TrackPointExtension>
            <ns3:atemp>19.0</ns3:atemp>
          </ns3:TrackPointExtension>
        </extensions>
      </trkpt>
      <trkpt lat="43.12195672653615474700927734375" lon="13.00909769721329212188720703125">
        <ele>659</ele>
        <time>2021-06-06T07:39:27.000Z</time>
        <extensions>
          <ns3:TrackPointExtension>
            <ns3:atemp>19.0</ns3:atemp>
          </ns3:TrackPointExtension>
        </extensions>
      </trkpt>
      <trkpt lat="43.12204238958656787872314453125" lon="13.00893223844468593597412109375">
        <ele>660</ele>
        <time>2021-06-06T07:39:33.000Z</time>
        <extensions>
          <ns3:TrackPointExtension>
            <ns3:atemp>19.0</ns3:atemp>
          </ns3:TrackPointExtension>
        </extensions>
      </trkpt>
      <trkpt lat="43.1221304833889007568359375" lon="13.00876795314252376556396484375">
        <ele>661.20001220703125</ele>
        <time>2021-06-06T07:39:39.000Z</time>
        <extensions>
          <ns3:TrackPointExtension>
            <ns3:atemp>19.0</ns3:atemp>
          </ns3:TrackPointExtension>
        </extensions>
      </trkpt>
      <trkpt lat="43.1221420504152774810791015625" lon="13.00874431617558002471923828125">
        <ele>661.5999755859375</ele>
        <time>2021-06-06T07:39:40.000Z</time>
        <extensions>
          <ns3:TrackPointExtension>
            <ns3:atemp>19.0</ns3:atemp>
          </ns3:TrackPointExtension>
        </extensions>
      </trkpt>
      <trkpt lat="43.12218748033046722412109375" lon="13.0086639337241649627685546875">
        <ele>662.79998779296875</ele>
        <time>2021-06-06T07:39:43.000Z</time>
        <extensions>
          <ns3:TrackPointExtension>
            <ns3:atemp>19.0</ns3:atemp>
          </ns3:TrackPointExtension>
        </extensions>
      </trkpt>
      <trkpt lat="43.122252859175205230712890625" lon="13.00856393761932849884033203125">
        <ele>663.79998779296875</ele>
        <time>2021-06-06T07:39:47.000Z</time>
        <extensions>
          <ns3:TrackPointExtension>
            <ns3:atemp>19.0</ns3:atemp>
          </ns3:TrackPointExtension>
        </extensions>
      </trkpt>
      <trkpt lat="43.122310526669025421142578125" lon="13.008475005626678466796875">
        <ele>665</ele>
        <time>2021-06-06T07:39:51.000Z</time>
        <extensions>
          <ns3:TrackPointExtension>
            <ns3:atemp>19.0</ns3:atemp>
          </ns3:TrackPointExtension>
        </extensions>
      </trkpt>
      <trkpt lat="43.12238219194114208221435546875" lon="13.008397556841373443603515625">
        <ele>666.20001220703125</ele>
        <time>2021-06-06T07:39:55.000Z</time>
        <extensions>
          <ns3:TrackPointExtension>
            <ns3:atemp>19.0</ns3:atemp>
          </ns3:TrackPointExtension>
        </extensions>
      </trkpt>
      <trkpt lat="43.12245109118521213531494140625" lon="13.00833561457693576812744140625">
        <ele>667.4000244140625</ele>
        <time>2021-06-06T07:39:59.000Z</time>
        <extensions>
          <ns3:TrackPointExtension>
            <ns3:atemp>19.0</ns3:atemp>
          </ns3:TrackPointExtension>
        </extensions>
      </trkpt>
      <trkpt lat="43.12252485193312168121337890625" lon="13.00830862484872341156005859375">
        <ele>668.20001220703125</ele>
        <time>2021-06-06T07:40:03.000Z</time>
        <extensions>
          <ns3:TrackPointExtension>
            <ns3:atemp>19.0</ns3:atemp>
          </ns3:TrackPointExtension>
        </extensions>
      </trkpt>
      <trkpt lat="43.12254865653812885284423828125" lon="13.00830611027777194976806640625">
        <ele>668.4000244140625</ele>
        <time>2021-06-06T07:40:04.000Z</time>
        <extensions>
          <ns3:TrackPointExtension>
            <ns3:atemp>19.0</ns3:atemp>
          </ns3:TrackPointExtension>
        </extensions>
      </trkpt>
      <trkpt lat="43.12263297848403453826904296875" lon="13.00830359570682048797607421875">
        <ele>669.5999755859375</ele>
        <time>2021-06-06T07:40:08.000Z</time>
        <extensions>
          <ns3:TrackPointExtension>
            <ns3:atemp>19.0</ns3:atemp>
          </ns3:TrackPointExtension>
        </extensions>
      </trkpt>
      <trkpt lat="43.12264907173812389373779296875" lon="13.008300997316837310791015625">
        <ele>670</ele>
        <time>2021-06-06T07:40:09.000Z</time>
        <extensions>
          <ns3:TrackPointExtension>
            <ns3:atemp>19.0</ns3:atemp>
          </ns3:TrackPointExtension>
        </extensions>
      </trkpt>
      <trkpt lat="43.122704811394214630126953125" lon="13.0082971416413784027099609375">
        <ele>670.79998779296875</ele>
        <time>2021-06-06T07:40:12.000Z</time>
        <extensions>
          <ns3:TrackPointExtension>
            <ns3:atemp>19.0</ns3:atemp>
          </ns3:TrackPointExtension>
        </extensions>
      </trkpt>
      <trkpt lat="43.1227742135524749755859375" lon="13.00829370506107807159423828125">
        <ele>672</ele>
        <time>2021-06-06T07:40:15.000Z</time>
        <extensions>
          <ns3:TrackPointExtension>
            <ns3:atemp>19.0</ns3:atemp>
          </ns3:TrackPointExtension>
        </extensions>
      </trkpt>
      <trkpt lat="43.122840933501720428466796875" lon="13.00830669701099395751953125">
        <ele>672.79998779296875</ele>
        <time>2021-06-06T07:40:17.000Z</time>
        <extensions>
          <ns3:TrackPointExtension>
            <ns3:atemp>19.0</ns3:atemp>
          </ns3:TrackPointExtension>
        </extensions>
      </trkpt>
      <trkpt lat="43.12289985828101634979248046875" lon="13.008309714496135711669921875">
        <ele>673.4000244140625</ele>
        <time>2021-06-06T07:40:19.000Z</time>
        <extensions>
          <ns3:TrackPointExtension>
            <ns3:atemp>19.0</ns3:atemp>
          </ns3:TrackPointExtension>
        </extensions>
      </trkpt>
      <trkpt lat="43.123013265430927276611328125" lon="13.00830761902034282684326171875">
        <ele>674.4000244140625</ele>
        <time>2021-06-06T07:40:23.000Z</time>
        <extensions>
          <ns3:TrackPointExtension>
            <ns3:atemp>19.0</ns3:atemp>
          </ns3:TrackPointExtension>
        </extensions>
      </trkpt>
      <trkpt lat="43.12312424182891845703125" lon="13.0083105526864528656005859375">
        <ele>675.4000244140625</ele>
        <time>2021-06-06T07:40:27.000Z</time>
        <extensions>
          <ns3:TrackPointExtension>
            <ns3:atemp>19.0</ns3:atemp>
          </ns3:TrackPointExtension>
        </extensions>
      </trkpt>
      <trkpt lat="43.12321610748767852783203125" lon="13.00829873420298099517822265625">
        <ele>676.4000244140625</ele>
        <time>2021-06-06T07:40:31.000Z</time>
        <extensions>
          <ns3:TrackPointExtension>
            <ns3:atemp>19.0</ns3:atemp>
          </ns3:TrackPointExtension>
        </extensions>
      </trkpt>
      <trkpt lat="43.12323982827365398406982421875" lon="13.00830024294555187225341796875">
        <ele>676.79998779296875</ele>
        <time>2021-06-06T07:40:32.000Z</time>
        <extensions>
          <ns3:TrackPointExtension>
            <ns3:atemp>19.0</ns3:atemp>
          </ns3:TrackPointExtension>
        </extensions>
      </trkpt>
      <trkpt lat="43.1233091466128826141357421875" lon="13.00829001702368259429931640625">
        <ele>677.4000244140625</ele>
        <time>2021-06-06T07:40:35.000Z</time>
        <extensions>
          <ns3:TrackPointExtension>
            <ns3:atemp>19.0</ns3:atemp>
          </ns3:TrackPointExtension>
        </extensions>
      </trkpt>
      <trkpt lat="43.12340713106095790863037109375" lon="13.0082617700099945068359375">
        <ele>678.5999755859375</ele>
        <time>2021-06-06T07:40:39.000Z</time>
        <extensions>
          <ns3:TrackPointExtension>
            <ns3:atemp>19.0</ns3:atemp>
          </ns3:TrackPointExtension>
        </extensions>
      </trkpt>
      <trkpt lat="43.1234787963330745697021484375" lon="13.00824073143303394317626953125">
        <ele>679.79998779296875</ele>
        <time>2021-06-06T07:40:42.000Z</time>
        <extensions>
          <ns3:TrackPointExtension>
            <ns3:atemp>19.0</ns3:atemp>
          </ns3:TrackPointExtension>
        </extensions>
      </trkpt>
      <trkpt lat="43.1235683150589466094970703125" lon="13.00821742974221706390380859375">
        <ele>681</ele>
        <time>2021-06-06T07:40:46.000Z</time>
        <extensions>
          <ns3:TrackPointExtension>
            <ns3:atemp>19.0</ns3:atemp>
          </ns3:TrackPointExtension>
        </extensions>
      </trkpt>
      <trkpt lat="43.1236685626208782196044921875" lon="13.00819831900298595428466796875">
        <ele>682</ele>
        <time>2021-06-06T07:40:50.000Z</time>
        <extensions>
          <ns3:TrackPointExtension>
            <ns3:atemp>19.0</ns3:atemp>
          </ns3:TrackPointExtension>
        </extensions>
      </trkpt>
      <trkpt lat="43.1237451732158660888671875" lon="13.00818205811083316802978515625">
        <ele>683</ele>
        <time>2021-06-06T07:40:53.000Z</time>
        <extensions>
          <ns3:TrackPointExtension>
            <ns3:atemp>19.0</ns3:atemp>
          </ns3:TrackPointExtension>
        </extensions>
      </trkpt>
      <trkpt lat="43.1237681396305561065673828125" lon="13.00817552022635936737060546875">
        <ele>683.4000244140625</ele>
        <time>2021-06-06T07:40:54.000Z</time>
        <extensions>
          <ns3:TrackPointExtension>
            <ns3:atemp>19.0</ns3:atemp>
          </ns3:TrackPointExtension>
        </extensions>
      </trkpt>
      <trkpt lat="43.12386293895542621612548828125" lon="13.00813897512853145599365234375">
        <ele>684.5999755859375</ele>
        <time>2021-06-06T07:40:58.000Z</time>
        <extensions>
          <ns3:TrackPointExtension>
            <ns3:atemp>19.0</ns3:atemp>
          </ns3:TrackPointExtension>
        </extensions>
      </trkpt>
      <trkpt lat="43.1239099614322185516357421875" lon="13.0081113986670970916748046875">
        <ele>685.20001220703125</ele>
        <time>2021-06-06T07:41:00.000Z</time>
        <extensions>
          <ns3:TrackPointExtension>
            <ns3:atemp>19.0</ns3:atemp>
          </ns3:TrackPointExtension>
        </extensions>
      </trkpt>
      <trkpt lat="43.12395798973739147186279296875" lon="13.008080385625362396240234375">
        <ele>685.79998779296875</ele>
        <time>2021-06-06T07:41:02.000Z</time>
        <extensions>
          <ns3:TrackPointExtension>
            <ns3:atemp>19.0</ns3:atemp>
          </ns3:TrackPointExtension>
        </extensions>
      </trkpt>
      <trkpt lat="43.1240340135991573333740234375" lon="13.00798759795725345611572265625">
        <ele>687</ele>
        <time>2021-06-06T07:41:06.000Z</time>
        <extensions>
          <ns3:TrackPointExtension>
            <ns3:atemp>19.0</ns3:atemp>
          </ns3:TrackPointExtension>
        </extensions>
      </trkpt>
      <trkpt lat="43.12409176491200923919677734375" lon="13.00788064487278461456298828125">
        <ele>688.20001220703125</ele>
        <time>2021-06-06T07:41:10.000Z</time>
        <extensions>
          <ns3:TrackPointExtension>
            <ns3:atemp>19.0</ns3:atemp>
          </ns3:TrackPointExtension>
        </extensions>
      </trkpt>
      <trkpt lat="43.12412202358245849609375" lon="13.0077938921749591827392578125">
        <ele>689.4000244140625</ele>
        <time>2021-06-06T07:41:13.000Z</time>
        <extensions>
          <ns3:TrackPointExtension>
            <ns3:atemp>19.0</ns3:atemp>
          </ns3:TrackPointExtension>
        </extensions>
      </trkpt>
      <trkpt lat="43.12415798194706439971923828125" lon="13.007659949362277984619140625">
        <ele>690.4000244140625</ele>
        <time>2021-06-06T07:41:17.000Z</time>
        <extensions>
          <ns3:TrackPointExtension>
            <ns3:atemp>19.0</ns3:atemp>
          </ns3:TrackPointExtension>
        </extensions>
      </trkpt>
      <trkpt lat="43.12416904605925083160400390625" lon="13.0075980909168720245361328125">
        <ele>690.79998779296875</ele>
        <time>2021-06-06T07:41:19.000Z</time>
        <extensions>
          <ns3:TrackPointExtension>
            <ns3:atemp>19.0</ns3:atemp>
          </ns3:TrackPointExtension>
        </extensions>
      </trkpt>
      <trkpt lat="43.124176673591136932373046875" lon="13.0074651539325714111328125">
        <ele>691.4000244140625</ele>
        <time>2021-06-06T07:41:23.000Z</time>
        <extensions>
          <ns3:TrackPointExtension>
            <ns3:atemp>19.0</ns3:atemp>
          </ns3:TrackPointExtension>
        </extensions>
      </trkpt>
      <trkpt lat="43.12418865971267223358154296875" lon="13.0073176324367523193359375">
        <ele>692.5999755859375</ele>
        <time>2021-06-06T07:41:27.000Z</time>
        <extensions>
          <ns3:TrackPointExtension>
            <ns3:atemp>19.0</ns3:atemp>
          </ns3:TrackPointExtension>
        </extensions>
      </trkpt>
      <trkpt lat="43.12418245710432529449462890625" lon="13.00707095302641391754150390625">
        <ele>693.5999755859375</ele>
        <time>2021-06-06T07:41:34.000Z</time>
        <extensions>
          <ns3:TrackPointExtension>
            <ns3:atemp>19.0</ns3:atemp>
          </ns3:TrackPointExtension>
        </extensions>
      </trkpt>
      <trkpt lat="43.12416963279247283935546875" lon="13.0070049874484539031982421875">
        <ele>694.20001220703125</ele>
        <time>2021-06-06T07:41:36.000Z</time>
        <extensions>
          <ns3:TrackPointExtension>
            <ns3:atemp>19.0</ns3:atemp>
          </ns3:TrackPointExtension>
        </extensions>
      </trkpt>
      <trkpt lat="43.12414146959781646728515625" lon="13.00695545040071010589599609375">
        <ele>694.79998779296875</ele>
        <time>2021-06-06T07:41:38.000Z</time>
        <extensions>
          <ns3:TrackPointExtension>
            <ns3:atemp>19.0</ns3:atemp>
          </ns3:TrackPointExtension>
        </extensions>
      </trkpt>
      <trkpt lat="43.1241007335484027862548828125" lon="13.00693365745246410369873046875">
        <ele>695.4000244140625</ele>
        <time>2021-06-06T07:41:40.000Z</time>
        <extensions>
          <ns3:TrackPointExtension>
            <ns3:atemp>19.0</ns3:atemp>
          </ns3:TrackPointExtension>
        </extensions>
      </trkpt>
      <trkpt lat="43.1240551359951496124267578125" lon="13.00693851895630359649658203125">
        <ele>696</ele>
        <time>2021-06-06T07:41:42.000Z</time>
        <extensions>
          <ns3:TrackPointExtension>
            <ns3:atemp>19.0</ns3:atemp>
          </ns3:TrackPointExtension>
        </extensions>
      </trkpt>
      <trkpt lat="43.124017082154750823974609375" lon="13.00696886144578456878662109375">
        <ele>696.5999755859375</ele>
        <time>2021-06-06T07:41:44.000Z</time>
        <extensions>
          <ns3:TrackPointExtension>
            <ns3:atemp>19.0</ns3:atemp>
          </ns3:TrackPointExtension>
        </extensions>
      </trkpt>
      <trkpt lat="43.12400006689131259918212890625" lon="13.00698797218501567840576171875">
        <ele>697</ele>
        <time>2021-06-06T07:41:45.000Z</time>
        <extensions>
          <ns3:TrackPointExtension>
            <ns3:atemp>19.0</ns3:atemp>
          </ns3:TrackPointExtension>
        </extensions>
      </trkpt>
      <trkpt lat="43.123961426317691802978515625" lon="13.00713649950921535491943359375">
        <ele>698.20001220703125</ele>
        <time>2021-06-06T07:41:50.000Z</time>
        <extensions>
          <ns3:TrackPointExtension>
            <ns3:atemp>19.0</ns3:atemp>
          </ns3:TrackPointExtension>
        </extensions>
      </trkpt>
      <trkpt lat="43.12392714433372020721435546875" lon="13.0073949135839939117431640625">
        <ele>699.4000244140625</ele>
        <time>2021-06-06T07:41:58.000Z</time>
        <extensions>
          <ns3:TrackPointExtension>
            <ns3:atemp>19.0</ns3:atemp>
          </ns3:TrackPointExtension>
        </extensions>
      </trkpt>
      <trkpt lat="43.1239163316786289215087890625" lon="13.00742332823574542999267578125">
        <ele>699.5999755859375</ele>
        <time>2021-06-06T07:41:59.000Z</time>
        <extensions>
          <ns3:TrackPointExtension>
            <ns3:atemp>19.0</ns3:atemp>
          </ns3:TrackPointExtension>
        </extensions>
      </trkpt>
      <trkpt lat="43.1238445825874805450439453125" lon="13.007482923567295074462890625">
        <ele>700</ele>
        <time>2021-06-06T07:42:03.000Z</time>
        <extensions>
          <ns3:TrackPointExtension>
            <ns3:atemp>19.0</ns3:atemp>
          </ns3:TrackPointExtension>
        </extensions>
      </trkpt>
      <trkpt lat="43.12382454983890056610107421875" lon="13.00747311674058437347412109375">
        <ele>700.20001220703125</ele>
        <time>2021-06-06T07:42:04.000Z</time>
        <extensions>
          <ns3:TrackPointExtension>
            <ns3:atemp>19.0</ns3:atemp>
          </ns3:TrackPointExtension>
        </extensions>
      </trkpt>
      <trkpt lat="43.12379546463489532470703125" lon="13.00742693245410919189453125">
        <ele>700.4000244140625</ele>
        <time>2021-06-06T07:42:06.000Z</time>
        <extensions>
          <ns3:TrackPointExtension>
            <ns3:atemp>19.0</ns3:atemp>
          </ns3:TrackPointExtension>
        </extensions>
      </trkpt>
      <trkpt lat="43.123779706656932830810546875" lon="13.00736398436129093170166015625">
        <ele>701</ele>
        <time>2021-06-06T07:42:08.000Z</time>
        <extensions>
          <ns3:TrackPointExtension>
            <ns3:atemp>19.0</ns3:atemp>
          </ns3:TrackPointExtension>
        </extensions>
      </trkpt>
      <trkpt lat="43.12377610243856906890869140625" lon="13.007330037653446197509765625">
        <ele>701.4000244140625</ele>
        <time>2021-06-06T07:42:09.000Z</time>
        <extensions>
          <ns3:TrackPointExtension>
            <ns3:atemp>19.0</ns3:atemp>
          </ns3:TrackPointExtension>
        </extensions>
      </trkpt>
      <trkpt lat="43.1237805448472499847412109375" lon="13.0071977712213993072509765625">
        <ele>702.5999755859375</ele>
        <time>2021-06-06T07:42:13.000Z</time>
        <extensions>
          <ns3:TrackPointExtension>
            <ns3:atemp>19.0</ns3:atemp>
          </ns3:TrackPointExtension>
        </extensions>
      </trkpt>
      <trkpt lat="43.12378616072237491607666015625" lon="13.007135577499866485595703125">
        <ele>703</ele>
        <time>2021-06-06T07:42:15.000Z</time>
        <extensions>
          <ns3:TrackPointExtension>
            <ns3:atemp>19.0</ns3:atemp>
          </ns3:TrackPointExtension>
        </extensions>
      </trkpt>
      <trkpt lat="43.12379823066294193267822265625" lon="13.00698009319603443145751953125">
        <ele>703.79998779296875</ele>
        <time>2021-06-06T07:42:20.000Z</time>
        <extensions>
          <ns3:TrackPointExtension>
            <ns3:atemp>19.0</ns3:atemp>
          </ns3:TrackPointExtension>
        </extensions>
      </trkpt>
      <trkpt lat="43.12380610965192317962646484375" lon="13.00689342431724071502685546875">
        <ele>704.4000244140625</ele>
        <time>2021-06-06T07:42:23.000Z</time>
        <extensions>
          <ns3:TrackPointExtension>
            <ns3:atemp>19.0</ns3:atemp>
          </ns3:TrackPointExtension>
        </extensions>
      </trkpt>
      <trkpt lat="43.12381558120250701904296875" lon="13.0068333260715007781982421875">
        <ele>705</ele>
        <time>2021-06-06T07:42:25.000Z</time>
        <extensions>
          <ns3:TrackPointExtension>
            <ns3:atemp>19.0</ns3:atemp>
          </ns3:TrackPointExtension>
        </extensions>
      </trkpt>
      <trkpt lat="43.12382899224758148193359375" lon="13.00667457282543182373046875">
        <ele>706</ele>
        <time>2021-06-06T07:42:30.000Z</time>
        <extensions>
          <ns3:TrackPointExtension>
            <ns3:atemp>19.0</ns3:atemp>
          </ns3:TrackPointExtension>
        </extensions>
      </trkpt>
      <trkpt lat="43.1238345243036746978759765625" lon="13.006644062697887420654296875">
        <ele>706.20001220703125</ele>
        <time>2021-06-06T07:42:31.000Z</time>
        <extensions>
          <ns3:TrackPointExtension>
            <ns3:atemp>19.0</ns3:atemp>
          </ns3:TrackPointExtension>
        </extensions>
      </trkpt>
      <trkpt lat="43.12387869693338871002197265625" lon="13.0064990557730197906494140625">
        <ele>707</ele>
        <time>2021-06-06T07:42:36.000Z</time>
        <extensions>
          <ns3:TrackPointExtension>
            <ns3:atemp>19.0</ns3:atemp>
          </ns3:TrackPointExtension>
        </extensions>
      </trkpt>
      <trkpt lat="43.12390744686126708984375" lon="13.0064494349062442779541015625">
        <ele>707.5999755859375</ele>
        <time>2021-06-06T07:42:38.000Z</time>
        <extensions>
          <ns3:TrackPointExtension>
            <ns3:atemp>19.0</ns3:atemp>
          </ns3:TrackPointExtension>
        </extensions>
      </trkpt>
      <trkpt lat="43.12394608743488788604736328125" lon="13.00641096197068691253662109375">
        <ele>708.20001220703125</ele>
        <time>2021-06-06T07:42:40.000Z</time>
        <extensions>
          <ns3:TrackPointExtension>
            <ns3:atemp>19.0</ns3:atemp>
          </ns3:TrackPointExtension>
        </extensions>
      </trkpt>
      <trkpt lat="43.12403242103755474090576171875" lon="13.0063686333596706390380859375">
        <ele>709</ele>
        <time>2021-06-06T07:42:44.000Z</time>
        <extensions>
          <ns3:TrackPointExtension>
            <ns3:atemp>19.0</ns3:atemp>
          </ns3:TrackPointExtension>
        </extensions>
      </trkpt>
      <trkpt lat="43.12405689619481563568115234375" lon="13.00636854954063892364501953125">
        <ele>709.20001220703125</ele>
        <time>2021-06-06T07:42:45.000Z</time>
        <extensions>
          <ns3:TrackPointExtension>
            <ns3:atemp>19.0</ns3:atemp>
          </ns3:TrackPointExtension>
        </extensions>
      </trkpt>
      <trkpt lat="43.12418513931334018707275390625" lon="13.00637626089155673980712890625">
        <ele>710.4000244140625</ele>
        <time>2021-06-06T07:42:50.000Z</time>
        <extensions>
          <ns3:TrackPointExtension>
            <ns3:atemp>19.0</ns3:atemp>
          </ns3:TrackPointExtension>
        </extensions>
      </trkpt>
      <trkpt lat="43.1242536194622516632080078125" lon="13.0063897557556629180908203125">
        <ele>710.79998779296875</ele>
        <time>2021-06-06T07:42:53.000Z</time>
        <extensions>
          <ns3:TrackPointExtension>
            <ns3:atemp>19.0</ns3:atemp>
          </ns3:TrackPointExtension>
        </extensions>
      </trkpt>
      <trkpt lat="43.12432142905890941619873046875" lon="13.00640174187719821929931640625">
        <ele>711.4000244140625</ele>
        <time>2021-06-06T07:42:56.000Z</time>
        <extensions>
          <ns3:TrackPointExtension>
            <ns3:atemp>19.0</ns3:atemp>
          </ns3:TrackPointExtension>
        </extensions>
      </trkpt>
      <trkpt lat="43.12448051758110523223876953125" lon="13.0064088664948940277099609375">
        <ele>712.5999755859375</ele>
        <time>2021-06-06T07:43:03.000Z</time>
        <extensions>
          <ns3:TrackPointExtension>
            <ns3:atemp>19.0</ns3:atemp>
          </ns3:TrackPointExtension>
        </extensions>
      </trkpt>
      <trkpt lat="43.12459216453135013580322265625" lon="13.00638816319406032562255859375">
        <ele>713.79998779296875</ele>
        <time>2021-06-06T07:43:08.000Z</time>
        <extensions>
          <ns3:TrackPointExtension>
            <ns3:atemp>18.0</ns3:atemp>
          </ns3:TrackPointExtension>
        </extensions>
      </trkpt>
      <trkpt lat="43.12463633716106414794921875" lon="13.006379865109920501708984375">
        <ele>714.20001220703125</ele>
        <time>2021-06-06T07:43:10.000Z</time>
        <extensions>
          <ns3:TrackPointExtension>
            <ns3:atemp>18.0</ns3:atemp>
          </ns3:TrackPointExtension>
        </extensions>
      </trkpt>
      <trkpt lat="43.1247214972972869873046875" lon="13.00635597668588161468505859375">
        <ele>715</ele>
        <time>2021-06-06T07:43:14.000Z</time>
        <extensions>
          <ns3:TrackPointExtension>
            <ns3:atemp>18.0</ns3:atemp>
          </ns3:TrackPointExtension>
        </extensions>
      </trkpt>
      <trkpt lat="43.124805651605129241943359375" lon="13.00632898695766925811767578125">
        <ele>715.4000244140625</ele>
        <time>2021-06-06T07:43:18.000Z</time>
        <extensions>
          <ns3:TrackPointExtension>
            <ns3:atemp>18.0</ns3:atemp>
          </ns3:TrackPointExtension>
        </extensions>
      </trkpt>
      <trkpt lat="43.12485384754836559295654296875" lon="13.0063096247613430023193359375">
        <ele>716.20001220703125</ele>
        <time>2021-06-06T07:43:20.000Z</time>
        <extensions>
          <ns3:TrackPointExtension>
            <ns3:atemp>18.0</ns3:atemp>
          </ns3:TrackPointExtension>
        </extensions>
      </trkpt>
      <trkpt lat="43.12494738958775997161865234375" lon="13.00627567805349826812744140625">
        <ele>717.20001220703125</ele>
        <time>2021-06-06T07:43:24.000Z</time>
        <extensions>
          <ns3:TrackPointExtension>
            <ns3:atemp>18.0</ns3:atemp>
          </ns3:TrackPointExtension>
        </extensions>
      </trkpt>
      <trkpt lat="43.1249694339931011199951171875" lon="13.00626763142645359039306640625">
        <ele>717.4000244140625</ele>
        <time>2021-06-06T07:43:25.000Z</time>
        <extensions>
          <ns3:TrackPointExtension>
            <ns3:atemp>18.0</ns3:atemp>
          </ns3:TrackPointExtension>
        </extensions>
      </trkpt>
      <trkpt lat="43.1250607967376708984375" lon="13.006219603121280670166015625">
        <ele>718.4000244140625</ele>
        <time>2021-06-06T07:43:29.000Z</time>
        <extensions>
          <ns3:TrackPointExtension>
            <ns3:atemp>18.0</ns3:atemp>
          </ns3:TrackPointExtension>
        </extensions>
      </trkpt>
      <trkpt lat="43.12510513700544834136962890625" lon="13.00618909299373626708984375">
        <ele>718.5999755859375</ele>
        <time>2021-06-06T07:43:31.000Z</time>
        <extensions>
          <ns3:TrackPointExtension>
            <ns3:atemp>18.0</ns3:atemp>
          </ns3:TrackPointExtension>
        </extensions>
      </trkpt>
      <trkpt lat="43.1251908838748931884765625" lon="13.00611323677003383636474609375">
        <ele>719.4000244140625</ele>
        <time>2021-06-06T07:43:35.000Z</time>
        <extensions>
          <ns3:TrackPointExtension>
            <ns3:atemp>18.0</ns3:atemp>
          </ns3:TrackPointExtension>
        </extensions>
      </trkpt>
      <trkpt lat="43.1252980045974254608154296875" lon="13.00601399503648281097412109375">
        <ele>720.20001220703125</ele>
        <time>2021-06-06T07:43:40.000Z</time>
        <extensions>
          <ns3:TrackPointExtension>
            <ns3:atemp>18.0</ns3:atemp>
          </ns3:TrackPointExtension>
        </extensions>
      </trkpt>
      <trkpt lat="43.12534175813198089599609375" lon="13.0059740133583545684814453125">
        <ele>720.4000244140625</ele>
        <time>2021-06-06T07:43:42.000Z</time>
        <extensions>
          <ns3:TrackPointExtension>
            <ns3:atemp>18.0</ns3:atemp>
          </ns3:TrackPointExtension>
        </extensions>
      </trkpt>
      <trkpt lat="43.1254871003329753875732421875" lon="13.00585004501044750213623046875">
        <ele>721.4000244140625</ele>
        <time>2021-06-06T07:43:49.000Z</time>
        <extensions>
          <ns3:TrackPointExtension>
            <ns3:atemp>18.0</ns3:atemp>
          </ns3:TrackPointExtension>
        </extensions>
      </trkpt>
      <trkpt lat="43.12560729682445526123046875" lon="13.00571970641613006591796875">
        <ele>722.4000244140625</ele>
        <time>2021-06-06T07:43:55.000Z</time>
        <extensions>
          <ns3:TrackPointExtension>
            <ns3:atemp>18.0</ns3:atemp>
          </ns3:TrackPointExtension>
        </extensions>
      </trkpt>
      <trkpt lat="43.12562766484916210174560546875" lon="13.00569229759275913238525390625">
        <ele>722.5999755859375</ele>
        <time>2021-06-06T07:43:56.000Z</time>
        <extensions>
          <ns3:TrackPointExtension>
            <ns3:atemp>18.0</ns3:atemp>
          </ns3:TrackPointExtension>
        </extensions>
      </trkpt>
      <trkpt lat="43.12571885995566844940185546875" lon="13.00555466674268245697021484375">
        <ele>723.4000244140625</ele>
        <time>2021-06-06T07:44:01.000Z</time>
        <extensions>
          <ns3:TrackPointExtension>
            <ns3:atemp>18.0</ns3:atemp>
          </ns3:TrackPointExtension>
        </extensions>
      </trkpt>
      <trkpt lat="43.125736713409423828125" lon="13.0055284313857555389404296875">
        <ele>723.5999755859375</ele>
        <time>2021-06-06T07:44:02.000Z</time>
        <extensions>
          <ns3:TrackPointExtension>
            <ns3:atemp>18.0</ns3:atemp>
          </ns3:TrackPointExtension>
        </extensions>
      </trkpt>
      <trkpt lat="43.1258185207843780517578125" lon="13.0053918063640594482421875">
        <ele>724.5999755859375</ele>
        <time>2021-06-06T07:44:07.000Z</time>
        <extensions>
          <ns3:TrackPointExtension>
            <ns3:atemp>18.0</ns3:atemp>
          </ns3:TrackPointExtension>
        </extensions>
      </trkpt>
      <trkpt lat="43.1259231269359588623046875" lon="13.00519877113401889801025390625">
        <ele>725.79998779296875</ele>
        <time>2021-06-06T07:44:14.000Z</time>
        <extensions>
          <ns3:TrackPointExtension>
            <ns3:atemp>18.0</ns3:atemp>
          </ns3:TrackPointExtension>
        </extensions>
      </trkpt>
      <trkpt lat="43.12593762762844562530517578125" lon="13.005168847739696502685546875">
        <ele>726</ele>
        <time>2021-06-06T07:44:15.000Z</time>
        <extensions>
          <ns3:TrackPointExtension>
            <ns3:atemp>18.0</ns3:atemp>
          </ns3:TrackPointExtension>
        </extensions>
      </trkpt>
      <trkpt lat="43.126007951796054840087890625" lon="13.0050082504749298095703125">
        <ele>726.79998779296875</ele>
        <time>2021-06-06T07:44:20.000Z</time>
        <extensions>
          <ns3:TrackPointExtension>
            <ns3:atemp>18.0</ns3:atemp>
          </ns3:TrackPointExtension>
        </extensions>
      </trkpt>
      <trkpt lat="43.1260413117706775665283203125" lon="13.00489886663854122161865234375">
        <ele>727.5999755859375</ele>
        <time>2021-06-06T07:44:23.000Z</time>
        <extensions>
          <ns3:TrackPointExtension>
            <ns3:atemp>18.0</ns3:atemp>
          </ns3:TrackPointExtension>
        </extensions>
      </trkpt>
      <trkpt lat="43.1260751746594905853271484375" lon="13.004797361791133880615234375">
        <ele>728</ele>
        <time>2021-06-06T07:44:26.000Z</time>
        <extensions>
          <ns3:TrackPointExtension>
            <ns3:atemp>18.0</ns3:atemp>
          </ns3:TrackPointExtension>
        </extensions>
      </trkpt>
      <trkpt lat="43.12611557543277740478515625" lon="13.0047090165317058563232421875">
        <ele>728.5999755859375</ele>
        <time>2021-06-06T07:44:29.000Z</time>
        <extensions>
          <ns3:TrackPointExtension>
            <ns3:atemp>18.0</ns3:atemp>
          </ns3:TrackPointExtension>
        </extensions>
      </trkpt>
      <trkpt lat="43.12614399008452892303466796875" lon="13.0046503432095050811767578125">
        <ele>729</ele>
        <time>2021-06-06T07:44:31.000Z</time>
        <extensions>
          <ns3:TrackPointExtension>
            <ns3:atemp>18.0</ns3:atemp>
          </ns3:TrackPointExtension>
        </extensions>
      </trkpt>
      <trkpt lat="43.12621355988085269927978515625" lon="13.004545904695987701416015625">
        <ele>730.20001220703125</ele>
        <time>2021-06-06T07:44:35.000Z</time>
        <extensions>
          <ns3:TrackPointExtension>
            <ns3:atemp>18.0</ns3:atemp>
          </ns3:TrackPointExtension>
        </extensions>
      </trkpt>
      <trkpt lat="43.1263031624257564544677734375" lon="13.004462085664272308349609375">
        <ele>731.4000244140625</ele>
        <time>2021-06-06T07:44:39.000Z</time>
        <extensions>
          <ns3:TrackPointExtension>
            <ns3:atemp>18.0</ns3:atemp>
          </ns3:TrackPointExtension>
        </extensions>
      </trkpt>
      <trkpt lat="43.126326464116573333740234375" lon="13.0044458247721195220947265625">
        <ele>731.79998779296875</ele>
        <time>2021-06-06T07:44:40.000Z</time>
        <extensions>
          <ns3:TrackPointExtension>
            <ns3:atemp>18.0</ns3:atemp>
          </ns3:TrackPointExtension>
        </extensions>
      </trkpt>
      <trkpt lat="43.12638153322041034698486328125" lon="13.0044143088161945343017578125">
        <ele>732.5999755859375</ele>
        <time>2021-06-06T07:44:42.000Z</time>
        <extensions>
          <ns3:TrackPointExtension>
            <ns3:atemp>18.0</ns3:atemp>
          </ns3:TrackPointExtension>
        </extensions>
      </trkpt>
      <trkpt lat="43.1264984607696533203125" lon="13.00437198020517826080322265625">
        <ele>733.5999755859375</ele>
        <time>2021-06-06T07:44:46.000Z</time>
        <extensions>
          <ns3:TrackPointExtension>
            <ns3:atemp>18.0</ns3:atemp>
          </ns3:TrackPointExtension>
        </extensions>
      </trkpt>
      <trkpt lat="43.12652989290654659271240234375" lon="13.00436359830200672149658203125">
        <ele>734</ele>
        <time>2021-06-06T07:44:47.000Z</time>
        <extensions>
          <ns3:TrackPointExtension>
            <ns3:atemp>18.0</ns3:atemp>
          </ns3:TrackPointExtension>
        </extensions>
      </trkpt>
      <trkpt lat="43.1266122870147228240966796875" lon="13.00433442927896976470947265625">
        <ele>734.79998779296875</ele>
        <time>2021-06-06T07:44:50.000Z</time>
        <extensions>
          <ns3:TrackPointExtension>
            <ns3:atemp>18.0</ns3:atemp>
          </ns3:TrackPointExtension>
        </extensions>
      </trkpt>
      <trkpt lat="43.126742541790008544921875" lon="13.00432587973773479461669921875">
        <ele>736</ele>
        <time>2021-06-06T07:44:54.000Z</time>
        <extensions>
          <ns3:TrackPointExtension>
            <ns3:atemp>18.0</ns3:atemp>
          </ns3:TrackPointExtension>
        </extensions>
      </trkpt>
      <trkpt lat="43.12685444019734859466552734375" lon="13.00432453863322734832763671875">
        <ele>737</ele>
        <time>2021-06-06T07:44:58.000Z</time>
        <extensions>
          <ns3:TrackPointExtension>
            <ns3:atemp>18.0</ns3:atemp>
          </ns3:TrackPointExtension>
        </extensions>
      </trkpt>
      <trkpt lat="43.12693993560969829559326171875" lon="13.0043368600308895111083984375">
        <ele>737.79998779296875</ele>
        <time>2021-06-06T07:45:01.000Z</time>
        <extensions>
          <ns3:TrackPointExtension>
            <ns3:atemp>18.0</ns3:atemp>
          </ns3:TrackPointExtension>
        </extensions>
      </trkpt>
      <trkpt lat="43.1269683502614498138427734375" lon="13.0043398775160312652587890625">
        <ele>738.20001220703125</ele>
        <time>2021-06-06T07:45:02.000Z</time>
        <extensions>
          <ns3:TrackPointExtension>
            <ns3:atemp>18.0</ns3:atemp>
          </ns3:TrackPointExtension>
        </extensions>
      </trkpt>
      <trkpt lat="43.1270260177552700042724609375" lon="13.00434264354407787322998046875">
        <ele>739.20001220703125</ele>
        <time>2021-06-06T07:45:04.000Z</time>
        <extensions>
          <ns3:TrackPointExtension>
            <ns3:atemp>18.0</ns3:atemp>
          </ns3:TrackPointExtension>
        </extensions>
      </trkpt>
      <trkpt lat="43.12714948318898677825927734375" lon="13.00432705320417881011962890625">
        <ele>740.20001220703125</ele>
        <time>2021-06-06T07:45:08.000Z</time>
        <extensions>
          <ns3:TrackPointExtension>
            <ns3:atemp>18.0</ns3:atemp>
          </ns3:TrackPointExtension>
        </extensions>
      </trkpt>
      <trkpt lat="43.12731930054724216461181640625" lon="13.0042359419167041778564453125">
        <ele>741.20001220703125</ele>
        <time>2021-06-06T07:45:14.000Z</time>
        <extensions>
          <ns3:TrackPointExtension>
            <ns3:atemp>18.0</ns3:atemp>
          </ns3:TrackPointExtension>
        </extensions>
      </trkpt>
      <trkpt lat="43.12734092585742473602294921875" lon="13.00421590916812419891357421875">
        <ele>741.4000244140625</ele>
        <time>2021-06-06T07:45:15.000Z</time>
        <extensions>
          <ns3:TrackPointExtension>
            <ns3:atemp>18.0</ns3:atemp>
          </ns3:TrackPointExtension>
        </extensions>
      </trkpt>
      <trkpt lat="43.12746732495725154876708984375" lon="13.00409604795277118682861328125">
        <ele>742.4000244140625</ele>
        <time>2021-06-06T07:45:20.000Z</time>
        <extensions>
          <ns3:TrackPointExtension>
            <ns3:atemp>18.0</ns3:atemp>
          </ns3:TrackPointExtension>
        </extensions>
      </trkpt>
      <trkpt lat="43.12751568853855133056640625" lon="13.0040515400469303131103515625">
        <ele>743</ele>
        <time>2021-06-06T07:45:22.000Z</time>
        <extensions>
          <ns3:TrackPointExtension>
            <ns3:atemp>18.0</ns3:atemp>
          </ns3:TrackPointExtension>
        </extensions>
      </trkpt>
      <trkpt lat="43.12756941653788089752197265625" lon="13.00401122309267520904541015625">
        <ele>743.4000244140625</ele>
        <time>2021-06-06T07:45:24.000Z</time>
        <extensions>
          <ns3:TrackPointExtension>
            <ns3:atemp>18.0</ns3:atemp>
          </ns3:TrackPointExtension>
        </extensions>
      </trkpt>
      <trkpt lat="43.127673603594303131103515625" lon="13.00392371602356433868408203125">
        <ele>744.5999755859375</ele>
        <time>2021-06-06T07:45:28.000Z</time>
        <extensions>
          <ns3:TrackPointExtension>
            <ns3:atemp>18.0</ns3:atemp>
          </ns3:TrackPointExtension>
        </extensions>
      </trkpt>
      <trkpt lat="43.12772850506007671356201171875" lon="13.0038825608789920806884765625">
        <ele>745</ele>
        <time>2021-06-06T07:45:30.000Z</time>
        <extensions>
          <ns3:TrackPointExtension>
            <ns3:atemp>18.0</ns3:atemp>
          </ns3:TrackPointExtension>
        </extensions>
      </trkpt>
      <trkpt lat="43.1278073787689208984375" lon="13.0038245581090450286865234375">
        <ele>746</ele>
        <time>2021-06-06T07:45:33.000Z</time>
        <extensions>
          <ns3:TrackPointExtension>
            <ns3:atemp>18.0</ns3:atemp>
          </ns3:TrackPointExtension>
        </extensions>
      </trkpt>
      <trkpt lat="43.12791307456791400909423828125" lon="13.00374451093375682830810546875">
        <ele>747.20001220703125</ele>
        <time>2021-06-06T07:45:37.000Z</time>
        <extensions>
          <ns3:TrackPointExtension>
            <ns3:atemp>18.0</ns3:atemp>
          </ns3:TrackPointExtension>
        </extensions>
      </trkpt>
      <trkpt lat="43.1279372982680797576904296875" lon="13.00372372381389141082763671875">
        <ele>747.4000244140625</ele>
        <time>2021-06-06T07:45:38.000Z</time>
        <extensions>
          <ns3:TrackPointExtension>
            <ns3:atemp>18.0</ns3:atemp>
          </ns3:TrackPointExtension>
        </extensions>
      </trkpt>
      <trkpt lat="43.1280331872403621673583984375" lon="13.00364308990538120269775390625">
        <ele>748.20001220703125</ele>
        <time>2021-06-06T07:45:42.000Z</time>
        <extensions>
          <ns3:TrackPointExtension>
            <ns3:atemp>18.0</ns3:atemp>
          </ns3:TrackPointExtension>
        </extensions>
      </trkpt>
      <trkpt lat="43.12809613533318042755126953125" lon="13.00358064472675323486328125">
        <ele>749.4000244140625</ele>
        <time>2021-06-06T07:45:45.000Z</time>
        <extensions>
          <ns3:TrackPointExtension>
            <ns3:atemp>18.0</ns3:atemp>
          </ns3:TrackPointExtension>
        </extensions>
      </trkpt>
      <trkpt lat="43.12811859883368015289306640625" lon="13.0035596899688243865966796875">
        <ele>749.5999755859375</ele>
        <time>2021-06-06T07:45:46.000Z</time>
        <extensions>
          <ns3:TrackPointExtension>
            <ns3:atemp>18.0</ns3:atemp>
          </ns3:TrackPointExtension>
        </extensions>
      </trkpt>
      <trkpt lat="43.128161095082759857177734375" lon="13.00350688397884368896484375">
        <ele>750.5999755859375</ele>
        <time>2021-06-06T07:45:48.000Z</time>
        <extensions>
          <ns3:TrackPointExtension>
            <ns3:atemp>18.0</ns3:atemp>
          </ns3:TrackPointExtension>
        </extensions>
      </trkpt>
      <trkpt lat="43.12824734486639499664306640625" lon="13.00339045934379100799560546875">
        <ele>751.79998779296875</ele>
        <time>2021-06-06T07:45:52.000Z</time>
        <extensions>
          <ns3:TrackPointExtension>
            <ns3:atemp>18.0</ns3:atemp>
          </ns3:TrackPointExtension>
        </extensions>
      </trkpt>
      <trkpt lat="43.1283597461879253387451171875" lon="13.0032307840883731842041015625">
        <ele>753</ele>
        <time>2021-06-06T07:45:57.000Z</time>
        <extensions>
          <ns3:TrackPointExtension>
            <ns3:atemp>18.0</ns3:atemp>
          </ns3:TrackPointExtension>
        </extensions>
      </trkpt>
      <trkpt lat="43.12843157909810543060302734375" lon="13.0031399242579936981201171875">
        <ele>753.5999755859375</ele>
        <time>2021-06-06T07:46:00.000Z</time>
        <extensions>
          <ns3:TrackPointExtension>
            <ns3:atemp>18.0</ns3:atemp>
          </ns3:TrackPointExtension>
        </extensions>
      </trkpt>
      <trkpt lat="43.128479607403278350830078125" lon="13.0030809156596660614013671875">
        <ele>754</ele>
        <time>2021-06-06T07:46:02.000Z</time>
        <extensions>
          <ns3:TrackPointExtension>
            <ns3:atemp>18.0</ns3:atemp>
          </ns3:TrackPointExtension>
        </extensions>
      </trkpt>
      <trkpt lat="43.12857943587005138397216796875" lon="13.00297044217586517333984375">
        <ele>755.20001220703125</ele>
        <time>2021-06-06T07:46:06.000Z</time>
        <extensions>
          <ns3:TrackPointExtension>
            <ns3:atemp>18.0</ns3:atemp>
          </ns3:TrackPointExtension>
        </extensions>
      </trkpt>
      <trkpt lat="43.12863416969776153564453125" lon="13.0029230006039142608642578125">
        <ele>755.5999755859375</ele>
        <time>2021-06-06T07:46:08.000Z</time>
        <extensions>
          <ns3:TrackPointExtension>
            <ns3:atemp>18.0</ns3:atemp>
          </ns3:TrackPointExtension>
        </extensions>
      </trkpt>
      <trkpt lat="43.1287769973278045654296875" lon="13.0028405226767063140869140625">
        <ele>756.20001220703125</ele>
        <time>2021-06-06T07:46:13.000Z</time>
        <extensions>
          <ns3:TrackPointExtension>
            <ns3:atemp>18.0</ns3:atemp>
          </ns3:TrackPointExtension>
        </extensions>
      </trkpt>
      <trkpt lat="43.12883709557354450225830078125" lon="13.00281730480492115020751953125">
        <ele>756.79998779296875</ele>
        <time>2021-06-06T07:46:15.000Z</time>
        <extensions>
          <ns3:TrackPointExtension>
            <ns3:atemp>18.0</ns3:atemp>
          </ns3:TrackPointExtension>
        </extensions>
      </trkpt>
      <trkpt lat="43.128938265144824981689453125" lon="13.00278511829674243927001953125">
        <ele>757.20001220703125</ele>
        <time>2021-06-06T07:46:18.000Z</time>
        <extensions>
          <ns3:TrackPointExtension>
            <ns3:atemp>18.0</ns3:atemp>
          </ns3:TrackPointExtension>
        </extensions>
      </trkpt>
      <trkpt lat="43.12904647551476955413818359375" lon="13.0026935040950775146484375">
        <ele>757.79998779296875</ele>
        <time>2021-06-06T07:46:22.000Z</time>
        <extensions>
          <ns3:TrackPointExtension>
            <ns3:atemp>18.0</ns3:atemp>
          </ns3:TrackPointExtension>
        </extensions>
      </trkpt>
      <trkpt lat="43.12908469699323177337646484375" lon="13.00262837670743465423583984375">
        <ele>758.20001220703125</ele>
        <time>2021-06-06T07:46:24.000Z</time>
        <extensions>
          <ns3:TrackPointExtension>
            <ns3:atemp>18.0</ns3:atemp>
          </ns3:TrackPointExtension>
        </extensions>
      </trkpt>
      <trkpt lat="43.12912233173847198486328125" lon="13.00247515551745891571044921875">
        <ele>759</ele>
        <time>2021-06-06T07:46:28.000Z</time>
        <extensions>
          <ns3:TrackPointExtension>
            <ns3:atemp>18.0</ns3:atemp>
          </ns3:TrackPointExtension>
        </extensions>
      </trkpt>
      <trkpt lat="43.12911537475883960723876953125" lon="13.00239376723766326904296875">
        <ele>759.4000244140625</ele>
        <time>2021-06-06T07:46:30.000Z</time>
        <extensions>
          <ns3:TrackPointExtension>
            <ns3:atemp>18.0</ns3:atemp>
          </ns3:TrackPointExtension>
        </extensions>
      </trkpt>
      <trkpt lat="43.1290990300476551055908203125" lon="13.00231707282364368438720703125">
        <ele>759.4000244140625</ele>
        <time>2021-06-06T07:46:32.000Z</time>
        <extensions>
          <ns3:TrackPointExtension>
            <ns3:atemp>18.0</ns3:atemp>
          </ns3:TrackPointExtension>
        </extensions>
      </trkpt>
      <trkpt lat="43.1290621496737003326416015625" lon="13.0022509396076202392578125">
        <ele>760.20001220703125</ele>
        <time>2021-06-06T07:46:34.000Z</time>
        <extensions>
          <ns3:TrackPointExtension>
            <ns3:atemp>18.0</ns3:atemp>
          </ns3:TrackPointExtension>
        </extensions>
      </trkpt>
      <trkpt lat="43.12904211692512035369873046875" lon="13.0022195912897586822509765625">
        <ele>760.4000244140625</ele>
        <time>2021-06-06T07:46:35.000Z</time>
        <extensions>
          <ns3:TrackPointExtension>
            <ns3:atemp>18.0</ns3:atemp>
          </ns3:TrackPointExtension>
        </extensions>
      </trkpt>
      <trkpt lat="43.1289763189852237701416015625" lon="13.00213803537189960479736328125">
        <ele>761.4000244140625</ele>
        <time>2021-06-06T07:46:38.000Z</time>
        <extensions>
          <ns3:TrackPointExtension>
            <ns3:atemp>18.0</ns3:atemp>
          </ns3:TrackPointExtension>
        </extensions>
      </trkpt>
      <trkpt lat="43.128904066979885101318359375" lon="13.00207450054585933685302734375">
        <ele>762</ele>
        <time>2021-06-06T07:46:41.000Z</time>
        <extensions>
          <ns3:TrackPointExtension>
            <ns3:atemp>18.0</ns3:atemp>
          </ns3:TrackPointExtension>
        </extensions>
      </trkpt>
      <trkpt lat="43.12879350967705249786376953125" lon="13.00202990882098674774169921875">
        <ele>762.5999755859375</ele>
        <time>2021-06-06T07:46:45.000Z</time>
        <extensions>
          <ns3:TrackPointExtension>
            <ns3:atemp>18.0</ns3:atemp>
          </ns3:TrackPointExtension>
        </extensions>
      </trkpt>
      <trkpt lat="43.12870793044567108154296875" lon="13.00200711004436016082763671875">
        <ele>763.4000244140625</ele>
        <time>2021-06-06T07:46:48.000Z</time>
        <extensions>
          <ns3:TrackPointExtension>
            <ns3:atemp>18.0</ns3:atemp>
          </ns3:TrackPointExtension>
        </extensions>
      </trkpt>
      <trkpt lat="43.128678761422634124755859375" lon="13.00200258381664752960205078125">
        <ele>763.5999755859375</ele>
        <time>2021-06-06T07:46:49.000Z</time>
        <extensions>
          <ns3:TrackPointExtension>
            <ns3:atemp>18.0</ns3:atemp>
          </ns3:TrackPointExtension>
        </extensions>
      </trkpt>
      <trkpt lat="43.12853702344000339508056640625" lon="13.00198967568576335906982421875">
        <ele>765</ele>
        <time>2021-06-06T07:46:54.000Z</time>
        <extensions>
          <ns3:TrackPointExtension>
            <ns3:atemp>18.0</ns3:atemp>
          </ns3:TrackPointExtension>
        </extensions>
      </trkpt>
      <trkpt lat="43.1284529529511928558349609375" lon="13.00200082361698150634765625">
        <ele>766</ele>
        <time>2021-06-06T07:46:57.000Z</time>
        <extensions>
          <ns3:TrackPointExtension>
            <ns3:atemp>18.0</ns3:atemp>
          </ns3:TrackPointExtension>
        </extensions>
      </trkpt>
      <trkpt lat="43.12842470593750476837158203125" lon="13.00200811587274074554443359375">
        <ele>766.20001220703125</ele>
        <time>2021-06-06T07:46:58.000Z</time>
        <extensions>
          <ns3:TrackPointExtension>
            <ns3:atemp>18.0</ns3:atemp>
          </ns3:TrackPointExtension>
        </extensions>
      </trkpt>
      <trkpt lat="43.12827332876622676849365234375" lon="13.00210584886372089385986328125">
        <ele>767.4000244140625</ele>
        <time>2021-06-06T07:47:04.000Z</time>
        <extensions>
          <ns3:TrackPointExtension>
            <ns3:atemp>18.0</ns3:atemp>
          </ns3:TrackPointExtension>
        </extensions>
      </trkpt>
      <trkpt lat="43.1281652860343456268310546875" lon="13.002212047576904296875">
        <ele>768.79998779296875</ele>
        <time>2021-06-06T07:47:09.000Z</time>
        <extensions>
          <ns3:TrackPointExtension>
            <ns3:atemp>18.0</ns3:atemp>
          </ns3:TrackPointExtension>
        </extensions>
      </trkpt>
      <trkpt lat="43.128110468387603759765625" lon="13.00229812972247600555419921875">
        <ele>770</ele>
        <time>2021-06-06T07:47:12.000Z</time>
        <extensions>
          <ns3:TrackPointExtension>
            <ns3:atemp>18.0</ns3:atemp>
          </ns3:TrackPointExtension>
        </extensions>
      </trkpt>
      <trkpt lat="43.1280868314206600189208984375" lon="13.002422936260700225830078125">
        <ele>771</ele>
        <time>2021-06-06T07:47:15.000Z</time>
        <extensions>
          <ns3:TrackPointExtension>
            <ns3:atemp>18.0</ns3:atemp>
          </ns3:TrackPointExtension>
        </extensions>
      </trkpt>
      <trkpt lat="43.1280823051929473876953125" lon="13.0025099404156208038330078125">
        <ele>771.5999755859375</ele>
        <time>2021-06-06T07:47:17.000Z</time>
        <extensions>
          <ns3:TrackPointExtension>
            <ns3:atemp>18.0</ns3:atemp>
          </ns3:TrackPointExtension>
        </extensions>
      </trkpt>
      <trkpt lat="43.1280864961445331573486328125" lon="13.002553693950176239013671875">
        <ele>772</ele>
        <time>2021-06-06T07:47:18.000Z</time>
        <extensions>
          <ns3:TrackPointExtension>
            <ns3:atemp>18.0</ns3:atemp>
          </ns3:TrackPointExtension>
        </extensions>
      </trkpt>
      <trkpt lat="43.128096051514148712158203125" lon="13.0026805959641933441162109375">
        <ele>773.20001220703125</ele>
        <time>2021-06-06T07:47:21.000Z</time>
        <extensions>
          <ns3:TrackPointExtension>
            <ns3:atemp>18.0</ns3:atemp>
          </ns3:TrackPointExtension>
        </extensions>
      </trkpt>
      <trkpt lat="43.12809060327708721160888671875" lon="13.0027632415294647216796875">
        <ele>774</ele>
        <time>2021-06-06T07:47:23.000Z</time>
        <extensions>
          <ns3:TrackPointExtension>
            <ns3:atemp>18.0</ns3:atemp>
          </ns3:TrackPointExtension>
        </extensions>
      </trkpt>
      <trkpt lat="43.12801566906273365020751953125" lon="13.00295191816985607147216796875">
        <ele>774.5999755859375</ele>
        <time>2021-06-06T07:47:28.000Z</time>
        <extensions>
          <ns3:TrackPointExtension>
            <ns3:atemp>18.0</ns3:atemp>
          </ns3:TrackPointExtension>
        </extensions>
      </trkpt>
      <trkpt lat="43.1279079616069793701171875" lon="13.00304613076150417327880859375">
        <ele>775.5999755859375</ele>
        <time>2021-06-06T07:47:32.000Z</time>
        <extensions>
          <ns3:TrackPointExtension>
            <ns3:atemp>18.0</ns3:atemp>
          </ns3:TrackPointExtension>
        </extensions>
      </trkpt>
      <trkpt lat="43.1278514675796031951904296875" lon="13.00308334641158580780029296875">
        <ele>776</ele>
        <time>2021-06-06T07:47:34.000Z</time>
        <extensions>
          <ns3:TrackPointExtension>
            <ns3:atemp>18.0</ns3:atemp>
          </ns3:TrackPointExtension>
        </extensions>
      </trkpt>
      <trkpt lat="43.1276519782841205596923828125" lon="13.00317370332777500152587890625">
        <ele>776.5999755859375</ele>
        <time>2021-06-06T07:47:41.000Z</time>
        <extensions>
          <ns3:TrackPointExtension>
            <ns3:atemp>18.0</ns3:atemp>
          </ns3:TrackPointExtension>
        </extensions>
      </trkpt>
      <trkpt lat="43.12762456946074962615966796875" lon="13.00318107940256595611572265625">
        <ele>776.79998779296875</ele>
        <time>2021-06-06T07:47:42.000Z</time>
        <extensions>
          <ns3:TrackPointExtension>
            <ns3:atemp>18.0</ns3:atemp>
          </ns3:TrackPointExtension>
        </extensions>
      </trkpt>
      <trkpt lat="43.12750571407377719879150390625" lon="13.003204800188541412353515625">
        <ele>777.5999755859375</ele>
        <time>2021-06-06T07:47:46.000Z</time>
        <extensions>
          <ns3:TrackPointExtension>
            <ns3:atemp>18.0</ns3:atemp>
          </ns3:TrackPointExtension>
        </extensions>
      </trkpt>
      <trkpt lat="43.1274521537125110626220703125" lon="13.00321854650974273681640625">
        <ele>777.79998779296875</ele>
        <time>2021-06-06T07:47:48.000Z</time>
        <extensions>
          <ns3:TrackPointExtension>
            <ns3:atemp>18.0</ns3:atemp>
          </ns3:TrackPointExtension>
        </extensions>
      </trkpt>
      <trkpt lat="43.12732449732720851898193359375" lon="13.00321913324296474456787109375">
        <ele>778.79998779296875</ele>
        <time>2021-06-06T07:47:53.000Z</time>
        <extensions>
          <ns3:TrackPointExtension>
            <ns3:atemp>18.0</ns3:atemp>
          </ns3:TrackPointExtension>
        </extensions>
      </trkpt>
      <trkpt lat="43.12729650177061557769775390625" lon="13.00321544520556926727294921875">
        <ele>779</ele>
        <time>2021-06-06T07:47:54.000Z</time>
        <extensions>
          <ns3:TrackPointExtension>
            <ns3:atemp>18.0</ns3:atemp>
          </ns3:TrackPointExtension>
        </extensions>
      </trkpt>
      <trkpt lat="43.12716205604374408721923828125" lon="13.00320605747401714324951171875">
        <ele>780</ele>
        <time>2021-06-06T07:47:59.000Z</time>
        <extensions>
          <ns3:TrackPointExtension>
            <ns3:atemp>18.0</ns3:atemp>
          </ns3:TrackPointExtension>
        </extensions>
      </trkpt>
      <trkpt lat="43.12713221646845340728759765625" lon="13.00320245325565338134765625">
        <ele>780.20001220703125</ele>
        <time>2021-06-06T07:48:00.000Z</time>
        <extensions>
          <ns3:TrackPointExtension>
            <ns3:atemp>18.0</ns3:atemp>
          </ns3:TrackPointExtension>
        </extensions>
      </trkpt>
      <trkpt lat="43.1270799972116947174072265625" lon="13.00318862311542034149169921875">
        <ele>781</ele>
        <time>2021-06-06T07:48:02.000Z</time>
        <extensions>
          <ns3:TrackPointExtension>
            <ns3:atemp>18.0</ns3:atemp>
          </ns3:TrackPointExtension>
        </extensions>
      </trkpt>
      <trkpt lat="43.12705510295927524566650390625" lon="13.00318225286900997161865234375">
        <ele>781.20001220703125</ele>
        <time>2021-06-06T07:48:03.000Z</time>
        <extensions>
          <ns3:TrackPointExtension>
            <ns3:atemp>18.0</ns3:atemp>
          </ns3:TrackPointExtension>
        </extensions>
      </trkpt>
      <trkpt lat="43.12697933055460453033447265625" lon="13.0031630583107471466064453125">
        <ele>782.20001220703125</ele>
        <time>2021-06-06T07:48:06.000Z</time>
        <extensions>
          <ns3:TrackPointExtension>
            <ns3:atemp>18.0</ns3:atemp>
          </ns3:TrackPointExtension>
        </extensions>
      </trkpt>
      <trkpt lat="43.126948736608028411865234375" lon="13.00315693952143192291259765625">
        <ele>782.4000244140625</ele>
        <time>2021-06-06T07:48:07.000Z</time>
        <extensions>
          <ns3:TrackPointExtension>
            <ns3:atemp>18.0</ns3:atemp>
          </ns3:TrackPointExtension>
        </extensions>
      </trkpt>
      <trkpt lat="43.12680062837898731231689453125" lon="13.00315274856984615325927734375">
        <ele>783.5999755859375</ele>
        <time>2021-06-06T07:48:12.000Z</time>
        <extensions>
          <ns3:TrackPointExtension>
            <ns3:atemp>18.0</ns3:atemp>
          </ns3:TrackPointExtension>
        </extensions>
      </trkpt>
      <trkpt lat="43.1267733871936798095703125" lon="13.003152497112751007080078125">
        <ele>783.79998779296875</ele>
        <time>2021-06-06T07:48:13.000Z</time>
        <extensions>
          <ns3:TrackPointExtension>
            <ns3:atemp>18.0</ns3:atemp>
          </ns3:TrackPointExtension>
        </extensions>
      </trkpt>
      <trkpt lat="43.1266917474567890167236328125" lon="13.00315643660724163055419921875">
        <ele>784.5999755859375</ele>
        <time>2021-06-06T07:48:16.000Z</time>
        <extensions>
          <ns3:TrackPointExtension>
            <ns3:atemp>18.0</ns3:atemp>
          </ns3:TrackPointExtension>
        </extensions>
      </trkpt>
      <trkpt lat="43.12659828923642635345458984375" lon="13.003165237605571746826171875">
        <ele>785.5999755859375</ele>
        <time>2021-06-06T07:48:19.000Z</time>
        <extensions>
          <ns3:TrackPointExtension>
            <ns3:atemp>18.0</ns3:atemp>
          </ns3:TrackPointExtension>
        </extensions>
      </trkpt>
      <trkpt lat="43.126566521823406219482421875" lon="13.00316599197685718536376953125">
        <ele>786</ele>
        <time>2021-06-06T07:48:20.000Z</time>
        <extensions>
          <ns3:TrackPointExtension>
            <ns3:atemp>18.0</ns3:atemp>
          </ns3:TrackPointExtension>
        </extensions>
      </trkpt>
      <trkpt lat="43.1265157274901866912841796875" lon="13.003177307546138763427734375">
        <ele>786.79998779296875</ele>
        <time>2021-06-06T07:48:22.000Z</time>
        <extensions>
          <ns3:TrackPointExtension>
            <ns3:atemp>18.0</ns3:atemp>
          </ns3:TrackPointExtension>
        </extensions>
      </trkpt>
      <trkpt lat="43.12640600837767124176025390625" lon="13.003218881785869598388671875">
        <ele>787.79998779296875</ele>
        <time>2021-06-06T07:48:26.000Z</time>
        <extensions>
          <ns3:TrackPointExtension>
            <ns3:atemp>18.0</ns3:atemp>
          </ns3:TrackPointExtension>
        </extensions>
      </trkpt>
      <trkpt lat="43.12629218213260173797607421875" lon="13.00326858647167682647705078125">
        <ele>789</ele>
        <time>2021-06-06T07:48:30.000Z</time>
        <extensions>
          <ns3:TrackPointExtension>
            <ns3:atemp>18.0</ns3:atemp>
          </ns3:TrackPointExtension>
        </extensions>
      </trkpt>
      <trkpt lat="43.12624172307550907135009765625" lon="13.003291971981525421142578125">
        <ele>789.5999755859375</ele>
        <time>2021-06-06T07:48:32.000Z</time>
        <extensions>
          <ns3:TrackPointExtension>
            <ns3:atemp>18.0</ns3:atemp>
          </ns3:TrackPointExtension>
        </extensions>
      </trkpt>
      <trkpt lat="43.12619495205581188201904296875" lon="13.0033102445304393768310546875">
        <ele>790.20001220703125</ele>
        <time>2021-06-06T07:48:34.000Z</time>
        <extensions>
          <ns3:TrackPointExtension>
            <ns3:atemp>18.0</ns3:atemp>
          </ns3:TrackPointExtension>
        </extensions>
      </trkpt>
      <trkpt lat="43.12610040418803691864013671875" lon="13.00335492007434368133544921875">
        <ele>791.20001220703125</ele>
        <time>2021-06-06T07:48:38.000Z</time>
        <extensions>
          <ns3:TrackPointExtension>
            <ns3:atemp>18.0</ns3:atemp>
          </ns3:TrackPointExtension>
        </extensions>
      </trkpt>
      <trkpt lat="43.12607559375464916229248046875" lon="13.00337151624262332916259765625">
        <ele>791.4000244140625</ele>
        <time>2021-06-06T07:48:39.000Z</time>
        <extensions>
          <ns3:TrackPointExtension>
            <ns3:atemp>18.0</ns3:atemp>
          </ns3:TrackPointExtension>
        </extensions>
      </trkpt>
      <trkpt lat="43.12597450800240039825439453125" lon="13.0034369789063930511474609375">
        <ele>792.20001220703125</ele>
        <time>2021-06-06T07:48:43.000Z</time>
        <extensions>
          <ns3:TrackPointExtension>
            <ns3:atemp>18.0</ns3:atemp>
          </ns3:TrackPointExtension>
        </extensions>
      </trkpt>
      <trkpt lat="43.12591575086116790771484375" lon="13.003470003604888916015625">
        <ele>792.79998779296875</ele>
        <time>2021-06-06T07:48:45.000Z</time>
        <extensions>
          <ns3:TrackPointExtension>
            <ns3:atemp>18.0</ns3:atemp>
          </ns3:TrackPointExtension>
        </extensions>
      </trkpt>
      <trkpt lat="43.12585850246250629425048828125" lon="13.003515936434268951416015625">
        <ele>793.4000244140625</ele>
        <time>2021-06-06T07:48:47.000Z</time>
        <extensions>
          <ns3:TrackPointExtension>
            <ns3:atemp>18.0</ns3:atemp>
          </ns3:TrackPointExtension>
        </extensions>
      </trkpt>
      <trkpt lat="43.125747777521610260009765625" lon="13.00359070301055908203125">
        <ele>794.20001220703125</ele>
        <time>2021-06-06T07:48:51.000Z</time>
        <extensions>
          <ns3:TrackPointExtension>
            <ns3:atemp>18.0</ns3:atemp>
          </ns3:TrackPointExtension>
        </extensions>
      </trkpt>
      <trkpt lat="43.12571969814598560333251953125" lon="13.00359782762825489044189453125">
        <ele>794.5999755859375</ele>
        <time>2021-06-06T07:48:52.000Z</time>
        <extensions>
          <ns3:TrackPointExtension>
            <ns3:atemp>18.0</ns3:atemp>
          </ns3:TrackPointExtension>
        </extensions>
      </trkpt>
      <trkpt lat="43.125568069517612457275390625" lon="13.0036215484142303466796875">
        <ele>795.79998779296875</ele>
        <time>2021-06-06T07:48:57.000Z</time>
        <extensions>
          <ns3:TrackPointExtension>
            <ns3:atemp>18.0</ns3:atemp>
          </ns3:TrackPointExtension>
        </extensions>
      </trkpt>
      <trkpt lat="43.1255400739610195159912109375" lon="13.00361559726297855377197265625">
        <ele>796</ele>
        <time>2021-06-06T07:48:58.000Z</time>
        <extensions>
          <ns3:TrackPointExtension>
            <ns3:atemp>18.0</ns3:atemp>
          </ns3:TrackPointExtension>
        </extensions>
      </trkpt>
      <trkpt lat="43.1254575960338115692138671875" lon="13.00358642823994159698486328125">
        <ele>797</ele>
        <time>2021-06-06T07:49:01.000Z</time>
        <extensions>
          <ns3:TrackPointExtension>
            <ns3:atemp>18.0</ns3:atemp>
          </ns3:TrackPointExtension>
        </extensions>
      </trkpt>
      <trkpt lat="43.1253811530768871307373046875" lon="13.00356580875813961029052734375">
        <ele>797.4000244140625</ele>
        <time>2021-06-06T07:49:04.000Z</time>
        <extensions>
          <ns3:TrackPointExtension>
            <ns3:atemp>18.0</ns3:atemp>
          </ns3:TrackPointExtension>
        </extensions>
      </trkpt>
      <trkpt lat="43.12533195130527019500732421875" lon="13.00356010906398296356201171875">
        <ele>798</ele>
        <time>2021-06-06T07:49:06.000Z</time>
        <extensions>
          <ns3:TrackPointExtension>
            <ns3:atemp>18.0</ns3:atemp>
          </ns3:TrackPointExtension>
        </extensions>
      </trkpt>
      <trkpt lat="43.1252319552004337310791015625" lon="13.00354569219052791595458984375">
        <ele>799</ele>
        <time>2021-06-06T07:49:10.000Z</time>
        <extensions>
          <ns3:TrackPointExtension>
            <ns3:atemp>18.0</ns3:atemp>
          </ns3:TrackPointExtension>
        </extensions>
      </trkpt>
      <trkpt lat="43.12520504929125308990478515625" lon="13.00354418344795703887939453125">
        <ele>799.20001220703125</ele>
        <time>2021-06-06T07:49:11.000Z</time>
        <extensions>
          <ns3:TrackPointExtension>
            <ns3:atemp>18.0</ns3:atemp>
          </ns3:TrackPointExtension>
        </extensions>
      </trkpt>
      <trkpt lat="43.12509491108357906341552734375" lon="13.00352306105196475982666015625">
        <ele>800.20001220703125</ele>
        <time>2021-06-06T07:49:15.000Z</time>
        <extensions>
          <ns3:TrackPointExtension>
            <ns3:atemp>18.0</ns3:atemp>
          </ns3:TrackPointExtension>
        </extensions>
      </trkpt>
      <trkpt lat="43.1250393390655517578125" lon="13.0035102367401123046875">
        <ele>800.5999755859375</ele>
        <time>2021-06-06T07:49:17.000Z</time>
        <extensions>
          <ns3:TrackPointExtension>
            <ns3:atemp>18.0</ns3:atemp>
          </ns3:TrackPointExtension>
        </extensions>
      </trkpt>
      <trkpt lat="43.12496398575603961944580078125" lon="13.00348148681223392486572265625">
        <ele>801.4000244140625</ele>
        <time>2021-06-06T07:49:20.000Z</time>
        <extensions>
          <ns3:TrackPointExtension>
            <ns3:atemp>18.0</ns3:atemp>
          </ns3:TrackPointExtension>
        </extensions>
      </trkpt>
      <trkpt lat="43.1248487345874309539794921875" lon="13.00343940965831279754638671875">
        <ele>802.5999755859375</ele>
        <time>2021-06-06T07:49:24.000Z</time>
        <extensions>
          <ns3:TrackPointExtension>
            <ns3:atemp>18.0</ns3:atemp>
          </ns3:TrackPointExtension>
        </extensions>
      </trkpt>
      <trkpt lat="43.1247451342642307281494140625" lon="13.0033863522112369537353515625">
        <ele>803.79998779296875</ele>
        <time>2021-06-06T07:49:28.000Z</time>
        <extensions>
          <ns3:TrackPointExtension>
            <ns3:atemp>18.0</ns3:atemp>
          </ns3:TrackPointExtension>
        </extensions>
      </trkpt>
      <trkpt lat="43.1247199885547161102294921875" lon="13.00336699001491069793701171875">
        <ele>804.20001220703125</ele>
        <time>2021-06-06T07:49:29.000Z</time>
        <extensions>
          <ns3:TrackPointExtension>
            <ns3:atemp>18.0</ns3:atemp>
          </ns3:TrackPointExtension>
        </extensions>
      </trkpt>
      <trkpt lat="43.1246019713580608367919921875" lon="13.0033184587955474853515625">
        <ele>805.20001220703125</ele>
        <time>2021-06-06T07:49:33.000Z</time>
        <extensions>
          <ns3:TrackPointExtension>
            <ns3:atemp>18.0</ns3:atemp>
          </ns3:TrackPointExtension>
        </extensions>
      </trkpt>
      <trkpt lat="43.1245721317827701568603515625" lon="13.0033157765865325927734375">
        <ele>805.4000244140625</ele>
        <time>2021-06-06T07:49:34.000Z</time>
        <extensions>
          <ns3:TrackPointExtension>
            <ns3:atemp>18.0</ns3:atemp>
          </ns3:TrackPointExtension>
        </extensions>
      </trkpt>
      <trkpt lat="43.1244624964892864227294921875" lon="13.00331351347267627716064453125">
        <ele>806.20001220703125</ele>
        <time>2021-06-06T07:49:38.000Z</time>
        <extensions>
          <ns3:TrackPointExtension>
            <ns3:atemp>18.0</ns3:atemp>
          </ns3:TrackPointExtension>
        </extensions>
      </trkpt>
      <trkpt lat="43.1243763305246829986572265625" lon="13.00330865196883678436279296875">
        <ele>806.4000244140625</ele>
        <time>2021-06-06T07:49:41.000Z</time>
        <extensions>
          <ns3:TrackPointExtension>
            <ns3:atemp>18.0</ns3:atemp>
          </ns3:TrackPointExtension>
        </extensions>
      </trkpt>
      <trkpt lat="43.12425076961517333984375" lon="13.003291301429271697998046875">
        <ele>807.20001220703125</ele>
        <time>2021-06-06T07:49:45.000Z</time>
        <extensions>
          <ns3:TrackPointExtension>
            <ns3:atemp>18.0</ns3:atemp>
          </ns3:TrackPointExtension>
        </extensions>
      </trkpt>
      <trkpt lat="43.12421799637377262115478515625" lon="13.00328652374446392059326171875">
        <ele>807.4000244140625</ele>
        <time>2021-06-06T07:49:46.000Z</time>
        <extensions>
          <ns3:TrackPointExtension>
            <ns3:atemp>18.0</ns3:atemp>
          </ns3:TrackPointExtension>
        </extensions>
      </trkpt>
      <trkpt lat="43.12410517595708370208740234375" lon="13.003263808786869049072265625">
        <ele>808.4000244140625</ele>
        <time>2021-06-06T07:49:50.000Z</time>
        <extensions>
          <ns3:TrackPointExtension>
            <ns3:atemp>18.0</ns3:atemp>
          </ns3:TrackPointExtension>
        </extensions>
      </trkpt>
      <trkpt lat="43.1240482628345489501953125" lon="13.00324939191341400146484375">
        <ele>808.79998779296875</ele>
        <time>2021-06-06T07:49:52.000Z</time>
        <extensions>
          <ns3:TrackPointExtension>
            <ns3:atemp>18.0</ns3:atemp>
          </ns3:TrackPointExtension>
        </extensions>
      </trkpt>
      <trkpt lat="43.1239877454936504364013671875" lon="13.00322717987000942230224609375">
        <ele>809.4000244140625</ele>
        <time>2021-06-06T07:49:54.000Z</time>
        <extensions>
          <ns3:TrackPointExtension>
            <ns3:atemp>18.0</ns3:atemp>
          </ns3:TrackPointExtension>
        </extensions>
      </trkpt>
      <trkpt lat="43.12388171441853046417236328125" lon="13.00318527035415172576904296875">
        <ele>810.4000244140625</ele>
        <time>2021-06-06T07:49:58.000Z</time>
        <extensions>
          <ns3:TrackPointExtension>
            <ns3:atemp>18.0</ns3:atemp>
          </ns3:TrackPointExtension>
        </extensions>
      </trkpt>
      <trkpt lat="43.12375229783356189727783203125" lon="13.00311033613979816436767578125">
        <ele>811.5999755859375</ele>
        <time>2021-06-06T07:50:03.000Z</time>
        <extensions>
          <ns3:TrackPointExtension>
            <ns3:atemp>18.0</ns3:atemp>
          </ns3:TrackPointExtension>
        </extensions>
      </trkpt>
      <trkpt lat="43.12372170388698577880859375" lon="13.00309943966567516326904296875">
        <ele>811.79998779296875</ele>
        <time>2021-06-06T07:50:04.000Z</time>
        <extensions>
          <ns3:TrackPointExtension>
            <ns3:atemp>18.0</ns3:atemp>
          </ns3:TrackPointExtension>
        </extensions>
      </trkpt>
      <trkpt lat="43.12362288124859333038330078125" lon="13.00309005193412303924560546875">
        <ele>812.79998779296875</ele>
        <time>2021-06-06T07:50:07.000Z</time>
        <extensions>
          <ns3:TrackPointExtension>
            <ns3:atemp>18.0</ns3:atemp>
          </ns3:TrackPointExtension>
        </extensions>
      </trkpt>
      <trkpt lat="43.123451136052608489990234375" lon="13.00308519043028354644775390625">
        <ele>814</ele>
        <time>2021-06-06T07:50:13.000Z</time>
        <extensions>
          <ns3:TrackPointExtension>
            <ns3:atemp>18.0</ns3:atemp>
          </ns3:TrackPointExtension>
        </extensions>
      </trkpt>
      <trkpt lat="43.12331543304026126861572265625" lon="13.00309005193412303924560546875">
        <ele>815</ele>
        <time>2021-06-06T07:50:18.000Z</time>
        <extensions>
          <ns3:TrackPointExtension>
            <ns3:atemp>18.0</ns3:atemp>
          </ns3:TrackPointExtension>
        </extensions>
      </trkpt>
      <trkpt lat="43.12323756515979766845703125" lon="13.0030812509357929229736328125">
        <ele>815.79998779296875</ele>
        <time>2021-06-06T07:50:21.000Z</time>
        <extensions>
          <ns3:TrackPointExtension>
            <ns3:atemp>18.0</ns3:atemp>
          </ns3:TrackPointExtension>
        </extensions>
      </trkpt>
      <trkpt lat="43.12321007251739501953125" lon="13.00307932309806346893310546875">
        <ele>816</ele>
        <time>2021-06-06T07:50:22.000Z</time>
        <extensions>
          <ns3:TrackPointExtension>
            <ns3:atemp>18.0</ns3:atemp>
          </ns3:TrackPointExtension>
        </extensions>
      </trkpt>
      <trkpt lat="43.12308736145496368408203125" lon="13.003063313663005828857421875">
        <ele>817.20001220703125</ele>
        <time>2021-06-06T07:50:27.000Z</time>
        <extensions>
          <ns3:TrackPointExtension>
            <ns3:atemp>18.0</ns3:atemp>
          </ns3:TrackPointExtension>
        </extensions>
      </trkpt>
      <trkpt lat="43.12306045554578304290771484375" lon="13.00305895507335662841796875">
        <ele>817.4000244140625</ele>
        <time>2021-06-06T07:50:28.000Z</time>
        <extensions>
          <ns3:TrackPointExtension>
            <ns3:atemp>18.0</ns3:atemp>
          </ns3:TrackPointExtension>
        </extensions>
      </trkpt>
      <trkpt lat="43.12295165844261646270751953125" lon="13.0030396766960620880126953125">
        <ele>818.4000244140625</ele>
        <time>2021-06-06T07:50:32.000Z</time>
        <extensions>
          <ns3:TrackPointExtension>
            <ns3:atemp>18.0</ns3:atemp>
          </ns3:TrackPointExtension>
        </extensions>
      </trkpt>
      <trkpt lat="43.12279927544295787811279296875" lon="13.0030234158039093017578125">
        <ele>819</ele>
        <time>2021-06-06T07:50:37.000Z</time>
        <extensions>
          <ns3:TrackPointExtension>
            <ns3:atemp>18.0</ns3:atemp>
          </ns3:TrackPointExtension>
        </extensions>
      </trkpt>
      <trkpt lat="43.1227733753621578216552734375" lon="13.0030188895761966705322265625">
        <ele>819.20001220703125</ele>
        <time>2021-06-06T07:50:38.000Z</time>
        <extensions>
          <ns3:TrackPointExtension>
            <ns3:atemp>18.0</ns3:atemp>
          </ns3:TrackPointExtension>
        </extensions>
      </trkpt>
      <trkpt lat="43.12264320440590381622314453125" lon="13.00301210023462772369384765625">
        <ele>820.20001220703125</ele>
        <time>2021-06-06T07:50:43.000Z</time>
        <extensions>
          <ns3:TrackPointExtension>
            <ns3:atemp>18.0</ns3:atemp>
          </ns3:TrackPointExtension>
        </extensions>
      </trkpt>
      <trkpt lat="43.1225075013935565948486328125" lon="13.00301897339522838592529296875">
        <ele>821.20001220703125</ele>
        <time>2021-06-06T07:50:48.000Z</time>
        <extensions>
          <ns3:TrackPointExtension>
            <ns3:atemp>18.0</ns3:atemp>
          </ns3:TrackPointExtension>
        </extensions>
      </trkpt>
      <trkpt lat="43.12247850000858306884765625" lon="13.0030225776135921478271484375">
        <ele>821.4000244140625</ele>
        <time>2021-06-06T07:50:49.000Z</time>
        <extensions>
          <ns3:TrackPointExtension>
            <ns3:atemp>18.0</ns3:atemp>
          </ns3:TrackPointExtension>
        </extensions>
      </trkpt>
      <trkpt lat="43.12236584722995758056640625" lon="13.00304286181926727294921875">
        <ele>822.4000244140625</ele>
        <time>2021-06-06T07:50:53.000Z</time>
        <extensions>
          <ns3:TrackPointExtension>
            <ns3:atemp>18.0</ns3:atemp>
          </ns3:TrackPointExtension>
        </extensions>
      </trkpt>
      <trkpt lat="43.12228538095951080322265625" lon="13.00305359065532684326171875">
        <ele>823.4000244140625</ele>
        <time>2021-06-06T07:50:56.000Z</time>
        <extensions>
          <ns3:TrackPointExtension>
            <ns3:atemp>18.0</ns3:atemp>
          </ns3:TrackPointExtension>
        </extensions>
      </trkpt>
      <trkpt lat="43.12226166017353534698486328125" lon="13.003057949244976043701171875">
        <ele>823.5999755859375</ele>
        <time>2021-06-06T07:50:57.000Z</time>
        <extensions>
          <ns3:TrackPointExtension>
            <ns3:atemp>18.0</ns3:atemp>
          </ns3:TrackPointExtension>
        </extensions>
      </trkpt>
      <trkpt lat="43.12216057442128658294677734375" lon="13.0030985176563262939453125">
        <ele>824.5999755859375</ele>
        <time>2021-06-06T07:51:01.000Z</time>
        <extensions>
          <ns3:TrackPointExtension>
            <ns3:atemp>18.0</ns3:atemp>
          </ns3:TrackPointExtension>
        </extensions>
      </trkpt>
      <trkpt lat="43.1220545433461666107177734375" lon="13.00314101390540599822998046875">
        <ele>825.4000244140625</ele>
        <time>2021-06-06T07:51:05.000Z</time>
        <extensions>
          <ns3:TrackPointExtension>
            <ns3:atemp>18.0</ns3:atemp>
          </ns3:TrackPointExtension>
        </extensions>
      </trkpt>
      <trkpt lat="43.1220307387411594390869140625" lon="13.0031459592282772064208984375">
        <ele>825.5999755859375</ele>
        <time>2021-06-06T07:51:06.000Z</time>
        <extensions>
          <ns3:TrackPointExtension>
            <ns3:atemp>18.0</ns3:atemp>
          </ns3:TrackPointExtension>
        </extensions>
      </trkpt>
      <trkpt lat="43.1219254620373249053955078125" lon="13.003165908157825469970703125">
        <ele>826.79998779296875</ele>
        <time>2021-06-06T07:51:10.000Z</time>
        <extensions>
          <ns3:TrackPointExtension>
            <ns3:atemp>18.0</ns3:atemp>
          </ns3:TrackPointExtension>
        </extensions>
      </trkpt>
      <trkpt lat="43.12185128219425678253173828125" lon="13.00317789427936077117919921875">
        <ele>827.4000244140625</ele>
        <time>2021-06-06T07:51:13.000Z</time>
        <extensions>
          <ns3:TrackPointExtension>
            <ns3:atemp>18.0</ns3:atemp>
          </ns3:TrackPointExtension>
        </extensions>
      </trkpt>
      <trkpt lat="43.12182999216020107269287109375" lon="13.00317965447902679443359375">
        <ele>827.5999755859375</ele>
        <time>2021-06-06T07:51:14.000Z</time>
        <extensions>
          <ns3:TrackPointExtension>
            <ns3:atemp>18.0</ns3:atemp>
          </ns3:TrackPointExtension>
        </extensions>
      </trkpt>
      <trkpt lat="43.12171700410544872283935546875" lon="13.00318644382059574127197265625">
        <ele>828.79998779296875</ele>
        <time>2021-06-06T07:51:19.000Z</time>
        <extensions>
          <ns3:TrackPointExtension>
            <ns3:atemp>18.0</ns3:atemp>
          </ns3:TrackPointExtension>
        </extensions>
      </trkpt>
      <trkpt lat="43.12159948982298374176025390625" lon="13.0031814984977245330810546875">
        <ele>829.79998779296875</ele>
        <time>2021-06-06T07:51:24.000Z</time>
        <extensions>
          <ns3:TrackPointExtension>
            <ns3:atemp>18.0</ns3:atemp>
          </ns3:TrackPointExtension>
        </extensions>
      </trkpt>
      <trkpt lat="43.1215455941855907440185546875" lon="13.0031778104603290557861328125">
        <ele>830.4000244140625</ele>
        <time>2021-06-06T07:51:26.000Z</time>
        <extensions>
          <ns3:TrackPointExtension>
            <ns3:atemp>18.0</ns3:atemp>
          </ns3:TrackPointExtension>
        </extensions>
      </trkpt>
      <trkpt lat="43.121490441262722015380859375" lon="13.0031747929751873016357421875">
        <ele>830.79998779296875</ele>
        <time>2021-06-06T07:51:28.000Z</time>
        <extensions>
          <ns3:TrackPointExtension>
            <ns3:atemp>18.0</ns3:atemp>
          </ns3:TrackPointExtension>
        </extensions>
      </trkpt>
      <trkpt lat="43.12139279209077358245849609375" lon="13.003167919814586639404296875">
        <ele>831.79998779296875</ele>
        <time>2021-06-06T07:51:32.000Z</time>
        <extensions>
          <ns3:TrackPointExtension>
            <ns3:atemp>18.0</ns3:atemp>
          </ns3:TrackPointExtension>
        </extensions>
      </trkpt>
      <trkpt lat="43.121369741857051849365234375" lon="13.00316917710006237030029296875">
        <ele>832</ele>
        <time>2021-06-06T07:51:33.000Z</time>
        <extensions>
          <ns3:TrackPointExtension>
            <ns3:atemp>18.0</ns3:atemp>
          </ns3:TrackPointExtension>
        </extensions>
      </trkpt>
      <trkpt lat="43.12125566415488719940185546875" lon="13.00318158231675624847412109375">
        <ele>833</ele>
        <time>2021-06-06T07:51:38.000Z</time>
        <extensions>
          <ns3:TrackPointExtension>
            <ns3:atemp>18.0</ns3:atemp>
          </ns3:TrackPointExtension>
        </extensions>
      </trkpt>
      <trkpt lat="43.121231608092784881591796875" lon="13.003178648650646209716796875">
        <ele>833.20001220703125</ele>
        <time>2021-06-06T07:51:39.000Z</time>
        <extensions>
          <ns3:TrackPointExtension>
            <ns3:atemp>18.0</ns3:atemp>
          </ns3:TrackPointExtension>
        </extensions>
      </trkpt>
      <trkpt lat="43.121149130165576934814453125" lon="13.00318694673478603363037109375">
        <ele>834</ele>
        <time>2021-06-06T07:51:42.000Z</time>
        <extensions>
          <ns3:TrackPointExtension>
            <ns3:atemp>18.0</ns3:atemp>
          </ns3:TrackPointExtension>
        </extensions>
      </trkpt>
      <trkpt lat="43.1210762076079845428466796875" lon="13.00321452319622039794921875">
        <ele>834.79998779296875</ele>
        <time>2021-06-06T07:51:45.000Z</time>
        <extensions>
          <ns3:TrackPointExtension>
            <ns3:atemp>18.0</ns3:atemp>
          </ns3:TrackPointExtension>
        </extensions>
      </trkpt>
      <trkpt lat="43.1210282631218433380126953125" lon="13.00322483293712139129638671875">
        <ele>835.20001220703125</ele>
        <time>2021-06-06T07:51:47.000Z</time>
        <extensions>
          <ns3:TrackPointExtension>
            <ns3:atemp>18.0</ns3:atemp>
          </ns3:TrackPointExtension>
        </extensions>
      </trkpt>
      <trkpt lat="43.1209208071231842041015625" lon="13.003249056637287139892578125">
        <ele>836.4000244140625</ele>
        <time>2021-06-06T07:51:52.000Z</time>
        <extensions>
          <ns3:TrackPointExtension>
            <ns3:atemp>18.0</ns3:atemp>
          </ns3:TrackPointExtension>
        </extensions>
      </trkpt>
      <trkpt lat="43.12082667835056781768798828125" lon="13.003273867070674896240234375">
        <ele>837.5999755859375</ele>
        <time>2021-06-06T07:51:56.000Z</time>
        <extensions>
          <ns3:TrackPointExtension>
            <ns3:atemp>18.0</ns3:atemp>
          </ns3:TrackPointExtension>
        </extensions>
      </trkpt>
      <trkpt lat="43.12080354429781436920166015625" lon="13.00328166224062442779541015625">
        <ele>837.79998779296875</ele>
        <time>2021-06-06T07:51:57.000Z</time>
        <extensions>
          <ns3:TrackPointExtension>
            <ns3:atemp>18.0</ns3:atemp>
          </ns3:TrackPointExtension>
        </extensions>
      </trkpt>
      <trkpt lat="43.12075895257294178009033203125" lon="13.00329574383795261383056640625">
        <ele>838.5999755859375</ele>
        <time>2021-06-06T07:51:59.000Z</time>
        <extensions>
          <ns3:TrackPointExtension>
            <ns3:atemp>18.0</ns3:atemp>
          </ns3:TrackPointExtension>
        </extensions>
      </trkpt>
      <trkpt lat="43.120671026408672332763671875" lon="13.00333212129771709442138671875">
        <ele>839.4000244140625</ele>
        <time>2021-06-06T07:52:03.000Z</time>
        <extensions>
          <ns3:TrackPointExtension>
            <ns3:atemp>18.0</ns3:atemp>
          </ns3:TrackPointExtension>
        </extensions>
      </trkpt>
      <trkpt lat="43.1206512451171875" lon="13.00334050320088863372802734375">
        <ele>839.5999755859375</ele>
        <time>2021-06-06T07:52:04.000Z</time>
        <extensions>
          <ns3:TrackPointExtension>
            <ns3:atemp>18.0</ns3:atemp>
          </ns3:TrackPointExtension>
        </extensions>
      </trkpt>
      <trkpt lat="43.120561726391315460205078125" lon="13.00337637774646282196044921875">
        <ele>840.79998779296875</ele>
        <time>2021-06-06T07:52:08.000Z</time>
        <extensions>
          <ns3:TrackPointExtension>
            <ns3:atemp>18.0</ns3:atemp>
          </ns3:TrackPointExtension>
        </extensions>
      </trkpt>
      <trkpt lat="43.120539598166942596435546875" lon="13.0033809877932071685791015625">
        <ele>841</ele>
        <time>2021-06-06T07:52:09.000Z</time>
        <extensions>
          <ns3:TrackPointExtension>
            <ns3:atemp>18.0</ns3:atemp>
          </ns3:TrackPointExtension>
        </extensions>
      </trkpt>
      <trkpt lat="43.1204562820494174957275390625" lon="13.00338408909738063812255859375">
        <ele>841.5999755859375</ele>
        <time>2021-06-06T07:52:13.000Z</time>
        <extensions>
          <ns3:TrackPointExtension>
            <ns3:atemp>18.0</ns3:atemp>
          </ns3:TrackPointExtension>
        </extensions>
      </trkpt>
      <trkpt lat="43.1204147078096866607666015625" lon="13.00338962115347385406494140625">
        <ele>842.20001220703125</ele>
        <time>2021-06-06T07:52:15.000Z</time>
        <extensions>
          <ns3:TrackPointExtension>
            <ns3:atemp>18.0</ns3:atemp>
          </ns3:TrackPointExtension>
        </extensions>
      </trkpt>
      <trkpt lat="43.12034773640334606170654296875" lon="13.00339247100055217742919921875">
        <ele>842.79998779296875</ele>
        <time>2021-06-06T07:52:18.000Z</time>
        <extensions>
          <ns3:TrackPointExtension>
            <ns3:atemp>18.0</ns3:atemp>
          </ns3:TrackPointExtension>
        </extensions>
      </trkpt>
      <trkpt lat="43.12028973363339900970458984375" lon="13.0033989250659942626953125">
        <ele>843.5999755859375</ele>
        <time>2021-06-06T07:52:21.000Z</time>
        <extensions>
          <ns3:TrackPointExtension>
            <ns3:atemp>18.0</ns3:atemp>
          </ns3:TrackPointExtension>
        </extensions>
      </trkpt>
      <trkpt lat="43.12026861123740673065185546875" lon="13.0034011043608188629150390625">
        <ele>843.79998779296875</ele>
        <time>2021-06-06T07:52:22.000Z</time>
        <extensions>
          <ns3:TrackPointExtension>
            <ns3:atemp>18.0</ns3:atemp>
          </ns3:TrackPointExtension>
        </extensions>
      </trkpt>
      <trkpt lat="43.120186887681484222412109375" lon="13.0034178681671619415283203125">
        <ele>844.79998779296875</ele>
        <time>2021-06-06T07:52:26.000Z</time>
        <extensions>
          <ns3:TrackPointExtension>
            <ns3:atemp>18.0</ns3:atemp>
          </ns3:TrackPointExtension>
        </extensions>
      </trkpt>
      <trkpt lat="43.1200740672647953033447265625" lon="13.0034456960856914520263671875">
        <ele>846</ele>
        <time>2021-06-06T07:52:30.000Z</time>
        <extensions>
          <ns3:TrackPointExtension>
            <ns3:atemp>18.0</ns3:atemp>
          </ns3:TrackPointExtension>
        </extensions>
      </trkpt>
      <trkpt lat="43.12000391073524951934814453125" lon="13.003463633358478546142578125">
        <ele>846.4000244140625</ele>
        <time>2021-06-06T07:52:33.000Z</time>
        <extensions>
          <ns3:TrackPointExtension>
            <ns3:atemp>18.0</ns3:atemp>
          </ns3:TrackPointExtension>
        </extensions>
      </trkpt>
      <trkpt lat="43.1199513562023639678955078125" lon="13.0034775473177433013916015625">
        <ele>847</ele>
        <time>2021-06-06T07:52:35.000Z</time>
        <extensions>
          <ns3:TrackPointExtension>
            <ns3:atemp>18.0</ns3:atemp>
          </ns3:TrackPointExtension>
        </extensions>
      </trkpt>
      <trkpt lat="43.11985420994460582733154296875" lon="13.00350696779787540435791015625">
        <ele>848</ele>
        <time>2021-06-06T07:52:39.000Z</time>
        <extensions>
          <ns3:TrackPointExtension>
            <ns3:atemp>18.0</ns3:atemp>
          </ns3:TrackPointExtension>
        </extensions>
      </trkpt>
      <trkpt lat="43.11981129460036754608154296875" lon="13.00351769663393497467041015625">
        <ele>848.4000244140625</ele>
        <time>2021-06-06T07:52:41.000Z</time>
        <extensions>
          <ns3:TrackPointExtension>
            <ns3:atemp>18.0</ns3:atemp>
          </ns3:TrackPointExtension>
        </extensions>
      </trkpt>
      <trkpt lat="43.11974323354661464691162109375" lon="13.00352540798485279083251953125">
        <ele>849</ele>
        <time>2021-06-06T07:52:44.000Z</time>
        <extensions>
          <ns3:TrackPointExtension>
            <ns3:atemp>18.0</ns3:atemp>
          </ns3:TrackPointExtension>
        </extensions>
      </trkpt>
      <trkpt lat="43.11967081390321254730224609375" lon="13.003533370792865753173828125">
        <ele>849.79998779296875</ele>
        <time>2021-06-06T07:52:47.000Z</time>
        <extensions>
          <ns3:TrackPointExtension>
            <ns3:atemp>18.0</ns3:atemp>
          </ns3:TrackPointExtension>
        </extensions>
      </trkpt>
      <trkpt lat="43.11962102539837360382080078125" lon="13.00353915430605411529541015625">
        <ele>850.20001220703125</ele>
        <time>2021-06-06T07:52:49.000Z</time>
        <extensions>
          <ns3:TrackPointExtension>
            <ns3:atemp>18.0</ns3:atemp>
          </ns3:TrackPointExtension>
        </extensions>
      </trkpt>
      <trkpt lat="43.11951465904712677001953125" lon="13.00356455147266387939453125">
        <ele>851.4000244140625</ele>
        <time>2021-06-06T07:52:53.000Z</time>
        <extensions>
          <ns3:TrackPointExtension>
            <ns3:atemp>18.0</ns3:atemp>
          </ns3:TrackPointExtension>
        </extensions>
      </trkpt>
      <trkpt lat="43.119488842785358428955078125" lon="13.0035771243274211883544921875">
        <ele>851.5999755859375</ele>
        <time>2021-06-06T07:52:54.000Z</time>
        <extensions>
          <ns3:TrackPointExtension>
            <ns3:atemp>18.0</ns3:atemp>
          </ns3:TrackPointExtension>
        </extensions>
      </trkpt>
      <trkpt lat="43.11942136846482753753662109375" lon="13.00356513820588588714599609375">
        <ele>852.20001220703125</ele>
        <time>2021-06-06T07:52:57.000Z</time>
        <extensions>
          <ns3:TrackPointExtension>
            <ns3:atemp>18.0</ns3:atemp>
          </ns3:TrackPointExtension>
        </extensions>
      </trkpt>
      <trkpt lat="43.11939739622175693511962890625" lon="13.0035298503935337066650390625">
        <ele>852.5999755859375</ele>
        <time>2021-06-06T07:52:59.000Z</time>
        <extensions>
          <ns3:TrackPointExtension>
            <ns3:atemp>18.0</ns3:atemp>
          </ns3:TrackPointExtension>
        </extensions>
      </trkpt>
      <trkpt lat="43.1194189377129077911376953125" lon="13.00345122814178466796875">
        <ele>853</ele>
        <time>2021-06-06T07:53:03.000Z</time>
        <extensions>
          <ns3:TrackPointExtension>
            <ns3:atemp>18.0</ns3:atemp>
          </ns3:TrackPointExtension>
        </extensions>
      </trkpt>
      <trkpt lat="43.1194829754531383514404296875" lon="13.0034316144883632659912109375">
        <ele>853.5999755859375</ele>
        <time>2021-06-06T07:53:06.000Z</time>
        <extensions>
          <ns3:TrackPointExtension>
            <ns3:atemp>18.0</ns3:atemp>
          </ns3:TrackPointExtension>
        </extensions>
      </trkpt>
      <trkpt lat="43.1195077858865261077880859375" lon="13.00343236885964870452880859375">
        <ele>853.5999755859375</ele>
        <time>2021-06-06T07:53:07.000Z</time>
        <extensions>
          <ns3:TrackPointExtension>
            <ns3:atemp>18.0</ns3:atemp>
          </ns3:TrackPointExtension>
        </extensions>
      </trkpt>
      <trkpt lat="43.1195528805255889892578125" lon="13.00343370996415615081787109375">
        <ele>853.79998779296875</ele>
        <time>2021-06-06T07:53:09.000Z</time>
        <extensions>
          <ns3:TrackPointExtension>
            <ns3:atemp>18.0</ns3:atemp>
          </ns3:TrackPointExtension>
        </extensions>
      </trkpt>
      <trkpt lat="43.11968766152858734130859375" lon="13.00341292284429073333740234375">
        <ele>854.5999755859375</ele>
        <time>2021-06-06T07:53:15.000Z</time>
        <extensions>
          <ns3:TrackPointExtension>
            <ns3:atemp>18.0</ns3:atemp>
          </ns3:TrackPointExtension>
        </extensions>
      </trkpt>
      <trkpt lat="43.11973191797733306884765625" lon="13.00340219400823116302490234375">
        <ele>854.79998779296875</ele>
        <time>2021-06-06T07:53:17.000Z</time>
        <extensions>
          <ns3:TrackPointExtension>
            <ns3:atemp>18.0</ns3:atemp>
          </ns3:TrackPointExtension>
        </extensions>
      </trkpt>
      <trkpt lat="43.119833171367645263671875" lon="13.00336095504462718963623046875">
        <ele>855.5999755859375</ele>
        <time>2021-06-06T07:53:22.000Z</time>
        <extensions>
          <ns3:TrackPointExtension>
            <ns3:atemp>18.0</ns3:atemp>
          </ns3:TrackPointExtension>
        </extensions>
      </trkpt>
      <trkpt lat="43.11987181194126605987548828125" lon="13.00334268249571323394775390625">
        <ele>856.4000244140625</ele>
        <time>2021-06-06T07:53:24.000Z</time>
        <extensions>
          <ns3:TrackPointExtension>
            <ns3:atemp>18.0</ns3:atemp>
          </ns3:TrackPointExtension>
        </extensions>
      </trkpt>
      <trkpt lat="43.11988991685211658477783203125" lon="13.00332776270806789398193359375">
        <ele>856.79998779296875</ele>
        <time>2021-06-06T07:53:25.000Z</time>
        <extensions>
          <ns3:TrackPointExtension>
            <ns3:atemp>18.0</ns3:atemp>
          </ns3:TrackPointExtension>
        </extensions>
      </trkpt>
      <trkpt lat="43.1199620850384235382080078125" lon="13.00328065641224384307861328125">
        <ele>858</ele>
        <time>2021-06-06T07:53:29.000Z</time>
        <extensions>
          <ns3:TrackPointExtension>
            <ns3:atemp>18.0</ns3:atemp>
          </ns3:TrackPointExtension>
        </extensions>
      </trkpt>
      <trkpt lat="43.11999821104109287261962890625" lon="13.0032498948276042938232421875">
        <ele>858.5999755859375</ele>
        <time>2021-06-06T07:53:31.000Z</time>
        <extensions>
          <ns3:TrackPointExtension>
            <ns3:atemp>18.0</ns3:atemp>
          </ns3:TrackPointExtension>
        </extensions>
      </trkpt>
      <trkpt lat="43.12003676779568195343017578125" lon="13.00322080962359905242919921875">
        <ele>859.20001220703125</ele>
        <time>2021-06-06T07:53:33.000Z</time>
        <extensions>
          <ns3:TrackPointExtension>
            <ns3:atemp>18.0</ns3:atemp>
          </ns3:TrackPointExtension>
        </extensions>
      </trkpt>
      <trkpt lat="43.12009074725210666656494140625" lon="13.00318191759288311004638671875">
        <ele>859.4000244140625</ele>
        <time>2021-06-06T07:53:36.000Z</time>
        <extensions>
          <ns3:TrackPointExtension>
            <ns3:atemp>18.0</ns3:atemp>
          </ns3:TrackPointExtension>
        </extensions>
      </trkpt>
      <trkpt lat="43.1201525218784809112548828125" lon="13.0031402595341205596923828125">
        <ele>860</ele>
        <time>2021-06-06T07:53:39.000Z</time>
        <extensions>
          <ns3:TrackPointExtension>
            <ns3:atemp>18.0</ns3:atemp>
          </ns3:TrackPointExtension>
        </extensions>
      </trkpt>
      <trkpt lat="43.12021647579967975616455078125" lon="13.0031017027795314788818359375">
        <ele>860.5999755859375</ele>
        <time>2021-06-06T07:53:42.000Z</time>
        <extensions>
          <ns3:TrackPointExtension>
            <ns3:atemp>18.0</ns3:atemp>
          </ns3:TrackPointExtension>
        </extensions>
      </trkpt>
      <trkpt lat="43.12025704421103000640869140625" lon="13.0030795745551586151123046875">
        <ele>861</ele>
        <time>2021-06-06T07:53:44.000Z</time>
        <extensions>
          <ns3:TrackPointExtension>
            <ns3:atemp>18.0</ns3:atemp>
          </ns3:TrackPointExtension>
        </extensions>
      </trkpt>
      <trkpt lat="43.120385706424713134765625" lon="13.0030172131955623626708984375">
        <ele>862.20001220703125</ele>
        <time>2021-06-06T07:53:50.000Z</time>
        <extensions>
          <ns3:TrackPointExtension>
            <ns3:atemp>18.0</ns3:atemp>
          </ns3:TrackPointExtension>
        </extensions>
      </trkpt>
      <trkpt lat="43.12046960927546024322509765625" lon="13.002968095242977142333984375">
        <ele>863.4000244140625</ele>
        <time>2021-06-06T07:53:54.000Z</time>
        <extensions>
          <ns3:TrackPointExtension>
            <ns3:atemp>18.0</ns3:atemp>
          </ns3:TrackPointExtension>
        </extensions>
      </trkpt>
      <trkpt lat="43.12052962370216846466064453125" lon="13.00293548963963985443115234375">
        <ele>864</ele>
        <time>2021-06-06T07:53:57.000Z</time>
        <extensions>
          <ns3:TrackPointExtension>
            <ns3:atemp>18.0</ns3:atemp>
          </ns3:TrackPointExtension>
        </extensions>
      </trkpt>
      <trkpt lat="43.12057203613221645355224609375" lon="13.0029132775962352752685546875">
        <ele>864.4000244140625</ele>
        <time>2021-06-06T07:53:59.000Z</time>
        <extensions>
          <ns3:TrackPointExtension>
            <ns3:atemp>18.0</ns3:atemp>
          </ns3:TrackPointExtension>
        </extensions>
      </trkpt>
      <trkpt lat="43.12070279382169246673583984375" lon="13.00284613855183124542236328125">
        <ele>865.4000244140625</ele>
        <time>2021-06-06T07:54:05.000Z</time>
        <extensions>
          <ns3:TrackPointExtension>
            <ns3:atemp>18.0</ns3:atemp>
          </ns3:TrackPointExtension>
        </extensions>
      </trkpt>
      <trkpt lat="43.12080421485006809234619140625" lon="13.00280171446502208709716796875">
        <ele>866.5999755859375</ele>
        <time>2021-06-06T07:54:10.000Z</time>
        <extensions>
          <ns3:TrackPointExtension>
            <ns3:atemp>18.0</ns3:atemp>
          </ns3:TrackPointExtension>
        </extensions>
      </trkpt>
      <trkpt lat="43.12084645964205265045166015625" lon="13.00278059206902980804443359375">
        <ele>867.20001220703125</ele>
        <time>2021-06-06T07:54:12.000Z</time>
        <extensions>
          <ns3:TrackPointExtension>
            <ns3:atemp>18.0</ns3:atemp>
          </ns3:TrackPointExtension>
        </extensions>
      </trkpt>
      <trkpt lat="43.12090680934488773345947265625" lon="13.00274739973247051239013671875">
        <ele>868</ele>
        <time>2021-06-06T07:54:15.000Z</time>
        <extensions>
          <ns3:TrackPointExtension>
            <ns3:atemp>18.0</ns3:atemp>
          </ns3:TrackPointExtension>
        </extensions>
      </trkpt>
      <trkpt lat="43.12101225368678569793701171875" lon="13.00268302671611309051513671875">
        <ele>869.20001220703125</ele>
        <time>2021-06-06T07:54:20.000Z</time>
        <extensions>
          <ns3:TrackPointExtension>
            <ns3:atemp>18.0</ns3:atemp>
          </ns3:TrackPointExtension>
        </extensions>
      </trkpt>
      <trkpt lat="43.121115267276763916015625" lon="13.00261194817721843719482421875">
        <ele>870.20001220703125</ele>
        <time>2021-06-06T07:54:25.000Z</time>
        <extensions>
          <ns3:TrackPointExtension>
            <ns3:atemp>18.0</ns3:atemp>
          </ns3:TrackPointExtension>
        </extensions>
      </trkpt>
      <trkpt lat="43.1211335398256778717041015625" lon="13.0025951005518436431884765625">
        <ele>870.4000244140625</ele>
        <time>2021-06-06T07:54:26.000Z</time>
        <extensions>
          <ns3:TrackPointExtension>
            <ns3:atemp>18.0</ns3:atemp>
          </ns3:TrackPointExtension>
        </extensions>
      </trkpt>
      <trkpt lat="43.1212384812533855438232421875" lon="13.00251270644366741180419921875">
        <ele>871.20001220703125</ele>
        <time>2021-06-06T07:54:31.000Z</time>
        <extensions>
          <ns3:TrackPointExtension>
            <ns3:atemp>18.0</ns3:atemp>
          </ns3:TrackPointExtension>
        </extensions>
      </trkpt>
      <trkpt lat="43.121259100735187530517578125" lon="13.00249309279024600982666015625">
        <ele>871.4000244140625</ele>
        <time>2021-06-06T07:54:32.000Z</time>
        <extensions>
          <ns3:TrackPointExtension>
            <ns3:atemp>18.0</ns3:atemp>
          </ns3:TrackPointExtension>
        </extensions>
      </trkpt>
      <trkpt lat="43.1213253177702426910400390625" lon="13.0024029873311519622802734375">
        <ele>872.20001220703125</ele>
        <time>2021-06-06T07:54:36.000Z</time>
        <extensions>
          <ns3:TrackPointExtension>
            <ns3:atemp>18.0</ns3:atemp>
          </ns3:TrackPointExtension>
        </extensions>
      </trkpt>
      <trkpt lat="43.12139849178493022918701171875" lon="13.002313636243343353271484375">
        <ele>873</ele>
        <time>2021-06-06T07:54:40.000Z</time>
        <extensions>
          <ns3:TrackPointExtension>
            <ns3:atemp>18.0</ns3:atemp>
          </ns3:TrackPointExtension>
        </extensions>
      </trkpt>
      <trkpt lat="43.1214128248393535614013671875" lon="13.00229863263666629791259765625">
        <ele>873.20001220703125</ele>
        <time>2021-06-06T07:54:41.000Z</time>
        <extensions>
          <ns3:TrackPointExtension>
            <ns3:atemp>18.0</ns3:atemp>
          </ns3:TrackPointExtension>
        </extensions>
      </trkpt>
      <trkpt lat="43.12153377570211887359619140625" lon="13.002200983464717864990234375">
        <ele>873.79998779296875</ele>
        <time>2021-06-06T07:54:46.000Z</time>
        <extensions>
          <ns3:TrackPointExtension>
            <ns3:atemp>18.0</ns3:atemp>
          </ns3:TrackPointExtension>
        </extensions>
      </trkpt>
      <trkpt lat="43.1215787865221500396728515625" lon="13.00217340700328350067138671875">
        <ele>874.4000244140625</ele>
        <time>2021-06-06T07:54:48.000Z</time>
        <extensions>
          <ns3:TrackPointExtension>
            <ns3:atemp>18.0</ns3:atemp>
          </ns3:TrackPointExtension>
        </extensions>
      </trkpt>
      <trkpt lat="43.12168062664568424224853515625" lon="13.002117834985256195068359375">
        <ele>875.4000244140625</ele>
        <time>2021-06-06T07:54:52.000Z</time>
        <extensions>
          <ns3:TrackPointExtension>
            <ns3:atemp>18.0</ns3:atemp>
          </ns3:TrackPointExtension>
        </extensions>
      </trkpt>
      <trkpt lat="43.12182261608541011810302734375" lon="13.00204365514218807220458984375">
        <ele>876.5999755859375</ele>
        <time>2021-06-06T07:54:57.000Z</time>
        <extensions>
          <ns3:TrackPointExtension>
            <ns3:atemp>18.0</ns3:atemp>
          </ns3:TrackPointExtension>
        </extensions>
      </trkpt>
      <trkpt lat="43.12191917560994625091552734375" lon="13.0020103789865970611572265625">
        <ele>877.20001220703125</ele>
        <time>2021-06-06T07:55:00.000Z</time>
        <extensions>
          <ns3:TrackPointExtension>
            <ns3:atemp>18.0</ns3:atemp>
          </ns3:TrackPointExtension>
        </extensions>
      </trkpt>
      <trkpt lat="43.12204607762396335601806640625" lon="13.001975007355213165283203125">
        <ele>877.79998779296875</ele>
        <time>2021-06-06T07:55:04.000Z</time>
        <extensions>
          <ns3:TrackPointExtension>
            <ns3:atemp>18.0</ns3:atemp>
          </ns3:TrackPointExtension>
        </extensions>
      </trkpt>
      <trkpt lat="43.1221707165241241455078125" lon="13.00194860436022281646728515625">
        <ele>878.5999755859375</ele>
        <time>2021-06-06T07:55:08.000Z</time>
        <extensions>
          <ns3:TrackPointExtension>
            <ns3:atemp>18.0</ns3:atemp>
          </ns3:TrackPointExtension>
        </extensions>
      </trkpt>
      <trkpt lat="43.122315891087055206298828125" lon="13.0019064433872699737548828125">
        <ele>879.79998779296875</ele>
        <time>2021-06-06T07:55:13.000Z</time>
        <extensions>
          <ns3:TrackPointExtension>
            <ns3:atemp>18.0</ns3:atemp>
          </ns3:TrackPointExtension>
        </extensions>
      </trkpt>
      <trkpt lat="43.1224005483090877532958984375" lon="13.00187383778393268585205078125">
        <ele>880.4000244140625</ele>
        <time>2021-06-06T07:55:16.000Z</time>
        <extensions>
          <ns3:TrackPointExtension>
            <ns3:atemp>18.0</ns3:atemp>
          </ns3:TrackPointExtension>
        </extensions>
      </trkpt>
      <trkpt lat="43.1224890612065792083740234375" lon="13.0018450878560543060302734375">
        <ele>881</ele>
        <time>2021-06-06T07:55:19.000Z</time>
        <extensions>
          <ns3:TrackPointExtension>
            <ns3:atemp>18.0</ns3:atemp>
          </ns3:TrackPointExtension>
        </extensions>
      </trkpt>
      <trkpt lat="43.1226007081568241119384765625" lon="13.00181583501398563385009765625">
        <ele>882</ele>
        <time>2021-06-06T07:55:23.000Z</time>
        <extensions>
          <ns3:TrackPointExtension>
            <ns3:atemp>18.0</ns3:atemp>
          </ns3:TrackPointExtension>
        </extensions>
      </trkpt>
      <trkpt lat="43.122627697885036468505859375" lon="13.0018082074820995330810546875">
        <ele>882.20001220703125</ele>
        <time>2021-06-06T07:55:24.000Z</time>
        <extensions>
          <ns3:TrackPointExtension>
            <ns3:atemp>18.0</ns3:atemp>
          </ns3:TrackPointExtension>
        </extensions>
      </trkpt>
      <trkpt lat="43.12273875810205936431884765625" lon="13.00178230740129947662353515625">
        <ele>883.4000244140625</ele>
        <time>2021-06-06T07:55:28.000Z</time>
        <extensions>
          <ns3:TrackPointExtension>
            <ns3:atemp>18.0</ns3:atemp>
          </ns3:TrackPointExtension>
        </extensions>
      </trkpt>
      <trkpt lat="43.12276826240122318267822265625" lon="13.00177476368844509124755859375">
        <ele>883.5999755859375</ele>
        <time>2021-06-06T07:55:29.000Z</time>
        <extensions>
          <ns3:TrackPointExtension>
            <ns3:atemp>18.0</ns3:atemp>
          </ns3:TrackPointExtension>
        </extensions>
      </trkpt>
      <trkpt lat="43.122878484427928924560546875" lon="13.00174467265605926513671875">
        <ele>884.5999755859375</ele>
        <time>2021-06-06T07:55:33.000Z</time>
        <extensions>
          <ns3:TrackPointExtension>
            <ns3:atemp>18.0</ns3:atemp>
          </ns3:TrackPointExtension>
        </extensions>
      </trkpt>
      <trkpt lat="43.12298736535012722015380859375" lon="13.00172380171716213226318359375">
        <ele>885.5999755859375</ele>
        <time>2021-06-06T07:55:37.000Z</time>
        <extensions>
          <ns3:TrackPointExtension>
            <ns3:atemp>17.0</ns3:atemp>
          </ns3:TrackPointExtension>
        </extensions>
      </trkpt>
      <trkpt lat="43.12308727763593196868896484375" lon="13.00171516835689544677734375">
        <ele>886.79998779296875</ele>
        <time>2021-06-06T07:55:41.000Z</time>
        <extensions>
          <ns3:TrackPointExtension>
            <ns3:atemp>17.0</ns3:atemp>
          </ns3:TrackPointExtension>
        </extensions>
      </trkpt>
      <trkpt lat="43.12314025126397609710693359375" lon="13.00171558745205402374267578125">
        <ele>887.20001220703125</ele>
        <time>2021-06-06T07:55:43.000Z</time>
        <extensions>
          <ns3:TrackPointExtension>
            <ns3:atemp>17.0</ns3:atemp>
          </ns3:TrackPointExtension>
        </extensions>
      </trkpt>
      <trkpt lat="43.123188950121402740478515625" lon="13.00172078423202037811279296875">
        <ele>887.79998779296875</ele>
        <time>2021-06-06T07:55:45.000Z</time>
        <extensions>
          <ns3:TrackPointExtension>
            <ns3:atemp>17.0</ns3:atemp>
          </ns3:TrackPointExtension>
        </extensions>
      </trkpt>
      <trkpt lat="43.12329120934009552001953125" lon="13.00173126161098480224609375">
        <ele>889</ele>
        <time>2021-06-06T07:55:49.000Z</time>
        <extensions>
          <ns3:TrackPointExtension>
            <ns3:atemp>17.0</ns3:atemp>
          </ns3:TrackPointExtension>
        </extensions>
      </trkpt>
      <trkpt lat="43.12331375665962696075439453125" lon="13.0017317645251750946044921875">
        <ele>889.20001220703125</ele>
        <time>2021-06-06T07:55:50.000Z</time>
        <extensions>
          <ns3:TrackPointExtension>
            <ns3:atemp>17.0</ns3:atemp>
          </ns3:TrackPointExtension>
        </extensions>
      </trkpt>
      <trkpt lat="43.1234134174883365631103515625" lon="13.00174643285572528839111328125">
        <ele>890.20001220703125</ele>
        <time>2021-06-06T07:55:54.000Z</time>
        <extensions>
          <ns3:TrackPointExtension>
            <ns3:atemp>17.0</ns3:atemp>
          </ns3:TrackPointExtension>
        </extensions>
      </trkpt>
      <trkpt lat="43.1235300935804843902587890625" lon="13.00175833515822887420654296875">
        <ele>891.20001220703125</ele>
        <time>2021-06-06T07:55:58.000Z</time>
        <extensions>
          <ns3:TrackPointExtension>
            <ns3:atemp>17.0</ns3:atemp>
          </ns3:TrackPointExtension>
        </extensions>
      </trkpt>
      <trkpt lat="43.12356102280318737030029296875" lon="13.00175749696791172027587890625">
        <ele>891.5999755859375</ele>
        <time>2021-06-06T07:55:59.000Z</time>
        <extensions>
          <ns3:TrackPointExtension>
            <ns3:atemp>17.0</ns3:atemp>
          </ns3:TrackPointExtension>
        </extensions>
      </trkpt>
      <trkpt lat="43.12361936084926128387451171875" lon="13.0017600953578948974609375">
        <ele>892.20001220703125</ele>
        <time>2021-06-06T07:56:01.000Z</time>
        <extensions>
          <ns3:TrackPointExtension>
            <ns3:atemp>17.0</ns3:atemp>
          </ns3:TrackPointExtension>
        </extensions>
      </trkpt>
      <trkpt lat="43.1237577460706233978271484375" lon="13.001771159470081329345703125">
        <ele>893.20001220703125</ele>
        <time>2021-06-06T07:56:06.000Z</time>
        <extensions>
          <ns3:TrackPointExtension>
            <ns3:atemp>17.0</ns3:atemp>
          </ns3:TrackPointExtension>
        </extensions>
      </trkpt>
      <trkpt lat="43.12388800084590911865234375" lon="13.001765795052051544189453125">
        <ele>894.4000244140625</ele>
        <time>2021-06-06T07:56:11.000Z</time>
        <extensions>
          <ns3:TrackPointExtension>
            <ns3:atemp>17.0</ns3:atemp>
          </ns3:TrackPointExtension>
        </extensions>
      </trkpt>
      <trkpt lat="43.12394625507295131683349609375" lon="13.00175540149211883544921875">
        <ele>894.79998779296875</ele>
        <time>2021-06-06T07:56:13.000Z</time>
        <extensions>
          <ns3:TrackPointExtension>
            <ns3:atemp>17.0</ns3:atemp>
          </ns3:TrackPointExtension>
        </extensions>
      </trkpt>
      <trkpt lat="43.12403124757111072540283203125" lon="13.00174375064671039581298828125">
        <ele>895.5999755859375</ele>
        <time>2021-06-06T07:56:16.000Z</time>
        <extensions>
          <ns3:TrackPointExtension>
            <ns3:atemp>17.0</ns3:atemp>
          </ns3:TrackPointExtension>
        </extensions>
      </trkpt>
      <trkpt lat="43.12414473854005336761474609375" lon="13.001736290752887725830078125">
        <ele>896.79998779296875</ele>
        <time>2021-06-06T07:56:20.000Z</time>
        <extensions>
          <ns3:TrackPointExtension>
            <ns3:atemp>17.0</ns3:atemp>
          </ns3:TrackPointExtension>
        </extensions>
      </trkpt>
      <trkpt lat="43.1241996400058269500732421875" lon="13.00172547809779644012451171875">
        <ele>897.4000244140625</ele>
        <time>2021-06-06T07:56:22.000Z</time>
        <extensions>
          <ns3:TrackPointExtension>
            <ns3:atemp>17.0</ns3:atemp>
          </ns3:TrackPointExtension>
        </extensions>
      </trkpt>
      <trkpt lat="43.1242794357240200042724609375" lon="13.00170821137726306915283203125">
        <ele>898.20001220703125</ele>
        <time>2021-06-06T07:56:25.000Z</time>
        <extensions>
          <ns3:TrackPointExtension>
            <ns3:atemp>17.0</ns3:atemp>
          </ns3:TrackPointExtension>
        </extensions>
      </trkpt>
      <trkpt lat="43.124386556446552276611328125" lon="13.00167937763035297393798828125">
        <ele>899.20001220703125</ele>
        <time>2021-06-06T07:56:29.000Z</time>
        <extensions>
          <ns3:TrackPointExtension>
            <ns3:atemp>17.0</ns3:atemp>
          </ns3:TrackPointExtension>
        </extensions>
      </trkpt>
      <trkpt lat="43.12441195361316204071044921875" lon="13.00167015753686428070068359375">
        <ele>899.5999755859375</ele>
        <time>2021-06-06T07:56:30.000Z</time>
        <extensions>
          <ns3:TrackPointExtension>
            <ns3:atemp>17.0</ns3:atemp>
          </ns3:TrackPointExtension>
        </extensions>
      </trkpt>
      <trkpt lat="43.1244668550789356231689453125" lon="13.001658506691455841064453125">
        <ele>900.4000244140625</ele>
        <time>2021-06-06T07:56:32.000Z</time>
        <extensions>
          <ns3:TrackPointExtension>
            <ns3:atemp>17.0</ns3:atemp>
          </ns3:TrackPointExtension>
        </extensions>
      </trkpt>
      <trkpt lat="43.12452527694404125213623046875" lon="13.00165624357759952545166015625">
        <ele>901</ele>
        <time>2021-06-06T07:56:35.000Z</time>
        <extensions>
          <ns3:TrackPointExtension>
            <ns3:atemp>17.0</ns3:atemp>
          </ns3:TrackPointExtension>
        </extensions>
      </trkpt>
      <trkpt lat="43.12453248538076877593994140625" lon="13.00164400599896907806396484375">
        <ele>901.4000244140625</ele>
        <time>2021-06-06T07:56:36.000Z</time>
        <extensions>
          <ns3:TrackPointExtension>
            <ns3:atemp>17.0</ns3:atemp>
          </ns3:TrackPointExtension>
        </extensions>
      </trkpt>
      <trkpt lat="43.12453684397041797637939453125" lon="13.00164065323770046234130859375">
        <ele>902.4000244140625</ele>
        <time>2021-06-06T07:56:40.000Z</time>
        <extensions>
          <ns3:TrackPointExtension>
            <ns3:atemp>17.0</ns3:atemp>
          </ns3:TrackPointExtension>
        </extensions>
      </trkpt>
      <trkpt lat="43.1245315633714199066162109375" lon="13.0016452632844448089599609375">
        <ele>903.5999755859375</ele>
        <time>2021-06-06T07:56:45.000Z</time>
        <extensions>
          <ns3:TrackPointExtension>
            <ns3:atemp>17.0</ns3:atemp>
          </ns3:TrackPointExtension>
        </extensions>
      </trkpt>
      <trkpt lat="43.12453131191432476043701171875" lon="13.0016452632844448089599609375">
        <ele>903.5999755859375</ele>
        <time>2021-06-06T07:56:46.000Z</time>
        <extensions>
          <ns3:TrackPointExtension>
            <ns3:atemp>17.0</ns3:atemp>
          </ns3:TrackPointExtension>
        </extensions>
      </trkpt>
      <trkpt lat="43.12453173100948333740234375" lon="13.00164400599896907806396484375">
        <ele>903.5999755859375</ele>
        <time>2021-06-06T07:57:00.000Z</time>
        <extensions>
          <ns3:TrackPointExtension>
            <ns3:atemp>17.0</ns3:atemp>
          </ns3:TrackPointExtension>
        </extensions>
      </trkpt>
      <trkpt lat="43.12453349120914936065673828125" lon="13.00164232961833477020263671875">
        <ele>903.5999755859375</ele>
        <time>2021-06-06T07:57:38.000Z</time>
        <extensions>
          <ns3:TrackPointExtension>
            <ns3:atemp>18.0</ns3:atemp>
          </ns3:TrackPointExtension>
        </extensions>
      </trkpt>
      <trkpt lat="43.12453466467559337615966796875" lon="13.00164266489446163177490234375">
        <ele>903.4000244140625</ele>
        <time>2021-06-06T07:58:03.000Z</time>
        <extensions>
          <ns3:TrackPointExtension>
            <ns3:atemp>18.0</ns3:atemp>
          </ns3:TrackPointExtension>
        </extensions>
      </trkpt>
      <trkpt lat="43.124534748494625091552734375" lon="13.001643083989620208740234375">
        <ele>903.20001220703125</ele>
        <time>2021-06-06T07:58:13.000Z</time>
        <extensions>
          <ns3:TrackPointExtension>
            <ns3:atemp>18.0</ns3:atemp>
          </ns3:TrackPointExtension>
        </extensions>
      </trkpt>
      <trkpt lat="43.12453483231365680694580078125" lon="13.00165356136858463287353515625">
        <ele>903.20001220703125</ele>
        <time>2021-06-06T07:58:20.000Z</time>
        <extensions>
          <ns3:TrackPointExtension>
            <ns3:atemp>18.0</ns3:atemp>
          </ns3:TrackPointExtension>
        </extensions>
      </trkpt>
      <trkpt lat="43.1245174817740917205810546875" lon="13.0016452632844448089599609375">
        <ele>903</ele>
        <time>2021-06-06T07:58:26.000Z</time>
        <extensions>
          <ns3:TrackPointExtension>
            <ns3:atemp>18.0</ns3:atemp>
          </ns3:TrackPointExtension>
        </extensions>
      </trkpt>
      <trkpt lat="43.12452712096273899078369140625" lon="13.00160259939730167388916015625">
        <ele>903</ele>
        <time>2021-06-06T07:58:32.000Z</time>
        <extensions>
          <ns3:TrackPointExtension>
            <ns3:atemp>18.0</ns3:atemp>
          </ns3:TrackPointExtension>
        </extensions>
      </trkpt>
      <trkpt lat="43.12452980317175388336181640625" lon="13.001590110361576080322265625">
        <ele>903</ele>
        <time>2021-06-06T07:58:33.000Z</time>
        <extensions>
          <ns3:TrackPointExtension>
            <ns3:atemp>18.0</ns3:atemp>
          </ns3:TrackPointExtension>
        </extensions>
      </trkpt>
      <trkpt lat="43.12452343292534351348876953125" lon="13.0015562474727630615234375">
        <ele>903</ele>
        <time>2021-06-06T07:58:39.000Z</time>
        <extensions>
          <ns3:TrackPointExtension>
            <ns3:atemp>18.0</ns3:atemp>
          </ns3:TrackPointExtension>
        </extensions>
      </trkpt>
      <trkpt lat="43.12451974488794803619384765625" lon="13.0015482008457183837890625">
        <ele>903.4000244140625</ele>
        <time>2021-06-06T07:59:11.000Z</time>
        <extensions>
          <ns3:TrackPointExtension>
            <ns3:atemp>18.0</ns3:atemp>
          </ns3:TrackPointExtension>
        </extensions>
      </trkpt>
      <trkpt lat="43.124510608613491058349609375" lon="13.00152917392551898956298828125">
        <ele>903.4000244140625</ele>
        <time>2021-06-06T07:59:12.000Z</time>
        <extensions>
          <ns3:TrackPointExtension>
            <ns3:atemp>18.0</ns3:atemp>
          </ns3:TrackPointExtension>
        </extensions>
      </trkpt>
      <trkpt lat="43.12447783537209033966064453125" lon="13.001462705433368682861328125">
        <ele>903.4000244140625</ele>
        <time>2021-06-06T07:59:15.000Z</time>
        <extensions>
          <ns3:TrackPointExtension>
            <ns3:atemp>18.0</ns3:atemp>
          </ns3:TrackPointExtension>
        </extensions>
      </trkpt>
      <trkpt lat="43.12432461418211460113525390625" lon="13.0012643896043300628662109375">
        <ele>903.20001220703125</ele>
        <time>2021-06-06T07:59:23.000Z</time>
        <extensions>
          <ns3:TrackPointExtension>
            <ns3:atemp>18.0</ns3:atemp>
          </ns3:TrackPointExtension>
        </extensions>
      </trkpt>
      <trkpt lat="43.12416971661150455474853515625" lon="13.001063056290149688720703125">
        <ele>904.79998779296875</ele>
        <time>2021-06-06T07:59:31.000Z</time>
        <extensions>
          <ns3:TrackPointExtension>
            <ns3:atemp>18.0</ns3:atemp>
          </ns3:TrackPointExtension>
        </extensions>
      </trkpt>
      <trkpt lat="43.124102912843227386474609375" lon="13.0009639821946620941162109375">
        <ele>905.79998779296875</ele>
        <time>2021-06-06T07:59:35.000Z</time>
        <extensions>
          <ns3:TrackPointExtension>
            <ns3:atemp>18.0</ns3:atemp>
          </ns3:TrackPointExtension>
        </extensions>
      </trkpt>
      <trkpt lat="43.12404030002653598785400390625" lon="13.000869937241077423095703125">
        <ele>907</ele>
        <time>2021-06-06T07:59:39.000Z</time>
        <extensions>
          <ns3:TrackPointExtension>
            <ns3:atemp>18.0</ns3:atemp>
          </ns3:TrackPointExtension>
        </extensions>
      </trkpt>
      <trkpt lat="43.12402504496276378631591796875" lon="13.00084353424608707427978515625">
        <ele>907.20001220703125</ele>
        <time>2021-06-06T07:59:40.000Z</time>
        <extensions>
          <ns3:TrackPointExtension>
            <ns3:atemp>18.0</ns3:atemp>
          </ns3:TrackPointExtension>
        </extensions>
      </trkpt>
      <trkpt lat="43.12395363114774227142333984375" lon="13.000696934759616851806640625">
        <ele>908.4000244140625</ele>
        <time>2021-06-06T07:59:45.000Z</time>
        <extensions>
          <ns3:TrackPointExtension>
            <ns3:atemp>18.0</ns3:atemp>
          </ns3:TrackPointExtension>
        </extensions>
      </trkpt>
      <trkpt lat="43.12392563559114933013916015625" lon="13.00064119510352611541748046875">
        <ele>908.79998779296875</ele>
        <time>2021-06-06T07:59:47.000Z</time>
        <extensions>
          <ns3:TrackPointExtension>
            <ns3:atemp>18.0</ns3:atemp>
          </ns3:TrackPointExtension>
        </extensions>
      </trkpt>
      <trkpt lat="43.1238828040659427642822265625" lon="13.00056609325110912322998046875">
        <ele>909.4000244140625</ele>
        <time>2021-06-06T07:59:50.000Z</time>
        <extensions>
          <ns3:TrackPointExtension>
            <ns3:atemp>18.0</ns3:atemp>
          </ns3:TrackPointExtension>
        </extensions>
      </trkpt>
      <trkpt lat="43.12381851486861705780029296875" lon="13.0004768259823322296142578125">
        <ele>910</ele>
        <time>2021-06-06T07:59:54.000Z</time>
        <extensions>
          <ns3:TrackPointExtension>
            <ns3:atemp>18.0</ns3:atemp>
          </ns3:TrackPointExtension>
        </extensions>
      </trkpt>
      <trkpt lat="43.1237429939210414886474609375" lon="13.0003856308758258819580078125">
        <ele>910.5999755859375</ele>
        <time>2021-06-06T07:59:58.000Z</time>
        <extensions>
          <ns3:TrackPointExtension>
            <ns3:atemp>18.0</ns3:atemp>
          </ns3:TrackPointExtension>
        </extensions>
      </trkpt>
      <trkpt lat="43.12368792481720447540283203125" lon="13.000319413840770721435546875">
        <ele>911.20001220703125</ele>
        <time>2021-06-06T08:00:01.000Z</time>
        <extensions>
          <ns3:TrackPointExtension>
            <ns3:atemp>18.0</ns3:atemp>
          </ns3:TrackPointExtension>
        </extensions>
      </trkpt>
      <trkpt lat="43.1236539781093597412109375" lon="13.00026811659336090087890625">
        <ele>911.5999755859375</ele>
        <time>2021-06-06T08:00:03.000Z</time>
        <extensions>
          <ns3:TrackPointExtension>
            <ns3:atemp>18.0</ns3:atemp>
          </ns3:TrackPointExtension>
        </extensions>
      </trkpt>
      <trkpt lat="43.123584575951099395751953125" lon="13.00016979686915874481201171875">
        <ele>913</ele>
        <time>2021-06-06T08:00:07.000Z</time>
        <extensions>
          <ns3:TrackPointExtension>
            <ns3:atemp>18.0</ns3:atemp>
          </ns3:TrackPointExtension>
        </extensions>
      </trkpt>
      <trkpt lat="43.1235547363758087158203125" lon="13.0001164041459560394287109375">
        <ele>913.4000244140625</ele>
        <time>2021-06-06T08:00:09.000Z</time>
        <extensions>
          <ns3:TrackPointExtension>
            <ns3:atemp>18.0</ns3:atemp>
          </ns3:TrackPointExtension>
        </extensions>
      </trkpt>
      <trkpt lat="43.123507462441921234130859375" lon="13.0000386200845241546630859375">
        <ele>914</ele>
        <time>2021-06-06T08:00:12.000Z</time>
        <extensions>
          <ns3:TrackPointExtension>
            <ns3:atemp>18.0</ns3:atemp>
          </ns3:TrackPointExtension>
        </extensions>
      </trkpt>
      <trkpt lat="43.12344736419618129730224609375" lon="12.99993610940873622894287109375">
        <ele>914.79998779296875</ele>
        <time>2021-06-06T08:00:16.000Z</time>
        <extensions>
          <ns3:TrackPointExtension>
            <ns3:atemp>18.0</ns3:atemp>
          </ns3:TrackPointExtension>
        </extensions>
      </trkpt>
      <trkpt lat="43.1234308518469333648681640625" lon="12.99990543164312839508056640625">
        <ele>915.20001220703125</ele>
        <time>2021-06-06T08:00:17.000Z</time>
        <extensions>
          <ns3:TrackPointExtension>
            <ns3:atemp>18.0</ns3:atemp>
          </ns3:TrackPointExtension>
        </extensions>
      </trkpt>
      <trkpt lat="43.12334862537682056427001953125" lon="12.99975573085248470306396484375">
        <ele>915.79998779296875</ele>
        <time>2021-06-06T08:00:22.000Z</time>
        <extensions>
          <ns3:TrackPointExtension>
            <ns3:atemp>18.0</ns3:atemp>
          </ns3:TrackPointExtension>
        </extensions>
      </trkpt>
      <trkpt lat="43.123314678668975830078125" lon="12.99970460124313831329345703125">
        <ele>916.4000244140625</ele>
        <time>2021-06-06T08:00:24.000Z</time>
        <extensions>
          <ns3:TrackPointExtension>
            <ns3:atemp>18.0</ns3:atemp>
          </ns3:TrackPointExtension>
        </extensions>
      </trkpt>
      <trkpt lat="43.1232454441487789154052734375" lon="12.99961566925048828125">
        <ele>917</ele>
        <time>2021-06-06T08:00:28.000Z</time>
        <extensions>
          <ns3:TrackPointExtension>
            <ns3:atemp>18.0</ns3:atemp>
          </ns3:TrackPointExtension>
        </extensions>
      </trkpt>
      <trkpt lat="43.123167492449283599853515625" lon="12.9995068721473217010498046875">
        <ele>918.20001220703125</ele>
        <time>2021-06-06T08:00:32.000Z</time>
        <extensions>
          <ns3:TrackPointExtension>
            <ns3:atemp>18.0</ns3:atemp>
          </ns3:TrackPointExtension>
        </extensions>
      </trkpt>
      <trkpt lat="43.12308442778885364532470703125" lon="12.9993727616965770721435546875">
        <ele>918.79998779296875</ele>
        <time>2021-06-06T08:00:37.000Z</time>
        <extensions>
          <ns3:TrackPointExtension>
            <ns3:atemp>18.0</ns3:atemp>
          </ns3:TrackPointExtension>
        </extensions>
      </trkpt>
      <trkpt lat="43.1230526603758335113525390625" lon="12.9993217997252941131591796875">
        <ele>919.20001220703125</ele>
        <time>2021-06-06T08:00:39.000Z</time>
        <extensions>
          <ns3:TrackPointExtension>
            <ns3:atemp>18.0</ns3:atemp>
          </ns3:TrackPointExtension>
        </extensions>
      </trkpt>
      <trkpt lat="43.12301334924995899200439453125" lon="12.9992463625967502593994140625">
        <ele>920</ele>
        <time>2021-06-06T08:00:42.000Z</time>
        <extensions>
          <ns3:TrackPointExtension>
            <ns3:atemp>18.0</ns3:atemp>
          </ns3:TrackPointExtension>
        </extensions>
      </trkpt>
      <trkpt lat="43.122978396713733673095703125" lon="12.99919523298740386962890625">
        <ele>920.4000244140625</ele>
        <time>2021-06-06T08:00:44.000Z</time>
        <extensions>
          <ns3:TrackPointExtension>
            <ns3:atemp>18.0</ns3:atemp>
          </ns3:TrackPointExtension>
        </extensions>
      </trkpt>
      <trkpt lat="43.12290002591907978057861328125" lon="12.99907210282981395721435546875">
        <ele>921</ele>
        <time>2021-06-06T08:00:49.000Z</time>
        <extensions>
          <ns3:TrackPointExtension>
            <ns3:atemp>18.0</ns3:atemp>
          </ns3:TrackPointExtension>
        </extensions>
      </trkpt>
      <trkpt lat="43.122852332890033721923828125" lon="12.9990103282034397125244140625">
        <ele>921.4000244140625</ele>
        <time>2021-06-06T08:00:52.000Z</time>
        <extensions>
          <ns3:TrackPointExtension>
            <ns3:atemp>18.0</ns3:atemp>
          </ns3:TrackPointExtension>
        </extensions>
      </trkpt>
      <trkpt lat="43.12279793433845043182373046875" lon="12.998915612697601318359375">
        <ele>922.20001220703125</ele>
        <time>2021-06-06T08:00:56.000Z</time>
        <extensions>
          <ns3:TrackPointExtension>
            <ns3:atemp>18.0</ns3:atemp>
          </ns3:TrackPointExtension>
        </extensions>
      </trkpt>
      <trkpt lat="43.12274512834846973419189453125" lon="12.9988316260278224945068359375">
        <ele>922.5999755859375</ele>
        <time>2021-06-06T08:00:59.000Z</time>
        <extensions>
          <ns3:TrackPointExtension>
            <ns3:atemp>18.0</ns3:atemp>
          </ns3:TrackPointExtension>
        </extensions>
      </trkpt>
      <trkpt lat="43.12266181223094463348388671875" lon="12.99869759939610958099365234375">
        <ele>923.4000244140625</ele>
        <time>2021-06-06T08:01:04.000Z</time>
        <extensions>
          <ns3:TrackPointExtension>
            <ns3:atemp>18.0</ns3:atemp>
          </ns3:TrackPointExtension>
        </extensions>
      </trkpt>
      <trkpt lat="43.122586794197559356689453125" lon="12.99860321916639804840087890625">
        <ele>923.5999755859375</ele>
        <time>2021-06-06T08:01:08.000Z</time>
        <extensions>
          <ns3:TrackPointExtension>
            <ns3:atemp>18.0</ns3:atemp>
          </ns3:TrackPointExtension>
        </extensions>
      </trkpt>
      <trkpt lat="43.1225329823791980743408203125" lon="12.9985151253640651702880859375">
        <ele>924.4000244140625</ele>
        <time>2021-06-06T08:01:11.000Z</time>
        <extensions>
          <ns3:TrackPointExtension>
            <ns3:atemp>18.0</ns3:atemp>
          </ns3:TrackPointExtension>
        </extensions>
      </trkpt>
      <trkpt lat="43.12249752692878246307373046875" lon="12.9984544403851032257080078125">
        <ele>924.79998779296875</ele>
        <time>2021-06-06T08:01:13.000Z</time>
        <extensions>
          <ns3:TrackPointExtension>
            <ns3:atemp>18.0</ns3:atemp>
          </ns3:TrackPointExtension>
        </extensions>
      </trkpt>
      <trkpt lat="43.122391998767852783203125" lon="12.99827297218143939971923828125">
        <ele>926</ele>
        <time>2021-06-06T08:01:19.000Z</time>
        <extensions>
          <ns3:TrackPointExtension>
            <ns3:atemp>18.0</ns3:atemp>
          </ns3:TrackPointExtension>
        </extensions>
      </trkpt>
      <trkpt lat="43.12237389385700225830078125" lon="12.9982435517013072967529296875">
        <ele>926.20001220703125</ele>
        <time>2021-06-06T08:01:20.000Z</time>
        <extensions>
          <ns3:TrackPointExtension>
            <ns3:atemp>18.0</ns3:atemp>
          </ns3:TrackPointExtension>
        </extensions>
      </trkpt>
      <trkpt lat="43.122248835861682891845703125" lon="12.99801028333604335784912109375">
        <ele>927</ele>
        <time>2021-06-06T08:01:28.000Z</time>
        <extensions>
          <ns3:TrackPointExtension>
            <ns3:atemp>18.0</ns3:atemp>
          </ns3:TrackPointExtension>
        </extensions>
      </trkpt>
      <trkpt lat="43.12215655110776424407958984375" lon="12.9977956227958202362060546875">
        <ele>927.79998779296875</ele>
        <time>2021-06-06T08:01:35.000Z</time>
        <extensions>
          <ns3:TrackPointExtension>
            <ns3:atemp>18.0</ns3:atemp>
          </ns3:TrackPointExtension>
        </extensions>
      </trkpt>
      <trkpt lat="43.12206602655351161956787109375" lon="12.9975954629480838775634765625">
        <ele>928.79998779296875</ele>
        <time>2021-06-06T08:01:42.000Z</time>
        <extensions>
          <ns3:TrackPointExtension>
            <ns3:atemp>18.0</ns3:atemp>
          </ns3:TrackPointExtension>
        </extensions>
      </trkpt>
      <trkpt lat="43.12205471098423004150390625" lon="12.9975696466863155364990234375">
        <ele>929</ele>
        <time>2021-06-06T08:01:43.000Z</time>
        <extensions>
          <ns3:TrackPointExtension>
            <ns3:atemp>18.0</ns3:atemp>
          </ns3:TrackPointExtension>
        </extensions>
      </trkpt>
      <trkpt lat="43.12199662439525127410888671875" lon="12.99743846990168094635009765625">
        <ele>929.5999755859375</ele>
        <time>2021-06-06T08:01:48.000Z</time>
        <extensions>
          <ns3:TrackPointExtension>
            <ns3:atemp>18.0</ns3:atemp>
          </ns3:TrackPointExtension>
        </extensions>
      </trkpt>
      <trkpt lat="43.12197013758122920989990234375" lon="12.9973510466516017913818359375">
        <ele>930</ele>
        <time>2021-06-06T08:01:51.000Z</time>
        <extensions>
          <ns3:TrackPointExtension>
            <ns3:atemp>18.0</ns3:atemp>
          </ns3:TrackPointExtension>
        </extensions>
      </trkpt>
      <trkpt lat="43.1219509430229663848876953125" lon="12.99724937416613101959228515625">
        <ele>930.20001220703125</ele>
        <time>2021-06-06T08:01:54.000Z</time>
        <extensions>
          <ns3:TrackPointExtension>
            <ns3:atemp>18.0</ns3:atemp>
          </ns3:TrackPointExtension>
        </extensions>
      </trkpt>
      <trkpt lat="43.12192822806537151336669921875" lon="12.99710168503224849700927734375">
        <ele>930.79998779296875</ele>
        <time>2021-06-06T08:01:58.000Z</time>
        <extensions>
          <ns3:TrackPointExtension>
            <ns3:atemp>18.0</ns3:atemp>
          </ns3:TrackPointExtension>
        </extensions>
      </trkpt>
      <trkpt lat="43.12192655168473720550537109375" lon="12.99698819406330585479736328125">
        <ele>931.4000244140625</ele>
        <time>2021-06-06T08:02:01.000Z</time>
        <extensions>
          <ns3:TrackPointExtension>
            <ns3:atemp>18.0</ns3:atemp>
          </ns3:TrackPointExtension>
        </extensions>
      </trkpt>
      <trkpt lat="43.12193275429308414459228515625" lon="12.996804714202880859375">
        <ele>932</ele>
        <time>2021-06-06T08:02:06.000Z</time>
        <extensions>
          <ns3:TrackPointExtension>
            <ns3:atemp>17.0</ns3:atemp>
          </ns3:TrackPointExtension>
        </extensions>
      </trkpt>
      <trkpt lat="43.1219294853508472442626953125" lon="12.9966845177114009857177734375">
        <ele>932.4000244140625</ele>
        <time>2021-06-06T08:02:09.000Z</time>
        <extensions>
          <ns3:TrackPointExtension>
            <ns3:atemp>17.0</ns3:atemp>
          </ns3:TrackPointExtension>
        </extensions>
      </trkpt>
      <trkpt lat="43.12192001380026340484619140625" lon="12.99653741531074047088623046875">
        <ele>933</ele>
        <time>2021-06-06T08:02:13.000Z</time>
        <extensions>
          <ns3:TrackPointExtension>
            <ns3:atemp>17.0</ns3:atemp>
          </ns3:TrackPointExtension>
        </extensions>
      </trkpt>
      <trkpt lat="43.12191146425902843475341796875" lon="12.99643121659755706787109375">
        <ele>933.4000244140625</ele>
        <time>2021-06-06T08:02:16.000Z</time>
        <extensions>
          <ns3:TrackPointExtension>
            <ns3:atemp>17.0</ns3:atemp>
          </ns3:TrackPointExtension>
        </extensions>
      </trkpt>
      <trkpt lat="43.1219076924026012420654296875" lon="12.99632132984697818756103515625">
        <ele>934.20001220703125</ele>
        <time>2021-06-06T08:02:19.000Z</time>
        <extensions>
          <ns3:TrackPointExtension>
            <ns3:atemp>17.0</ns3:atemp>
          </ns3:TrackPointExtension>
        </extensions>
      </trkpt>
      <trkpt lat="43.12193443067371845245361328125" lon="12.996181435883045196533203125">
        <ele>934.79998779296875</ele>
        <time>2021-06-06T08:02:23.000Z</time>
        <extensions>
          <ns3:TrackPointExtension>
            <ns3:atemp>17.0</ns3:atemp>
          </ns3:TrackPointExtension>
        </extensions>
      </trkpt>
      <trkpt lat="43.12198187224566936492919921875" lon="12.9960867203772068023681640625">
        <ele>935</ele>
        <time>2021-06-06T08:02:26.000Z</time>
        <extensions>
          <ns3:TrackPointExtension>
            <ns3:atemp>17.0</ns3:atemp>
          </ns3:TrackPointExtension>
        </extensions>
      </trkpt>
      <trkpt lat="43.12204959802329540252685546875" lon="12.99598303623497486114501953125">
        <ele>935.5999755859375</ele>
        <time>2021-06-06T08:02:30.000Z</time>
        <extensions>
          <ns3:TrackPointExtension>
            <ns3:atemp>17.0</ns3:atemp>
          </ns3:TrackPointExtension>
        </extensions>
      </trkpt>
      <trkpt lat="43.1221058405935764312744140625" lon="12.9959236085414886474609375">
        <ele>936.20001220703125</ele>
        <time>2021-06-06T08:02:33.000Z</time>
        <extensions>
          <ns3:TrackPointExtension>
            <ns3:atemp>17.0</ns3:atemp>
          </ns3:TrackPointExtension>
        </extensions>
      </trkpt>
      <trkpt lat="43.1221822835505008697509765625" lon="12.995858229696750640869140625">
        <ele>937</ele>
        <time>2021-06-06T08:02:37.000Z</time>
        <extensions>
          <ns3:TrackPointExtension>
            <ns3:atemp>17.0</ns3:atemp>
          </ns3:TrackPointExtension>
        </extensions>
      </trkpt>
      <trkpt lat="43.122226037085056304931640625" lon="12.995828725397586822509765625">
        <ele>937.4000244140625</ele>
        <time>2021-06-06T08:02:39.000Z</time>
        <extensions>
          <ns3:TrackPointExtension>
            <ns3:atemp>17.0</ns3:atemp>
          </ns3:TrackPointExtension>
        </extensions>
      </trkpt>
      <trkpt lat="43.12237682752311229705810546875" lon="12.995718084275722503662109375">
        <ele>938.4000244140625</ele>
        <time>2021-06-06T08:02:46.000Z</time>
        <extensions>
          <ns3:TrackPointExtension>
            <ns3:atemp>17.0</ns3:atemp>
          </ns3:TrackPointExtension>
        </extensions>
      </trkpt>
      <trkpt lat="43.12247757799923419952392578125" lon="12.99556612037122249603271484375">
        <ele>939.20001220703125</ele>
        <time>2021-06-06T08:02:52.000Z</time>
        <extensions>
          <ns3:TrackPointExtension>
            <ns3:atemp>17.0</ns3:atemp>
          </ns3:TrackPointExtension>
        </extensions>
      </trkpt>
      <trkpt lat="43.1224853731691837310791015625" lon="12.995531000196933746337890625">
        <ele>939.4000244140625</ele>
        <time>2021-06-06T08:02:53.000Z</time>
        <extensions>
          <ns3:TrackPointExtension>
            <ns3:atemp>17.0</ns3:atemp>
          </ns3:TrackPointExtension>
        </extensions>
      </trkpt>
      <trkpt lat="43.122503645718097686767578125" lon="12.99528733827173709869384765625">
        <ele>939.5999755859375</ele>
        <time>2021-06-06T08:03:00.000Z</time>
        <extensions>
          <ns3:TrackPointExtension>
            <ns3:atemp>17.0</ns3:atemp>
          </ns3:TrackPointExtension>
        </extensions>
      </trkpt>
      <trkpt lat="43.12242544256150722503662109375" lon="12.9951000027358531951904296875">
        <ele>940.20001220703125</ele>
        <time>2021-06-06T08:03:06.000Z</time>
        <extensions>
          <ns3:TrackPointExtension>
            <ns3:atemp>17.0</ns3:atemp>
          </ns3:TrackPointExtension>
        </extensions>
      </trkpt>
      <trkpt lat="43.1223906576633453369140625" lon="12.9950590990483760833740234375">
        <ele>940.4000244140625</ele>
        <time>2021-06-06T08:03:08.000Z</time>
        <extensions>
          <ns3:TrackPointExtension>
            <ns3:atemp>17.0</ns3:atemp>
          </ns3:TrackPointExtension>
        </extensions>
      </trkpt>
      <trkpt lat="43.12229334376752376556396484375" lon="12.99498961307108402252197265625">
        <ele>940.79998779296875</ele>
        <time>2021-06-06T08:03:12.000Z</time>
        <extensions>
          <ns3:TrackPointExtension>
            <ns3:atemp>17.0</ns3:atemp>
          </ns3:TrackPointExtension>
        </extensions>
      </trkpt>
      <trkpt lat="43.12209921889007091522216796875" lon="12.99491166137158870697021484375">
        <ele>941.4000244140625</ele>
        <time>2021-06-06T08:03:19.000Z</time>
        <extensions>
          <ns3:TrackPointExtension>
            <ns3:atemp>17.0</ns3:atemp>
          </ns3:TrackPointExtension>
        </extensions>
      </trkpt>
      <trkpt lat="43.12198874540627002716064453125" lon="12.994867153465747833251953125">
        <ele>942.4000244140625</ele>
        <time>2021-06-06T08:03:23.000Z</time>
        <extensions>
          <ns3:TrackPointExtension>
            <ns3:atemp>17.0</ns3:atemp>
          </ns3:TrackPointExtension>
        </extensions>
      </trkpt>
      <trkpt lat="43.1218500249087810516357421875" lon="12.99480319954454898834228515625">
        <ele>943.20001220703125</ele>
        <time>2021-06-06T08:03:28.000Z</time>
        <extensions>
          <ns3:TrackPointExtension>
            <ns3:atemp>17.0</ns3:atemp>
          </ns3:TrackPointExtension>
        </extensions>
      </trkpt>
      <trkpt lat="43.1217105500400066375732421875" lon="12.99475072883069515228271484375">
        <ele>943.79998779296875</ele>
        <time>2021-06-06T08:03:33.000Z</time>
        <extensions>
          <ns3:TrackPointExtension>
            <ns3:atemp>17.0</ns3:atemp>
          </ns3:TrackPointExtension>
        </extensions>
      </trkpt>
      <trkpt lat="43.1216525472700595855712890625" lon="12.99473203718662261962890625">
        <ele>944</ele>
        <time>2021-06-06T08:03:35.000Z</time>
        <extensions>
          <ns3:TrackPointExtension>
            <ns3:atemp>17.0</ns3:atemp>
          </ns3:TrackPointExtension>
        </extensions>
      </trkpt>
      <trkpt lat="43.1214383058249950408935546875" lon="12.9946440272033214569091796875">
        <ele>944.5999755859375</ele>
        <time>2021-06-06T08:03:43.000Z</time>
        <extensions>
          <ns3:TrackPointExtension>
            <ns3:atemp>17.0</ns3:atemp>
          </ns3:TrackPointExtension>
        </extensions>
      </trkpt>
      <trkpt lat="43.12138575129210948944091796875" lon="12.99461762420833110809326171875">
        <ele>944.79998779296875</ele>
        <time>2021-06-06T08:03:45.000Z</time>
        <extensions>
          <ns3:TrackPointExtension>
            <ns3:atemp>17.0</ns3:atemp>
          </ns3:TrackPointExtension>
        </extensions>
      </trkpt>
      <trkpt lat="43.12125599943101406097412109375" lon="12.99456439912319183349609375">
        <ele>945.5999755859375</ele>
        <time>2021-06-06T08:03:50.000Z</time>
        <extensions>
          <ns3:TrackPointExtension>
            <ns3:atemp>17.0</ns3:atemp>
          </ns3:TrackPointExtension>
        </extensions>
      </trkpt>
      <trkpt lat="43.12122800387442111968994140625" lon="12.99455626867711544036865234375">
        <ele>945.79998779296875</ele>
        <time>2021-06-06T08:03:51.000Z</time>
        <extensions>
          <ns3:TrackPointExtension>
            <ns3:atemp>17.0</ns3:atemp>
          </ns3:TrackPointExtension>
        </extensions>
      </trkpt>
      <trkpt lat="43.121002949774265289306640625" lon="12.99447462894022464752197265625">
        <ele>946.4000244140625</ele>
        <time>2021-06-06T08:03:59.000Z</time>
        <extensions>
          <ns3:TrackPointExtension>
            <ns3:atemp>17.0</ns3:atemp>
          </ns3:TrackPointExtension>
        </extensions>
      </trkpt>
      <trkpt lat="43.1209491379559040069580078125" lon="12.99446155317127704620361328125">
        <ele>946.5999755859375</ele>
        <time>2021-06-06T08:04:01.000Z</time>
        <extensions>
          <ns3:TrackPointExtension>
            <ns3:atemp>17.0</ns3:atemp>
          </ns3:TrackPointExtension>
        </extensions>
      </trkpt>
      <trkpt lat="43.1208190508186817169189453125" lon="12.9944073222577571868896484375">
        <ele>947.79998779296875</ele>
        <time>2021-06-06T08:04:06.000Z</time>
        <extensions>
          <ns3:TrackPointExtension>
            <ns3:atemp>17.0</ns3:atemp>
          </ns3:TrackPointExtension>
        </extensions>
      </trkpt>
      <trkpt lat="43.1206661649048328399658203125" lon="12.9943208210170269012451171875">
        <ele>948.79998779296875</ele>
        <time>2021-06-06T08:04:12.000Z</time>
        <extensions>
          <ns3:TrackPointExtension>
            <ns3:atemp>18.0</ns3:atemp>
          </ns3:TrackPointExtension>
        </extensions>
      </trkpt>
      <trkpt lat="43.120643533766269683837890625" lon="12.99430020153522491455078125">
        <ele>949.20001220703125</ele>
        <time>2021-06-06T08:04:13.000Z</time>
        <extensions>
          <ns3:TrackPointExtension>
            <ns3:atemp>18.0</ns3:atemp>
          </ns3:TrackPointExtension>
        </extensions>
      </trkpt>
      <trkpt lat="43.12054337002336978912353515625" lon="12.9941786639392375946044921875">
        <ele>950</ele>
        <time>2021-06-06T08:04:18.000Z</time>
        <extensions>
          <ns3:TrackPointExtension>
            <ns3:atemp>18.0</ns3:atemp>
          </ns3:TrackPointExtension>
        </extensions>
      </trkpt>
      <trkpt lat="43.120514117181301116943359375" lon="12.99411647021770477294921875">
        <ele>950.20001220703125</ele>
        <time>2021-06-06T08:04:20.000Z</time>
        <extensions>
          <ns3:TrackPointExtension>
            <ns3:atemp>18.0</ns3:atemp>
          </ns3:TrackPointExtension>
        </extensions>
      </trkpt>
      <trkpt lat="43.12041948549449443817138671875" lon="12.9939339123666286468505859375">
        <ele>951.4000244140625</ele>
        <time>2021-06-06T08:04:26.000Z</time>
        <extensions>
          <ns3:TrackPointExtension>
            <ns3:atemp>17.0</ns3:atemp>
          </ns3:TrackPointExtension>
        </extensions>
      </trkpt>
      <trkpt lat="43.12040381133556365966796875" lon="12.993900217115879058837890625">
        <ele>951.79998779296875</ele>
        <time>2021-06-06T08:04:27.000Z</time>
        <extensions>
          <ns3:TrackPointExtension>
            <ns3:atemp>18.0</ns3:atemp>
          </ns3:TrackPointExtension>
        </extensions>
      </trkpt>
      <trkpt lat="43.120363242924213409423828125" lon="12.9938024841248989105224609375">
        <ele>952.4000244140625</ele>
        <time>2021-06-06T08:04:30.000Z</time>
        <extensions>
          <ns3:TrackPointExtension>
            <ns3:atemp>18.0</ns3:atemp>
          </ns3:TrackPointExtension>
        </extensions>
      </trkpt>
      <trkpt lat="43.1203466467559337615966796875" lon="12.99367147497832775115966796875">
        <ele>953</ele>
        <time>2021-06-06T08:04:34.000Z</time>
        <extensions>
          <ns3:TrackPointExtension>
            <ns3:atemp>17.0</ns3:atemp>
          </ns3:TrackPointExtension>
        </extensions>
      </trkpt>
      <trkpt lat="43.1203473173081874847412109375" lon="12.9936415515840053558349609375">
        <ele>953.4000244140625</ele>
        <time>2021-06-06T08:04:35.000Z</time>
        <extensions>
          <ns3:TrackPointExtension>
            <ns3:atemp>17.0</ns3:atemp>
          </ns3:TrackPointExtension>
        </extensions>
      </trkpt>
      <trkpt lat="43.1203540228307247161865234375" lon="12.99354004673659801483154296875">
        <ele>954.20001220703125</ele>
        <time>2021-06-06T08:04:40.000Z</time>
        <extensions>
          <ns3:TrackPointExtension>
            <ns3:atemp>17.0</ns3:atemp>
          </ns3:TrackPointExtension>
        </extensions>
      </trkpt>
      <trkpt lat="43.12035377137362957000732421875" lon="12.9935369454324245452880859375">
        <ele>954.4000244140625</ele>
        <time>2021-06-06T08:04:41.000Z</time>
        <extensions>
          <ns3:TrackPointExtension>
            <ns3:atemp>17.0</ns3:atemp>
          </ns3:TrackPointExtension>
        </extensions>
      </trkpt>
      <trkpt lat="43.120358549058437347412109375" lon="12.99352906644344329833984375">
        <ele>955.5999755859375</ele>
        <time>2021-06-06T08:04:49.000Z</time>
        <extensions>
          <ns3:TrackPointExtension>
            <ns3:atemp>17.0</ns3:atemp>
          </ns3:TrackPointExtension>
        </extensions>
      </trkpt>
      <trkpt lat="43.1203580461442470550537109375" lon="12.99352864734828472137451171875">
        <ele>955.5999755859375</ele>
        <time>2021-06-06T08:04:50.000Z</time>
        <extensions>
          <ns3:TrackPointExtension>
            <ns3:atemp>17.0</ns3:atemp>
          </ns3:TrackPointExtension>
        </extensions>
      </trkpt>
      <trkpt lat="43.12036064453423023223876953125" lon="12.993519343435764312744140625">
        <ele>955.79998779296875</ele>
        <time>2021-06-06T08:05:02.000Z</time>
        <extensions>
          <ns3:TrackPointExtension>
            <ns3:atemp>18.0</ns3:atemp>
          </ns3:TrackPointExtension>
        </extensions>
      </trkpt>
      <trkpt lat="43.12038159929215908050537109375" lon="12.9934792779386043548583984375">
        <ele>955.79998779296875</ele>
        <time>2021-06-06T08:05:07.000Z</time>
        <extensions>
          <ns3:TrackPointExtension>
            <ns3:atemp>18.0</ns3:atemp>
          </ns3:TrackPointExtension>
        </extensions>
      </trkpt>
      <trkpt lat="43.120406158268451690673828125" lon="12.993429489433765411376953125">
        <ele>955.79998779296875</ele>
        <time>2021-06-06T08:05:09.000Z</time>
        <extensions>
          <ns3:TrackPointExtension>
            <ns3:atemp>18.0</ns3:atemp>
          </ns3:TrackPointExtension>
        </extensions>
      </trkpt>
      <trkpt lat="43.12047623097896575927734375" lon="12.99326830543577671051025390625">
        <ele>955.79998779296875</ele>
        <time>2021-06-06T08:05:16.000Z</time>
        <extensions>
          <ns3:TrackPointExtension>
            <ns3:atemp>18.0</ns3:atemp>
          </ns3:TrackPointExtension>
        </extensions>
      </trkpt>
      <trkpt lat="43.12046122737228870391845703125" lon="12.9932294972240924835205078125">
        <ele>955.79998779296875</ele>
        <time>2021-06-06T08:05:21.000Z</time>
        <extensions>
          <ns3:TrackPointExtension>
            <ns3:atemp>18.0</ns3:atemp>
          </ns3:TrackPointExtension>
        </extensions>
      </trkpt>
      <trkpt lat="43.12044798396527767181396484375" lon="12.9932553134858608245849609375">
        <ele>956</ele>
        <time>2021-06-06T08:05:23.000Z</time>
        <extensions>
          <ns3:TrackPointExtension>
            <ns3:atemp>18.0</ns3:atemp>
          </ns3:TrackPointExtension>
        </extensions>
      </trkpt>
      <trkpt lat="43.1204820983111858367919921875" lon="12.99331272952258586883544921875">
        <ele>956</ele>
        <time>2021-06-06T08:05:25.000Z</time>
        <extensions>
          <ns3:TrackPointExtension>
            <ns3:atemp>18.0</ns3:atemp>
          </ns3:TrackPointExtension>
        </extensions>
      </trkpt>
      <trkpt lat="43.1204297952353954315185546875" lon="12.99340493045747280120849609375">
        <ele>956.4000244140625</ele>
        <time>2021-06-06T08:05:29.000Z</time>
        <extensions>
          <ns3:TrackPointExtension>
            <ns3:atemp>18.0</ns3:atemp>
          </ns3:TrackPointExtension>
        </extensions>
      </trkpt>
      <trkpt lat="43.12041713856160640716552734375" lon="12.993420101702213287353515625">
        <ele>956.4000244140625</ele>
        <time>2021-06-06T08:05:30.000Z</time>
        <extensions>
          <ns3:TrackPointExtension>
            <ns3:atemp>18.0</ns3:atemp>
          </ns3:TrackPointExtension>
        </extensions>
      </trkpt>
      <trkpt lat="43.12039710581302642822265625" lon="12.9934826306998729705810546875">
        <ele>956.4000244140625</ele>
        <time>2021-06-06T08:05:33.000Z</time>
        <extensions>
          <ns3:TrackPointExtension>
            <ns3:atemp>18.0</ns3:atemp>
          </ns3:TrackPointExtension>
        </extensions>
      </trkpt>
      <trkpt lat="43.1203637458384037017822265625" lon="12.9934506118297576904296875">
        <ele>956.4000244140625</ele>
        <time>2021-06-06T08:05:36.000Z</time>
        <extensions>
          <ns3:TrackPointExtension>
            <ns3:atemp>18.0</ns3:atemp>
          </ns3:TrackPointExtension>
        </extensions>
      </trkpt>
      <trkpt lat="43.12034522183239459991455078125" lon="12.99337215721607208251953125">
        <ele>956.20001220703125</ele>
        <time>2021-06-06T08:05:38.000Z</time>
        <extensions>
          <ns3:TrackPointExtension>
            <ns3:atemp>18.0</ns3:atemp>
          </ns3:TrackPointExtension>
        </extensions>
      </trkpt>
      <trkpt lat="43.12033449299633502960205078125" lon="12.99322052858769893646240234375">
        <ele>956.20001220703125</ele>
        <time>2021-06-06T08:05:42.000Z</time>
        <extensions>
          <ns3:TrackPointExtension>
            <ns3:atemp>18.0</ns3:atemp>
          </ns3:TrackPointExtension>
        </extensions>
      </trkpt>
      <trkpt lat="43.12025486491620540618896484375" lon="12.99312111921608448028564453125">
        <ele>956.5999755859375</ele>
        <time>2021-06-06T08:05:47.000Z</time>
        <extensions>
          <ns3:TrackPointExtension>
            <ns3:atemp>18.0</ns3:atemp>
          </ns3:TrackPointExtension>
        </extensions>
      </trkpt>
      <trkpt lat="43.1202038191258907318115234375" lon="12.99311575479805469512939453125">
        <ele>957.79998779296875</ele>
        <time>2021-06-06T08:05:49.000Z</time>
        <extensions>
          <ns3:TrackPointExtension>
            <ns3:atemp>18.0</ns3:atemp>
          </ns3:TrackPointExtension>
        </extensions>
      </trkpt>
      <trkpt lat="43.12013299204409122467041015625" lon="12.993110977113246917724609375">
        <ele>959.20001220703125</ele>
        <time>2021-06-06T08:05:52.000Z</time>
        <extensions>
          <ns3:TrackPointExtension>
            <ns3:atemp>18.0</ns3:atemp>
          </ns3:TrackPointExtension>
        </extensions>
      </trkpt>
      <trkpt lat="43.12003525905311107635498046875" lon="12.993080131709575653076171875">
        <ele>960.20001220703125</ele>
        <time>2021-06-06T08:05:56.000Z</time>
        <extensions>
          <ns3:TrackPointExtension>
            <ns3:atemp>18.0</ns3:atemp>
          </ns3:TrackPointExtension>
        </extensions>
      </trkpt>
      <trkpt lat="43.11998538672924041748046875" lon="12.9930752702057361602783203125">
        <ele>960.5999755859375</ele>
        <time>2021-06-06T08:05:58.000Z</time>
        <extensions>
          <ns3:TrackPointExtension>
            <ns3:atemp>18.0</ns3:atemp>
          </ns3:TrackPointExtension>
        </extensions>
      </trkpt>
      <trkpt lat="43.11994255520403385162353515625" lon="12.99306412227451801300048828125">
        <ele>961.4000244140625</ele>
        <time>2021-06-06T08:06:00.000Z</time>
        <extensions>
          <ns3:TrackPointExtension>
            <ns3:atemp>18.0</ns3:atemp>
          </ns3:TrackPointExtension>
        </extensions>
      </trkpt>
      <trkpt lat="43.119879774749279022216796875" lon="12.99305641092360019683837890625">
        <ele>962.79998779296875</ele>
        <time>2021-06-06T08:06:03.000Z</time>
        <extensions>
          <ns3:TrackPointExtension>
            <ns3:atemp>18.0</ns3:atemp>
          </ns3:TrackPointExtension>
        </extensions>
      </trkpt>
      <trkpt lat="43.1198118813335895538330078125" lon="12.9930484481155872344970703125">
        <ele>963.5999755859375</ele>
        <time>2021-06-06T08:06:06.000Z</time>
        <extensions>
          <ns3:TrackPointExtension>
            <ns3:atemp>18.0</ns3:atemp>
          </ns3:TrackPointExtension>
        </extensions>
      </trkpt>
      <trkpt lat="43.119788579642772674560546875" lon="12.9930455982685089111328125">
        <ele>964.20001220703125</ele>
        <time>2021-06-06T08:06:07.000Z</time>
        <extensions>
          <ns3:TrackPointExtension>
            <ns3:atemp>18.0</ns3:atemp>
          </ns3:TrackPointExtension>
        </extensions>
      </trkpt>
      <trkpt lat="43.11974264681339263916015625" lon="12.99304568208754062652587890625">
        <ele>965.20001220703125</ele>
        <time>2021-06-06T08:06:09.000Z</time>
        <extensions>
          <ns3:TrackPointExtension>
            <ns3:atemp>18.0</ns3:atemp>
          </ns3:TrackPointExtension>
        </extensions>
      </trkpt>
      <trkpt lat="43.1196801178157329559326171875" lon="12.9930544830858707427978515625">
        <ele>966.4000244140625</ele>
        <time>2021-06-06T08:06:12.000Z</time>
        <extensions>
          <ns3:TrackPointExtension>
            <ns3:atemp>18.0</ns3:atemp>
          </ns3:TrackPointExtension>
        </extensions>
      </trkpt>
      <trkpt lat="43.11962538398802280426025390625" lon="12.99306412227451801300048828125">
        <ele>967.5999755859375</ele>
        <time>2021-06-06T08:06:15.000Z</time>
        <extensions>
          <ns3:TrackPointExtension>
            <ns3:atemp>18.0</ns3:atemp>
          </ns3:TrackPointExtension>
        </extensions>
      </trkpt>
      <trkpt lat="43.11959202401340007781982421875" lon="12.99307283945381641387939453125">
        <ele>968.79998779296875</ele>
        <time>2021-06-06T08:06:17.000Z</time>
        <extensions>
          <ns3:TrackPointExtension>
            <ns3:atemp>18.0</ns3:atemp>
          </ns3:TrackPointExtension>
        </extensions>
      </trkpt>
      <trkpt lat="43.11958280391991138458251953125" lon="12.99308273009955883026123046875">
        <ele>969.5999755859375</ele>
        <time>2021-06-06T08:06:18.000Z</time>
        <extensions>
          <ns3:TrackPointExtension>
            <ns3:atemp>18.0</ns3:atemp>
          </ns3:TrackPointExtension>
        </extensions>
      </trkpt>
      <trkpt lat="43.1195614300668239593505859375" lon="12.99308273009955883026123046875">
        <ele>970.4000244140625</ele>
        <time>2021-06-06T08:06:19.000Z</time>
        <extensions>
          <ns3:TrackPointExtension>
            <ns3:atemp>18.0</ns3:atemp>
          </ns3:TrackPointExtension>
        </extensions>
      </trkpt>
      <trkpt lat="43.11952362768352031707763671875" lon="12.99308457411825656890869140625">
        <ele>971.79998779296875</ele>
        <time>2021-06-06T08:06:21.000Z</time>
        <extensions>
          <ns3:TrackPointExtension>
            <ns3:atemp>18.0</ns3:atemp>
          </ns3:TrackPointExtension>
        </extensions>
      </trkpt>
      <trkpt lat="43.11947886832058429718017578125" lon="12.9930859990417957305908203125">
        <ele>973</ele>
        <time>2021-06-06T08:06:23.000Z</time>
        <extensions>
          <ns3:TrackPointExtension>
            <ns3:atemp>18.0</ns3:atemp>
          </ns3:TrackPointExtension>
        </extensions>
      </trkpt>
      <trkpt lat="43.119429834187030792236328125" lon="12.993089519441127777099609375">
        <ele>974.20001220703125</ele>
        <time>2021-06-06T08:06:25.000Z</time>
        <extensions>
          <ns3:TrackPointExtension>
            <ns3:atemp>18.0</ns3:atemp>
          </ns3:TrackPointExtension>
        </extensions>
      </trkpt>
      <trkpt lat="43.1193471886217594146728515625" lon="12.99306571483612060546875">
        <ele>975.79998779296875</ele>
        <time>2021-06-06T08:06:29.000Z</time>
        <extensions>
          <ns3:TrackPointExtension>
            <ns3:atemp>18.0</ns3:atemp>
          </ns3:TrackPointExtension>
        </extensions>
      </trkpt>
      <trkpt lat="43.11932883225381374359130859375" lon="12.99305138178169727325439453125">
        <ele>976.4000244140625</ele>
        <time>2021-06-06T08:06:30.000Z</time>
        <extensions>
          <ns3:TrackPointExtension>
            <ns3:atemp>18.0</ns3:atemp>
          </ns3:TrackPointExtension>
        </extensions>
      </trkpt>
      <trkpt lat="43.1193093024194240570068359375" lon="12.993039898574352264404296875">
        <ele>977</ele>
        <time>2021-06-06T08:06:31.000Z</time>
        <extensions>
          <ns3:TrackPointExtension>
            <ns3:atemp>18.0</ns3:atemp>
          </ns3:TrackPointExtension>
        </extensions>
      </trkpt>
      <trkpt lat="43.11929144896566867828369140625" lon="12.9930296726524829864501953125">
        <ele>978.20001220703125</ele>
        <time>2021-06-06T08:06:32.000Z</time>
        <extensions>
          <ns3:TrackPointExtension>
            <ns3:atemp>18.0</ns3:atemp>
          </ns3:TrackPointExtension>
        </extensions>
      </trkpt>
      <trkpt lat="43.11925708316266536712646484375" lon="12.993004024028778076171875">
        <ele>979.79998779296875</ele>
        <time>2021-06-06T08:06:34.000Z</time>
        <extensions>
          <ns3:TrackPointExtension>
            <ns3:atemp>18.0</ns3:atemp>
          </ns3:TrackPointExtension>
        </extensions>
      </trkpt>
      <trkpt lat="43.1192336976528167724609375" lon="12.992962114512920379638671875">
        <ele>981.20001220703125</ele>
        <time>2021-06-06T08:06:36.000Z</time>
        <extensions>
          <ns3:TrackPointExtension>
            <ns3:atemp>18.0</ns3:atemp>
          </ns3:TrackPointExtension>
        </extensions>
      </trkpt>
      <trkpt lat="43.11920293606817722320556640625" lon="12.9929129965603351593017578125">
        <ele>982.79998779296875</ele>
        <time>2021-06-06T08:06:38.000Z</time>
        <extensions>
          <ns3:TrackPointExtension>
            <ns3:atemp>18.0</ns3:atemp>
          </ns3:TrackPointExtension>
        </extensions>
      </trkpt>
      <trkpt lat="43.11919254250824451446533203125" lon="12.9928938858211040496826171875">
        <ele>983.5999755859375</ele>
        <time>2021-06-06T08:06:39.000Z</time>
        <extensions>
          <ns3:TrackPointExtension>
            <ns3:atemp>18.0</ns3:atemp>
          </ns3:TrackPointExtension>
        </extensions>
      </trkpt>
      <trkpt lat="43.1191741861402988433837890625" lon="12.992878966033458709716796875">
        <ele>984</ele>
        <time>2021-06-06T08:06:40.000Z</time>
        <extensions>
          <ns3:TrackPointExtension>
            <ns3:atemp>18.0</ns3:atemp>
          </ns3:TrackPointExtension>
        </extensions>
      </trkpt>
      <trkpt lat="43.11913378536701202392578125" lon="12.9928449355065822601318359375">
        <ele>985.20001220703125</ele>
        <time>2021-06-06T08:06:42.000Z</time>
        <extensions>
          <ns3:TrackPointExtension>
            <ns3:atemp>18.0</ns3:atemp>
          </ns3:TrackPointExtension>
        </extensions>
      </trkpt>
      <trkpt lat="43.119098246097564697265625" lon="12.9928167723119258880615234375">
        <ele>986.20001220703125</ele>
        <time>2021-06-06T08:06:44.000Z</time>
        <extensions>
          <ns3:TrackPointExtension>
            <ns3:atemp>18.0</ns3:atemp>
          </ns3:TrackPointExtension>
        </extensions>
      </trkpt>
      <trkpt lat="43.11907955445349216461181640625" lon="12.99280461855232715606689453125">
        <ele>986.5999755859375</ele>
        <time>2021-06-06T08:06:45.000Z</time>
        <extensions>
          <ns3:TrackPointExtension>
            <ns3:atemp>18.0</ns3:atemp>
          </ns3:TrackPointExtension>
        </extensions>
      </trkpt>
      <trkpt lat="43.11904116533696651458740234375" lon="12.9927728511393070220947265625">
        <ele>987.79998779296875</ele>
        <time>2021-06-06T08:06:47.000Z</time>
        <extensions>
          <ns3:TrackPointExtension>
            <ns3:atemp>18.0</ns3:atemp>
          </ns3:TrackPointExtension>
        </extensions>
      </trkpt>
      <trkpt lat="43.11900428496301174163818359375" lon="12.9927426762878894805908203125">
        <ele>988.79998779296875</ele>
        <time>2021-06-06T08:06:49.000Z</time>
        <extensions>
          <ns3:TrackPointExtension>
            <ns3:atemp>18.0</ns3:atemp>
          </ns3:TrackPointExtension>
        </extensions>
      </trkpt>
      <trkpt lat="43.11898492276668548583984375" lon="12.99272750504314899444580078125">
        <ele>989.20001220703125</ele>
        <time>2021-06-06T08:06:50.000Z</time>
        <extensions>
          <ns3:TrackPointExtension>
            <ns3:atemp>18.0</ns3:atemp>
          </ns3:TrackPointExtension>
        </extensions>
      </trkpt>
      <trkpt lat="43.118928931653499603271484375" lon="12.99269196577370166778564453125">
        <ele>990.20001220703125</ele>
        <time>2021-06-06T08:06:53.000Z</time>
        <extensions>
          <ns3:TrackPointExtension>
            <ns3:atemp>18.0</ns3:atemp>
          </ns3:TrackPointExtension>
        </extensions>
      </trkpt>
      <trkpt lat="43.11887470073997974395751953125" lon="12.9926645569503307342529296875">
        <ele>991.20001220703125</ele>
        <time>2021-06-06T08:06:56.000Z</time>
        <extensions>
          <ns3:TrackPointExtension>
            <ns3:atemp>18.0</ns3:atemp>
          </ns3:TrackPointExtension>
        </extensions>
      </trkpt>
      <trkpt lat="43.118822313845157623291015625" lon="12.99263446591794490814208984375">
        <ele>992.4000244140625</ele>
        <time>2021-06-06T08:06:59.000Z</time>
        <extensions>
          <ns3:TrackPointExtension>
            <ns3:atemp>18.0</ns3:atemp>
          </ns3:TrackPointExtension>
        </extensions>
      </trkpt>
      <trkpt lat="43.11876657418906688690185546875" lon="12.99260680563747882843017578125">
        <ele>993.79998779296875</ele>
        <time>2021-06-06T08:07:02.000Z</time>
        <extensions>
          <ns3:TrackPointExtension>
            <ns3:atemp>18.0</ns3:atemp>
          </ns3:TrackPointExtension>
        </extensions>
      </trkpt>
      <trkpt lat="43.11872449703514575958251953125" lon="12.99258316867053508758544921875">
        <ele>994.5999755859375</ele>
        <time>2021-06-06T08:07:04.000Z</time>
        <extensions>
          <ns3:TrackPointExtension>
            <ns3:atemp>18.0</ns3:atemp>
          </ns3:TrackPointExtension>
        </extensions>
      </trkpt>
      <trkpt lat="43.1187064759433269500732421875" lon="12.99257026053965091705322265625">
        <ele>995</ele>
        <time>2021-06-06T08:07:05.000Z</time>
        <extensions>
          <ns3:TrackPointExtension>
            <ns3:atemp>18.0</ns3:atemp>
          </ns3:TrackPointExtension>
        </extensions>
      </trkpt>
      <trkpt lat="43.1186588667333126068115234375" lon="12.992537319660186767578125">
        <ele>996.20001220703125</ele>
        <time>2021-06-06T08:07:07.000Z</time>
        <extensions>
          <ns3:TrackPointExtension>
            <ns3:atemp>18.0</ns3:atemp>
          </ns3:TrackPointExtension>
        </extensions>
      </trkpt>
      <trkpt lat="43.11861821450293064117431640625" lon="12.992505468428134918212890625">
        <ele>997.4000244140625</ele>
        <time>2021-06-06T08:07:09.000Z</time>
        <extensions>
          <ns3:TrackPointExtension>
            <ns3:atemp>18.0</ns3:atemp>
          </ns3:TrackPointExtension>
        </extensions>
      </trkpt>
      <trkpt lat="43.1185965053737163543701171875" lon="12.99249239265918731689453125">
        <ele>997.79998779296875</ele>
        <time>2021-06-06T08:07:10.000Z</time>
        <extensions>
          <ns3:TrackPointExtension>
            <ns3:atemp>18.0</ns3:atemp>
          </ns3:TrackPointExtension>
        </extensions>
      </trkpt>
      <trkpt lat="43.1185787357389926910400390625" lon="12.99247898161411285400390625">
        <ele>998.4000244140625</ele>
        <time>2021-06-06T08:07:11.000Z</time>
        <extensions>
          <ns3:TrackPointExtension>
            <ns3:atemp>18.0</ns3:atemp>
          </ns3:TrackPointExtension>
        </extensions>
      </trkpt>
      <trkpt lat="43.11853137798607349395751953125" lon="12.99243472516536712646484375">
        <ele>999.5999755859375</ele>
        <time>2021-06-06T08:07:14.000Z</time>
        <extensions>
          <ns3:TrackPointExtension>
            <ns3:atemp>18.0</ns3:atemp>
          </ns3:TrackPointExtension>
        </extensions>
      </trkpt>
      <trkpt lat="43.11848058365285396575927734375" lon="12.992388792335987091064453125">
        <ele>1001</ele>
        <time>2021-06-06T08:07:17.000Z</time>
        <extensions>
          <ns3:TrackPointExtension>
            <ns3:atemp>18.0</ns3:atemp>
          </ns3:TrackPointExtension>
        </extensions>
      </trkpt>
      <trkpt lat="43.1184241734445095062255859375" lon="12.9923369921743869781494140625">
        <ele>1002.20001220703125</ele>
        <time>2021-06-06T08:07:20.000Z</time>
        <extensions>
          <ns3:TrackPointExtension>
            <ns3:atemp>18.0</ns3:atemp>
          </ns3:TrackPointExtension>
        </extensions>
      </trkpt>
      <trkpt lat="43.1183701939880847930908203125" lon="12.9922947473824024200439453125">
        <ele>1003.4000244140625</ele>
        <time>2021-06-06T08:07:23.000Z</time>
        <extensions>
          <ns3:TrackPointExtension>
            <ns3:atemp>18.0</ns3:atemp>
          </ns3:TrackPointExtension>
        </extensions>
      </trkpt>
      <trkpt lat="43.1183512508869171142578125" lon="12.99228175543248653411865234375">
        <ele>1003.79998779296875</ele>
        <time>2021-06-06T08:07:24.000Z</time>
        <extensions>
          <ns3:TrackPointExtension>
            <ns3:atemp>18.0</ns3:atemp>
          </ns3:TrackPointExtension>
        </extensions>
      </trkpt>
      <trkpt lat="43.11831680126488208770751953125" lon="12.9922588728368282318115234375">
        <ele>1004.5999755859375</ele>
        <time>2021-06-06T08:07:26.000Z</time>
        <extensions>
          <ns3:TrackPointExtension>
            <ns3:atemp>18.0</ns3:atemp>
          </ns3:TrackPointExtension>
        </extensions>
      </trkpt>
      <trkpt lat="43.11826617456972599029541015625" lon="12.9922233335673809051513671875">
        <ele>1006</ele>
        <time>2021-06-06T08:07:29.000Z</time>
        <extensions>
          <ns3:TrackPointExtension>
            <ns3:atemp>18.0</ns3:atemp>
          </ns3:TrackPointExtension>
        </extensions>
      </trkpt>
      <trkpt lat="43.11824806965887546539306640625" lon="12.9922166280448436737060546875">
        <ele>1006.4000244140625</ele>
        <time>2021-06-06T08:07:30.000Z</time>
        <extensions>
          <ns3:TrackPointExtension>
            <ns3:atemp>18.0</ns3:atemp>
          </ns3:TrackPointExtension>
        </extensions>
      </trkpt>
      <trkpt lat="43.11822560615837574005126953125" lon="12.9922065697610378265380859375">
        <ele>1007.20001220703125</ele>
        <time>2021-06-06T08:07:31.000Z</time>
        <extensions>
          <ns3:TrackPointExtension>
            <ns3:atemp>18.0</ns3:atemp>
          </ns3:TrackPointExtension>
        </extensions>
      </trkpt>
      <trkpt lat="43.118167184293270111083984375" lon="12.99217857420444488525390625">
        <ele>1008.5999755859375</ele>
        <time>2021-06-06T08:07:34.000Z</time>
        <extensions>
          <ns3:TrackPointExtension>
            <ns3:atemp>18.0</ns3:atemp>
          </ns3:TrackPointExtension>
        </extensions>
      </trkpt>
      <trkpt lat="43.1181308068335056304931640625" lon="12.9921551048755645751953125">
        <ele>1009.20001220703125</ele>
        <time>2021-06-06T08:07:36.000Z</time>
        <extensions>
          <ns3:TrackPointExtension>
            <ns3:atemp>18.0</ns3:atemp>
          </ns3:TrackPointExtension>
        </extensions>
      </trkpt>
      <trkpt lat="43.1181157194077968597412109375" lon="12.9921378381550312042236328125">
        <ele>1009.5999755859375</ele>
        <time>2021-06-06T08:07:37.000Z</time>
        <extensions>
          <ns3:TrackPointExtension>
            <ns3:atemp>18.0</ns3:atemp>
          </ns3:TrackPointExtension>
        </extensions>
      </trkpt>
      <trkpt lat="43.1180714629590511322021484375" lon="12.99207396805286407470703125">
        <ele>1010.4000244140625</ele>
        <time>2021-06-06T08:07:40.000Z</time>
        <extensions>
          <ns3:TrackPointExtension>
            <ns3:atemp>18.0</ns3:atemp>
          </ns3:TrackPointExtension>
        </extensions>
      </trkpt>
      <trkpt lat="43.1180148012936115264892578125" lon="12.99196936190128326416015625">
        <ele>1011.5999755859375</ele>
        <time>2021-06-06T08:07:44.000Z</time>
        <extensions>
          <ns3:TrackPointExtension>
            <ns3:atemp>18.0</ns3:atemp>
          </ns3:TrackPointExtension>
        </extensions>
      </trkpt>
      <trkpt lat="43.11800415627658367156982421875" lon="12.99194362945854663848876953125">
        <ele>1011.5999755859375</ele>
        <time>2021-06-06T08:07:45.000Z</time>
        <extensions>
          <ns3:TrackPointExtension>
            <ns3:atemp>18.0</ns3:atemp>
          </ns3:TrackPointExtension>
        </extensions>
      </trkpt>
      <trkpt lat="43.1179946847259998321533203125" lon="12.9918602295219898223876953125">
        <ele>1012.4000244140625</ele>
        <time>2021-06-06T08:07:48.000Z</time>
        <extensions>
          <ns3:TrackPointExtension>
            <ns3:atemp>18.0</ns3:atemp>
          </ns3:TrackPointExtension>
        </extensions>
      </trkpt>
      <trkpt lat="43.11800465919077396392822265625" lon="12.9918359220027923583984375">
        <ele>1012.79998779296875</ele>
        <time>2021-06-06T08:07:49.000Z</time>
        <extensions>
          <ns3:TrackPointExtension>
            <ns3:atemp>18.0</ns3:atemp>
          </ns3:TrackPointExtension>
        </extensions>
      </trkpt>
      <trkpt lat="43.11801739968359470367431640625" lon="12.99181505106389522552490234375">
        <ele>1013</ele>
        <time>2021-06-06T08:07:50.000Z</time>
        <extensions>
          <ns3:TrackPointExtension>
            <ns3:atemp>18.0</ns3:atemp>
          </ns3:TrackPointExtension>
        </extensions>
      </trkpt>
      <trkpt lat="43.1180379353463649749755859375" lon="12.99174598418176174163818359375">
        <ele>1014.20001220703125</ele>
        <time>2021-06-06T08:07:53.000Z</time>
        <extensions>
          <ns3:TrackPointExtension>
            <ns3:atemp>18.0</ns3:atemp>
          </ns3:TrackPointExtension>
        </extensions>
      </trkpt>
      <trkpt lat="43.1180489994585514068603515625" lon="12.99169166944921016693115234375">
        <ele>1015.20001220703125</ele>
        <time>2021-06-06T08:07:55.000Z</time>
        <extensions>
          <ns3:TrackPointExtension>
            <ns3:atemp>18.0</ns3:atemp>
          </ns3:TrackPointExtension>
        </extensions>
      </trkpt>
      <trkpt lat="43.1180533580482006072998046875" lon="12.99166300334036350250244140625">
        <ele>1016</ele>
        <time>2021-06-06T08:07:56.000Z</time>
        <extensions>
          <ns3:TrackPointExtension>
            <ns3:atemp>18.0</ns3:atemp>
          </ns3:TrackPointExtension>
        </extensions>
      </trkpt>
      <trkpt lat="43.1180614046752452850341796875" lon="12.99163668416440486907958984375">
        <ele>1016.5999755859375</ele>
        <time>2021-06-06T08:07:57.000Z</time>
        <extensions>
          <ns3:TrackPointExtension>
            <ns3:atemp>18.0</ns3:atemp>
          </ns3:TrackPointExtension>
        </extensions>
      </trkpt>
      <trkpt lat="43.11807037331163883209228515625" lon="12.99158404581248760223388671875">
        <ele>1018</ele>
        <time>2021-06-06T08:07:59.000Z</time>
        <extensions>
          <ns3:TrackPointExtension>
            <ns3:atemp>18.0</ns3:atemp>
          </ns3:TrackPointExtension>
        </extensions>
      </trkpt>
      <trkpt lat="43.1180815212428569793701171875" lon="12.99155822955071926116943359375">
        <ele>1019</ele>
        <time>2021-06-06T08:08:00.000Z</time>
        <extensions>
          <ns3:TrackPointExtension>
            <ns3:atemp>18.0</ns3:atemp>
          </ns3:TrackPointExtension>
        </extensions>
      </trkpt>
      <trkpt lat="43.118100799620151519775390625" lon="12.99150693230330944061279296875">
        <ele>1020.5999755859375</ele>
        <time>2021-06-06T08:08:02.000Z</time>
        <extensions>
          <ns3:TrackPointExtension>
            <ns3:atemp>18.0</ns3:atemp>
          </ns3:TrackPointExtension>
        </extensions>
      </trkpt>
      <trkpt lat="43.11811144463717937469482421875" lon="12.99148061312735080718994140625">
        <ele>1021.4000244140625</ele>
        <time>2021-06-06T08:08:03.000Z</time>
        <extensions>
          <ns3:TrackPointExtension>
            <ns3:atemp>18.0</ns3:atemp>
          </ns3:TrackPointExtension>
        </extensions>
      </trkpt>
      <trkpt lat="43.1181207485496997833251953125" lon="12.991454713046550750732421875">
        <ele>1022.20001220703125</ele>
        <time>2021-06-06T08:08:04.000Z</time>
        <extensions>
          <ns3:TrackPointExtension>
            <ns3:atemp>18.0</ns3:atemp>
          </ns3:TrackPointExtension>
        </extensions>
      </trkpt>
      <trkpt lat="43.11814681626856327056884765625" lon="12.99140165559947490692138671875">
        <ele>1023.4000244140625</ele>
        <time>2021-06-06T08:08:06.000Z</time>
        <extensions>
          <ns3:TrackPointExtension>
            <ns3:atemp>18.0</ns3:atemp>
          </ns3:TrackPointExtension>
        </extensions>
      </trkpt>
      <trkpt lat="43.118175230920314788818359375" lon="12.99135287292301654815673828125">
        <ele>1024.800048828125</ele>
        <time>2021-06-06T08:08:08.000Z</time>
        <extensions>
          <ns3:TrackPointExtension>
            <ns3:atemp>18.0</ns3:atemp>
          </ns3:TrackPointExtension>
        </extensions>
      </trkpt>
      <trkpt lat="43.11819970607757568359375" lon="12.9913080297410488128662109375">
        <ele>1026.199951171875</ele>
        <time>2021-06-06T08:08:10.000Z</time>
        <extensions>
          <ns3:TrackPointExtension>
            <ns3:atemp>18.0</ns3:atemp>
          </ns3:TrackPointExtension>
        </extensions>
      </trkpt>
      <trkpt lat="43.1182132847607135772705078125" lon="12.9912859015166759490966796875">
        <ele>1026.800048828125</ele>
        <time>2021-06-06T08:08:11.000Z</time>
        <extensions>
          <ns3:TrackPointExtension>
            <ns3:atemp>18.0</ns3:atemp>
          </ns3:TrackPointExtension>
        </extensions>
      </trkpt>
      <trkpt lat="43.11822510324418544769287109375" lon="12.9912634380161762237548828125">
        <ele>1027.4000244140625</ele>
        <time>2021-06-06T08:08:12.000Z</time>
        <extensions>
          <ns3:TrackPointExtension>
            <ns3:atemp>18.0</ns3:atemp>
          </ns3:TrackPointExtension>
        </extensions>
      </trkpt>
      <trkpt lat="43.11825980432331562042236328125" lon="12.9912215285003185272216796875">
        <ele>1028.5999755859375</ele>
        <time>2021-06-06T08:08:14.000Z</time>
        <extensions>
          <ns3:TrackPointExtension>
            <ns3:atemp>18.0</ns3:atemp>
          </ns3:TrackPointExtension>
        </extensions>
      </trkpt>
      <trkpt lat="43.11829366721212863922119140625" lon="12.99117836169898509979248046875">
        <ele>1029.800048828125</ele>
        <time>2021-06-06T08:08:16.000Z</time>
        <extensions>
          <ns3:TrackPointExtension>
            <ns3:atemp>18.0</ns3:atemp>
          </ns3:TrackPointExtension>
        </extensions>
      </trkpt>
      <trkpt lat="43.1183306314051151275634765625" lon="12.991144917905330657958984375">
        <ele>1031.4000244140625</ele>
        <time>2021-06-06T08:08:18.000Z</time>
        <extensions>
          <ns3:TrackPointExtension>
            <ns3:atemp>18.0</ns3:atemp>
          </ns3:TrackPointExtension>
        </extensions>
      </trkpt>
      <trkpt lat="43.1183661706745624542236328125" lon="12.99112689681351184844970703125">
        <ele>1033</ele>
        <time>2021-06-06T08:08:20.000Z</time>
        <extensions>
          <ns3:TrackPointExtension>
            <ns3:atemp>18.0</ns3:atemp>
          </ns3:TrackPointExtension>
        </extensions>
      </trkpt>
      <trkpt lat="43.11840648762881755828857421875" lon="12.9911063611507415771484375">
        <ele>1034.4000244140625</ele>
        <time>2021-06-06T08:08:22.000Z</time>
        <extensions>
          <ns3:TrackPointExtension>
            <ns3:atemp>18.0</ns3:atemp>
          </ns3:TrackPointExtension>
        </extensions>
      </trkpt>
      <trkpt lat="43.11845107935369014739990234375" lon="12.9910827241837978363037109375">
        <ele>1035.5999755859375</ele>
        <time>2021-06-06T08:08:24.000Z</time>
        <extensions>
          <ns3:TrackPointExtension>
            <ns3:atemp>18.0</ns3:atemp>
          </ns3:TrackPointExtension>
        </extensions>
      </trkpt>
      <trkpt lat="43.11848829500377178192138671875" lon="12.99105732701718807220458984375">
        <ele>1036.800048828125</ele>
        <time>2021-06-06T08:08:26.000Z</time>
        <extensions>
          <ns3:TrackPointExtension>
            <ns3:atemp>18.0</ns3:atemp>
          </ns3:TrackPointExtension>
        </extensions>
      </trkpt>
      <trkpt lat="43.11851687729358673095703125" lon="12.9910092987120151519775390625">
        <ele>1038</ele>
        <time>2021-06-06T08:08:29.000Z</time>
        <extensions>
          <ns3:TrackPointExtension>
            <ns3:atemp>18.0</ns3:atemp>
          </ns3:TrackPointExtension>
        </extensions>
      </trkpt>
      <trkpt lat="43.118537999689579010009765625" lon="12.99096998758614063262939453125">
        <ele>1038.199951171875</ele>
        <time>2021-06-06T08:08:31.000Z</time>
        <extensions>
          <ns3:TrackPointExtension>
            <ns3:atemp>18.0</ns3:atemp>
          </ns3:TrackPointExtension>
        </extensions>
      </trkpt>
      <trkpt lat="43.118643276393413543701171875" lon="12.990845851600170135498046875">
        <ele>1039</ele>
        <time>2021-06-06T08:08:37.000Z</time>
        <extensions>
          <ns3:TrackPointExtension>
            <ns3:atemp>18.0</ns3:atemp>
          </ns3:TrackPointExtension>
        </extensions>
      </trkpt>
      <trkpt lat="43.11865643598139286041259765625" lon="12.9908255673944950103759765625">
        <ele>1039</ele>
        <time>2021-06-06T08:08:38.000Z</time>
        <extensions>
          <ns3:TrackPointExtension>
            <ns3:atemp>18.0</ns3:atemp>
          </ns3:TrackPointExtension>
        </extensions>
      </trkpt>
      <trkpt lat="43.1186927296221256256103515625" lon="12.9907689057290554046630859375">
        <ele>1040.199951171875</ele>
        <time>2021-06-06T08:08:41.000Z</time>
        <extensions>
          <ns3:TrackPointExtension>
            <ns3:atemp>18.0</ns3:atemp>
          </ns3:TrackPointExtension>
        </extensions>
      </trkpt>
      <trkpt lat="43.11872667632997035980224609375" lon="12.9907293431460857391357421875">
        <ele>1041.199951171875</ele>
        <time>2021-06-06T08:08:43.000Z</time>
        <extensions>
          <ns3:TrackPointExtension>
            <ns3:atemp>18.0</ns3:atemp>
          </ns3:TrackPointExtension>
        </extensions>
      </trkpt>
      <trkpt lat="43.11874276958405971527099609375" lon="12.99070847220718860626220703125">
        <ele>1041.5999755859375</ele>
        <time>2021-06-06T08:08:44.000Z</time>
        <extensions>
          <ns3:TrackPointExtension>
            <ns3:atemp>18.0</ns3:atemp>
          </ns3:TrackPointExtension>
        </extensions>
      </trkpt>
      <trkpt lat="43.11877830885350704193115234375" lon="12.99065373837947845458984375">
        <ele>1042.199951171875</ele>
        <time>2021-06-06T08:08:46.000Z</time>
        <extensions>
          <ns3:TrackPointExtension>
            <ns3:atemp>18.0</ns3:atemp>
          </ns3:TrackPointExtension>
        </extensions>
      </trkpt>
      <trkpt lat="43.11881862580776214599609375" lon="12.9905667342245578765869140625">
        <ele>1043.5999755859375</ele>
        <time>2021-06-06T08:08:49.000Z</time>
        <extensions>
          <ns3:TrackPointExtension>
            <ns3:atemp>18.0</ns3:atemp>
          </ns3:TrackPointExtension>
        </extensions>
      </trkpt>
      <trkpt lat="43.11884343624114990234375" lon="12.99050345085561275482177734375">
        <ele>1044</ele>
        <time>2021-06-06T08:08:51.000Z</time>
        <extensions>
          <ns3:TrackPointExtension>
            <ns3:atemp>18.0</ns3:atemp>
          </ns3:TrackPointExtension>
        </extensions>
      </trkpt>
      <trkpt lat="43.11886824667453765869140625" lon="12.9904453642666339874267578125">
        <ele>1044.5999755859375</ele>
        <time>2021-06-06T08:08:53.000Z</time>
        <extensions>
          <ns3:TrackPointExtension>
            <ns3:atemp>18.0</ns3:atemp>
          </ns3:TrackPointExtension>
        </extensions>
      </trkpt>
      <trkpt lat="43.11891878955066204071044921875" lon="12.9903672449290752410888671875">
        <ele>1045.800048828125</ele>
        <time>2021-06-06T08:08:56.000Z</time>
        <extensions>
          <ns3:TrackPointExtension>
            <ns3:atemp>18.0</ns3:atemp>
          </ns3:TrackPointExtension>
        </extensions>
      </trkpt>
      <trkpt lat="43.1189549155533313751220703125" lon="12.99031703732907772064208984375">
        <ele>1046.199951171875</ele>
        <time>2021-06-06T08:08:58.000Z</time>
        <extensions>
          <ns3:TrackPointExtension>
            <ns3:atemp>18.0</ns3:atemp>
          </ns3:TrackPointExtension>
        </extensions>
      </trkpt>
      <trkpt lat="43.11897285282611846923828125" lon="12.990291975438594818115234375">
        <ele>1047.4000244140625</ele>
        <time>2021-06-06T08:08:59.000Z</time>
        <extensions>
          <ns3:TrackPointExtension>
            <ns3:atemp>18.0</ns3:atemp>
          </ns3:TrackPointExtension>
        </extensions>
      </trkpt>
      <trkpt lat="43.11902825720608234405517578125" lon="12.99025299958884716033935546875">
        <ele>1048.4000244140625</ele>
        <time>2021-06-06T08:09:01.000Z</time>
        <extensions>
          <ns3:TrackPointExtension>
            <ns3:atemp>18.0</ns3:atemp>
          </ns3:TrackPointExtension>
        </extensions>
      </trkpt>
      <trkpt lat="43.11905960552394390106201171875" lon="12.99020438455045223236083984375">
        <ele>1049.5999755859375</ele>
        <time>2021-06-06T08:09:03.000Z</time>
        <extensions>
          <ns3:TrackPointExtension>
            <ns3:atemp>18.0</ns3:atemp>
          </ns3:TrackPointExtension>
        </extensions>
      </trkpt>
      <trkpt lat="43.1190762855112552642822265625" lon="12.99012207426130771636962890625">
        <ele>1051</ele>
        <time>2021-06-06T08:09:06.000Z</time>
        <extensions>
          <ns3:TrackPointExtension>
            <ns3:atemp>18.0</ns3:atemp>
          </ns3:TrackPointExtension>
        </extensions>
      </trkpt>
      <trkpt lat="43.1190776266157627105712890625" lon="12.9900641553103923797607421875">
        <ele>1052</ele>
        <time>2021-06-06T08:09:08.000Z</time>
        <extensions>
          <ns3:TrackPointExtension>
            <ns3:atemp>18.0</ns3:atemp>
          </ns3:TrackPointExtension>
        </extensions>
      </trkpt>
      <trkpt lat="43.1190558336675167083740234375" lon="12.98997354693710803985595703125">
        <ele>1053.5999755859375</ele>
        <time>2021-06-06T08:09:11.000Z</time>
        <extensions>
          <ns3:TrackPointExtension>
            <ns3:atemp>18.0</ns3:atemp>
          </ns3:TrackPointExtension>
        </extensions>
      </trkpt>
      <trkpt lat="43.11904200352728366851806640625" lon="12.98994739539921283721923828125">
        <ele>1054</ele>
        <time>2021-06-06T08:09:12.000Z</time>
        <extensions>
          <ns3:TrackPointExtension>
            <ns3:atemp>18.0</ns3:atemp>
          </ns3:TrackPointExtension>
        </extensions>
      </trkpt>
      <trkpt lat="43.11899322085082530975341796875" lon="12.98986961133778095245361328125">
        <ele>1054.800048828125</ele>
        <time>2021-06-06T08:09:15.000Z</time>
        <extensions>
          <ns3:TrackPointExtension>
            <ns3:atemp>18.0</ns3:atemp>
          </ns3:TrackPointExtension>
        </extensions>
      </trkpt>
      <trkpt lat="43.11893538571894168853759765625" lon="12.98977238126099109649658203125">
        <ele>1055.800048828125</ele>
        <time>2021-06-06T08:09:19.000Z</time>
        <extensions>
          <ns3:TrackPointExtension>
            <ns3:atemp>18.0</ns3:atemp>
          </ns3:TrackPointExtension>
        </extensions>
      </trkpt>
      <trkpt lat="43.11886145733296871185302734375" lon="12.9896976985037326812744140625">
        <ele>1057</ele>
        <time>2021-06-06T08:09:23.000Z</time>
        <extensions>
          <ns3:TrackPointExtension>
            <ns3:atemp>18.0</ns3:atemp>
          </ns3:TrackPointExtension>
        </extensions>
      </trkpt>
      <trkpt lat="43.1188338808715343475341796875" lon="12.98965788446366786956787109375">
        <ele>1058.199951171875</ele>
        <time>2021-06-06T08:09:25.000Z</time>
        <extensions>
          <ns3:TrackPointExtension>
            <ns3:atemp>18.0</ns3:atemp>
          </ns3:TrackPointExtension>
        </extensions>
      </trkpt>
      <trkpt lat="43.11880479566752910614013671875" lon="12.98961698077619075775146484375">
        <ele>1059.4000244140625</ele>
        <time>2021-06-06T08:09:27.000Z</time>
        <extensions>
          <ns3:TrackPointExtension>
            <ns3:atemp>18.0</ns3:atemp>
          </ns3:TrackPointExtension>
        </extensions>
      </trkpt>
      <trkpt lat="43.11876900494098663330078125" lon="12.9895842075347900390625">
        <ele>1061</ele>
        <time>2021-06-06T08:09:29.000Z</time>
        <extensions>
          <ns3:TrackPointExtension>
            <ns3:atemp>18.0</ns3:atemp>
          </ns3:TrackPointExtension>
        </extensions>
      </trkpt>
      <trkpt lat="43.11872935853898525238037109375" lon="12.9895560443401336669921875">
        <ele>1062</ele>
        <time>2021-06-06T08:09:31.000Z</time>
        <extensions>
          <ns3:TrackPointExtension>
            <ns3:atemp>18.0</ns3:atemp>
          </ns3:TrackPointExtension>
        </extensions>
      </trkpt>
      <trkpt lat="43.11867688782513141632080078125" lon="12.98951488919556140899658203125">
        <ele>1063.4000244140625</ele>
        <time>2021-06-06T08:09:34.000Z</time>
        <extensions>
          <ns3:TrackPointExtension>
            <ns3:atemp>18.0</ns3:atemp>
          </ns3:TrackPointExtension>
        </extensions>
      </trkpt>
      <trkpt lat="43.11862726695835590362548828125" lon="12.98948588781058788299560546875">
        <ele>1064.4000244140625</ele>
        <time>2021-06-06T08:09:37.000Z</time>
        <extensions>
          <ns3:TrackPointExtension>
            <ns3:atemp>18.0</ns3:atemp>
          </ns3:TrackPointExtension>
        </extensions>
      </trkpt>
      <trkpt lat="43.11855585314333438873291015625" lon="12.98945420421659946441650390625">
        <ele>1065.800048828125</ele>
        <time>2021-06-06T08:09:41.000Z</time>
        <extensions>
          <ns3:TrackPointExtension>
            <ns3:atemp>18.0</ns3:atemp>
          </ns3:TrackPointExtension>
        </extensions>
      </trkpt>
      <trkpt lat="43.11852064915001392364501953125" lon="12.989438362419605255126953125">
        <ele>1066.800048828125</ele>
        <time>2021-06-06T08:09:43.000Z</time>
        <extensions>
          <ns3:TrackPointExtension>
            <ns3:atemp>18.0</ns3:atemp>
          </ns3:TrackPointExtension>
        </extensions>
      </trkpt>
      <trkpt lat="43.11850346624851226806640625" lon="12.9894311539828777313232421875">
        <ele>1067.199951171875</ele>
        <time>2021-06-06T08:09:44.000Z</time>
        <extensions>
          <ns3:TrackPointExtension>
            <ns3:atemp>18.0</ns3:atemp>
          </ns3:TrackPointExtension>
        </extensions>
      </trkpt>
      <trkpt lat="43.11844822950661182403564453125" lon="12.9894153960049152374267578125">
        <ele>1068.5999755859375</ele>
        <time>2021-06-06T08:09:47.000Z</time>
        <extensions>
          <ns3:TrackPointExtension>
            <ns3:atemp>18.0</ns3:atemp>
          </ns3:TrackPointExtension>
        </extensions>
      </trkpt>
      <trkpt lat="43.11837228946387767791748046875" lon="12.98940156586468219757080078125">
        <ele>1069.800048828125</ele>
        <time>2021-06-06T08:09:51.000Z</time>
        <extensions>
          <ns3:TrackPointExtension>
            <ns3:atemp>18.0</ns3:atemp>
          </ns3:TrackPointExtension>
        </extensions>
      </trkpt>
      <trkpt lat="43.11835217289626598358154296875" lon="12.98940114676952362060546875">
        <ele>1070.4000244140625</ele>
        <time>2021-06-06T08:09:52.000Z</time>
        <extensions>
          <ns3:TrackPointExtension>
            <ns3:atemp>18.0</ns3:atemp>
          </ns3:TrackPointExtension>
        </extensions>
      </trkpt>
      <trkpt lat="43.1183128617703914642333984375" lon="12.98940005712211132049560546875">
        <ele>1071.199951171875</ele>
        <time>2021-06-06T08:09:54.000Z</time>
        <extensions>
          <ns3:TrackPointExtension>
            <ns3:atemp>18.0</ns3:atemp>
          </ns3:TrackPointExtension>
        </extensions>
      </trkpt>
      <trkpt lat="43.11825829558074474334716796875" lon="12.989387400448322296142578125">
        <ele>1072.5999755859375</ele>
        <time>2021-06-06T08:09:57.000Z</time>
        <extensions>
          <ns3:TrackPointExtension>
            <ns3:atemp>18.0</ns3:atemp>
          </ns3:TrackPointExtension>
        </extensions>
      </trkpt>
      <trkpt lat="43.118183277547359466552734375" lon="12.98937692306935787200927734375">
        <ele>1073.800048828125</ele>
        <time>2021-06-06T08:10:01.000Z</time>
        <extensions>
          <ns3:TrackPointExtension>
            <ns3:atemp>18.0</ns3:atemp>
          </ns3:TrackPointExtension>
        </extensions>
      </trkpt>
      <trkpt lat="43.11810222454369068145751953125" lon="12.98936703242361545562744140625">
        <ele>1074.800048828125</ele>
        <time>2021-06-06T08:10:05.000Z</time>
        <extensions>
          <ns3:TrackPointExtension>
            <ns3:atemp>18.0</ns3:atemp>
          </ns3:TrackPointExtension>
        </extensions>
      </trkpt>
      <trkpt lat="43.1180454790592193603515625" lon="12.98935848288238048553466796875">
        <ele>1075.800048828125</ele>
        <time>2021-06-06T08:10:08.000Z</time>
        <extensions>
          <ns3:TrackPointExtension>
            <ns3:atemp>18.0</ns3:atemp>
          </ns3:TrackPointExtension>
        </extensions>
      </trkpt>
      <trkpt lat="43.11796526424586772918701171875" lon="12.9893469996750354766845703125">
        <ele>1076.800048828125</ele>
        <time>2021-06-06T08:10:12.000Z</time>
        <extensions>
          <ns3:TrackPointExtension>
            <ns3:atemp>18.0</ns3:atemp>
          </ns3:TrackPointExtension>
        </extensions>
      </trkpt>
      <trkpt lat="43.1179028190672397613525390625" lon="12.9893386177718639373779296875">
        <ele>1077.5999755859375</ele>
        <time>2021-06-06T08:10:15.000Z</time>
        <extensions>
          <ns3:TrackPointExtension>
            <ns3:atemp>18.0</ns3:atemp>
          </ns3:TrackPointExtension>
        </extensions>
      </trkpt>
      <trkpt lat="43.11788253486156463623046875" lon="12.9893342591822147369384765625">
        <ele>1078</ele>
        <time>2021-06-06T08:10:16.000Z</time>
        <extensions>
          <ns3:TrackPointExtension>
            <ns3:atemp>18.0</ns3:atemp>
          </ns3:TrackPointExtension>
        </extensions>
      </trkpt>
      <trkpt lat="43.11780366115272045135498046875" lon="12.98931808210909366607666015625">
        <ele>1079</ele>
        <time>2021-06-06T08:10:20.000Z</time>
        <extensions>
          <ns3:TrackPointExtension>
            <ns3:atemp>18.0</ns3:atemp>
          </ns3:TrackPointExtension>
        </extensions>
      </trkpt>
      <trkpt lat="43.1177432276308536529541015625" lon="12.98931322060525417327880859375">
        <ele>1080.199951171875</ele>
        <time>2021-06-06T08:10:23.000Z</time>
        <extensions>
          <ns3:TrackPointExtension>
            <ns3:atemp>18.0</ns3:atemp>
          </ns3:TrackPointExtension>
        </extensions>
      </trkpt>
      <trkpt lat="43.1177236139774322509765625" lon="12.98931255005300045013427734375">
        <ele>1080.5999755859375</ele>
        <time>2021-06-06T08:10:24.000Z</time>
        <extensions>
          <ns3:TrackPointExtension>
            <ns3:atemp>18.0</ns3:atemp>
          </ns3:TrackPointExtension>
        </extensions>
      </trkpt>
      <trkpt lat="43.11768312938511371612548828125" lon="12.98930735327303409576416015625">
        <ele>1082</ele>
        <time>2021-06-06T08:10:26.000Z</time>
        <extensions>
          <ns3:TrackPointExtension>
            <ns3:atemp>18.0</ns3:atemp>
          </ns3:TrackPointExtension>
        </extensions>
      </trkpt>
      <trkpt lat="43.11762009747326374053955078125" lon="12.9893030785024166107177734375">
        <ele>1083</ele>
        <time>2021-06-06T08:10:29.000Z</time>
        <extensions>
          <ns3:TrackPointExtension>
            <ns3:atemp>18.0</ns3:atemp>
          </ns3:TrackPointExtension>
        </extensions>
      </trkpt>
      <trkpt lat="43.1175786070525646209716796875" lon="12.98930131830275058746337890625">
        <ele>1083.800048828125</ele>
        <time>2021-06-06T08:10:31.000Z</time>
        <extensions>
          <ns3:TrackPointExtension>
            <ns3:atemp>18.0</ns3:atemp>
          </ns3:TrackPointExtension>
        </extensions>
      </trkpt>
      <trkpt lat="43.11753829009830951690673828125" lon="12.9893003962934017181396484375">
        <ele>1084.199951171875</ele>
        <time>2021-06-06T08:10:33.000Z</time>
        <extensions>
          <ns3:TrackPointExtension>
            <ns3:atemp>18.0</ns3:atemp>
          </ns3:TrackPointExtension>
        </extensions>
      </trkpt>
      <trkpt lat="43.117478191852569580078125" lon="12.98931531608104705810546875">
        <ele>1085.199951171875</ele>
        <time>2021-06-06T08:10:36.000Z</time>
        <extensions>
          <ns3:TrackPointExtension>
            <ns3:atemp>18.0</ns3:atemp>
          </ns3:TrackPointExtension>
        </extensions>
      </trkpt>
      <trkpt lat="43.117440976202487945556640625" lon="12.98931959085166454315185546875">
        <ele>1086.4000244140625</ele>
        <time>2021-06-06T08:10:38.000Z</time>
        <extensions>
          <ns3:TrackPointExtension>
            <ns3:atemp>18.0</ns3:atemp>
          </ns3:TrackPointExtension>
        </extensions>
      </trkpt>
      <trkpt lat="43.11742194928228855133056640625" lon="12.98931925557553768157958984375">
        <ele>1087</ele>
        <time>2021-06-06T08:10:39.000Z</time>
        <extensions>
          <ns3:TrackPointExtension>
            <ns3:atemp>18.0</ns3:atemp>
          </ns3:TrackPointExtension>
        </extensions>
      </trkpt>
      <trkpt lat="43.1173802912235260009765625" lon="12.9893238656222820281982421875">
        <ele>1087.800048828125</ele>
        <time>2021-06-06T08:10:41.000Z</time>
        <extensions>
          <ns3:TrackPointExtension>
            <ns3:atemp>18.0</ns3:atemp>
          </ns3:TrackPointExtension>
        </extensions>
      </trkpt>
      <trkpt lat="43.11731197871267795562744140625" lon="12.98933031968772411346435546875">
        <ele>1089.199951171875</ele>
        <time>2021-06-06T08:10:44.000Z</time>
        <extensions>
          <ns3:TrackPointExtension>
            <ns3:atemp>18.0</ns3:atemp>
          </ns3:TrackPointExtension>
        </extensions>
      </trkpt>
      <trkpt lat="43.11722950078547000885009765625" lon="12.9893416352570056915283203125">
        <ele>1090.5999755859375</ele>
        <time>2021-06-06T08:10:48.000Z</time>
        <extensions>
          <ns3:TrackPointExtension>
            <ns3:atemp>18.0</ns3:atemp>
          </ns3:TrackPointExtension>
        </extensions>
      </trkpt>
      <trkpt lat="43.11717635951936244964599609375" lon="12.989345155656337738037109375">
        <ele>1091.800048828125</ele>
        <time>2021-06-06T08:10:51.000Z</time>
        <extensions>
          <ns3:TrackPointExtension>
            <ns3:atemp>18.0</ns3:atemp>
          </ns3:TrackPointExtension>
        </extensions>
      </trkpt>
      <trkpt lat="43.11712003313004970550537109375" lon="12.989343143999576568603515625">
        <ele>1092.800048828125</ele>
        <time>2021-06-06T08:10:54.000Z</time>
        <extensions>
          <ns3:TrackPointExtension>
            <ns3:atemp>18.0</ns3:atemp>
          </ns3:TrackPointExtension>
        </extensions>
      </trkpt>
      <trkpt lat="43.11710075475275516510009765625" lon="12.98934339545667171478271484375">
        <ele>1093.800048828125</ele>
        <time>2021-06-06T08:10:55.000Z</time>
        <extensions>
          <ns3:TrackPointExtension>
            <ns3:atemp>18.0</ns3:atemp>
          </ns3:TrackPointExtension>
        </extensions>
      </trkpt>
      <trkpt lat="43.1170810572803020477294921875" lon="12.98934289254248142242431640625">
        <ele>1094.199951171875</ele>
        <time>2021-06-06T08:10:56.000Z</time>
        <extensions>
          <ns3:TrackPointExtension>
            <ns3:atemp>18.0</ns3:atemp>
          </ns3:TrackPointExtension>
        </extensions>
      </trkpt>
      <trkpt lat="43.11699807643890380859375" lon="12.98934054560959339141845703125">
        <ele>1095.4000244140625</ele>
        <time>2021-06-06T08:11:00.000Z</time>
        <extensions>
          <ns3:TrackPointExtension>
            <ns3:atemp>18.0</ns3:atemp>
          </ns3:TrackPointExtension>
        </extensions>
      </trkpt>
      <trkpt lat="43.11693303287029266357421875" lon="12.989341802895069122314453125">
        <ele>1096.800048828125</ele>
        <time>2021-06-06T08:11:03.000Z</time>
        <extensions>
          <ns3:TrackPointExtension>
            <ns3:atemp>18.0</ns3:atemp>
          </ns3:TrackPointExtension>
        </extensions>
      </trkpt>
      <trkpt lat="43.11690964736044406890869140625" lon="12.989343143999576568603515625">
        <ele>1097.199951171875</ele>
        <time>2021-06-06T08:11:04.000Z</time>
        <extensions>
          <ns3:TrackPointExtension>
            <ns3:atemp>18.0</ns3:atemp>
          </ns3:TrackPointExtension>
        </extensions>
      </trkpt>
      <trkpt lat="43.1168867647647857666015625" lon="12.98934213817119598388671875">
        <ele>1098</ele>
        <time>2021-06-06T08:11:05.000Z</time>
        <extensions>
          <ns3:TrackPointExtension>
            <ns3:atemp>18.0</ns3:atemp>
          </ns3:TrackPointExtension>
        </extensions>
      </trkpt>
      <trkpt lat="43.11684074811637401580810546875" lon="12.9893429763615131378173828125">
        <ele>1099</ele>
        <time>2021-06-06T08:11:07.000Z</time>
        <extensions>
          <ns3:TrackPointExtension>
            <ns3:atemp>18.0</ns3:atemp>
          </ns3:TrackPointExtension>
        </extensions>
      </trkpt>
      <trkpt lat="43.11676983721554279327392578125" lon="12.98935127444565296173095703125">
        <ele>1100.4000244140625</ele>
        <time>2021-06-06T08:11:10.000Z</time>
        <extensions>
          <ns3:TrackPointExtension>
            <ns3:atemp>18.0</ns3:atemp>
          </ns3:TrackPointExtension>
        </extensions>
      </trkpt>
      <trkpt lat="43.1167239882051944732666015625" lon="12.98935714177787303924560546875">
        <ele>1101.800048828125</ele>
        <time>2021-06-06T08:11:12.000Z</time>
        <extensions>
          <ns3:TrackPointExtension>
            <ns3:atemp>18.0</ns3:atemp>
          </ns3:TrackPointExtension>
        </extensions>
      </trkpt>
      <trkpt lat="43.11670278199017047882080078125" lon="12.9893597401678562164306640625">
        <ele>1102.4000244140625</ele>
        <time>2021-06-06T08:11:13.000Z</time>
        <extensions>
          <ns3:TrackPointExtension>
            <ns3:atemp>18.0</ns3:atemp>
          </ns3:TrackPointExtension>
        </extensions>
      </trkpt>
      <trkpt lat="43.11666036956012248992919921875" lon="12.98937172628939151763916015625">
        <ele>1103</ele>
        <time>2021-06-06T08:11:15.000Z</time>
        <extensions>
          <ns3:TrackPointExtension>
            <ns3:atemp>18.0</ns3:atemp>
          </ns3:TrackPointExtension>
        </extensions>
      </trkpt>
      <trkpt lat="43.11661921441555023193359375" lon="12.98938647843897342681884765625">
        <ele>1104.199951171875</ele>
        <time>2021-06-06T08:11:17.000Z</time>
        <extensions>
          <ns3:TrackPointExtension>
            <ns3:atemp>18.0</ns3:atemp>
          </ns3:TrackPointExtension>
        </extensions>
      </trkpt>
      <trkpt lat="43.1165783107280731201171875" lon="12.98939955420792102813720703125">
        <ele>1105.4000244140625</ele>
        <time>2021-06-06T08:11:19.000Z</time>
        <extensions>
          <ns3:TrackPointExtension>
            <ns3:atemp>18.0</ns3:atemp>
          </ns3:TrackPointExtension>
        </extensions>
      </trkpt>
      <trkpt lat="43.11653950251638889312744140625" lon="12.98941363580524921417236328125">
        <ele>1106.5999755859375</ele>
        <time>2021-06-06T08:11:21.000Z</time>
        <extensions>
          <ns3:TrackPointExtension>
            <ns3:atemp>18.0</ns3:atemp>
          </ns3:TrackPointExtension>
        </extensions>
      </trkpt>
      <trkpt lat="43.11652005650103092193603515625" lon="12.989418245851993560791015625">
        <ele>1107.199951171875</ele>
        <time>2021-06-06T08:11:22.000Z</time>
        <extensions>
          <ns3:TrackPointExtension>
            <ns3:atemp>18.0</ns3:atemp>
          </ns3:TrackPointExtension>
        </extensions>
      </trkpt>
      <trkpt lat="43.1165000237524509429931640625" lon="12.98942486755549907684326171875">
        <ele>1108</ele>
        <time>2021-06-06T08:11:23.000Z</time>
        <extensions>
          <ns3:TrackPointExtension>
            <ns3:atemp>18.0</ns3:atemp>
          </ns3:TrackPointExtension>
        </extensions>
      </trkpt>
      <trkpt lat="43.11646155081689357757568359375" lon="12.98944096080958843231201171875">
        <ele>1109.800048828125</ele>
        <time>2021-06-06T08:11:25.000Z</time>
        <extensions>
          <ns3:TrackPointExtension>
            <ns3:atemp>18.0</ns3:atemp>
          </ns3:TrackPointExtension>
        </extensions>
      </trkpt>
      <trkpt lat="43.11638359911739826202392578125" lon="12.98946292139589786529541015625">
        <ele>1111.4000244140625</ele>
        <time>2021-06-06T08:11:29.000Z</time>
        <extensions>
          <ns3:TrackPointExtension>
            <ns3:atemp>18.0</ns3:atemp>
          </ns3:TrackPointExtension>
        </extensions>
      </trkpt>
      <trkpt lat="43.1163461320102214813232421875" lon="12.989477254450321197509765625">
        <ele>1112.4000244140625</ele>
        <time>2021-06-06T08:11:31.000Z</time>
        <extensions>
          <ns3:TrackPointExtension>
            <ns3:atemp>18.0</ns3:atemp>
          </ns3:TrackPointExtension>
        </extensions>
      </trkpt>
      <trkpt lat="43.1162859499454498291015625" lon="12.98949242569506168365478515625">
        <ele>1114</ele>
        <time>2021-06-06T08:11:34.000Z</time>
        <extensions>
          <ns3:TrackPointExtension>
            <ns3:atemp>18.0</ns3:atemp>
          </ns3:TrackPointExtension>
        </extensions>
      </trkpt>
      <trkpt lat="43.11622627079486846923828125" lon="12.9895116202533245086669921875">
        <ele>1115.4000244140625</ele>
        <time>2021-06-06T08:11:37.000Z</time>
        <extensions>
          <ns3:TrackPointExtension>
            <ns3:atemp>18.0</ns3:atemp>
          </ns3:TrackPointExtension>
        </extensions>
      </trkpt>
      <trkpt lat="43.11618427745997905731201171875" lon="12.98952293582260608673095703125">
        <ele>1116.800048828125</ele>
        <time>2021-06-06T08:11:39.000Z</time>
        <extensions>
          <ns3:TrackPointExtension>
            <ns3:atemp>18.0</ns3:atemp>
          </ns3:TrackPointExtension>
        </extensions>
      </trkpt>
      <trkpt lat="43.11610163189470767974853515625" lon="12.98954204656183719635009765625">
        <ele>1117.800048828125</ele>
        <time>2021-06-06T08:11:43.000Z</time>
        <extensions>
          <ns3:TrackPointExtension>
            <ns3:atemp>18.0</ns3:atemp>
          </ns3:TrackPointExtension>
        </extensions>
      </trkpt>
      <trkpt lat="43.11606190167367458343505859375" lon="12.98954875208437442779541015625">
        <ele>1119.199951171875</ele>
        <time>2021-06-06T08:11:45.000Z</time>
        <extensions>
          <ns3:TrackPointExtension>
            <ns3:atemp>18.0</ns3:atemp>
          </ns3:TrackPointExtension>
        </extensions>
      </trkpt>
      <trkpt lat="43.11602644622325897216796875" lon="12.9895485006272792816162109375">
        <ele>1119.800048828125</ele>
        <time>2021-06-06T08:11:47.000Z</time>
        <extensions>
          <ns3:TrackPointExtension>
            <ns3:atemp>18.0</ns3:atemp>
          </ns3:TrackPointExtension>
        </extensions>
      </trkpt>
      <trkpt lat="43.11598931439220905303955078125" lon="12.98955813981592655181884765625">
        <ele>1120.4000244140625</ele>
        <time>2021-06-06T08:11:49.000Z</time>
        <extensions>
          <ns3:TrackPointExtension>
            <ns3:atemp>18.0</ns3:atemp>
          </ns3:TrackPointExtension>
        </extensions>
      </trkpt>
      <trkpt lat="43.1159471534192562103271484375" lon="12.989569120109081268310546875">
        <ele>1121.5999755859375</ele>
        <time>2021-06-06T08:11:51.000Z</time>
        <extensions>
          <ns3:TrackPointExtension>
            <ns3:atemp>18.0</ns3:atemp>
          </ns3:TrackPointExtension>
        </extensions>
      </trkpt>
      <trkpt lat="43.11590516008436679840087890625" lon="12.98957456834614276885986328125">
        <ele>1123</ele>
        <time>2021-06-06T08:11:53.000Z</time>
        <extensions>
          <ns3:TrackPointExtension>
            <ns3:atemp>18.0</ns3:atemp>
          </ns3:TrackPointExtension>
        </extensions>
      </trkpt>
      <trkpt lat="43.115823604166507720947265625" lon="12.989592254161834716796875">
        <ele>1124.4000244140625</ele>
        <time>2021-06-06T08:11:57.000Z</time>
        <extensions>
          <ns3:TrackPointExtension>
            <ns3:atemp>18.0</ns3:atemp>
          </ns3:TrackPointExtension>
        </extensions>
      </trkpt>
      <trkpt lat="43.115739785134792327880859375" lon="12.9896081797778606414794921875">
        <ele>1125.5999755859375</ele>
        <time>2021-06-06T08:12:01.000Z</time>
        <extensions>
          <ns3:TrackPointExtension>
            <ns3:atemp>18.0</ns3:atemp>
          </ns3:TrackPointExtension>
        </extensions>
      </trkpt>
      <trkpt lat="43.11569921672344207763671875" lon="12.98961346037685871124267578125">
        <ele>1126.5999755859375</ele>
        <time>2021-06-06T08:12:03.000Z</time>
        <extensions>
          <ns3:TrackPointExtension>
            <ns3:atemp>18.0</ns3:atemp>
          </ns3:TrackPointExtension>
        </extensions>
      </trkpt>
      <trkpt lat="43.11566032469272613525390625" lon="12.98961245454847812652587890625">
        <ele>1127.5999755859375</ele>
        <time>2021-06-06T08:12:05.000Z</time>
        <extensions>
          <ns3:TrackPointExtension>
            <ns3:atemp>18.0</ns3:atemp>
          </ns3:TrackPointExtension>
        </extensions>
      </trkpt>
      <trkpt lat="43.11562268994748592376708984375" lon="12.98961010761559009552001953125">
        <ele>1128.800048828125</ele>
        <time>2021-06-06T08:12:07.000Z</time>
        <extensions>
          <ns3:TrackPointExtension>
            <ns3:atemp>18.0</ns3:atemp>
          </ns3:TrackPointExtension>
        </extensions>
      </trkpt>
      <trkpt lat="43.11556753702461719512939453125" lon="12.9896048270165920257568359375">
        <ele>1129.5999755859375</ele>
        <time>2021-06-06T08:12:10.000Z</time>
        <extensions>
          <ns3:TrackPointExtension>
            <ns3:atemp>18.0</ns3:atemp>
          </ns3:TrackPointExtension>
        </extensions>
      </trkpt>
      <trkpt lat="43.1155485101044178009033203125" lon="12.98960139043629169464111328125">
        <ele>1129.800048828125</ele>
        <time>2021-06-06T08:12:11.000Z</time>
        <extensions>
          <ns3:TrackPointExtension>
            <ns3:atemp>18.0</ns3:atemp>
          </ns3:TrackPointExtension>
        </extensions>
      </trkpt>
      <trkpt lat="43.11545505188405513763427734375" lon="12.989591248333454132080078125">
        <ele>1131.199951171875</ele>
        <time>2021-06-06T08:12:16.000Z</time>
        <extensions>
          <ns3:TrackPointExtension>
            <ns3:atemp>18.0</ns3:atemp>
          </ns3:TrackPointExtension>
        </extensions>
      </trkpt>
      <trkpt lat="43.1154383718967437744140625" lon="12.98958781175315380096435546875">
        <ele>1131.199951171875</ele>
        <time>2021-06-06T08:12:17.000Z</time>
        <extensions>
          <ns3:TrackPointExtension>
            <ns3:atemp>18.0</ns3:atemp>
          </ns3:TrackPointExtension>
        </extensions>
      </trkpt>
      <trkpt lat="43.115363605320453643798828125" lon="12.98958227969706058502197265625">
        <ele>1132</ele>
        <time>2021-06-06T08:12:21.000Z</time>
        <extensions>
          <ns3:TrackPointExtension>
            <ns3:atemp>18.0</ns3:atemp>
          </ns3:TrackPointExtension>
        </extensions>
      </trkpt>
      <trkpt lat="43.115287832915782928466796875" lon="12.98957456834614276885986328125">
        <ele>1133.199951171875</ele>
        <time>2021-06-06T08:12:25.000Z</time>
        <extensions>
          <ns3:TrackPointExtension>
            <ns3:atemp>18.0</ns3:atemp>
          </ns3:TrackPointExtension>
        </extensions>
      </trkpt>
      <trkpt lat="43.11519219540059566497802734375" lon="12.98957255668938159942626953125">
        <ele>1134.199951171875</ele>
        <time>2021-06-06T08:12:30.000Z</time>
        <extensions>
          <ns3:TrackPointExtension>
            <ns3:atemp>18.0</ns3:atemp>
          </ns3:TrackPointExtension>
        </extensions>
      </trkpt>
      <trkpt lat="43.1151138246059417724609375" lon="12.989559732377529144287109375">
        <ele>1135.199951171875</ele>
        <time>2021-06-06T08:12:34.000Z</time>
        <extensions>
          <ns3:TrackPointExtension>
            <ns3:atemp>18.0</ns3:atemp>
          </ns3:TrackPointExtension>
        </extensions>
      </trkpt>
      <trkpt lat="43.1150965578854084014892578125" lon="12.989554703235626220703125">
        <ele>1135.4000244140625</ele>
        <time>2021-06-06T08:12:35.000Z</time>
        <extensions>
          <ns3:TrackPointExtension>
            <ns3:atemp>18.0</ns3:atemp>
          </ns3:TrackPointExtension>
        </extensions>
      </trkpt>
      <trkpt lat="43.11502288095653057098388671875" lon="12.989551015198230743408203125">
        <ele>1136.5999755859375</ele>
        <time>2021-06-06T08:12:39.000Z</time>
        <extensions>
          <ns3:TrackPointExtension>
            <ns3:atemp>18.0</ns3:atemp>
          </ns3:TrackPointExtension>
        </extensions>
      </trkpt>
      <trkpt lat="43.1149716675281524658203125" lon="12.98953391611576080322265625">
        <ele>1137</ele>
        <time>2021-06-06T08:12:42.000Z</time>
        <extensions>
          <ns3:TrackPointExtension>
            <ns3:atemp>18.0</ns3:atemp>
          </ns3:TrackPointExtension>
        </extensions>
      </trkpt>
      <trkpt lat="43.11492246575653553009033203125" lon="12.9895193316042423248291015625">
        <ele>1137.800048828125</ele>
        <time>2021-06-06T08:12:45.000Z</time>
        <extensions>
          <ns3:TrackPointExtension>
            <ns3:atemp>18.0</ns3:atemp>
          </ns3:TrackPointExtension>
        </extensions>
      </trkpt>
      <trkpt lat="43.11487100087106227874755859375" lon="12.98950566910207271575927734375">
        <ele>1138.800048828125</ele>
        <time>2021-06-06T08:12:48.000Z</time>
        <extensions>
          <ns3:TrackPointExtension>
            <ns3:atemp>18.0</ns3:atemp>
          </ns3:TrackPointExtension>
        </extensions>
      </trkpt>
      <trkpt lat="43.11485473997890949249267578125" lon="12.98949963413178920745849609375">
        <ele>1139.199951171875</ele>
        <time>2021-06-06T08:12:49.000Z</time>
        <extensions>
          <ns3:TrackPointExtension>
            <ns3:atemp>18.0</ns3:atemp>
          </ns3:TrackPointExtension>
        </extensions>
      </trkpt>
      <trkpt lat="43.11480293981730937957763671875" lon="12.98948052339255809783935546875">
        <ele>1139.800048828125</ele>
        <time>2021-06-06T08:12:52.000Z</time>
        <extensions>
          <ns3:TrackPointExtension>
            <ns3:atemp>18.0</ns3:atemp>
          </ns3:TrackPointExtension>
        </extensions>
      </trkpt>
      <trkpt lat="43.11476714909076690673828125" lon="12.98947490751743316650390625">
        <ele>1140.4000244140625</ele>
        <time>2021-06-06T08:12:54.000Z</time>
        <extensions>
          <ns3:TrackPointExtension>
            <ns3:atemp>18.0</ns3:atemp>
          </ns3:TrackPointExtension>
        </extensions>
      </trkpt>
      <trkpt lat="43.11472825706005096435546875" lon="12.98947448842227458953857421875">
        <ele>1141.199951171875</ele>
        <time>2021-06-06T08:12:56.000Z</time>
        <extensions>
          <ns3:TrackPointExtension>
            <ns3:atemp>18.0</ns3:atemp>
          </ns3:TrackPointExtension>
        </extensions>
      </trkpt>
      <trkpt lat="43.11464888043701648712158203125" lon="12.98948069103062152862548828125">
        <ele>1142.5999755859375</ele>
        <time>2021-06-06T08:13:00.000Z</time>
        <extensions>
          <ns3:TrackPointExtension>
            <ns3:atemp>18.0</ns3:atemp>
          </ns3:TrackPointExtension>
        </extensions>
      </trkpt>
      <trkpt lat="43.1146271713078022003173828125" lon="12.98948387615382671356201171875">
        <ele>1142.800048828125</ele>
        <time>2021-06-06T08:13:01.000Z</time>
        <extensions>
          <ns3:TrackPointExtension>
            <ns3:atemp>18.0</ns3:atemp>
          </ns3:TrackPointExtension>
        </extensions>
      </trkpt>
      <trkpt lat="43.1145876087248325347900390625" lon="12.98948488198220729827880859375">
        <ele>1143.4000244140625</ele>
        <time>2021-06-06T08:13:03.000Z</time>
        <extensions>
          <ns3:TrackPointExtension>
            <ns3:atemp>18.0</ns3:atemp>
          </ns3:TrackPointExtension>
        </extensions>
      </trkpt>
      <trkpt lat="43.11449599452316761016845703125" lon="12.989463843405246734619140625">
        <ele>1144.5999755859375</ele>
        <time>2021-06-06T08:13:08.000Z</time>
        <extensions>
          <ns3:TrackPointExtension>
            <ns3:atemp>18.0</ns3:atemp>
          </ns3:TrackPointExtension>
        </extensions>
      </trkpt>
      <trkpt lat="43.11446028761565685272216796875" lon="12.98944867216050624847412109375">
        <ele>1145.4000244140625</ele>
        <time>2021-06-06T08:13:10.000Z</time>
        <extensions>
          <ns3:TrackPointExtension>
            <ns3:atemp>18.0</ns3:atemp>
          </ns3:TrackPointExtension>
        </extensions>
      </trkpt>
      <trkpt lat="43.11442391015589237213134765625" lon="12.98943459056317806243896484375">
        <ele>1145.800048828125</ele>
        <time>2021-06-06T08:13:12.000Z</time>
        <extensions>
          <ns3:TrackPointExtension>
            <ns3:atemp>18.0</ns3:atemp>
          </ns3:TrackPointExtension>
        </extensions>
      </trkpt>
      <trkpt lat="43.11433204449713230133056640625" lon="12.98940190114080905914306640625">
        <ele>1147</ele>
        <time>2021-06-06T08:13:17.000Z</time>
        <extensions>
          <ns3:TrackPointExtension>
            <ns3:atemp>18.0</ns3:atemp>
          </ns3:TrackPointExtension>
        </extensions>
      </trkpt>
      <trkpt lat="43.11429642140865325927734375" lon="12.9893929325044155120849609375">
        <ele>1147.4000244140625</ele>
        <time>2021-06-06T08:13:19.000Z</time>
        <extensions>
          <ns3:TrackPointExtension>
            <ns3:atemp>18.0</ns3:atemp>
          </ns3:TrackPointExtension>
        </extensions>
      </trkpt>
      <trkpt lat="43.114258535206317901611328125" lon="12.9893817007541656494140625">
        <ele>1148.4000244140625</ele>
        <time>2021-06-06T08:13:21.000Z</time>
        <extensions>
          <ns3:TrackPointExtension>
            <ns3:atemp>18.0</ns3:atemp>
          </ns3:TrackPointExtension>
        </extensions>
      </trkpt>
      <trkpt lat="43.11422391794621944427490234375" lon="12.98936787061393260955810546875">
        <ele>1149.4000244140625</ele>
        <time>2021-06-06T08:13:23.000Z</time>
        <extensions>
          <ns3:TrackPointExtension>
            <ns3:atemp>18.0</ns3:atemp>
          </ns3:TrackPointExtension>
        </extensions>
      </trkpt>
      <trkpt lat="43.11418737284839153289794921875" lon="12.98935663886368274688720703125">
        <ele>1150.4000244140625</ele>
        <time>2021-06-06T08:13:25.000Z</time>
        <extensions>
          <ns3:TrackPointExtension>
            <ns3:atemp>18.0</ns3:atemp>
          </ns3:TrackPointExtension>
        </extensions>
      </trkpt>
      <trkpt lat="43.11417027376592159271240234375" lon="12.98934976570308208465576171875">
        <ele>1150.800048828125</ele>
        <time>2021-06-06T08:13:26.000Z</time>
        <extensions>
          <ns3:TrackPointExtension>
            <ns3:atemp>18.0</ns3:atemp>
          </ns3:TrackPointExtension>
        </extensions>
      </trkpt>
      <trkpt lat="43.11413456685841083526611328125" lon="12.98933769576251506805419921875">
        <ele>1151.5999755859375</ele>
        <time>2021-06-06T08:13:28.000Z</time>
        <extensions>
          <ns3:TrackPointExtension>
            <ns3:atemp>18.0</ns3:atemp>
          </ns3:TrackPointExtension>
        </extensions>
      </trkpt>
      <trkpt lat="43.11406734399497509002685546875" lon="12.989306934177875518798828125">
        <ele>1152.800048828125</ele>
        <time>2021-06-06T08:13:32.000Z</time>
        <extensions>
          <ns3:TrackPointExtension>
            <ns3:atemp>18.0</ns3:atemp>
          </ns3:TrackPointExtension>
        </extensions>
      </trkpt>
      <trkpt lat="43.1140508316457271575927734375" lon="12.98929788172245025634765625">
        <ele>1153.4000244140625</ele>
        <time>2021-06-06T08:13:33.000Z</time>
        <extensions>
          <ns3:TrackPointExtension>
            <ns3:atemp>18.0</ns3:atemp>
          </ns3:TrackPointExtension>
        </extensions>
      </trkpt>
      <trkpt lat="43.11403498984873294830322265625" lon="12.98928975127637386322021484375">
        <ele>1154</ele>
        <time>2021-06-06T08:13:34.000Z</time>
        <extensions>
          <ns3:TrackPointExtension>
            <ns3:atemp>18.0</ns3:atemp>
          </ns3:TrackPointExtension>
        </extensions>
      </trkpt>
      <trkpt lat="43.1139874644577503204345703125" lon="12.98926343210041522979736328125">
        <ele>1155.4000244140625</ele>
        <time>2021-06-06T08:13:37.000Z</time>
        <extensions>
          <ns3:TrackPointExtension>
            <ns3:atemp>18.0</ns3:atemp>
          </ns3:TrackPointExtension>
        </extensions>
      </trkpt>
      <trkpt lat="43.11394035816192626953125" lon="12.989234514534473419189453125">
        <ele>1157</ele>
        <time>2021-06-06T08:13:40.000Z</time>
        <extensions>
          <ns3:TrackPointExtension>
            <ns3:atemp>18.0</ns3:atemp>
          </ns3:TrackPointExtension>
        </extensions>
      </trkpt>
      <trkpt lat="43.11389199458062648773193359375" lon="12.98920744098722934722900390625">
        <ele>1158.4000244140625</ele>
        <time>2021-06-06T08:13:43.000Z</time>
        <extensions>
          <ns3:TrackPointExtension>
            <ns3:atemp>18.0</ns3:atemp>
          </ns3:TrackPointExtension>
        </extensions>
      </trkpt>
      <trkpt lat="43.11383868567645549774169921875" lon="12.98917911015450954437255859375">
        <ele>1159.5999755859375</ele>
        <time>2021-06-06T08:13:46.000Z</time>
        <extensions>
          <ns3:TrackPointExtension>
            <ns3:atemp>17.0</ns3:atemp>
          </ns3:TrackPointExtension>
        </extensions>
      </trkpt>
      <trkpt lat="43.11379224993288516998291015625" lon="12.9891545511782169342041015625">
        <ele>1160.5999755859375</ele>
        <time>2021-06-06T08:13:49.000Z</time>
        <extensions>
          <ns3:TrackPointExtension>
            <ns3:atemp>17.0</ns3:atemp>
          </ns3:TrackPointExtension>
        </extensions>
      </trkpt>
      <trkpt lat="43.11377649195492267608642578125" lon="12.9891454987227916717529296875">
        <ele>1161</ele>
        <time>2021-06-06T08:13:50.000Z</time>
        <extensions>
          <ns3:TrackPointExtension>
            <ns3:atemp>17.0</ns3:atemp>
          </ns3:TrackPointExtension>
        </extensions>
      </trkpt>
      <trkpt lat="43.1137450598180294036865234375" lon="12.98912328667938709259033203125">
        <ele>1162</ele>
        <time>2021-06-06T08:13:52.000Z</time>
        <extensions>
          <ns3:TrackPointExtension>
            <ns3:atemp>17.0</ns3:atemp>
          </ns3:TrackPointExtension>
        </extensions>
      </trkpt>
      <trkpt lat="43.11369359493255615234375" lon="12.98909378238022327423095703125">
        <ele>1163.199951171875</ele>
        <time>2021-06-06T08:13:55.000Z</time>
        <extensions>
          <ns3:TrackPointExtension>
            <ns3:atemp>17.0</ns3:atemp>
          </ns3:TrackPointExtension>
        </extensions>
      </trkpt>
      <trkpt lat="43.11366132460534572601318359375" lon="12.98907517455518245697021484375">
        <ele>1164</ele>
        <time>2021-06-06T08:13:57.000Z</time>
        <extensions>
          <ns3:TrackPointExtension>
            <ns3:atemp>17.0</ns3:atemp>
          </ns3:TrackPointExtension>
        </extensions>
      </trkpt>
      <trkpt lat="43.1136453151702880859375" lon="12.9890660382807254791259765625">
        <ele>1164.4000244140625</ele>
        <time>2021-06-06T08:13:58.000Z</time>
        <extensions>
          <ns3:TrackPointExtension>
            <ns3:atemp>17.0</ns3:atemp>
          </ns3:TrackPointExtension>
        </extensions>
      </trkpt>
      <trkpt lat="43.11356325633823871612548828125" lon="12.9890006594359874725341796875">
        <ele>1165.199951171875</ele>
        <time>2021-06-06T08:14:03.000Z</time>
        <extensions>
          <ns3:TrackPointExtension>
            <ns3:atemp>17.0</ns3:atemp>
          </ns3:TrackPointExtension>
        </extensions>
      </trkpt>
      <trkpt lat="43.11351682059466838836669921875" lon="12.9889617674052715301513671875">
        <ele>1166.199951171875</ele>
        <time>2021-06-06T08:14:06.000Z</time>
        <extensions>
          <ns3:TrackPointExtension>
            <ns3:atemp>17.0</ns3:atemp>
          </ns3:TrackPointExtension>
        </extensions>
      </trkpt>
      <trkpt lat="43.113502152264118194580078125" lon="12.98894642852246761322021484375">
        <ele>1166.5999755859375</ele>
        <time>2021-06-06T08:14:07.000Z</time>
        <extensions>
          <ns3:TrackPointExtension>
            <ns3:atemp>17.0</ns3:atemp>
          </ns3:TrackPointExtension>
        </extensions>
      </trkpt>
      <trkpt lat="43.11345077119767665863037109375" lon="12.98889915458858013153076171875">
        <ele>1167.800048828125</ele>
        <time>2021-06-06T08:14:10.000Z</time>
        <extensions>
          <ns3:TrackPointExtension>
            <ns3:atemp>17.0</ns3:atemp>
          </ns3:TrackPointExtension>
        </extensions>
      </trkpt>
      <trkpt lat="43.1134007312357425689697265625" lon="12.98886193893849849700927734375">
        <ele>1168.800048828125</ele>
        <time>2021-06-06T08:14:13.000Z</time>
        <extensions>
          <ns3:TrackPointExtension>
            <ns3:atemp>17.0</ns3:atemp>
          </ns3:TrackPointExtension>
        </extensions>
      </trkpt>
      <trkpt lat="43.11326921917498111724853515625" lon="12.9887897707521915435791015625">
        <ele>1170</ele>
        <time>2021-06-06T08:14:20.000Z</time>
        <extensions>
          <ns3:TrackPointExtension>
            <ns3:atemp>17.0</ns3:atemp>
          </ns3:TrackPointExtension>
        </extensions>
      </trkpt>
      <trkpt lat="43.11323049478232860565185546875" lon="12.98877619206905364990234375">
        <ele>1170.800048828125</ele>
        <time>2021-06-06T08:14:22.000Z</time>
        <extensions>
          <ns3:TrackPointExtension>
            <ns3:atemp>17.0</ns3:atemp>
          </ns3:TrackPointExtension>
        </extensions>
      </trkpt>
      <trkpt lat="43.1132109649479389190673828125" lon="12.9887696541845798492431640625">
        <ele>1171.199951171875</ele>
        <time>2021-06-06T08:14:23.000Z</time>
        <extensions>
          <ns3:TrackPointExtension>
            <ns3:atemp>17.0</ns3:atemp>
          </ns3:TrackPointExtension>
        </extensions>
      </trkpt>
      <trkpt lat="43.11308934353291988372802734375" lon="12.9887277446687221527099609375">
        <ele>1172.4000244140625</ele>
        <time>2021-06-06T08:14:29.000Z</time>
        <extensions>
          <ns3:TrackPointExtension>
            <ns3:atemp>17.0</ns3:atemp>
          </ns3:TrackPointExtension>
        </extensions>
      </trkpt>
      <trkpt lat="43.11306922696530818939208984375" lon="12.98872263170778751373291015625">
        <ele>1172.5999755859375</ele>
        <time>2021-06-06T08:14:30.000Z</time>
        <extensions>
          <ns3:TrackPointExtension>
            <ns3:atemp>17.0</ns3:atemp>
          </ns3:TrackPointExtension>
        </extensions>
      </trkpt>
      <trkpt lat="43.1130057759582996368408203125" lon="12.9887076281011104583740234375">
        <ele>1173.199951171875</ele>
        <time>2021-06-06T08:14:33.000Z</time>
        <extensions>
          <ns3:TrackPointExtension>
            <ns3:atemp>17.0</ns3:atemp>
          </ns3:TrackPointExtension>
        </extensions>
      </trkpt>
      <trkpt lat="43.11287493444979190826416015625" lon="12.988665886223316192626953125">
        <ele>1174.5999755859375</ele>
        <time>2021-06-06T08:14:39.000Z</time>
        <extensions>
          <ns3:TrackPointExtension>
            <ns3:atemp>17.0</ns3:atemp>
          </ns3:TrackPointExtension>
        </extensions>
      </trkpt>
      <trkpt lat="43.112786002457141876220703125" lon="12.9886221326887607574462890625">
        <ele>1175.800048828125</ele>
        <time>2021-06-06T08:14:43.000Z</time>
        <extensions>
          <ns3:TrackPointExtension>
            <ns3:atemp>17.0</ns3:atemp>
          </ns3:TrackPointExtension>
        </extensions>
      </trkpt>
      <trkpt lat="43.11269380152225494384765625" lon="12.98859925009310245513916015625">
        <ele>1176.5999755859375</ele>
        <time>2021-06-06T08:14:47.000Z</time>
        <extensions>
          <ns3:TrackPointExtension>
            <ns3:atemp>17.0</ns3:atemp>
          </ns3:TrackPointExtension>
        </extensions>
      </trkpt>
      <trkpt lat="43.11265096999704837799072265625" lon="12.98859103582799434661865234375">
        <ele>1177</ele>
        <time>2021-06-06T08:14:49.000Z</time>
        <extensions>
          <ns3:TrackPointExtension>
            <ns3:atemp>17.0</ns3:atemp>
          </ns3:TrackPointExtension>
        </extensions>
      </trkpt>
      <trkpt lat="43.1125437654554843902587890625" lon="12.98857904970645904541015625">
        <ele>1178</ele>
        <time>2021-06-06T08:14:54.000Z</time>
        <extensions>
          <ns3:TrackPointExtension>
            <ns3:atemp>17.0</ns3:atemp>
          </ns3:TrackPointExtension>
        </extensions>
      </trkpt>
      <trkpt lat="43.11250470578670501708984375" lon="12.98857460729777812957763671875">
        <ele>1179.199951171875</ele>
        <time>2021-06-06T08:14:56.000Z</time>
        <extensions>
          <ns3:TrackPointExtension>
            <ns3:atemp>17.0</ns3:atemp>
          </ns3:TrackPointExtension>
        </extensions>
      </trkpt>
      <trkpt lat="43.11246824450790882110595703125" lon="12.98856723122298717498779296875">
        <ele>1180.4000244140625</ele>
        <time>2021-06-06T08:14:58.000Z</time>
        <extensions>
          <ns3:TrackPointExtension>
            <ns3:atemp>17.0</ns3:atemp>
          </ns3:TrackPointExtension>
        </extensions>
      </trkpt>
      <trkpt lat="43.112409152090549468994140625" lon="12.9885510541498661041259765625">
        <ele>1181.4000244140625</ele>
        <time>2021-06-06T08:15:01.000Z</time>
        <extensions>
          <ns3:TrackPointExtension>
            <ns3:atemp>17.0</ns3:atemp>
          </ns3:TrackPointExtension>
        </extensions>
      </trkpt>
      <trkpt lat="43.1123295240104198455810546875" lon="12.9885168559849262237548828125">
        <ele>1182.4000244140625</ele>
        <time>2021-06-06T08:15:05.000Z</time>
        <extensions>
          <ns3:TrackPointExtension>
            <ns3:atemp>17.0</ns3:atemp>
          </ns3:TrackPointExtension>
        </extensions>
      </trkpt>
      <trkpt lat="43.11224997974932193756103515625" lon="12.9884682409465312957763671875">
        <ele>1183.199951171875</ele>
        <time>2021-06-06T08:15:09.000Z</time>
        <extensions>
          <ns3:TrackPointExtension>
            <ns3:atemp>17.0</ns3:atemp>
          </ns3:TrackPointExtension>
        </extensions>
      </trkpt>
      <trkpt lat="43.1122299470007419586181640625" lon="12.98845508135855197906494140625">
        <ele>1183.800048828125</ele>
        <time>2021-06-06T08:15:10.000Z</time>
        <extensions>
          <ns3:TrackPointExtension>
            <ns3:atemp>17.0</ns3:atemp>
          </ns3:TrackPointExtension>
        </extensions>
      </trkpt>
      <trkpt lat="43.11212693341076374053955078125" lon="12.98837981186807155609130859375">
        <ele>1184.5999755859375</ele>
        <time>2021-06-06T08:15:15.000Z</time>
        <extensions>
          <ns3:TrackPointExtension>
            <ns3:atemp>17.0</ns3:atemp>
          </ns3:TrackPointExtension>
        </extensions>
      </trkpt>
      <trkpt lat="43.11208636499941349029541015625" lon="12.9883515648543834686279296875">
        <ele>1184.800048828125</ele>
        <time>2021-06-06T08:15:17.000Z</time>
        <extensions>
          <ns3:TrackPointExtension>
            <ns3:atemp>17.0</ns3:atemp>
          </ns3:TrackPointExtension>
        </extensions>
      </trkpt>
      <trkpt lat="43.1119560264050960540771484375" lon="12.98828962258994579315185546875">
        <ele>1185.199951171875</ele>
        <time>2021-06-06T08:15:23.000Z</time>
        <extensions>
          <ns3:TrackPointExtension>
            <ns3:atemp>17.0</ns3:atemp>
          </ns3:TrackPointExtension>
        </extensions>
      </trkpt>
      <trkpt lat="43.11184714548289775848388671875" lon="12.98826112411916255950927734375">
        <ele>1185.5999755859375</ele>
        <time>2021-06-06T08:15:28.000Z</time>
        <extensions>
          <ns3:TrackPointExtension>
            <ns3:atemp>17.0</ns3:atemp>
          </ns3:TrackPointExtension>
        </extensions>
      </trkpt>
      <trkpt lat="43.111784197390079498291015625" lon="12.9882419295608997344970703125">
        <ele>1186.5999755859375</ele>
        <time>2021-06-06T08:15:31.000Z</time>
        <extensions>
          <ns3:TrackPointExtension>
            <ns3:atemp>17.0</ns3:atemp>
          </ns3:TrackPointExtension>
        </extensions>
      </trkpt>
      <trkpt lat="43.1117632426321506500244140625" lon="12.988236732780933380126953125">
        <ele>1186.800048828125</ele>
        <time>2021-06-06T08:15:32.000Z</time>
        <extensions>
          <ns3:TrackPointExtension>
            <ns3:atemp>17.0</ns3:atemp>
          </ns3:TrackPointExtension>
        </extensions>
      </trkpt>
      <trkpt lat="43.1116090156137943267822265625" lon="12.98817847855389118194580078125">
        <ele>1188</ele>
        <time>2021-06-06T08:15:39.000Z</time>
        <extensions>
          <ns3:TrackPointExtension>
            <ns3:atemp>17.0</ns3:atemp>
          </ns3:TrackPointExtension>
        </extensions>
      </trkpt>
      <trkpt lat="43.11142913997173309326171875" lon="12.9881044663488864898681640625">
        <ele>1189.199951171875</ele>
        <time>2021-06-06T08:15:47.000Z</time>
        <extensions>
          <ns3:TrackPointExtension>
            <ns3:atemp>17.0</ns3:atemp>
          </ns3:TrackPointExtension>
        </extensions>
      </trkpt>
      <trkpt lat="43.111406005918979644775390625" lon="12.9880960844457149505615234375">
        <ele>1189.4000244140625</ele>
        <time>2021-06-06T08:15:48.000Z</time>
        <extensions>
          <ns3:TrackPointExtension>
            <ns3:atemp>17.0</ns3:atemp>
          </ns3:TrackPointExtension>
        </extensions>
      </trkpt>
      <trkpt lat="43.11125085689127445220947265625" lon="12.988049648702144622802734375">
        <ele>1190.199951171875</ele>
        <time>2021-06-06T08:15:54.000Z</time>
        <extensions>
          <ns3:TrackPointExtension>
            <ns3:atemp>17.0</ns3:atemp>
          </ns3:TrackPointExtension>
        </extensions>
      </trkpt>
      <trkpt lat="43.11116687022149562835693359375" lon="12.98803498037159442901611328125">
        <ele>1190.800048828125</ele>
        <time>2021-06-06T08:15:57.000Z</time>
        <extensions>
          <ns3:TrackPointExtension>
            <ns3:atemp>17.0</ns3:atemp>
          </ns3:TrackPointExtension>
        </extensions>
      </trkpt>
      <trkpt lat="43.1111119687557220458984375" lon="12.988028861582279205322265625">
        <ele>1191.199951171875</ele>
        <time>2021-06-06T08:15:59.000Z</time>
        <extensions>
          <ns3:TrackPointExtension>
            <ns3:atemp>17.0</ns3:atemp>
          </ns3:TrackPointExtension>
        </extensions>
      </trkpt>
      <trkpt lat="43.11092128045856952667236328125" lon="12.98801268450915813446044921875">
        <ele>1192.199951171875</ele>
        <time>2021-06-06T08:16:06.000Z</time>
        <extensions>
          <ns3:TrackPointExtension>
            <ns3:atemp>17.0</ns3:atemp>
          </ns3:TrackPointExtension>
        </extensions>
      </trkpt>
      <trkpt lat="43.11071055941283702850341796875" lon="12.9879602976143360137939453125">
        <ele>1193.4000244140625</ele>
        <time>2021-06-06T08:16:14.000Z</time>
        <extensions>
          <ns3:TrackPointExtension>
            <ns3:atemp>17.0</ns3:atemp>
          </ns3:TrackPointExtension>
        </extensions>
      </trkpt>
      <trkpt lat="43.11058667488396167755126953125" lon="12.98790103755891323089599609375">
        <ele>1194.4000244140625</ele>
        <time>2021-06-06T08:16:19.000Z</time>
        <extensions>
          <ns3:TrackPointExtension>
            <ns3:atemp>17.0</ns3:atemp>
          </ns3:TrackPointExtension>
        </extensions>
      </trkpt>
      <trkpt lat="43.1104818172752857208251953125" lon="12.98785309307277202606201171875">
        <ele>1194.800048828125</ele>
        <time>2021-06-06T08:16:23.000Z</time>
        <extensions>
          <ns3:TrackPointExtension>
            <ns3:atemp>17.0</ns3:atemp>
          </ns3:TrackPointExtension>
        </extensions>
      </trkpt>
      <trkpt lat="43.11033303849399089813232421875" lon="12.98778645694255828857421875">
        <ele>1195.800048828125</ele>
        <time>2021-06-06T08:16:29.000Z</time>
        <extensions>
          <ns3:TrackPointExtension>
            <ns3:atemp>17.0</ns3:atemp>
          </ns3:TrackPointExtension>
        </extensions>
      </trkpt>
      <trkpt lat="43.11028475873172283172607421875" lon="12.98777162097394466400146484375">
        <ele>1196.5999755859375</ele>
        <time>2021-06-06T08:16:31.000Z</time>
        <extensions>
          <ns3:TrackPointExtension>
            <ns3:atemp>17.0</ns3:atemp>
          </ns3:TrackPointExtension>
        </extensions>
      </trkpt>
      <trkpt lat="43.11025978066027164459228515625" lon="12.98776206560432910919189453125">
        <ele>1196.800048828125</ele>
        <time>2021-06-06T08:16:32.000Z</time>
        <extensions>
          <ns3:TrackPointExtension>
            <ns3:atemp>17.0</ns3:atemp>
          </ns3:TrackPointExtension>
        </extensions>
      </trkpt>
      <trkpt lat="43.110178224742412567138671875" lon="12.9877383448183536529541015625">
        <ele>1198</ele>
        <time>2021-06-06T08:16:35.000Z</time>
        <extensions>
          <ns3:TrackPointExtension>
            <ns3:atemp>17.0</ns3:atemp>
          </ns3:TrackPointExtension>
        </extensions>
      </trkpt>
      <trkpt lat="43.11006984673440456390380859375" lon="12.98772853799164295196533203125">
        <ele>1198.5999755859375</ele>
        <time>2021-06-06T08:16:39.000Z</time>
        <extensions>
          <ns3:TrackPointExtension>
            <ns3:atemp>17.0</ns3:atemp>
          </ns3:TrackPointExtension>
        </extensions>
      </trkpt>
      <trkpt lat="43.11001360416412353515625" lon="12.98772468231618404388427734375">
        <ele>1199</ele>
        <time>2021-06-06T08:16:41.000Z</time>
        <extensions>
          <ns3:TrackPointExtension>
            <ns3:atemp>17.0</ns3:atemp>
          </ns3:TrackPointExtension>
        </extensions>
      </trkpt>
      <trkpt lat="43.10988075099885463714599609375" lon="12.9877209104597568511962890625">
        <ele>1200</ele>
        <time>2021-06-06T08:16:46.000Z</time>
        <extensions>
          <ns3:TrackPointExtension>
            <ns3:atemp>16.0</ns3:atemp>
          </ns3:TrackPointExtension>
        </extensions>
      </trkpt>
      <trkpt lat="43.10985468327999114990234375" lon="12.9877214133739471435546875">
        <ele>1200</ele>
        <time>2021-06-06T08:16:47.000Z</time>
        <extensions>
          <ns3:TrackPointExtension>
            <ns3:atemp>16.0</ns3:atemp>
          </ns3:TrackPointExtension>
        </extensions>
      </trkpt>
      <trkpt lat="43.1096597202122211456298828125" lon="12.987728454172611236572265625">
        <ele>1201.199951171875</ele>
        <time>2021-06-06T08:16:54.000Z</time>
        <extensions>
          <ns3:TrackPointExtension>
            <ns3:atemp>16.0</ns3:atemp>
          </ns3:TrackPointExtension>
        </extensions>
      </trkpt>
      <trkpt lat="43.109604232013225555419921875" lon="12.98772920854389667510986328125">
        <ele>1201.4000244140625</ele>
        <time>2021-06-06T08:16:56.000Z</time>
        <extensions>
          <ns3:TrackPointExtension>
            <ns3:atemp>16.0</ns3:atemp>
          </ns3:TrackPointExtension>
        </extensions>
      </trkpt>
      <trkpt lat="43.1095299683511257171630859375" lon="12.98772434704005718231201171875">
        <ele>1202.199951171875</ele>
        <time>2021-06-06T08:16:59.000Z</time>
        <extensions>
          <ns3:TrackPointExtension>
            <ns3:atemp>16.0</ns3:atemp>
          </ns3:TrackPointExtension>
        </extensions>
      </trkpt>
      <trkpt lat="43.10940281488001346588134765625" lon="12.987706996500492095947265625">
        <ele>1203</ele>
        <time>2021-06-06T08:17:04.000Z</time>
        <extensions>
          <ns3:TrackPointExtension>
            <ns3:atemp>16.0</ns3:atemp>
          </ns3:TrackPointExtension>
        </extensions>
      </trkpt>
      <trkpt lat="43.1093271262943744659423828125" lon="12.987709008157253265380859375">
        <ele>1203.4000244140625</ele>
        <time>2021-06-06T08:17:07.000Z</time>
        <extensions>
          <ns3:TrackPointExtension>
            <ns3:atemp>16.0</ns3:atemp>
          </ns3:TrackPointExtension>
        </extensions>
      </trkpt>
      <trkpt lat="43.10921120457351207733154296875" lon="12.98771931789815425872802734375">
        <ele>1204.5999755859375</ele>
        <time>2021-06-06T08:17:11.000Z</time>
        <extensions>
          <ns3:TrackPointExtension>
            <ns3:atemp>16.0</ns3:atemp>
          </ns3:TrackPointExtension>
        </extensions>
      </trkpt>
      <trkpt lat="43.10907877050340175628662109375" lon="12.98773842863738536834716796875">
        <ele>1205.5999755859375</ele>
        <time>2021-06-06T08:17:16.000Z</time>
        <extensions>
          <ns3:TrackPointExtension>
            <ns3:atemp>16.0</ns3:atemp>
          </ns3:TrackPointExtension>
        </extensions>
      </trkpt>
      <trkpt lat="43.10896745882928371429443359375" lon="12.9877561144530773162841796875">
        <ele>1206</ele>
        <time>2021-06-06T08:17:20.000Z</time>
        <extensions>
          <ns3:TrackPointExtension>
            <ns3:atemp>16.0</ns3:atemp>
          </ns3:TrackPointExtension>
        </extensions>
      </trkpt>
      <trkpt lat="43.10879521071910858154296875" lon="12.98778779804706573486328125">
        <ele>1206.4000244140625</ele>
        <time>2021-06-06T08:17:26.000Z</time>
        <extensions>
          <ns3:TrackPointExtension>
            <ns3:atemp>16.0</ns3:atemp>
          </ns3:TrackPointExtension>
        </extensions>
      </trkpt>
      <trkpt lat="43.10876746661961078643798828125" lon="12.98779450356960296630859375">
        <ele>1206.5999755859375</ele>
        <time>2021-06-06T08:17:27.000Z</time>
        <extensions>
          <ns3:TrackPointExtension>
            <ns3:atemp>16.0</ns3:atemp>
          </ns3:TrackPointExtension>
        </extensions>
      </trkpt>
      <trkpt lat="43.1085492856800556182861328125" lon="12.98788008280098438262939453125">
        <ele>1206.800048828125</ele>
        <time>2021-06-06T08:17:35.000Z</time>
        <extensions>
          <ns3:TrackPointExtension>
            <ns3:atemp>16.0</ns3:atemp>
          </ns3:TrackPointExtension>
        </extensions>
      </trkpt>
      <trkpt lat="43.10837653465569019317626953125" lon="12.987922914326190948486328125">
        <ele>1206.5999755859375</ele>
        <time>2021-06-06T08:17:41.000Z</time>
        <extensions>
          <ns3:TrackPointExtension>
            <ns3:atemp>16.0</ns3:atemp>
          </ns3:TrackPointExtension>
        </extensions>
      </trkpt>
      <trkpt lat="43.10822926461696624755859375" lon="12.9879579506814479827880859375">
        <ele>1206.800048828125</ele>
        <time>2021-06-06T08:17:47.000Z</time>
        <extensions>
          <ns3:TrackPointExtension>
            <ns3:atemp>16.0</ns3:atemp>
          </ns3:TrackPointExtension>
        </extensions>
      </trkpt>
      <trkpt lat="43.10808232985436916351318359375" lon="12.9879735410213470458984375">
        <ele>1207.5999755859375</ele>
        <time>2021-06-06T08:17:54.000Z</time>
        <extensions>
          <ns3:TrackPointExtension>
            <ns3:atemp>16.0</ns3:atemp>
          </ns3:TrackPointExtension>
        </extensions>
      </trkpt>
      <trkpt lat="43.10806456021964550018310546875" lon="12.987966835498809814453125">
        <ele>1208</ele>
        <time>2021-06-06T08:17:55.000Z</time>
        <extensions>
          <ns3:TrackPointExtension>
            <ns3:atemp>16.0</ns3:atemp>
          </ns3:TrackPointExtension>
        </extensions>
      </trkpt>
      <trkpt lat="43.10803052969276905059814453125" lon="12.987947054207324981689453125">
        <ele>1208.800048828125</ele>
        <time>2021-06-06T08:17:57.000Z</time>
        <extensions>
          <ns3:TrackPointExtension>
            <ns3:atemp>16.0</ns3:atemp>
          </ns3:TrackPointExtension>
        </extensions>
      </trkpt>
      <trkpt lat="43.10799566097557544708251953125" lon="12.9879254288971424102783203125">
        <ele>1209.800048828125</ele>
        <time>2021-06-06T08:17:59.000Z</time>
        <extensions>
          <ns3:TrackPointExtension>
            <ns3:atemp>16.0</ns3:atemp>
          </ns3:TrackPointExtension>
        </extensions>
      </trkpt>
      <trkpt lat="43.1079414300620555877685546875" lon="12.9878841899335384368896484375">
        <ele>1211</ele>
        <time>2021-06-06T08:18:02.000Z</time>
        <extensions>
          <ns3:TrackPointExtension>
            <ns3:atemp>16.0</ns3:atemp>
          </ns3:TrackPointExtension>
        </extensions>
      </trkpt>
      <trkpt lat="43.1079229898750782012939453125" lon="12.98787086270749568939208984375">
        <ele>1211.5999755859375</ele>
        <time>2021-06-06T08:18:03.000Z</time>
        <extensions>
          <ns3:TrackPointExtension>
            <ns3:atemp>16.0</ns3:atemp>
          </ns3:TrackPointExtension>
        </extensions>
      </trkpt>
      <trkpt lat="43.10790429823100566864013671875" lon="12.98785577528178691864013671875">
        <ele>1212.199951171875</ele>
        <time>2021-06-06T08:18:04.000Z</time>
        <extensions>
          <ns3:TrackPointExtension>
            <ns3:atemp>16.0</ns3:atemp>
          </ns3:TrackPointExtension>
        </extensions>
      </trkpt>
      <trkpt lat="43.107843697071075439453125" lon="12.98782643862068653106689453125">
        <ele>1213.5999755859375</ele>
        <time>2021-06-06T08:18:07.000Z</time>
        <extensions>
          <ns3:TrackPointExtension>
            <ns3:atemp>16.0</ns3:atemp>
          </ns3:TrackPointExtension>
        </extensions>
      </trkpt>
      <trkpt lat="43.10782290995121002197265625" lon="12.9878238402307033538818359375">
        <ele>1214.4000244140625</ele>
        <time>2021-06-06T08:18:08.000Z</time>
        <extensions>
          <ns3:TrackPointExtension>
            <ns3:atemp>16.0</ns3:atemp>
          </ns3:TrackPointExtension>
        </extensions>
      </trkpt>
      <trkpt lat="43.1078006140887737274169921875" lon="12.98781939782202243804931640625">
        <ele>1214.800048828125</ele>
        <time>2021-06-06T08:18:09.000Z</time>
        <extensions>
          <ns3:TrackPointExtension>
            <ns3:atemp>16.0</ns3:atemp>
          </ns3:TrackPointExtension>
        </extensions>
      </trkpt>
      <trkpt lat="43.10773414559662342071533203125" lon="12.987800538539886474609375">
        <ele>1216.5999755859375</ele>
        <time>2021-06-06T08:18:12.000Z</time>
        <extensions>
          <ns3:TrackPointExtension>
            <ns3:atemp>16.0</ns3:atemp>
          </ns3:TrackPointExtension>
        </extensions>
      </trkpt>
      <trkpt lat="43.10767094604671001434326171875" lon="12.9877829365432262420654296875">
        <ele>1217.800048828125</ele>
        <time>2021-06-06T08:18:15.000Z</time>
        <extensions>
          <ns3:TrackPointExtension>
            <ns3:atemp>16.0</ns3:atemp>
          </ns3:TrackPointExtension>
        </extensions>
      </trkpt>
      <trkpt lat="43.10764982365071773529052734375" lon="12.98777899704873561859130859375">
        <ele>1218.4000244140625</ele>
        <time>2021-06-06T08:18:16.000Z</time>
        <extensions>
          <ns3:TrackPointExtension>
            <ns3:atemp>16.0</ns3:atemp>
          </ns3:TrackPointExtension>
        </extensions>
      </trkpt>
      <trkpt lat="43.1076091714203357696533203125" lon="12.987779416143894195556640625">
        <ele>1218.800048828125</ele>
        <time>2021-06-06T08:18:18.000Z</time>
        <extensions>
          <ns3:TrackPointExtension>
            <ns3:atemp>16.0</ns3:atemp>
          </ns3:TrackPointExtension>
        </extensions>
      </trkpt>
      <trkpt lat="43.107546307146549224853515625" lon="12.98777949996292591094970703125">
        <ele>1219.800048828125</ele>
        <time>2021-06-06T08:18:21.000Z</time>
        <extensions>
          <ns3:TrackPointExtension>
            <ns3:atemp>16.0</ns3:atemp>
          </ns3:TrackPointExtension>
        </extensions>
      </trkpt>
      <trkpt lat="43.1075072474777698516845703125" lon="12.98778033815324306488037109375">
        <ele>1220.5999755859375</ele>
        <time>2021-06-06T08:18:23.000Z</time>
        <extensions>
          <ns3:TrackPointExtension>
            <ns3:atemp>16.0</ns3:atemp>
          </ns3:TrackPointExtension>
        </extensions>
      </trkpt>
      <trkpt lat="43.10746894218027591705322265625" lon="12.98778955824673175811767578125">
        <ele>1221</ele>
        <time>2021-06-06T08:18:25.000Z</time>
        <extensions>
          <ns3:TrackPointExtension>
            <ns3:atemp>16.0</ns3:atemp>
          </ns3:TrackPointExtension>
        </extensions>
      </trkpt>
      <trkpt lat="43.10742736794054508209228515625" lon="12.9878000356256961822509765625">
        <ele>1222.199951171875</ele>
        <time>2021-06-06T08:18:27.000Z</time>
        <extensions>
          <ns3:TrackPointExtension>
            <ns3:atemp>16.0</ns3:atemp>
          </ns3:TrackPointExtension>
        </extensions>
      </trkpt>
      <trkpt lat="43.10738503932952880859375" lon="12.9878126084804534912109375">
        <ele>1223</ele>
        <time>2021-06-06T08:18:29.000Z</time>
        <extensions>
          <ns3:TrackPointExtension>
            <ns3:atemp>16.0</ns3:atemp>
          </ns3:TrackPointExtension>
        </extensions>
      </trkpt>
      <trkpt lat="43.107342459261417388916015625" lon="12.98783364705741405487060546875">
        <ele>1223.5999755859375</ele>
        <time>2021-06-06T08:18:31.000Z</time>
        <extensions>
          <ns3:TrackPointExtension>
            <ns3:atemp>16.0</ns3:atemp>
          </ns3:TrackPointExtension>
        </extensions>
      </trkpt>
      <trkpt lat="43.10729795135557651519775390625" lon="12.9878536798059940338134765625">
        <ele>1224.5999755859375</ele>
        <time>2021-06-06T08:18:33.000Z</time>
        <extensions>
          <ns3:TrackPointExtension>
            <ns3:atemp>16.0</ns3:atemp>
          </ns3:TrackPointExtension>
        </extensions>
      </trkpt>
      <trkpt lat="43.10723341070115566253662109375" lon="12.98789265565574169158935546875">
        <ele>1226</ele>
        <time>2021-06-06T08:18:36.000Z</time>
        <extensions>
          <ns3:TrackPointExtension>
            <ns3:atemp>16.0</ns3:atemp>
          </ns3:TrackPointExtension>
        </extensions>
      </trkpt>
      <trkpt lat="43.10721228830516338348388671875" lon="12.98790623433887958526611328125">
        <ele>1226.199951171875</ele>
        <time>2021-06-06T08:18:37.000Z</time>
        <extensions>
          <ns3:TrackPointExtension>
            <ns3:atemp>16.0</ns3:atemp>
          </ns3:TrackPointExtension>
        </extensions>
      </trkpt>
      <trkpt lat="43.10718932189047336578369140625" lon="12.98791863955557346343994140625">
        <ele>1227</ele>
        <time>2021-06-06T08:18:38.000Z</time>
        <extensions>
          <ns3:TrackPointExtension>
            <ns3:atemp>16.0</ns3:atemp>
          </ns3:TrackPointExtension>
        </extensions>
      </trkpt>
      <trkpt lat="43.107145987451076507568359375" lon="12.987944371998310089111328125">
        <ele>1228.199951171875</ele>
        <time>2021-06-06T08:18:40.000Z</time>
        <extensions>
          <ns3:TrackPointExtension>
            <ns3:atemp>16.0</ns3:atemp>
          </ns3:TrackPointExtension>
        </extensions>
      </trkpt>
      <trkpt lat="43.1070988811552524566650390625" lon="12.9879710264503955841064453125">
        <ele>1230</ele>
        <time>2021-06-06T08:18:42.000Z</time>
        <extensions>
          <ns3:TrackPointExtension>
            <ns3:atemp>16.0</ns3:atemp>
          </ns3:TrackPointExtension>
        </extensions>
      </trkpt>
      <trkpt lat="43.1070492602884769439697265625" lon="12.98801042139530181884765625">
        <ele>1230.800048828125</ele>
        <time>2021-06-06T08:18:44.000Z</time>
        <extensions>
          <ns3:TrackPointExtension>
            <ns3:atemp>16.0</ns3:atemp>
          </ns3:TrackPointExtension>
        </extensions>
      </trkpt>
      <trkpt lat="43.10702403075993061065673828125" lon="12.98802358098328113555908203125">
        <ele>1231</ele>
        <time>2021-06-06T08:18:45.000Z</time>
        <extensions>
          <ns3:TrackPointExtension>
            <ns3:atemp>16.0</ns3:atemp>
          </ns3:TrackPointExtension>
        </extensions>
      </trkpt>
      <trkpt lat="43.10693099163472652435302734375" lon="12.9880796559154987335205078125">
        <ele>1231.5999755859375</ele>
        <time>2021-06-06T08:18:49.000Z</time>
        <extensions>
          <ns3:TrackPointExtension>
            <ns3:atemp>16.0</ns3:atemp>
          </ns3:TrackPointExtension>
        </extensions>
      </trkpt>
      <trkpt lat="43.10678296722471714019775390625" lon="12.98817227594554424285888671875">
        <ele>1231.800048828125</ele>
        <time>2021-06-06T08:18:55.000Z</time>
        <extensions>
          <ns3:TrackPointExtension>
            <ns3:atemp>16.0</ns3:atemp>
          </ns3:TrackPointExtension>
        </extensions>
      </trkpt>
      <trkpt lat="43.1067119725048542022705078125" lon="12.9882120899856090545654296875">
        <ele>1232.199951171875</ele>
        <time>2021-06-06T08:18:58.000Z</time>
        <extensions>
          <ns3:TrackPointExtension>
            <ns3:atemp>16.0</ns3:atemp>
          </ns3:TrackPointExtension>
        </extensions>
      </trkpt>
      <trkpt lat="43.10659169219434261322021484375" lon="12.9882804863154888153076171875">
        <ele>1232.5999755859375</ele>
        <time>2021-06-06T08:19:03.000Z</time>
        <extensions>
          <ns3:TrackPointExtension>
            <ns3:atemp>16.0</ns3:atemp>
          </ns3:TrackPointExtension>
        </extensions>
      </trkpt>
      <trkpt lat="43.106497228145599365234375" lon="12.988322563469409942626953125">
        <ele>1233.4000244140625</ele>
        <time>2021-06-06T08:19:07.000Z</time>
        <extensions>
          <ns3:TrackPointExtension>
            <ns3:atemp>16.0</ns3:atemp>
          </ns3:TrackPointExtension>
        </extensions>
      </trkpt>
      <trkpt lat="43.1064484454691410064697265625" lon="12.98834226094186305999755859375">
        <ele>1234.4000244140625</ele>
        <time>2021-06-06T08:19:09.000Z</time>
        <extensions>
          <ns3:TrackPointExtension>
            <ns3:atemp>16.0</ns3:atemp>
          </ns3:TrackPointExtension>
        </extensions>
      </trkpt>
      <trkpt lat="43.10635507106781005859375" lon="12.988382913172245025634765625">
        <ele>1235.4000244140625</ele>
        <time>2021-06-06T08:19:13.000Z</time>
        <extensions>
          <ns3:TrackPointExtension>
            <ns3:atemp>16.0</ns3:atemp>
          </ns3:TrackPointExtension>
        </extensions>
      </trkpt>
      <trkpt lat="43.1063310988247394561767578125" lon="12.988390289247035980224609375">
        <ele>1235.5999755859375</ele>
        <time>2021-06-06T08:19:14.000Z</time>
        <extensions>
          <ns3:TrackPointExtension>
            <ns3:atemp>16.0</ns3:atemp>
          </ns3:TrackPointExtension>
        </extensions>
      </trkpt>
      <trkpt lat="43.10611492954194545745849609375" lon="12.98849053680896759033203125">
        <ele>1235.5999755859375</ele>
        <time>2021-06-06T08:19:22.000Z</time>
        <extensions>
          <ns3:TrackPointExtension>
            <ns3:atemp>16.0</ns3:atemp>
          </ns3:TrackPointExtension>
        </extensions>
      </trkpt>
      <trkpt lat="43.105898089706897735595703125" lon="12.9885986633598804473876953125">
        <ele>1235.199951171875</ele>
        <time>2021-06-06T08:19:28.000Z</time>
        <extensions>
          <ns3:TrackPointExtension>
            <ns3:atemp>16.0</ns3:atemp>
          </ns3:TrackPointExtension>
        </extensions>
      </trkpt>
      <trkpt lat="43.105668090283870697021484375" lon="12.98871441744267940521240234375">
        <ele>1234.199951171875</ele>
        <time>2021-06-06T08:19:32.000Z</time>
        <extensions>
          <ns3:TrackPointExtension>
            <ns3:atemp>16.0</ns3:atemp>
          </ns3:TrackPointExtension>
        </extensions>
      </trkpt>
      <trkpt lat="43.10559994541108608245849609375" lon="12.98874643631279468536376953125">
        <ele>1234</ele>
        <time>2021-06-06T08:19:33.000Z</time>
        <extensions>
          <ns3:TrackPointExtension>
            <ns3:atemp>16.0</ns3:atemp>
          </ns3:TrackPointExtension>
        </extensions>
      </trkpt>
      <trkpt lat="43.10545720160007476806640625" lon="12.98881801776587963104248046875">
        <ele>1233.199951171875</ele>
        <time>2021-06-06T08:19:35.000Z</time>
        <extensions>
          <ns3:TrackPointExtension>
            <ns3:atemp>16.0</ns3:atemp>
          </ns3:TrackPointExtension>
        </extensions>
      </trkpt>
      <trkpt lat="43.1053004600107669830322265625" lon="12.988880462944507598876953125">
        <ele>1231.4000244140625</ele>
        <time>2021-06-06T08:19:37.000Z</time>
        <extensions>
          <ns3:TrackPointExtension>
            <ns3:atemp>16.0</ns3:atemp>
          </ns3:TrackPointExtension>
        </extensions>
      </trkpt>
      <trkpt lat="43.10521706007421016693115234375" lon="12.988907955586910247802734375">
        <ele>1230.199951171875</ele>
        <time>2021-06-06T08:19:38.000Z</time>
        <extensions>
          <ns3:TrackPointExtension>
            <ns3:atemp>16.0</ns3:atemp>
          </ns3:TrackPointExtension>
        </extensions>
      </trkpt>
      <trkpt lat="43.10505964793264865875244140625" lon="12.9889597557485103607177734375">
        <ele>1227.4000244140625</ele>
        <time>2021-06-06T08:19:40.000Z</time>
        <extensions>
          <ns3:TrackPointExtension>
            <ns3:atemp>16.0</ns3:atemp>
          </ns3:TrackPointExtension>
        </extensions>
      </trkpt>
      <trkpt lat="43.1049992144107818603515625" lon="12.98898465000092983245849609375">
        <ele>1226.199951171875</ele>
        <time>2021-06-06T08:19:41.000Z</time>
        <extensions>
          <ns3:TrackPointExtension>
            <ns3:atemp>16.0</ns3:atemp>
          </ns3:TrackPointExtension>
        </extensions>
      </trkpt>
      <trkpt lat="43.10495319776237010955810546875" lon="12.98900493420660495758056640625">
        <ele>1224.800048828125</ele>
        <time>2021-06-06T08:19:42.000Z</time>
        <extensions>
          <ns3:TrackPointExtension>
            <ns3:atemp>16.0</ns3:atemp>
          </ns3:TrackPointExtension>
        </extensions>
      </trkpt>
      <trkpt lat="43.1048746593296527862548828125" lon="12.9890402220189571380615234375">
        <ele>1223.800048828125</ele>
        <time>2021-06-06T08:19:45.000Z</time>
        <extensions>
          <ns3:TrackPointExtension>
            <ns3:atemp>16.0</ns3:atemp>
          </ns3:TrackPointExtension>
        </extensions>
      </trkpt>
      <trkpt lat="43.10485647059977054595947265625" lon="12.9890502803027629852294921875">
        <ele>1223.5999755859375</ele>
        <time>2021-06-06T08:19:46.000Z</time>
        <extensions>
          <ns3:TrackPointExtension>
            <ns3:atemp>16.0</ns3:atemp>
          </ns3:TrackPointExtension>
        </extensions>
      </trkpt>
      <trkpt lat="43.104707188904285430908203125" lon="12.989118508994579315185546875">
        <ele>1225</ele>
        <time>2021-06-06T08:19:53.000Z</time>
        <extensions>
          <ns3:TrackPointExtension>
            <ns3:atemp>16.0</ns3:atemp>
          </ns3:TrackPointExtension>
        </extensions>
      </trkpt>
      <trkpt lat="43.10468447394669055938720703125" lon="12.9891257174313068389892578125">
        <ele>1225.5999755859375</ele>
        <time>2021-06-06T08:19:54.000Z</time>
        <extensions>
          <ns3:TrackPointExtension>
            <ns3:atemp>16.0</ns3:atemp>
          </ns3:TrackPointExtension>
        </extensions>
      </trkpt>
      <trkpt lat="43.10466100461781024932861328125" lon="12.989133931696414947509765625">
        <ele>1226.199951171875</ele>
        <time>2021-06-06T08:19:55.000Z</time>
        <extensions>
          <ns3:TrackPointExtension>
            <ns3:atemp>16.0</ns3:atemp>
          </ns3:TrackPointExtension>
        </extensions>
      </trkpt>
      <trkpt lat="43.10457383282482624053955078125" lon="12.98918346874415874481201171875">
        <ele>1227.199951171875</ele>
        <time>2021-06-06T08:19:59.000Z</time>
        <extensions>
          <ns3:TrackPointExtension>
            <ns3:atemp>16.0</ns3:atemp>
          </ns3:TrackPointExtension>
        </extensions>
      </trkpt>
      <trkpt lat="43.1045118905603885650634765625" lon="12.989209033548831939697265625">
        <ele>1227.5999755859375</ele>
        <time>2021-06-06T08:20:02.000Z</time>
        <extensions>
          <ns3:TrackPointExtension>
            <ns3:atemp>16.0</ns3:atemp>
          </ns3:TrackPointExtension>
        </extensions>
      </trkpt>
      <trkpt lat="43.1044253893196582794189453125" lon="12.9892497695982456207275390625">
        <ele>1228.199951171875</ele>
        <time>2021-06-06T08:20:06.000Z</time>
        <extensions>
          <ns3:TrackPointExtension>
            <ns3:atemp>16.0</ns3:atemp>
          </ns3:TrackPointExtension>
        </extensions>
      </trkpt>
      <trkpt lat="43.10435707680881023406982421875" lon="12.98927801661193370819091796875">
        <ele>1229.4000244140625</ele>
        <time>2021-06-06T08:20:09.000Z</time>
        <extensions>
          <ns3:TrackPointExtension>
            <ns3:atemp>16.0</ns3:atemp>
          </ns3:TrackPointExtension>
        </extensions>
      </trkpt>
      <trkpt lat="43.10428784228861331939697265625" lon="12.989296875894069671630859375">
        <ele>1230.5999755859375</ele>
        <time>2021-06-06T08:20:12.000Z</time>
        <extensions>
          <ns3:TrackPointExtension>
            <ns3:atemp>16.0</ns3:atemp>
          </ns3:TrackPointExtension>
        </extensions>
      </trkpt>
      <trkpt lat="43.104180134832859039306640625" lon="12.9893154837191104888916015625">
        <ele>1231.5999755859375</ele>
        <time>2021-06-06T08:20:17.000Z</time>
        <extensions>
          <ns3:TrackPointExtension>
            <ns3:atemp>16.0</ns3:atemp>
          </ns3:TrackPointExtension>
        </extensions>
      </trkpt>
      <trkpt lat="43.1040217168629169464111328125" lon="12.98937927000224590301513671875">
        <ele>1232.5999755859375</ele>
        <time>2021-06-06T08:20:25.000Z</time>
        <extensions>
          <ns3:TrackPointExtension>
            <ns3:atemp>16.0</ns3:atemp>
          </ns3:TrackPointExtension>
        </extensions>
      </trkpt>
      <trkpt lat="43.1039788015186786651611328125" lon="12.98941296525299549102783203125">
        <ele>1233.5999755859375</ele>
        <time>2021-06-06T08:20:30.000Z</time>
        <extensions>
          <ns3:TrackPointExtension>
            <ns3:atemp>16.0</ns3:atemp>
          </ns3:TrackPointExtension>
        </extensions>
      </trkpt>
      <trkpt lat="43.10398022644221782684326171875" lon="12.9894157312810420989990234375">
        <ele>1233.800048828125</ele>
        <time>2021-06-06T08:20:31.000Z</time>
        <extensions>
          <ns3:TrackPointExtension>
            <ns3:atemp>16.0</ns3:atemp>
          </ns3:TrackPointExtension>
        </extensions>
      </trkpt>
      <trkpt lat="43.10398089699447154998779296875" lon="12.9894167371094226837158203125">
        <ele>1235</ele>
        <time>2021-06-06T08:20:35.000Z</time>
        <extensions>
          <ns3:TrackPointExtension>
            <ns3:atemp>16.0</ns3:atemp>
          </ns3:TrackPointExtension>
        </extensions>
      </trkpt>
      <trkpt lat="43.103980980813503265380859375" lon="12.9894165694713592529296875">
        <ele>1235.5999755859375</ele>
        <time>2021-06-06T08:20:41.000Z</time>
        <extensions>
          <ns3:TrackPointExtension>
            <ns3:atemp>16.0</ns3:atemp>
          </ns3:TrackPointExtension>
        </extensions>
      </trkpt>
      <trkpt lat="43.10398123227059841156005859375" lon="12.9894165694713592529296875">
        <ele>1235.5999755859375</ele>
        <time>2021-06-06T08:20:59.000Z</time>
        <extensions>
          <ns3:TrackPointExtension>
            <ns3:atemp>16.0</ns3:atemp>
          </ns3:TrackPointExtension>
        </extensions>
      </trkpt>
      <trkpt lat="43.10398207046091556549072265625" lon="12.9894165694713592529296875">
        <ele>1235.199951171875</ele>
        <time>2021-06-06T08:21:28.000Z</time>
        <extensions>
          <ns3:TrackPointExtension>
            <ns3:atemp>17.0</ns3:atemp>
          </ns3:TrackPointExtension>
        </extensions>
      </trkpt>
      <trkpt lat="43.1039826571941375732421875" lon="12.98941749148070812225341796875">
        <ele>1235.199951171875</ele>
        <time>2021-06-06T08:22:02.000Z</time>
        <extensions>
          <ns3:TrackPointExtension>
            <ns3:atemp>17.0</ns3:atemp>
          </ns3:TrackPointExtension>
        </extensions>
      </trkpt>
      <trkpt lat="43.1039826571941375732421875" lon="12.98941858112812042236328125">
        <ele>1234.800048828125</ele>
        <time>2021-06-06T08:22:38.000Z</time>
        <extensions>
          <ns3:TrackPointExtension>
            <ns3:atemp>17.0</ns3:atemp>
          </ns3:TrackPointExtension>
        </extensions>
      </trkpt>
      <trkpt lat="43.10398324392735958099365234375" lon="12.98941883258521556854248046875">
        <ele>1235</ele>
        <time>2021-06-06T08:23:02.000Z</time>
        <extensions>
          <ns3:TrackPointExtension>
            <ns3:atemp>17.0</ns3:atemp>
          </ns3:TrackPointExtension>
        </extensions>
      </trkpt>
      <trkpt lat="43.10398324392735958099365234375" lon="12.989419586956501007080078125">
        <ele>1235</ele>
        <time>2021-06-06T08:23:28.000Z</time>
        <extensions>
          <ns3:TrackPointExtension>
            <ns3:atemp>18.0</ns3:atemp>
          </ns3:TrackPointExtension>
        </extensions>
      </trkpt>
      <trkpt lat="43.10398374684154987335205078125" lon="12.98942034132778644561767578125">
        <ele>1235.4000244140625</ele>
        <time>2021-06-06T08:24:37.000Z</time>
        <extensions>
          <ns3:TrackPointExtension>
            <ns3:atemp>18.0</ns3:atemp>
          </ns3:TrackPointExtension>
        </extensions>
      </trkpt>
      <trkpt lat="43.10398492030799388885498046875" lon="12.98942201770842075347900390625">
        <ele>1235.4000244140625</ele>
        <time>2021-06-06T08:27:01.000Z</time>
        <extensions>
          <ns3:TrackPointExtension>
            <ns3:atemp>18.0</ns3:atemp>
          </ns3:TrackPointExtension>
        </extensions>
      </trkpt>
      <trkpt lat="43.103985004127025604248046875" lon="12.98942252062261104583740234375">
        <ele>1235.4000244140625</ele>
        <time>2021-06-06T08:27:28.000Z</time>
        <extensions>
          <ns3:TrackPointExtension>
            <ns3:atemp>18.0</ns3:atemp>
          </ns3:TrackPointExtension>
        </extensions>
      </trkpt>
      <trkpt lat="43.10398525558412075042724609375" lon="12.9894224368035793304443359375">
        <ele>1235.199951171875</ele>
        <time>2021-06-06T08:27:58.000Z</time>
        <extensions>
          <ns3:TrackPointExtension>
            <ns3:atemp>18.0</ns3:atemp>
          </ns3:TrackPointExtension>
        </extensions>
      </trkpt>
      <trkpt lat="43.1039853394031524658203125" lon="12.98942252062261104583740234375">
        <ele>1235.199951171875</ele>
        <time>2021-06-06T08:28:21.000Z</time>
        <extensions>
          <ns3:TrackPointExtension>
            <ns3:atemp>18.0</ns3:atemp>
          </ns3:TrackPointExtension>
        </extensions>
      </trkpt>
      <trkpt lat="43.10398626141250133514404296875" lon="12.98942252062261104583740234375">
        <ele>1235</ele>
        <time>2021-06-06T08:31:01.000Z</time>
        <extensions>
          <ns3:TrackPointExtension>
            <ns3:atemp>19.0</ns3:atemp>
          </ns3:TrackPointExtension>
        </extensions>
      </trkpt>
      <trkpt lat="43.1039898656308650970458984375" lon="12.9894123785197734832763671875">
        <ele>1235</ele>
        <time>2021-06-06T08:31:40.000Z</time>
        <extensions>
          <ns3:TrackPointExtension>
            <ns3:atemp>19.0</ns3:atemp>
          </ns3:TrackPointExtension>
        </extensions>
      </trkpt>
      <trkpt lat="43.1039915420114994049072265625" lon="12.98940860666334629058837890625">
        <ele>1235.4000244140625</ele>
        <time>2021-06-06T08:31:58.000Z</time>
        <extensions>
          <ns3:TrackPointExtension>
            <ns3:atemp>19.0</ns3:atemp>
          </ns3:TrackPointExtension>
        </extensions>
      </trkpt>
      <trkpt lat="43.1039781309664249420166015625" lon="12.98939737491309642791748046875">
        <ele>1235.4000244140625</ele>
        <time>2021-06-06T08:32:00.000Z</time>
        <extensions>
          <ns3:TrackPointExtension>
            <ns3:atemp>19.0</ns3:atemp>
          </ns3:TrackPointExtension>
        </extensions>
      </trkpt>
      <trkpt lat="43.1039516441524028778076171875" lon="12.98940181732177734375">
        <ele>1235.4000244140625</ele>
        <time>2021-06-06T08:32:02.000Z</time>
        <extensions>
          <ns3:TrackPointExtension>
            <ns3:atemp>19.0</ns3:atemp>
          </ns3:TrackPointExtension>
        </extensions>
      </trkpt>
      <trkpt lat="43.103853575885295867919921875" lon="12.98940575681626796722412109375">
        <ele>1235</ele>
        <time>2021-06-06T08:32:08.000Z</time>
        <extensions>
          <ns3:TrackPointExtension>
            <ns3:atemp>19.0</ns3:atemp>
          </ns3:TrackPointExtension>
        </extensions>
      </trkpt>
      <trkpt lat="43.10382080264389514923095703125" lon="12.98941045068204402923583984375">
        <ele>1235</ele>
        <time>2021-06-06T08:32:09.000Z</time>
        <extensions>
          <ns3:TrackPointExtension>
            <ns3:atemp>19.0</ns3:atemp>
          </ns3:TrackPointExtension>
        </extensions>
      </trkpt>
      <trkpt lat="43.10366808436810970306396484375" lon="12.98946443013846874237060546875">
        <ele>1234.4000244140625</ele>
        <time>2021-06-06T08:32:13.000Z</time>
        <extensions>
          <ns3:TrackPointExtension>
            <ns3:atemp>19.0</ns3:atemp>
          </ns3:TrackPointExtension>
        </extensions>
      </trkpt>
      <trkpt lat="43.10357001610100269317626953125" lon="12.9895109497010707855224609375">
        <ele>1233.800048828125</ele>
        <time>2021-06-06T08:32:16.000Z</time>
        <extensions>
          <ns3:TrackPointExtension>
            <ns3:atemp>19.0</ns3:atemp>
          </ns3:TrackPointExtension>
        </extensions>
      </trkpt>
      <trkpt lat="43.10351653955876827239990234375" lon="12.98953902907669544219970703125">
        <ele>1233.4000244140625</ele>
        <time>2021-06-06T08:32:18.000Z</time>
        <extensions>
          <ns3:TrackPointExtension>
            <ns3:atemp>19.0</ns3:atemp>
          </ns3:TrackPointExtension>
        </extensions>
      </trkpt>
      <trkpt lat="43.10335057787597179412841796875" lon="12.9896031506359577178955078125">
        <ele>1233.199951171875</ele>
        <time>2021-06-06T08:32:24.000Z</time>
        <extensions>
          <ns3:TrackPointExtension>
            <ns3:atemp>19.0</ns3:atemp>
          </ns3:TrackPointExtension>
        </extensions>
      </trkpt>
      <trkpt lat="43.10313315130770206451416015625" lon="12.989667356014251708984375">
        <ele>1234</ele>
        <time>2021-06-06T08:32:32.000Z</time>
        <extensions>
          <ns3:TrackPointExtension>
            <ns3:atemp>19.0</ns3:atemp>
          </ns3:TrackPointExtension>
        </extensions>
      </trkpt>
      <trkpt lat="43.10294841416180133819580078125" lon="12.98972971737384796142578125">
        <ele>1235</ele>
        <time>2021-06-06T08:32:40.000Z</time>
        <extensions>
          <ns3:TrackPointExtension>
            <ns3:atemp>19.0</ns3:atemp>
          </ns3:TrackPointExtension>
        </extensions>
      </trkpt>
      <trkpt lat="43.10292720794677734375" lon="12.98973348923027515411376953125">
        <ele>1235.199951171875</ele>
        <time>2021-06-06T08:32:41.000Z</time>
        <extensions>
          <ns3:TrackPointExtension>
            <ns3:atemp>19.0</ns3:atemp>
          </ns3:TrackPointExtension>
        </extensions>
      </trkpt>
      <trkpt lat="43.1028385274112224578857421875" lon="12.989754192531108856201171875">
        <ele>1236.4000244140625</ele>
        <time>2021-06-06T08:32:45.000Z</time>
        <extensions>
          <ns3:TrackPointExtension>
            <ns3:atemp>19.0</ns3:atemp>
          </ns3:TrackPointExtension>
        </extensions>
      </trkpt>
      <trkpt lat="43.1027557142078876495361328125" lon="12.989768274128437042236328125">
        <ele>1237.199951171875</ele>
        <time>2021-06-06T08:32:49.000Z</time>
        <extensions>
          <ns3:TrackPointExtension>
            <ns3:atemp>19.0</ns3:atemp>
          </ns3:TrackPointExtension>
        </extensions>
      </trkpt>
      <trkpt lat="43.10273668728768825531005859375" lon="12.98976835794746875762939453125">
        <ele>1237.5999755859375</ele>
        <time>2021-06-06T08:32:50.000Z</time>
        <extensions>
          <ns3:TrackPointExtension>
            <ns3:atemp>19.0</ns3:atemp>
          </ns3:TrackPointExtension>
        </extensions>
      </trkpt>
      <trkpt lat="43.10268606059253215789794921875" lon="12.98977925442159175872802734375">
        <ele>1239</ele>
        <time>2021-06-06T08:32:54.000Z</time>
        <extensions>
          <ns3:TrackPointExtension>
            <ns3:atemp>19.0</ns3:atemp>
          </ns3:TrackPointExtension>
        </extensions>
      </trkpt>
      <trkpt lat="43.10268639586865901947021484375" lon="12.98977925442159175872802734375">
        <ele>1239.4000244140625</ele>
        <time>2021-06-06T08:32:55.000Z</time>
        <extensions>
          <ns3:TrackPointExtension>
            <ns3:atemp>19.0</ns3:atemp>
          </ns3:TrackPointExtension>
        </extensions>
      </trkpt>
      <trkpt lat="43.10268689878284931182861328125" lon="12.9897791706025600433349609375">
        <ele>1240.199951171875</ele>
        <time>2021-06-06T08:32:58.000Z</time>
        <extensions>
          <ns3:TrackPointExtension>
            <ns3:atemp>19.0</ns3:atemp>
          </ns3:TrackPointExtension>
        </extensions>
      </trkpt>
      <trkpt lat="43.10266728512942790985107421875" lon="12.9897895641624927520751953125">
        <ele>1241</ele>
        <time>2021-06-06T08:33:10.000Z</time>
        <extensions>
          <ns3:TrackPointExtension>
            <ns3:atemp>19.0</ns3:atemp>
          </ns3:TrackPointExtension>
        </extensions>
      </trkpt>
      <trkpt lat="43.10253560543060302734375" lon="12.98985351808369159698486328125">
        <ele>1241</ele>
        <time>2021-06-06T08:33:14.000Z</time>
        <extensions>
          <ns3:TrackPointExtension>
            <ns3:atemp>19.0</ns3:atemp>
          </ns3:TrackPointExtension>
        </extensions>
      </trkpt>
      <trkpt lat="43.1023275665938854217529296875" lon="12.9899789951741695404052734375">
        <ele>1240.800048828125</ele>
        <time>2021-06-06T08:33:19.000Z</time>
        <extensions>
          <ns3:TrackPointExtension>
            <ns3:atemp>19.0</ns3:atemp>
          </ns3:TrackPointExtension>
        </extensions>
      </trkpt>
      <trkpt lat="43.10228138230741024017333984375" lon="12.98999617807567119598388671875">
        <ele>1240.4000244140625</ele>
        <time>2021-06-06T08:33:20.000Z</time>
        <extensions>
          <ns3:TrackPointExtension>
            <ns3:atemp>19.0</ns3:atemp>
          </ns3:TrackPointExtension>
        </extensions>
      </trkpt>
      <trkpt lat="43.10218599624931812286376953125" lon="12.99003121443092823028564453125">
        <ele>1239</ele>
        <time>2021-06-06T08:33:22.000Z</time>
        <extensions>
          <ns3:TrackPointExtension>
            <ns3:atemp>19.0</ns3:atemp>
          </ns3:TrackPointExtension>
        </extensions>
      </trkpt>
      <trkpt lat="43.10213235206902027130126953125" lon="12.99004948697984218597412109375">
        <ele>1237.199951171875</ele>
        <time>2021-06-06T08:33:23.000Z</time>
        <extensions>
          <ns3:TrackPointExtension>
            <ns3:atemp>19.0</ns3:atemp>
          </ns3:TrackPointExtension>
        </extensions>
      </trkpt>
      <trkpt lat="43.10200251638889312744140625" lon="12.99008418805897235870361328125">
        <ele>1235</ele>
        <time>2021-06-06T08:33:25.000Z</time>
        <extensions>
          <ns3:TrackPointExtension>
            <ns3:atemp>19.0</ns3:atemp>
          </ns3:TrackPointExtension>
        </extensions>
      </trkpt>
      <trkpt lat="43.10192498378455638885498046875" lon="12.9901017062366008758544921875">
        <ele>1233.5999755859375</ele>
        <time>2021-06-06T08:33:26.000Z</time>
        <extensions>
          <ns3:TrackPointExtension>
            <ns3:atemp>19.0</ns3:atemp>
          </ns3:TrackPointExtension>
        </extensions>
      </trkpt>
      <trkpt lat="43.1018394045531749725341796875" lon="12.99012375064194202423095703125">
        <ele>1232.4000244140625</ele>
        <time>2021-06-06T08:33:27.000Z</time>
        <extensions>
          <ns3:TrackPointExtension>
            <ns3:atemp>19.0</ns3:atemp>
          </ns3:TrackPointExtension>
        </extensions>
      </trkpt>
      <trkpt lat="43.101748712360858917236328125" lon="12.990151830017566680908203125">
        <ele>1231</ele>
        <time>2021-06-06T08:33:28.000Z</time>
        <extensions>
          <ns3:TrackPointExtension>
            <ns3:atemp>19.0</ns3:atemp>
          </ns3:TrackPointExtension>
        </extensions>
      </trkpt>
      <trkpt lat="43.10165919363498687744140625" lon="12.99018644727766513824462890625">
        <ele>1229.800048828125</ele>
        <time>2021-06-06T08:33:29.000Z</time>
        <extensions>
          <ns3:TrackPointExtension>
            <ns3:atemp>19.0</ns3:atemp>
          </ns3:TrackPointExtension>
        </extensions>
      </trkpt>
      <trkpt lat="43.101575374603271484375" lon="12.99022324383258819580078125">
        <ele>1228.5999755859375</ele>
        <time>2021-06-06T08:33:30.000Z</time>
        <extensions>
          <ns3:TrackPointExtension>
            <ns3:atemp>19.0</ns3:atemp>
          </ns3:TrackPointExtension>
        </extensions>
      </trkpt>
      <trkpt lat="43.10149960219860076904296875" lon="12.9902549274265766143798828125">
        <ele>1227.4000244140625</ele>
        <time>2021-06-06T08:33:31.000Z</time>
        <extensions>
          <ns3:TrackPointExtension>
            <ns3:atemp>19.0</ns3:atemp>
          </ns3:TrackPointExtension>
        </extensions>
      </trkpt>
      <trkpt lat="43.10142810456454753875732421875" lon="12.9902748763561248779296875">
        <ele>1226.199951171875</ele>
        <time>2021-06-06T08:33:32.000Z</time>
        <extensions>
          <ns3:TrackPointExtension>
            <ns3:atemp>19.0</ns3:atemp>
          </ns3:TrackPointExtension>
        </extensions>
      </trkpt>
      <trkpt lat="43.10135987587273120880126953125" lon="12.9902780614793300628662109375">
        <ele>1224.800048828125</ele>
        <time>2021-06-06T08:33:33.000Z</time>
        <extensions>
          <ns3:TrackPointExtension>
            <ns3:atemp>19.0</ns3:atemp>
          </ns3:TrackPointExtension>
        </extensions>
      </trkpt>
      <trkpt lat="43.10129198245704174041748046875" lon="12.99026674591004848480224609375">
        <ele>1222.800048828125</ele>
        <time>2021-06-06T08:33:34.000Z</time>
        <extensions>
          <ns3:TrackPointExtension>
            <ns3:atemp>19.0</ns3:atemp>
          </ns3:TrackPointExtension>
        </extensions>
      </trkpt>
      <trkpt lat="43.10122677125036716461181640625" lon="12.99025014974176883697509765625">
        <ele>1220.800048828125</ele>
        <time>2021-06-06T08:33:35.000Z</time>
        <extensions>
          <ns3:TrackPointExtension>
            <ns3:atemp>19.0</ns3:atemp>
          </ns3:TrackPointExtension>
        </extensions>
      </trkpt>
      <trkpt lat="43.1011718697845935821533203125" lon="12.9902348108589649200439453125">
        <ele>1219.4000244140625</ele>
        <time>2021-06-06T08:33:36.000Z</time>
        <extensions>
          <ns3:TrackPointExtension>
            <ns3:atemp>19.0</ns3:atemp>
          </ns3:TrackPointExtension>
        </extensions>
      </trkpt>
      <trkpt lat="43.1011306308209896087646484375" lon="12.990221567451953887939453125">
        <ele>1218.5999755859375</ele>
        <time>2021-06-06T08:33:37.000Z</time>
        <extensions>
          <ns3:TrackPointExtension>
            <ns3:atemp>19.0</ns3:atemp>
          </ns3:TrackPointExtension>
        </extensions>
      </trkpt>
      <trkpt lat="43.1011007912456989288330078125" lon="12.990210838615894317626953125">
        <ele>1218.199951171875</ele>
        <time>2021-06-06T08:33:38.000Z</time>
        <extensions>
          <ns3:TrackPointExtension>
            <ns3:atemp>19.0</ns3:atemp>
          </ns3:TrackPointExtension>
        </extensions>
      </trkpt>
      <trkpt lat="43.101005740463733673095703125" lon="12.99016733653843402862548828125">
        <ele>1217.800048828125</ele>
        <time>2021-06-06T08:33:42.000Z</time>
        <extensions>
          <ns3:TrackPointExtension>
            <ns3:atemp>19.0</ns3:atemp>
          </ns3:TrackPointExtension>
        </extensions>
      </trkpt>
      <trkpt lat="43.10087791644036769866943359375" lon="12.9901221580803394317626953125">
        <ele>1219.4000244140625</ele>
        <time>2021-06-06T08:33:48.000Z</time>
        <extensions>
          <ns3:TrackPointExtension>
            <ns3:atemp>19.0</ns3:atemp>
          </ns3:TrackPointExtension>
        </extensions>
      </trkpt>
      <trkpt lat="43.1008386053144931793212890625" lon="12.9900973476469516754150390625">
        <ele>1220.4000244140625</ele>
        <time>2021-06-06T08:33:50.000Z</time>
        <extensions>
          <ns3:TrackPointExtension>
            <ns3:atemp>19.0</ns3:atemp>
          </ns3:TrackPointExtension>
        </extensions>
      </trkpt>
      <trkpt lat="43.10079745016992092132568359375" lon="12.99008804373443126678466796875">
        <ele>1221.800048828125</ele>
        <time>2021-06-06T08:33:52.000Z</time>
        <extensions>
          <ns3:TrackPointExtension>
            <ns3:atemp>19.0</ns3:atemp>
          </ns3:TrackPointExtension>
        </extensions>
      </trkpt>
      <trkpt lat="43.1007584743201732635498046875" lon="12.99008770845830440521240234375">
        <ele>1222.5999755859375</ele>
        <time>2021-06-06T08:33:54.000Z</time>
        <extensions>
          <ns3:TrackPointExtension>
            <ns3:atemp>19.0</ns3:atemp>
          </ns3:TrackPointExtension>
        </extensions>
      </trkpt>
      <trkpt lat="43.10074045322835445404052734375" lon="12.99008318223059177398681640625">
        <ele>1223</ele>
        <time>2021-06-06T08:33:55.000Z</time>
        <extensions>
          <ns3:TrackPointExtension>
            <ns3:atemp>19.0</ns3:atemp>
          </ns3:TrackPointExtension>
        </extensions>
      </trkpt>
      <trkpt lat="43.10067976824939250946044921875" lon="12.99006625078618526458740234375">
        <ele>1224.199951171875</ele>
        <time>2021-06-06T08:33:58.000Z</time>
        <extensions>
          <ns3:TrackPointExtension>
            <ns3:atemp>19.0</ns3:atemp>
          </ns3:TrackPointExtension>
        </extensions>
      </trkpt>
      <trkpt lat="43.100644983351230621337890625" lon="12.99004479311406612396240234375">
        <ele>1225.4000244140625</ele>
        <time>2021-06-06T08:34:00.000Z</time>
        <extensions>
          <ns3:TrackPointExtension>
            <ns3:atemp>19.0</ns3:atemp>
          </ns3:TrackPointExtension>
        </extensions>
      </trkpt>
      <trkpt lat="43.10060114599764347076416015625" lon="12.99003791995346546173095703125">
        <ele>1226.800048828125</ele>
        <time>2021-06-06T08:34:02.000Z</time>
        <extensions>
          <ns3:TrackPointExtension>
            <ns3:atemp>19.0</ns3:atemp>
          </ns3:TrackPointExtension>
        </extensions>
      </trkpt>
      <trkpt lat="43.10053627006709575653076171875" lon="12.99001780338585376739501953125">
        <ele>1227.5999755859375</ele>
        <time>2021-06-06T08:34:05.000Z</time>
        <extensions>
          <ns3:TrackPointExtension>
            <ns3:atemp>19.0</ns3:atemp>
          </ns3:TrackPointExtension>
        </extensions>
      </trkpt>
      <trkpt lat="43.10049653984606266021728515625" lon="12.99000606872141361236572265625">
        <ele>1228</ele>
        <time>2021-06-06T08:34:07.000Z</time>
        <extensions>
          <ns3:TrackPointExtension>
            <ns3:atemp>19.0</ns3:atemp>
          </ns3:TrackPointExtension>
        </extensions>
      </trkpt>
      <trkpt lat="43.10043535195291042327880859375" lon="12.98998477868735790252685546875">
        <ele>1229.199951171875</ele>
        <time>2021-06-06T08:34:10.000Z</time>
        <extensions>
          <ns3:TrackPointExtension>
            <ns3:atemp>19.0</ns3:atemp>
          </ns3:TrackPointExtension>
        </extensions>
      </trkpt>
      <trkpt lat="43.1003786064684391021728515625" lon="12.98996172845363616943359375">
        <ele>1230.199951171875</ele>
        <time>2021-06-06T08:34:15.000Z</time>
        <extensions>
          <ns3:TrackPointExtension>
            <ns3:atemp>19.0</ns3:atemp>
          </ns3:TrackPointExtension>
        </extensions>
      </trkpt>
      <trkpt lat="43.1003802828490734100341796875" lon="12.98996164463460445404052734375">
        <ele>1231.4000244140625</ele>
        <time>2021-06-06T08:34:22.000Z</time>
        <extensions>
          <ns3:TrackPointExtension>
            <ns3:atemp>18.0</ns3:atemp>
          </ns3:TrackPointExtension>
        </extensions>
      </trkpt>
      <trkpt lat="43.10037198476493358612060546875" lon="12.98995745368301868438720703125">
        <ele>1231.5999755859375</ele>
        <time>2021-06-06T08:34:25.000Z</time>
        <extensions>
          <ns3:TrackPointExtension>
            <ns3:atemp>18.0</ns3:atemp>
          </ns3:TrackPointExtension>
        </extensions>
      </trkpt>
      <trkpt lat="43.1003675423562526702880859375" lon="12.989956699311733245849609375">
        <ele>1231.800048828125</ele>
        <time>2021-06-06T08:34:31.000Z</time>
        <extensions>
          <ns3:TrackPointExtension>
            <ns3:atemp>18.0</ns3:atemp>
          </ns3:TrackPointExtension>
        </extensions>
      </trkpt>
      <trkpt lat="43.100369386374950408935546875" lon="12.9899525083601474761962890625">
        <ele>1231</ele>
        <time>2021-06-06T08:36:11.000Z</time>
        <extensions>
          <ns3:TrackPointExtension>
            <ns3:atemp>19.0</ns3:atemp>
          </ns3:TrackPointExtension>
        </extensions>
      </trkpt>
      <trkpt lat="43.100370727479457855224609375" lon="12.98995058052241802215576171875">
        <ele>1231</ele>
        <time>2021-06-06T08:37:19.000Z</time>
        <extensions>
          <ns3:TrackPointExtension>
            <ns3:atemp>20.0</ns3:atemp>
          </ns3:TrackPointExtension>
        </extensions>
      </trkpt>
      <trkpt lat="43.10037869028747081756591796875" lon="12.9899411089718341827392578125">
        <ele>1231</ele>
        <time>2021-06-06T08:39:43.000Z</time>
        <extensions>
          <ns3:TrackPointExtension>
            <ns3:atemp>21.0</ns3:atemp>
          </ns3:TrackPointExtension>
        </extensions>
      </trkpt>
      <trkpt lat="43.10037885792553424835205078125" lon="12.98994186334311962127685546875">
        <ele>1231.5999755859375</ele>
        <time>2021-06-06T08:40:08.000Z</time>
        <extensions>
          <ns3:TrackPointExtension>
            <ns3:atemp>21.0</ns3:atemp>
          </ns3:TrackPointExtension>
        </extensions>
      </trkpt>
      <trkpt lat="43.10037952847778797149658203125" lon="12.989941947162151336669921875">
        <ele>1231.800048828125</ele>
        <time>2021-06-06T08:40:36.000Z</time>
        <extensions>
          <ns3:TrackPointExtension>
            <ns3:atemp>21.0</ns3:atemp>
          </ns3:TrackPointExtension>
        </extensions>
      </trkpt>
      <trkpt lat="43.1003777682781219482421875" lon="12.9899481497704982757568359375">
        <ele>1231.4000244140625</ele>
        <time>2021-06-06T08:41:05.000Z</time>
        <extensions>
          <ns3:TrackPointExtension>
            <ns3:atemp>20.0</ns3:atemp>
          </ns3:TrackPointExtension>
        </extensions>
      </trkpt>
      <trkpt lat="43.10038003139197826385498046875" lon="12.98993817530572414398193359375">
        <ele>1230.800048828125</ele>
        <time>2021-06-06T08:43:13.000Z</time>
        <extensions>
          <ns3:TrackPointExtension>
            <ns3:atemp>19.0</ns3:atemp>
          </ns3:TrackPointExtension>
        </extensions>
      </trkpt>
      <trkpt lat="43.10037936083972454071044921875" lon="12.98993566073477268218994140625">
        <ele>1230.800048828125</ele>
        <time>2021-06-06T08:43:14.000Z</time>
        <extensions>
          <ns3:TrackPointExtension>
            <ns3:atemp>19.0</ns3:atemp>
          </ns3:TrackPointExtension>
        </extensions>
      </trkpt>
      <trkpt lat="43.1003558076918125152587890625" lon="12.98992694355547428131103515625">
        <ele>1231</ele>
        <time>2021-06-06T08:43:19.000Z</time>
        <extensions>
          <ns3:TrackPointExtension>
            <ns3:atemp>19.0</ns3:atemp>
          </ns3:TrackPointExtension>
        </extensions>
      </trkpt>
      <trkpt lat="43.10027341358363628387451171875" lon="12.9899270273745059967041015625">
        <ele>1231.5999755859375</ele>
        <time>2021-06-06T08:43:24.000Z</time>
        <extensions>
          <ns3:TrackPointExtension>
            <ns3:atemp>19.0</ns3:atemp>
          </ns3:TrackPointExtension>
        </extensions>
      </trkpt>
      <trkpt lat="43.1002555601298809051513671875" lon="12.98992007039487361907958984375">
        <ele>1231.5999755859375</ele>
        <time>2021-06-06T08:43:25.000Z</time>
        <extensions>
          <ns3:TrackPointExtension>
            <ns3:atemp>19.0</ns3:atemp>
          </ns3:TrackPointExtension>
        </extensions>
      </trkpt>
      <trkpt lat="43.1001744233071804046630859375" lon="12.98989123664796352386474609375">
        <ele>1232.199951171875</ele>
        <time>2021-06-06T08:43:30.000Z</time>
        <extensions>
          <ns3:TrackPointExtension>
            <ns3:atemp>19.0</ns3:atemp>
          </ns3:TrackPointExtension>
        </extensions>
      </trkpt>
      <trkpt lat="43.10010929591953754425048828125" lon="12.9898696951568126678466796875">
        <ele>1232.800048828125</ele>
        <time>2021-06-06T08:43:34.000Z</time>
        <extensions>
          <ns3:TrackPointExtension>
            <ns3:atemp>19.0</ns3:atemp>
          </ns3:TrackPointExtension>
        </extensions>
      </trkpt>
      <trkpt lat="43.100079037249088287353515625" lon="12.989850081503391265869140625">
        <ele>1233.199951171875</ele>
        <time>2021-06-06T08:43:36.000Z</time>
        <extensions>
          <ns3:TrackPointExtension>
            <ns3:atemp>19.0</ns3:atemp>
          </ns3:TrackPointExtension>
        </extensions>
      </trkpt>
      <trkpt lat="43.10004626400768756866455078125" lon="12.989830635488033294677734375">
        <ele>1234.5999755859375</ele>
        <time>2021-06-06T08:43:38.000Z</time>
        <extensions>
          <ns3:TrackPointExtension>
            <ns3:atemp>19.0</ns3:atemp>
          </ns3:TrackPointExtension>
        </extensions>
      </trkpt>
      <trkpt lat="43.10000066645443439483642578125" lon="12.98980909399688243865966796875">
        <ele>1235.800048828125</ele>
        <time>2021-06-06T08:43:41.000Z</time>
        <extensions>
          <ns3:TrackPointExtension>
            <ns3:atemp>19.0</ns3:atemp>
          </ns3:TrackPointExtension>
        </extensions>
      </trkpt>
      <trkpt lat="43.09998457320034503936767578125" lon="12.98980222083628177642822265625">
        <ele>1236</ele>
        <time>2021-06-06T08:43:42.000Z</time>
        <extensions>
          <ns3:TrackPointExtension>
            <ns3:atemp>19.0</ns3:atemp>
          </ns3:TrackPointExtension>
        </extensions>
      </trkpt>
      <trkpt lat="43.09991902671754360198974609375" lon="12.98976014368236064910888671875">
        <ele>1236.800048828125</ele>
        <time>2021-06-06T08:43:46.000Z</time>
        <extensions>
          <ns3:TrackPointExtension>
            <ns3:atemp>19.0</ns3:atemp>
          </ns3:TrackPointExtension>
        </extensions>
      </trkpt>
      <trkpt lat="43.0998860858380794525146484375" lon="12.9897476546466350555419921875">
        <ele>1238</ele>
        <time>2021-06-06T08:43:49.000Z</time>
        <extensions>
          <ns3:TrackPointExtension>
            <ns3:atemp>19.0</ns3:atemp>
          </ns3:TrackPointExtension>
        </extensions>
      </trkpt>
      <trkpt lat="43.09987912885844707489013671875" lon="12.9897419549524784088134765625">
        <ele>1239.4000244140625</ele>
        <time>2021-06-06T08:43:52.000Z</time>
        <extensions>
          <ns3:TrackPointExtension>
            <ns3:atemp>19.0</ns3:atemp>
          </ns3:TrackPointExtension>
        </extensions>
      </trkpt>
      <trkpt lat="43.0998549051582813262939453125" lon="12.98973600380122661590576171875">
        <ele>1239.800048828125</ele>
        <time>2021-06-06T08:43:55.000Z</time>
        <extensions>
          <ns3:TrackPointExtension>
            <ns3:atemp>19.0</ns3:atemp>
          </ns3:TrackPointExtension>
        </extensions>
      </trkpt>
      <trkpt lat="43.09983336366713047027587890625" lon="12.9897510074079036712646484375">
        <ele>1240.5999755859375</ele>
        <time>2021-06-06T08:43:57.000Z</time>
        <extensions>
          <ns3:TrackPointExtension>
            <ns3:atemp>19.0</ns3:atemp>
          </ns3:TrackPointExtension>
        </extensions>
      </trkpt>
      <trkpt lat="43.09980805031955242156982421875" lon="12.98975310288369655609130859375">
        <ele>1241</ele>
        <time>2021-06-06T08:44:00.000Z</time>
        <extensions>
          <ns3:TrackPointExtension>
            <ns3:atemp>19.0</ns3:atemp>
          </ns3:TrackPointExtension>
        </extensions>
      </trkpt>
      <trkpt lat="43.09973496012389659881591796875" lon="12.989733405411243438720703125">
        <ele>1241.5999755859375</ele>
        <time>2021-06-06T08:44:04.000Z</time>
        <extensions>
          <ns3:TrackPointExtension>
            <ns3:atemp>19.0</ns3:atemp>
          </ns3:TrackPointExtension>
        </extensions>
      </trkpt>
      <trkpt lat="43.0997157655656337738037109375" lon="12.98973105847835540771484375">
        <ele>1241.800048828125</ele>
        <time>2021-06-06T08:44:05.000Z</time>
        <extensions>
          <ns3:TrackPointExtension>
            <ns3:atemp>19.0</ns3:atemp>
          </ns3:TrackPointExtension>
        </extensions>
      </trkpt>
      <trkpt lat="43.09967980720102787017822265625" lon="12.9897191561758518218994140625">
        <ele>1242.800048828125</ele>
        <time>2021-06-06T08:44:07.000Z</time>
        <extensions>
          <ns3:TrackPointExtension>
            <ns3:atemp>19.0</ns3:atemp>
          </ns3:TrackPointExtension>
        </extensions>
      </trkpt>
      <trkpt lat="43.0995736084878444671630859375" lon="12.98969761468470096588134765625">
        <ele>1244.4000244140625</ele>
        <time>2021-06-06T08:44:13.000Z</time>
        <extensions>
          <ns3:TrackPointExtension>
            <ns3:atemp>19.0</ns3:atemp>
          </ns3:TrackPointExtension>
        </extensions>
      </trkpt>
      <trkpt lat="43.09954117052257061004638671875" lon="12.9896940104663372039794921875">
        <ele>1245.5999755859375</ele>
        <time>2021-06-06T08:44:15.000Z</time>
        <extensions>
          <ns3:TrackPointExtension>
            <ns3:atemp>19.0</ns3:atemp>
          </ns3:TrackPointExtension>
        </extensions>
      </trkpt>
      <trkpt lat="43.0994914658367633819580078125" lon="12.9896847903728485107421875">
        <ele>1247.199951171875</ele>
        <time>2021-06-06T08:44:18.000Z</time>
        <extensions>
          <ns3:TrackPointExtension>
            <ns3:atemp>19.0</ns3:atemp>
          </ns3:TrackPointExtension>
        </extensions>
      </trkpt>
      <trkpt lat="43.0994497239589691162109375" lon="12.9896698705852031707763671875">
        <ele>1248.5999755859375</ele>
        <time>2021-06-06T08:44:21.000Z</time>
        <extensions>
          <ns3:TrackPointExtension>
            <ns3:atemp>19.0</ns3:atemp>
          </ns3:TrackPointExtension>
        </extensions>
      </trkpt>
      <trkpt lat="43.09943572618067264556884765625" lon="12.989663667976856231689453125">
        <ele>1250</ele>
        <time>2021-06-06T08:44:24.000Z</time>
        <extensions>
          <ns3:TrackPointExtension>
            <ns3:atemp>19.0</ns3:atemp>
          </ns3:TrackPointExtension>
        </extensions>
      </trkpt>
      <trkpt lat="43.099433295428752899169921875" lon="12.9896611534059047698974609375">
        <ele>1251</ele>
        <time>2021-06-06T08:44:26.000Z</time>
        <extensions>
          <ns3:TrackPointExtension>
            <ns3:atemp>19.0</ns3:atemp>
          </ns3:TrackPointExtension>
        </extensions>
      </trkpt>
      <trkpt lat="43.09942550025880336761474609375" lon="12.98965805210173130035400390625">
        <ele>1252</ele>
        <time>2021-06-06T08:44:28.000Z</time>
        <extensions>
          <ns3:TrackPointExtension>
            <ns3:atemp>19.0</ns3:atemp>
          </ns3:TrackPointExtension>
        </extensions>
      </trkpt>
      <trkpt lat="43.09941896237432956695556640625" lon="12.98965754918754100799560546875">
        <ele>1253</ele>
        <time>2021-06-06T08:44:30.000Z</time>
        <extensions>
          <ns3:TrackPointExtension>
            <ns3:atemp>19.0</ns3:atemp>
          </ns3:TrackPointExtension>
        </extensions>
      </trkpt>
      <trkpt lat="43.0994190461933612823486328125" lon="12.98965721391141414642333984375">
        <ele>1253.4000244140625</ele>
        <time>2021-06-06T08:44:31.000Z</time>
        <extensions>
          <ns3:TrackPointExtension>
            <ns3:atemp>19.0</ns3:atemp>
          </ns3:TrackPointExtension>
        </extensions>
      </trkpt>
      <trkpt lat="43.09939314611256122589111328125" lon="12.98965604044497013092041015625">
        <ele>1254.199951171875</ele>
        <time>2021-06-06T08:44:36.000Z</time>
        <extensions>
          <ns3:TrackPointExtension>
            <ns3:atemp>19.0</ns3:atemp>
          </ns3:TrackPointExtension>
        </extensions>
      </trkpt>
      <trkpt lat="43.0993871949613094329833984375" lon="12.98965553753077983856201171875">
        <ele>1254.800048828125</ele>
        <time>2021-06-06T08:44:37.000Z</time>
        <extensions>
          <ns3:TrackPointExtension>
            <ns3:atemp>19.0</ns3:atemp>
          </ns3:TrackPointExtension>
        </extensions>
      </trkpt>
      <trkpt lat="43.09936816804111003875732421875" lon="12.989651598036289215087890625">
        <ele>1255.4000244140625</ele>
        <time>2021-06-06T08:44:44.000Z</time>
        <extensions>
          <ns3:TrackPointExtension>
            <ns3:atemp>18.0</ns3:atemp>
          </ns3:TrackPointExtension>
        </extensions>
      </trkpt>
      <trkpt lat="43.0993451178073883056640625" lon="12.98965067602694034576416015625">
        <ele>1256</ele>
        <time>2021-06-06T08:44:48.000Z</time>
        <extensions>
          <ns3:TrackPointExtension>
            <ns3:atemp>18.0</ns3:atemp>
          </ns3:TrackPointExtension>
        </extensions>
      </trkpt>
      <trkpt lat="43.0993174575269222259521484375" lon="12.98966391943395137786865234375">
        <ele>1256.199951171875</ele>
        <time>2021-06-06T08:44:50.000Z</time>
        <extensions>
          <ns3:TrackPointExtension>
            <ns3:atemp>18.0</ns3:atemp>
          </ns3:TrackPointExtension>
        </extensions>
      </trkpt>
      <trkpt lat="43.09928007423877716064453125" lon="12.98970079980790615081787109375">
        <ele>1256.4000244140625</ele>
        <time>2021-06-06T08:44:53.000Z</time>
        <extensions>
          <ns3:TrackPointExtension>
            <ns3:atemp>18.0</ns3:atemp>
          </ns3:TrackPointExtension>
        </extensions>
      </trkpt>
      <trkpt lat="43.0992607958614826202392578125" lon="12.98975653946399688720703125">
        <ele>1256.5999755859375</ele>
        <time>2021-06-06T08:44:56.000Z</time>
        <extensions>
          <ns3:TrackPointExtension>
            <ns3:atemp>18.0</ns3:atemp>
          </ns3:TrackPointExtension>
        </extensions>
      </trkpt>
      <trkpt lat="43.09924344532191753387451171875" lon="12.98981160856783390045166015625">
        <ele>1257.199951171875</ele>
        <time>2021-06-06T08:44:59.000Z</time>
        <extensions>
          <ns3:TrackPointExtension>
            <ns3:atemp>18.0</ns3:atemp>
          </ns3:TrackPointExtension>
        </extensions>
      </trkpt>
      <trkpt lat="43.09923623688519001007080078125" lon="12.9898274503648281097412109375">
        <ele>1257.800048828125</ele>
        <time>2021-06-06T08:45:00.000Z</time>
        <extensions>
          <ns3:TrackPointExtension>
            <ns3:atemp>18.0</ns3:atemp>
          </ns3:TrackPointExtension>
        </extensions>
      </trkpt>
      <trkpt lat="43.09920899569988250732421875" lon="12.98984245397150516510009765625">
        <ele>1258.800048828125</ele>
        <time>2021-06-06T08:45:02.000Z</time>
        <extensions>
          <ns3:TrackPointExtension>
            <ns3:atemp>18.0</ns3:atemp>
          </ns3:TrackPointExtension>
        </extensions>
      </trkpt>
      <trkpt lat="43.0991769768297672271728515625" lon="12.9898586310446262359619140625">
        <ele>1259.800048828125</ele>
        <time>2021-06-06T08:45:04.000Z</time>
        <extensions>
          <ns3:TrackPointExtension>
            <ns3:atemp>18.0</ns3:atemp>
          </ns3:TrackPointExtension>
        </extensions>
      </trkpt>
      <trkpt lat="43.09915157966315746307373046875" lon="12.98988671042025089263916015625">
        <ele>1261.199951171875</ele>
        <time>2021-06-06T08:45:06.000Z</time>
        <extensions>
          <ns3:TrackPointExtension>
            <ns3:atemp>18.0</ns3:atemp>
          </ns3:TrackPointExtension>
        </extensions>
      </trkpt>
      <trkpt lat="43.09913263656198978424072265625" lon="12.98992208205163478851318359375">
        <ele>1262.199951171875</ele>
        <time>2021-06-06T08:45:08.000Z</time>
        <extensions>
          <ns3:TrackPointExtension>
            <ns3:atemp>18.0</ns3:atemp>
          </ns3:TrackPointExtension>
        </extensions>
      </trkpt>
      <trkpt lat="43.09912391938269138336181640625" lon="12.9899414442479610443115234375">
        <ele>1262.5999755859375</ele>
        <time>2021-06-06T08:45:09.000Z</time>
        <extensions>
          <ns3:TrackPointExtension>
            <ns3:atemp>18.0</ns3:atemp>
          </ns3:TrackPointExtension>
        </extensions>
      </trkpt>
      <trkpt lat="43.099100030958652496337890625" lon="12.99000003375113010406494140625">
        <ele>1264</ele>
        <time>2021-06-06T08:45:12.000Z</time>
        <extensions>
          <ns3:TrackPointExtension>
            <ns3:atemp>18.0</ns3:atemp>
          </ns3:TrackPointExtension>
        </extensions>
      </trkpt>
      <trkpt lat="43.0990820936858654022216796875" lon="12.99003607593476772308349609375">
        <ele>1265</ele>
        <time>2021-06-06T08:45:14.000Z</time>
        <extensions>
          <ns3:TrackPointExtension>
            <ns3:atemp>18.0</ns3:atemp>
          </ns3:TrackPointExtension>
        </extensions>
      </trkpt>
      <trkpt lat="43.09907044284045696258544921875" lon="12.99005015753209590911865234375">
        <ele>1265.5999755859375</ele>
        <time>2021-06-06T08:45:15.000Z</time>
        <extensions>
          <ns3:TrackPointExtension>
            <ns3:atemp>18.0</ns3:atemp>
          </ns3:TrackPointExtension>
        </extensions>
      </trkpt>
      <trkpt lat="43.09904345311224460601806640625" lon="12.99007295630872249603271484375">
        <ele>1266.4000244140625</ele>
        <time>2021-06-06T08:45:17.000Z</time>
        <extensions>
          <ns3:TrackPointExtension>
            <ns3:atemp>18.0</ns3:atemp>
          </ns3:TrackPointExtension>
        </extensions>
      </trkpt>
      <trkpt lat="43.09900037012994289398193359375" lon="12.99010799266397953033447265625">
        <ele>1267.5999755859375</ele>
        <time>2021-06-06T08:45:20.000Z</time>
        <extensions>
          <ns3:TrackPointExtension>
            <ns3:atemp>18.0</ns3:atemp>
          </ns3:TrackPointExtension>
        </extensions>
      </trkpt>
      <trkpt lat="43.0989556945860385894775390625" lon="12.99013665877282619476318359375">
        <ele>1268.800048828125</ele>
        <time>2021-06-06T08:45:23.000Z</time>
        <extensions>
          <ns3:TrackPointExtension>
            <ns3:atemp>18.0</ns3:atemp>
          </ns3:TrackPointExtension>
        </extensions>
      </trkpt>
      <trkpt lat="43.098904900252819061279296875" lon="12.9901476390659809112548828125">
        <ele>1269.800048828125</ele>
        <time>2021-06-06T08:45:26.000Z</time>
        <extensions>
          <ns3:TrackPointExtension>
            <ns3:atemp>18.0</ns3:atemp>
          </ns3:TrackPointExtension>
        </extensions>
      </trkpt>
      <trkpt lat="43.09885402210056781768798828125" lon="12.99015820026397705078125">
        <ele>1270.800048828125</ele>
        <time>2021-06-06T08:45:29.000Z</time>
        <extensions>
          <ns3:TrackPointExtension>
            <ns3:atemp>18.0</ns3:atemp>
          </ns3:TrackPointExtension>
        </extensions>
      </trkpt>
      <trkpt lat="43.098802976310253143310546875" lon="12.9901727847754955291748046875">
        <ele>1272</ele>
        <time>2021-06-06T08:45:32.000Z</time>
        <extensions>
          <ns3:TrackPointExtension>
            <ns3:atemp>18.0</ns3:atemp>
          </ns3:TrackPointExtension>
        </extensions>
      </trkpt>
      <trkpt lat="43.0987531878054141998291015625" lon="12.9901821725070476531982421875">
        <ele>1272.800048828125</ele>
        <time>2021-06-06T08:45:35.000Z</time>
        <extensions>
          <ns3:TrackPointExtension>
            <ns3:atemp>18.0</ns3:atemp>
          </ns3:TrackPointExtension>
        </extensions>
      </trkpt>
      <trkpt lat="43.0987357534468173980712890625" lon="12.99018460325896739959716796875">
        <ele>1273.4000244140625</ele>
        <time>2021-06-06T08:45:36.000Z</time>
        <extensions>
          <ns3:TrackPointExtension>
            <ns3:atemp>18.0</ns3:atemp>
          </ns3:TrackPointExtension>
        </extensions>
      </trkpt>
      <trkpt lat="43.09868051670491695404052734375" lon="12.9901828430593013763427734375">
        <ele>1275</ele>
        <time>2021-06-06T08:45:39.000Z</time>
        <extensions>
          <ns3:TrackPointExtension>
            <ns3:atemp>18.0</ns3:atemp>
          </ns3:TrackPointExtension>
        </extensions>
      </trkpt>
      <trkpt lat="43.09866609983146190643310546875" lon="12.99018594436347484588623046875">
        <ele>1275.4000244140625</ele>
        <time>2021-06-06T08:45:40.000Z</time>
        <extensions>
          <ns3:TrackPointExtension>
            <ns3:atemp>18.0</ns3:atemp>
          </ns3:TrackPointExtension>
        </extensions>
      </trkpt>
      <trkpt lat="43.09865050949156284332275390625" lon="12.99019365571439266204833984375">
        <ele>1276</ele>
        <time>2021-06-06T08:45:41.000Z</time>
        <extensions>
          <ns3:TrackPointExtension>
            <ns3:atemp>18.0</ns3:atemp>
          </ns3:TrackPointExtension>
        </extensions>
      </trkpt>
      <trkpt lat="43.09863634407520294189453125" lon="12.99020203761756420135498046875">
        <ele>1276.199951171875</ele>
        <time>2021-06-06T08:45:42.000Z</time>
        <extensions>
          <ns3:TrackPointExtension>
            <ns3:atemp>18.0</ns3:atemp>
          </ns3:TrackPointExtension>
        </extensions>
      </trkpt>
      <trkpt lat="43.098587058484554290771484375" lon="12.99022190272808074951171875">
        <ele>1277.4000244140625</ele>
        <time>2021-06-06T08:45:45.000Z</time>
        <extensions>
          <ns3:TrackPointExtension>
            <ns3:atemp>18.0</ns3:atemp>
          </ns3:TrackPointExtension>
        </extensions>
      </trkpt>
      <trkpt lat="43.0985557101666927337646484375" lon="12.990239001810550689697265625">
        <ele>1278.199951171875</ele>
        <time>2021-06-06T08:45:47.000Z</time>
        <extensions>
          <ns3:TrackPointExtension>
            <ns3:atemp>18.0</ns3:atemp>
          </ns3:TrackPointExtension>
        </extensions>
      </trkpt>
      <trkpt lat="43.09854037128388881683349609375" lon="12.99025082029402256011962890625">
        <ele>1278.4000244140625</ele>
        <time>2021-06-06T08:45:48.000Z</time>
        <extensions>
          <ns3:TrackPointExtension>
            <ns3:atemp>18.0</ns3:atemp>
          </ns3:TrackPointExtension>
        </extensions>
      </trkpt>
      <trkpt lat="43.09847314842045307159423828125" lon="12.99028401263058185577392578125">
        <ele>1279.5999755859375</ele>
        <time>2021-06-06T08:45:52.000Z</time>
        <extensions>
          <ns3:TrackPointExtension>
            <ns3:atemp>18.0</ns3:atemp>
          </ns3:TrackPointExtension>
        </extensions>
      </trkpt>
      <trkpt lat="43.0984143912792205810546875" lon="12.9903075657784938812255859375">
        <ele>1280.199951171875</ele>
        <time>2021-06-06T08:45:55.000Z</time>
        <extensions>
          <ns3:TrackPointExtension>
            <ns3:atemp>18.0</ns3:atemp>
          </ns3:TrackPointExtension>
        </extensions>
      </trkpt>
      <trkpt lat="43.09837482869625091552734375" lon="12.99031267873942852020263671875">
        <ele>1281</ele>
        <time>2021-06-06T08:45:57.000Z</time>
        <extensions>
          <ns3:TrackPointExtension>
            <ns3:atemp>18.0</ns3:atemp>
          </ns3:TrackPointExtension>
        </extensions>
      </trkpt>
      <trkpt lat="43.09830534271895885467529296875" lon="12.99031301401555538177490234375">
        <ele>1282.199951171875</ele>
        <time>2021-06-06T08:46:01.000Z</time>
        <extensions>
          <ns3:TrackPointExtension>
            <ns3:atemp>18.0</ns3:atemp>
          </ns3:TrackPointExtension>
        </extensions>
      </trkpt>
      <trkpt lat="43.09829302132129669189453125" lon="12.99031251110136508941650390625">
        <ele>1282.4000244140625</ele>
        <time>2021-06-06T08:46:02.000Z</time>
        <extensions>
          <ns3:TrackPointExtension>
            <ns3:atemp>18.0</ns3:atemp>
          </ns3:TrackPointExtension>
        </extensions>
      </trkpt>
      <trkpt lat="43.09825454838573932647705078125" lon="12.99030396156013011932373046875">
        <ele>1283.800048828125</ele>
        <time>2021-06-06T08:46:05.000Z</time>
        <extensions>
          <ns3:TrackPointExtension>
            <ns3:atemp>18.0</ns3:atemp>
          </ns3:TrackPointExtension>
        </extensions>
      </trkpt>
      <trkpt lat="43.09823677875101566314697265625" lon="12.990295998752117156982421875">
        <ele>1285</ele>
        <time>2021-06-06T08:46:07.000Z</time>
        <extensions>
          <ns3:TrackPointExtension>
            <ns3:atemp>18.0</ns3:atemp>
          </ns3:TrackPointExtension>
        </extensions>
      </trkpt>
      <trkpt lat="43.09822990559041500091552734375" lon="12.99029164016246795654296875">
        <ele>1285.800048828125</ele>
        <time>2021-06-06T08:46:08.000Z</time>
        <extensions>
          <ns3:TrackPointExtension>
            <ns3:atemp>18.0</ns3:atemp>
          </ns3:TrackPointExtension>
        </extensions>
      </trkpt>
      <trkpt lat="43.09821926057338714599609375" lon="12.99028535373508930206298828125">
        <ele>1286.4000244140625</ele>
        <time>2021-06-06T08:46:09.000Z</time>
        <extensions>
          <ns3:TrackPointExtension>
            <ns3:atemp>18.0</ns3:atemp>
          </ns3:TrackPointExtension>
        </extensions>
      </trkpt>
      <trkpt lat="43.09820962138473987579345703125" lon="12.990274541079998016357421875">
        <ele>1287.199951171875</ele>
        <time>2021-06-06T08:46:10.000Z</time>
        <extensions>
          <ns3:TrackPointExtension>
            <ns3:atemp>18.0</ns3:atemp>
          </ns3:TrackPointExtension>
        </extensions>
      </trkpt>
      <trkpt lat="43.09820056892931461334228515625" lon="12.990265153348445892333984375">
        <ele>1288</ele>
        <time>2021-06-06T08:46:11.000Z</time>
        <extensions>
          <ns3:TrackPointExtension>
            <ns3:atemp>18.0</ns3:atemp>
          </ns3:TrackPointExtension>
        </extensions>
      </trkpt>
      <trkpt lat="43.09817961417138576507568359375" lon="12.9902535863220691680908203125">
        <ele>1289.4000244140625</ele>
        <time>2021-06-06T08:46:13.000Z</time>
        <extensions>
          <ns3:TrackPointExtension>
            <ns3:atemp>18.0</ns3:atemp>
          </ns3:TrackPointExtension>
        </extensions>
      </trkpt>
      <trkpt lat="43.09816695749759674072265625" lon="12.990248389542102813720703125">
        <ele>1290.199951171875</ele>
        <time>2021-06-06T08:46:14.000Z</time>
        <extensions>
          <ns3:TrackPointExtension>
            <ns3:atemp>18.0</ns3:atemp>
          </ns3:TrackPointExtension>
        </extensions>
      </trkpt>
      <trkpt lat="43.0981537140905857086181640625" lon="12.99024478532373905181884765625">
        <ele>1290.800048828125</ele>
        <time>2021-06-06T08:46:15.000Z</time>
        <extensions>
          <ns3:TrackPointExtension>
            <ns3:atemp>18.0</ns3:atemp>
          </ns3:TrackPointExtension>
        </extensions>
      </trkpt>
      <trkpt lat="43.0981292389333248138427734375" lon="12.99024344421923160552978515625">
        <ele>1291.800048828125</ele>
        <time>2021-06-06T08:46:17.000Z</time>
        <extensions>
          <ns3:TrackPointExtension>
            <ns3:atemp>18.0</ns3:atemp>
          </ns3:TrackPointExtension>
        </extensions>
      </trkpt>
      <trkpt lat="43.09808515012264251708984375" lon="12.990257777273654937744140625">
        <ele>1292.800048828125</ele>
        <time>2021-06-06T08:46:20.000Z</time>
        <extensions>
          <ns3:TrackPointExtension>
            <ns3:atemp>18.0</ns3:atemp>
          </ns3:TrackPointExtension>
        </extensions>
      </trkpt>
      <trkpt lat="43.09807316400110721588134765625" lon="12.9902596212923526763916015625">
        <ele>1293</ele>
        <time>2021-06-06T08:46:21.000Z</time>
        <extensions>
          <ns3:TrackPointExtension>
            <ns3:atemp>18.0</ns3:atemp>
          </ns3:TrackPointExtension>
        </extensions>
      </trkpt>
      <trkpt lat="43.0980313383042812347412109375" lon="12.99025936983525753021240234375">
        <ele>1294</ele>
        <time>2021-06-06T08:46:24.000Z</time>
        <extensions>
          <ns3:TrackPointExtension>
            <ns3:atemp>18.0</ns3:atemp>
          </ns3:TrackPointExtension>
        </extensions>
      </trkpt>
      <trkpt lat="43.0979649536311626434326171875" lon="12.9902311228215694427490234375">
        <ele>1295</ele>
        <time>2021-06-06T08:46:28.000Z</time>
        <extensions>
          <ns3:TrackPointExtension>
            <ns3:atemp>18.0</ns3:atemp>
          </ns3:TrackPointExtension>
        </extensions>
      </trkpt>
      <trkpt lat="43.09794056229293346405029296875" lon="12.99022316001355648040771484375">
        <ele>1295.199951171875</ele>
        <time>2021-06-06T08:46:29.000Z</time>
        <extensions>
          <ns3:TrackPointExtension>
            <ns3:atemp>18.0</ns3:atemp>
          </ns3:TrackPointExtension>
        </extensions>
      </trkpt>
      <trkpt lat="43.0978814698755741119384765625" lon="12.99020388163626194000244140625">
        <ele>1296.4000244140625</ele>
        <time>2021-06-06T08:46:32.000Z</time>
        <extensions>
          <ns3:TrackPointExtension>
            <ns3:atemp>18.0</ns3:atemp>
          </ns3:TrackPointExtension>
        </extensions>
      </trkpt>
      <trkpt lat="43.09785439632833003997802734375" lon="12.99019399099051952362060546875">
        <ele>1296.800048828125</ele>
        <time>2021-06-06T08:46:34.000Z</time>
        <extensions>
          <ns3:TrackPointExtension>
            <ns3:atemp>18.0</ns3:atemp>
          </ns3:TrackPointExtension>
        </extensions>
      </trkpt>
      <trkpt lat="43.09784115292131900787353515625" lon="12.99018996767699718475341796875">
        <ele>1297.199951171875</ele>
        <time>2021-06-06T08:46:35.000Z</time>
        <extensions>
          <ns3:TrackPointExtension>
            <ns3:atemp>18.0</ns3:atemp>
          </ns3:TrackPointExtension>
        </extensions>
      </trkpt>
      <trkpt lat="43.09782640077173709869384765625" lon="12.99018627963960170745849609375">
        <ele>1297.199951171875</ele>
        <time>2021-06-06T08:46:36.000Z</time>
        <extensions>
          <ns3:TrackPointExtension>
            <ns3:atemp>18.0</ns3:atemp>
          </ns3:TrackPointExtension>
        </extensions>
      </trkpt>
      <trkpt lat="43.09770000167191028594970703125" lon="12.99018108285963535308837890625">
        <ele>1297.5999755859375</ele>
        <time>2021-06-06T08:46:41.000Z</time>
        <extensions>
          <ns3:TrackPointExtension>
            <ns3:atemp>18.0</ns3:atemp>
          </ns3:TrackPointExtension>
        </extensions>
      </trkpt>
      <trkpt lat="43.0974970757961273193359375" lon="12.99022433348000049591064453125">
        <ele>1298.4000244140625</ele>
        <time>2021-06-06T08:46:48.000Z</time>
        <extensions>
          <ns3:TrackPointExtension>
            <ns3:atemp>18.0</ns3:atemp>
          </ns3:TrackPointExtension>
        </extensions>
      </trkpt>
      <trkpt lat="43.09738819487392902374267578125" lon="12.9902348108589649200439453125">
        <ele>1299.5999755859375</ele>
        <time>2021-06-06T08:46:53.000Z</time>
        <extensions>
          <ns3:TrackPointExtension>
            <ns3:atemp>18.0</ns3:atemp>
          </ns3:TrackPointExtension>
        </extensions>
      </trkpt>
      <trkpt lat="43.09734444133937358856201171875" lon="12.9902401752769947052001953125">
        <ele>1300.4000244140625</ele>
        <time>2021-06-06T08:46:55.000Z</time>
        <extensions>
          <ns3:TrackPointExtension>
            <ns3:atemp>17.0</ns3:atemp>
          </ns3:TrackPointExtension>
        </extensions>
      </trkpt>
      <trkpt lat="43.0973239056766033172607421875" lon="12.9902391694486141204833984375">
        <ele>1300.800048828125</ele>
        <time>2021-06-06T08:46:56.000Z</time>
        <extensions>
          <ns3:TrackPointExtension>
            <ns3:atemp>17.0</ns3:atemp>
          </ns3:TrackPointExtension>
        </extensions>
      </trkpt>
      <trkpt lat="43.0972233228385448455810546875" lon="12.99023204483091831207275390625">
        <ele>1301.5999755859375</ele>
        <time>2021-06-06T08:47:02.000Z</time>
        <extensions>
          <ns3:TrackPointExtension>
            <ns3:atemp>17.0</ns3:atemp>
          </ns3:TrackPointExtension>
        </extensions>
      </trkpt>
      <trkpt lat="43.09722147881984710693359375" lon="12.99023422412574291229248046875">
        <ele>1302</ele>
        <time>2021-06-06T08:47:04.000Z</time>
        <extensions>
          <ns3:TrackPointExtension>
            <ns3:atemp>17.0</ns3:atemp>
          </ns3:TrackPointExtension>
        </extensions>
      </trkpt>
      <trkpt lat="43.09722256846725940704345703125" lon="12.99023271538317203521728515625">
        <ele>1303</ele>
        <time>2021-06-06T08:47:09.000Z</time>
        <extensions>
          <ns3:TrackPointExtension>
            <ns3:atemp>17.0</ns3:atemp>
          </ns3:TrackPointExtension>
        </extensions>
      </trkpt>
      <trkpt lat="43.09722290374338626861572265625" lon="12.990234307944774627685546875">
        <ele>1303.199951171875</ele>
        <time>2021-06-06T08:47:25.000Z</time>
        <extensions>
          <ns3:TrackPointExtension>
            <ns3:atemp>17.0</ns3:atemp>
          </ns3:TrackPointExtension>
        </extensions>
      </trkpt>
      <trkpt lat="43.09722281992435455322265625" lon="12.99023405648767948150634765625">
        <ele>1303</ele>
        <time>2021-06-06T08:47:47.000Z</time>
        <extensions>
          <ns3:TrackPointExtension>
            <ns3:atemp>17.0</ns3:atemp>
          </ns3:TrackPointExtension>
        </extensions>
      </trkpt>
      <trkpt lat="43.097223155200481414794921875" lon="12.99023355357348918914794921875">
        <ele>1302.800048828125</ele>
        <time>2021-06-06T08:48:02.000Z</time>
        <extensions>
          <ns3:TrackPointExtension>
            <ns3:atemp>17.0</ns3:atemp>
          </ns3:TrackPointExtension>
        </extensions>
      </trkpt>
      <trkpt lat="43.097168840467929840087890625" lon="12.9902401752769947052001953125">
        <ele>1303</ele>
        <time>2021-06-06T08:48:10.000Z</time>
        <extensions>
          <ns3:TrackPointExtension>
            <ns3:atemp>17.0</ns3:atemp>
          </ns3:TrackPointExtension>
        </extensions>
      </trkpt>
      <trkpt lat="43.09702408500015735626220703125" lon="12.9902405105531215667724609375">
        <ele>1303</ele>
        <time>2021-06-06T08:48:17.000Z</time>
        <extensions>
          <ns3:TrackPointExtension>
            <ns3:atemp>17.0</ns3:atemp>
          </ns3:TrackPointExtension>
        </extensions>
      </trkpt>
      <trkpt lat="43.09686206281185150146484375" lon="12.9902453720569610595703125">
        <ele>1302.5999755859375</ele>
        <time>2021-06-06T08:48:23.000Z</time>
        <extensions>
          <ns3:TrackPointExtension>
            <ns3:atemp>17.0</ns3:atemp>
          </ns3:TrackPointExtension>
        </extensions>
      </trkpt>
      <trkpt lat="43.0967190675437450408935546875" lon="12.99024176783859729766845703125">
        <ele>1302</ele>
        <time>2021-06-06T08:48:29.000Z</time>
        <extensions>
          <ns3:TrackPointExtension>
            <ns3:atemp>17.0</ns3:atemp>
          </ns3:TrackPointExtension>
        </extensions>
      </trkpt>
      <trkpt lat="43.0966097675263881683349609375" lon="12.9902301169931888580322265625">
        <ele>1302</ele>
        <time>2021-06-06T08:48:34.000Z</time>
        <extensions>
          <ns3:TrackPointExtension>
            <ns3:atemp>17.0</ns3:atemp>
          </ns3:TrackPointExtension>
        </extensions>
      </trkpt>
      <trkpt lat="43.09649862349033355712890625" lon="12.99021377228200435638427734375">
        <ele>1302.199951171875</ele>
        <time>2021-06-06T08:48:40.000Z</time>
        <extensions>
          <ns3:TrackPointExtension>
            <ns3:atemp>17.0</ns3:atemp>
          </ns3:TrackPointExtension>
        </extensions>
      </trkpt>
      <trkpt lat="43.0964223481714725494384765625" lon="12.99019130878150463104248046875">
        <ele>1303.199951171875</ele>
        <time>2021-06-06T08:48:44.000Z</time>
        <extensions>
          <ns3:TrackPointExtension>
            <ns3:atemp>17.0</ns3:atemp>
          </ns3:TrackPointExtension>
        </extensions>
      </trkpt>
      <trkpt lat="43.09637985192239284515380859375" lon="12.99019667319953441619873046875">
        <ele>1303.800048828125</ele>
        <time>2021-06-06T08:48:46.000Z</time>
        <extensions>
          <ns3:TrackPointExtension>
            <ns3:atemp>17.0</ns3:atemp>
          </ns3:TrackPointExtension>
        </extensions>
      </trkpt>
      <trkpt lat="43.09637012891471385955810546875" lon="12.99019600264728069305419921875">
        <ele>1304.199951171875</ele>
        <time>2021-06-06T08:48:47.000Z</time>
        <extensions>
          <ns3:TrackPointExtension>
            <ns3:atemp>17.0</ns3:atemp>
          </ns3:TrackPointExtension>
        </extensions>
      </trkpt>
      <trkpt lat="43.096354790031909942626953125" lon="12.99019600264728069305419921875">
        <ele>1305.4000244140625</ele>
        <time>2021-06-06T08:48:50.000Z</time>
        <extensions>
          <ns3:TrackPointExtension>
            <ns3:atemp>17.0</ns3:atemp>
          </ns3:TrackPointExtension>
        </extensions>
      </trkpt>
      <trkpt lat="43.096351437270641326904296875" lon="12.9901949129998683929443359375">
        <ele>1306.5999755859375</ele>
        <time>2021-06-06T08:48:53.000Z</time>
        <extensions>
          <ns3:TrackPointExtension>
            <ns3:atemp>17.0</ns3:atemp>
          </ns3:TrackPointExtension>
        </extensions>
      </trkpt>
      <trkpt lat="43.0963502638041973114013671875" lon="12.990197427570819854736328125">
        <ele>1307.5999755859375</ele>
        <time>2021-06-06T08:48:58.000Z</time>
        <extensions>
          <ns3:TrackPointExtension>
            <ns3:atemp>17.0</ns3:atemp>
          </ns3:TrackPointExtension>
        </extensions>
      </trkpt>
      <trkpt lat="43.0963479168713092803955078125" lon="12.99019801430404186248779296875">
        <ele>1307.5999755859375</ele>
        <time>2021-06-06T08:49:00.000Z</time>
        <extensions>
          <ns3:TrackPointExtension>
            <ns3:atemp>17.0</ns3:atemp>
          </ns3:TrackPointExtension>
        </extensions>
      </trkpt>
      <trkpt lat="43.09633609838783740997314453125" lon="12.99019952304661273956298828125">
        <ele>1307.800048828125</ele>
        <time>2021-06-06T08:49:08.000Z</time>
        <extensions>
          <ns3:TrackPointExtension>
            <ns3:atemp>17.0</ns3:atemp>
          </ns3:TrackPointExtension>
        </extensions>
      </trkpt>
      <trkpt lat="43.09633626602590084075927734375" lon="12.99020404927432537078857421875">
        <ele>1308.199951171875</ele>
        <time>2021-06-06T08:49:22.000Z</time>
        <extensions>
          <ns3:TrackPointExtension>
            <ns3:atemp>17.0</ns3:atemp>
          </ns3:TrackPointExtension>
        </extensions>
      </trkpt>
      <trkpt lat="43.0963368527591228485107421875" lon="12.99020337872207164764404296875">
        <ele>1308</ele>
        <time>2021-06-06T08:49:38.000Z</time>
        <extensions>
          <ns3:TrackPointExtension>
            <ns3:atemp>17.0</ns3:atemp>
          </ns3:TrackPointExtension>
        </extensions>
      </trkpt>
      <trkpt lat="43.09632335789501667022705078125" lon="12.99019868485629558563232421875">
        <ele>1308</ele>
        <time>2021-06-06T08:49:49.000Z</time>
        <extensions>
          <ns3:TrackPointExtension>
            <ns3:atemp>17.0</ns3:atemp>
          </ns3:TrackPointExtension>
        </extensions>
      </trkpt>
      <trkpt lat="43.096325285732746124267578125" lon="12.990198768675327301025390625">
        <ele>1308</ele>
        <time>2021-06-06T08:49:54.000Z</time>
        <extensions>
          <ns3:TrackPointExtension>
            <ns3:atemp>17.0</ns3:atemp>
          </ns3:TrackPointExtension>
        </extensions>
      </trkpt>
      <trkpt lat="43.0963046662509441375732421875" lon="12.99019097350537776947021484375">
        <ele>1308.5999755859375</ele>
        <time>2021-06-06T08:50:01.000Z</time>
        <extensions>
          <ns3:TrackPointExtension>
            <ns3:atemp>17.0</ns3:atemp>
          </ns3:TrackPointExtension>
        </extensions>
      </trkpt>
      <trkpt lat="43.096238784492015838623046875" lon="12.99017756246030330657958984375">
        <ele>1308.800048828125</ele>
        <time>2021-06-06T08:50:10.000Z</time>
        <extensions>
          <ns3:TrackPointExtension>
            <ns3:atemp>17.0</ns3:atemp>
          </ns3:TrackPointExtension>
        </extensions>
      </trkpt>
      <trkpt lat="43.09623082168400287628173828125" lon="12.99017588607966899871826171875">
        <ele>1309</ele>
        <time>2021-06-06T08:50:11.000Z</time>
        <extensions>
          <ns3:TrackPointExtension>
            <ns3:atemp>17.0</ns3:atemp>
          </ns3:TrackPointExtension>
        </extensions>
      </trkpt>
      <trkpt lat="43.09618807397782802581787109375" lon="12.99015912227332592010498046875">
        <ele>1310.199951171875</ele>
        <time>2021-06-06T08:50:17.000Z</time>
        <extensions>
          <ns3:TrackPointExtension>
            <ns3:atemp>17.0</ns3:atemp>
          </ns3:TrackPointExtension>
        </extensions>
      </trkpt>
      <trkpt lat="43.0961524508893489837646484375" lon="12.990141771733760833740234375">
        <ele>1311.199951171875</ele>
        <time>2021-06-06T08:50:22.000Z</time>
        <extensions>
          <ns3:TrackPointExtension>
            <ns3:atemp>17.0</ns3:atemp>
          </ns3:TrackPointExtension>
        </extensions>
      </trkpt>
      <trkpt lat="43.0961457453668117523193359375" lon="12.9901375807821750640869140625">
        <ele>1311.4000244140625</ele>
        <time>2021-06-06T08:50:23.000Z</time>
        <extensions>
          <ns3:TrackPointExtension>
            <ns3:atemp>18.0</ns3:atemp>
          </ns3:TrackPointExtension>
        </extensions>
      </trkpt>
      <trkpt lat="43.09611649252474308013916015625" lon="12.990123331546783447265625">
        <ele>1312.199951171875</ele>
        <time>2021-06-06T08:50:27.000Z</time>
        <extensions>
          <ns3:TrackPointExtension>
            <ns3:atemp>18.0</ns3:atemp>
          </ns3:TrackPointExtension>
        </extensions>
      </trkpt>
      <trkpt lat="43.0960847251117229461669921875" lon="12.990112267434597015380859375">
        <ele>1313.4000244140625</ele>
        <time>2021-06-06T08:50:31.000Z</time>
        <extensions>
          <ns3:TrackPointExtension>
            <ns3:atemp>18.0</ns3:atemp>
          </ns3:TrackPointExtension>
        </extensions>
      </trkpt>
      <trkpt lat="43.0960689671337604522705078125" lon="12.9901120997965335845947265625">
        <ele>1314</ele>
        <time>2021-06-06T08:50:33.000Z</time>
        <extensions>
          <ns3:TrackPointExtension>
            <ns3:atemp>18.0</ns3:atemp>
          </ns3:TrackPointExtension>
        </extensions>
      </trkpt>
      <trkpt lat="43.09604558162391185760498046875" lon="12.99010681919753551483154296875">
        <ele>1314.5999755859375</ele>
        <time>2021-06-06T08:50:36.000Z</time>
        <extensions>
          <ns3:TrackPointExtension>
            <ns3:atemp>18.0</ns3:atemp>
          </ns3:TrackPointExtension>
        </extensions>
      </trkpt>
      <trkpt lat="43.0960149876773357391357421875" lon="12.99010162241756916046142578125">
        <ele>1315.5999755859375</ele>
        <time>2021-06-06T08:50:40.000Z</time>
        <extensions>
          <ns3:TrackPointExtension>
            <ns3:atemp>18.0</ns3:atemp>
          </ns3:TrackPointExtension>
        </extensions>
      </trkpt>
      <trkpt lat="43.0959988944232463836669921875" lon="12.99009676091372966766357421875">
        <ele>1316</ele>
        <time>2021-06-06T08:50:42.000Z</time>
        <extensions>
          <ns3:TrackPointExtension>
            <ns3:atemp>18.0</ns3:atemp>
          </ns3:TrackPointExtension>
        </extensions>
      </trkpt>
      <trkpt lat="43.09596025384962558746337890625" lon="12.99009240232408046722412109375">
        <ele>1316.800048828125</ele>
        <time>2021-06-06T08:50:47.000Z</time>
        <extensions>
          <ns3:TrackPointExtension>
            <ns3:atemp>18.0</ns3:atemp>
          </ns3:TrackPointExtension>
        </extensions>
      </trkpt>
      <trkpt lat="43.0959180928766727447509765625" lon="12.99009315669536590576171875">
        <ele>1317</ele>
        <time>2021-06-06T08:50:52.000Z</time>
        <extensions>
          <ns3:TrackPointExtension>
            <ns3:atemp>18.0</ns3:atemp>
          </ns3:TrackPointExtension>
        </extensions>
      </trkpt>
      <trkpt lat="43.095883391797542572021484375" lon="12.9900923185050487518310546875">
        <ele>1317.5999755859375</ele>
        <time>2021-06-06T08:50:56.000Z</time>
        <extensions>
          <ns3:TrackPointExtension>
            <ns3:atemp>18.0</ns3:atemp>
          </ns3:TrackPointExtension>
        </extensions>
      </trkpt>
      <trkpt lat="43.09584709815680980682373046875" lon="12.99009709618985652923583984375">
        <ele>1318.4000244140625</ele>
        <time>2021-06-06T08:51:00.000Z</time>
        <extensions>
          <ns3:TrackPointExtension>
            <ns3:atemp>18.0</ns3:atemp>
          </ns3:TrackPointExtension>
        </extensions>
      </trkpt>
      <trkpt lat="43.0958268977701663970947265625" lon="12.9900926537811756134033203125">
        <ele>1318.5999755859375</ele>
        <time>2021-06-06T08:51:04.000Z</time>
        <extensions>
          <ns3:TrackPointExtension>
            <ns3:atemp>18.0</ns3:atemp>
          </ns3:TrackPointExtension>
        </extensions>
      </trkpt>
      <trkpt lat="43.09582094661891460418701171875" lon="12.9900893010199069976806640625">
        <ele>1319</ele>
        <time>2021-06-06T08:51:06.000Z</time>
        <extensions>
          <ns3:TrackPointExtension>
            <ns3:atemp>18.0</ns3:atemp>
          </ns3:TrackPointExtension>
        </extensions>
      </trkpt>
      <trkpt lat="43.0958238802850246429443359375" lon="12.99008737318217754364013671875">
        <ele>1319.5999755859375</ele>
        <time>2021-06-06T08:51:14.000Z</time>
        <extensions>
          <ns3:TrackPointExtension>
            <ns3:atemp>18.0</ns3:atemp>
          </ns3:TrackPointExtension>
        </extensions>
      </trkpt>
      <trkpt lat="43.0958195216953754425048828125" lon="12.990086786448955535888671875">
        <ele>1319.5999755859375</ele>
        <time>2021-06-06T08:51:16.000Z</time>
        <extensions>
          <ns3:TrackPointExtension>
            <ns3:atemp>18.0</ns3:atemp>
          </ns3:TrackPointExtension>
        </extensions>
      </trkpt>
      <trkpt lat="43.09576101601123809814453125" lon="12.9900604672729969024658203125">
        <ele>1319.800048828125</ele>
        <time>2021-06-06T08:51:24.000Z</time>
        <extensions>
          <ns3:TrackPointExtension>
            <ns3:atemp>18.0</ns3:atemp>
          </ns3:TrackPointExtension>
        </extensions>
      </trkpt>
      <trkpt lat="43.0957155860960483551025390625" lon="12.99004982225596904754638671875">
        <ele>1320.5999755859375</ele>
        <time>2021-06-06T08:51:30.000Z</time>
        <extensions>
          <ns3:TrackPointExtension>
            <ns3:atemp>18.0</ns3:atemp>
          </ns3:TrackPointExtension>
        </extensions>
      </trkpt>
      <trkpt lat="43.0956907756626605987548828125" lon="12.9900463856756687164306640625">
        <ele>1321</ele>
        <time>2021-06-06T08:51:33.000Z</time>
        <extensions>
          <ns3:TrackPointExtension>
            <ns3:atemp>18.0</ns3:atemp>
          </ns3:TrackPointExtension>
        </extensions>
      </trkpt>
      <trkpt lat="43.09566722251474857330322265625" lon="12.99004278145730495452880859375">
        <ele>1321.5999755859375</ele>
        <time>2021-06-06T08:51:36.000Z</time>
        <extensions>
          <ns3:TrackPointExtension>
            <ns3:atemp>18.0</ns3:atemp>
          </ns3:TrackPointExtension>
        </extensions>
      </trkpt>
      <trkpt lat="43.09564123861491680145263671875" lon="12.99004043452441692352294921875">
        <ele>1322.5999755859375</ele>
        <time>2021-06-06T08:51:40.000Z</time>
        <extensions>
          <ns3:TrackPointExtension>
            <ns3:atemp>18.0</ns3:atemp>
          </ns3:TrackPointExtension>
        </extensions>
      </trkpt>
      <trkpt lat="43.09562698937952518463134765625" lon="12.99003909341990947723388671875">
        <ele>1323</ele>
        <time>2021-06-06T08:51:42.000Z</time>
        <extensions>
          <ns3:TrackPointExtension>
            <ns3:atemp>18.0</ns3:atemp>
          </ns3:TrackPointExtension>
        </extensions>
      </trkpt>
      <trkpt lat="43.09559899382293224334716796875" lon="12.990030460059642791748046875">
        <ele>1323.800048828125</ele>
        <time>2021-06-06T08:51:46.000Z</time>
        <extensions>
          <ns3:TrackPointExtension>
            <ns3:atemp>18.0</ns3:atemp>
          </ns3:TrackPointExtension>
        </extensions>
      </trkpt>
      <trkpt lat="43.09557669796049594879150390625" lon="12.9900175519287586212158203125">
        <ele>1324.4000244140625</ele>
        <time>2021-06-06T08:51:50.000Z</time>
        <extensions>
          <ns3:TrackPointExtension>
            <ns3:atemp>18.0</ns3:atemp>
          </ns3:TrackPointExtension>
        </extensions>
      </trkpt>
      <trkpt lat="43.095566891133785247802734375" lon="12.99001662991940975189208984375">
        <ele>1324.800048828125</ele>
        <time>2021-06-06T08:51:52.000Z</time>
        <extensions>
          <ns3:TrackPointExtension>
            <ns3:atemp>18.0</ns3:atemp>
          </ns3:TrackPointExtension>
        </extensions>
      </trkpt>
      <trkpt lat="43.09553126804530620574951171875" lon="12.9900044761598110198974609375">
        <ele>1325.800048828125</ele>
        <time>2021-06-06T08:51:57.000Z</time>
        <extensions>
          <ns3:TrackPointExtension>
            <ns3:atemp>18.0</ns3:atemp>
          </ns3:TrackPointExtension>
        </extensions>
      </trkpt>
      <trkpt lat="43.0955251492559909820556640625" lon="12.9900011233985424041748046875">
        <ele>1326</ele>
        <time>2021-06-06T08:51:58.000Z</time>
        <extensions>
          <ns3:TrackPointExtension>
            <ns3:atemp>18.0</ns3:atemp>
          </ns3:TrackPointExtension>
        </extensions>
      </trkpt>
      <trkpt lat="43.0954973213374614715576171875" lon="12.99000196158885955810546875">
        <ele>1326.800048828125</ele>
        <time>2021-06-06T08:52:03.000Z</time>
        <extensions>
          <ns3:TrackPointExtension>
            <ns3:atemp>18.0</ns3:atemp>
          </ns3:TrackPointExtension>
        </extensions>
      </trkpt>
      <trkpt lat="43.0954922921955585479736328125" lon="12.99000439234077930450439453125">
        <ele>1327</ele>
        <time>2021-06-06T08:52:05.000Z</time>
        <extensions>
          <ns3:TrackPointExtension>
            <ns3:atemp>18.0</ns3:atemp>
          </ns3:TrackPointExtension>
        </extensions>
      </trkpt>
      <trkpt lat="43.09548835270106792449951171875" lon="12.9900058172643184661865234375">
        <ele>1328</ele>
        <time>2021-06-06T08:52:09.000Z</time>
        <extensions>
          <ns3:TrackPointExtension>
            <ns3:atemp>18.0</ns3:atemp>
          </ns3:TrackPointExtension>
        </extensions>
      </trkpt>
      <trkpt lat="43.09548751451075077056884765625" lon="12.99000606872141361236572265625">
        <ele>1328.4000244140625</ele>
        <time>2021-06-06T08:52:13.000Z</time>
        <extensions>
          <ns3:TrackPointExtension>
            <ns3:atemp>18.0</ns3:atemp>
          </ns3:TrackPointExtension>
        </extensions>
      </trkpt>
      <trkpt lat="43.0954666435718536376953125" lon="12.9900054819881916046142578125">
        <ele>1328.5999755859375</ele>
        <time>2021-06-06T08:52:20.000Z</time>
        <extensions>
          <ns3:TrackPointExtension>
            <ns3:atemp>18.0</ns3:atemp>
          </ns3:TrackPointExtension>
        </extensions>
      </trkpt>
      <trkpt lat="43.0954567529261112213134765625" lon="12.99000422470271587371826171875">
        <ele>1328.800048828125</ele>
        <time>2021-06-06T08:52:27.000Z</time>
        <extensions>
          <ns3:TrackPointExtension>
            <ns3:atemp>18.0</ns3:atemp>
          </ns3:TrackPointExtension>
        </extensions>
      </trkpt>
      <trkpt lat="43.09545666910707950592041015625" lon="12.9900041408836841583251953125">
        <ele>1329</ele>
        <time>2021-06-06T08:52:28.000Z</time>
        <extensions>
          <ns3:TrackPointExtension>
            <ns3:atemp>18.0</ns3:atemp>
          </ns3:TrackPointExtension>
        </extensions>
      </trkpt>
      <trkpt lat="43.09543906711041927337646484375" lon="12.98999584279954433441162109375">
        <ele>1329.199951171875</ele>
        <time>2021-06-06T08:52:40.000Z</time>
        <extensions>
          <ns3:TrackPointExtension>
            <ns3:atemp>18.0</ns3:atemp>
          </ns3:TrackPointExtension>
        </extensions>
      </trkpt>
      <trkpt lat="43.0954376421868801116943359375" lon="12.9899940825998783111572265625">
        <ele>1329.4000244140625</ele>
        <time>2021-06-06T08:52:48.000Z</time>
        <extensions>
          <ns3:TrackPointExtension>
            <ns3:atemp>18.0</ns3:atemp>
          </ns3:TrackPointExtension>
        </extensions>
      </trkpt>
      <trkpt lat="43.09540369547903537750244140625" lon="12.98997455276548862457275390625">
        <ele>1329.5999755859375</ele>
        <time>2021-06-06T08:52:55.000Z</time>
        <extensions>
          <ns3:TrackPointExtension>
            <ns3:atemp>18.0</ns3:atemp>
          </ns3:TrackPointExtension>
        </extensions>
      </trkpt>
      <trkpt lat="43.09539665468037128448486328125" lon="12.98997036181390285491943359375">
        <ele>1329.800048828125</ele>
        <time>2021-06-06T08:52:58.000Z</time>
        <extensions>
          <ns3:TrackPointExtension>
            <ns3:atemp>18.0</ns3:atemp>
          </ns3:TrackPointExtension>
        </extensions>
      </trkpt>
      <trkpt lat="43.0953823216259479522705078125" lon="12.9899622313678264617919921875">
        <ele>1330.199951171875</ele>
        <time>2021-06-06T08:53:01.000Z</time>
        <extensions>
          <ns3:TrackPointExtension>
            <ns3:atemp>18.0</ns3:atemp>
          </ns3:TrackPointExtension>
        </extensions>
      </trkpt>
      <trkpt lat="43.09537134133279323577880859375" lon="12.9899598844349384307861328125">
        <ele>1330.5999755859375</ele>
        <time>2021-06-06T08:53:03.000Z</time>
        <extensions>
          <ns3:TrackPointExtension>
            <ns3:atemp>18.0</ns3:atemp>
          </ns3:TrackPointExtension>
        </extensions>
      </trkpt>
      <trkpt lat="43.09536614455282688140869140625" lon="12.98995963297784328460693359375">
        <ele>1331.4000244140625</ele>
        <time>2021-06-06T08:53:09.000Z</time>
        <extensions>
          <ns3:TrackPointExtension>
            <ns3:atemp>18.0</ns3:atemp>
          </ns3:TrackPointExtension>
        </extensions>
      </trkpt>
      <trkpt lat="43.09536631219089031219482421875" lon="12.989959716796875">
        <ele>1331.800048828125</ele>
        <time>2021-06-06T08:53:11.000Z</time>
        <extensions>
          <ns3:TrackPointExtension>
            <ns3:atemp>18.0</ns3:atemp>
          </ns3:TrackPointExtension>
        </extensions>
      </trkpt>
      <trkpt lat="43.0953206308186054229736328125" lon="12.98995904624462127685546875">
        <ele>1332.199951171875</ele>
        <time>2021-06-06T08:53:20.000Z</time>
        <extensions>
          <ns3:TrackPointExtension>
            <ns3:atemp>18.0</ns3:atemp>
          </ns3:TrackPointExtension>
        </extensions>
      </trkpt>
      <trkpt lat="43.09527075849473476409912109375" lon="12.9899538494646549224853515625">
        <ele>1332.5999755859375</ele>
        <time>2021-06-06T08:53:27.000Z</time>
        <extensions>
          <ns3:TrackPointExtension>
            <ns3:atemp>18.0</ns3:atemp>
          </ns3:TrackPointExtension>
        </extensions>
      </trkpt>
      <trkpt lat="43.09525483287870883941650390625" lon="12.9899518378078937530517578125">
        <ele>1333</ele>
        <time>2021-06-06T08:53:30.000Z</time>
        <extensions>
          <ns3:TrackPointExtension>
            <ns3:atemp>18.0</ns3:atemp>
          </ns3:TrackPointExtension>
        </extensions>
      </trkpt>
      <trkpt lat="43.0952532403171062469482421875" lon="12.9899521730840206146240234375">
        <ele>1333.800048828125</ele>
        <time>2021-06-06T08:53:34.000Z</time>
        <extensions>
          <ns3:TrackPointExtension>
            <ns3:atemp>18.0</ns3:atemp>
          </ns3:TrackPointExtension>
        </extensions>
      </trkpt>
      <trkpt lat="43.0952535755932331085205078125" lon="12.9899525083601474761962890625">
        <ele>1335.199951171875</ele>
        <time>2021-06-06T08:53:39.000Z</time>
        <extensions>
          <ns3:TrackPointExtension>
            <ns3:atemp>18.0</ns3:atemp>
          </ns3:TrackPointExtension>
        </extensions>
      </trkpt>
      <trkpt lat="43.09525265358388423919677734375" lon="12.9899508319795131683349609375">
        <ele>1335.4000244140625</ele>
        <time>2021-06-06T08:53:41.000Z</time>
        <extensions>
          <ns3:TrackPointExtension>
            <ns3:atemp>18.0</ns3:atemp>
          </ns3:TrackPointExtension>
        </extensions>
      </trkpt>
      <trkpt lat="43.09520822949707508087158203125" lon="12.98992761410772800445556640625">
        <ele>1335.5999755859375</ele>
        <time>2021-06-06T08:53:49.000Z</time>
        <extensions>
          <ns3:TrackPointExtension>
            <ns3:atemp>18.0</ns3:atemp>
          </ns3:TrackPointExtension>
        </extensions>
      </trkpt>
      <trkpt lat="43.09517654590308666229248046875" lon="12.98990883864462375640869140625">
        <ele>1336</ele>
        <time>2021-06-06T08:53:54.000Z</time>
        <extensions>
          <ns3:TrackPointExtension>
            <ns3:atemp>18.0</ns3:atemp>
          </ns3:TrackPointExtension>
        </extensions>
      </trkpt>
      <trkpt lat="43.0951697565615177154541015625" lon="12.98990531824529170989990234375">
        <ele>1337.199951171875</ele>
        <time>2021-06-06T08:53:58.000Z</time>
        <extensions>
          <ns3:TrackPointExtension>
            <ns3:atemp>18.0</ns3:atemp>
          </ns3:TrackPointExtension>
        </extensions>
      </trkpt>
      <trkpt lat="43.095169253647327423095703125" lon="12.98990498296916484832763671875">
        <ele>1337.5999755859375</ele>
        <time>2021-06-06T08:54:00.000Z</time>
        <extensions>
          <ns3:TrackPointExtension>
            <ns3:atemp>18.0</ns3:atemp>
          </ns3:TrackPointExtension>
        </extensions>
      </trkpt>
      <trkpt lat="43.0951700918376445770263671875" lon="12.98990464769303798675537109375">
        <ele>1338.4000244140625</ele>
        <time>2021-06-06T08:54:03.000Z</time>
        <extensions>
          <ns3:TrackPointExtension>
            <ns3:atemp>18.0</ns3:atemp>
          </ns3:TrackPointExtension>
        </extensions>
      </trkpt>
      <trkpt lat="43.095169253647327423095703125" lon="12.9899028874933719635009765625">
        <ele>1338.800048828125</ele>
        <time>2021-06-06T08:54:14.000Z</time>
        <extensions>
          <ns3:TrackPointExtension>
            <ns3:atemp>18.0</ns3:atemp>
          </ns3:TrackPointExtension>
        </extensions>
      </trkpt>
      <trkpt lat="43.09512642212212085723876953125" lon="12.9898827709257602691650390625">
        <ele>1339</ele>
        <time>2021-06-06T08:54:25.000Z</time>
        <extensions>
          <ns3:TrackPointExtension>
            <ns3:atemp>18.0</ns3:atemp>
          </ns3:TrackPointExtension>
        </extensions>
      </trkpt>
      <trkpt lat="43.095112256705760955810546875" lon="12.9898787476122379302978515625">
        <ele>1339.199951171875</ele>
        <time>2021-06-06T08:54:28.000Z</time>
        <extensions>
          <ns3:TrackPointExtension>
            <ns3:atemp>18.0</ns3:atemp>
          </ns3:TrackPointExtension>
        </extensions>
      </trkpt>
      <trkpt lat="43.095079399645328521728515625" lon="12.98986189998686313629150390625">
        <ele>1340</ele>
        <time>2021-06-06T08:54:33.000Z</time>
        <extensions>
          <ns3:TrackPointExtension>
            <ns3:atemp>18.0</ns3:atemp>
          </ns3:TrackPointExtension>
        </extensions>
      </trkpt>
      <trkpt lat="43.09506841935217380523681640625" lon="12.98985586501657962799072265625">
        <ele>1340.4000244140625</ele>
        <time>2021-06-06T08:54:35.000Z</time>
        <extensions>
          <ns3:TrackPointExtension>
            <ns3:atemp>18.0</ns3:atemp>
          </ns3:TrackPointExtension>
        </extensions>
      </trkpt>
      <trkpt lat="43.0950349755585193634033203125" lon="12.98983633518218994140625">
        <ele>1341.199951171875</ele>
        <time>2021-06-06T08:54:41.000Z</time>
        <extensions>
          <ns3:TrackPointExtension>
            <ns3:atemp>18.0</ns3:atemp>
          </ns3:TrackPointExtension>
        </extensions>
      </trkpt>
      <trkpt lat="43.09501980431377887725830078125" lon="12.9898321442306041717529296875">
        <ele>1341.5999755859375</ele>
        <time>2021-06-06T08:54:43.000Z</time>
        <extensions>
          <ns3:TrackPointExtension>
            <ns3:atemp>18.0</ns3:atemp>
          </ns3:TrackPointExtension>
        </extensions>
      </trkpt>
      <trkpt lat="43.0949947424232959747314453125" lon="12.9898385144770145416259765625">
        <ele>1342.4000244140625</ele>
        <time>2021-06-06T08:54:47.000Z</time>
        <extensions>
          <ns3:TrackPointExtension>
            <ns3:atemp>18.0</ns3:atemp>
          </ns3:TrackPointExtension>
        </extensions>
      </trkpt>
      <trkpt lat="43.094985522329807281494140625" lon="12.98983960412442684173583984375">
        <ele>1343.4000244140625</ele>
        <time>2021-06-06T08:54:51.000Z</time>
        <extensions>
          <ns3:TrackPointExtension>
            <ns3:atemp>18.0</ns3:atemp>
          </ns3:TrackPointExtension>
        </extensions>
      </trkpt>
      <trkpt lat="43.0949870310723781585693359375" lon="12.9898416996002197265625">
        <ele>1343.5999755859375</ele>
        <time>2021-06-06T08:54:52.000Z</time>
        <extensions>
          <ns3:TrackPointExtension>
            <ns3:atemp>18.0</ns3:atemp>
          </ns3:TrackPointExtension>
        </extensions>
      </trkpt>
      <trkpt lat="43.09499164111912250518798828125" lon="12.989840693771839141845703125">
        <ele>1344.5999755859375</ele>
        <time>2021-06-06T08:54:55.000Z</time>
        <extensions>
          <ns3:TrackPointExtension>
            <ns3:atemp>18.0</ns3:atemp>
          </ns3:TrackPointExtension>
        </extensions>
      </trkpt>
      <trkpt lat="43.09499365277588367462158203125" lon="12.9898391850292682647705078125">
        <ele>1345.4000244140625</ele>
        <time>2021-06-06T08:55:01.000Z</time>
        <extensions>
          <ns3:TrackPointExtension>
            <ns3:atemp>18.0</ns3:atemp>
          </ns3:TrackPointExtension>
        </extensions>
      </trkpt>
      <trkpt lat="43.0949960835278034210205078125" lon="12.98983993940055370330810546875">
        <ele>1345.4000244140625</ele>
        <time>2021-06-06T08:55:04.000Z</time>
        <extensions>
          <ns3:TrackPointExtension>
            <ns3:atemp>18.0</ns3:atemp>
          </ns3:TrackPointExtension>
        </extensions>
      </trkpt>
      <trkpt lat="43.09500731527805328369140625" lon="12.98982870765030384063720703125">
        <ele>1345.4000244140625</ele>
        <time>2021-06-06T08:55:18.000Z</time>
        <extensions>
          <ns3:TrackPointExtension>
            <ns3:atemp>18.0</ns3:atemp>
          </ns3:TrackPointExtension>
        </extensions>
      </trkpt>
      <trkpt lat="43.09494562447071075439453125" lon="12.989843375980854034423828125">
        <ele>1345.4000244140625</ele>
        <time>2021-06-06T08:55:29.000Z</time>
        <extensions>
          <ns3:TrackPointExtension>
            <ns3:atemp>18.0</ns3:atemp>
          </ns3:TrackPointExtension>
        </extensions>
      </trkpt>
      <trkpt lat="43.094893656671047210693359375" lon="12.98987112008035182952880859375">
        <ele>1346.199951171875</ele>
        <time>2021-06-06T08:55:36.000Z</time>
        <extensions>
          <ns3:TrackPointExtension>
            <ns3:atemp>18.0</ns3:atemp>
          </ns3:TrackPointExtension>
        </extensions>
      </trkpt>
      <trkpt lat="43.09484998695552349090576171875" lon="12.989883609116077423095703125">
        <ele>1347.4000244140625</ele>
        <time>2021-06-06T08:55:41.000Z</time>
        <extensions>
          <ns3:TrackPointExtension>
            <ns3:atemp>18.0</ns3:atemp>
          </ns3:TrackPointExtension>
        </extensions>
      </trkpt>
      <trkpt lat="43.0948307923972606658935546875" lon="12.9898881353437900543212890625">
        <ele>1347.800048828125</ele>
        <time>2021-06-06T08:55:43.000Z</time>
        <extensions>
          <ns3:TrackPointExtension>
            <ns3:atemp>18.0</ns3:atemp>
          </ns3:TrackPointExtension>
        </extensions>
      </trkpt>
      <trkpt lat="43.09480925090610980987548828125" lon="12.98989199101924896240234375">
        <ele>1348.5999755859375</ele>
        <time>2021-06-06T08:55:46.000Z</time>
        <extensions>
          <ns3:TrackPointExtension>
            <ns3:atemp>18.0</ns3:atemp>
          </ns3:TrackPointExtension>
        </extensions>
      </trkpt>
      <trkpt lat="43.09479248709976673126220703125" lon="12.98990012146532535552978515625">
        <ele>1349.5999755859375</ele>
        <time>2021-06-06T08:55:50.000Z</time>
        <extensions>
          <ns3:TrackPointExtension>
            <ns3:atemp>18.0</ns3:atemp>
          </ns3:TrackPointExtension>
        </extensions>
      </trkpt>
      <trkpt lat="43.09476600028574466705322265625" lon="12.98990917392075061798095703125">
        <ele>1350.800048828125</ele>
        <time>2021-06-06T08:55:54.000Z</time>
        <extensions>
          <ns3:TrackPointExtension>
            <ns3:atemp>18.0</ns3:atemp>
          </ns3:TrackPointExtension>
        </extensions>
      </trkpt>
      <trkpt lat="43.09475191868841648101806640625" lon="12.989931218326091766357421875">
        <ele>1351.800048828125</ele>
        <time>2021-06-06T08:55:58.000Z</time>
        <extensions>
          <ns3:TrackPointExtension>
            <ns3:atemp>18.0</ns3:atemp>
          </ns3:TrackPointExtension>
        </extensions>
      </trkpt>
      <trkpt lat="43.09475393034517765045166015625" lon="12.98993247561156749725341796875">
        <ele>1352</ele>
        <time>2021-06-06T08:56:00.000Z</time>
        <extensions>
          <ns3:TrackPointExtension>
            <ns3:atemp>18.0</ns3:atemp>
          </ns3:TrackPointExtension>
        </extensions>
      </trkpt>
      <trkpt lat="43.09474269859492778778076171875" lon="12.98993767239153385162353515625">
        <ele>1352.5999755859375</ele>
        <time>2021-06-06T08:56:13.000Z</time>
        <extensions>
          <ns3:TrackPointExtension>
            <ns3:atemp>18.0</ns3:atemp>
          </ns3:TrackPointExtension>
        </extensions>
      </trkpt>
      <trkpt lat="43.09475996531546115875244140625" lon="12.98993230797350406646728515625">
        <ele>1352.5999755859375</ele>
        <time>2021-06-06T08:56:25.000Z</time>
        <extensions>
          <ns3:TrackPointExtension>
            <ns3:atemp>18.0</ns3:atemp>
          </ns3:TrackPointExtension>
        </extensions>
      </trkpt>
      <trkpt lat="43.09476432390511035919189453125" lon="12.989931888878345489501953125">
        <ele>1352.800048828125</ele>
        <time>2021-06-06T08:56:26.000Z</time>
        <extensions>
          <ns3:TrackPointExtension>
            <ns3:atemp>18.0</ns3:atemp>
          </ns3:TrackPointExtension>
        </extensions>
      </trkpt>
      <trkpt lat="43.0948106758296489715576171875" lon="12.9899484850466251373291015625">
        <ele>1353</ele>
        <time>2021-06-06T08:56:37.000Z</time>
        <extensions>
          <ns3:TrackPointExtension>
            <ns3:atemp>18.0</ns3:atemp>
          </ns3:TrackPointExtension>
        </extensions>
      </trkpt>
      <trkpt lat="43.09481277130544185638427734375" lon="12.98998394049704074859619140625">
        <ele>1353</ele>
        <time>2021-06-06T08:56:41.000Z</time>
        <extensions>
          <ns3:TrackPointExtension>
            <ns3:atemp>18.0</ns3:atemp>
          </ns3:TrackPointExtension>
        </extensions>
      </trkpt>
      <trkpt lat="43.0947986058890819549560546875" lon="12.989996932446956634521484375">
        <ele>1353</ele>
        <time>2021-06-06T08:56:43.000Z</time>
        <extensions>
          <ns3:TrackPointExtension>
            <ns3:atemp>18.0</ns3:atemp>
          </ns3:TrackPointExtension>
        </extensions>
      </trkpt>
      <trkpt lat="43.09476323425769805908203125" lon="12.99002702347934246063232421875">
        <ele>1353</ele>
        <time>2021-06-06T08:56:51.000Z</time>
        <extensions>
          <ns3:TrackPointExtension>
            <ns3:atemp>18.0</ns3:atemp>
          </ns3:TrackPointExtension>
        </extensions>
      </trkpt>
      <trkpt lat="43.0947238393127918243408203125" lon="12.99003289081156253814697265625">
        <ele>1353.5999755859375</ele>
        <time>2021-06-06T08:56:57.000Z</time>
        <extensions>
          <ns3:TrackPointExtension>
            <ns3:atemp>18.0</ns3:atemp>
          </ns3:TrackPointExtension>
        </extensions>
      </trkpt>
      <trkpt lat="43.09469324536621570587158203125" lon="12.99009944312274456024169921875">
        <ele>1354.199951171875</ele>
        <time>2021-06-06T08:57:02.000Z</time>
        <extensions>
          <ns3:TrackPointExtension>
            <ns3:atemp>18.0</ns3:atemp>
          </ns3:TrackPointExtension>
        </extensions>
      </trkpt>
      <trkpt lat="43.09461227618157863616943359375" lon="12.9902914725244045257568359375">
        <ele>1354.4000244140625</ele>
        <time>2021-06-06T08:57:08.000Z</time>
        <extensions>
          <ns3:TrackPointExtension>
            <ns3:atemp>18.0</ns3:atemp>
          </ns3:TrackPointExtension>
        </extensions>
      </trkpt>
      <trkpt lat="43.09451605193316936492919921875" lon="12.99039398320019245147705078125">
        <ele>1354.4000244140625</ele>
        <time>2021-06-06T08:57:13.000Z</time>
        <extensions>
          <ns3:TrackPointExtension>
            <ns3:atemp>18.0</ns3:atemp>
          </ns3:TrackPointExtension>
        </extensions>
      </trkpt>
      <trkpt lat="43.09449442662298679351806640625" lon="12.9903980903327465057373046875">
        <ele>1354.5999755859375</ele>
        <time>2021-06-06T08:57:14.000Z</time>
        <extensions>
          <ns3:TrackPointExtension>
            <ns3:atemp>18.0</ns3:atemp>
          </ns3:TrackPointExtension>
        </extensions>
      </trkpt>
      <trkpt lat="43.0944006331264972686767578125" lon="12.9904121719300746917724609375">
        <ele>1355.4000244140625</ele>
        <time>2021-06-06T08:57:18.000Z</time>
        <extensions>
          <ns3:TrackPointExtension>
            <ns3:atemp>18.0</ns3:atemp>
          </ns3:TrackPointExtension>
        </extensions>
      </trkpt>
      <trkpt lat="43.09437833726406097412109375" lon="12.9904115013778209686279296875">
        <ele>1356</ele>
        <time>2021-06-06T08:57:19.000Z</time>
        <extensions>
          <ns3:TrackPointExtension>
            <ns3:atemp>18.0</ns3:atemp>
          </ns3:TrackPointExtension>
        </extensions>
      </trkpt>
      <trkpt lat="43.09435746632516384124755859375" lon="12.99041041173040866851806640625">
        <ele>1357</ele>
        <time>2021-06-06T08:57:20.000Z</time>
        <extensions>
          <ns3:TrackPointExtension>
            <ns3:atemp>18.0</ns3:atemp>
          </ns3:TrackPointExtension>
        </extensions>
      </trkpt>
      <trkpt lat="43.09431706555187702178955078125" lon="12.99039683304727077484130859375">
        <ele>1358</ele>
        <time>2021-06-06T08:57:22.000Z</time>
        <extensions>
          <ns3:TrackPointExtension>
            <ns3:atemp>18.0</ns3:atemp>
          </ns3:TrackPointExtension>
        </extensions>
      </trkpt>
      <trkpt lat="43.0942567996680736541748046875" lon="12.990381829440593719482421875">
        <ele>1359.4000244140625</ele>
        <time>2021-06-06T08:57:25.000Z</time>
        <extensions>
          <ns3:TrackPointExtension>
            <ns3:atemp>18.0</ns3:atemp>
          </ns3:TrackPointExtension>
        </extensions>
      </trkpt>
      <trkpt lat="43.09417993761599063873291015625" lon="12.99035307951271533966064453125">
        <ele>1360.5999755859375</ele>
        <time>2021-06-06T08:57:29.000Z</time>
        <extensions>
          <ns3:TrackPointExtension>
            <ns3:atemp>18.0</ns3:atemp>
          </ns3:TrackPointExtension>
        </extensions>
      </trkpt>
      <trkpt lat="43.0941461585462093353271484375" lon="12.9903347231447696685791015625">
        <ele>1361.4000244140625</ele>
        <time>2021-06-06T08:57:31.000Z</time>
        <extensions>
          <ns3:TrackPointExtension>
            <ns3:atemp>18.0</ns3:atemp>
          </ns3:TrackPointExtension>
        </extensions>
      </trkpt>
      <trkpt lat="43.09410902671515941619873046875" lon="12.9903149418532848358154296875">
        <ele>1361.800048828125</ele>
        <time>2021-06-06T08:57:33.000Z</time>
        <extensions>
          <ns3:TrackPointExtension>
            <ns3:atemp>18.0</ns3:atemp>
          </ns3:TrackPointExtension>
        </extensions>
      </trkpt>
      <trkpt lat="43.0940630100667476654052734375" lon="12.99027965404093265533447265625">
        <ele>1363.199951171875</ele>
        <time>2021-06-06T08:57:36.000Z</time>
        <extensions>
          <ns3:TrackPointExtension>
            <ns3:atemp>18.0</ns3:atemp>
          </ns3:TrackPointExtension>
        </extensions>
      </trkpt>
      <trkpt lat="43.09404482133686542510986328125" lon="12.9902710206806659698486328125">
        <ele>1363.5999755859375</ele>
        <time>2021-06-06T08:57:37.000Z</time>
        <extensions>
          <ns3:TrackPointExtension>
            <ns3:atemp>18.0</ns3:atemp>
          </ns3:TrackPointExtension>
        </extensions>
      </trkpt>
      <trkpt lat="43.0940003134310245513916015625" lon="12.99025802873075008392333984375">
        <ele>1364.4000244140625</ele>
        <time>2021-06-06T08:57:39.000Z</time>
        <extensions>
          <ns3:TrackPointExtension>
            <ns3:atemp>18.0</ns3:atemp>
          </ns3:TrackPointExtension>
        </extensions>
      </trkpt>
      <trkpt lat="43.09393719770014286041259765625" lon="12.990230955183506011962890625">
        <ele>1365.800048828125</ele>
        <time>2021-06-06T08:57:42.000Z</time>
        <extensions>
          <ns3:TrackPointExtension>
            <ns3:atemp>18.0</ns3:atemp>
          </ns3:TrackPointExtension>
        </extensions>
      </trkpt>
      <trkpt lat="43.093897216022014617919921875" lon="12.9902089945971965789794921875">
        <ele>1366.800048828125</ele>
        <time>2021-06-06T08:57:44.000Z</time>
        <extensions>
          <ns3:TrackPointExtension>
            <ns3:atemp>18.0</ns3:atemp>
          </ns3:TrackPointExtension>
        </extensions>
      </trkpt>
      <trkpt lat="43.093858323991298675537109375" lon="12.9901975952088832855224609375">
        <ele>1367.800048828125</ele>
        <time>2021-06-06T08:57:46.000Z</time>
        <extensions>
          <ns3:TrackPointExtension>
            <ns3:atemp>18.0</ns3:atemp>
          </ns3:TrackPointExtension>
        </extensions>
      </trkpt>
      <trkpt lat="43.0937875807285308837890625" lon="12.99016834236681461334228515625">
        <ele>1369.199951171875</ele>
        <time>2021-06-06T08:57:49.000Z</time>
        <extensions>
          <ns3:TrackPointExtension>
            <ns3:atemp>18.0</ns3:atemp>
          </ns3:TrackPointExtension>
        </extensions>
      </trkpt>
      <trkpt lat="43.09378598816692829132080078125" lon="12.99014889635145664215087890625">
        <ele>1370</ele>
        <time>2021-06-06T08:57:50.000Z</time>
        <extensions>
          <ns3:TrackPointExtension>
            <ns3:atemp>18.0</ns3:atemp>
          </ns3:TrackPointExtension>
        </extensions>
      </trkpt>
      <trkpt lat="43.09379973448812961578369140625" lon="12.99013364128768444061279296875">
        <ele>1370.4000244140625</ele>
        <time>2021-06-06T08:57:51.000Z</time>
        <extensions>
          <ns3:TrackPointExtension>
            <ns3:atemp>18.0</ns3:atemp>
          </ns3:TrackPointExtension>
        </extensions>
      </trkpt>
      <trkpt lat="43.0938658677041530609130859375" lon="12.990074045956134796142578125">
        <ele>1371.800048828125</ele>
        <time>2021-06-06T08:57:54.000Z</time>
        <extensions>
          <ns3:TrackPointExtension>
            <ns3:atemp>18.0</ns3:atemp>
          </ns3:TrackPointExtension>
        </extensions>
      </trkpt>
      <trkpt lat="43.09392093680799007415771484375" lon="12.98997840844094753265380859375">
        <ele>1373.4000244140625</ele>
        <time>2021-06-06T08:57:58.000Z</time>
        <extensions>
          <ns3:TrackPointExtension>
            <ns3:atemp>18.0</ns3:atemp>
          </ns3:TrackPointExtension>
        </extensions>
      </trkpt>
      <trkpt lat="43.09394524432718753814697265625" lon="12.98992560245096683502197265625">
        <ele>1374.5999755859375</ele>
        <time>2021-06-06T08:58:00.000Z</time>
        <extensions>
          <ns3:TrackPointExtension>
            <ns3:atemp>18.0</ns3:atemp>
          </ns3:TrackPointExtension>
        </extensions>
      </trkpt>
      <trkpt lat="43.09395915828645229339599609375" lon="12.9898725450038909912109375">
        <ele>1375.199951171875</ele>
        <time>2021-06-06T08:58:02.000Z</time>
        <extensions>
          <ns3:TrackPointExtension>
            <ns3:atemp>18.0</ns3:atemp>
          </ns3:TrackPointExtension>
        </extensions>
      </trkpt>
      <trkpt lat="43.0939664505422115325927734375" lon="12.98984748311340808868408203125">
        <ele>1375.5999755859375</ele>
        <time>2021-06-06T08:58:03.000Z</time>
        <extensions>
          <ns3:TrackPointExtension>
            <ns3:atemp>18.0</ns3:atemp>
          </ns3:TrackPointExtension>
        </extensions>
      </trkpt>
      <trkpt lat="43.09399017132818698883056640625" lon="12.9897711239755153656005859375">
        <ele>1376.800048828125</ele>
        <time>2021-06-06T08:58:06.000Z</time>
        <extensions>
          <ns3:TrackPointExtension>
            <ns3:atemp>18.0</ns3:atemp>
          </ns3:TrackPointExtension>
        </extensions>
      </trkpt>
      <trkpt lat="43.09401397593319416046142578125" lon="12.9896847903728485107421875">
        <ele>1377.800048828125</ele>
        <time>2021-06-06T08:58:09.000Z</time>
        <extensions>
          <ns3:TrackPointExtension>
            <ns3:atemp>18.0</ns3:atemp>
          </ns3:TrackPointExtension>
        </extensions>
      </trkpt>
      <trkpt lat="43.09402068145573139190673828125" lon="12.98965369351208209991455078125">
        <ele>1378.199951171875</ele>
        <time>2021-06-06T08:58:10.000Z</time>
        <extensions>
          <ns3:TrackPointExtension>
            <ns3:atemp>18.0</ns3:atemp>
          </ns3:TrackPointExtension>
        </extensions>
      </trkpt>
      <trkpt lat="43.0940180830657482147216796875" lon="12.98959217034280300140380859375">
        <ele>1379</ele>
        <time>2021-06-06T08:58:12.000Z</time>
        <extensions>
          <ns3:TrackPointExtension>
            <ns3:atemp>18.0</ns3:atemp>
          </ns3:TrackPointExtension>
        </extensions>
      </trkpt>
      <trkpt lat="43.09399117715656757354736328125" lon="12.989571802318096160888671875">
        <ele>1380</ele>
        <time>2021-06-06T08:58:14.000Z</time>
        <extensions>
          <ns3:TrackPointExtension>
            <ns3:atemp>18.0</ns3:atemp>
          </ns3:TrackPointExtension>
        </extensions>
      </trkpt>
      <trkpt lat="43.09397122822701930999755859375" lon="12.98957389779388904571533203125">
        <ele>1380.4000244140625</ele>
        <time>2021-06-06T08:58:15.000Z</time>
        <extensions>
          <ns3:TrackPointExtension>
            <ns3:atemp>18.0</ns3:atemp>
          </ns3:TrackPointExtension>
        </extensions>
      </trkpt>
      <trkpt lat="43.0939503572881221771240234375" lon="12.9895780049264430999755859375">
        <ele>1381</ele>
        <time>2021-06-06T08:58:16.000Z</time>
        <extensions>
          <ns3:TrackPointExtension>
            <ns3:atemp>18.0</ns3:atemp>
          </ns3:TrackPointExtension>
        </extensions>
      </trkpt>
      <trkpt lat="43.09393317438662052154541015625" lon="12.989580519497394561767578125">
        <ele>1381.800048828125</ele>
        <time>2021-06-06T08:58:17.000Z</time>
        <extensions>
          <ns3:TrackPointExtension>
            <ns3:atemp>18.0</ns3:atemp>
          </ns3:TrackPointExtension>
        </extensions>
      </trkpt>
      <trkpt lat="43.093920685350894927978515625" lon="12.9895803518593311309814453125">
        <ele>1383</ele>
        <time>2021-06-06T08:58:19.000Z</time>
        <extensions>
          <ns3:TrackPointExtension>
            <ns3:atemp>18.0</ns3:atemp>
          </ns3:TrackPointExtension>
        </extensions>
      </trkpt>
      <trkpt lat="43.09390853159129619598388671875" lon="12.9895890690386295318603515625">
        <ele>1383.5999755859375</ele>
        <time>2021-06-06T08:58:21.000Z</time>
        <extensions>
          <ns3:TrackPointExtension>
            <ns3:atemp>18.0</ns3:atemp>
          </ns3:TrackPointExtension>
        </extensions>
      </trkpt>
      <trkpt lat="43.093873076140880584716796875" lon="12.9896142147481441497802734375">
        <ele>1384.199951171875</ele>
        <time>2021-06-06T08:58:23.000Z</time>
        <extensions>
          <ns3:TrackPointExtension>
            <ns3:atemp>18.0</ns3:atemp>
          </ns3:TrackPointExtension>
        </extensions>
      </trkpt>
      <trkpt lat="43.09384868480265140533447265625" lon="12.9896232672035694122314453125">
        <ele>1384.5999755859375</ele>
        <time>2021-06-06T08:58:24.000Z</time>
        <extensions>
          <ns3:TrackPointExtension>
            <ns3:atemp>17.0</ns3:atemp>
          </ns3:TrackPointExtension>
        </extensions>
      </trkpt>
      <trkpt lat="43.09382387436926364898681640625" lon="12.98962955363094806671142578125">
        <ele>1385</ele>
        <time>2021-06-06T08:58:25.000Z</time>
        <extensions>
          <ns3:TrackPointExtension>
            <ns3:atemp>17.0</ns3:atemp>
          </ns3:TrackPointExtension>
        </extensions>
      </trkpt>
      <trkpt lat="43.0937988124787807464599609375" lon="12.989634163677692413330078125">
        <ele>1385.4000244140625</ele>
        <time>2021-06-06T08:58:26.000Z</time>
        <extensions>
          <ns3:TrackPointExtension>
            <ns3:atemp>17.0</ns3:atemp>
          </ns3:TrackPointExtension>
        </extensions>
      </trkpt>
      <trkpt lat="43.0936616845428943634033203125" lon="12.9896309785544872283935546875">
        <ele>1386.4000244140625</ele>
        <time>2021-06-06T08:58:32.000Z</time>
        <extensions>
          <ns3:TrackPointExtension>
            <ns3:atemp>17.0</ns3:atemp>
          </ns3:TrackPointExtension>
        </extensions>
      </trkpt>
      <trkpt lat="43.0936378799378871917724609375" lon="12.98962913453578948974609375">
        <ele>1386.4000244140625</ele>
        <time>2021-06-06T08:58:33.000Z</time>
        <extensions>
          <ns3:TrackPointExtension>
            <ns3:atemp>17.0</ns3:atemp>
          </ns3:TrackPointExtension>
        </extensions>
      </trkpt>
      <trkpt lat="43.0935735069215297698974609375" lon="12.9896070063114166259765625">
        <ele>1387.800048828125</ele>
        <time>2021-06-06T08:58:36.000Z</time>
        <extensions>
          <ns3:TrackPointExtension>
            <ns3:atemp>17.0</ns3:atemp>
          </ns3:TrackPointExtension>
        </extensions>
      </trkpt>
      <trkpt lat="43.09354073368012905120849609375" lon="12.98957859165966510772705078125">
        <ele>1388.5999755859375</ele>
        <time>2021-06-06T08:58:38.000Z</time>
        <extensions>
          <ns3:TrackPointExtension>
            <ns3:atemp>17.0</ns3:atemp>
          </ns3:TrackPointExtension>
        </extensions>
      </trkpt>
      <trkpt lat="43.09352145530283451080322265625" lon="12.98957037739455699920654296875">
        <ele>1389</ele>
        <time>2021-06-06T08:58:39.000Z</time>
        <extensions>
          <ns3:TrackPointExtension>
            <ns3:atemp>17.0</ns3:atemp>
          </ns3:TrackPointExtension>
        </extensions>
      </trkpt>
      <trkpt lat="43.093460686504840850830078125" lon="12.9895545355975627899169921875">
        <ele>1389.4000244140625</ele>
        <time>2021-06-06T08:58:42.000Z</time>
        <extensions>
          <ns3:TrackPointExtension>
            <ns3:atemp>17.0</ns3:atemp>
          </ns3:TrackPointExtension>
        </extensions>
      </trkpt>
      <trkpt lat="43.09345087967813014984130859375" lon="12.9895381070673465728759765625">
        <ele>1389.800048828125</ele>
        <time>2021-06-06T08:58:43.000Z</time>
        <extensions>
          <ns3:TrackPointExtension>
            <ns3:atemp>17.0</ns3:atemp>
          </ns3:TrackPointExtension>
        </extensions>
      </trkpt>
      <trkpt lat="43.09345833957195281982421875" lon="12.98949494026601314544677734375">
        <ele>1391</ele>
        <time>2021-06-06T08:58:45.000Z</time>
        <extensions>
          <ns3:TrackPointExtension>
            <ns3:atemp>17.0</ns3:atemp>
          </ns3:TrackPointExtension>
        </extensions>
      </trkpt>
      <trkpt lat="43.09346848167479038238525390625" lon="12.98947624862194061279296875">
        <ele>1391.800048828125</ele>
        <time>2021-06-06T08:58:46.000Z</time>
        <extensions>
          <ns3:TrackPointExtension>
            <ns3:atemp>17.0</ns3:atemp>
          </ns3:TrackPointExtension>
        </extensions>
      </trkpt>
      <trkpt lat="43.09348306618630886077880859375" lon="12.98945881426334381103515625">
        <ele>1392.5999755859375</ele>
        <time>2021-06-06T08:58:47.000Z</time>
        <extensions>
          <ns3:TrackPointExtension>
            <ns3:atemp>17.0</ns3:atemp>
          </ns3:TrackPointExtension>
        </extensions>
      </trkpt>
      <trkpt lat="43.09350050054490566253662109375" lon="12.98943710513412952423095703125">
        <ele>1393.800048828125</ele>
        <time>2021-06-06T08:58:48.000Z</time>
        <extensions>
          <ns3:TrackPointExtension>
            <ns3:atemp>17.0</ns3:atemp>
          </ns3:TrackPointExtension>
        </extensions>
      </trkpt>
      <trkpt lat="43.09352933429181575775146484375" lon="12.9893845506012439727783203125">
        <ele>1395</ele>
        <time>2021-06-06T08:58:50.000Z</time>
        <extensions>
          <ns3:TrackPointExtension>
            <ns3:atemp>17.0</ns3:atemp>
          </ns3:TrackPointExtension>
        </extensions>
      </trkpt>
      <trkpt lat="43.0935394763946533203125" lon="12.9893637634813785552978515625">
        <ele>1395.5999755859375</ele>
        <time>2021-06-06T08:58:51.000Z</time>
        <extensions>
          <ns3:TrackPointExtension>
            <ns3:atemp>17.0</ns3:atemp>
          </ns3:TrackPointExtension>
        </extensions>
      </trkpt>
      <trkpt lat="43.093547187745571136474609375" lon="12.98934741877019405364990234375">
        <ele>1396</ele>
        <time>2021-06-06T08:58:52.000Z</time>
        <extensions>
          <ns3:TrackPointExtension>
            <ns3:atemp>17.0</ns3:atemp>
          </ns3:TrackPointExtension>
        </extensions>
      </trkpt>
      <trkpt lat="43.09358775615692138671875" lon="12.989266701042652130126953125">
        <ele>1397.199951171875</ele>
        <time>2021-06-06T08:58:56.000Z</time>
        <extensions>
          <ns3:TrackPointExtension>
            <ns3:atemp>17.0</ns3:atemp>
          </ns3:TrackPointExtension>
        </extensions>
      </trkpt>
      <trkpt lat="43.09359353967010974884033203125" lon="12.9892407171428203582763671875">
        <ele>1397.199951171875</ele>
        <time>2021-06-06T08:58:57.000Z</time>
        <extensions>
          <ns3:TrackPointExtension>
            <ns3:atemp>17.0</ns3:atemp>
          </ns3:TrackPointExtension>
        </extensions>
      </trkpt>
      <trkpt lat="43.09359186328947544097900390625" lon="12.98921515233814716339111328125">
        <ele>1397.4000244140625</ele>
        <time>2021-06-06T08:58:58.000Z</time>
        <extensions>
          <ns3:TrackPointExtension>
            <ns3:atemp>17.0</ns3:atemp>
          </ns3:TrackPointExtension>
        </extensions>
      </trkpt>
      <trkpt lat="43.0935622751712799072265625" lon="12.98919118009507656097412109375">
        <ele>1397.800048828125</ele>
        <time>2021-06-06T08:59:00.000Z</time>
        <extensions>
          <ns3:TrackPointExtension>
            <ns3:atemp>17.0</ns3:atemp>
          </ns3:TrackPointExtension>
        </extensions>
      </trkpt>
      <trkpt lat="43.09349161572754383087158203125" lon="12.98921364359557628631591796875">
        <ele>1398.199951171875</ele>
        <time>2021-06-06T08:59:03.000Z</time>
        <extensions>
          <ns3:TrackPointExtension>
            <ns3:atemp>17.0</ns3:atemp>
          </ns3:TrackPointExtension>
        </extensions>
      </trkpt>
      <trkpt lat="43.0934437550604343414306640625" lon="12.98922487534582614898681640625">
        <ele>1399</ele>
        <time>2021-06-06T08:59:05.000Z</time>
        <extensions>
          <ns3:TrackPointExtension>
            <ns3:atemp>17.0</ns3:atemp>
          </ns3:TrackPointExtension>
        </extensions>
      </trkpt>
      <trkpt lat="43.09342070482671260833740234375" lon="12.98923023976385593414306640625">
        <ele>1399.4000244140625</ele>
        <time>2021-06-06T08:59:06.000Z</time>
        <extensions>
          <ns3:TrackPointExtension>
            <ns3:atemp>17.0</ns3:atemp>
          </ns3:TrackPointExtension>
        </extensions>
      </trkpt>
      <trkpt lat="43.0933986604213714599609375" lon="12.989234514534473419189453125">
        <ele>1400</ele>
        <time>2021-06-06T08:59:07.000Z</time>
        <extensions>
          <ns3:TrackPointExtension>
            <ns3:atemp>17.0</ns3:atemp>
          </ns3:TrackPointExtension>
        </extensions>
      </trkpt>
      <trkpt lat="43.09337628073990345001220703125" lon="12.98923795111477375030517578125">
        <ele>1400.800048828125</ele>
        <time>2021-06-06T08:59:08.000Z</time>
        <extensions>
          <ns3:TrackPointExtension>
            <ns3:atemp>17.0</ns3:atemp>
          </ns3:TrackPointExtension>
        </extensions>
      </trkpt>
      <trkpt lat="43.0933331139385700225830078125" lon="12.989240549504756927490234375">
        <ele>1402</ele>
        <time>2021-06-06T08:59:10.000Z</time>
        <extensions>
          <ns3:TrackPointExtension>
            <ns3:atemp>17.0</ns3:atemp>
          </ns3:TrackPointExtension>
        </extensions>
      </trkpt>
      <trkpt lat="43.09331224299967288970947265625" lon="12.98924230970442295074462890625">
        <ele>1402.4000244140625</ele>
        <time>2021-06-06T08:59:11.000Z</time>
        <extensions>
          <ns3:TrackPointExtension>
            <ns3:atemp>17.0</ns3:atemp>
          </ns3:TrackPointExtension>
        </extensions>
      </trkpt>
      <trkpt lat="43.0932268314063549041748046875" lon="12.98926125280559062957763671875">
        <ele>1403</ele>
        <time>2021-06-06T08:59:15.000Z</time>
        <extensions>
          <ns3:TrackPointExtension>
            <ns3:atemp>17.0</ns3:atemp>
          </ns3:TrackPointExtension>
        </extensions>
      </trkpt>
      <trkpt lat="43.09317134320735931396484375" lon="12.98924834467470645904541015625">
        <ele>1404</ele>
        <time>2021-06-06T08:59:18.000Z</time>
        <extensions>
          <ns3:TrackPointExtension>
            <ns3:atemp>17.0</ns3:atemp>
          </ns3:TrackPointExtension>
        </extensions>
      </trkpt>
      <trkpt lat="43.0931599438190460205078125" lon="12.9892314970493316650390625">
        <ele>1404.4000244140625</ele>
        <time>2021-06-06T08:59:19.000Z</time>
        <extensions>
          <ns3:TrackPointExtension>
            <ns3:atemp>17.0</ns3:atemp>
          </ns3:TrackPointExtension>
        </extensions>
      </trkpt>
      <trkpt lat="43.09316857717931270599365234375" lon="12.989182882010936737060546875">
        <ele>1405.4000244140625</ele>
        <time>2021-06-06T08:59:21.000Z</time>
        <extensions>
          <ns3:TrackPointExtension>
            <ns3:atemp>17.0</ns3:atemp>
          </ns3:TrackPointExtension>
        </extensions>
      </trkpt>
      <trkpt lat="43.09318349696695804595947265625" lon="12.98916100524365901947021484375">
        <ele>1405.5999755859375</ele>
        <time>2021-06-06T08:59:22.000Z</time>
        <extensions>
          <ns3:TrackPointExtension>
            <ns3:atemp>17.0</ns3:atemp>
          </ns3:TrackPointExtension>
        </extensions>
      </trkpt>
      <trkpt lat="43.0932157672941684722900390625" lon="12.9891129769384860992431640625">
        <ele>1406.199951171875</ele>
        <time>2021-06-06T08:59:24.000Z</time>
        <extensions>
          <ns3:TrackPointExtension>
            <ns3:atemp>17.0</ns3:atemp>
          </ns3:TrackPointExtension>
        </extensions>
      </trkpt>
      <trkpt lat="43.093231357634067535400390625" lon="12.98908791504800319671630859375">
        <ele>1406.5999755859375</ele>
        <time>2021-06-06T08:59:25.000Z</time>
        <extensions>
          <ns3:TrackPointExtension>
            <ns3:atemp>17.0</ns3:atemp>
          </ns3:TrackPointExtension>
        </extensions>
      </trkpt>
      <trkpt lat="43.09326513670384883880615234375" lon="12.98902454786002635955810546875">
        <ele>1407.4000244140625</ele>
        <time>2021-06-06T08:59:27.000Z</time>
        <extensions>
          <ns3:TrackPointExtension>
            <ns3:atemp>17.0</ns3:atemp>
          </ns3:TrackPointExtension>
        </extensions>
      </trkpt>
      <trkpt lat="43.09328131377696990966796875" lon="12.9889963008463382720947265625">
        <ele>1407.800048828125</ele>
        <time>2021-06-06T08:59:28.000Z</time>
        <extensions>
          <ns3:TrackPointExtension>
            <ns3:atemp>17.0</ns3:atemp>
          </ns3:TrackPointExtension>
        </extensions>
      </trkpt>
      <trkpt lat="43.0932985804975032806396484375" lon="12.98894961364567279815673828125">
        <ele>1409</ele>
        <time>2021-06-06T08:59:30.000Z</time>
        <extensions>
          <ns3:TrackPointExtension>
            <ns3:atemp>17.0</ns3:atemp>
          </ns3:TrackPointExtension>
        </extensions>
      </trkpt>
      <trkpt lat="43.0932975746691226959228515625" lon="12.98893486149609088897705078125">
        <ele>1409.4000244140625</ele>
        <time>2021-06-06T08:59:31.000Z</time>
        <extensions>
          <ns3:TrackPointExtension>
            <ns3:atemp>17.0</ns3:atemp>
          </ns3:TrackPointExtension>
        </extensions>
      </trkpt>
      <trkpt lat="43.09329665265977382659912109375" lon="12.98893234692513942718505859375">
        <ele>1409.800048828125</ele>
        <time>2021-06-06T08:59:33.000Z</time>
        <extensions>
          <ns3:TrackPointExtension>
            <ns3:atemp>17.0</ns3:atemp>
          </ns3:TrackPointExtension>
        </extensions>
      </trkpt>
      <trkpt lat="43.09329698793590068817138671875" lon="12.98893284983932971954345703125">
        <ele>1410</ele>
        <time>2021-06-06T08:59:35.000Z</time>
        <extensions>
          <ns3:TrackPointExtension>
            <ns3:atemp>17.0</ns3:atemp>
          </ns3:TrackPointExtension>
        </extensions>
      </trkpt>
      <trkpt lat="43.0932967364788055419921875" lon="12.9889325983822345733642578125">
        <ele>1410.199951171875</ele>
        <time>2021-06-06T08:59:38.000Z</time>
        <extensions>
          <ns3:TrackPointExtension>
            <ns3:atemp>17.0</ns3:atemp>
          </ns3:TrackPointExtension>
        </extensions>
      </trkpt>
      <trkpt lat="43.09329698793590068817138671875" lon="12.988932430744171142578125">
        <ele>1409.800048828125</ele>
        <time>2021-06-06T09:00:02.000Z</time>
        <extensions>
          <ns3:TrackPointExtension>
            <ns3:atemp>17.0</ns3:atemp>
          </ns3:TrackPointExtension>
        </extensions>
      </trkpt>
      <trkpt lat="43.09329648502171039581298828125" lon="12.98893234692513942718505859375">
        <ele>1409.800048828125</ele>
        <time>2021-06-06T09:01:01.000Z</time>
        <extensions>
          <ns3:TrackPointExtension>
            <ns3:atemp>16.0</ns3:atemp>
          </ns3:TrackPointExtension>
        </extensions>
      </trkpt>
      <trkpt lat="43.09329614974558353424072265625" lon="12.9889325983822345733642578125">
        <ele>1410.199951171875</ele>
        <time>2021-06-06T09:01:49.000Z</time>
        <extensions>
          <ns3:TrackPointExtension>
            <ns3:atemp>16.0</ns3:atemp>
          </ns3:TrackPointExtension>
        </extensions>
      </trkpt>
      <trkpt lat="43.09328131377696990966796875" lon="12.988926731050014495849609375">
        <ele>1410</ele>
        <time>2021-06-06T09:02:47.000Z</time>
        <extensions>
          <ns3:TrackPointExtension>
            <ns3:atemp>15.0</ns3:atemp>
          </ns3:TrackPointExtension>
        </extensions>
      </trkpt>
      <trkpt lat="43.0932767875492572784423828125" lon="12.98892061226069927215576171875">
        <ele>1410.5999755859375</ele>
        <time>2021-06-06T09:02:55.000Z</time>
        <extensions>
          <ns3:TrackPointExtension>
            <ns3:atemp>15.0</ns3:atemp>
          </ns3:TrackPointExtension>
        </extensions>
      </trkpt>
      <trkpt lat="43.0932767875492572784423828125" lon="12.988920696079730987548828125">
        <ele>1411</ele>
        <time>2021-06-06T09:02:56.000Z</time>
        <extensions>
          <ns3:TrackPointExtension>
            <ns3:atemp>15.0</ns3:atemp>
          </ns3:TrackPointExtension>
        </extensions>
      </trkpt>
      <trkpt lat="43.0932761169970035552978515625" lon="12.98894810490310192108154296875">
        <ele>1412</ele>
        <time>2021-06-06T09:03:09.000Z</time>
        <extensions>
          <ns3:TrackPointExtension>
            <ns3:atemp>15.0</ns3:atemp>
          </ns3:TrackPointExtension>
        </extensions>
      </trkpt>
      <trkpt lat="43.09327787719666957855224609375" lon="12.98894961364567279815673828125">
        <ele>1411.4000244140625</ele>
        <time>2021-06-06T09:03:21.000Z</time>
        <extensions>
          <ns3:TrackPointExtension>
            <ns3:atemp>15.0</ns3:atemp>
          </ns3:TrackPointExtension>
        </extensions>
      </trkpt>
      <trkpt lat="43.09327821247279644012451171875" lon="12.98894827254116535186767578125">
        <ele>1410.199951171875</ele>
        <time>2021-06-06T09:05:00.000Z</time>
        <extensions>
          <ns3:TrackPointExtension>
            <ns3:atemp>16.0</ns3:atemp>
          </ns3:TrackPointExtension>
        </extensions>
      </trkpt>
      <trkpt lat="43.093278296291828155517578125" lon="12.98894810490310192108154296875">
        <ele>1410.800048828125</ele>
        <time>2021-06-06T09:06:13.000Z</time>
        <extensions>
          <ns3:TrackPointExtension>
            <ns3:atemp>16.0</ns3:atemp>
          </ns3:TrackPointExtension>
        </extensions>
      </trkpt>
      <trkpt lat="43.0932697467505931854248046875" lon="12.98894793726503849029541015625">
        <ele>1410.800048828125</ele>
        <time>2021-06-06T09:06:50.000Z</time>
        <extensions>
          <ns3:TrackPointExtension>
            <ns3:atemp>16.0</ns3:atemp>
          </ns3:TrackPointExtension>
        </extensions>
      </trkpt>
      <trkpt lat="43.0932606942951679229736328125" lon="12.9889564029872417449951171875">
        <ele>1411.199951171875</ele>
        <time>2021-06-06T09:06:57.000Z</time>
        <extensions>
          <ns3:TrackPointExtension>
            <ns3:atemp>16.0</ns3:atemp>
          </ns3:TrackPointExtension>
        </extensions>
      </trkpt>
      <trkpt lat="43.09324066154658794403076171875" lon="12.98897962085902690887451171875">
        <ele>1411.5999755859375</ele>
        <time>2021-06-06T09:06:59.000Z</time>
        <extensions>
          <ns3:TrackPointExtension>
            <ns3:atemp>16.0</ns3:atemp>
          </ns3:TrackPointExtension>
        </extensions>
      </trkpt>
      <trkpt lat="43.0932365544140338897705078125" lon="12.9889845661818981170654296875">
        <ele>1412</ele>
        <time>2021-06-06T09:07:04.000Z</time>
        <extensions>
          <ns3:TrackPointExtension>
            <ns3:atemp>16.0</ns3:atemp>
          </ns3:TrackPointExtension>
        </extensions>
      </trkpt>
      <trkpt lat="43.0931969918310642242431640625" lon="12.98902991227805614471435546875">
        <ele>1412</ele>
        <time>2021-06-06T09:07:07.000Z</time>
        <extensions>
          <ns3:TrackPointExtension>
            <ns3:atemp>16.0</ns3:atemp>
          </ns3:TrackPointExtension>
        </extensions>
      </trkpt>
      <trkpt lat="43.093061037361621856689453125" lon="12.98906478099524974822998046875">
        <ele>1411.800048828125</ele>
        <time>2021-06-06T09:07:12.000Z</time>
        <extensions>
          <ns3:TrackPointExtension>
            <ns3:atemp>16.0</ns3:atemp>
          </ns3:TrackPointExtension>
        </extensions>
      </trkpt>
      <trkpt lat="43.0929572694003582000732421875" lon="12.989089675247669219970703125">
        <ele>1411.800048828125</ele>
        <time>2021-06-06T09:07:16.000Z</time>
        <extensions>
          <ns3:TrackPointExtension>
            <ns3:atemp>16.0</ns3:atemp>
          </ns3:TrackPointExtension>
        </extensions>
      </trkpt>
      <trkpt lat="43.09282793663442134857177734375" lon="12.9891193471848964691162109375">
        <ele>1412.199951171875</ele>
        <time>2021-06-06T09:07:22.000Z</time>
        <extensions>
          <ns3:TrackPointExtension>
            <ns3:atemp>16.0</ns3:atemp>
          </ns3:TrackPointExtension>
        </extensions>
      </trkpt>
      <trkpt lat="43.092683516442775726318359375" lon="12.98914323560893535614013671875">
        <ele>1412.4000244140625</ele>
        <time>2021-06-06T09:07:29.000Z</time>
        <extensions>
          <ns3:TrackPointExtension>
            <ns3:atemp>16.0</ns3:atemp>
          </ns3:TrackPointExtension>
        </extensions>
      </trkpt>
      <trkpt lat="43.09260665439069271087646484375" lon="12.98919118009507656097412109375">
        <ele>1412.4000244140625</ele>
        <time>2021-06-06T09:07:34.000Z</time>
        <extensions>
          <ns3:TrackPointExtension>
            <ns3:atemp>16.0</ns3:atemp>
          </ns3:TrackPointExtension>
        </extensions>
      </trkpt>
      <trkpt lat="43.09247002936899662017822265625" lon="12.9892333410680294036865234375">
        <ele>1412.4000244140625</ele>
        <time>2021-06-06T09:07:39.000Z</time>
        <extensions>
          <ns3:TrackPointExtension>
            <ns3:atemp>16.0</ns3:atemp>
          </ns3:TrackPointExtension>
        </extensions>
      </trkpt>
      <trkpt lat="43.09230742044746875762939453125" lon="12.98920459114015102386474609375">
        <ele>1410.800048828125</ele>
        <time>2021-06-06T09:07:45.000Z</time>
        <extensions>
          <ns3:TrackPointExtension>
            <ns3:atemp>16.0</ns3:atemp>
          </ns3:TrackPointExtension>
        </extensions>
      </trkpt>
      <trkpt lat="43.09228621423244476318359375" lon="12.989190258085727691650390625">
        <ele>1410.4000244140625</ele>
        <time>2021-06-06T09:07:46.000Z</time>
        <extensions>
          <ns3:TrackPointExtension>
            <ns3:atemp>16.0</ns3:atemp>
          </ns3:TrackPointExtension>
        </extensions>
      </trkpt>
      <trkpt lat="43.092243634164333343505859375" lon="12.98916251398622989654541015625">
        <ele>1409.4000244140625</ele>
        <time>2021-06-06T09:07:48.000Z</time>
        <extensions>
          <ns3:TrackPointExtension>
            <ns3:atemp>16.0</ns3:atemp>
          </ns3:TrackPointExtension>
        </extensions>
      </trkpt>
      <trkpt lat="43.09218789450824260711669921875" lon="12.98913485370576381683349609375">
        <ele>1407.800048828125</ele>
        <time>2021-06-06T09:07:50.000Z</time>
        <extensions>
          <ns3:TrackPointExtension>
            <ns3:atemp>16.0</ns3:atemp>
          </ns3:TrackPointExtension>
        </extensions>
      </trkpt>
      <trkpt lat="43.092116229236125946044921875" lon="12.98910417594015598297119140625">
        <ele>1406.5999755859375</ele>
        <time>2021-06-06T09:07:52.000Z</time>
        <extensions>
          <ns3:TrackPointExtension>
            <ns3:atemp>16.0</ns3:atemp>
          </ns3:TrackPointExtension>
        </extensions>
      </trkpt>
      <trkpt lat="43.0920744873583316802978515625" lon="12.989091686904430389404296875">
        <ele>1406</ele>
        <time>2021-06-06T09:07:53.000Z</time>
        <extensions>
          <ns3:TrackPointExtension>
            <ns3:atemp>16.0</ns3:atemp>
          </ns3:TrackPointExtension>
        </extensions>
      </trkpt>
      <trkpt lat="43.09202738106250762939453125" lon="12.98908338882029056549072265625">
        <ele>1405.199951171875</ele>
        <time>2021-06-06T09:07:54.000Z</time>
        <extensions>
          <ns3:TrackPointExtension>
            <ns3:atemp>16.0</ns3:atemp>
          </ns3:TrackPointExtension>
        </extensions>
      </trkpt>
      <trkpt lat="43.09188329614698886871337890625" lon="12.989050783216953277587890625">
        <ele>1404.199951171875</ele>
        <time>2021-06-06T09:07:57.000Z</time>
        <extensions>
          <ns3:TrackPointExtension>
            <ns3:atemp>16.0</ns3:atemp>
          </ns3:TrackPointExtension>
        </extensions>
      </trkpt>
      <trkpt lat="43.091838620603084564208984375" lon="12.989042736589908599853515625">
        <ele>1403.5999755859375</ele>
        <time>2021-06-06T09:07:58.000Z</time>
        <extensions>
          <ns3:TrackPointExtension>
            <ns3:atemp>16.0</ns3:atemp>
          </ns3:TrackPointExtension>
        </extensions>
      </trkpt>
      <trkpt lat="43.091760165989398956298828125" lon="12.98903192393481731414794921875">
        <ele>1401.800048828125</ele>
        <time>2021-06-06T09:08:00.000Z</time>
        <extensions>
          <ns3:TrackPointExtension>
            <ns3:atemp>16.0</ns3:atemp>
          </ns3:TrackPointExtension>
        </extensions>
      </trkpt>
      <trkpt lat="43.09172705747187137603759765625" lon="12.98902471549808979034423828125">
        <ele>1400.5999755859375</ele>
        <time>2021-06-06T09:08:01.000Z</time>
        <extensions>
          <ns3:TrackPointExtension>
            <ns3:atemp>16.0</ns3:atemp>
          </ns3:TrackPointExtension>
        </extensions>
      </trkpt>
      <trkpt lat="43.091697134077548980712890625" lon="12.989021278917789459228515625">
        <ele>1399.4000244140625</ele>
        <time>2021-06-06T09:08:02.000Z</time>
        <extensions>
          <ns3:TrackPointExtension>
            <ns3:atemp>16.0</ns3:atemp>
          </ns3:TrackPointExtension>
        </extensions>
      </trkpt>
      <trkpt lat="43.091666959226131439208984375" lon="12.9890201054513454437255859375">
        <ele>1398.199951171875</ele>
        <time>2021-06-06T09:08:03.000Z</time>
        <extensions>
          <ns3:TrackPointExtension>
            <ns3:atemp>16.0</ns3:atemp>
          </ns3:TrackPointExtension>
        </extensions>
      </trkpt>
      <trkpt lat="43.0916349403560161590576171875" lon="12.9890190996229648590087890625">
        <ele>1396.800048828125</ele>
        <time>2021-06-06T09:08:04.000Z</time>
        <extensions>
          <ns3:TrackPointExtension>
            <ns3:atemp>16.0</ns3:atemp>
          </ns3:TrackPointExtension>
        </extensions>
      </trkpt>
      <trkpt lat="43.09159847907721996307373046875" lon="12.98901800997555255889892578125">
        <ele>1395.5999755859375</ele>
        <time>2021-06-06T09:08:05.000Z</time>
        <extensions>
          <ns3:TrackPointExtension>
            <ns3:atemp>16.0</ns3:atemp>
          </ns3:TrackPointExtension>
        </extensions>
      </trkpt>
      <trkpt lat="43.0915578268468379974365234375" lon="12.98901767469942569732666015625">
        <ele>1393.4000244140625</ele>
        <time>2021-06-06T09:08:06.000Z</time>
        <extensions>
          <ns3:TrackPointExtension>
            <ns3:atemp>16.0</ns3:atemp>
          </ns3:TrackPointExtension>
        </extensions>
      </trkpt>
      <trkpt lat="43.0915139056742191314697265625" lon="12.98902287147939205169677734375">
        <ele>1392.800048828125</ele>
        <time>2021-06-06T09:08:07.000Z</time>
        <extensions>
          <ns3:TrackPointExtension>
            <ns3:atemp>16.0</ns3:atemp>
          </ns3:TrackPointExtension>
        </extensions>
      </trkpt>
      <trkpt lat="43.09146487154066562652587890625" lon="12.9890308342874050140380859375">
        <ele>1392.199951171875</ele>
        <time>2021-06-06T09:08:08.000Z</time>
        <extensions>
          <ns3:TrackPointExtension>
            <ns3:atemp>16.0</ns3:atemp>
          </ns3:TrackPointExtension>
        </extensions>
      </trkpt>
      <trkpt lat="43.091353140771389007568359375" lon="12.98904617317020893096923828125">
        <ele>1391</ele>
        <time>2021-06-06T09:08:10.000Z</time>
        <extensions>
          <ns3:TrackPointExtension>
            <ns3:atemp>15.0</ns3:atemp>
          </ns3:TrackPointExtension>
        </extensions>
      </trkpt>
      <trkpt lat="43.0912906117737293243408203125" lon="12.98904575407505035400390625">
        <ele>1390.5999755859375</ele>
        <time>2021-06-06T09:08:11.000Z</time>
        <extensions>
          <ns3:TrackPointExtension>
            <ns3:atemp>15.0</ns3:atemp>
          </ns3:TrackPointExtension>
        </extensions>
      </trkpt>
      <trkpt lat="43.0911632068455219268798828125" lon="12.98904131166636943817138671875">
        <ele>1389</ele>
        <time>2021-06-06T09:08:13.000Z</time>
        <extensions>
          <ns3:TrackPointExtension>
            <ns3:atemp>15.0</ns3:atemp>
          </ns3:TrackPointExtension>
        </extensions>
      </trkpt>
      <trkpt lat="43.09110092930495738983154296875" lon="12.9890563152730464935302734375">
        <ele>1387.5999755859375</ele>
        <time>2021-06-06T09:08:14.000Z</time>
        <extensions>
          <ns3:TrackPointExtension>
            <ns3:atemp>15.0</ns3:atemp>
          </ns3:TrackPointExtension>
        </extensions>
      </trkpt>
      <trkpt lat="43.0910408310592174530029296875" lon="12.98907525837421417236328125">
        <ele>1385.800048828125</ele>
        <time>2021-06-06T09:08:15.000Z</time>
        <extensions>
          <ns3:TrackPointExtension>
            <ns3:atemp>15.0</ns3:atemp>
          </ns3:TrackPointExtension>
        </extensions>
      </trkpt>
      <trkpt lat="43.09098240919411182403564453125" lon="12.9890885017812252044677734375">
        <ele>1384.199951171875</ele>
        <time>2021-06-06T09:08:16.000Z</time>
        <extensions>
          <ns3:TrackPointExtension>
            <ns3:atemp>15.0</ns3:atemp>
          </ns3:TrackPointExtension>
        </extensions>
      </trkpt>
      <trkpt lat="43.0909256637096405029296875" lon="12.98910518176853656768798828125">
        <ele>1382.199951171875</ele>
        <time>2021-06-06T09:08:17.000Z</time>
        <extensions>
          <ns3:TrackPointExtension>
            <ns3:atemp>15.0</ns3:atemp>
          </ns3:TrackPointExtension>
        </extensions>
      </trkpt>
      <trkpt lat="43.09086673893034458160400390625" lon="12.98912546597421169281005859375">
        <ele>1380.4000244140625</ele>
        <time>2021-06-06T09:08:18.000Z</time>
        <extensions>
          <ns3:TrackPointExtension>
            <ns3:atemp>15.0</ns3:atemp>
          </ns3:TrackPointExtension>
        </extensions>
      </trkpt>
      <trkpt lat="43.09080219827592372894287109375" lon="12.98913904465734958648681640625">
        <ele>1378.4000244140625</ele>
        <time>2021-06-06T09:08:19.000Z</time>
        <extensions>
          <ns3:TrackPointExtension>
            <ns3:atemp>15.0</ns3:atemp>
          </ns3:TrackPointExtension>
        </extensions>
      </trkpt>
      <trkpt lat="43.09073547832667827606201171875" lon="12.98914658837020397186279296875">
        <ele>1376</ele>
        <time>2021-06-06T09:08:20.000Z</time>
        <extensions>
          <ns3:TrackPointExtension>
            <ns3:atemp>15.0</ns3:atemp>
          </ns3:TrackPointExtension>
        </extensions>
      </trkpt>
      <trkpt lat="43.09066875837743282318115234375" lon="12.98914759419858455657958984375">
        <ele>1373.199951171875</ele>
        <time>2021-06-06T09:08:21.000Z</time>
        <extensions>
          <ns3:TrackPointExtension>
            <ns3:atemp>15.0</ns3:atemp>
          </ns3:TrackPointExtension>
        </extensions>
      </trkpt>
      <trkpt lat="43.090602457523345947265625" lon="12.98913971520960330963134765625">
        <ele>1371.5999755859375</ele>
        <time>2021-06-06T09:08:22.000Z</time>
        <extensions>
          <ns3:TrackPointExtension>
            <ns3:atemp>15.0</ns3:atemp>
          </ns3:TrackPointExtension>
        </extensions>
      </trkpt>
      <trkpt lat="43.09047966264188289642333984375" lon="12.98911607824265956878662109375">
        <ele>1369.4000244140625</ele>
        <time>2021-06-06T09:08:24.000Z</time>
        <extensions>
          <ns3:TrackPointExtension>
            <ns3:atemp>15.0</ns3:atemp>
          </ns3:TrackPointExtension>
        </extensions>
      </trkpt>
      <trkpt lat="43.0904289521276950836181640625" lon="12.98910099081695079803466796875">
        <ele>1368.199951171875</ele>
        <time>2021-06-06T09:08:25.000Z</time>
        <extensions>
          <ns3:TrackPointExtension>
            <ns3:atemp>15.0</ns3:atemp>
          </ns3:TrackPointExtension>
        </extensions>
      </trkpt>
      <trkpt lat="43.0903883837163448333740234375" lon="12.9890824668109416961669921875">
        <ele>1367.4000244140625</ele>
        <time>2021-06-06T09:08:26.000Z</time>
        <extensions>
          <ns3:TrackPointExtension>
            <ns3:atemp>15.0</ns3:atemp>
          </ns3:TrackPointExtension>
        </extensions>
      </trkpt>
      <trkpt lat="43.09035879559814929962158203125" lon="12.98906184732913970947265625">
        <ele>1365.800048828125</ele>
        <time>2021-06-06T09:08:27.000Z</time>
        <extensions>
          <ns3:TrackPointExtension>
            <ns3:atemp>15.0</ns3:atemp>
          </ns3:TrackPointExtension>
        </extensions>
      </trkpt>
      <trkpt lat="43.09033432044088840484619140625" lon="12.98904064111411571502685546875">
        <ele>1364.4000244140625</ele>
        <time>2021-06-06T09:08:28.000Z</time>
        <extensions>
          <ns3:TrackPointExtension>
            <ns3:atemp>15.0</ns3:atemp>
          </ns3:TrackPointExtension>
        </extensions>
      </trkpt>
      <trkpt lat="43.09031152166426181793212890625" lon="12.98902287147939205169677734375">
        <ele>1363.199951171875</ele>
        <time>2021-06-06T09:08:29.000Z</time>
        <extensions>
          <ns3:TrackPointExtension>
            <ns3:atemp>15.0</ns3:atemp>
          </ns3:TrackPointExtension>
        </extensions>
      </trkpt>
      <trkpt lat="43.09029065072536468505859375" lon="12.9890073649585247039794921875">
        <ele>1362.199951171875</ele>
        <time>2021-06-06T09:08:30.000Z</time>
        <extensions>
          <ns3:TrackPointExtension>
            <ns3:atemp>15.0</ns3:atemp>
          </ns3:TrackPointExtension>
        </extensions>
      </trkpt>
      <trkpt lat="43.0902696959674358367919921875" lon="12.98899252898991107940673828125">
        <ele>1361.199951171875</ele>
        <time>2021-06-06T09:08:31.000Z</time>
        <extensions>
          <ns3:TrackPointExtension>
            <ns3:atemp>15.0</ns3:atemp>
          </ns3:TrackPointExtension>
        </extensions>
      </trkpt>
      <trkpt lat="43.09020708315074443817138671875" lon="12.9889439977705478668212890625">
        <ele>1360.199951171875</ele>
        <time>2021-06-06T09:08:34.000Z</time>
        <extensions>
          <ns3:TrackPointExtension>
            <ns3:atemp>15.0</ns3:atemp>
          </ns3:TrackPointExtension>
        </extensions>
      </trkpt>
      <trkpt lat="43.090158887207508087158203125" lon="12.98888976685702800750732421875">
        <ele>1359.800048828125</ele>
        <time>2021-06-06T09:08:36.000Z</time>
        <extensions>
          <ns3:TrackPointExtension>
            <ns3:atemp>15.0</ns3:atemp>
          </ns3:TrackPointExtension>
        </extensions>
      </trkpt>
      <trkpt lat="43.0900309793651103973388671875" lon="12.988701760768890380859375">
        <ele>1359</ele>
        <time>2021-06-06T09:08:41.000Z</time>
        <extensions>
          <ns3:TrackPointExtension>
            <ns3:atemp>15.0</ns3:atemp>
          </ns3:TrackPointExtension>
        </extensions>
      </trkpt>
      <trkpt lat="43.09000901877880096435546875" lon="12.98866479657590389251708984375">
        <ele>1358.5999755859375</ele>
        <time>2021-06-06T09:08:42.000Z</time>
        <extensions>
          <ns3:TrackPointExtension>
            <ns3:atemp>15.0</ns3:atemp>
          </ns3:TrackPointExtension>
        </extensions>
      </trkpt>
      <trkpt lat="43.08993794023990631103515625" lon="12.988560609519481658935546875">
        <ele>1357.199951171875</ele>
        <time>2021-06-06T09:08:45.000Z</time>
        <extensions>
          <ns3:TrackPointExtension>
            <ns3:atemp>15.0</ns3:atemp>
          </ns3:TrackPointExtension>
        </extensions>
      </trkpt>
      <trkpt lat="43.089883625507354736328125" lon="12.9884960688650608062744140625">
        <ele>1355</ele>
        <time>2021-06-06T09:08:47.000Z</time>
        <extensions>
          <ns3:TrackPointExtension>
            <ns3:atemp>15.0</ns3:atemp>
          </ns3:TrackPointExtension>
        </extensions>
      </trkpt>
      <trkpt lat="43.08985839597880840301513671875" lon="12.98846631310880184173583984375">
        <ele>1354.199951171875</ele>
        <time>2021-06-06T09:08:48.000Z</time>
        <extensions>
          <ns3:TrackPointExtension>
            <ns3:atemp>15.0</ns3:atemp>
          </ns3:TrackPointExtension>
        </extensions>
      </trkpt>
      <trkpt lat="43.08983710594475269317626953125" lon="12.988437898457050323486328125">
        <ele>1353</ele>
        <time>2021-06-06T09:08:49.000Z</time>
        <extensions>
          <ns3:TrackPointExtension>
            <ns3:atemp>15.0</ns3:atemp>
          </ns3:TrackPointExtension>
        </extensions>
      </trkpt>
      <trkpt lat="43.08981782756745815277099609375" lon="12.98841250129044055938720703125">
        <ele>1352</ele>
        <time>2021-06-06T09:08:50.000Z</time>
        <extensions>
          <ns3:TrackPointExtension>
            <ns3:atemp>15.0</ns3:atemp>
          </ns3:TrackPointExtension>
        </extensions>
      </trkpt>
      <trkpt lat="43.089799471199512481689453125" lon="12.9883919656276702880859375">
        <ele>1351.199951171875</ele>
        <time>2021-06-06T09:08:51.000Z</time>
        <extensions>
          <ns3:TrackPointExtension>
            <ns3:atemp>15.0</ns3:atemp>
          </ns3:TrackPointExtension>
        </extensions>
      </trkpt>
      <trkpt lat="43.0897661112248897552490234375" lon="12.98837830312550067901611328125">
        <ele>1349.800048828125</ele>
        <time>2021-06-06T09:08:53.000Z</time>
        <extensions>
          <ns3:TrackPointExtension>
            <ns3:atemp>15.0</ns3:atemp>
          </ns3:TrackPointExtension>
        </extensions>
      </trkpt>
      <trkpt lat="43.0897567234933376312255859375" lon="12.9883810691535472869873046875">
        <ele>1348.800048828125</ele>
        <time>2021-06-06T09:08:54.000Z</time>
        <extensions>
          <ns3:TrackPointExtension>
            <ns3:atemp>15.0</ns3:atemp>
          </ns3:TrackPointExtension>
        </extensions>
      </trkpt>
      <trkpt lat="43.08975647203624248504638671875" lon="12.9883803986012935638427734375">
        <ele>1347.199951171875</ele>
        <time>2021-06-06T09:08:56.000Z</time>
        <extensions>
          <ns3:TrackPointExtension>
            <ns3:atemp>15.0</ns3:atemp>
          </ns3:TrackPointExtension>
        </extensions>
      </trkpt>
      <trkpt lat="43.08975630439817905426025390625" lon="12.98838031478226184844970703125">
        <ele>1345.800048828125</ele>
        <time>2021-06-06T09:08:58.000Z</time>
        <extensions>
          <ns3:TrackPointExtension>
            <ns3:atemp>15.0</ns3:atemp>
          </ns3:TrackPointExtension>
        </extensions>
      </trkpt>
      <trkpt lat="43.0897560529410839080810546875" lon="12.98838014714419841766357421875">
        <ele>1344.800048828125</ele>
        <time>2021-06-06T09:09:01.000Z</time>
        <extensions>
          <ns3:TrackPointExtension>
            <ns3:atemp>15.0</ns3:atemp>
          </ns3:TrackPointExtension>
        </extensions>
      </trkpt>
      <trkpt lat="43.08971020393073558807373046875" lon="12.98837796784937381744384765625">
        <ele>1344.4000244140625</ele>
        <time>2021-06-06T09:09:27.000Z</time>
        <extensions>
          <ns3:TrackPointExtension>
            <ns3:atemp>15.0</ns3:atemp>
          </ns3:TrackPointExtension>
        </extensions>
      </trkpt>
      <trkpt lat="43.0895483493804931640625" lon="12.988422811031341552734375">
        <ele>1344.199951171875</ele>
        <time>2021-06-06T09:09:33.000Z</time>
        <extensions>
          <ns3:TrackPointExtension>
            <ns3:atemp>15.0</ns3:atemp>
          </ns3:TrackPointExtension>
        </extensions>
      </trkpt>
      <trkpt lat="43.08952060528099536895751953125" lon="12.988436222076416015625">
        <ele>1343.800048828125</ele>
        <time>2021-06-06T09:09:34.000Z</time>
        <extensions>
          <ns3:TrackPointExtension>
            <ns3:atemp>15.0</ns3:atemp>
          </ns3:TrackPointExtension>
        </extensions>
      </trkpt>
      <trkpt lat="43.08946863748133182525634765625" lon="12.98845273442566394805908203125">
        <ele>1342.4000244140625</ele>
        <time>2021-06-06T09:09:36.000Z</time>
        <extensions>
          <ns3:TrackPointExtension>
            <ns3:atemp>15.0</ns3:atemp>
          </ns3:TrackPointExtension>
        </extensions>
      </trkpt>
      <trkpt lat="43.08941901661455631256103515625" lon="12.98846497200429439544677734375">
        <ele>1341.199951171875</ele>
        <time>2021-06-06T09:09:38.000Z</time>
        <extensions>
          <ns3:TrackPointExtension>
            <ns3:atemp>15.0</ns3:atemp>
          </ns3:TrackPointExtension>
        </extensions>
      </trkpt>
      <trkpt lat="43.08936738409101963043212890625" lon="12.9884831607341766357421875">
        <ele>1339.800048828125</ele>
        <time>2021-06-06T09:09:40.000Z</time>
        <extensions>
          <ns3:TrackPointExtension>
            <ns3:atemp>15.0</ns3:atemp>
          </ns3:TrackPointExtension>
        </extensions>
      </trkpt>
      <trkpt lat="43.08932296000421047210693359375" lon="12.988496907055377960205078125">
        <ele>1338.199951171875</ele>
        <time>2021-06-06T09:09:42.000Z</time>
        <extensions>
          <ns3:TrackPointExtension>
            <ns3:atemp>15.0</ns3:atemp>
          </ns3:TrackPointExtension>
        </extensions>
      </trkpt>
      <trkpt lat="43.08926294557750225067138671875" lon="12.98849321901798248291015625">
        <ele>1336.199951171875</ele>
        <time>2021-06-06T09:09:44.000Z</time>
        <extensions>
          <ns3:TrackPointExtension>
            <ns3:atemp>15.0</ns3:atemp>
          </ns3:TrackPointExtension>
        </extensions>
      </trkpt>
      <trkpt lat="43.089229166507720947265625" lon="12.988481819629669189453125">
        <ele>1335.4000244140625</ele>
        <time>2021-06-06T09:09:45.000Z</time>
        <extensions>
          <ns3:TrackPointExtension>
            <ns3:atemp>15.0</ns3:atemp>
          </ns3:TrackPointExtension>
        </extensions>
      </trkpt>
      <trkpt lat="43.089195974171161651611328125" lon="12.98847218044102191925048828125">
        <ele>1334.199951171875</ele>
        <time>2021-06-06T09:09:46.000Z</time>
        <extensions>
          <ns3:TrackPointExtension>
            <ns3:atemp>15.0</ns3:atemp>
          </ns3:TrackPointExtension>
        </extensions>
      </trkpt>
      <trkpt lat="43.08916336856782436370849609375" lon="12.98846614547073841094970703125">
        <ele>1333</ele>
        <time>2021-06-06T09:09:47.000Z</time>
        <extensions>
          <ns3:TrackPointExtension>
            <ns3:atemp>15.0</ns3:atemp>
          </ns3:TrackPointExtension>
        </extensions>
      </trkpt>
      <trkpt lat="43.0891300924122333526611328125" lon="12.988465726375579833984375">
        <ele>1332</ele>
        <time>2021-06-06T09:09:48.000Z</time>
        <extensions>
          <ns3:TrackPointExtension>
            <ns3:atemp>15.0</ns3:atemp>
          </ns3:TrackPointExtension>
        </extensions>
      </trkpt>
      <trkpt lat="43.08906060643494129180908203125" lon="12.98846547491848468780517578125">
        <ele>1330</ele>
        <time>2021-06-06T09:09:50.000Z</time>
        <extensions>
          <ns3:TrackPointExtension>
            <ns3:atemp>15.0</ns3:atemp>
          </ns3:TrackPointExtension>
        </extensions>
      </trkpt>
      <trkpt lat="43.08899153955280780792236328125" lon="12.9884617030620574951171875">
        <ele>1327.5999755859375</ele>
        <time>2021-06-06T09:09:52.000Z</time>
        <extensions>
          <ns3:TrackPointExtension>
            <ns3:atemp>15.0</ns3:atemp>
          </ns3:TrackPointExtension>
        </extensions>
      </trkpt>
      <trkpt lat="43.088956587016582489013671875" lon="12.98845742829144001007080078125">
        <ele>1326.199951171875</ele>
        <time>2021-06-06T09:09:53.000Z</time>
        <extensions>
          <ns3:TrackPointExtension>
            <ns3:atemp>15.0</ns3:atemp>
          </ns3:TrackPointExtension>
        </extensions>
      </trkpt>
      <trkpt lat="43.0889208801090717315673828125" lon="12.988454997539520263671875">
        <ele>1324.800048828125</ele>
        <time>2021-06-06T09:09:54.000Z</time>
        <extensions>
          <ns3:TrackPointExtension>
            <ns3:atemp>15.0</ns3:atemp>
          </ns3:TrackPointExtension>
        </extensions>
      </trkpt>
      <trkpt lat="43.088885508477687835693359375" lon="12.98845608718693256378173828125">
        <ele>1323.4000244140625</ele>
        <time>2021-06-06T09:09:55.000Z</time>
        <extensions>
          <ns3:TrackPointExtension>
            <ns3:atemp>15.0</ns3:atemp>
          </ns3:TrackPointExtension>
        </extensions>
      </trkpt>
      <trkpt lat="43.08885030448436737060546875" lon="12.98845843411982059478759765625">
        <ele>1322.199951171875</ele>
        <time>2021-06-06T09:09:56.000Z</time>
        <extensions>
          <ns3:TrackPointExtension>
            <ns3:atemp>15.0</ns3:atemp>
          </ns3:TrackPointExtension>
        </extensions>
      </trkpt>
      <trkpt lat="43.08881434611976146697998046875" lon="12.98846103250980377197265625">
        <ele>1321</ele>
        <time>2021-06-06T09:09:57.000Z</time>
        <extensions>
          <ns3:TrackPointExtension>
            <ns3:atemp>15.0</ns3:atemp>
          </ns3:TrackPointExtension>
        </extensions>
      </trkpt>
      <trkpt lat="43.0887798964977264404296875" lon="12.98846413381397724151611328125">
        <ele>1319.800048828125</ele>
        <time>2021-06-06T09:09:58.000Z</time>
        <extensions>
          <ns3:TrackPointExtension>
            <ns3:atemp>15.0</ns3:atemp>
          </ns3:TrackPointExtension>
        </extensions>
      </trkpt>
      <trkpt lat="43.0887468717992305755615234375" lon="12.9884719289839267730712890625">
        <ele>1318.4000244140625</ele>
        <time>2021-06-06T09:09:59.000Z</time>
        <extensions>
          <ns3:TrackPointExtension>
            <ns3:atemp>15.0</ns3:atemp>
          </ns3:TrackPointExtension>
        </extensions>
      </trkpt>
      <trkpt lat="43.08871342800557613372802734375" lon="12.9884858429431915283203125">
        <ele>1317</ele>
        <time>2021-06-06T09:10:00.000Z</time>
        <extensions>
          <ns3:TrackPointExtension>
            <ns3:atemp>15.0</ns3:atemp>
          </ns3:TrackPointExtension>
        </extensions>
      </trkpt>
      <trkpt lat="43.08867922984063625335693359375" lon="12.9885027743875980377197265625">
        <ele>1315.4000244140625</ele>
        <time>2021-06-06T09:10:01.000Z</time>
        <extensions>
          <ns3:TrackPointExtension>
            <ns3:atemp>15.0</ns3:atemp>
          </ns3:TrackPointExtension>
        </extensions>
      </trkpt>
      <trkpt lat="43.0886436067521572113037109375" lon="12.98852129839360713958740234375">
        <ele>1312.5999755859375</ele>
        <time>2021-06-06T09:10:02.000Z</time>
        <extensions>
          <ns3:TrackPointExtension>
            <ns3:atemp>15.0</ns3:atemp>
          </ns3:TrackPointExtension>
        </extensions>
      </trkpt>
      <trkpt lat="43.08860756456851959228515625" lon="12.98854359425604343414306640625">
        <ele>1311.199951171875</ele>
        <time>2021-06-06T09:10:03.000Z</time>
        <extensions>
          <ns3:TrackPointExtension>
            <ns3:atemp>15.0</ns3:atemp>
          </ns3:TrackPointExtension>
        </extensions>
      </trkpt>
      <trkpt lat="43.08857294730842113494873046875" lon="12.98857008107006549835205078125">
        <ele>1310</ele>
        <time>2021-06-06T09:10:04.000Z</time>
        <extensions>
          <ns3:TrackPointExtension>
            <ns3:atemp>15.0</ns3:atemp>
          </ns3:TrackPointExtension>
        </extensions>
      </trkpt>
      <trkpt lat="43.08854050934314727783203125" lon="12.98860025592148303985595703125">
        <ele>1308.5999755859375</ele>
        <time>2021-06-06T09:10:05.000Z</time>
        <extensions>
          <ns3:TrackPointExtension>
            <ns3:atemp>15.0</ns3:atemp>
          </ns3:TrackPointExtension>
        </extensions>
      </trkpt>
      <trkpt lat="43.08850941248238086700439453125" lon="12.988631017506122589111328125">
        <ele>1307.199951171875</ele>
        <time>2021-06-06T09:10:06.000Z</time>
        <extensions>
          <ns3:TrackPointExtension>
            <ns3:atemp>15.0</ns3:atemp>
          </ns3:TrackPointExtension>
        </extensions>
      </trkpt>
      <trkpt lat="43.0884786508977413177490234375" lon="12.98866345547139644622802734375">
        <ele>1305.800048828125</ele>
        <time>2021-06-06T09:10:07.000Z</time>
        <extensions>
          <ns3:TrackPointExtension>
            <ns3:atemp>15.0</ns3:atemp>
          </ns3:TrackPointExtension>
        </extensions>
      </trkpt>
      <trkpt lat="43.08845090679824352264404296875" lon="12.98869907855987548828125">
        <ele>1304.4000244140625</ele>
        <time>2021-06-06T09:10:08.000Z</time>
        <extensions>
          <ns3:TrackPointExtension>
            <ns3:atemp>15.0</ns3:atemp>
          </ns3:TrackPointExtension>
        </extensions>
      </trkpt>
      <trkpt lat="43.08842760510742664337158203125" lon="12.988734953105449676513671875">
        <ele>1303</ele>
        <time>2021-06-06T09:10:09.000Z</time>
        <extensions>
          <ns3:TrackPointExtension>
            <ns3:atemp>15.0</ns3:atemp>
          </ns3:TrackPointExtension>
        </extensions>
      </trkpt>
      <trkpt lat="43.08840564452111721038818359375" lon="12.98876873217523097991943359375">
        <ele>1301.5999755859375</ele>
        <time>2021-06-06T09:10:10.000Z</time>
        <extensions>
          <ns3:TrackPointExtension>
            <ns3:atemp>15.0</ns3:atemp>
          </ns3:TrackPointExtension>
        </extensions>
      </trkpt>
      <trkpt lat="43.0883827619254589080810546875" lon="12.988803349435329437255859375">
        <ele>1300</ele>
        <time>2021-06-06T09:10:11.000Z</time>
        <extensions>
          <ns3:TrackPointExtension>
            <ns3:atemp>15.0</ns3:atemp>
          </ns3:TrackPointExtension>
        </extensions>
      </trkpt>
      <trkpt lat="43.08835937641561031341552734375" lon="12.98883654177188873291015625">
        <ele>1298.4000244140625</ele>
        <time>2021-06-06T09:10:12.000Z</time>
        <extensions>
          <ns3:TrackPointExtension>
            <ns3:atemp>15.0</ns3:atemp>
          </ns3:TrackPointExtension>
        </extensions>
      </trkpt>
      <trkpt lat="43.0883351527154445648193359375" lon="12.9888655431568622589111328125">
        <ele>1296.800048828125</ele>
        <time>2021-06-06T09:10:13.000Z</time>
        <extensions>
          <ns3:TrackPointExtension>
            <ns3:atemp>15.0</ns3:atemp>
          </ns3:TrackPointExtension>
        </extensions>
      </trkpt>
      <trkpt lat="43.08831143192946910858154296875" lon="12.98888423480093479156494140625">
        <ele>1295.800048828125</ele>
        <time>2021-06-06T09:10:14.000Z</time>
        <extensions>
          <ns3:TrackPointExtension>
            <ns3:atemp>15.0</ns3:atemp>
          </ns3:TrackPointExtension>
        </extensions>
      </trkpt>
      <trkpt lat="43.088279329240322113037109375" lon="12.98889152705669403076171875">
        <ele>1294.4000244140625</ele>
        <time>2021-06-06T09:10:15.000Z</time>
        <extensions>
          <ns3:TrackPointExtension>
            <ns3:atemp>15.0</ns3:atemp>
          </ns3:TrackPointExtension>
        </extensions>
      </trkpt>
      <trkpt lat="43.08824521489441394805908203125" lon="12.9888910241425037384033203125">
        <ele>1293</ele>
        <time>2021-06-06T09:10:16.000Z</time>
        <extensions>
          <ns3:TrackPointExtension>
            <ns3:atemp>15.0</ns3:atemp>
          </ns3:TrackPointExtension>
        </extensions>
      </trkpt>
      <trkpt lat="43.0882111005485057830810546875" lon="12.98888574354350566864013671875">
        <ele>1291.800048828125</ele>
        <time>2021-06-06T09:10:17.000Z</time>
        <extensions>
          <ns3:TrackPointExtension>
            <ns3:atemp>15.0</ns3:atemp>
          </ns3:TrackPointExtension>
        </extensions>
      </trkpt>
      <trkpt lat="43.08817732147872447967529296875" lon="12.98888037912547588348388671875">
        <ele>1290.800048828125</ele>
        <time>2021-06-06T09:10:18.000Z</time>
        <extensions>
          <ns3:TrackPointExtension>
            <ns3:atemp>15.0</ns3:atemp>
          </ns3:TrackPointExtension>
        </extensions>
      </trkpt>
      <trkpt lat="43.0881416983902454376220703125" lon="12.9888761043548583984375">
        <ele>1290</ele>
        <time>2021-06-06T09:10:19.000Z</time>
        <extensions>
          <ns3:TrackPointExtension>
            <ns3:atemp>15.0</ns3:atemp>
          </ns3:TrackPointExtension>
        </extensions>
      </trkpt>
      <trkpt lat="43.08810674585402011871337890625" lon="12.9888756014406681060791015625">
        <ele>1288.800048828125</ele>
        <time>2021-06-06T09:10:20.000Z</time>
        <extensions>
          <ns3:TrackPointExtension>
            <ns3:atemp>15.0</ns3:atemp>
          </ns3:TrackPointExtension>
        </extensions>
      </trkpt>
      <trkpt lat="43.0880337394773960113525390625" lon="12.98889127559959888458251953125">
        <ele>1287</ele>
        <time>2021-06-06T09:10:22.000Z</time>
        <extensions>
          <ns3:TrackPointExtension>
            <ns3:atemp>15.0</ns3:atemp>
          </ns3:TrackPointExtension>
        </extensions>
      </trkpt>
      <trkpt lat="43.08799644000828266143798828125" lon="12.98890317790210247039794921875">
        <ele>1286</ele>
        <time>2021-06-06T09:10:23.000Z</time>
        <extensions>
          <ns3:TrackPointExtension>
            <ns3:atemp>15.0</ns3:atemp>
          </ns3:TrackPointExtension>
        </extensions>
      </trkpt>
      <trkpt lat="43.0879593081772327423095703125" lon="12.98891558311879634857177734375">
        <ele>1284.5999755859375</ele>
        <time>2021-06-06T09:10:24.000Z</time>
        <extensions>
          <ns3:TrackPointExtension>
            <ns3:atemp>15.0</ns3:atemp>
          </ns3:TrackPointExtension>
        </extensions>
      </trkpt>
      <trkpt lat="43.0879214219748973846435546875" lon="12.98892748542129993438720703125">
        <ele>1283.199951171875</ele>
        <time>2021-06-06T09:10:25.000Z</time>
        <extensions>
          <ns3:TrackPointExtension>
            <ns3:atemp>15.0</ns3:atemp>
          </ns3:TrackPointExtension>
        </extensions>
      </trkpt>
      <trkpt lat="43.08788496069610118865966796875" lon="12.9889391362667083740234375">
        <ele>1281.5999755859375</ele>
        <time>2021-06-06T09:10:26.000Z</time>
        <extensions>
          <ns3:TrackPointExtension>
            <ns3:atemp>15.0</ns3:atemp>
          </ns3:TrackPointExtension>
        </extensions>
      </trkpt>
      <trkpt lat="43.08785109780728816986083984375" lon="12.9889507032930850982666015625">
        <ele>1280</ele>
        <time>2021-06-06T09:10:27.000Z</time>
        <extensions>
          <ns3:TrackPointExtension>
            <ns3:atemp>15.0</ns3:atemp>
          </ns3:TrackPointExtension>
        </extensions>
      </trkpt>
      <trkpt lat="43.087819330394268035888671875" lon="12.988964281976222991943359375">
        <ele>1278.5999755859375</ele>
        <time>2021-06-06T09:10:28.000Z</time>
        <extensions>
          <ns3:TrackPointExtension>
            <ns3:atemp>15.0</ns3:atemp>
          </ns3:TrackPointExtension>
        </extensions>
      </trkpt>
      <trkpt lat="43.08778672479093074798583984375" lon="12.98897861503064632415771484375">
        <ele>1277.199951171875</ele>
        <time>2021-06-06T09:10:29.000Z</time>
        <extensions>
          <ns3:TrackPointExtension>
            <ns3:atemp>15.0</ns3:atemp>
          </ns3:TrackPointExtension>
        </extensions>
      </trkpt>
      <trkpt lat="43.08775504119694232940673828125" lon="12.988994121551513671875">
        <ele>1276</ele>
        <time>2021-06-06T09:10:30.000Z</time>
        <extensions>
          <ns3:TrackPointExtension>
            <ns3:atemp>15.0</ns3:atemp>
          </ns3:TrackPointExtension>
        </extensions>
      </trkpt>
      <trkpt lat="43.0877252854406833648681640625" lon="12.98901046626269817352294921875">
        <ele>1274.5999755859375</ele>
        <time>2021-06-06T09:10:31.000Z</time>
        <extensions>
          <ns3:TrackPointExtension>
            <ns3:atemp>15.0</ns3:atemp>
          </ns3:TrackPointExtension>
        </extensions>
      </trkpt>
      <trkpt lat="43.08769804425537586212158203125" lon="12.98902588896453380584716796875">
        <ele>1272.199951171875</ele>
        <time>2021-06-06T09:10:32.000Z</time>
        <extensions>
          <ns3:TrackPointExtension>
            <ns3:atemp>15.0</ns3:atemp>
          </ns3:TrackPointExtension>
        </extensions>
      </trkpt>
      <trkpt lat="43.08767071925103664398193359375" lon="12.98903510905802249908447265625">
        <ele>1270.5999755859375</ele>
        <time>2021-06-06T09:10:33.000Z</time>
        <extensions>
          <ns3:TrackPointExtension>
            <ns3:atemp>15.0</ns3:atemp>
          </ns3:TrackPointExtension>
        </extensions>
      </trkpt>
      <trkpt lat="43.0876461602747440338134765625" lon="12.9890348576009273529052734375">
        <ele>1269.199951171875</ele>
        <time>2021-06-06T09:10:34.000Z</time>
        <extensions>
          <ns3:TrackPointExtension>
            <ns3:atemp>15.0</ns3:atemp>
          </ns3:TrackPointExtension>
        </extensions>
      </trkpt>
      <trkpt lat="43.087628893554210662841796875" lon="12.9890249669551849365234375">
        <ele>1267.800048828125</ele>
        <time>2021-06-06T09:10:35.000Z</time>
        <extensions>
          <ns3:TrackPointExtension>
            <ns3:atemp>15.0</ns3:atemp>
          </ns3:TrackPointExtension>
        </extensions>
      </trkpt>
      <trkpt lat="43.08761925436556339263916015625" lon="12.98900929279625415802001953125">
        <ele>1266.5999755859375</ele>
        <time>2021-06-06T09:10:36.000Z</time>
        <extensions>
          <ns3:TrackPointExtension>
            <ns3:atemp>15.0</ns3:atemp>
          </ns3:TrackPointExtension>
        </extensions>
      </trkpt>
      <trkpt lat="43.087614141404628753662109375" lon="12.98899504356086254119873046875">
        <ele>1265.4000244140625</ele>
        <time>2021-06-06T09:10:37.000Z</time>
        <extensions>
          <ns3:TrackPointExtension>
            <ns3:atemp>15.0</ns3:atemp>
          </ns3:TrackPointExtension>
        </extensions>
      </trkpt>
      <trkpt lat="43.08761104010045528411865234375" lon="12.9889855720102787017822265625">
        <ele>1264.199951171875</ele>
        <time>2021-06-06T09:10:38.000Z</time>
        <extensions>
          <ns3:TrackPointExtension>
            <ns3:atemp>15.0</ns3:atemp>
          </ns3:TrackPointExtension>
        </extensions>
      </trkpt>
      <trkpt lat="43.08761254884302616119384765625" lon="12.98898800276219844818115234375">
        <ele>1262.800048828125</ele>
        <time>2021-06-06T09:10:39.000Z</time>
        <extensions>
          <ns3:TrackPointExtension>
            <ns3:atemp>15.0</ns3:atemp>
          </ns3:TrackPointExtension>
        </extensions>
      </trkpt>
      <trkpt lat="43.08761070482432842254638671875" lon="12.98898532055318355560302734375">
        <ele>1261.5999755859375</ele>
        <time>2021-06-06T09:10:40.000Z</time>
        <extensions>
          <ns3:TrackPointExtension>
            <ns3:atemp>15.0</ns3:atemp>
          </ns3:TrackPointExtension>
        </extensions>
      </trkpt>
      <trkpt lat="43.0876109562814235687255859375" lon="12.98898280598223209381103515625">
        <ele>1260.4000244140625</ele>
        <time>2021-06-06T09:10:41.000Z</time>
        <extensions>
          <ns3:TrackPointExtension>
            <ns3:atemp>15.0</ns3:atemp>
          </ns3:TrackPointExtension>
        </extensions>
      </trkpt>
      <trkpt lat="43.0876106210052967071533203125" lon="12.9889822192490100860595703125">
        <ele>1259.199951171875</ele>
        <time>2021-06-06T09:10:42.000Z</time>
        <extensions>
          <ns3:TrackPointExtension>
            <ns3:atemp>15.0</ns3:atemp>
          </ns3:TrackPointExtension>
        </extensions>
      </trkpt>
      <trkpt lat="43.0876106210052967071533203125" lon="12.98898196779191493988037109375">
        <ele>1258.199951171875</ele>
        <time>2021-06-06T09:10:43.000Z</time>
        <extensions>
          <ns3:TrackPointExtension>
            <ns3:atemp>15.0</ns3:atemp>
          </ns3:TrackPointExtension>
        </extensions>
      </trkpt>
      <trkpt lat="43.08761070482432842254638671875" lon="12.98898163251578807830810546875">
        <ele>1256.5999755859375</ele>
        <time>2021-06-06T09:10:45.000Z</time>
        <extensions>
          <ns3:TrackPointExtension>
            <ns3:atemp>15.0</ns3:atemp>
          </ns3:TrackPointExtension>
        </extensions>
      </trkpt>
      <trkpt lat="43.0875995568931102752685546875" lon="12.98897576518356800079345703125">
        <ele>1255.5999755859375</ele>
        <time>2021-06-06T09:10:54.000Z</time>
        <extensions>
          <ns3:TrackPointExtension>
            <ns3:atemp>15.0</ns3:atemp>
          </ns3:TrackPointExtension>
        </extensions>
      </trkpt>
      <trkpt lat="43.0875787697732448577880859375" lon="12.98896134831011295318603515625">
        <ele>1255.5999755859375</ele>
        <time>2021-06-06T09:10:56.000Z</time>
        <extensions>
          <ns3:TrackPointExtension>
            <ns3:atemp>15.0</ns3:atemp>
          </ns3:TrackPointExtension>
        </extensions>
      </trkpt>
      <trkpt lat="43.087481372058391571044921875" lon="12.9888881742954254150390625">
        <ele>1255.5999755859375</ele>
        <time>2021-06-06T09:11:02.000Z</time>
        <extensions>
          <ns3:TrackPointExtension>
            <ns3:atemp>15.0</ns3:atemp>
          </ns3:TrackPointExtension>
        </extensions>
      </trkpt>
      <trkpt lat="43.0874356068670749664306640625" lon="12.98882874660193920135498046875">
        <ele>1255.4000244140625</ele>
        <time>2021-06-06T09:11:04.000Z</time>
        <extensions>
          <ns3:TrackPointExtension>
            <ns3:atemp>15.0</ns3:atemp>
          </ns3:TrackPointExtension>
        </extensions>
      </trkpt>
      <trkpt lat="43.087392188608646392822265625" lon="12.98877208493649959564208984375">
        <ele>1254</ele>
        <time>2021-06-06T09:11:06.000Z</time>
        <extensions>
          <ns3:TrackPointExtension>
            <ns3:atemp>15.0</ns3:atemp>
          </ns3:TrackPointExtension>
        </extensions>
      </trkpt>
      <trkpt lat="43.087375424802303314208984375" lon="12.98874995671212673187255859375">
        <ele>1253.4000244140625</ele>
        <time>2021-06-06T09:11:07.000Z</time>
        <extensions>
          <ns3:TrackPointExtension>
            <ns3:atemp>15.0</ns3:atemp>
          </ns3:TrackPointExtension>
        </extensions>
      </trkpt>
      <trkpt lat="43.0873663723468780517578125" lon="12.98873461782932281494140625">
        <ele>1253</ele>
        <time>2021-06-06T09:11:08.000Z</time>
        <extensions>
          <ns3:TrackPointExtension>
            <ns3:atemp>15.0</ns3:atemp>
          </ns3:TrackPointExtension>
        </extensions>
      </trkpt>
      <trkpt lat="43.0873625166714191436767578125" lon="12.988728247582912445068359375">
        <ele>1251.800048828125</ele>
        <time>2021-06-06T09:11:10.000Z</time>
        <extensions>
          <ns3:TrackPointExtension>
            <ns3:atemp>15.0</ns3:atemp>
          </ns3:TrackPointExtension>
        </extensions>
      </trkpt>
      <trkpt lat="43.0873534642159938812255859375" lon="12.9887193627655506134033203125">
        <ele>1250.800048828125</ele>
        <time>2021-06-06T09:11:11.000Z</time>
        <extensions>
          <ns3:TrackPointExtension>
            <ns3:atemp>15.0</ns3:atemp>
          </ns3:TrackPointExtension>
        </extensions>
      </trkpt>
      <trkpt lat="43.087340891361236572265625" lon="12.98870385624468326568603515625">
        <ele>1249.800048828125</ele>
        <time>2021-06-06T09:11:12.000Z</time>
        <extensions>
          <ns3:TrackPointExtension>
            <ns3:atemp>15.0</ns3:atemp>
          </ns3:TrackPointExtension>
        </extensions>
      </trkpt>
      <trkpt lat="43.08732370845973491668701171875" lon="12.98868390731513500213623046875">
        <ele>1248.800048828125</ele>
        <time>2021-06-06T09:11:13.000Z</time>
        <extensions>
          <ns3:TrackPointExtension>
            <ns3:atemp>15.0</ns3:atemp>
          </ns3:TrackPointExtension>
        </extensions>
      </trkpt>
      <trkpt lat="43.087304346263408660888671875" lon="12.98866328783333301544189453125">
        <ele>1247.5999755859375</ele>
        <time>2021-06-06T09:11:14.000Z</time>
        <extensions>
          <ns3:TrackPointExtension>
            <ns3:atemp>15.0</ns3:atemp>
          </ns3:TrackPointExtension>
        </extensions>
      </trkpt>
      <trkpt lat="43.08728481642901897430419921875" lon="12.98864769749343395233154296875">
        <ele>1246.5999755859375</ele>
        <time>2021-06-06T09:11:15.000Z</time>
        <extensions>
          <ns3:TrackPointExtension>
            <ns3:atemp>15.0</ns3:atemp>
          </ns3:TrackPointExtension>
        </extensions>
      </trkpt>
      <trkpt lat="43.08721558190882205963134765625" lon="12.9885772056877613067626953125">
        <ele>1245.4000244140625</ele>
        <time>2021-06-06T09:11:18.000Z</time>
        <extensions>
          <ns3:TrackPointExtension>
            <ns3:atemp>15.0</ns3:atemp>
          </ns3:TrackPointExtension>
        </extensions>
      </trkpt>
      <trkpt lat="43.08716990053653717041015625" lon="12.98851576633751392364501953125">
        <ele>1245</ele>
        <time>2021-06-06T09:11:20.000Z</time>
        <extensions>
          <ns3:TrackPointExtension>
            <ns3:atemp>15.0</ns3:atemp>
          </ns3:TrackPointExtension>
        </extensions>
      </trkpt>
      <trkpt lat="43.0871305055916309356689453125" lon="12.988448627293109893798828125">
        <ele>1244</ele>
        <time>2021-06-06T09:11:22.000Z</time>
        <extensions>
          <ns3:TrackPointExtension>
            <ns3:atemp>15.0</ns3:atemp>
          </ns3:TrackPointExtension>
        </extensions>
      </trkpt>
      <trkpt lat="43.0870986543595790863037109375" lon="12.98838383518159389495849609375">
        <ele>1242.5999755859375</ele>
        <time>2021-06-06T09:11:24.000Z</time>
        <extensions>
          <ns3:TrackPointExtension>
            <ns3:atemp>15.0</ns3:atemp>
          </ns3:TrackPointExtension>
        </extensions>
      </trkpt>
      <trkpt lat="43.08706755749881267547607421875" lon="12.98831175081431865692138671875">
        <ele>1240.5999755859375</ele>
        <time>2021-06-06T09:11:26.000Z</time>
        <extensions>
          <ns3:TrackPointExtension>
            <ns3:atemp>15.0</ns3:atemp>
          </ns3:TrackPointExtension>
        </extensions>
      </trkpt>
      <trkpt lat="43.08705280534923076629638671875" lon="12.988274283707141876220703125">
        <ele>1239.4000244140625</ele>
        <time>2021-06-06T09:11:27.000Z</time>
        <extensions>
          <ns3:TrackPointExtension>
            <ns3:atemp>15.0</ns3:atemp>
          </ns3:TrackPointExtension>
        </extensions>
      </trkpt>
      <trkpt lat="43.08704115450382232666015625" lon="12.988233380019664764404296875">
        <ele>1238.4000244140625</ele>
        <time>2021-06-06T09:11:28.000Z</time>
        <extensions>
          <ns3:TrackPointExtension>
            <ns3:atemp>15.0</ns3:atemp>
          </ns3:TrackPointExtension>
        </extensions>
      </trkpt>
      <trkpt lat="43.0870315991342067718505859375" lon="12.98819038085639476776123046875">
        <ele>1237.4000244140625</ele>
        <time>2021-06-06T09:11:29.000Z</time>
        <extensions>
          <ns3:TrackPointExtension>
            <ns3:atemp>15.0</ns3:atemp>
          </ns3:TrackPointExtension>
        </extensions>
      </trkpt>
      <trkpt lat="43.0870205350220203399658203125" lon="12.9881465435028076171875">
        <ele>1236.199951171875</ele>
        <time>2021-06-06T09:11:30.000Z</time>
        <extensions>
          <ns3:TrackPointExtension>
            <ns3:atemp>15.0</ns3:atemp>
          </ns3:TrackPointExtension>
        </extensions>
      </trkpt>
      <trkpt lat="43.08701089583337306976318359375" lon="12.9881011135876178741455078125">
        <ele>1233.800048828125</ele>
        <time>2021-06-06T09:11:31.000Z</time>
        <extensions>
          <ns3:TrackPointExtension>
            <ns3:atemp>15.0</ns3:atemp>
          </ns3:TrackPointExtension>
        </extensions>
      </trkpt>
      <trkpt lat="43.08700419031083583831787109375" lon="12.98801846802234649658203125">
        <ele>1232.4000244140625</ele>
        <time>2021-06-06T09:11:33.000Z</time>
        <extensions>
          <ns3:TrackPointExtension>
            <ns3:atemp>15.0</ns3:atemp>
          </ns3:TrackPointExtension>
        </extensions>
      </trkpt>
      <trkpt lat="43.0870037712156772613525390625" lon="12.98796842806041240692138671875">
        <ele>1231.199951171875</ele>
        <time>2021-06-06T09:11:35.000Z</time>
        <extensions>
          <ns3:TrackPointExtension>
            <ns3:atemp>15.0</ns3:atemp>
          </ns3:TrackPointExtension>
        </extensions>
      </trkpt>
      <trkpt lat="43.086994551122188568115234375" lon="12.9879105091094970703125">
        <ele>1229.800048828125</ele>
        <time>2021-06-06T09:11:37.000Z</time>
        <extensions>
          <ns3:TrackPointExtension>
            <ns3:atemp>15.0</ns3:atemp>
          </ns3:TrackPointExtension>
        </extensions>
      </trkpt>
      <trkpt lat="43.08697988279163837432861328125" lon="12.98784404061734676361083984375">
        <ele>1228</ele>
        <time>2021-06-06T09:11:39.000Z</time>
        <extensions>
          <ns3:TrackPointExtension>
            <ns3:atemp>15.0</ns3:atemp>
          </ns3:TrackPointExtension>
        </extensions>
      </trkpt>
      <trkpt lat="43.08697384782135486602783203125" lon="12.98780799843370914459228515625">
        <ele>1227.199951171875</ele>
        <time>2021-06-06T09:11:40.000Z</time>
        <extensions>
          <ns3:TrackPointExtension>
            <ns3:atemp>15.0</ns3:atemp>
          </ns3:TrackPointExtension>
        </extensions>
      </trkpt>
      <trkpt lat="43.08696865104138851165771484375" lon="12.9877698607742786407470703125">
        <ele>1226.800048828125</ele>
        <time>2021-06-06T09:11:41.000Z</time>
        <extensions>
          <ns3:TrackPointExtension>
            <ns3:atemp>15.0</ns3:atemp>
          </ns3:TrackPointExtension>
        </extensions>
      </trkpt>
      <trkpt lat="43.08694702573120594024658203125" lon="12.987607754766941070556640625">
        <ele>1225.4000244140625</ele>
        <time>2021-06-06T09:11:45.000Z</time>
        <extensions>
          <ns3:TrackPointExtension>
            <ns3:atemp>15.0</ns3:atemp>
          </ns3:TrackPointExtension>
        </extensions>
      </trkpt>
      <trkpt lat="43.086938224732875823974609375" lon="12.9875241033732891082763671875">
        <ele>1223.4000244140625</ele>
        <time>2021-06-06T09:11:47.000Z</time>
        <extensions>
          <ns3:TrackPointExtension>
            <ns3:atemp>15.0</ns3:atemp>
          </ns3:TrackPointExtension>
        </extensions>
      </trkpt>
      <trkpt lat="43.08693227358162403106689453125" lon="12.98743634484708309173583984375">
        <ele>1222</ele>
        <time>2021-06-06T09:11:49.000Z</time>
        <extensions>
          <ns3:TrackPointExtension>
            <ns3:atemp>15.0</ns3:atemp>
          </ns3:TrackPointExtension>
        </extensions>
      </trkpt>
      <trkpt lat="43.08692841790616512298583984375" lon="12.987351603806018829345703125">
        <ele>1220.4000244140625</ele>
        <time>2021-06-06T09:11:51.000Z</time>
        <extensions>
          <ns3:TrackPointExtension>
            <ns3:atemp>15.0</ns3:atemp>
          </ns3:TrackPointExtension>
        </extensions>
      </trkpt>
      <trkpt lat="43.0869310162961483001708984375" lon="12.98731011338531970977783203125">
        <ele>1219.5999755859375</ele>
        <time>2021-06-06T09:11:52.000Z</time>
        <extensions>
          <ns3:TrackPointExtension>
            <ns3:atemp>15.0</ns3:atemp>
          </ns3:TrackPointExtension>
        </extensions>
      </trkpt>
      <trkpt lat="43.0869293399155139923095703125" lon="12.9872692935168743133544921875">
        <ele>1219</ele>
        <time>2021-06-06T09:11:53.000Z</time>
        <extensions>
          <ns3:TrackPointExtension>
            <ns3:atemp>15.0</ns3:atemp>
          </ns3:TrackPointExtension>
        </extensions>
      </trkpt>
      <trkpt lat="43.0869159288704395294189453125" lon="12.98718505539000034332275390625">
        <ele>1217.5999755859375</ele>
        <time>2021-06-06T09:11:55.000Z</time>
        <extensions>
          <ns3:TrackPointExtension>
            <ns3:atemp>15.0</ns3:atemp>
          </ns3:TrackPointExtension>
        </extensions>
      </trkpt>
      <trkpt lat="43.0869135819375514984130859375" lon="12.9871393740177154541015625">
        <ele>1217</ele>
        <time>2021-06-06T09:11:56.000Z</time>
        <extensions>
          <ns3:TrackPointExtension>
            <ns3:atemp>15.0</ns3:atemp>
          </ns3:TrackPointExtension>
        </extensions>
      </trkpt>
      <trkpt lat="43.0869108997285366058349609375" lon="12.98709419555962085723876953125">
        <ele>1216.199951171875</ele>
        <time>2021-06-06T09:11:57.000Z</time>
        <extensions>
          <ns3:TrackPointExtension>
            <ns3:atemp>15.0</ns3:atemp>
          </ns3:TrackPointExtension>
        </extensions>
      </trkpt>
      <trkpt lat="43.0869159288704395294189453125" lon="12.9870081134140491485595703125">
        <ele>1214.5999755859375</ele>
        <time>2021-06-06T09:11:59.000Z</time>
        <extensions>
          <ns3:TrackPointExtension>
            <ns3:atemp>15.0</ns3:atemp>
          </ns3:TrackPointExtension>
        </extensions>
      </trkpt>
      <trkpt lat="43.0869189463555812835693359375" lon="12.9869688861072063446044921875">
        <ele>1213.4000244140625</ele>
        <time>2021-06-06T09:12:00.000Z</time>
        <extensions>
          <ns3:TrackPointExtension>
            <ns3:atemp>15.0</ns3:atemp>
          </ns3:TrackPointExtension>
        </extensions>
      </trkpt>
      <trkpt lat="43.0869199521839618682861328125" lon="12.98693141900002956390380859375">
        <ele>1212.800048828125</ele>
        <time>2021-06-06T09:12:01.000Z</time>
        <extensions>
          <ns3:TrackPointExtension>
            <ns3:atemp>15.0</ns3:atemp>
          </ns3:TrackPointExtension>
        </extensions>
      </trkpt>
      <trkpt lat="43.08692188002169132232666015625" lon="12.9868931137025356292724609375">
        <ele>1212</ele>
        <time>2021-06-06T09:12:02.000Z</time>
        <extensions>
          <ns3:TrackPointExtension>
            <ns3:atemp>15.0</ns3:atemp>
          </ns3:TrackPointExtension>
        </extensions>
      </trkpt>
      <trkpt lat="43.08693093247711658477783203125" lon="12.98680887557566165924072265625">
        <ele>1210.4000244140625</ele>
        <time>2021-06-06T09:12:04.000Z</time>
        <extensions>
          <ns3:TrackPointExtension>
            <ns3:atemp>15.0</ns3:atemp>
          </ns3:TrackPointExtension>
        </extensions>
      </trkpt>
      <trkpt lat="43.08694593608379364013671875" lon="12.98671566881239414215087890625">
        <ele>1208.199951171875</ele>
        <time>2021-06-06T09:12:06.000Z</time>
        <extensions>
          <ns3:TrackPointExtension>
            <ns3:atemp>15.0</ns3:atemp>
          </ns3:TrackPointExtension>
        </extensions>
      </trkpt>
      <trkpt lat="43.08695239014923572540283203125" lon="12.98667342402040958404541015625">
        <ele>1207.199951171875</ele>
        <time>2021-06-06T09:12:07.000Z</time>
        <extensions>
          <ns3:TrackPointExtension>
            <ns3:atemp>15.0</ns3:atemp>
          </ns3:TrackPointExtension>
        </extensions>
      </trkpt>
      <trkpt lat="43.08697032742202281951904296875" lon="12.98660494387149810791015625">
        <ele>1205.800048828125</ele>
        <time>2021-06-06T09:12:09.000Z</time>
        <extensions>
          <ns3:TrackPointExtension>
            <ns3:atemp>15.0</ns3:atemp>
          </ns3:TrackPointExtension>
        </extensions>
      </trkpt>
      <trkpt lat="43.0869782902300357818603515625" lon="12.9865796305239200592041015625">
        <ele>1204</ele>
        <time>2021-06-06T09:12:11.000Z</time>
        <extensions>
          <ns3:TrackPointExtension>
            <ns3:atemp>15.0</ns3:atemp>
          </ns3:TrackPointExtension>
        </extensions>
      </trkpt>
      <trkpt lat="43.086980469524860382080078125" lon="12.98657787032425403594970703125">
        <ele>1202.5999755859375</ele>
        <time>2021-06-06T09:12:13.000Z</time>
        <extensions>
          <ns3:TrackPointExtension>
            <ns3:atemp>15.0</ns3:atemp>
          </ns3:TrackPointExtension>
        </extensions>
      </trkpt>
      <trkpt lat="43.0869779549539089202880859375" lon="12.98657870851457118988037109375">
        <ele>1201</ele>
        <time>2021-06-06T09:12:15.000Z</time>
        <extensions>
          <ns3:TrackPointExtension>
            <ns3:atemp>15.0</ns3:atemp>
          </ns3:TrackPointExtension>
        </extensions>
      </trkpt>
      <trkpt lat="43.08697812259197235107421875" lon="12.98657904379069805145263671875">
        <ele>1199.800048828125</ele>
        <time>2021-06-06T09:12:18.000Z</time>
        <extensions>
          <ns3:TrackPointExtension>
            <ns3:atemp>15.0</ns3:atemp>
          </ns3:TrackPointExtension>
        </extensions>
      </trkpt>
      <trkpt lat="43.08697820641100406646728515625" lon="12.98657904379069805145263671875">
        <ele>1199.199951171875</ele>
        <time>2021-06-06T09:12:23.000Z</time>
        <extensions>
          <ns3:TrackPointExtension>
            <ns3:atemp>15.0</ns3:atemp>
          </ns3:TrackPointExtension>
        </extensions>
      </trkpt>
      <trkpt lat="43.08697678148746490478515625" lon="12.98655406571924686431884765625">
        <ele>1199.199951171875</ele>
        <time>2021-06-06T09:12:32.000Z</time>
        <extensions>
          <ns3:TrackPointExtension>
            <ns3:atemp>15.0</ns3:atemp>
          </ns3:TrackPointExtension>
        </extensions>
      </trkpt>
      <trkpt lat="43.0869756080210208892822265625" lon="12.98653277568519115447998046875">
        <ele>1199.199951171875</ele>
        <time>2021-06-06T09:12:33.000Z</time>
        <extensions>
          <ns3:TrackPointExtension>
            <ns3:atemp>15.0</ns3:atemp>
          </ns3:TrackPointExtension>
        </extensions>
      </trkpt>
      <trkpt lat="43.08699999935925006866455078125" lon="12.9864180274307727813720703125">
        <ele>1199</ele>
        <time>2021-06-06T09:12:36.000Z</time>
        <extensions>
          <ns3:TrackPointExtension>
            <ns3:atemp>15.0</ns3:atemp>
          </ns3:TrackPointExtension>
        </extensions>
      </trkpt>
      <trkpt lat="43.08701860718429088592529296875" lon="12.9863714240491390228271484375">
        <ele>1199</ele>
        <time>2021-06-06T09:12:37.000Z</time>
        <extensions>
          <ns3:TrackPointExtension>
            <ns3:atemp>15.0</ns3:atemp>
          </ns3:TrackPointExtension>
        </extensions>
      </trkpt>
      <trkpt lat="43.0870606005191802978515625" lon="12.986276708543300628662109375">
        <ele>1199</ele>
        <time>2021-06-06T09:12:39.000Z</time>
        <extensions>
          <ns3:TrackPointExtension>
            <ns3:atemp>15.0</ns3:atemp>
          </ns3:TrackPointExtension>
        </extensions>
      </trkpt>
      <trkpt lat="43.0871170945465564727783203125" lon="12.9861843399703502655029296875">
        <ele>1198.800048828125</ele>
        <time>2021-06-06T09:12:41.000Z</time>
        <extensions>
          <ns3:TrackPointExtension>
            <ns3:atemp>15.0</ns3:atemp>
          </ns3:TrackPointExtension>
        </extensions>
      </trkpt>
      <trkpt lat="43.08714081533253192901611328125" lon="12.9861357249319553375244140625">
        <ele>1198</ele>
        <time>2021-06-06T09:12:42.000Z</time>
        <extensions>
          <ns3:TrackPointExtension>
            <ns3:atemp>15.0</ns3:atemp>
          </ns3:TrackPointExtension>
        </extensions>
      </trkpt>
      <trkpt lat="43.087163530290126800537109375" lon="12.98608669079840183258056640625">
        <ele>1197.4000244140625</ele>
        <time>2021-06-06T09:12:43.000Z</time>
        <extensions>
          <ns3:TrackPointExtension>
            <ns3:atemp>15.0</ns3:atemp>
          </ns3:TrackPointExtension>
        </extensions>
      </trkpt>
      <trkpt lat="43.08721474371850490570068359375" lon="12.9859855212271213531494140625">
        <ele>1195.800048828125</ele>
        <time>2021-06-06T09:12:45.000Z</time>
        <extensions>
          <ns3:TrackPointExtension>
            <ns3:atemp>15.0</ns3:atemp>
          </ns3:TrackPointExtension>
        </extensions>
      </trkpt>
      <trkpt lat="43.0872441641986370086669921875" lon="12.98593816347420215606689453125">
        <ele>1194.5999755859375</ele>
        <time>2021-06-06T09:12:46.000Z</time>
        <extensions>
          <ns3:TrackPointExtension>
            <ns3:atemp>15.0</ns3:atemp>
          </ns3:TrackPointExtension>
        </extensions>
      </trkpt>
      <trkpt lat="43.08729772455990314483642578125" lon="12.9858514107763767242431640625">
        <ele>1193</ele>
        <time>2021-06-06T09:12:48.000Z</time>
        <extensions>
          <ns3:TrackPointExtension>
            <ns3:atemp>15.0</ns3:atemp>
          </ns3:TrackPointExtension>
        </extensions>
      </trkpt>
      <trkpt lat="43.08735757134854793548583984375" lon="12.985769100487232208251953125">
        <ele>1191.5999755859375</ele>
        <time>2021-06-06T09:12:50.000Z</time>
        <extensions>
          <ns3:TrackPointExtension>
            <ns3:atemp>15.0</ns3:atemp>
          </ns3:TrackPointExtension>
        </extensions>
      </trkpt>
      <trkpt lat="43.0874012410640716552734375" lon="12.98568762838840484619140625">
        <ele>1190</ele>
        <time>2021-06-06T09:12:52.000Z</time>
        <extensions>
          <ns3:TrackPointExtension>
            <ns3:atemp>15.0</ns3:atemp>
          </ns3:TrackPointExtension>
        </extensions>
      </trkpt>
      <trkpt lat="43.08742177672684192657470703125" lon="12.98564379103481769561767578125">
        <ele>1189.199951171875</ele>
        <time>2021-06-06T09:12:53.000Z</time>
        <extensions>
          <ns3:TrackPointExtension>
            <ns3:atemp>15.0</ns3:atemp>
          </ns3:TrackPointExtension>
        </extensions>
      </trkpt>
      <trkpt lat="43.08744214475154876708984375" lon="12.9855962656438350677490234375">
        <ele>1188.4000244140625</ele>
        <time>2021-06-06T09:12:54.000Z</time>
        <extensions>
          <ns3:TrackPointExtension>
            <ns3:atemp>15.0</ns3:atemp>
          </ns3:TrackPointExtension>
        </extensions>
      </trkpt>
      <trkpt lat="43.0874882452189922332763671875" lon="12.98550213687121868133544921875">
        <ele>1187</ele>
        <time>2021-06-06T09:12:56.000Z</time>
        <extensions>
          <ns3:TrackPointExtension>
            <ns3:atemp>15.0</ns3:atemp>
          </ns3:TrackPointExtension>
        </extensions>
      </trkpt>
      <trkpt lat="43.08753510005772113800048828125" lon="12.98540457151830196380615234375">
        <ele>1184.5999755859375</ele>
        <time>2021-06-06T09:12:58.000Z</time>
        <extensions>
          <ns3:TrackPointExtension>
            <ns3:atemp>15.0</ns3:atemp>
          </ns3:TrackPointExtension>
        </extensions>
      </trkpt>
      <trkpt lat="43.08755655772984027862548828125" lon="12.98536366783082485198974609375">
        <ele>1184</ele>
        <time>2021-06-06T09:12:59.000Z</time>
        <extensions>
          <ns3:TrackPointExtension>
            <ns3:atemp>15.0</ns3:atemp>
          </ns3:TrackPointExtension>
        </extensions>
      </trkpt>
      <trkpt lat="43.08757516555488109588623046875" lon="12.9853277094662189483642578125">
        <ele>1183.5999755859375</ele>
        <time>2021-06-06T09:13:00.000Z</time>
        <extensions>
          <ns3:TrackPointExtension>
            <ns3:atemp>15.0</ns3:atemp>
          </ns3:TrackPointExtension>
        </extensions>
      </trkpt>
      <trkpt lat="43.08762989938259124755859375" lon="12.98520751297473907470703125">
        <ele>1182.199951171875</ele>
        <time>2021-06-06T09:13:03.000Z</time>
        <extensions>
          <ns3:TrackPointExtension>
            <ns3:atemp>15.0</ns3:atemp>
          </ns3:TrackPointExtension>
        </extensions>
      </trkpt>
      <trkpt lat="43.0876548774540424346923828125" lon="12.98516434617340564727783203125">
        <ele>1181.4000244140625</ele>
        <time>2021-06-06T09:13:04.000Z</time>
        <extensions>
          <ns3:TrackPointExtension>
            <ns3:atemp>15.0</ns3:atemp>
          </ns3:TrackPointExtension>
        </extensions>
      </trkpt>
      <trkpt lat="43.0876840464770793914794921875" lon="12.98512126319110393524169921875">
        <ele>1180.5999755859375</ele>
        <time>2021-06-06T09:13:05.000Z</time>
        <extensions>
          <ns3:TrackPointExtension>
            <ns3:atemp>15.0</ns3:atemp>
          </ns3:TrackPointExtension>
        </extensions>
      </trkpt>
      <trkpt lat="43.0877470783889293670654296875" lon="12.9850343428552150726318359375">
        <ele>1179.4000244140625</ele>
        <time>2021-06-06T09:13:07.000Z</time>
        <extensions>
          <ns3:TrackPointExtension>
            <ns3:atemp>15.0</ns3:atemp>
          </ns3:TrackPointExtension>
        </extensions>
      </trkpt>
      <trkpt lat="43.0878037400543689727783203125" lon="12.98495949245989322662353515625">
        <ele>1179</ele>
        <time>2021-06-06T09:13:09.000Z</time>
        <extensions>
          <ns3:TrackPointExtension>
            <ns3:atemp>15.0</ns3:atemp>
          </ns3:TrackPointExtension>
        </extensions>
      </trkpt>
      <trkpt lat="43.08785428293049335479736328125" lon="12.984903417527675628662109375">
        <ele>1178.199951171875</ele>
        <time>2021-06-06T09:13:11.000Z</time>
        <extensions>
          <ns3:TrackPointExtension>
            <ns3:atemp>15.0</ns3:atemp>
          </ns3:TrackPointExtension>
        </extensions>
      </trkpt>
      <trkpt lat="43.0878811888396739959716796875" lon="12.98485212028026580810546875">
        <ele>1177</ele>
        <time>2021-06-06T09:13:13.000Z</time>
        <extensions>
          <ns3:TrackPointExtension>
            <ns3:atemp>15.0</ns3:atemp>
          </ns3:TrackPointExtension>
        </extensions>
      </trkpt>
      <trkpt lat="43.08789409697055816650390625" lon="12.984829656779766082763671875">
        <ele>1176.199951171875</ele>
        <time>2021-06-06T09:13:14.000Z</time>
        <extensions>
          <ns3:TrackPointExtension>
            <ns3:atemp>15.0</ns3:atemp>
          </ns3:TrackPointExtension>
        </extensions>
      </trkpt>
      <trkpt lat="43.08791027404367923736572265625" lon="12.98481381498277187347412109375">
        <ele>1175.5999755859375</ele>
        <time>2021-06-06T09:13:15.000Z</time>
        <extensions>
          <ns3:TrackPointExtension>
            <ns3:atemp>15.0</ns3:atemp>
          </ns3:TrackPointExtension>
        </extensions>
      </trkpt>
      <trkpt lat="43.08797749690711498260498046875" lon="12.98473921604454517364501953125">
        <ele>1174.4000244140625</ele>
        <time>2021-06-06T09:13:19.000Z</time>
        <extensions>
          <ns3:TrackPointExtension>
            <ns3:atemp>15.0</ns3:atemp>
          </ns3:TrackPointExtension>
        </extensions>
      </trkpt>
      <trkpt lat="43.088002391159534454345703125" lon="12.9846819676458835601806640625">
        <ele>1173.199951171875</ele>
        <time>2021-06-06T09:13:22.000Z</time>
        <extensions>
          <ns3:TrackPointExtension>
            <ns3:atemp>15.0</ns3:atemp>
          </ns3:TrackPointExtension>
        </extensions>
      </trkpt>
      <trkpt lat="43.08801102451980113983154296875" lon="12.9846611805260181427001953125">
        <ele>1171.800048828125</ele>
        <time>2021-06-06T09:13:24.000Z</time>
        <extensions>
          <ns3:TrackPointExtension>
            <ns3:atemp>15.0</ns3:atemp>
          </ns3:TrackPointExtension>
        </extensions>
      </trkpt>
      <trkpt lat="43.08801420964300632476806640625" lon="12.984657995402812957763671875">
        <ele>1170.4000244140625</ele>
        <time>2021-06-06T09:13:26.000Z</time>
        <extensions>
          <ns3:TrackPointExtension>
            <ns3:atemp>15.0</ns3:atemp>
          </ns3:TrackPointExtension>
        </extensions>
      </trkpt>
      <trkpt lat="43.08801420964300632476806640625" lon="12.98465288244187831878662109375">
        <ele>1169</ele>
        <time>2021-06-06T09:13:27.000Z</time>
        <extensions>
          <ns3:TrackPointExtension>
            <ns3:atemp>15.0</ns3:atemp>
          </ns3:TrackPointExtension>
        </extensions>
      </trkpt>
      <trkpt lat="43.0880256928503513336181640625" lon="12.98464148305356502532958984375">
        <ele>1167.5999755859375</ele>
        <time>2021-06-06T09:13:30.000Z</time>
        <extensions>
          <ns3:TrackPointExtension>
            <ns3:atemp>15.0</ns3:atemp>
          </ns3:TrackPointExtension>
        </extensions>
      </trkpt>
      <trkpt lat="43.0880283750593662261962890625" lon="12.9845931194722652435302734375">
        <ele>1166.800048828125</ele>
        <time>2021-06-06T09:13:33.000Z</time>
        <extensions>
          <ns3:TrackPointExtension>
            <ns3:atemp>15.0</ns3:atemp>
          </ns3:TrackPointExtension>
        </extensions>
      </trkpt>
      <trkpt lat="43.08802611194550991058349609375" lon="12.9845518805086612701416015625">
        <ele>1166.5999755859375</ele>
        <time>2021-06-06T09:13:35.000Z</time>
        <extensions>
          <ns3:TrackPointExtension>
            <ns3:atemp>15.0</ns3:atemp>
          </ns3:TrackPointExtension>
        </extensions>
      </trkpt>
      <trkpt lat="43.08803147636353969573974609375" lon="12.9845042712986469268798828125">
        <ele>1166.4000244140625</ele>
        <time>2021-06-06T09:13:37.000Z</time>
        <extensions>
          <ns3:TrackPointExtension>
            <ns3:atemp>15.0</ns3:atemp>
          </ns3:TrackPointExtension>
        </extensions>
      </trkpt>
      <trkpt lat="43.08804698288440704345703125" lon="12.9844652116298675537109375">
        <ele>1166.199951171875</ele>
        <time>2021-06-06T09:13:39.000Z</time>
        <extensions>
          <ns3:TrackPointExtension>
            <ns3:atemp>15.0</ns3:atemp>
          </ns3:TrackPointExtension>
        </extensions>
      </trkpt>
      <trkpt lat="43.088060729205608367919921875" lon="12.98439522273838520050048828125">
        <ele>1165.4000244140625</ele>
        <time>2021-06-06T09:13:42.000Z</time>
        <extensions>
          <ns3:TrackPointExtension>
            <ns3:atemp>15.0</ns3:atemp>
          </ns3:TrackPointExtension>
        </extensions>
      </trkpt>
      <trkpt lat="43.08807271532714366912841796875" lon="12.9843161813914775848388671875">
        <ele>1164.4000244140625</ele>
        <time>2021-06-06T09:13:44.000Z</time>
        <extensions>
          <ns3:TrackPointExtension>
            <ns3:atemp>15.0</ns3:atemp>
          </ns3:TrackPointExtension>
        </extensions>
      </trkpt>
      <trkpt lat="43.0881058238446712493896484375" lon="12.984232865273952484130859375">
        <ele>1163.199951171875</ele>
        <time>2021-06-06T09:13:46.000Z</time>
        <extensions>
          <ns3:TrackPointExtension>
            <ns3:atemp>15.0</ns3:atemp>
          </ns3:TrackPointExtension>
        </extensions>
      </trkpt>
      <trkpt lat="43.088170699775218963623046875" lon="12.9840977489948272705078125">
        <ele>1161.800048828125</ele>
        <time>2021-06-06T09:13:49.000Z</time>
        <extensions>
          <ns3:TrackPointExtension>
            <ns3:atemp>15.0</ns3:atemp>
          </ns3:TrackPointExtension>
        </extensions>
      </trkpt>
      <trkpt lat="43.088220655918121337890625" lon="12.98401384614408016204833984375">
        <ele>1160.5999755859375</ele>
        <time>2021-06-06T09:13:51.000Z</time>
        <extensions>
          <ns3:TrackPointExtension>
            <ns3:atemp>15.0</ns3:atemp>
          </ns3:TrackPointExtension>
        </extensions>
      </trkpt>
      <trkpt lat="43.08827002532780170440673828125" lon="12.98395031131803989410400390625">
        <ele>1158.800048828125</ele>
        <time>2021-06-06T09:13:53.000Z</time>
        <extensions>
          <ns3:TrackPointExtension>
            <ns3:atemp>15.0</ns3:atemp>
          </ns3:TrackPointExtension>
        </extensions>
      </trkpt>
      <trkpt lat="43.0882890522480010986328125" lon="12.983917705714702606201171875">
        <ele>1157.5999755859375</ele>
        <time>2021-06-06T09:13:54.000Z</time>
        <extensions>
          <ns3:TrackPointExtension>
            <ns3:atemp>15.0</ns3:atemp>
          </ns3:TrackPointExtension>
        </extensions>
      </trkpt>
      <trkpt lat="43.08830313384532928466796875" lon="12.9838887043297290802001953125">
        <ele>1156.4000244140625</ele>
        <time>2021-06-06T09:13:55.000Z</time>
        <extensions>
          <ns3:TrackPointExtension>
            <ns3:atemp>15.0</ns3:atemp>
          </ns3:TrackPointExtension>
        </extensions>
      </trkpt>
      <trkpt lat="43.08831545524299144744873046875" lon="12.983860708773136138916015625">
        <ele>1154</ele>
        <time>2021-06-06T09:13:56.000Z</time>
        <extensions>
          <ns3:TrackPointExtension>
            <ns3:atemp>15.0</ns3:atemp>
          </ns3:TrackPointExtension>
        </extensions>
      </trkpt>
      <trkpt lat="43.08833071030676364898681640625" lon="12.98383329994976520538330078125">
        <ele>1152.800048828125</ele>
        <time>2021-06-06T09:13:57.000Z</time>
        <extensions>
          <ns3:TrackPointExtension>
            <ns3:atemp>15.0</ns3:atemp>
          </ns3:TrackPointExtension>
        </extensions>
      </trkpt>
      <trkpt lat="43.0883468873798847198486328125" lon="12.98380681313574314117431640625">
        <ele>1151.800048828125</ele>
        <time>2021-06-06T09:13:58.000Z</time>
        <extensions>
          <ns3:TrackPointExtension>
            <ns3:atemp>15.0</ns3:atemp>
          </ns3:TrackPointExtension>
        </extensions>
      </trkpt>
      <trkpt lat="43.088375218212604522705078125" lon="12.98374445177614688873291015625">
        <ele>1150</ele>
        <time>2021-06-06T09:14:00.000Z</time>
        <extensions>
          <ns3:TrackPointExtension>
            <ns3:atemp>15.0</ns3:atemp>
          </ns3:TrackPointExtension>
        </extensions>
      </trkpt>
      <trkpt lat="43.0883837677538394927978515625" lon="12.98372282646596431732177734375">
        <ele>1149.199951171875</ele>
        <time>2021-06-06T09:14:01.000Z</time>
        <extensions>
          <ns3:TrackPointExtension>
            <ns3:atemp>15.0</ns3:atemp>
          </ns3:TrackPointExtension>
        </extensions>
      </trkpt>
      <trkpt lat="43.0883794091641902923583984375" lon="12.983713187277317047119140625">
        <ele>1148.4000244140625</ele>
        <time>2021-06-06T09:14:02.000Z</time>
        <extensions>
          <ns3:TrackPointExtension>
            <ns3:atemp>15.0</ns3:atemp>
          </ns3:TrackPointExtension>
        </extensions>
      </trkpt>
      <trkpt lat="43.08837312273681163787841796875" lon="12.9836975969374179840087890625">
        <ele>1147.199951171875</ele>
        <time>2021-06-06T09:14:04.000Z</time>
        <extensions>
          <ns3:TrackPointExtension>
            <ns3:atemp>15.0</ns3:atemp>
          </ns3:TrackPointExtension>
        </extensions>
      </trkpt>
      <trkpt lat="43.08837178163230419158935546875" lon="12.98369432799518108367919921875">
        <ele>1146.5999755859375</ele>
        <time>2021-06-06T09:14:05.000Z</time>
        <extensions>
          <ns3:TrackPointExtension>
            <ns3:atemp>15.0</ns3:atemp>
          </ns3:TrackPointExtension>
        </extensions>
      </trkpt>
      <trkpt lat="43.08837018907070159912109375" lon="12.98369114287197589874267578125">
        <ele>1146</ele>
        <time>2021-06-06T09:14:06.000Z</time>
        <extensions>
          <ns3:TrackPointExtension>
            <ns3:atemp>15.0</ns3:atemp>
          </ns3:TrackPointExtension>
        </extensions>
      </trkpt>
      <trkpt lat="43.08837044052779674530029296875" lon="12.98369147814810276031494140625">
        <ele>1144.5999755859375</ele>
        <time>2021-06-06T09:14:08.000Z</time>
        <extensions>
          <ns3:TrackPointExtension>
            <ns3:atemp>15.0</ns3:atemp>
          </ns3:TrackPointExtension>
        </extensions>
      </trkpt>
      <trkpt lat="43.08837094344198703765869140625" lon="12.98369214870035648345947265625">
        <ele>1143.4000244140625</ele>
        <time>2021-06-06T09:14:10.000Z</time>
        <extensions>
          <ns3:TrackPointExtension>
            <ns3:atemp>15.0</ns3:atemp>
          </ns3:TrackPointExtension>
        </extensions>
      </trkpt>
      <trkpt lat="43.088373206555843353271484375" lon="12.98369265161454677581787109375">
        <ele>1142.199951171875</ele>
        <time>2021-06-06T09:14:12.000Z</time>
        <extensions>
          <ns3:TrackPointExtension>
            <ns3:atemp>15.0</ns3:atemp>
          </ns3:TrackPointExtension>
        </extensions>
      </trkpt>
      <trkpt lat="43.08837823569774627685546875" lon="12.98368359915912151336669921875">
        <ele>1141.800048828125</ele>
        <time>2021-06-06T09:14:23.000Z</time>
        <extensions>
          <ns3:TrackPointExtension>
            <ns3:atemp>15.0</ns3:atemp>
          </ns3:TrackPointExtension>
        </extensions>
      </trkpt>
      <trkpt lat="43.08840111829340457916259765625" lon="12.98368426971137523651123046875">
        <ele>1141.800048828125</ele>
        <time>2021-06-06T09:14:31.000Z</time>
        <extensions>
          <ns3:TrackPointExtension>
            <ns3:atemp>15.0</ns3:atemp>
          </ns3:TrackPointExtension>
        </extensions>
      </trkpt>
      <trkpt lat="43.08842559345066547393798828125" lon="12.9836556874215602874755859375">
        <ele>1142</ele>
        <time>2021-06-06T09:14:37.000Z</time>
        <extensions>
          <ns3:TrackPointExtension>
            <ns3:atemp>15.0</ns3:atemp>
          </ns3:TrackPointExtension>
        </extensions>
      </trkpt>
      <trkpt lat="43.08847538195550441741943359375" lon="12.98358771018683910369873046875">
        <ele>1141.800048828125</ele>
        <time>2021-06-06T09:14:43.000Z</time>
        <extensions>
          <ns3:TrackPointExtension>
            <ns3:atemp>15.0</ns3:atemp>
          </ns3:TrackPointExtension>
        </extensions>
      </trkpt>
      <trkpt lat="43.08848560787737369537353515625" lon="12.98357195220887660980224609375">
        <ele>1141.800048828125</ele>
        <time>2021-06-06T09:14:44.000Z</time>
        <extensions>
          <ns3:TrackPointExtension>
            <ns3:atemp>15.0</ns3:atemp>
          </ns3:TrackPointExtension>
        </extensions>
      </trkpt>
      <trkpt lat="43.08851025067269802093505859375" lon="12.9835426993668079376220703125">
        <ele>1141.4000244140625</ele>
        <time>2021-06-06T09:14:46.000Z</time>
        <extensions>
          <ns3:TrackPointExtension>
            <ns3:atemp>15.0</ns3:atemp>
          </ns3:TrackPointExtension>
        </extensions>
      </trkpt>
      <trkpt lat="43.08854193426668643951416015625" lon="12.9835111834108829498291015625">
        <ele>1140.800048828125</ele>
        <time>2021-06-06T09:14:48.000Z</time>
        <extensions>
          <ns3:TrackPointExtension>
            <ns3:atemp>15.0</ns3:atemp>
          </ns3:TrackPointExtension>
        </extensions>
      </trkpt>
      <trkpt lat="43.08860345743596553802490234375" lon="12.98346181400120258331298828125">
        <ele>1139.5999755859375</ele>
        <time>2021-06-06T09:14:51.000Z</time>
        <extensions>
          <ns3:TrackPointExtension>
            <ns3:atemp>15.0</ns3:atemp>
          </ns3:TrackPointExtension>
        </extensions>
      </trkpt>
      <trkpt lat="43.08864352293312549591064453125" lon="12.98342677764594554901123046875">
        <ele>1139</ele>
        <time>2021-06-06T09:14:53.000Z</time>
        <extensions>
          <ns3:TrackPointExtension>
            <ns3:atemp>15.0</ns3:atemp>
          </ns3:TrackPointExtension>
        </extensions>
      </trkpt>
      <trkpt lat="43.088687025010585784912109375" lon="12.983380593359470367431640625">
        <ele>1137.800048828125</ele>
        <time>2021-06-06T09:14:55.000Z</time>
        <extensions>
          <ns3:TrackPointExtension>
            <ns3:atemp>15.0</ns3:atemp>
          </ns3:TrackPointExtension>
        </extensions>
      </trkpt>
      <trkpt lat="43.0887342989444732666015625" lon="12.98332728445529937744140625">
        <ele>1136.800048828125</ele>
        <time>2021-06-06T09:14:57.000Z</time>
        <extensions>
          <ns3:TrackPointExtension>
            <ns3:atemp>15.0</ns3:atemp>
          </ns3:TrackPointExtension>
        </extensions>
      </trkpt>
      <trkpt lat="43.08878995478153228759765625" lon="12.9832741431891918182373046875">
        <ele>1135.800048828125</ele>
        <time>2021-06-06T09:14:59.000Z</time>
        <extensions>
          <ns3:TrackPointExtension>
            <ns3:atemp>15.0</ns3:atemp>
          </ns3:TrackPointExtension>
        </extensions>
      </trkpt>
      <trkpt lat="43.08882071636617183685302734375" lon="12.98324287869036197662353515625">
        <ele>1135.5999755859375</ele>
        <time>2021-06-06T09:15:00.000Z</time>
        <extensions>
          <ns3:TrackPointExtension>
            <ns3:atemp>15.0</ns3:atemp>
          </ns3:TrackPointExtension>
        </extensions>
      </trkpt>
      <trkpt lat="43.0889151804149150848388671875" lon="12.98314757645130157470703125">
        <ele>1134.199951171875</ele>
        <time>2021-06-06T09:15:03.000Z</time>
        <extensions>
          <ns3:TrackPointExtension>
            <ns3:atemp>15.0</ns3:atemp>
          </ns3:TrackPointExtension>
        </extensions>
      </trkpt>
      <trkpt lat="43.088946528732776641845703125" lon="12.98311664722859859466552734375">
        <ele>1133.5999755859375</ele>
        <time>2021-06-06T09:15:04.000Z</time>
        <extensions>
          <ns3:TrackPointExtension>
            <ns3:atemp>15.0</ns3:atemp>
          </ns3:TrackPointExtension>
        </extensions>
      </trkpt>
      <trkpt lat="43.08897796086966991424560546875" lon="12.9830820299685001373291015625">
        <ele>1132.800048828125</ele>
        <time>2021-06-06T09:15:05.000Z</time>
        <extensions>
          <ns3:TrackPointExtension>
            <ns3:atemp>15.0</ns3:atemp>
          </ns3:TrackPointExtension>
        </extensions>
      </trkpt>
      <trkpt lat="43.0890492908656597137451171875" lon="12.98301271162927150726318359375">
        <ele>1131.199951171875</ele>
        <time>2021-06-06T09:15:07.000Z</time>
        <extensions>
          <ns3:TrackPointExtension>
            <ns3:atemp>15.0</ns3:atemp>
          </ns3:TrackPointExtension>
        </extensions>
      </trkpt>
      <trkpt lat="43.08908944018185138702392578125" lon="12.98297365196049213409423828125">
        <ele>1130</ele>
        <time>2021-06-06T09:15:08.000Z</time>
        <extensions>
          <ns3:TrackPointExtension>
            <ns3:atemp>15.0</ns3:atemp>
          </ns3:TrackPointExtension>
        </extensions>
      </trkpt>
      <trkpt lat="43.08918289840221405029296875" lon="12.98289385624229907989501953125">
        <ele>1128</ele>
        <time>2021-06-06T09:15:10.000Z</time>
        <extensions>
          <ns3:TrackPointExtension>
            <ns3:atemp>15.0</ns3:atemp>
          </ns3:TrackPointExtension>
        </extensions>
      </trkpt>
      <trkpt lat="43.08926696889102458953857421875" lon="12.98282328061759471893310546875">
        <ele>1126.5999755859375</ele>
        <time>2021-06-06T09:15:12.000Z</time>
        <extensions>
          <ns3:TrackPointExtension>
            <ns3:atemp>15.0</ns3:atemp>
          </ns3:TrackPointExtension>
        </extensions>
      </trkpt>
      <trkpt lat="43.089347183704376220703125" lon="12.98275890760123729705810546875">
        <ele>1125</ele>
        <time>2021-06-06T09:15:14.000Z</time>
        <extensions>
          <ns3:TrackPointExtension>
            <ns3:atemp>15.0</ns3:atemp>
          </ns3:TrackPointExtension>
        </extensions>
      </trkpt>
      <trkpt lat="43.08938917703926563262939453125" lon="12.98272772692143917083740234375">
        <ele>1124.199951171875</ele>
        <time>2021-06-06T09:15:15.000Z</time>
        <extensions>
          <ns3:TrackPointExtension>
            <ns3:atemp>15.0</ns3:atemp>
          </ns3:TrackPointExtension>
        </extensions>
      </trkpt>
      <trkpt lat="43.08942656032741069793701171875" lon="12.98269436694681644439697265625">
        <ele>1123.5999755859375</ele>
        <time>2021-06-06T09:15:16.000Z</time>
        <extensions>
          <ns3:TrackPointExtension>
            <ns3:atemp>15.0</ns3:atemp>
          </ns3:TrackPointExtension>
        </extensions>
      </trkpt>
      <trkpt lat="43.08951859362423419952392578125" lon="12.9826216958463191986083984375">
        <ele>1121.5999755859375</ele>
        <time>2021-06-06T09:15:18.000Z</time>
        <extensions>
          <ns3:TrackPointExtension>
            <ns3:atemp>15.0</ns3:atemp>
          </ns3:TrackPointExtension>
        </extensions>
      </trkpt>
      <trkpt lat="43.0895719863474369049072265625" lon="12.98258238472044467926025390625">
        <ele>1120.199951171875</ele>
        <time>2021-06-06T09:15:19.000Z</time>
        <extensions>
          <ns3:TrackPointExtension>
            <ns3:atemp>15.0</ns3:atemp>
          </ns3:TrackPointExtension>
        </extensions>
      </trkpt>
      <trkpt lat="43.08967064134776592254638671875" lon="12.98250191844999790191650390625">
        <ele>1118.5999755859375</ele>
        <time>2021-06-06T09:15:21.000Z</time>
        <extensions>
          <ns3:TrackPointExtension>
            <ns3:atemp>15.0</ns3:atemp>
          </ns3:TrackPointExtension>
        </extensions>
      </trkpt>
      <trkpt lat="43.08976829051971435546875" lon="12.9824320971965789794921875">
        <ele>1117</ele>
        <time>2021-06-06T09:15:23.000Z</time>
        <extensions>
          <ns3:TrackPointExtension>
            <ns3:atemp>15.0</ns3:atemp>
          </ns3:TrackPointExtension>
        </extensions>
      </trkpt>
      <trkpt lat="43.0898100323975086212158203125" lon="12.98240435309708118438720703125">
        <ele>1116.4000244140625</ele>
        <time>2021-06-06T09:15:24.000Z</time>
        <extensions>
          <ns3:TrackPointExtension>
            <ns3:atemp>15.0</ns3:atemp>
          </ns3:TrackPointExtension>
        </extensions>
      </trkpt>
      <trkpt lat="43.0898475833237171173095703125" lon="12.98238088376820087432861328125">
        <ele>1114.800048828125</ele>
        <time>2021-06-06T09:15:25.000Z</time>
        <extensions>
          <ns3:TrackPointExtension>
            <ns3:atemp>15.0</ns3:atemp>
          </ns3:TrackPointExtension>
        </extensions>
      </trkpt>
      <trkpt lat="43.0898797698318958282470703125" lon="12.98235992901027202606201171875">
        <ele>1113.5999755859375</ele>
        <time>2021-06-06T09:15:26.000Z</time>
        <extensions>
          <ns3:TrackPointExtension>
            <ns3:atemp>15.0</ns3:atemp>
          </ns3:TrackPointExtension>
        </extensions>
      </trkpt>
      <trkpt lat="43.0899143032729625701904296875" lon="12.98234081827104091644287109375">
        <ele>1112.4000244140625</ele>
        <time>2021-06-06T09:15:27.000Z</time>
        <extensions>
          <ns3:TrackPointExtension>
            <ns3:atemp>15.0</ns3:atemp>
          </ns3:TrackPointExtension>
        </extensions>
      </trkpt>
      <trkpt lat="43.08995160274207592010498046875" lon="12.98232145607471466064453125">
        <ele>1111.4000244140625</ele>
        <time>2021-06-06T09:15:28.000Z</time>
        <extensions>
          <ns3:TrackPointExtension>
            <ns3:atemp>15.0</ns3:atemp>
          </ns3:TrackPointExtension>
        </extensions>
      </trkpt>
      <trkpt lat="43.08998898603022098541259765625" lon="12.98229438252747058868408203125">
        <ele>1110.800048828125</ele>
        <time>2021-06-06T09:15:29.000Z</time>
        <extensions>
          <ns3:TrackPointExtension>
            <ns3:atemp>15.0</ns3:atemp>
          </ns3:TrackPointExtension>
        </extensions>
      </trkpt>
      <trkpt lat="43.09002821333706378936767578125" lon="12.98226169310510158538818359375">
        <ele>1110.199951171875</ele>
        <time>2021-06-06T09:15:30.000Z</time>
        <extensions>
          <ns3:TrackPointExtension>
            <ns3:atemp>15.0</ns3:atemp>
          </ns3:TrackPointExtension>
        </extensions>
      </trkpt>
      <trkpt lat="43.0901141278445720672607421875" lon="12.98214652575552463531494140625">
        <ele>1109</ele>
        <time>2021-06-06T09:15:33.000Z</time>
        <extensions>
          <ns3:TrackPointExtension>
            <ns3:atemp>15.0</ns3:atemp>
          </ns3:TrackPointExtension>
        </extensions>
      </trkpt>
      <trkpt lat="43.090146817266941070556640625" lon="12.9820963181555271148681640625">
        <ele>1108.800048828125</ele>
        <time>2021-06-06T09:15:34.000Z</time>
        <extensions>
          <ns3:TrackPointExtension>
            <ns3:atemp>15.0</ns3:atemp>
          </ns3:TrackPointExtension>
        </extensions>
      </trkpt>
      <trkpt lat="43.0902187339961528778076171875" lon="12.98197536729276180267333984375">
        <ele>1108</ele>
        <time>2021-06-06T09:15:36.000Z</time>
        <extensions>
          <ns3:TrackPointExtension>
            <ns3:atemp>15.0</ns3:atemp>
          </ns3:TrackPointExtension>
        </extensions>
      </trkpt>
      <trkpt lat="43.090296350419521331787109375" lon="12.98185768537223339080810546875">
        <ele>1106.800048828125</ele>
        <time>2021-06-06T09:15:38.000Z</time>
        <extensions>
          <ns3:TrackPointExtension>
            <ns3:atemp>15.0</ns3:atemp>
          </ns3:TrackPointExtension>
        </extensions>
      </trkpt>
      <trkpt lat="43.0903364159166812896728515625" lon="12.9817982576787471771240234375">
        <ele>1105.800048828125</ele>
        <time>2021-06-06T09:15:39.000Z</time>
        <extensions>
          <ns3:TrackPointExtension>
            <ns3:atemp>15.0</ns3:atemp>
          </ns3:TrackPointExtension>
        </extensions>
      </trkpt>
      <trkpt lat="43.0903726257383823394775390625" lon="12.98172826878726482391357421875">
        <ele>1105</ele>
        <time>2021-06-06T09:15:40.000Z</time>
        <extensions>
          <ns3:TrackPointExtension>
            <ns3:atemp>15.0</ns3:atemp>
          </ns3:TrackPointExtension>
        </extensions>
      </trkpt>
      <trkpt lat="43.09043540619313716888427734375" lon="12.98158787190914154052734375">
        <ele>1103.199951171875</ele>
        <time>2021-06-06T09:15:42.000Z</time>
        <extensions>
          <ns3:TrackPointExtension>
            <ns3:atemp>15.0</ns3:atemp>
          </ns3:TrackPointExtension>
        </extensions>
      </trkpt>
      <trkpt lat="43.09046038426458835601806640625" lon="12.98151385970413684844970703125">
        <ele>1102.199951171875</ele>
        <time>2021-06-06T09:15:43.000Z</time>
        <extensions>
          <ns3:TrackPointExtension>
            <ns3:atemp>15.0</ns3:atemp>
          </ns3:TrackPointExtension>
        </extensions>
      </trkpt>
      <trkpt lat="43.090482093393802642822265625" lon="12.9814388416707515716552734375">
        <ele>1100.800048828125</ele>
        <time>2021-06-06T09:15:44.000Z</time>
        <extensions>
          <ns3:TrackPointExtension>
            <ns3:atemp>15.0</ns3:atemp>
          </ns3:TrackPointExtension>
        </extensions>
      </trkpt>
      <trkpt lat="43.090498186647891998291015625" lon="12.98136885277926921844482421875">
        <ele>1099.199951171875</ele>
        <time>2021-06-06T09:15:45.000Z</time>
        <extensions>
          <ns3:TrackPointExtension>
            <ns3:atemp>15.0</ns3:atemp>
          </ns3:TrackPointExtension>
        </extensions>
      </trkpt>
      <trkpt lat="43.090500198304653167724609375" lon="12.981293499469757080078125">
        <ele>1098</ele>
        <time>2021-06-06T09:15:46.000Z</time>
        <extensions>
          <ns3:TrackPointExtension>
            <ns3:atemp>15.0</ns3:atemp>
          </ns3:TrackPointExtension>
        </extensions>
      </trkpt>
      <trkpt lat="43.0904929898679256439208984375" lon="12.98121848143637180328369140625">
        <ele>1097</ele>
        <time>2021-06-06T09:15:47.000Z</time>
        <extensions>
          <ns3:TrackPointExtension>
            <ns3:atemp>15.0</ns3:atemp>
          </ns3:TrackPointExtension>
        </extensions>
      </trkpt>
      <trkpt lat="43.09048083610832691192626953125" lon="12.9811414517462253570556640625">
        <ele>1096</ele>
        <time>2021-06-06T09:15:48.000Z</time>
        <extensions>
          <ns3:TrackPointExtension>
            <ns3:atemp>15.0</ns3:atemp>
          </ns3:TrackPointExtension>
        </extensions>
      </trkpt>
      <trkpt lat="43.0904509127140045166015625" lon="12.98099166713654994964599609375">
        <ele>1094</ele>
        <time>2021-06-06T09:15:50.000Z</time>
        <extensions>
          <ns3:TrackPointExtension>
            <ns3:atemp>15.0</ns3:atemp>
          </ns3:TrackPointExtension>
        </extensions>
      </trkpt>
      <trkpt lat="43.09043440036475658416748046875" lon="12.98092008568346500396728515625">
        <ele>1092.5999755859375</ele>
        <time>2021-06-06T09:15:51.000Z</time>
        <extensions>
          <ns3:TrackPointExtension>
            <ns3:atemp>15.0</ns3:atemp>
          </ns3:TrackPointExtension>
        </extensions>
      </trkpt>
      <trkpt lat="43.0904185585677623748779296875" lon="12.98084883950650691986083984375">
        <ele>1091.5999755859375</ele>
        <time>2021-06-06T09:15:52.000Z</time>
        <extensions>
          <ns3:TrackPointExtension>
            <ns3:atemp>15.0</ns3:atemp>
          </ns3:TrackPointExtension>
        </extensions>
      </trkpt>
      <trkpt lat="43.09040539897978305816650390625" lon="12.98078589141368865966796875">
        <ele>1090.4000244140625</ele>
        <time>2021-06-06T09:15:53.000Z</time>
        <extensions>
          <ns3:TrackPointExtension>
            <ns3:atemp>15.0</ns3:atemp>
          </ns3:TrackPointExtension>
        </extensions>
      </trkpt>
      <trkpt lat="43.09038779698312282562255859375" lon="12.980731241405010223388671875">
        <ele>1089</ele>
        <time>2021-06-06T09:15:54.000Z</time>
        <extensions>
          <ns3:TrackPointExtension>
            <ns3:atemp>15.0</ns3:atemp>
          </ns3:TrackPointExtension>
        </extensions>
      </trkpt>
      <trkpt lat="43.09033281169831752777099609375" lon="12.98068522475659847259521484375">
        <ele>1087.4000244140625</ele>
        <time>2021-06-06T09:15:56.000Z</time>
        <extensions>
          <ns3:TrackPointExtension>
            <ns3:atemp>15.0</ns3:atemp>
          </ns3:TrackPointExtension>
        </extensions>
      </trkpt>
      <trkpt lat="43.09029878117144107818603515625" lon="12.9806962050497531890869140625">
        <ele>1086.4000244140625</ele>
        <time>2021-06-06T09:15:58.000Z</time>
        <extensions>
          <ns3:TrackPointExtension>
            <ns3:atemp>15.0</ns3:atemp>
          </ns3:TrackPointExtension>
        </extensions>
      </trkpt>
      <trkpt lat="43.09029710479080677032470703125" lon="12.98069930635392665863037109375">
        <ele>1086.199951171875</ele>
        <time>2021-06-06T09:15:59.000Z</time>
        <extensions>
          <ns3:TrackPointExtension>
            <ns3:atemp>15.0</ns3:atemp>
          </ns3:TrackPointExtension>
        </extensions>
      </trkpt>
      <trkpt lat="43.09029425494372844696044921875" lon="12.98069712705910205841064453125">
        <ele>1085.800048828125</ele>
        <time>2021-06-06T09:16:09.000Z</time>
        <extensions>
          <ns3:TrackPointExtension>
            <ns3:atemp>15.0</ns3:atemp>
          </ns3:TrackPointExtension>
        </extensions>
      </trkpt>
      <trkpt lat="43.09029408730566501617431640625" lon="12.9806982167065143585205078125">
        <ele>1085.800048828125</ele>
        <time>2021-06-06T09:16:25.000Z</time>
        <extensions>
          <ns3:TrackPointExtension>
            <ns3:atemp>15.0</ns3:atemp>
          </ns3:TrackPointExtension>
        </extensions>
      </trkpt>
      <trkpt lat="43.090293668210506439208984375" lon="12.9806978814303874969482421875">
        <ele>1085.800048828125</ele>
        <time>2021-06-06T09:16:40.000Z</time>
        <extensions>
          <ns3:TrackPointExtension>
            <ns3:atemp>15.0</ns3:atemp>
          </ns3:TrackPointExtension>
        </extensions>
      </trkpt>
      <trkpt lat="43.09029408730566501617431640625" lon="12.9806993901729583740234375">
        <ele>1085.5999755859375</ele>
        <time>2021-06-06T09:17:03.000Z</time>
        <extensions>
          <ns3:TrackPointExtension>
            <ns3:atemp>16.0</ns3:atemp>
          </ns3:TrackPointExtension>
        </extensions>
      </trkpt>
      <trkpt lat="43.0902938358485698699951171875" lon="12.98069997690618038177490234375">
        <ele>1085.199951171875</ele>
        <time>2021-06-06T09:17:36.000Z</time>
        <extensions>
          <ns3:TrackPointExtension>
            <ns3:atemp>16.0</ns3:atemp>
          </ns3:TrackPointExtension>
        </extensions>
      </trkpt>
      <trkpt lat="43.09029408730566501617431640625" lon="12.98069947399199008941650390625">
        <ele>1085.199951171875</ele>
        <time>2021-06-06T09:17:42.000Z</time>
        <extensions>
          <ns3:TrackPointExtension>
            <ns3:atemp>16.0</ns3:atemp>
          </ns3:TrackPointExtension>
        </extensions>
      </trkpt>
      <trkpt lat="43.090294338762760162353515625" lon="12.980699725449085235595703125">
        <ele>1085</ele>
        <time>2021-06-06T09:17:43.000Z</time>
        <extensions>
          <ns3:TrackPointExtension>
            <ns3:atemp>16.0</ns3:atemp>
          </ns3:TrackPointExtension>
        </extensions>
      </trkpt>
      <trkpt lat="43.090294338762760162353515625" lon="12.9807007312774658203125">
        <ele>1085</ele>
        <time>2021-06-06T09:17:58.000Z</time>
        <extensions>
          <ns3:TrackPointExtension>
            <ns3:atemp>16.0</ns3:atemp>
          </ns3:TrackPointExtension>
        </extensions>
      </trkpt>
      <trkpt lat="43.09029442258179187774658203125" lon="12.980701737105846405029296875">
        <ele>1085</ele>
        <time>2021-06-06T09:18:27.000Z</time>
        <extensions>
          <ns3:TrackPointExtension>
            <ns3:atemp>17.0</ns3:atemp>
          </ns3:TrackPointExtension>
        </extensions>
      </trkpt>
      <trkpt lat="43.0902753956615924835205078125" lon="12.98069394193589687347412109375">
        <ele>1084.800048828125</ele>
        <time>2021-06-06T09:18:35.000Z</time>
        <extensions>
          <ns3:TrackPointExtension>
            <ns3:atemp>17.0</ns3:atemp>
          </ns3:TrackPointExtension>
        </extensions>
      </trkpt>
      <trkpt lat="43.09027321636676788330078125" lon="12.980707772076129913330078125">
        <ele>1084.800048828125</ele>
        <time>2021-06-06T09:18:36.000Z</time>
        <extensions>
          <ns3:TrackPointExtension>
            <ns3:atemp>17.0</ns3:atemp>
          </ns3:TrackPointExtension>
        </extensions>
      </trkpt>
      <trkpt lat="43.09025100432336330413818359375" lon="12.98075831495225429534912109375">
        <ele>1084.800048828125</ele>
        <time>2021-06-06T09:18:39.000Z</time>
        <extensions>
          <ns3:TrackPointExtension>
            <ns3:atemp>17.0</ns3:atemp>
          </ns3:TrackPointExtension>
        </extensions>
      </trkpt>
      <trkpt lat="43.090159893035888671875" lon="12.98087415285408496856689453125">
        <ele>1084.5999755859375</ele>
        <time>2021-06-06T09:18:44.000Z</time>
        <extensions>
          <ns3:TrackPointExtension>
            <ns3:atemp>17.0</ns3:atemp>
          </ns3:TrackPointExtension>
        </extensions>
      </trkpt>
      <trkpt lat="43.09001161716878414154052734375" lon="12.9809972830116748809814453125">
        <ele>1084.4000244140625</ele>
        <time>2021-06-06T09:18:49.000Z</time>
        <extensions>
          <ns3:TrackPointExtension>
            <ns3:atemp>17.0</ns3:atemp>
          </ns3:TrackPointExtension>
        </extensions>
      </trkpt>
      <trkpt lat="43.08995403349399566650390625" lon="12.98103491775691509246826171875">
        <ele>1083.5999755859375</ele>
        <time>2021-06-06T09:18:51.000Z</time>
        <extensions>
          <ns3:TrackPointExtension>
            <ns3:atemp>17.0</ns3:atemp>
          </ns3:TrackPointExtension>
        </extensions>
      </trkpt>
      <trkpt lat="43.089863173663616180419921875" lon="12.9810774140059947967529296875">
        <ele>1082</ele>
        <time>2021-06-06T09:18:54.000Z</time>
        <extensions>
          <ns3:TrackPointExtension>
            <ns3:atemp>17.0</ns3:atemp>
          </ns3:TrackPointExtension>
        </extensions>
      </trkpt>
      <trkpt lat="43.08982537128031253814697265625" lon="12.9810814373195171356201171875">
        <ele>1081.5999755859375</ele>
        <time>2021-06-06T09:18:55.000Z</time>
        <extensions>
          <ns3:TrackPointExtension>
            <ns3:atemp>17.0</ns3:atemp>
          </ns3:TrackPointExtension>
        </extensions>
      </trkpt>
      <trkpt lat="43.08978530578315258026123046875" lon="12.98108034767210483551025390625">
        <ele>1081</ele>
        <time>2021-06-06T09:18:56.000Z</time>
        <extensions>
          <ns3:TrackPointExtension>
            <ns3:atemp>17.0</ns3:atemp>
          </ns3:TrackPointExtension>
        </extensions>
      </trkpt>
      <trkpt lat="43.08970098383724689483642578125" lon="12.98106391914188861846923828125">
        <ele>1079.5999755859375</ele>
        <time>2021-06-06T09:18:58.000Z</time>
        <extensions>
          <ns3:TrackPointExtension>
            <ns3:atemp>17.0</ns3:atemp>
          </ns3:TrackPointExtension>
        </extensions>
      </trkpt>
      <trkpt lat="43.0896236188709735870361328125" lon="12.9810395278036594390869140625">
        <ele>1078.4000244140625</ele>
        <time>2021-06-06T09:19:00.000Z</time>
        <extensions>
          <ns3:TrackPointExtension>
            <ns3:atemp>17.0</ns3:atemp>
          </ns3:TrackPointExtension>
        </extensions>
      </trkpt>
      <trkpt lat="43.08954642154276371002197265625" lon="12.98101211898028850555419921875">
        <ele>1076.800048828125</ele>
        <time>2021-06-06T09:19:02.000Z</time>
        <extensions>
          <ns3:TrackPointExtension>
            <ns3:atemp>17.0</ns3:atemp>
          </ns3:TrackPointExtension>
        </extensions>
      </trkpt>
      <trkpt lat="43.08945539407432079315185546875" lon="12.9809872247278690338134765625">
        <ele>1075.199951171875</ele>
        <time>2021-06-06T09:19:04.000Z</time>
        <extensions>
          <ns3:TrackPointExtension>
            <ns3:atemp>17.0</ns3:atemp>
          </ns3:TrackPointExtension>
        </extensions>
      </trkpt>
      <trkpt lat="43.08935330249369144439697265625" lon="12.98098831437528133392333984375">
        <ele>1073.199951171875</ele>
        <time>2021-06-06T09:19:06.000Z</time>
        <extensions>
          <ns3:TrackPointExtension>
            <ns3:atemp>17.0</ns3:atemp>
          </ns3:TrackPointExtension>
        </extensions>
      </trkpt>
      <trkpt lat="43.089299239218235015869140625" lon="12.9809982888400554656982421875">
        <ele>1072</ele>
        <time>2021-06-06T09:19:07.000Z</time>
        <extensions>
          <ns3:TrackPointExtension>
            <ns3:atemp>17.0</ns3:atemp>
          </ns3:TrackPointExtension>
        </extensions>
      </trkpt>
      <trkpt lat="43.08919639326632022857666015625" lon="12.98103475011885166168212890625">
        <ele>1070.4000244140625</ele>
        <time>2021-06-06T09:19:09.000Z</time>
        <extensions>
          <ns3:TrackPointExtension>
            <ns3:atemp>17.0</ns3:atemp>
          </ns3:TrackPointExtension>
        </extensions>
      </trkpt>
      <trkpt lat="43.08915012516081333160400390625" lon="12.98105704598128795623779296875">
        <ele>1069.4000244140625</ele>
        <time>2021-06-06T09:19:10.000Z</time>
        <extensions>
          <ns3:TrackPointExtension>
            <ns3:atemp>17.0</ns3:atemp>
          </ns3:TrackPointExtension>
        </extensions>
      </trkpt>
      <trkpt lat="43.08910704217851161956787109375" lon="12.98108034767210483551025390625">
        <ele>1068.5999755859375</ele>
        <time>2021-06-06T09:19:11.000Z</time>
        <extensions>
          <ns3:TrackPointExtension>
            <ns3:atemp>17.0</ns3:atemp>
          </ns3:TrackPointExtension>
        </extensions>
      </trkpt>
      <trkpt lat="43.08902992866933345794677734375" lon="12.98111806623637676239013671875">
        <ele>1066.800048828125</ele>
        <time>2021-06-06T09:19:13.000Z</time>
        <extensions>
          <ns3:TrackPointExtension>
            <ns3:atemp>17.0</ns3:atemp>
          </ns3:TrackPointExtension>
        </extensions>
      </trkpt>
      <trkpt lat="43.08899070136249065399169921875" lon="12.98111974261701107025146484375">
        <ele>1065.5999755859375</ele>
        <time>2021-06-06T09:19:14.000Z</time>
        <extensions>
          <ns3:TrackPointExtension>
            <ns3:atemp>17.0</ns3:atemp>
          </ns3:TrackPointExtension>
        </extensions>
      </trkpt>
      <trkpt lat="43.08894812129437923431396484375" lon="12.9811176471412181854248046875">
        <ele>1064.800048828125</ele>
        <time>2021-06-06T09:19:15.000Z</time>
        <extensions>
          <ns3:TrackPointExtension>
            <ns3:atemp>17.0</ns3:atemp>
          </ns3:TrackPointExtension>
        </extensions>
      </trkpt>
      <trkpt lat="43.0889046192169189453125" lon="12.98111622221767902374267578125">
        <ele>1064</ele>
        <time>2021-06-06T09:19:16.000Z</time>
        <extensions>
          <ns3:TrackPointExtension>
            <ns3:atemp>17.0</ns3:atemp>
          </ns3:TrackPointExtension>
        </extensions>
      </trkpt>
      <trkpt lat="43.0888109095394611358642578125" lon="12.98110985197126865386962890625">
        <ele>1063</ele>
        <time>2021-06-06T09:19:18.000Z</time>
        <extensions>
          <ns3:TrackPointExtension>
            <ns3:atemp>17.0</ns3:atemp>
          </ns3:TrackPointExtension>
        </extensions>
      </trkpt>
      <trkpt lat="43.08876447379589080810546875" lon="12.98109945841133594512939453125">
        <ele>1062.800048828125</ele>
        <time>2021-06-06T09:19:19.000Z</time>
        <extensions>
          <ns3:TrackPointExtension>
            <ns3:atemp>17.0</ns3:atemp>
          </ns3:TrackPointExtension>
        </extensions>
      </trkpt>
      <trkpt lat="43.088668920099735260009765625" lon="12.9810613207519054412841796875">
        <ele>1062.5999755859375</ele>
        <time>2021-06-06T09:19:21.000Z</time>
        <extensions>
          <ns3:TrackPointExtension>
            <ns3:atemp>17.0</ns3:atemp>
          </ns3:TrackPointExtension>
        </extensions>
      </trkpt>
      <trkpt lat="43.08857630006968975067138671875" lon="12.98101253807544708251953125">
        <ele>1061.5999755859375</ele>
        <time>2021-06-06T09:19:23.000Z</time>
        <extensions>
          <ns3:TrackPointExtension>
            <ns3:atemp>17.0</ns3:atemp>
          </ns3:TrackPointExtension>
        </extensions>
      </trkpt>
      <trkpt lat="43.08843187987804412841796875" lon="12.9809570498764514923095703125">
        <ele>1060.199951171875</ele>
        <time>2021-06-06T09:19:26.000Z</time>
        <extensions>
          <ns3:TrackPointExtension>
            <ns3:atemp>17.0</ns3:atemp>
          </ns3:TrackPointExtension>
        </extensions>
      </trkpt>
      <trkpt lat="43.08838234283030033111572265625" lon="12.98094389028847217559814453125">
        <ele>1059.5999755859375</ele>
        <time>2021-06-06T09:19:27.000Z</time>
        <extensions>
          <ns3:TrackPointExtension>
            <ns3:atemp>17.0</ns3:atemp>
          </ns3:TrackPointExtension>
        </extensions>
      </trkpt>
      <trkpt lat="43.08833674527704715728759765625" lon="12.98093651421368122100830078125">
        <ele>1058.800048828125</ele>
        <time>2021-06-06T09:19:28.000Z</time>
        <extensions>
          <ns3:TrackPointExtension>
            <ns3:atemp>17.0</ns3:atemp>
          </ns3:TrackPointExtension>
        </extensions>
      </trkpt>
      <trkpt lat="43.08824202977120876312255859375" lon="12.98094104044139385223388671875">
        <ele>1057.4000244140625</ele>
        <time>2021-06-06T09:19:30.000Z</time>
        <extensions>
          <ns3:TrackPointExtension>
            <ns3:atemp>17.0</ns3:atemp>
          </ns3:TrackPointExtension>
        </extensions>
      </trkpt>
      <trkpt lat="43.08819173835217952728271484375" lon="12.98094942234456539154052734375">
        <ele>1056.5999755859375</ele>
        <time>2021-06-06T09:19:31.000Z</time>
        <extensions>
          <ns3:TrackPointExtension>
            <ns3:atemp>17.0</ns3:atemp>
          </ns3:TrackPointExtension>
        </extensions>
      </trkpt>
      <trkpt lat="43.08814412914216518402099609375" lon="12.98096157610416412353515625">
        <ele>1055.5999755859375</ele>
        <time>2021-06-06T09:19:32.000Z</time>
        <extensions>
          <ns3:TrackPointExtension>
            <ns3:atemp>17.0</ns3:atemp>
          </ns3:TrackPointExtension>
        </extensions>
      </trkpt>
      <trkpt lat="43.08809970505535602569580078125" lon="12.98096886835992336273193359375">
        <ele>1054.5999755859375</ele>
        <time>2021-06-06T09:19:33.000Z</time>
        <extensions>
          <ns3:TrackPointExtension>
            <ns3:atemp>17.0</ns3:atemp>
          </ns3:TrackPointExtension>
        </extensions>
      </trkpt>
      <trkpt lat="43.0880629085004329681396484375" lon="12.98096752725541591644287109375">
        <ele>1053.800048828125</ele>
        <time>2021-06-06T09:19:34.000Z</time>
        <extensions>
          <ns3:TrackPointExtension>
            <ns3:atemp>17.0</ns3:atemp>
          </ns3:TrackPointExtension>
        </extensions>
      </trkpt>
      <trkpt lat="43.08802661485970020294189453125" lon="12.9809610731899738311767578125">
        <ele>1052.800048828125</ele>
        <time>2021-06-06T09:19:35.000Z</time>
        <extensions>
          <ns3:TrackPointExtension>
            <ns3:atemp>17.0</ns3:atemp>
          </ns3:TrackPointExtension>
        </extensions>
      </trkpt>
      <trkpt lat="43.0879871360957622528076171875" lon="12.9809580557048320770263671875">
        <ele>1052</ele>
        <time>2021-06-06T09:19:36.000Z</time>
        <extensions>
          <ns3:TrackPointExtension>
            <ns3:atemp>17.0</ns3:atemp>
          </ns3:TrackPointExtension>
        </extensions>
      </trkpt>
      <trkpt lat="43.08791480027139186859130859375" lon="12.980950511991977691650390625">
        <ele>1051</ele>
        <time>2021-06-06T09:19:38.000Z</time>
        <extensions>
          <ns3:TrackPointExtension>
            <ns3:atemp>17.0</ns3:atemp>
          </ns3:TrackPointExtension>
        </extensions>
      </trkpt>
      <trkpt lat="43.08787574060261249542236328125" lon="12.9809302277863025665283203125">
        <ele>1050.5999755859375</ele>
        <time>2021-06-06T09:19:39.000Z</time>
        <extensions>
          <ns3:TrackPointExtension>
            <ns3:atemp>17.0</ns3:atemp>
          </ns3:TrackPointExtension>
        </extensions>
      </trkpt>
      <trkpt lat="43.08783768676221370697021484375" lon="12.98090214841067790985107421875">
        <ele>1049.800048828125</ele>
        <time>2021-06-06T09:19:40.000Z</time>
        <extensions>
          <ns3:TrackPointExtension>
            <ns3:atemp>17.0</ns3:atemp>
          </ns3:TrackPointExtension>
        </extensions>
      </trkpt>
      <trkpt lat="43.0877668596804141998291015625" lon="12.98084045760333538055419921875">
        <ele>1048.800048828125</ele>
        <time>2021-06-06T09:19:42.000Z</time>
        <extensions>
          <ns3:TrackPointExtension>
            <ns3:atemp>17.0</ns3:atemp>
          </ns3:TrackPointExtension>
        </extensions>
      </trkpt>
      <trkpt lat="43.08772855438292026519775390625" lon="12.9808155633509159088134765625">
        <ele>1048.199951171875</ele>
        <time>2021-06-06T09:19:43.000Z</time>
        <extensions>
          <ns3:TrackPointExtension>
            <ns3:atemp>17.0</ns3:atemp>
          </ns3:TrackPointExtension>
        </extensions>
      </trkpt>
      <trkpt lat="43.08763987384736537933349609375" lon="12.980756722390651702880859375">
        <ele>1047.4000244140625</ele>
        <time>2021-06-06T09:19:45.000Z</time>
        <extensions>
          <ns3:TrackPointExtension>
            <ns3:atemp>17.0</ns3:atemp>
          </ns3:TrackPointExtension>
        </extensions>
      </trkpt>
      <trkpt lat="43.08760039508342742919921875" lon="12.98073333688080310821533203125">
        <ele>1047</ele>
        <time>2021-06-06T09:19:46.000Z</time>
        <extensions>
          <ns3:TrackPointExtension>
            <ns3:atemp>17.0</ns3:atemp>
          </ns3:TrackPointExtension>
        </extensions>
      </trkpt>
      <trkpt lat="43.0875519476830959320068359375" lon="12.980719171464443206787109375">
        <ele>1046.199951171875</ele>
        <time>2021-06-06T09:19:47.000Z</time>
        <extensions>
          <ns3:TrackPointExtension>
            <ns3:atemp>17.0</ns3:atemp>
          </ns3:TrackPointExtension>
        </extensions>
      </trkpt>
      <trkpt lat="43.08745932765305042266845703125" lon="12.9806854762136936187744140625">
        <ele>1044.199951171875</ele>
        <time>2021-06-06T09:19:49.000Z</time>
        <extensions>
          <ns3:TrackPointExtension>
            <ns3:atemp>17.0</ns3:atemp>
          </ns3:TrackPointExtension>
        </extensions>
      </trkpt>
      <trkpt lat="43.0874188430607318878173828125" lon="12.98066058196127414703369140625">
        <ele>1042.4000244140625</ele>
        <time>2021-06-06T09:19:50.000Z</time>
        <extensions>
          <ns3:TrackPointExtension>
            <ns3:atemp>17.0</ns3:atemp>
          </ns3:TrackPointExtension>
        </extensions>
      </trkpt>
      <trkpt lat="43.08734717778861522674560546875" lon="12.98062403686344623565673828125">
        <ele>1040.5999755859375</ele>
        <time>2021-06-06T09:19:52.000Z</time>
        <extensions>
          <ns3:TrackPointExtension>
            <ns3:atemp>17.0</ns3:atemp>
          </ns3:TrackPointExtension>
        </extensions>
      </trkpt>
      <trkpt lat="43.08728431351482868194580078125" lon="12.98056737519800662994384765625">
        <ele>1039</ele>
        <time>2021-06-06T09:19:54.000Z</time>
        <extensions>
          <ns3:TrackPointExtension>
            <ns3:atemp>17.0</ns3:atemp>
          </ns3:TrackPointExtension>
        </extensions>
      </trkpt>
      <trkpt lat="43.08724743314087390899658203125" lon="12.98053435049951076507568359375">
        <ele>1038</ele>
        <time>2021-06-06T09:19:55.000Z</time>
        <extensions>
          <ns3:TrackPointExtension>
            <ns3:atemp>17.0</ns3:atemp>
          </ns3:TrackPointExtension>
        </extensions>
      </trkpt>
      <trkpt lat="43.08720451779663562774658203125" lon="12.98050828278064727783203125">
        <ele>1037.4000244140625</ele>
        <time>2021-06-06T09:19:56.000Z</time>
        <extensions>
          <ns3:TrackPointExtension>
            <ns3:atemp>17.0</ns3:atemp>
          </ns3:TrackPointExtension>
        </extensions>
      </trkpt>
      <trkpt lat="43.0871204473078250885009765625" lon="12.98047064803540706634521484375">
        <ele>1036.4000244140625</ele>
        <time>2021-06-06T09:19:58.000Z</time>
        <extensions>
          <ns3:TrackPointExtension>
            <ns3:atemp>17.0</ns3:atemp>
          </ns3:TrackPointExtension>
        </extensions>
      </trkpt>
      <trkpt lat="43.08708515949547290802001953125" lon="12.98045807518064975738525390625">
        <ele>1036.199951171875</ele>
        <time>2021-06-06T09:19:59.000Z</time>
        <extensions>
          <ns3:TrackPointExtension>
            <ns3:atemp>17.0</ns3:atemp>
          </ns3:TrackPointExtension>
        </extensions>
      </trkpt>
      <trkpt lat="43.08703989721834659576416015625" lon="12.9804487712681293487548828125">
        <ele>1035.800048828125</ele>
        <time>2021-06-06T09:20:00.000Z</time>
        <extensions>
          <ns3:TrackPointExtension>
            <ns3:atemp>17.0</ns3:atemp>
          </ns3:TrackPointExtension>
        </extensions>
      </trkpt>
      <trkpt lat="43.0869524739682674407958984375" lon="12.9804360307753086090087890625">
        <ele>1035</ele>
        <time>2021-06-06T09:20:02.000Z</time>
        <extensions>
          <ns3:TrackPointExtension>
            <ns3:atemp>17.0</ns3:atemp>
          </ns3:TrackPointExtension>
        </extensions>
      </trkpt>
      <trkpt lat="43.0869135819375514984130859375" lon="12.9804239608347415924072265625">
        <ele>1034</ele>
        <time>2021-06-06T09:20:03.000Z</time>
        <extensions>
          <ns3:TrackPointExtension>
            <ns3:atemp>17.0</ns3:atemp>
          </ns3:TrackPointExtension>
        </extensions>
      </trkpt>
      <trkpt lat="43.08686991222202777862548828125" lon="12.9804102145135402679443359375">
        <ele>1032.5999755859375</ele>
        <time>2021-06-06T09:20:04.000Z</time>
        <extensions>
          <ns3:TrackPointExtension>
            <ns3:atemp>17.0</ns3:atemp>
          </ns3:TrackPointExtension>
        </extensions>
      </trkpt>
      <trkpt lat="43.08682163245975971221923828125" lon="12.98039135523140430450439453125">
        <ele>1031.5999755859375</ele>
        <time>2021-06-06T09:20:05.000Z</time>
        <extensions>
          <ns3:TrackPointExtension>
            <ns3:atemp>17.0</ns3:atemp>
          </ns3:TrackPointExtension>
        </extensions>
      </trkpt>
      <trkpt lat="43.08670730330049991607666015625" lon="12.98035313375294208526611328125">
        <ele>1030.4000244140625</ele>
        <time>2021-06-06T09:20:07.000Z</time>
        <extensions>
          <ns3:TrackPointExtension>
            <ns3:atemp>17.0</ns3:atemp>
          </ns3:TrackPointExtension>
        </extensions>
      </trkpt>
      <trkpt lat="43.08664393611252307891845703125" lon="12.98033419065177440643310546875">
        <ele>1030</ele>
        <time>2021-06-06T09:20:08.000Z</time>
        <extensions>
          <ns3:TrackPointExtension>
            <ns3:atemp>17.0</ns3:atemp>
          </ns3:TrackPointExtension>
        </extensions>
      </trkpt>
      <trkpt lat="43.08658258058130741119384765625" lon="12.9803183488547801971435546875">
        <ele>1029.199951171875</ele>
        <time>2021-06-06T09:20:09.000Z</time>
        <extensions>
          <ns3:TrackPointExtension>
            <ns3:atemp>17.0</ns3:atemp>
          </ns3:TrackPointExtension>
        </extensions>
      </trkpt>
      <trkpt lat="43.0865303613245487213134765625" lon="12.98031290061771869659423828125">
        <ele>1028</ele>
        <time>2021-06-06T09:20:10.000Z</time>
        <extensions>
          <ns3:TrackPointExtension>
            <ns3:atemp>17.0</ns3:atemp>
          </ns3:TrackPointExtension>
        </extensions>
      </trkpt>
      <trkpt lat="43.086417876183986663818359375" lon="12.98030569218099117279052734375">
        <ele>1026</ele>
        <time>2021-06-06T09:20:12.000Z</time>
        <extensions>
          <ns3:TrackPointExtension>
            <ns3:atemp>17.0</ns3:atemp>
          </ns3:TrackPointExtension>
        </extensions>
      </trkpt>
      <trkpt lat="43.08636263944208621978759765625" lon="12.98030468635261058807373046875">
        <ele>1025</ele>
        <time>2021-06-06T09:20:13.000Z</time>
        <extensions>
          <ns3:TrackPointExtension>
            <ns3:atemp>17.0</ns3:atemp>
          </ns3:TrackPointExtension>
        </extensions>
      </trkpt>
      <trkpt lat="43.0863104201853275299072265625" lon="12.98030912876129150390625">
        <ele>1023.79998779296875</ele>
        <time>2021-06-06T09:20:14.000Z</time>
        <extensions>
          <ns3:TrackPointExtension>
            <ns3:atemp>17.0</ns3:atemp>
          </ns3:TrackPointExtension>
        </extensions>
      </trkpt>
      <trkpt lat="43.086256943643093109130859375" lon="12.980309464037418365478515625">
        <ele>1022.4000244140625</ele>
        <time>2021-06-06T09:20:15.000Z</time>
        <extensions>
          <ns3:TrackPointExtension>
            <ns3:atemp>17.0</ns3:atemp>
          </ns3:TrackPointExtension>
        </extensions>
      </trkpt>
      <trkpt lat="43.0862017907202243804931640625" lon="12.9803119786083698272705078125">
        <ele>1020.5999755859375</ele>
        <time>2021-06-06T09:20:16.000Z</time>
        <extensions>
          <ns3:TrackPointExtension>
            <ns3:atemp>17.0</ns3:atemp>
          </ns3:TrackPointExtension>
        </extensions>
      </trkpt>
      <trkpt lat="43.08614370413124561309814453125" lon="12.98031642101705074310302734375">
        <ele>1019.20001220703125</ele>
        <time>2021-06-06T09:20:17.000Z</time>
        <extensions>
          <ns3:TrackPointExtension>
            <ns3:atemp>17.0</ns3:atemp>
          </ns3:TrackPointExtension>
        </extensions>
      </trkpt>
      <trkpt lat="43.08608788065612316131591796875" lon="12.9803156666457653045654296875">
        <ele>1018</ele>
        <time>2021-06-06T09:20:18.000Z</time>
        <extensions>
          <ns3:TrackPointExtension>
            <ns3:atemp>17.0</ns3:atemp>
          </ns3:TrackPointExtension>
        </extensions>
      </trkpt>
      <trkpt lat="43.08603339828550815582275390625" lon="12.98031189478933811187744140625">
        <ele>1016.4000244140625</ele>
        <time>2021-06-06T09:20:19.000Z</time>
        <extensions>
          <ns3:TrackPointExtension>
            <ns3:atemp>17.0</ns3:atemp>
          </ns3:TrackPointExtension>
        </extensions>
      </trkpt>
      <trkpt lat="43.08592292480170726776123046875" lon="12.9803210310637950897216796875">
        <ele>1015.20001220703125</ele>
        <time>2021-06-06T09:20:21.000Z</time>
        <extensions>
          <ns3:TrackPointExtension>
            <ns3:atemp>17.0</ns3:atemp>
          </ns3:TrackPointExtension>
        </extensions>
      </trkpt>
      <trkpt lat="43.08586995117366313934326171875" lon="12.98033167608082294464111328125">
        <ele>1014.5999755859375</ele>
        <time>2021-06-06T09:20:22.000Z</time>
        <extensions>
          <ns3:TrackPointExtension>
            <ns3:atemp>17.0</ns3:atemp>
          </ns3:TrackPointExtension>
        </extensions>
      </trkpt>
      <trkpt lat="43.0858242698013782501220703125" lon="12.98035003244876861572265625">
        <ele>1014</ele>
        <time>2021-06-06T09:20:23.000Z</time>
        <extensions>
          <ns3:TrackPointExtension>
            <ns3:atemp>17.0</ns3:atemp>
          </ns3:TrackPointExtension>
        </extensions>
      </trkpt>
      <trkpt lat="43.08575361035764217376708984375" lon="12.980381883680820465087890625">
        <ele>1012.5999755859375</ele>
        <time>2021-06-06T09:20:25.000Z</time>
        <extensions>
          <ns3:TrackPointExtension>
            <ns3:atemp>17.0</ns3:atemp>
          </ns3:TrackPointExtension>
        </extensions>
      </trkpt>
      <trkpt lat="43.08567523956298828125" lon="12.98042102716863155364990234375">
        <ele>1011</ele>
        <time>2021-06-06T09:20:27.000Z</time>
        <extensions>
          <ns3:TrackPointExtension>
            <ns3:atemp>17.0</ns3:atemp>
          </ns3:TrackPointExtension>
        </extensions>
      </trkpt>
      <trkpt lat="43.085636682808399200439453125" lon="12.98045338131487369537353515625">
        <ele>1010.20001220703125</ele>
        <time>2021-06-06T09:20:28.000Z</time>
        <extensions>
          <ns3:TrackPointExtension>
            <ns3:atemp>17.0</ns3:atemp>
          </ns3:TrackPointExtension>
        </extensions>
      </trkpt>
      <trkpt lat="43.0855992995202541351318359375" lon="12.98049193806946277618408203125">
        <ele>1009.4000244140625</ele>
        <time>2021-06-06T09:20:29.000Z</time>
        <extensions>
          <ns3:TrackPointExtension>
            <ns3:atemp>17.0</ns3:atemp>
          </ns3:TrackPointExtension>
        </extensions>
      </trkpt>
      <trkpt lat="43.08553936891257762908935546875" lon="12.98058497719466686248779296875">
        <ele>1008.20001220703125</ele>
        <time>2021-06-06T09:20:31.000Z</time>
        <extensions>
          <ns3:TrackPointExtension>
            <ns3:atemp>17.0</ns3:atemp>
          </ns3:TrackPointExtension>
        </extensions>
      </trkpt>
      <trkpt lat="43.085511960089206695556640625" lon="12.98063526861369609832763671875">
        <ele>1007.79998779296875</ele>
        <time>2021-06-06T09:20:32.000Z</time>
        <extensions>
          <ns3:TrackPointExtension>
            <ns3:atemp>17.0</ns3:atemp>
          </ns3:TrackPointExtension>
        </extensions>
      </trkpt>
      <trkpt lat="43.08549511246383190155029296875" lon="12.98069427721202373504638671875">
        <ele>1007.5999755859375</ele>
        <time>2021-06-06T09:20:33.000Z</time>
        <extensions>
          <ns3:TrackPointExtension>
            <ns3:atemp>17.0</ns3:atemp>
          </ns3:TrackPointExtension>
        </extensions>
      </trkpt>
      <trkpt lat="43.0854604952037334442138671875" lon="12.98081128858029842376708984375">
        <ele>1006.79998779296875</ele>
        <time>2021-06-06T09:20:35.000Z</time>
        <extensions>
          <ns3:TrackPointExtension>
            <ns3:atemp>17.0</ns3:atemp>
          </ns3:TrackPointExtension>
        </extensions>
      </trkpt>
      <trkpt lat="43.0854433961212635040283203125" lon="12.98094523139297962188720703125">
        <ele>1005.5999755859375</ele>
        <time>2021-06-06T09:20:37.000Z</time>
        <extensions>
          <ns3:TrackPointExtension>
            <ns3:atemp>16.0</ns3:atemp>
          </ns3:TrackPointExtension>
        </extensions>
      </trkpt>
      <trkpt lat="43.0854413844645023345947265625" lon="12.98110482282936573028564453125">
        <ele>1004.20001220703125</ele>
        <time>2021-06-06T09:20:39.000Z</time>
        <extensions>
          <ns3:TrackPointExtension>
            <ns3:atemp>16.0</ns3:atemp>
          </ns3:TrackPointExtension>
        </extensions>
      </trkpt>
      <trkpt lat="43.08543794788420200347900390625" lon="12.9812732152640819549560546875">
        <ele>1002.79998779296875</ele>
        <time>2021-06-06T09:20:41.000Z</time>
        <extensions>
          <ns3:TrackPointExtension>
            <ns3:atemp>16.0</ns3:atemp>
          </ns3:TrackPointExtension>
        </extensions>
      </trkpt>
      <trkpt lat="43.0854390375316143035888671875" lon="12.98143255524337291717529296875">
        <ele>1001.5999755859375</ele>
        <time>2021-06-06T09:20:43.000Z</time>
        <extensions>
          <ns3:TrackPointExtension>
            <ns3:atemp>16.0</ns3:atemp>
          </ns3:TrackPointExtension>
        </extensions>
      </trkpt>
      <trkpt lat="43.0854313261806964874267578125" lon="12.98159499652683734893798828125">
        <ele>1000.4000244140625</ele>
        <time>2021-06-06T09:20:45.000Z</time>
        <extensions>
          <ns3:TrackPointExtension>
            <ns3:atemp>16.0</ns3:atemp>
          </ns3:TrackPointExtension>
        </extensions>
      </trkpt>
      <trkpt lat="43.0854229442775249481201171875" lon="12.981668673455715179443359375">
        <ele>999.79998779296875</ele>
        <time>2021-06-06T09:20:46.000Z</time>
        <extensions>
          <ns3:TrackPointExtension>
            <ns3:atemp>16.0</ns3:atemp>
          </ns3:TrackPointExtension>
        </extensions>
      </trkpt>
      <trkpt lat="43.0854081921279430389404296875" lon="12.98174335621297359466552734375">
        <ele>999.4000244140625</ele>
        <time>2021-06-06T09:20:47.000Z</time>
        <extensions>
          <ns3:TrackPointExtension>
            <ns3:atemp>16.0</ns3:atemp>
          </ns3:TrackPointExtension>
        </extensions>
      </trkpt>
      <trkpt lat="43.08537818491458892822265625" lon="12.981913425028324127197265625">
        <ele>997.5999755859375</ele>
        <time>2021-06-06T09:20:49.000Z</time>
        <extensions>
          <ns3:TrackPointExtension>
            <ns3:atemp>16.0</ns3:atemp>
          </ns3:TrackPointExtension>
        </extensions>
      </trkpt>
      <trkpt lat="43.08534457348287105560302734375" lon="12.9820986650884151458740234375">
        <ele>996.5999755859375</ele>
        <time>2021-06-06T09:20:51.000Z</time>
        <extensions>
          <ns3:TrackPointExtension>
            <ns3:atemp>16.0</ns3:atemp>
          </ns3:TrackPointExtension>
        </extensions>
      </trkpt>
      <trkpt lat="43.08530266396701335906982421875" lon="12.982336543500423431396484375">
        <ele>995.4000244140625</ele>
        <time>2021-06-06T09:20:54.000Z</time>
        <extensions>
          <ns3:TrackPointExtension>
            <ns3:atemp>16.0</ns3:atemp>
          </ns3:TrackPointExtension>
        </extensions>
      </trkpt>
      <trkpt lat="43.08529696427285671234130859375" lon="12.98241273500025272369384765625">
        <ele>995.20001220703125</ele>
        <time>2021-06-06T09:20:55.000Z</time>
        <extensions>
          <ns3:TrackPointExtension>
            <ns3:atemp>16.0</ns3:atemp>
          </ns3:TrackPointExtension>
        </extensions>
      </trkpt>
      <trkpt lat="43.085294030606746673583984375" lon="12.98247626982629299163818359375">
        <ele>994.4000244140625</ele>
        <time>2021-06-06T09:20:56.000Z</time>
        <extensions>
          <ns3:TrackPointExtension>
            <ns3:atemp>16.0</ns3:atemp>
          </ns3:TrackPointExtension>
        </extensions>
      </trkpt>
      <trkpt lat="43.085263855755329132080078125" lon="12.98256930895149707794189453125">
        <ele>992.4000244140625</ele>
        <time>2021-06-06T09:20:58.000Z</time>
        <extensions>
          <ns3:TrackPointExtension>
            <ns3:atemp>16.0</ns3:atemp>
          </ns3:TrackPointExtension>
        </extensions>
      </trkpt>
      <trkpt lat="43.0851996503770351409912109375" lon="12.9825999028980731964111328125">
        <ele>991</ele>
        <time>2021-06-06T09:21:00.000Z</time>
        <extensions>
          <ns3:TrackPointExtension>
            <ns3:atemp>16.0</ns3:atemp>
          </ns3:TrackPointExtension>
        </extensions>
      </trkpt>
      <trkpt lat="43.08515598066151142120361328125" lon="12.9825978912413120269775390625">
        <ele>990.20001220703125</ele>
        <time>2021-06-06T09:21:01.000Z</time>
        <extensions>
          <ns3:TrackPointExtension>
            <ns3:atemp>16.0</ns3:atemp>
          </ns3:TrackPointExtension>
        </extensions>
      </trkpt>
      <trkpt lat="43.0851025879383087158203125" lon="12.9825972206890583038330078125">
        <ele>989.5999755859375</ele>
        <time>2021-06-06T09:21:02.000Z</time>
        <extensions>
          <ns3:TrackPointExtension>
            <ns3:atemp>16.0</ns3:atemp>
          </ns3:TrackPointExtension>
        </extensions>
      </trkpt>
      <trkpt lat="43.08498255908489227294921875" lon="12.98259772360324859619140625">
        <ele>988.79998779296875</ele>
        <time>2021-06-06T09:21:04.000Z</time>
        <extensions>
          <ns3:TrackPointExtension>
            <ns3:atemp>16.0</ns3:atemp>
          </ns3:TrackPointExtension>
        </extensions>
      </trkpt>
      <trkpt lat="43.08491609059274196624755859375" lon="12.98261708579957485198974609375">
        <ele>988.4000244140625</ele>
        <time>2021-06-06T09:21:05.000Z</time>
        <extensions>
          <ns3:TrackPointExtension>
            <ns3:atemp>16.0</ns3:atemp>
          </ns3:TrackPointExtension>
        </extensions>
      </trkpt>
      <trkpt lat="43.0847376398742198944091796875" lon="12.982678525149822235107421875">
        <ele>986.5999755859375</ele>
        <time>2021-06-06T09:21:09.000Z</time>
        <extensions>
          <ns3:TrackPointExtension>
            <ns3:atemp>16.0</ns3:atemp>
          </ns3:TrackPointExtension>
        </extensions>
      </trkpt>
      <trkpt lat="43.08461417444050312042236328125" lon="12.98272789455950260162353515625">
        <ele>984.4000244140625</ele>
        <time>2021-06-06T09:21:11.000Z</time>
        <extensions>
          <ns3:TrackPointExtension>
            <ns3:atemp>16.0</ns3:atemp>
          </ns3:TrackPointExtension>
        </extensions>
      </trkpt>
      <trkpt lat="43.08454812504351139068603515625" lon="12.982748262584209442138671875">
        <ele>982.79998779296875</ele>
        <time>2021-06-06T09:21:12.000Z</time>
        <extensions>
          <ns3:TrackPointExtension>
            <ns3:atemp>16.0</ns3:atemp>
          </ns3:TrackPointExtension>
        </extensions>
      </trkpt>
      <trkpt lat="43.08448794297873973846435546875" lon="12.9827673733234405517578125">
        <ele>981.5999755859375</ele>
        <time>2021-06-06T09:21:13.000Z</time>
        <extensions>
          <ns3:TrackPointExtension>
            <ns3:atemp>16.0</ns3:atemp>
          </ns3:TrackPointExtension>
        </extensions>
      </trkpt>
      <trkpt lat="43.08438777923583984375" lon="12.98280349932610988616943359375">
        <ele>980.20001220703125</ele>
        <time>2021-06-06T09:21:15.000Z</time>
        <extensions>
          <ns3:TrackPointExtension>
            <ns3:atemp>16.0</ns3:atemp>
          </ns3:TrackPointExtension>
        </extensions>
      </trkpt>
      <trkpt lat="43.08436271734535694122314453125" lon="12.98281489871442317962646484375">
        <ele>979.4000244140625</ele>
        <time>2021-06-06T09:21:17.000Z</time>
        <extensions>
          <ns3:TrackPointExtension>
            <ns3:atemp>16.0</ns3:atemp>
          </ns3:TrackPointExtension>
        </extensions>
      </trkpt>
      <trkpt lat="43.08435735292732715606689453125" lon="12.982816994190216064453125">
        <ele>977.79998779296875</ele>
        <time>2021-06-06T09:21:18.000Z</time>
        <extensions>
          <ns3:TrackPointExtension>
            <ns3:atemp>16.0</ns3:atemp>
          </ns3:TrackPointExtension>
        </extensions>
      </trkpt>
      <trkpt lat="43.08435550890862941741943359375" lon="12.98281791619956493377685546875">
        <ele>976</ele>
        <time>2021-06-06T09:21:20.000Z</time>
        <extensions>
          <ns3:TrackPointExtension>
            <ns3:atemp>16.0</ns3:atemp>
          </ns3:TrackPointExtension>
        </extensions>
      </trkpt>
      <trkpt lat="43.08435483835637569427490234375" lon="12.982816658914089202880859375">
        <ele>974.5999755859375</ele>
        <time>2021-06-06T09:21:22.000Z</time>
        <extensions>
          <ns3:TrackPointExtension>
            <ns3:atemp>16.0</ns3:atemp>
          </ns3:TrackPointExtension>
        </extensions>
      </trkpt>
      <trkpt lat="43.084358610212802886962890625" lon="12.9828151501715183258056640625">
        <ele>973.4000244140625</ele>
        <time>2021-06-06T09:21:25.000Z</time>
        <extensions>
          <ns3:TrackPointExtension>
            <ns3:atemp>16.0</ns3:atemp>
          </ns3:TrackPointExtension>
        </extensions>
      </trkpt>
      <trkpt lat="43.08430136181414127349853515625" lon="12.9828372783958911895751953125">
        <ele>973</ele>
        <time>2021-06-06T09:21:33.000Z</time>
        <extensions>
          <ns3:TrackPointExtension>
            <ns3:atemp>16.0</ns3:atemp>
          </ns3:TrackPointExtension>
        </extensions>
      </trkpt>
      <trkpt lat="43.0841931514441967010498046875" lon="12.98293157480657100677490234375">
        <ele>972.79998779296875</ele>
        <time>2021-06-06T09:21:38.000Z</time>
        <extensions>
          <ns3:TrackPointExtension>
            <ns3:atemp>16.0</ns3:atemp>
          </ns3:TrackPointExtension>
        </extensions>
      </trkpt>
      <trkpt lat="43.08408058248460292816162109375" lon="12.98300131224095821380615234375">
        <ele>972.4000244140625</ele>
        <time>2021-06-06T09:21:42.000Z</time>
        <extensions>
          <ns3:TrackPointExtension>
            <ns3:atemp>16.0</ns3:atemp>
          </ns3:TrackPointExtension>
        </extensions>
      </trkpt>
      <trkpt lat="43.08401294052600860595703125" lon="12.98304188065230846405029296875">
        <ele>971.20001220703125</ele>
        <time>2021-06-06T09:21:44.000Z</time>
        <extensions>
          <ns3:TrackPointExtension>
            <ns3:atemp>16.0</ns3:atemp>
          </ns3:TrackPointExtension>
        </extensions>
      </trkpt>
      <trkpt lat="43.08392149396240711212158203125" lon="12.98313793726265430450439453125">
        <ele>969.79998779296875</ele>
        <time>2021-06-06T09:21:47.000Z</time>
        <extensions>
          <ns3:TrackPointExtension>
            <ns3:atemp>16.0</ns3:atemp>
          </ns3:TrackPointExtension>
        </extensions>
      </trkpt>
      <trkpt lat="43.0838940851390361785888671875" lon="12.98316794447600841522216796875">
        <ele>968.79998779296875</ele>
        <time>2021-06-06T09:21:48.000Z</time>
        <extensions>
          <ns3:TrackPointExtension>
            <ns3:atemp>16.0</ns3:atemp>
          </ns3:TrackPointExtension>
        </extensions>
      </trkpt>
      <trkpt lat="43.08385712094604969024658203125" lon="12.9832033999264240264892578125">
        <ele>967.5999755859375</ele>
        <time>2021-06-06T09:21:50.000Z</time>
        <extensions>
          <ns3:TrackPointExtension>
            <ns3:atemp>16.0</ns3:atemp>
          </ns3:TrackPointExtension>
        </extensions>
      </trkpt>
      <trkpt lat="43.08384505100548267364501953125" lon="12.9832194931805133819580078125">
        <ele>966.20001220703125</ele>
        <time>2021-06-06T09:21:52.000Z</time>
        <extensions>
          <ns3:TrackPointExtension>
            <ns3:atemp>16.0</ns3:atemp>
          </ns3:TrackPointExtension>
        </extensions>
      </trkpt>
      <trkpt lat="43.083840943872928619384765625" lon="12.98322829417884349822998046875">
        <ele>965.20001220703125</ele>
        <time>2021-06-06T09:21:54.000Z</time>
        <extensions>
          <ns3:TrackPointExtension>
            <ns3:atemp>16.0</ns3:atemp>
          </ns3:TrackPointExtension>
        </extensions>
      </trkpt>
      <trkpt lat="43.08383985422551631927490234375" lon="12.98323206603527069091796875">
        <ele>963.79998779296875</ele>
        <time>2021-06-06T09:21:56.000Z</time>
        <extensions>
          <ns3:TrackPointExtension>
            <ns3:atemp>16.0</ns3:atemp>
          </ns3:TrackPointExtension>
        </extensions>
      </trkpt>
      <trkpt lat="43.0838285386562347412109375" lon="12.98323608934879302978515625">
        <ele>962.4000244140625</ele>
        <time>2021-06-06T09:21:58.000Z</time>
        <extensions>
          <ns3:TrackPointExtension>
            <ns3:atemp>16.0</ns3:atemp>
          </ns3:TrackPointExtension>
        </extensions>
      </trkpt>
      <trkpt lat="43.08381445705890655517578125" lon="12.9832367599010467529296875">
        <ele>961.4000244140625</ele>
        <time>2021-06-06T09:22:02.000Z</time>
        <extensions>
          <ns3:TrackPointExtension>
            <ns3:atemp>16.0</ns3:atemp>
          </ns3:TrackPointExtension>
        </extensions>
      </trkpt>
      <trkpt lat="43.0838092602789402008056640625" lon="12.983237095177173614501953125">
        <ele>961.20001220703125</ele>
        <time>2021-06-06T09:22:08.000Z</time>
        <extensions>
          <ns3:TrackPointExtension>
            <ns3:atemp>16.0</ns3:atemp>
          </ns3:TrackPointExtension>
        </extensions>
      </trkpt>
      <trkpt lat="43.08372971601784229278564453125" lon="12.9832842014729976654052734375">
        <ele>961</ele>
        <time>2021-06-06T09:22:16.000Z</time>
        <extensions>
          <ns3:TrackPointExtension>
            <ns3:atemp>16.0</ns3:atemp>
          </ns3:TrackPointExtension>
        </extensions>
      </trkpt>
      <trkpt lat="43.083565346896648406982421875" lon="12.983364164829254150390625">
        <ele>960.5999755859375</ele>
        <time>2021-06-06T09:22:21.000Z</time>
        <extensions>
          <ns3:TrackPointExtension>
            <ns3:atemp>16.0</ns3:atemp>
          </ns3:TrackPointExtension>
        </extensions>
      </trkpt>
      <trkpt lat="43.083506338298320770263671875" lon="12.98339056782424449920654296875">
        <ele>960</ele>
        <time>2021-06-06T09:22:23.000Z</time>
        <extensions>
          <ns3:TrackPointExtension>
            <ns3:atemp>16.0</ns3:atemp>
          </ns3:TrackPointExtension>
        </extensions>
      </trkpt>
      <trkpt lat="43.08345344848930835723876953125" lon="12.98343348316848278045654296875">
        <ele>958.79998779296875</ele>
        <time>2021-06-06T09:22:25.000Z</time>
        <extensions>
          <ns3:TrackPointExtension>
            <ns3:atemp>16.0</ns3:atemp>
          </ns3:TrackPointExtension>
        </extensions>
      </trkpt>
      <trkpt lat="43.08341740630567073822021484375" lon="12.98344387672841548919677734375">
        <ele>958.20001220703125</ele>
        <time>2021-06-06T09:22:26.000Z</time>
        <extensions>
          <ns3:TrackPointExtension>
            <ns3:atemp>16.0</ns3:atemp>
          </ns3:TrackPointExtension>
        </extensions>
      </trkpt>
      <trkpt lat="43.08338572271168231964111328125" lon="12.98345192335546016693115234375">
        <ele>957.5999755859375</ele>
        <time>2021-06-06T09:22:27.000Z</time>
        <extensions>
          <ns3:TrackPointExtension>
            <ns3:atemp>16.0</ns3:atemp>
          </ns3:TrackPointExtension>
        </extensions>
      </trkpt>
      <trkpt lat="43.0833350121974945068359375" lon="12.98348645679652690887451171875">
        <ele>956</ele>
        <time>2021-06-06T09:22:29.000Z</time>
        <extensions>
          <ns3:TrackPointExtension>
            <ns3:atemp>16.0</ns3:atemp>
          </ns3:TrackPointExtension>
        </extensions>
      </trkpt>
      <trkpt lat="43.08332537300884723663330078125" lon="12.98350104130804538726806640625">
        <ele>955.4000244140625</ele>
        <time>2021-06-06T09:22:30.000Z</time>
        <extensions>
          <ns3:TrackPointExtension>
            <ns3:atemp>16.0</ns3:atemp>
          </ns3:TrackPointExtension>
        </extensions>
      </trkpt>
      <trkpt lat="43.08332101441919803619384765625" lon="12.9835098423063755035400390625">
        <ele>954.5999755859375</ele>
        <time>2021-06-06T09:22:31.000Z</time>
        <extensions>
          <ns3:TrackPointExtension>
            <ns3:atemp>16.0</ns3:atemp>
          </ns3:TrackPointExtension>
        </extensions>
      </trkpt>
      <trkpt lat="43.08330827392637729644775390625" lon="12.98353088088333606719970703125">
        <ele>953.20001220703125</ele>
        <time>2021-06-06T09:22:33.000Z</time>
        <extensions>
          <ns3:TrackPointExtension>
            <ns3:atemp>15.0</ns3:atemp>
          </ns3:TrackPointExtension>
        </extensions>
      </trkpt>
      <trkpt lat="43.0833001434803009033203125" lon="12.98353859223425388336181640625">
        <ele>951.4000244140625</ele>
        <time>2021-06-06T09:22:35.000Z</time>
        <extensions>
          <ns3:TrackPointExtension>
            <ns3:atemp>15.0</ns3:atemp>
          </ns3:TrackPointExtension>
        </extensions>
      </trkpt>
      <trkpt lat="43.0832966230809688568115234375" lon="12.98354722559452056884765625">
        <ele>950</ele>
        <time>2021-06-06T09:22:37.000Z</time>
        <extensions>
          <ns3:TrackPointExtension>
            <ns3:atemp>15.0</ns3:atemp>
          </ns3:TrackPointExtension>
        </extensions>
      </trkpt>
      <trkpt lat="43.0832838825881481170654296875" lon="12.98356004990637302398681640625">
        <ele>949.4000244140625</ele>
        <time>2021-06-06T09:22:43.000Z</time>
        <extensions>
          <ns3:TrackPointExtension>
            <ns3:atemp>15.0</ns3:atemp>
          </ns3:TrackPointExtension>
        </extensions>
      </trkpt>
      <trkpt lat="43.08327776379883289337158203125" lon="12.98356994055211544036865234375">
        <ele>949.20001220703125</ele>
        <time>2021-06-06T09:23:02.000Z</time>
        <extensions>
          <ns3:TrackPointExtension>
            <ns3:atemp>15.0</ns3:atemp>
          </ns3:TrackPointExtension>
        </extensions>
      </trkpt>
      <trkpt lat="43.0832694657146930694580078125" lon="12.983586452901363372802734375">
        <ele>949</ele>
        <time>2021-06-06T09:23:14.000Z</time>
        <extensions>
          <ns3:TrackPointExtension>
            <ns3:atemp>15.0</ns3:atemp>
          </ns3:TrackPointExtension>
        </extensions>
      </trkpt>
      <trkpt lat="43.0832704715430736541748046875" lon="12.98360061831772327423095703125">
        <ele>949</ele>
        <time>2021-06-06T09:23:15.000Z</time>
        <extensions>
          <ns3:TrackPointExtension>
            <ns3:atemp>15.0</ns3:atemp>
          </ns3:TrackPointExtension>
        </extensions>
      </trkpt>
      <trkpt lat="43.08327239938080310821533203125" lon="12.983613274991512298583984375">
        <ele>949</ele>
        <time>2021-06-06T09:23:16.000Z</time>
        <extensions>
          <ns3:TrackPointExtension>
            <ns3:atemp>15.0</ns3:atemp>
          </ns3:TrackPointExtension>
        </extensions>
      </trkpt>
      <trkpt lat="43.083285056054592132568359375" lon="12.98370656557381153106689453125">
        <ele>948.79998779296875</ele>
        <time>2021-06-06T09:23:22.000Z</time>
        <extensions>
          <ns3:TrackPointExtension>
            <ns3:atemp>15.0</ns3:atemp>
          </ns3:TrackPointExtension>
        </extensions>
      </trkpt>
      <trkpt lat="43.083267621695995330810546875" lon="12.9837985150516033172607421875">
        <ele>948</ele>
        <time>2021-06-06T09:23:27.000Z</time>
        <extensions>
          <ns3:TrackPointExtension>
            <ns3:atemp>15.0</ns3:atemp>
          </ns3:TrackPointExtension>
        </extensions>
      </trkpt>
      <trkpt lat="43.08326703496277332305908203125" lon="12.98384821973741054534912109375">
        <ele>947.20001220703125</ele>
        <time>2021-06-06T09:23:29.000Z</time>
        <extensions>
          <ns3:TrackPointExtension>
            <ns3:atemp>15.0</ns3:atemp>
          </ns3:TrackPointExtension>
        </extensions>
      </trkpt>
      <trkpt lat="43.083264939486980438232421875" lon="12.983876802027225494384765625">
        <ele>946.79998779296875</ele>
        <time>2021-06-06T09:23:30.000Z</time>
        <extensions>
          <ns3:TrackPointExtension>
            <ns3:atemp>15.0</ns3:atemp>
          </ns3:TrackPointExtension>
        </extensions>
      </trkpt>
      <trkpt lat="43.08330190367996692657470703125" lon="12.98398308455944061279296875">
        <ele>945.5999755859375</ele>
        <time>2021-06-06T09:23:34.000Z</time>
        <extensions>
          <ns3:TrackPointExtension>
            <ns3:atemp>15.0</ns3:atemp>
          </ns3:TrackPointExtension>
        </extensions>
      </trkpt>
      <trkpt lat="43.08334699831902980804443359375" lon="12.98403262160718441009521484375">
        <ele>944.5999755859375</ele>
        <time>2021-06-06T09:23:36.000Z</time>
        <extensions>
          <ns3:TrackPointExtension>
            <ns3:atemp>15.0</ns3:atemp>
          </ns3:TrackPointExtension>
        </extensions>
      </trkpt>
      <trkpt lat="43.083380945026874542236328125" lon="12.984098754823207855224609375">
        <ele>943.5999755859375</ele>
        <time>2021-06-06T09:23:38.000Z</time>
        <extensions>
          <ns3:TrackPointExtension>
            <ns3:atemp>15.0</ns3:atemp>
          </ns3:TrackPointExtension>
        </extensions>
      </trkpt>
      <trkpt lat="43.08339561335742473602294921875" lon="12.98414628021419048309326171875">
        <ele>943.20001220703125</ele>
        <time>2021-06-06T09:23:39.000Z</time>
        <extensions>
          <ns3:TrackPointExtension>
            <ns3:atemp>15.0</ns3:atemp>
          </ns3:TrackPointExtension>
        </extensions>
      </trkpt>
      <trkpt lat="43.08341707102954387664794921875" lon="12.98419740982353687286376953125">
        <ele>942.4000244140625</ele>
        <time>2021-06-06T09:23:40.000Z</time>
        <extensions>
          <ns3:TrackPointExtension>
            <ns3:atemp>15.0</ns3:atemp>
          </ns3:TrackPointExtension>
        </extensions>
      </trkpt>
      <trkpt lat="43.08344171382486820220947265625" lon="12.984286844730377197265625">
        <ele>941.4000244140625</ele>
        <time>2021-06-06T09:23:42.000Z</time>
        <extensions>
          <ns3:TrackPointExtension>
            <ns3:atemp>15.0</ns3:atemp>
          </ns3:TrackPointExtension>
        </extensions>
      </trkpt>
      <trkpt lat="43.0834434740245342254638671875" lon="12.98433177173137664794921875">
        <ele>940.79998779296875</ele>
        <time>2021-06-06T09:23:43.000Z</time>
        <extensions>
          <ns3:TrackPointExtension>
            <ns3:atemp>15.0</ns3:atemp>
          </ns3:TrackPointExtension>
        </extensions>
      </trkpt>
      <trkpt lat="43.08343802578747272491455078125" lon="12.98438264988362789154052734375">
        <ele>940.20001220703125</ele>
        <time>2021-06-06T09:23:44.000Z</time>
        <extensions>
          <ns3:TrackPointExtension>
            <ns3:atemp>15.0</ns3:atemp>
          </ns3:TrackPointExtension>
        </extensions>
      </trkpt>
      <trkpt lat="43.083413131535053253173828125" lon="12.984470240771770477294921875">
        <ele>937.5999755859375</ele>
        <time>2021-06-06T09:23:46.000Z</time>
        <extensions>
          <ns3:TrackPointExtension>
            <ns3:atemp>15.0</ns3:atemp>
          </ns3:TrackPointExtension>
        </extensions>
      </trkpt>
      <trkpt lat="43.08337382040917873382568359375" lon="12.9845616035163402557373046875">
        <ele>936.20001220703125</ele>
        <time>2021-06-06T09:23:48.000Z</time>
        <extensions>
          <ns3:TrackPointExtension>
            <ns3:atemp>15.0</ns3:atemp>
          </ns3:TrackPointExtension>
        </extensions>
      </trkpt>
      <trkpt lat="43.08330827392637729644775390625" lon="12.98470585606992244720458984375">
        <ele>935</ele>
        <time>2021-06-06T09:23:51.000Z</time>
        <extensions>
          <ns3:TrackPointExtension>
            <ns3:atemp>15.0</ns3:atemp>
          </ns3:TrackPointExtension>
        </extensions>
      </trkpt>
      <trkpt lat="43.0832875706255435943603515625" lon="12.9847674630582332611083984375">
        <ele>934.5999755859375</ele>
        <time>2021-06-06T09:23:52.000Z</time>
        <extensions>
          <ns3:TrackPointExtension>
            <ns3:atemp>15.0</ns3:atemp>
          </ns3:TrackPointExtension>
        </extensions>
      </trkpt>
      <trkpt lat="43.08326468802988529205322265625" lon="12.984823621809482574462890625">
        <ele>934</ele>
        <time>2021-06-06T09:23:53.000Z</time>
        <extensions>
          <ns3:TrackPointExtension>
            <ns3:atemp>15.0</ns3:atemp>
          </ns3:TrackPointExtension>
        </extensions>
      </trkpt>
      <trkpt lat="43.08324272744357585906982421875" lon="12.98487760126590728759765625">
        <ele>933.79998779296875</ele>
        <time>2021-06-06T09:23:54.000Z</time>
        <extensions>
          <ns3:TrackPointExtension>
            <ns3:atemp>15.0</ns3:atemp>
          </ns3:TrackPointExtension>
        </extensions>
      </trkpt>
      <trkpt lat="43.08317198418080806732177734375" lon="12.985043562948703765869140625">
        <ele>932.5999755859375</ele>
        <time>2021-06-06T09:23:57.000Z</time>
        <extensions>
          <ns3:TrackPointExtension>
            <ns3:atemp>15.0</ns3:atemp>
          </ns3:TrackPointExtension>
        </extensions>
      </trkpt>
      <trkpt lat="43.08312781155109405517578125" lon="12.985180355608463287353515625">
        <ele>931.20001220703125</ele>
        <time>2021-06-06T09:23:59.000Z</time>
        <extensions>
          <ns3:TrackPointExtension>
            <ns3:atemp>15.0</ns3:atemp>
          </ns3:TrackPointExtension>
        </extensions>
      </trkpt>
      <trkpt lat="43.0830884166061878204345703125" lon="12.98530063591897487640380859375">
        <ele>929.5999755859375</ele>
        <time>2021-06-06T09:24:01.000Z</time>
        <extensions>
          <ns3:TrackPointExtension>
            <ns3:atemp>15.0</ns3:atemp>
          </ns3:TrackPointExtension>
        </extensions>
      </trkpt>
      <trkpt lat="43.0830468423664569854736328125" lon="12.9853954352438449859619140625">
        <ele>927.79998779296875</ele>
        <time>2021-06-06T09:24:03.000Z</time>
        <extensions>
          <ns3:TrackPointExtension>
            <ns3:atemp>15.0</ns3:atemp>
          </ns3:TrackPointExtension>
        </extensions>
      </trkpt>
      <trkpt lat="43.08302278630435466766357421875" lon="12.98544011078774929046630859375">
        <ele>926.79998779296875</ele>
        <time>2021-06-06T09:24:04.000Z</time>
        <extensions>
          <ns3:TrackPointExtension>
            <ns3:atemp>15.0</ns3:atemp>
          </ns3:TrackPointExtension>
        </extensions>
      </trkpt>
      <trkpt lat="43.08299864642322063446044921875" lon="12.985489480197429656982421875">
        <ele>926</ele>
        <time>2021-06-06T09:24:05.000Z</time>
        <extensions>
          <ns3:TrackPointExtension>
            <ns3:atemp>15.0</ns3:atemp>
          </ns3:TrackPointExtension>
        </extensions>
      </trkpt>
      <trkpt lat="43.08295606635510921478271484375" lon="12.98557505942881107330322265625">
        <ele>924.20001220703125</ele>
        <time>2021-06-06T09:24:07.000Z</time>
        <extensions>
          <ns3:TrackPointExtension>
            <ns3:atemp>15.0</ns3:atemp>
          </ns3:TrackPointExtension>
        </extensions>
      </trkpt>
      <trkpt lat="43.0829137377440929412841796875" lon="12.98567698337137699127197265625">
        <ele>923</ele>
        <time>2021-06-06T09:24:09.000Z</time>
        <extensions>
          <ns3:TrackPointExtension>
            <ns3:atemp>15.0</ns3:atemp>
          </ns3:TrackPointExtension>
        </extensions>
      </trkpt>
      <trkpt lat="43.08287342078983783721923828125" lon="12.9857964254915714263916015625">
        <ele>921.79998779296875</ele>
        <time>2021-06-06T09:24:11.000Z</time>
        <extensions>
          <ns3:TrackPointExtension>
            <ns3:atemp>15.0</ns3:atemp>
          </ns3:TrackPointExtension>
        </extensions>
      </trkpt>
      <trkpt lat="43.08283570222556591033935546875" lon="12.98590916208922863006591796875">
        <ele>920.4000244140625</ele>
        <time>2021-06-06T09:24:13.000Z</time>
        <extensions>
          <ns3:TrackPointExtension>
            <ns3:atemp>15.0</ns3:atemp>
          </ns3:TrackPointExtension>
        </extensions>
      </trkpt>
      <trkpt lat="43.08278826065361499786376953125" lon="12.986025251448154449462890625">
        <ele>918.4000244140625</ele>
        <time>2021-06-06T09:24:15.000Z</time>
        <extensions>
          <ns3:TrackPointExtension>
            <ns3:atemp>15.0</ns3:atemp>
          </ns3:TrackPointExtension>
        </extensions>
      </trkpt>
      <trkpt lat="43.082740567624568939208984375" lon="12.986145280301570892333984375">
        <ele>917</ele>
        <time>2021-06-06T09:24:17.000Z</time>
        <extensions>
          <ns3:TrackPointExtension>
            <ns3:atemp>15.0</ns3:atemp>
          </ns3:TrackPointExtension>
        </extensions>
      </trkpt>
      <trkpt lat="43.0826827324926853179931640625" lon="12.98625634051859378814697265625">
        <ele>915.4000244140625</ele>
        <time>2021-06-06T09:24:19.000Z</time>
        <extensions>
          <ns3:TrackPointExtension>
            <ns3:atemp>15.0</ns3:atemp>
          </ns3:TrackPointExtension>
        </extensions>
      </trkpt>
      <trkpt lat="43.08261391706764698028564453125" lon="12.986365891993045806884765625">
        <ele>913.5999755859375</ele>
        <time>2021-06-06T09:24:21.000Z</time>
        <extensions>
          <ns3:TrackPointExtension>
            <ns3:atemp>15.0</ns3:atemp>
          </ns3:TrackPointExtension>
        </extensions>
      </trkpt>
      <trkpt lat="43.0825556628406047821044921875" lon="12.98645834438502788543701171875">
        <ele>911.79998779296875</ele>
        <time>2021-06-06T09:24:23.000Z</time>
        <extensions>
          <ns3:TrackPointExtension>
            <ns3:atemp>15.0</ns3:atemp>
          </ns3:TrackPointExtension>
        </extensions>
      </trkpt>
      <trkpt lat="43.0825157649815082550048828125" lon="12.98653327859938144683837890625">
        <ele>910</ele>
        <time>2021-06-06T09:24:25.000Z</time>
        <extensions>
          <ns3:TrackPointExtension>
            <ns3:atemp>15.0</ns3:atemp>
          </ns3:TrackPointExtension>
        </extensions>
      </trkpt>
      <trkpt lat="43.082501851022243499755859375" lon="12.98656412400305271148681640625">
        <ele>909</ele>
        <time>2021-06-06T09:24:26.000Z</time>
        <extensions>
          <ns3:TrackPointExtension>
            <ns3:atemp>15.0</ns3:atemp>
          </ns3:TrackPointExtension>
        </extensions>
      </trkpt>
      <trkpt lat="43.08248768560588359832763671875" lon="12.9865977354347705841064453125">
        <ele>908.4000244140625</ele>
        <time>2021-06-06T09:24:27.000Z</time>
        <extensions>
          <ns3:TrackPointExtension>
            <ns3:atemp>15.0</ns3:atemp>
          </ns3:TrackPointExtension>
        </extensions>
      </trkpt>
      <trkpt lat="43.08242775499820709228515625" lon="12.986664287745952606201171875">
        <ele>906.79998779296875</ele>
        <time>2021-06-06T09:24:29.000Z</time>
        <extensions>
          <ns3:TrackPointExtension>
            <ns3:atemp>15.0</ns3:atemp>
          </ns3:TrackPointExtension>
        </extensions>
      </trkpt>
      <trkpt lat="43.0823806487023830413818359375" lon="12.98670108430087566375732421875">
        <ele>905.5999755859375</ele>
        <time>2021-06-06T09:24:31.000Z</time>
        <extensions>
          <ns3:TrackPointExtension>
            <ns3:atemp>15.0</ns3:atemp>
          </ns3:TrackPointExtension>
        </extensions>
      </trkpt>
      <trkpt lat="43.08234184049069881439208984375" lon="12.9867154173552989959716796875">
        <ele>904.5999755859375</ele>
        <time>2021-06-06T09:24:33.000Z</time>
        <extensions>
          <ns3:TrackPointExtension>
            <ns3:atemp>15.0</ns3:atemp>
          </ns3:TrackPointExtension>
        </extensions>
      </trkpt>
      <trkpt lat="43.0822914652526378631591796875" lon="12.98672924749553203582763671875">
        <ele>903.4000244140625</ele>
        <time>2021-06-06T09:24:35.000Z</time>
        <extensions>
          <ns3:TrackPointExtension>
            <ns3:atemp>15.0</ns3:atemp>
          </ns3:TrackPointExtension>
        </extensions>
      </trkpt>
      <trkpt lat="43.08225517161190509796142578125" lon="12.9867504537105560302734375">
        <ele>902.79998779296875</ele>
        <time>2021-06-06T09:24:36.000Z</time>
        <extensions>
          <ns3:TrackPointExtension>
            <ns3:atemp>15.0</ns3:atemp>
          </ns3:TrackPointExtension>
        </extensions>
      </trkpt>
      <trkpt lat="43.08222617022693157196044921875" lon="12.98676855862140655517578125">
        <ele>902.20001220703125</ele>
        <time>2021-06-06T09:24:37.000Z</time>
        <extensions>
          <ns3:TrackPointExtension>
            <ns3:atemp>15.0</ns3:atemp>
          </ns3:TrackPointExtension>
        </extensions>
      </trkpt>
      <trkpt lat="43.0821707658469676971435546875" lon="12.986817173659801483154296875">
        <ele>901</ele>
        <time>2021-06-06T09:24:39.000Z</time>
        <extensions>
          <ns3:TrackPointExtension>
            <ns3:atemp>15.0</ns3:atemp>
          </ns3:TrackPointExtension>
        </extensions>
      </trkpt>
      <trkpt lat="43.08211770839989185333251953125" lon="12.98686151392757892608642578125">
        <ele>899.79998779296875</ele>
        <time>2021-06-06T09:24:41.000Z</time>
        <extensions>
          <ns3:TrackPointExtension>
            <ns3:atemp>15.0</ns3:atemp>
          </ns3:TrackPointExtension>
        </extensions>
      </trkpt>
      <trkpt lat="43.08203154243528842926025390625" lon="12.98692085780203342437744140625">
        <ele>898.5999755859375</ele>
        <time>2021-06-06T09:24:43.000Z</time>
        <extensions>
          <ns3:TrackPointExtension>
            <ns3:atemp>15.0</ns3:atemp>
          </ns3:TrackPointExtension>
        </extensions>
      </trkpt>
      <trkpt lat="43.0820078216493129730224609375" lon="12.9869437403976917266845703125">
        <ele>896.79998779296875</ele>
        <time>2021-06-06T09:24:44.000Z</time>
        <extensions>
          <ns3:TrackPointExtension>
            <ns3:atemp>15.0</ns3:atemp>
          </ns3:TrackPointExtension>
        </extensions>
      </trkpt>
      <trkpt lat="43.0819483101367950439453125" lon="12.98699025996029376983642578125">
        <ele>895.20001220703125</ele>
        <time>2021-06-06T09:24:46.000Z</time>
        <extensions>
          <ns3:TrackPointExtension>
            <ns3:atemp>15.0</ns3:atemp>
          </ns3:TrackPointExtension>
        </extensions>
      </trkpt>
      <trkpt lat="43.08192056603729724884033203125" lon="12.98700970597565174102783203125">
        <ele>894.4000244140625</ele>
        <time>2021-06-06T09:24:47.000Z</time>
        <extensions>
          <ns3:TrackPointExtension>
            <ns3:atemp>15.0</ns3:atemp>
          </ns3:TrackPointExtension>
        </extensions>
      </trkpt>
      <trkpt lat="43.08189039118587970733642578125" lon="12.9870292358100414276123046875">
        <ele>893.5999755859375</ele>
        <time>2021-06-06T09:24:48.000Z</time>
        <extensions>
          <ns3:TrackPointExtension>
            <ns3:atemp>15.0</ns3:atemp>
          </ns3:TrackPointExtension>
        </extensions>
      </trkpt>
      <trkpt lat="43.08181109838187694549560546875" lon="12.9870899207890033721923828125">
        <ele>892</ele>
        <time>2021-06-06T09:24:50.000Z</time>
        <extensions>
          <ns3:TrackPointExtension>
            <ns3:atemp>15.0</ns3:atemp>
          </ns3:TrackPointExtension>
        </extensions>
      </trkpt>
      <trkpt lat="43.08173247613012790679931640625" lon="12.98714851029217243194580078125">
        <ele>890.4000244140625</ele>
        <time>2021-06-06T09:24:52.000Z</time>
        <extensions>
          <ns3:TrackPointExtension>
            <ns3:atemp>15.0</ns3:atemp>
          </ns3:TrackPointExtension>
        </extensions>
      </trkpt>
      <trkpt lat="43.0816296301782131195068359375" lon="12.98720215447247028350830078125">
        <ele>889.4000244140625</ele>
        <time>2021-06-06T09:24:54.000Z</time>
        <extensions>
          <ns3:TrackPointExtension>
            <ns3:atemp>15.0</ns3:atemp>
          </ns3:TrackPointExtension>
        </extensions>
      </trkpt>
      <trkpt lat="43.0815397761762142181396484375" lon="12.98724691383540630340576171875">
        <ele>888</ele>
        <time>2021-06-06T09:24:56.000Z</time>
        <extensions>
          <ns3:TrackPointExtension>
            <ns3:atemp>15.0</ns3:atemp>
          </ns3:TrackPointExtension>
        </extensions>
      </trkpt>
      <trkpt lat="43.0815017223358154296875" lon="12.9872706346213817596435546875">
        <ele>887.4000244140625</ele>
        <time>2021-06-06T09:24:57.000Z</time>
        <extensions>
          <ns3:TrackPointExtension>
            <ns3:atemp>15.0</ns3:atemp>
          </ns3:TrackPointExtension>
        </extensions>
      </trkpt>
      <trkpt lat="43.0814623273909091949462890625" lon="12.9872984625399112701416015625">
        <ele>886.5999755859375</ele>
        <time>2021-06-06T09:24:58.000Z</time>
        <extensions>
          <ns3:TrackPointExtension>
            <ns3:atemp>15.0</ns3:atemp>
          </ns3:TrackPointExtension>
        </extensions>
      </trkpt>
      <trkpt lat="43.0813946016132831573486328125" lon="12.9873608238995075225830078125">
        <ele>885.20001220703125</ele>
        <time>2021-06-06T09:25:00.000Z</time>
        <extensions>
          <ns3:TrackPointExtension>
            <ns3:atemp>15.0</ns3:atemp>
          </ns3:TrackPointExtension>
        </extensions>
      </trkpt>
      <trkpt lat="43.08137498795986175537109375" lon="12.98739083111286163330078125">
        <ele>884.4000244140625</ele>
        <time>2021-06-06T09:25:01.000Z</time>
        <extensions>
          <ns3:TrackPointExtension>
            <ns3:atemp>15.0</ns3:atemp>
          </ns3:TrackPointExtension>
        </extensions>
      </trkpt>
      <trkpt lat="43.08136216364800930023193359375" lon="12.98742477782070636749267578125">
        <ele>883.5999755859375</ele>
        <time>2021-06-06T09:25:02.000Z</time>
        <extensions>
          <ns3:TrackPointExtension>
            <ns3:atemp>15.0</ns3:atemp>
          </ns3:TrackPointExtension>
        </extensions>
      </trkpt>
      <trkpt lat="43.0813644267618656158447265625" lon="12.98749409615993499755859375">
        <ele>882.20001220703125</ele>
        <time>2021-06-06T09:25:04.000Z</time>
        <extensions>
          <ns3:TrackPointExtension>
            <ns3:atemp>15.0</ns3:atemp>
          </ns3:TrackPointExtension>
        </extensions>
      </trkpt>
      <trkpt lat="43.0813664384186267852783203125" lon="12.987554110586643218994140625">
        <ele>881.20001220703125</ele>
        <time>2021-06-06T09:25:06.000Z</time>
        <extensions>
          <ns3:TrackPointExtension>
            <ns3:atemp>15.0</ns3:atemp>
          </ns3:TrackPointExtension>
        </extensions>
      </trkpt>
      <trkpt lat="43.0813302285969257354736328125" lon="12.98762443475425243377685546875">
        <ele>880.20001220703125</ele>
        <time>2021-06-06T09:25:09.000Z</time>
        <extensions>
          <ns3:TrackPointExtension>
            <ns3:atemp>15.0</ns3:atemp>
          </ns3:TrackPointExtension>
        </extensions>
      </trkpt>
      <trkpt lat="43.081322349607944488525390625" lon="12.98764069564640522003173828125">
        <ele>880</ele>
        <time>2021-06-06T09:25:10.000Z</time>
        <extensions>
          <ns3:TrackPointExtension>
            <ns3:atemp>15.0</ns3:atemp>
          </ns3:TrackPointExtension>
        </extensions>
      </trkpt>
      <trkpt lat="43.08130114339292049407958984375" lon="12.987676821649074554443359375">
        <ele>879.20001220703125</ele>
        <time>2021-06-06T09:25:13.000Z</time>
        <extensions>
          <ns3:TrackPointExtension>
            <ns3:atemp>15.0</ns3:atemp>
          </ns3:TrackPointExtension>
        </extensions>
      </trkpt>
      <trkpt lat="43.08129661716520786285400390625" lon="12.9876870475709438323974609375">
        <ele>878.20001220703125</ele>
        <time>2021-06-06T09:25:15.000Z</time>
        <extensions>
          <ns3:TrackPointExtension>
            <ns3:atemp>15.0</ns3:atemp>
          </ns3:TrackPointExtension>
        </extensions>
      </trkpt>
      <trkpt lat="43.08129091747105121612548828125" lon="12.98769232816994190216064453125">
        <ele>877.4000244140625</ele>
        <time>2021-06-06T09:25:16.000Z</time>
        <extensions>
          <ns3:TrackPointExtension>
            <ns3:atemp>15.0</ns3:atemp>
          </ns3:TrackPointExtension>
        </extensions>
      </trkpt>
      <trkpt lat="43.08128303848206996917724609375" lon="12.98769802786409854888916015625">
        <ele>876.79998779296875</ele>
        <time>2021-06-06T09:25:17.000Z</time>
        <extensions>
          <ns3:TrackPointExtension>
            <ns3:atemp>15.0</ns3:atemp>
          </ns3:TrackPointExtension>
        </extensions>
      </trkpt>
      <trkpt lat="43.0812601558864116668701171875" lon="12.9877256043255329132080078125">
        <ele>875.5999755859375</ele>
        <time>2021-06-06T09:25:19.000Z</time>
        <extensions>
          <ns3:TrackPointExtension>
            <ns3:atemp>15.0</ns3:atemp>
          </ns3:TrackPointExtension>
        </extensions>
      </trkpt>
      <trkpt lat="43.08121866546571254730224609375" lon="12.98778637312352657318115234375">
        <ele>874.79998779296875</ele>
        <time>2021-06-06T09:25:22.000Z</time>
        <extensions>
          <ns3:TrackPointExtension>
            <ns3:atemp>15.0</ns3:atemp>
          </ns3:TrackPointExtension>
        </extensions>
      </trkpt>
      <trkpt lat="43.08121263049542903900146484375" lon="12.98782710917294025421142578125">
        <ele>874.5999755859375</ele>
        <time>2021-06-06T09:25:23.000Z</time>
        <extensions>
          <ns3:TrackPointExtension>
            <ns3:atemp>15.0</ns3:atemp>
          </ns3:TrackPointExtension>
        </extensions>
      </trkpt>
      <trkpt lat="43.08123425580561161041259765625" lon="12.98786516301333904266357421875">
        <ele>874.20001220703125</ele>
        <time>2021-06-06T09:25:25.000Z</time>
        <extensions>
          <ns3:TrackPointExtension>
            <ns3:atemp>15.0</ns3:atemp>
          </ns3:TrackPointExtension>
        </extensions>
      </trkpt>
      <trkpt lat="43.08124599047005176544189453125" lon="12.9878603853285312652587890625">
        <ele>873.5999755859375</ele>
        <time>2021-06-06T09:25:27.000Z</time>
        <extensions>
          <ns3:TrackPointExtension>
            <ns3:atemp>15.0</ns3:atemp>
          </ns3:TrackPointExtension>
        </extensions>
      </trkpt>
      <trkpt lat="43.08125160634517669677734375" lon="12.98786130733788013458251953125">
        <ele>872</ele>
        <time>2021-06-06T09:25:30.000Z</time>
        <extensions>
          <ns3:TrackPointExtension>
            <ns3:atemp>15.0</ns3:atemp>
          </ns3:TrackPointExtension>
        </extensions>
      </trkpt>
      <trkpt lat="43.08125319890677928924560546875" lon="12.98786030150949954986572265625">
        <ele>871.20001220703125</ele>
        <time>2021-06-06T09:25:34.000Z</time>
        <extensions>
          <ns3:TrackPointExtension>
            <ns3:atemp>15.0</ns3:atemp>
          </ns3:TrackPointExtension>
        </extensions>
      </trkpt>
      <trkpt lat="43.08128513395786285400390625" lon="12.9878580383956432342529296875">
        <ele>870.5999755859375</ele>
        <time>2021-06-06T09:25:41.000Z</time>
        <extensions>
          <ns3:TrackPointExtension>
            <ns3:atemp>15.0</ns3:atemp>
          </ns3:TrackPointExtension>
        </extensions>
      </trkpt>
      <trkpt lat="43.081312961876392364501953125" lon="12.98786415718495845794677734375">
        <ele>870.4000244140625</ele>
        <time>2021-06-06T09:25:43.000Z</time>
        <extensions>
          <ns3:TrackPointExtension>
            <ns3:atemp>15.0</ns3:atemp>
          </ns3:TrackPointExtension>
        </extensions>
      </trkpt>
      <trkpt lat="43.0813798494637012481689453125" lon="12.98792383633553981781005859375">
        <ele>870.4000244140625</ele>
        <time>2021-06-06T09:25:46.000Z</time>
        <extensions>
          <ns3:TrackPointExtension>
            <ns3:atemp>15.0</ns3:atemp>
          </ns3:TrackPointExtension>
        </extensions>
      </trkpt>
      <trkpt lat="43.0814629979431629180908203125" lon="12.98799625597894191741943359375">
        <ele>870.20001220703125</ele>
        <time>2021-06-06T09:25:49.000Z</time>
        <extensions>
          <ns3:TrackPointExtension>
            <ns3:atemp>15.0</ns3:atemp>
          </ns3:TrackPointExtension>
        </extensions>
      </trkpt>
      <trkpt lat="43.08147146366536617279052734375" lon="12.98803917132318019866943359375">
        <ele>869.79998779296875</ele>
        <time>2021-06-06T09:25:50.000Z</time>
        <extensions>
          <ns3:TrackPointExtension>
            <ns3:atemp>15.0</ns3:atemp>
          </ns3:TrackPointExtension>
        </extensions>
      </trkpt>
      <trkpt lat="43.081482611596584320068359375" lon="12.98813103698194026947021484375">
        <ele>868.79998779296875</ele>
        <time>2021-06-06T09:25:52.000Z</time>
        <extensions>
          <ns3:TrackPointExtension>
            <ns3:atemp>15.0</ns3:atemp>
          </ns3:TrackPointExtension>
        </extensions>
      </trkpt>
      <trkpt lat="43.08148822747170925140380859375" lon="12.988229356706142425537109375">
        <ele>867</ele>
        <time>2021-06-06T09:25:54.000Z</time>
        <extensions>
          <ns3:TrackPointExtension>
            <ns3:atemp>15.0</ns3:atemp>
          </ns3:TrackPointExtension>
        </extensions>
      </trkpt>
      <trkpt lat="43.081491999328136444091796875" lon="12.98830554820597171783447265625">
        <ele>865.4000244140625</ele>
        <time>2021-06-06T09:25:56.000Z</time>
        <extensions>
          <ns3:TrackPointExtension>
            <ns3:atemp>15.0</ns3:atemp>
          </ns3:TrackPointExtension>
        </extensions>
      </trkpt>
      <trkpt lat="43.0814800970256328582763671875" lon="12.988347373902797698974609375">
        <ele>865</ele>
        <time>2021-06-06T09:25:57.000Z</time>
        <extensions>
          <ns3:TrackPointExtension>
            <ns3:atemp>15.0</ns3:atemp>
          </ns3:TrackPointExtension>
        </extensions>
      </trkpt>
      <trkpt lat="43.081441037356853485107421875" lon="12.988515011966228485107421875">
        <ele>864.5999755859375</ele>
        <time>2021-06-06T09:26:02.000Z</time>
        <extensions>
          <ns3:TrackPointExtension>
            <ns3:atemp>15.0</ns3:atemp>
          </ns3:TrackPointExtension>
        </extensions>
      </trkpt>
      <trkpt lat="43.0814529396593570709228515625" lon="12.98859522677958011627197265625">
        <ele>864.5999755859375</ele>
        <time>2021-06-06T09:26:06.000Z</time>
        <extensions>
          <ns3:TrackPointExtension>
            <ns3:atemp>15.0</ns3:atemp>
          </ns3:TrackPointExtension>
        </extensions>
      </trkpt>
      <trkpt lat="43.08146123774349689483642578125" lon="12.9886187799274921417236328125">
        <ele>864.5999755859375</ele>
        <time>2021-06-06T09:26:08.000Z</time>
        <extensions>
          <ns3:TrackPointExtension>
            <ns3:atemp>15.0</ns3:atemp>
          </ns3:TrackPointExtension>
        </extensions>
      </trkpt>
      <trkpt lat="43.0814653448760509490966796875" lon="12.9887237213551998138427734375">
        <ele>864.4000244140625</ele>
        <time>2021-06-06T09:26:15.000Z</time>
        <extensions>
          <ns3:TrackPointExtension>
            <ns3:atemp>15.0</ns3:atemp>
          </ns3:TrackPointExtension>
        </extensions>
      </trkpt>
      <trkpt lat="43.08148353360593318939208984375" lon="12.98890359699726104736328125">
        <ele>864</ele>
        <time>2021-06-06T09:26:19.000Z</time>
        <extensions>
          <ns3:TrackPointExtension>
            <ns3:atemp>15.0</ns3:atemp>
          </ns3:TrackPointExtension>
        </extensions>
      </trkpt>
      <trkpt lat="43.0815464816987514495849609375" lon="12.98906478099524974822998046875">
        <ele>862.5999755859375</ele>
        <time>2021-06-06T09:26:24.000Z</time>
        <extensions>
          <ns3:TrackPointExtension>
            <ns3:atemp>15.0</ns3:atemp>
          </ns3:TrackPointExtension>
        </extensions>
      </trkpt>
      <trkpt lat="43.08155997656285762786865234375" lon="12.989202998578548431396484375">
        <ele>861.5999755859375</ele>
        <time>2021-06-06T09:26:27.000Z</time>
        <extensions>
          <ns3:TrackPointExtension>
            <ns3:atemp>15.0</ns3:atemp>
          </ns3:TrackPointExtension>
        </extensions>
      </trkpt>
      <trkpt lat="43.08157145977020263671875" lon="12.9892923496663570404052734375">
        <ele>861.20001220703125</ele>
        <time>2021-06-06T09:26:29.000Z</time>
        <extensions>
          <ns3:TrackPointExtension>
            <ns3:atemp>15.0</ns3:atemp>
          </ns3:TrackPointExtension>
        </extensions>
      </trkpt>
      <trkpt lat="43.08160255663096904754638671875" lon="12.98938849009573459625244140625">
        <ele>860.79998779296875</ele>
        <time>2021-06-06T09:26:32.000Z</time>
        <extensions>
          <ns3:TrackPointExtension>
            <ns3:atemp>15.0</ns3:atemp>
          </ns3:TrackPointExtension>
        </extensions>
      </trkpt>
      <trkpt lat="43.08162049390375614166259765625" lon="12.9894702136516571044921875">
        <ele>860.5999755859375</ele>
        <time>2021-06-06T09:26:34.000Z</time>
        <extensions>
          <ns3:TrackPointExtension>
            <ns3:atemp>15.0</ns3:atemp>
          </ns3:TrackPointExtension>
        </extensions>
      </trkpt>
      <trkpt lat="43.0816215835511684417724609375" lon="12.98972175456583499908447265625">
        <ele>860.20001220703125</ele>
        <time>2021-06-06T09:26:39.000Z</time>
        <extensions>
          <ns3:TrackPointExtension>
            <ns3:atemp>15.0</ns3:atemp>
          </ns3:TrackPointExtension>
        </extensions>
      </trkpt>
      <trkpt lat="43.08163491077721118927001953125" lon="12.99007035791873931884765625">
        <ele>860</ele>
        <time>2021-06-06T09:26:44.000Z</time>
        <extensions>
          <ns3:TrackPointExtension>
            <ns3:atemp>15.0</ns3:atemp>
          </ns3:TrackPointExtension>
        </extensions>
      </trkpt>
      <trkpt lat="43.08163306675851345062255859375" lon="12.9902428574860095977783203125">
        <ele>859.79998779296875</ele>
        <time>2021-06-06T09:26:47.000Z</time>
        <extensions>
          <ns3:TrackPointExtension>
            <ns3:atemp>15.0</ns3:atemp>
          </ns3:TrackPointExtension>
        </extensions>
      </trkpt>
      <trkpt lat="43.08161504566669464111328125" lon="12.99028853885829448699951171875">
        <ele>859.4000244140625</ele>
        <time>2021-06-06T09:26:48.000Z</time>
        <extensions>
          <ns3:TrackPointExtension>
            <ns3:atemp>15.0</ns3:atemp>
          </ns3:TrackPointExtension>
        </extensions>
      </trkpt>
      <trkpt lat="43.08158813975751399993896484375" lon="12.99036397598683834075927734375">
        <ele>858</ele>
        <time>2021-06-06T09:26:50.000Z</time>
        <extensions>
          <ns3:TrackPointExtension>
            <ns3:atemp>15.0</ns3:atemp>
          </ns3:TrackPointExtension>
        </extensions>
      </trkpt>
      <trkpt lat="43.08156886138021945953369140625" lon="12.99043740145862102508544921875">
        <ele>857.4000244140625</ele>
        <time>2021-06-06T09:26:53.000Z</time>
        <extensions>
          <ns3:TrackPointExtension>
            <ns3:atemp>16.0</ns3:atemp>
          </ns3:TrackPointExtension>
        </extensions>
      </trkpt>
      <trkpt lat="43.0815754830837249755859375" lon="12.99045659601688385009765625">
        <ele>857.4000244140625</ele>
        <time>2021-06-06T09:27:04.000Z</time>
        <extensions>
          <ns3:TrackPointExtension>
            <ns3:atemp>16.0</ns3:atemp>
          </ns3:TrackPointExtension>
        </extensions>
      </trkpt>
      <trkpt lat="43.08155997656285762786865234375" lon="12.99045751802623271942138671875">
        <ele>857.4000244140625</ele>
        <time>2021-06-06T09:27:17.000Z</time>
        <extensions>
          <ns3:TrackPointExtension>
            <ns3:atemp>16.0</ns3:atemp>
          </ns3:TrackPointExtension>
        </extensions>
      </trkpt>
      <trkpt lat="43.08152846060693264007568359375" lon="12.99053412862122058868408203125">
        <ele>857.4000244140625</ele>
        <time>2021-06-06T09:27:25.000Z</time>
        <extensions>
          <ns3:TrackPointExtension>
            <ns3:atemp>16.0</ns3:atemp>
          </ns3:TrackPointExtension>
        </extensions>
      </trkpt>
      <trkpt lat="43.08146417140960693359375" lon="12.99070226959884166717529296875">
        <ele>857.4000244140625</ele>
        <time>2021-06-06T09:27:30.000Z</time>
        <extensions>
          <ns3:TrackPointExtension>
            <ns3:atemp>16.0</ns3:atemp>
          </ns3:TrackPointExtension>
        </extensions>
      </trkpt>
      <trkpt lat="43.08144866488873958587646484375" lon="12.99093981273472309112548828125">
        <ele>857.20001220703125</ele>
        <time>2021-06-06T09:27:35.000Z</time>
        <extensions>
          <ns3:TrackPointExtension>
            <ns3:atemp>16.0</ns3:atemp>
          </ns3:TrackPointExtension>
        </extensions>
      </trkpt>
      <trkpt lat="43.0814794264733791351318359375" lon="12.99109839834272861480712890625">
        <ele>857</ele>
        <time>2021-06-06T09:27:38.000Z</time>
        <extensions>
          <ns3:TrackPointExtension>
            <ns3:atemp>16.0</ns3:atemp>
          </ns3:TrackPointExtension>
        </extensions>
      </trkpt>
      <trkpt lat="43.08152946643531322479248046875" lon="12.9912684671580791473388671875">
        <ele>856.79998779296875</ele>
        <time>2021-06-06T09:27:41.000Z</time>
        <extensions>
          <ns3:TrackPointExtension>
            <ns3:atemp>16.0</ns3:atemp>
          </ns3:TrackPointExtension>
        </extensions>
      </trkpt>
      <trkpt lat="43.0815702863037586212158203125" lon="12.9913874901831150054931640625">
        <ele>856.5999755859375</ele>
        <time>2021-06-06T09:27:43.000Z</time>
        <extensions>
          <ns3:TrackPointExtension>
            <ns3:atemp>16.0</ns3:atemp>
          </ns3:TrackPointExtension>
        </extensions>
      </trkpt>
      <trkpt lat="43.08161580003798007965087890625" lon="12.99159494228661060333251953125">
        <ele>856.4000244140625</ele>
        <time>2021-06-06T09:27:46.000Z</time>
        <extensions>
          <ns3:TrackPointExtension>
            <ns3:atemp>16.0</ns3:atemp>
          </ns3:TrackPointExtension>
        </extensions>
      </trkpt>
      <trkpt lat="43.08167246170341968536376953125" lon="12.9917636699974536895751953125">
        <ele>856</ele>
        <time>2021-06-06T09:27:49.000Z</time>
        <extensions>
          <ns3:TrackPointExtension>
            <ns3:atemp>16.0</ns3:atemp>
          </ns3:TrackPointExtension>
        </extensions>
      </trkpt>
      <trkpt lat="43.08171805925667285919189453125" lon="12.9919309727847576141357421875">
        <ele>855</ele>
        <time>2021-06-06T09:27:52.000Z</time>
        <extensions>
          <ns3:TrackPointExtension>
            <ns3:atemp>16.0</ns3:atemp>
          </ns3:TrackPointExtension>
        </extensions>
      </trkpt>
      <trkpt lat="43.0817203223705291748046875" lon="12.992002554237842559814453125">
        <ele>854.79998779296875</ele>
        <time>2021-06-06T09:27:53.000Z</time>
        <extensions>
          <ns3:TrackPointExtension>
            <ns3:atemp>16.0</ns3:atemp>
          </ns3:TrackPointExtension>
        </extensions>
      </trkpt>
      <trkpt lat="43.0817416124045848846435546875" lon="12.99220179207623004913330078125">
        <ele>853.79998779296875</ele>
        <time>2021-06-06T09:27:56.000Z</time>
        <extensions>
          <ns3:TrackPointExtension>
            <ns3:atemp>16.0</ns3:atemp>
          </ns3:TrackPointExtension>
        </extensions>
      </trkpt>
      <trkpt lat="43.0817543528974056243896484375" lon="12.99227178096771240234375">
        <ele>853.79998779296875</ele>
        <time>2021-06-06T09:27:57.000Z</time>
        <extensions>
          <ns3:TrackPointExtension>
            <ns3:atemp>16.0</ns3:atemp>
          </ns3:TrackPointExtension>
        </extensions>
      </trkpt>
      <trkpt lat="43.081801123917102813720703125" lon="12.9924955777823925018310546875">
        <ele>852.79998779296875</ele>
        <time>2021-06-06T09:28:00.000Z</time>
        <extensions>
          <ns3:TrackPointExtension>
            <ns3:atemp>16.0</ns3:atemp>
          </ns3:TrackPointExtension>
        </extensions>
      </trkpt>
      <trkpt lat="43.0818680115044116973876953125" lon="12.9927339591085910797119140625">
        <ele>851.4000244140625</ele>
        <time>2021-06-06T09:28:03.000Z</time>
        <extensions>
          <ns3:TrackPointExtension>
            <ns3:atemp>16.0</ns3:atemp>
          </ns3:TrackPointExtension>
        </extensions>
      </trkpt>
      <trkpt lat="43.0818877927958965301513671875" lon="12.9928114078938961029052734375">
        <ele>850.5999755859375</ele>
        <time>2021-06-06T09:28:04.000Z</time>
        <extensions>
          <ns3:TrackPointExtension>
            <ns3:atemp>16.0</ns3:atemp>
          </ns3:TrackPointExtension>
        </extensions>
      </trkpt>
      <trkpt lat="43.0819053947925567626953125" lon="12.992888353765010833740234375">
        <ele>849.79998779296875</ele>
        <time>2021-06-06T09:28:05.000Z</time>
        <extensions>
          <ns3:TrackPointExtension>
            <ns3:atemp>16.0</ns3:atemp>
          </ns3:TrackPointExtension>
        </extensions>
      </trkpt>
      <trkpt lat="43.08194152079522609710693359375" lon="12.993041910231113433837890625">
        <ele>848.4000244140625</ele>
        <time>2021-06-06T09:28:07.000Z</time>
        <extensions>
          <ns3:TrackPointExtension>
            <ns3:atemp>16.0</ns3:atemp>
          </ns3:TrackPointExtension>
        </extensions>
      </trkpt>
      <trkpt lat="43.0819618888199329376220703125" lon="12.99311860464513301849365234375">
        <ele>847</ele>
        <time>2021-06-06T09:28:08.000Z</time>
        <extensions>
          <ns3:TrackPointExtension>
            <ns3:atemp>16.0</ns3:atemp>
          </ns3:TrackPointExtension>
        </extensions>
      </trkpt>
      <trkpt lat="43.082014359533786773681640625" lon="12.99326092936098575592041015625">
        <ele>846.20001220703125</ele>
        <time>2021-06-06T09:28:10.000Z</time>
        <extensions>
          <ns3:TrackPointExtension>
            <ns3:atemp>16.0</ns3:atemp>
          </ns3:TrackPointExtension>
        </extensions>
      </trkpt>
      <trkpt lat="43.08204830624163150787353515625" lon="12.9933257214725017547607421875">
        <ele>845.5999755859375</ele>
        <time>2021-06-06T09:28:11.000Z</time>
        <extensions>
          <ns3:TrackPointExtension>
            <ns3:atemp>16.0</ns3:atemp>
          </ns3:TrackPointExtension>
        </extensions>
      </trkpt>
      <trkpt lat="43.0821399204432964324951171875" lon="12.993524372577667236328125">
        <ele>844.79998779296875</ele>
        <time>2021-06-06T09:28:14.000Z</time>
        <extensions>
          <ns3:TrackPointExtension>
            <ns3:atemp>16.0</ns3:atemp>
          </ns3:TrackPointExtension>
        </extensions>
      </trkpt>
      <trkpt lat="43.0821655690670013427734375" lon="12.99358447082340717315673828125">
        <ele>844.5999755859375</ele>
        <time>2021-06-06T09:28:15.000Z</time>
        <extensions>
          <ns3:TrackPointExtension>
            <ns3:atemp>16.0</ns3:atemp>
          </ns3:TrackPointExtension>
        </extensions>
      </trkpt>
      <trkpt lat="43.0821818299591541290283203125" lon="12.993647754192352294921875">
        <ele>844.4000244140625</ele>
        <time>2021-06-06T09:28:16.000Z</time>
        <extensions>
          <ns3:TrackPointExtension>
            <ns3:atemp>16.0</ns3:atemp>
          </ns3:TrackPointExtension>
        </extensions>
      </trkpt>
      <trkpt lat="43.08220605365931987762451171875" lon="12.9937684535980224609375">
        <ele>843.5999755859375</ele>
        <time>2021-06-06T09:28:18.000Z</time>
        <extensions>
          <ns3:TrackPointExtension>
            <ns3:atemp>16.0</ns3:atemp>
          </ns3:TrackPointExtension>
        </extensions>
      </trkpt>
      <trkpt lat="43.08223455213010311126708984375" lon="12.99388177692890167236328125">
        <ele>843.20001220703125</ele>
        <time>2021-06-06T09:28:20.000Z</time>
        <extensions>
          <ns3:TrackPointExtension>
            <ns3:atemp>16.0</ns3:atemp>
          </ns3:TrackPointExtension>
        </extensions>
      </trkpt>
      <trkpt lat="43.082251735031604766845703125" lon="12.99393701367080211639404296875">
        <ele>843.20001220703125</ele>
        <time>2021-06-06T09:28:21.000Z</time>
        <extensions>
          <ns3:TrackPointExtension>
            <ns3:atemp>16.0</ns3:atemp>
          </ns3:TrackPointExtension>
        </extensions>
      </trkpt>
      <trkpt lat="43.08233144693076610565185546875" lon="12.994286455214023590087890625">
        <ele>842.5999755859375</ele>
        <time>2021-06-06T09:28:26.000Z</time>
        <extensions>
          <ns3:TrackPointExtension>
            <ns3:atemp>16.0</ns3:atemp>
          </ns3:TrackPointExtension>
        </extensions>
      </trkpt>
      <trkpt lat="43.08234033174812793731689453125" lon="12.99436834640800952911376953125">
        <ele>842.5999755859375</ele>
        <time>2021-06-06T09:28:27.000Z</time>
        <extensions>
          <ns3:TrackPointExtension>
            <ns3:atemp>16.0</ns3:atemp>
          </ns3:TrackPointExtension>
        </extensions>
      </trkpt>
      <trkpt lat="43.0824386514723300933837890625" lon="12.99478844739496707916259765625">
        <ele>841.79998779296875</ele>
        <time>2021-06-06T09:28:33.000Z</time>
        <extensions>
          <ns3:TrackPointExtension>
            <ns3:atemp>16.0</ns3:atemp>
          </ns3:TrackPointExtension>
        </extensions>
      </trkpt>
      <trkpt lat="43.0824849195778369903564453125" lon="12.9949333705008029937744140625">
        <ele>841.5999755859375</ele>
        <time>2021-06-06T09:28:35.000Z</time>
        <extensions>
          <ns3:TrackPointExtension>
            <ns3:atemp>16.0</ns3:atemp>
          </ns3:TrackPointExtension>
        </extensions>
      </trkpt>
      <trkpt lat="43.0825482867658138275146484375" lon="12.9951511323451995849609375">
        <ele>841.20001220703125</ele>
        <time>2021-06-06T09:28:38.000Z</time>
        <extensions>
          <ns3:TrackPointExtension>
            <ns3:atemp>16.0</ns3:atemp>
          </ns3:TrackPointExtension>
        </extensions>
      </trkpt>
      <trkpt lat="43.08257804252207279205322265625" lon="12.99520737491548061370849609375">
        <ele>841.20001220703125</ele>
        <time>2021-06-06T09:28:39.000Z</time>
        <extensions>
          <ns3:TrackPointExtension>
            <ns3:atemp>16.0</ns3:atemp>
          </ns3:TrackPointExtension>
        </extensions>
      </trkpt>
      <trkpt lat="43.0827015079557895660400390625" lon="12.9953859932720661163330078125">
        <ele>841</ele>
        <time>2021-06-06T09:28:42.000Z</time>
        <extensions>
          <ns3:TrackPointExtension>
            <ns3:atemp>16.0</ns3:atemp>
          </ns3:TrackPointExtension>
        </extensions>
      </trkpt>
      <trkpt lat="43.08273578993976116180419921875" lon="12.99545816145837306976318359375">
        <ele>840.79998779296875</ele>
        <time>2021-06-06T09:28:43.000Z</time>
        <extensions>
          <ns3:TrackPointExtension>
            <ns3:atemp>16.0</ns3:atemp>
          </ns3:TrackPointExtension>
        </extensions>
      </trkpt>
      <trkpt lat="43.082837797701358795166015625" lon="12.99561959691345691680908203125">
        <ele>840.4000244140625</ele>
        <time>2021-06-06T09:28:46.000Z</time>
        <extensions>
          <ns3:TrackPointExtension>
            <ns3:atemp>16.0</ns3:atemp>
          </ns3:TrackPointExtension>
        </extensions>
      </trkpt>
      <trkpt lat="43.08287861756980419158935546875" lon="12.99567340873181819915771484375">
        <ele>840.4000244140625</ele>
        <time>2021-06-06T09:28:47.000Z</time>
        <extensions>
          <ns3:TrackPointExtension>
            <ns3:atemp>16.0</ns3:atemp>
          </ns3:TrackPointExtension>
        </extensions>
      </trkpt>
      <trkpt lat="43.082922957837581634521484375" lon="12.99572302959859371185302734375">
        <ele>840.4000244140625</ele>
        <time>2021-06-06T09:28:48.000Z</time>
        <extensions>
          <ns3:TrackPointExtension>
            <ns3:atemp>16.0</ns3:atemp>
          </ns3:TrackPointExtension>
        </extensions>
      </trkpt>
      <trkpt lat="43.0830480158329010009765625" lon="12.99592553637921810150146484375">
        <ele>840</ele>
        <time>2021-06-06T09:28:52.000Z</time>
        <extensions>
          <ns3:TrackPointExtension>
            <ns3:atemp>16.0</ns3:atemp>
          </ns3:TrackPointExtension>
        </extensions>
      </trkpt>
      <trkpt lat="43.0831118859350681304931640625" lon="12.996067106723785400390625">
        <ele>839.79998779296875</ele>
        <time>2021-06-06T09:28:56.000Z</time>
        <extensions>
          <ns3:TrackPointExtension>
            <ns3:atemp>16.0</ns3:atemp>
          </ns3:TrackPointExtension>
        </extensions>
      </trkpt>
      <trkpt lat="43.08310962282121181488037109375" lon="12.996110022068023681640625">
        <ele>839.79998779296875</ele>
        <time>2021-06-06T09:29:00.000Z</time>
        <extensions>
          <ns3:TrackPointExtension>
            <ns3:atemp>16.0</ns3:atemp>
          </ns3:TrackPointExtension>
        </extensions>
      </trkpt>
      <trkpt lat="43.08311196975409984588623046875" lon="12.9961162246763706207275390625">
        <ele>841.4000244140625</ele>
        <time>2021-06-06T09:29:14.000Z</time>
        <extensions>
          <ns3:TrackPointExtension>
            <ns3:atemp>16.0</ns3:atemp>
          </ns3:TrackPointExtension>
        </extensions>
      </trkpt>
      <trkpt lat="43.08311180211603641510009765625" lon="12.9961162246763706207275390625">
        <ele>841.4000244140625</ele>
        <time>2021-06-06T09:29:17.000Z</time>
        <extensions>
          <ns3:TrackPointExtension>
            <ns3:atemp>16.0</ns3:atemp>
          </ns3:TrackPointExtension>
        </extensions>
      </trkpt>
      <trkpt lat="43.08312110602855682373046875" lon="12.996142208576202392578125">
        <ele>841.20001220703125</ele>
        <time>2021-06-06T09:29:26.000Z</time>
        <extensions>
          <ns3:TrackPointExtension>
            <ns3:atemp>16.0</ns3:atemp>
          </ns3:TrackPointExtension>
        </extensions>
      </trkpt>
      <trkpt lat="43.083124794065952301025390625" lon="12.99615754745900630950927734375">
        <ele>841.20001220703125</ele>
        <time>2021-06-06T09:29:30.000Z</time>
        <extensions>
          <ns3:TrackPointExtension>
            <ns3:atemp>16.0</ns3:atemp>
          </ns3:TrackPointExtension>
        </extensions>
      </trkpt>
      <trkpt lat="43.08312253095209598541259765625" lon="12.9961960203945636749267578125">
        <ele>841.20001220703125</ele>
        <time>2021-06-06T09:29:32.000Z</time>
        <extensions>
          <ns3:TrackPointExtension>
            <ns3:atemp>16.0</ns3:atemp>
          </ns3:TrackPointExtension>
        </extensions>
      </trkpt>
      <trkpt lat="43.0831434018909931182861328125" lon="12.996364496648311614990234375">
        <ele>841</ele>
        <time>2021-06-06T09:29:36.000Z</time>
        <extensions>
          <ns3:TrackPointExtension>
            <ns3:atemp>16.0</ns3:atemp>
          </ns3:TrackPointExtension>
        </extensions>
      </trkpt>
      <trkpt lat="43.08316477574408054351806640625" lon="12.9966302029788494110107421875">
        <ele>840.20001220703125</ele>
        <time>2021-06-06T09:29:41.000Z</time>
        <extensions>
          <ns3:TrackPointExtension>
            <ns3:atemp>16.0</ns3:atemp>
          </ns3:TrackPointExtension>
        </extensions>
      </trkpt>
      <trkpt lat="43.08317064307630062103271484375" lon="12.9967384971678256988525390625">
        <ele>839.20001220703125</ele>
        <time>2021-06-06T09:29:43.000Z</time>
        <extensions>
          <ns3:TrackPointExtension>
            <ns3:atemp>16.0</ns3:atemp>
          </ns3:TrackPointExtension>
        </extensions>
      </trkpt>
      <trkpt lat="43.083184473216533660888671875" lon="12.996798343956470489501953125">
        <ele>838.79998779296875</ele>
        <time>2021-06-06T09:29:44.000Z</time>
        <extensions>
          <ns3:TrackPointExtension>
            <ns3:atemp>16.0</ns3:atemp>
          </ns3:TrackPointExtension>
        </extensions>
      </trkpt>
      <trkpt lat="43.0832030810415744781494140625" lon="12.99685324542224407196044921875">
        <ele>838.20001220703125</ele>
        <time>2021-06-06T09:29:45.000Z</time>
        <extensions>
          <ns3:TrackPointExtension>
            <ns3:atemp>16.0</ns3:atemp>
          </ns3:TrackPointExtension>
        </extensions>
      </trkpt>
      <trkpt lat="43.083230070769786834716796875" lon="12.99695483408868312835693359375">
        <ele>837.20001220703125</ele>
        <time>2021-06-06T09:29:47.000Z</time>
        <extensions>
          <ns3:TrackPointExtension>
            <ns3:atemp>16.0</ns3:atemp>
          </ns3:TrackPointExtension>
        </extensions>
      </trkpt>
      <trkpt lat="43.0832500196993350982666015625" lon="12.99711459316313266754150390625">
        <ele>836.5999755859375</ele>
        <time>2021-06-06T09:29:50.000Z</time>
        <extensions>
          <ns3:TrackPointExtension>
            <ns3:atemp>16.0</ns3:atemp>
          </ns3:TrackPointExtension>
        </extensions>
      </trkpt>
      <trkpt lat="43.08325412683188915252685546875" lon="12.99717485904693603515625">
        <ele>836</ele>
        <time>2021-06-06T09:29:51.000Z</time>
        <extensions>
          <ns3:TrackPointExtension>
            <ns3:atemp>16.0</ns3:atemp>
          </ns3:TrackPointExtension>
        </extensions>
      </trkpt>
      <trkpt lat="43.083258569240570068359375" lon="12.99738340079784393310546875">
        <ele>834.79998779296875</ele>
        <time>2021-06-06T09:29:54.000Z</time>
        <extensions>
          <ns3:TrackPointExtension>
            <ns3:atemp>16.0</ns3:atemp>
          </ns3:TrackPointExtension>
        </extensions>
      </trkpt>
      <trkpt lat="43.08327072300016880035400390625" lon="12.9975248873233795166015625">
        <ele>833.79998779296875</ele>
        <time>2021-06-06T09:29:56.000Z</time>
        <extensions>
          <ns3:TrackPointExtension>
            <ns3:atemp>16.0</ns3:atemp>
          </ns3:TrackPointExtension>
        </extensions>
      </trkpt>
      <trkpt lat="43.08329880237579345703125" lon="12.99765958450734615325927734375">
        <ele>832.5999755859375</ele>
        <time>2021-06-06T09:29:58.000Z</time>
        <extensions>
          <ns3:TrackPointExtension>
            <ns3:atemp>16.0</ns3:atemp>
          </ns3:TrackPointExtension>
        </extensions>
      </trkpt>
      <trkpt lat="43.08333836495876312255859375" lon="12.99777005799114704132080078125">
        <ele>831.20001220703125</ele>
        <time>2021-06-06T09:30:00.000Z</time>
        <extensions>
          <ns3:TrackPointExtension>
            <ns3:atemp>16.0</ns3:atemp>
          </ns3:TrackPointExtension>
        </extensions>
      </trkpt>
      <trkpt lat="43.083356805145740509033203125" lon="12.99782269634306430816650390625">
        <ele>830.20001220703125</ele>
        <time>2021-06-06T09:30:01.000Z</time>
        <extensions>
          <ns3:TrackPointExtension>
            <ns3:atemp>16.0</ns3:atemp>
          </ns3:TrackPointExtension>
        </extensions>
      </trkpt>
      <trkpt lat="43.08337482623755931854248046875" lon="12.99786594696342945098876953125">
        <ele>829</ele>
        <time>2021-06-06T09:30:02.000Z</time>
        <extensions>
          <ns3:TrackPointExtension>
            <ns3:atemp>16.0</ns3:atemp>
          </ns3:TrackPointExtension>
        </extensions>
      </trkpt>
      <trkpt lat="43.08339024893939495086669921875" lon="12.9979116283357143402099609375">
        <ele>827.79998779296875</ele>
        <time>2021-06-06T09:30:03.000Z</time>
        <extensions>
          <ns3:TrackPointExtension>
            <ns3:atemp>16.0</ns3:atemp>
          </ns3:TrackPointExtension>
        </extensions>
      </trkpt>
      <trkpt lat="43.0834216810762882232666015625" lon="12.997997291386127471923828125">
        <ele>826.20001220703125</ele>
        <time>2021-06-06T09:30:05.000Z</time>
        <extensions>
          <ns3:TrackPointExtension>
            <ns3:atemp>16.0</ns3:atemp>
          </ns3:TrackPointExtension>
        </extensions>
      </trkpt>
      <trkpt lat="43.083438612520694732666015625" lon="12.9980345070362091064453125">
        <ele>825</ele>
        <time>2021-06-06T09:30:06.000Z</time>
        <extensions>
          <ns3:TrackPointExtension>
            <ns3:atemp>16.0</ns3:atemp>
          </ns3:TrackPointExtension>
        </extensions>
      </trkpt>
      <trkpt lat="43.0834736488759517669677734375" lon="12.9981151409447193145751953125">
        <ele>823.79998779296875</ele>
        <time>2021-06-06T09:30:08.000Z</time>
        <extensions>
          <ns3:TrackPointExtension>
            <ns3:atemp>16.0</ns3:atemp>
          </ns3:TrackPointExtension>
        </extensions>
      </trkpt>
      <trkpt lat="43.0835147202014923095703125" lon="12.9981962777674198150634765625">
        <ele>822.5999755859375</ele>
        <time>2021-06-06T09:30:10.000Z</time>
        <extensions>
          <ns3:TrackPointExtension>
            <ns3:atemp>16.0</ns3:atemp>
          </ns3:TrackPointExtension>
        </extensions>
      </trkpt>
      <trkpt lat="43.08356006629765033721923828125" lon="12.99835704267024993896484375">
        <ele>821.20001220703125</ele>
        <time>2021-06-06T09:30:13.000Z</time>
        <extensions>
          <ns3:TrackPointExtension>
            <ns3:atemp>16.0</ns3:atemp>
          </ns3:TrackPointExtension>
        </extensions>
      </trkpt>
      <trkpt lat="43.0835685320198535919189453125" lon="12.99841881729662418365478515625">
        <ele>820.5999755859375</ele>
        <time>2021-06-06T09:30:14.000Z</time>
        <extensions>
          <ns3:TrackPointExtension>
            <ns3:atemp>16.0</ns3:atemp>
          </ns3:TrackPointExtension>
        </extensions>
      </trkpt>
      <trkpt lat="43.08357305824756622314453125" lon="12.99847447313368320465087890625">
        <ele>819.79998779296875</ele>
        <time>2021-06-06T09:30:15.000Z</time>
        <extensions>
          <ns3:TrackPointExtension>
            <ns3:atemp>16.0</ns3:atemp>
          </ns3:TrackPointExtension>
        </extensions>
      </trkpt>
      <trkpt lat="43.0835809372365474700927734375" lon="12.99859098158776760101318359375">
        <ele>818.20001220703125</ele>
        <time>2021-06-06T09:30:17.000Z</time>
        <extensions>
          <ns3:TrackPointExtension>
            <ns3:atemp>16.0</ns3:atemp>
          </ns3:TrackPointExtension>
        </extensions>
      </trkpt>
      <trkpt lat="43.0835898220539093017578125" lon="12.99865468405187129974365234375">
        <ele>817.4000244140625</ele>
        <time>2021-06-06T09:30:18.000Z</time>
        <extensions>
          <ns3:TrackPointExtension>
            <ns3:atemp>16.0</ns3:atemp>
          </ns3:TrackPointExtension>
        </extensions>
      </trkpt>
      <trkpt lat="43.08359426446259021759033203125" lon="12.998711764812469482421875">
        <ele>816.4000244140625</ele>
        <time>2021-06-06T09:30:19.000Z</time>
        <extensions>
          <ns3:TrackPointExtension>
            <ns3:atemp>16.0</ns3:atemp>
          </ns3:TrackPointExtension>
        </extensions>
      </trkpt>
      <trkpt lat="43.08359728194773197174072265625" lon="12.99874889664351940155029296875">
        <ele>815.20001220703125</ele>
        <time>2021-06-06T09:30:20.000Z</time>
        <extensions>
          <ns3:TrackPointExtension>
            <ns3:atemp>16.0</ns3:atemp>
          </ns3:TrackPointExtension>
        </extensions>
      </trkpt>
      <trkpt lat="43.0835963599383831024169921875" lon="12.998773120343685150146484375">
        <ele>814</ele>
        <time>2021-06-06T09:30:21.000Z</time>
        <extensions>
          <ns3:TrackPointExtension>
            <ns3:atemp>16.0</ns3:atemp>
          </ns3:TrackPointExtension>
        </extensions>
      </trkpt>
      <trkpt lat="43.083597533404827117919921875" lon="12.99878242425620555877685546875">
        <ele>813</ele>
        <time>2021-06-06T09:30:22.000Z</time>
        <extensions>
          <ns3:TrackPointExtension>
            <ns3:atemp>16.0</ns3:atemp>
          </ns3:TrackPointExtension>
        </extensions>
      </trkpt>
      <trkpt lat="43.0835977010428905487060546875" lon="12.9987984336912631988525390625">
        <ele>810.79998779296875</ele>
        <time>2021-06-06T09:30:24.000Z</time>
        <extensions>
          <ns3:TrackPointExtension>
            <ns3:atemp>16.0</ns3:atemp>
          </ns3:TrackPointExtension>
        </extensions>
      </trkpt>
      <trkpt lat="43.08359812013804912567138671875" lon="12.99881838262081146240234375">
        <ele>809.79998779296875</ele>
        <time>2021-06-06T09:30:25.000Z</time>
        <extensions>
          <ns3:TrackPointExtension>
            <ns3:atemp>16.0</ns3:atemp>
          </ns3:TrackPointExtension>
        </extensions>
      </trkpt>
      <trkpt lat="43.0835946835577487945556640625" lon="12.9988607950508594512939453125">
        <ele>808.79998779296875</ele>
        <time>2021-06-06T09:30:26.000Z</time>
        <extensions>
          <ns3:TrackPointExtension>
            <ns3:atemp>16.0</ns3:atemp>
          </ns3:TrackPointExtension>
        </extensions>
      </trkpt>
      <trkpt lat="43.08359661139547824859619140625" lon="12.99894302152097225189208984375">
        <ele>807</ele>
        <time>2021-06-06T09:30:28.000Z</time>
        <extensions>
          <ns3:TrackPointExtension>
            <ns3:atemp>16.0</ns3:atemp>
          </ns3:TrackPointExtension>
        </extensions>
      </trkpt>
      <trkpt lat="43.08359845541417598724365234375" lon="12.99902650527656078338623046875">
        <ele>805.5999755859375</ele>
        <time>2021-06-06T09:30:30.000Z</time>
        <extensions>
          <ns3:TrackPointExtension>
            <ns3:atemp>16.0</ns3:atemp>
          </ns3:TrackPointExtension>
        </extensions>
      </trkpt>
      <trkpt lat="43.08361404575407505035400390625" lon="12.999064140021800994873046875">
        <ele>805.20001220703125</ele>
        <time>2021-06-06T09:30:31.000Z</time>
        <extensions>
          <ns3:TrackPointExtension>
            <ns3:atemp>16.0</ns3:atemp>
          </ns3:TrackPointExtension>
        </extensions>
      </trkpt>
      <trkpt lat="43.08367959223687648773193359375" lon="12.9991474561393260955810546875">
        <ele>804.79998779296875</ele>
        <time>2021-06-06T09:30:34.000Z</time>
        <extensions>
          <ns3:TrackPointExtension>
            <ns3:atemp>16.0</ns3:atemp>
          </ns3:TrackPointExtension>
        </extensions>
      </trkpt>
      <trkpt lat="43.08370440267026424407958984375" lon="12.9991746135056018829345703125">
        <ele>804.20001220703125</ele>
        <time>2021-06-06T09:30:35.000Z</time>
        <extensions>
          <ns3:TrackPointExtension>
            <ns3:atemp>16.0</ns3:atemp>
          </ns3:TrackPointExtension>
        </extensions>
      </trkpt>
      <trkpt lat="43.08375821448862552642822265625" lon="12.99924611113965511322021484375">
        <ele>802.79998779296875</ele>
        <time>2021-06-06T09:30:37.000Z</time>
        <extensions>
          <ns3:TrackPointExtension>
            <ns3:atemp>16.0</ns3:atemp>
          </ns3:TrackPointExtension>
        </extensions>
      </trkpt>
      <trkpt lat="43.0838206596672534942626953125" lon="12.9993060417473316192626953125">
        <ele>801.4000244140625</ele>
        <time>2021-06-06T09:30:39.000Z</time>
        <extensions>
          <ns3:TrackPointExtension>
            <ns3:atemp>16.0</ns3:atemp>
          </ns3:TrackPointExtension>
        </extensions>
      </trkpt>
      <trkpt lat="43.08387891389429569244384765625" lon="12.99936898984014987945556640625">
        <ele>800.4000244140625</ele>
        <time>2021-06-06T09:30:41.000Z</time>
        <extensions>
          <ns3:TrackPointExtension>
            <ns3:atemp>17.0</ns3:atemp>
          </ns3:TrackPointExtension>
        </extensions>
      </trkpt>
      <trkpt lat="43.0839333124458789825439453125" lon="12.999430596828460693359375">
        <ele>799.20001220703125</ele>
        <time>2021-06-06T09:30:43.000Z</time>
        <extensions>
          <ns3:TrackPointExtension>
            <ns3:atemp>17.0</ns3:atemp>
          </ns3:TrackPointExtension>
        </extensions>
      </trkpt>
      <trkpt lat="43.083987124264240264892578125" lon="12.999489605426788330078125">
        <ele>797.5999755859375</ele>
        <time>2021-06-06T09:30:45.000Z</time>
        <extensions>
          <ns3:TrackPointExtension>
            <ns3:atemp>17.0</ns3:atemp>
          </ns3:TrackPointExtension>
        </extensions>
      </trkpt>
      <trkpt lat="43.0840110965073108673095703125" lon="12.99952053464949131011962890625">
        <ele>796.5999755859375</ele>
        <time>2021-06-06T09:30:46.000Z</time>
        <extensions>
          <ns3:TrackPointExtension>
            <ns3:atemp>17.0</ns3:atemp>
          </ns3:TrackPointExtension>
        </extensions>
      </trkpt>
      <trkpt lat="43.0840627290308475494384765625" lon="12.99958725459873676300048828125">
        <ele>794.5999755859375</ele>
        <time>2021-06-06T09:30:48.000Z</time>
        <extensions>
          <ns3:TrackPointExtension>
            <ns3:atemp>17.0</ns3:atemp>
          </ns3:TrackPointExtension>
        </extensions>
      </trkpt>
      <trkpt lat="43.0840898863971233367919921875" lon="12.99963385798037052154541015625">
        <ele>793.79998779296875</ele>
        <time>2021-06-06T09:30:49.000Z</time>
        <extensions>
          <ns3:TrackPointExtension>
            <ns3:atemp>17.0</ns3:atemp>
          </ns3:TrackPointExtension>
        </extensions>
      </trkpt>
      <trkpt lat="43.0841177143156528472900390625" lon="12.999679706990718841552734375">
        <ele>793</ele>
        <time>2021-06-06T09:30:50.000Z</time>
        <extensions>
          <ns3:TrackPointExtension>
            <ns3:atemp>17.0</ns3:atemp>
          </ns3:TrackPointExtension>
        </extensions>
      </trkpt>
      <trkpt lat="43.08414679951965808868408203125" lon="12.99972354434430599212646484375">
        <ele>792.20001220703125</ele>
        <time>2021-06-06T09:30:51.000Z</time>
        <extensions>
          <ns3:TrackPointExtension>
            <ns3:atemp>17.0</ns3:atemp>
          </ns3:TrackPointExtension>
        </extensions>
      </trkpt>
      <trkpt lat="43.0841747112572193145751953125" lon="12.9997623525559902191162109375">
        <ele>791.20001220703125</ele>
        <time>2021-06-06T09:30:52.000Z</time>
        <extensions>
          <ns3:TrackPointExtension>
            <ns3:atemp>17.0</ns3:atemp>
          </ns3:TrackPointExtension>
        </extensions>
      </trkpt>
      <trkpt lat="43.08421972207725048065185546875" lon="12.9998438246548175811767578125">
        <ele>789.5999755859375</ele>
        <time>2021-06-06T09:30:54.000Z</time>
        <extensions>
          <ns3:TrackPointExtension>
            <ns3:atemp>17.0</ns3:atemp>
          </ns3:TrackPointExtension>
        </extensions>
      </trkpt>
      <trkpt lat="43.084276802837848663330078125" lon="12.99991783685982227325439453125">
        <ele>787.79998779296875</ele>
        <time>2021-06-06T09:30:56.000Z</time>
        <extensions>
          <ns3:TrackPointExtension>
            <ns3:atemp>17.0</ns3:atemp>
          </ns3:TrackPointExtension>
        </extensions>
      </trkpt>
      <trkpt lat="43.08430840261280536651611328125" lon="12.999951280653476715087890625">
        <ele>786.79998779296875</ele>
        <time>2021-06-06T09:30:57.000Z</time>
        <extensions>
          <ns3:TrackPointExtension>
            <ns3:atemp>17.0</ns3:atemp>
          </ns3:TrackPointExtension>
        </extensions>
      </trkpt>
      <trkpt lat="43.08434075675904750823974609375" lon="12.99998975358903408050537109375">
        <ele>785.5999755859375</ele>
        <time>2021-06-06T09:30:58.000Z</time>
        <extensions>
          <ns3:TrackPointExtension>
            <ns3:atemp>17.0</ns3:atemp>
          </ns3:TrackPointExtension>
        </extensions>
      </trkpt>
      <trkpt lat="43.08437529020011425018310546875" lon="13.00002579577267169952392578125">
        <ele>784.5999755859375</ele>
        <time>2021-06-06T09:30:59.000Z</time>
        <extensions>
          <ns3:TrackPointExtension>
            <ns3:atemp>17.0</ns3:atemp>
          </ns3:TrackPointExtension>
        </extensions>
      </trkpt>
      <trkpt lat="43.08441099710762500762939453125" lon="13.00006049685180187225341796875">
        <ele>783.20001220703125</ele>
        <time>2021-06-06T09:31:00.000Z</time>
        <extensions>
          <ns3:TrackPointExtension>
            <ns3:atemp>17.0</ns3:atemp>
          </ns3:TrackPointExtension>
        </extensions>
      </trkpt>
      <trkpt lat="43.0844446085393428802490234375" lon="13.00009821541607379913330078125">
        <ele>782</ele>
        <time>2021-06-06T09:31:01.000Z</time>
        <extensions>
          <ns3:TrackPointExtension>
            <ns3:atemp>17.0</ns3:atemp>
          </ns3:TrackPointExtension>
        </extensions>
      </trkpt>
      <trkpt lat="43.08447687886655330657958984375" lon="13.000137023627758026123046875">
        <ele>781</ele>
        <time>2021-06-06T09:31:02.000Z</time>
        <extensions>
          <ns3:TrackPointExtension>
            <ns3:atemp>17.0</ns3:atemp>
          </ns3:TrackPointExtension>
        </extensions>
      </trkpt>
      <trkpt lat="43.08450973592698574066162109375" lon="13.000169880688190460205078125">
        <ele>780</ele>
        <time>2021-06-06T09:31:03.000Z</time>
        <extensions>
          <ns3:TrackPointExtension>
            <ns3:atemp>17.0</ns3:atemp>
          </ns3:TrackPointExtension>
        </extensions>
      </trkpt>
      <trkpt lat="43.08454141952097415924072265625" lon="13.00020902417600154876708984375">
        <ele>778.4000244140625</ele>
        <time>2021-06-06T09:31:04.000Z</time>
        <extensions>
          <ns3:TrackPointExtension>
            <ns3:atemp>17.0</ns3:atemp>
          </ns3:TrackPointExtension>
        </extensions>
      </trkpt>
      <trkpt lat="43.08459539897739887237548828125" lon="13.00029032863676548004150390625">
        <ele>777</ele>
        <time>2021-06-06T09:31:06.000Z</time>
        <extensions>
          <ns3:TrackPointExtension>
            <ns3:atemp>17.0</ns3:atemp>
          </ns3:TrackPointExtension>
        </extensions>
      </trkpt>
      <trkpt lat="43.084635548293590545654296875" lon="13.00036543048918247222900390625">
        <ele>775.4000244140625</ele>
        <time>2021-06-06T09:31:08.000Z</time>
        <extensions>
          <ns3:TrackPointExtension>
            <ns3:atemp>17.0</ns3:atemp>
          </ns3:TrackPointExtension>
        </extensions>
      </trkpt>
      <trkpt lat="43.08465792797505855560302734375" lon="13.0004147998988628387451171875">
        <ele>774.4000244140625</ele>
        <time>2021-06-06T09:31:09.000Z</time>
        <extensions>
          <ns3:TrackPointExtension>
            <ns3:atemp>17.0</ns3:atemp>
          </ns3:TrackPointExtension>
        </extensions>
      </trkpt>
      <trkpt lat="43.084679804742336273193359375" lon="13.0004885606467723846435546875">
        <ele>773.20001220703125</ele>
        <time>2021-06-06T09:31:10.000Z</time>
        <extensions>
          <ns3:TrackPointExtension>
            <ns3:atemp>17.0</ns3:atemp>
          </ns3:TrackPointExtension>
        </extensions>
      </trkpt>
      <trkpt lat="43.08470553718507289886474609375" lon="13.0006665922701358795166015625">
        <ele>771.20001220703125</ele>
        <time>2021-06-06T09:31:12.000Z</time>
        <extensions>
          <ns3:TrackPointExtension>
            <ns3:atemp>17.0</ns3:atemp>
          </ns3:TrackPointExtension>
        </extensions>
      </trkpt>
      <trkpt lat="43.08474275283515453338623046875" lon="13.000728450715541839599609375">
        <ele>770.20001220703125</ele>
        <time>2021-06-06T09:31:13.000Z</time>
        <extensions>
          <ns3:TrackPointExtension>
            <ns3:atemp>17.0</ns3:atemp>
          </ns3:TrackPointExtension>
        </extensions>
      </trkpt>
      <trkpt lat="43.0847912840545177459716796875" lon="13.00077932886779308319091796875">
        <ele>769.20001220703125</ele>
        <time>2021-06-06T09:31:14.000Z</time>
        <extensions>
          <ns3:TrackPointExtension>
            <ns3:atemp>17.0</ns3:atemp>
          </ns3:TrackPointExtension>
        </extensions>
      </trkpt>
      <trkpt lat="43.08484585024416446685791015625" lon="13.000825680792331695556640625">
        <ele>768.20001220703125</ele>
        <time>2021-06-06T09:31:15.000Z</time>
        <extensions>
          <ns3:TrackPointExtension>
            <ns3:atemp>17.0</ns3:atemp>
          </ns3:TrackPointExtension>
        </extensions>
      </trkpt>
      <trkpt lat="43.08490033261477947235107421875" lon="13.0008754692971706390380859375">
        <ele>767.20001220703125</ele>
        <time>2021-06-06T09:31:16.000Z</time>
        <extensions>
          <ns3:TrackPointExtension>
            <ns3:atemp>17.0</ns3:atemp>
          </ns3:TrackPointExtension>
        </extensions>
      </trkpt>
      <trkpt lat="43.08494769036769866943359375" lon="13.000927604734897613525390625">
        <ele>766.20001220703125</ele>
        <time>2021-06-06T09:31:17.000Z</time>
        <extensions>
          <ns3:TrackPointExtension>
            <ns3:atemp>17.0</ns3:atemp>
          </ns3:TrackPointExtension>
        </extensions>
      </trkpt>
      <trkpt lat="43.08503913693130016326904296875" lon="13.0010176263749599456787109375">
        <ele>764</ele>
        <time>2021-06-06T09:31:19.000Z</time>
        <extensions>
          <ns3:TrackPointExtension>
            <ns3:atemp>17.0</ns3:atemp>
          </ns3:TrackPointExtension>
        </extensions>
      </trkpt>
      <trkpt lat="43.0850846506655216217041015625" lon="13.001058362424373626708984375">
        <ele>763</ele>
        <time>2021-06-06T09:31:20.000Z</time>
        <extensions>
          <ns3:TrackPointExtension>
            <ns3:atemp>17.0</ns3:atemp>
          </ns3:TrackPointExtension>
        </extensions>
      </trkpt>
      <trkpt lat="43.0851292423903942108154296875" lon="13.00109901465475559234619140625">
        <ele>762</ele>
        <time>2021-06-06T09:31:21.000Z</time>
        <extensions>
          <ns3:TrackPointExtension>
            <ns3:atemp>17.0</ns3:atemp>
          </ns3:TrackPointExtension>
        </extensions>
      </trkpt>
      <trkpt lat="43.08517509140074253082275390625" lon="13.00111393444240093231201171875">
        <ele>761</ele>
        <time>2021-06-06T09:31:22.000Z</time>
        <extensions>
          <ns3:TrackPointExtension>
            <ns3:atemp>17.0</ns3:atemp>
          </ns3:TrackPointExtension>
        </extensions>
      </trkpt>
      <trkpt lat="43.0852147378027439117431640625" lon="13.0011235736310482025146484375">
        <ele>760.20001220703125</ele>
        <time>2021-06-06T09:31:23.000Z</time>
        <extensions>
          <ns3:TrackPointExtension>
            <ns3:atemp>17.0</ns3:atemp>
          </ns3:TrackPointExtension>
        </extensions>
      </trkpt>
      <trkpt lat="43.08524885214865207672119140625" lon="13.0011161975562572479248046875">
        <ele>759.5999755859375</ele>
        <time>2021-06-06T09:31:24.000Z</time>
        <extensions>
          <ns3:TrackPointExtension>
            <ns3:atemp>17.0</ns3:atemp>
          </ns3:TrackPointExtension>
        </extensions>
      </trkpt>
      <trkpt lat="43.08526687324047088623046875" lon="13.001138158142566680908203125">
        <ele>759</ele>
        <time>2021-06-06T09:31:25.000Z</time>
        <extensions>
          <ns3:TrackPointExtension>
            <ns3:atemp>17.0</ns3:atemp>
          </ns3:TrackPointExtension>
        </extensions>
      </trkpt>
      <trkpt lat="43.08529361151158809661865234375" lon="13.0011581070721149444580078125">
        <ele>757.79998779296875</ele>
        <time>2021-06-06T09:31:28.000Z</time>
        <extensions>
          <ns3:TrackPointExtension>
            <ns3:atemp>17.0</ns3:atemp>
          </ns3:TrackPointExtension>
        </extensions>
      </trkpt>
      <trkpt lat="43.08533183299005031585693359375" lon="13.00121468491852283477783203125">
        <ele>757.5999755859375</ele>
        <time>2021-06-06T09:31:39.000Z</time>
        <extensions>
          <ns3:TrackPointExtension>
            <ns3:atemp>17.0</ns3:atemp>
          </ns3:TrackPointExtension>
        </extensions>
      </trkpt>
      <trkpt lat="43.08533065952360630035400390625" lon="13.001213930547237396240234375">
        <ele>757.5999755859375</ele>
        <time>2021-06-06T09:31:55.000Z</time>
        <extensions>
          <ns3:TrackPointExtension>
            <ns3:atemp>17.0</ns3:atemp>
          </ns3:TrackPointExtension>
        </extensions>
      </trkpt>
      <trkpt lat="43.0853277258574962615966796875" lon="13.00121250562369823455810546875">
        <ele>757.4000244140625</ele>
        <time>2021-06-06T09:32:12.000Z</time>
        <extensions>
          <ns3:TrackPointExtension>
            <ns3:atemp>17.0</ns3:atemp>
          </ns3:TrackPointExtension>
        </extensions>
      </trkpt>
      <trkpt lat="43.08532043360173702239990234375" lon="13.00122038461267948150634765625">
        <ele>757.4000244140625</ele>
        <time>2021-06-06T09:32:39.000Z</time>
        <extensions>
          <ns3:TrackPointExtension>
            <ns3:atemp>17.0</ns3:atemp>
          </ns3:TrackPointExtension>
        </extensions>
      </trkpt>
      <trkpt lat="43.08531842194497585296630859375" lon="13.00122172571718692779541015625">
        <ele>757.4000244140625</ele>
        <time>2021-06-06T09:33:05.000Z</time>
        <extensions>
          <ns3:TrackPointExtension>
            <ns3:atemp>17.0</ns3:atemp>
          </ns3:TrackPointExtension>
        </extensions>
      </trkpt>
      <trkpt lat="43.0853166617453098297119140625" lon="13.0012290179729461669921875">
        <ele>757.79998779296875</ele>
        <time>2021-06-06T09:33:26.000Z</time>
        <extensions>
          <ns3:TrackPointExtension>
            <ns3:atemp>17.0</ns3:atemp>
          </ns3:TrackPointExtension>
        </extensions>
      </trkpt>
      <trkpt lat="43.08532998897135257720947265625" lon="13.00129096023738384246826171875">
        <ele>758</ele>
        <time>2021-06-06T09:33:44.000Z</time>
        <extensions>
          <ns3:TrackPointExtension>
            <ns3:atemp>17.0</ns3:atemp>
          </ns3:TrackPointExtension>
        </extensions>
      </trkpt>
      <trkpt lat="43.08533786796033382415771484375" lon="13.0013046227395534515380859375">
        <ele>758</ele>
        <time>2021-06-06T09:33:45.000Z</time>
        <extensions>
          <ns3:TrackPointExtension>
            <ns3:atemp>17.0</ns3:atemp>
          </ns3:TrackPointExtension>
        </extensions>
      </trkpt>
      <trkpt lat="43.08539352379739284515380859375" lon="13.00135550089180469512939453125">
        <ele>758</ele>
        <time>2021-06-06T09:33:48.000Z</time>
        <extensions>
          <ns3:TrackPointExtension>
            <ns3:atemp>17.0</ns3:atemp>
          </ns3:TrackPointExtension>
        </extensions>
      </trkpt>
      <trkpt lat="43.0854641832411289215087890625" lon="13.00139606930315494537353515625">
        <ele>758</ele>
        <time>2021-06-06T09:33:50.000Z</time>
        <extensions>
          <ns3:TrackPointExtension>
            <ns3:atemp>17.0</ns3:atemp>
          </ns3:TrackPointExtension>
        </extensions>
      </trkpt>
      <trkpt lat="43.0855657719075679779052734375" lon="13.00145524553954601287841796875">
        <ele>758</ele>
        <time>2021-06-06T09:33:52.000Z</time>
        <extensions>
          <ns3:TrackPointExtension>
            <ns3:atemp>17.0</ns3:atemp>
          </ns3:TrackPointExtension>
        </extensions>
      </trkpt>
      <trkpt lat="43.0857275426387786865234375" lon="13.00157435238361358642578125">
        <ele>757.4000244140625</ele>
        <time>2021-06-06T09:33:56.000Z</time>
        <extensions>
          <ns3:TrackPointExtension>
            <ns3:atemp>17.0</ns3:atemp>
          </ns3:TrackPointExtension>
        </extensions>
      </trkpt>
      <trkpt lat="43.085763752460479736328125" lon="13.00159706734120845794677734375">
        <ele>757.20001220703125</ele>
        <time>2021-06-06T09:33:57.000Z</time>
        <extensions>
          <ns3:TrackPointExtension>
            <ns3:atemp>17.0</ns3:atemp>
          </ns3:TrackPointExtension>
        </extensions>
      </trkpt>
      <trkpt lat="43.08588554151356220245361328125" lon="13.00169982947409152984619140625">
        <ele>754.5999755859375</ele>
        <time>2021-06-06T09:34:00.000Z</time>
        <extensions>
          <ns3:TrackPointExtension>
            <ns3:atemp>17.0</ns3:atemp>
          </ns3:TrackPointExtension>
        </extensions>
      </trkpt>
      <trkpt lat="43.08593113906681537628173828125" lon="13.0017478577792644500732421875">
        <ele>753.5999755859375</ele>
        <time>2021-06-06T09:34:01.000Z</time>
        <extensions>
          <ns3:TrackPointExtension>
            <ns3:atemp>17.0</ns3:atemp>
          </ns3:TrackPointExtension>
        </extensions>
      </trkpt>
      <trkpt lat="43.0860750563442707061767578125" lon="13.00193184055387973785400390625">
        <ele>752.4000244140625</ele>
        <time>2021-06-06T09:34:04.000Z</time>
        <extensions>
          <ns3:TrackPointExtension>
            <ns3:atemp>17.0</ns3:atemp>
          </ns3:TrackPointExtension>
        </extensions>
      </trkpt>
      <trkpt lat="43.08616264723241329193115234375" lon="13.00209411419928073883056640625">
        <ele>751.4000244140625</ele>
        <time>2021-06-06T09:34:06.000Z</time>
        <extensions>
          <ns3:TrackPointExtension>
            <ns3:atemp>17.0</ns3:atemp>
          </ns3:TrackPointExtension>
        </extensions>
      </trkpt>
      <trkpt lat="43.086245544254779815673828125" lon="13.0022846348583698272705078125">
        <ele>750.20001220703125</ele>
        <time>2021-06-06T09:34:08.000Z</time>
        <extensions>
          <ns3:TrackPointExtension>
            <ns3:atemp>17.0</ns3:atemp>
          </ns3:TrackPointExtension>
        </extensions>
      </trkpt>
      <trkpt lat="43.0863221548497676849365234375" lon="13.0024842917919158935546875">
        <ele>748.79998779296875</ele>
        <time>2021-06-06T09:34:10.000Z</time>
        <extensions>
          <ns3:TrackPointExtension>
            <ns3:atemp>17.0</ns3:atemp>
          </ns3:TrackPointExtension>
        </extensions>
      </trkpt>
      <trkpt lat="43.08636867441236972808837890625" lon="13.00257590599358081817626953125">
        <ele>748</ele>
        <time>2021-06-06T09:34:11.000Z</time>
        <extensions>
          <ns3:TrackPointExtension>
            <ns3:atemp>17.0</ns3:atemp>
          </ns3:TrackPointExtension>
        </extensions>
      </trkpt>
      <trkpt lat="43.0864220671355724334716796875" lon="13.00266064703464508056640625">
        <ele>747.4000244140625</ele>
        <time>2021-06-06T09:34:12.000Z</time>
        <extensions>
          <ns3:TrackPointExtension>
            <ns3:atemp>17.0</ns3:atemp>
          </ns3:TrackPointExtension>
        </extensions>
      </trkpt>
      <trkpt lat="43.086546957492828369140625" lon="13.00281713716685771942138671875">
        <ele>746.4000244140625</ele>
        <time>2021-06-06T09:34:14.000Z</time>
        <extensions>
          <ns3:TrackPointExtension>
            <ns3:atemp>17.0</ns3:atemp>
          </ns3:TrackPointExtension>
        </extensions>
      </trkpt>
      <trkpt lat="43.0866151861846446990966796875" lon="13.00288201309740543365478515625">
        <ele>745.79998779296875</ele>
        <time>2021-06-06T09:34:15.000Z</time>
        <extensions>
          <ns3:TrackPointExtension>
            <ns3:atemp>17.0</ns3:atemp>
          </ns3:TrackPointExtension>
        </extensions>
      </trkpt>
      <trkpt lat="43.0866765417158603668212890625" lon="13.002958036959171295166015625">
        <ele>745</ele>
        <time>2021-06-06T09:34:16.000Z</time>
        <extensions>
          <ns3:TrackPointExtension>
            <ns3:atemp>17.0</ns3:atemp>
          </ns3:TrackPointExtension>
        </extensions>
      </trkpt>
      <trkpt lat="43.0868606083095073699951171875" lon="13.0031724460422992706298828125">
        <ele>743.79998779296875</ele>
        <time>2021-06-06T09:34:19.000Z</time>
        <extensions>
          <ns3:TrackPointExtension>
            <ns3:atemp>17.0</ns3:atemp>
          </ns3:TrackPointExtension>
        </extensions>
      </trkpt>
      <trkpt lat="43.0869122408330440521240234375" lon="13.00325182266533374786376953125">
        <ele>743.4000244140625</ele>
        <time>2021-06-06T09:34:20.000Z</time>
        <extensions>
          <ns3:TrackPointExtension>
            <ns3:atemp>17.0</ns3:atemp>
          </ns3:TrackPointExtension>
        </extensions>
      </trkpt>
      <trkpt lat="43.0870252288877964019775390625" lon="13.0033907108008861541748046875">
        <ele>742.5999755859375</ele>
        <time>2021-06-06T09:34:22.000Z</time>
        <extensions>
          <ns3:TrackPointExtension>
            <ns3:atemp>17.0</ns3:atemp>
          </ns3:TrackPointExtension>
        </extensions>
      </trkpt>
      <trkpt lat="43.08719135820865631103515625" lon="13.0035925470292568206787109375">
        <ele>741.5999755859375</ele>
        <time>2021-06-06T09:34:25.000Z</time>
        <extensions>
          <ns3:TrackPointExtension>
            <ns3:atemp>17.0</ns3:atemp>
          </ns3:TrackPointExtension>
        </extensions>
      </trkpt>
      <trkpt lat="43.08732337318360805511474609375" lon="13.00379798747599124908447265625">
        <ele>740.5999755859375</ele>
        <time>2021-06-06T09:34:28.000Z</time>
        <extensions>
          <ns3:TrackPointExtension>
            <ns3:atemp>17.0</ns3:atemp>
          </ns3:TrackPointExtension>
        </extensions>
      </trkpt>
      <trkpt lat="43.0873873271048069000244140625" lon="13.00393528304994106292724609375">
        <ele>740.4000244140625</ele>
        <time>2021-06-06T09:34:30.000Z</time>
        <extensions>
          <ns3:TrackPointExtension>
            <ns3:atemp>17.0</ns3:atemp>
          </ns3:TrackPointExtension>
        </extensions>
      </trkpt>
      <trkpt lat="43.087467961013317108154296875" lon="13.0040934495627880096435546875">
        <ele>740.4000244140625</ele>
        <time>2021-06-06T09:34:33.000Z</time>
        <extensions>
          <ns3:TrackPointExtension>
            <ns3:atemp>17.0</ns3:atemp>
          </ns3:TrackPointExtension>
        </extensions>
      </trkpt>
      <trkpt lat="43.08755672536790370941162109375" lon="13.0042885802686214447021484375">
        <ele>740.4000244140625</ele>
        <time>2021-06-06T09:34:38.000Z</time>
        <extensions>
          <ns3:TrackPointExtension>
            <ns3:atemp>17.0</ns3:atemp>
          </ns3:TrackPointExtension>
        </extensions>
      </trkpt>
      <trkpt lat="43.08763367123901844024658203125" lon="13.0044079385697841644287109375">
        <ele>741.4000244140625</ele>
        <time>2021-06-06T09:34:42.000Z</time>
        <extensions>
          <ns3:TrackPointExtension>
            <ns3:atemp>17.0</ns3:atemp>
          </ns3:TrackPointExtension>
        </extensions>
      </trkpt>
      <trkpt lat="43.08765596710145473480224609375" lon="13.00444004125893115997314453125">
        <ele>741.79998779296875</ele>
        <time>2021-06-06T09:34:43.000Z</time>
        <extensions>
          <ns3:TrackPointExtension>
            <ns3:atemp>17.0</ns3:atemp>
          </ns3:TrackPointExtension>
        </extensions>
      </trkpt>
      <trkpt lat="43.0877244472503662109375" lon="13.0045239441096782684326171875">
        <ele>742.5999755859375</ele>
        <time>2021-06-06T09:34:46.000Z</time>
        <extensions>
          <ns3:TrackPointExtension>
            <ns3:atemp>17.0</ns3:atemp>
          </ns3:TrackPointExtension>
        </extensions>
      </trkpt>
      <trkpt lat="43.08781958185136318206787109375" lon="13.0046329088509082794189453125">
        <ele>743.4000244140625</ele>
        <time>2021-06-06T09:34:50.000Z</time>
        <extensions>
          <ns3:TrackPointExtension>
            <ns3:atemp>17.0</ns3:atemp>
          </ns3:TrackPointExtension>
        </extensions>
      </trkpt>
      <trkpt lat="43.08784506283700466156005859375" lon="13.0046650953590869903564453125">
        <ele>743.79998779296875</ele>
        <time>2021-06-06T09:34:51.000Z</time>
        <extensions>
          <ns3:TrackPointExtension>
            <ns3:atemp>17.0</ns3:atemp>
          </ns3:TrackPointExtension>
        </extensions>
      </trkpt>
      <trkpt lat="43.08797498233616352081298828125" lon="13.0048204958438873291015625">
        <ele>745</ele>
        <time>2021-06-06T09:34:56.000Z</time>
        <extensions>
          <ns3:TrackPointExtension>
            <ns3:atemp>17.0</ns3:atemp>
          </ns3:TrackPointExtension>
        </extensions>
      </trkpt>
      <trkpt lat="43.08802359737455844879150390625" lon="13.0048877187073230743408203125">
        <ele>745.4000244140625</ele>
        <time>2021-06-06T09:34:58.000Z</time>
        <extensions>
          <ns3:TrackPointExtension>
            <ns3:atemp>17.0</ns3:atemp>
          </ns3:TrackPointExtension>
        </extensions>
      </trkpt>
      <trkpt lat="43.08812744915485382080078125" lon="13.00505183637142181396484375">
        <ele>746</ele>
        <time>2021-06-06T09:35:02.000Z</time>
        <extensions>
          <ns3:TrackPointExtension>
            <ns3:atemp>17.0</ns3:atemp>
          </ns3:TrackPointExtension>
        </extensions>
      </trkpt>
      <trkpt lat="43.088194169104099273681640625" lon="13.0051421932876110076904296875">
        <ele>746</ele>
        <time>2021-06-06T09:35:04.000Z</time>
        <extensions>
          <ns3:TrackPointExtension>
            <ns3:atemp>17.0</ns3:atemp>
          </ns3:TrackPointExtension>
        </extensions>
      </trkpt>
      <trkpt lat="43.08826030232012271881103515625" lon="13.00523221492767333984375">
        <ele>746</ele>
        <time>2021-06-06T09:35:06.000Z</time>
        <extensions>
          <ns3:TrackPointExtension>
            <ns3:atemp>17.0</ns3:atemp>
          </ns3:TrackPointExtension>
        </extensions>
      </trkpt>
      <trkpt lat="43.08840162120759487152099609375" lon="13.00543597899377346038818359375">
        <ele>746</ele>
        <time>2021-06-06T09:35:10.000Z</time>
        <extensions>
          <ns3:TrackPointExtension>
            <ns3:atemp>17.0</ns3:atemp>
          </ns3:TrackPointExtension>
        </extensions>
      </trkpt>
      <trkpt lat="43.08871661312878131866455078125" lon="13.00576337613165378570556640625">
        <ele>745.4000244140625</ele>
        <time>2021-06-06T09:35:16.000Z</time>
        <extensions>
          <ns3:TrackPointExtension>
            <ns3:atemp>17.0</ns3:atemp>
          </ns3:TrackPointExtension>
        </extensions>
      </trkpt>
      <trkpt lat="43.0888484604656696319580078125" lon="13.0058908648788928985595703125">
        <ele>745</ele>
        <time>2021-06-06T09:35:18.000Z</time>
        <extensions>
          <ns3:TrackPointExtension>
            <ns3:atemp>17.0</ns3:atemp>
          </ns3:TrackPointExtension>
        </extensions>
      </trkpt>
      <trkpt lat="43.08904568664729595184326171875" lon="13.00610871054232120513916015625">
        <ele>744</ele>
        <time>2021-06-06T09:35:21.000Z</time>
        <extensions>
          <ns3:TrackPointExtension>
            <ns3:atemp>17.0</ns3:atemp>
          </ns3:TrackPointExtension>
        </extensions>
      </trkpt>
      <trkpt lat="43.0891146697103977203369140625" lon="13.00618615932762622833251953125">
        <ele>743.5999755859375</ele>
        <time>2021-06-06T09:35:22.000Z</time>
        <extensions>
          <ns3:TrackPointExtension>
            <ns3:atemp>17.0</ns3:atemp>
          </ns3:TrackPointExtension>
        </extensions>
      </trkpt>
      <trkpt lat="43.0891860835254192352294921875" lon="13.006259500980377197265625">
        <ele>743</ele>
        <time>2021-06-06T09:35:23.000Z</time>
        <extensions>
          <ns3:TrackPointExtension>
            <ns3:atemp>17.0</ns3:atemp>
          </ns3:TrackPointExtension>
        </extensions>
      </trkpt>
      <trkpt lat="43.0892611853778362274169921875" lon="13.00632529892027378082275390625">
        <ele>742</ele>
        <time>2021-06-06T09:35:24.000Z</time>
        <extensions>
          <ns3:TrackPointExtension>
            <ns3:atemp>17.0</ns3:atemp>
          </ns3:TrackPointExtension>
        </extensions>
      </trkpt>
      <trkpt lat="43.08933855034410953521728515625" lon="13.0063857324421405792236328125">
        <ele>740.79998779296875</ele>
        <time>2021-06-06T09:35:25.000Z</time>
        <extensions>
          <ns3:TrackPointExtension>
            <ns3:atemp>17.0</ns3:atemp>
          </ns3:TrackPointExtension>
        </extensions>
      </trkpt>
      <trkpt lat="43.0894137360155582427978515625" lon="13.00644147209823131561279296875">
        <ele>739.20001220703125</ele>
        <time>2021-06-06T09:35:26.000Z</time>
        <extensions>
          <ns3:TrackPointExtension>
            <ns3:atemp>17.0</ns3:atemp>
          </ns3:TrackPointExtension>
        </extensions>
      </trkpt>
      <trkpt lat="43.0894945375621318817138671875" lon="13.006492517888545989990234375">
        <ele>738.5999755859375</ele>
        <time>2021-06-06T09:35:27.000Z</time>
        <extensions>
          <ns3:TrackPointExtension>
            <ns3:atemp>17.0</ns3:atemp>
          </ns3:TrackPointExtension>
        </extensions>
      </trkpt>
      <trkpt lat="43.089576847851276397705078125" lon="13.00654046237468719482421875">
        <ele>737.79998779296875</ele>
        <time>2021-06-06T09:35:28.000Z</time>
        <extensions>
          <ns3:TrackPointExtension>
            <ns3:atemp>17.0</ns3:atemp>
          </ns3:TrackPointExtension>
        </extensions>
      </trkpt>
      <trkpt lat="43.08972864411771297454833984375" lon="13.00666308961808681488037109375">
        <ele>736.20001220703125</ele>
        <time>2021-06-06T09:35:30.000Z</time>
        <extensions>
          <ns3:TrackPointExtension>
            <ns3:atemp>17.0</ns3:atemp>
          </ns3:TrackPointExtension>
        </extensions>
      </trkpt>
      <trkpt lat="43.08986225165426731109619140625" lon="13.00682351924479007720947265625">
        <ele>735.4000244140625</ele>
        <time>2021-06-06T09:35:32.000Z</time>
        <extensions>
          <ns3:TrackPointExtension>
            <ns3:atemp>17.0</ns3:atemp>
          </ns3:TrackPointExtension>
        </extensions>
      </trkpt>
      <trkpt lat="43.0899890698492527008056640625" lon="13.00699266605079174041748046875">
        <ele>735.20001220703125</ele>
        <time>2021-06-06T09:35:34.000Z</time>
        <extensions>
          <ns3:TrackPointExtension>
            <ns3:atemp>17.0</ns3:atemp>
          </ns3:TrackPointExtension>
        </extensions>
      </trkpt>
      <trkpt lat="43.09015025384724140167236328125" lon="13.00722786225378513336181640625">
        <ele>735</ele>
        <time>2021-06-06T09:35:37.000Z</time>
        <extensions>
          <ns3:TrackPointExtension>
            <ns3:atemp>17.0</ns3:atemp>
          </ns3:TrackPointExtension>
        </extensions>
      </trkpt>
      <trkpt lat="43.09019937179982662200927734375" lon="13.0072869546711444854736328125">
        <ele>735</ele>
        <time>2021-06-06T09:35:38.000Z</time>
        <extensions>
          <ns3:TrackPointExtension>
            <ns3:atemp>17.0</ns3:atemp>
          </ns3:TrackPointExtension>
        </extensions>
      </trkpt>
      <trkpt lat="43.0903511680662631988525390625" lon="13.0074183829128742218017578125">
        <ele>735</ele>
        <time>2021-06-06T09:35:41.000Z</time>
        <extensions>
          <ns3:TrackPointExtension>
            <ns3:atemp>17.0</ns3:atemp>
          </ns3:TrackPointExtension>
        </extensions>
      </trkpt>
      <trkpt lat="43.090619556605815887451171875" lon="13.0076658166944980621337890625">
        <ele>735.5999755859375</ele>
        <time>2021-06-06T09:35:47.000Z</time>
        <extensions>
          <ns3:TrackPointExtension>
            <ns3:atemp>17.0</ns3:atemp>
          </ns3:TrackPointExtension>
        </extensions>
      </trkpt>
      <trkpt lat="43.09073497541248798370361328125" lon="13.0077861808240413665771484375">
        <ele>736.5999755859375</ele>
        <time>2021-06-06T09:35:50.000Z</time>
        <extensions>
          <ns3:TrackPointExtension>
            <ns3:atemp>17.0</ns3:atemp>
          </ns3:TrackPointExtension>
        </extensions>
      </trkpt>
      <trkpt lat="43.09077252633869647979736328125" lon="13.00781794823706150054931640625">
        <ele>737.20001220703125</ele>
        <time>2021-06-06T09:35:51.000Z</time>
        <extensions>
          <ns3:TrackPointExtension>
            <ns3:atemp>17.0</ns3:atemp>
          </ns3:TrackPointExtension>
        </extensions>
      </trkpt>
      <trkpt lat="43.09083874337375164031982421875" lon="13.0078589357435703277587890625">
        <ele>737.79998779296875</ele>
        <time>2021-06-06T09:35:53.000Z</time>
        <extensions>
          <ns3:TrackPointExtension>
            <ns3:atemp>17.0</ns3:atemp>
          </ns3:TrackPointExtension>
        </extensions>
      </trkpt>
      <trkpt lat="43.090883754193782806396484375" lon="13.00789908505976200103759765625">
        <ele>738.5999755859375</ele>
        <time>2021-06-06T09:35:56.000Z</time>
        <extensions>
          <ns3:TrackPointExtension>
            <ns3:atemp>17.0</ns3:atemp>
          </ns3:TrackPointExtension>
        </extensions>
      </trkpt>
      <trkpt lat="43.090883754193782806396484375" lon="13.007897324860095977783203125">
        <ele>739</ele>
        <time>2021-06-06T09:35:57.000Z</time>
        <extensions>
          <ns3:TrackPointExtension>
            <ns3:atemp>17.0</ns3:atemp>
          </ns3:TrackPointExtension>
        </extensions>
      </trkpt>
      <trkpt lat="43.0908835865557193756103515625" lon="13.0078954808413982391357421875">
        <ele>740</ele>
        <time>2021-06-06T09:36:00.000Z</time>
        <extensions>
          <ns3:TrackPointExtension>
            <ns3:atemp>17.0</ns3:atemp>
          </ns3:TrackPointExtension>
        </extensions>
      </trkpt>
      <trkpt lat="43.09088031761348247528076171875" lon="13.007890619337558746337890625">
        <ele>741</ele>
        <time>2021-06-06T09:36:03.000Z</time>
        <extensions>
          <ns3:TrackPointExtension>
            <ns3:atemp>17.0</ns3:atemp>
          </ns3:TrackPointExtension>
        </extensions>
      </trkpt>
      <trkpt lat="43.090881071984767913818359375" lon="13.00788827240467071533203125">
        <ele>741.20001220703125</ele>
        <time>2021-06-06T09:36:04.000Z</time>
        <extensions>
          <ns3:TrackPointExtension>
            <ns3:atemp>17.0</ns3:atemp>
          </ns3:TrackPointExtension>
        </extensions>
      </trkpt>
      <trkpt lat="43.090879730880260467529296875" lon="13.0078877694904804229736328125">
        <ele>741.5999755859375</ele>
        <time>2021-06-06T09:36:12.000Z</time>
        <extensions>
          <ns3:TrackPointExtension>
            <ns3:atemp>18.0</ns3:atemp>
          </ns3:TrackPointExtension>
        </extensions>
      </trkpt>
      <trkpt lat="43.0908812396228313446044921875" lon="13.007887266576290130615234375">
        <ele>741.5999755859375</ele>
        <time>2021-06-06T09:36:25.000Z</time>
        <extensions>
          <ns3:TrackPointExtension>
            <ns3:atemp>18.0</ns3:atemp>
          </ns3:TrackPointExtension>
        </extensions>
      </trkpt>
      <trkpt lat="43.09088987298309803009033203125" lon="13.00787762738764286041259765625">
        <ele>741.79998779296875</ele>
        <time>2021-06-06T09:36:38.000Z</time>
        <extensions>
          <ns3:TrackPointExtension>
            <ns3:atemp>18.0</ns3:atemp>
          </ns3:TrackPointExtension>
        </extensions>
      </trkpt>
      <trkpt lat="43.09088920243084430694580078125" lon="13.00787259824573993682861328125">
        <ele>741.79998779296875</ele>
        <time>2021-06-06T09:36:50.000Z</time>
        <extensions>
          <ns3:TrackPointExtension>
            <ns3:atemp>18.0</ns3:atemp>
          </ns3:TrackPointExtension>
        </extensions>
      </trkpt>
      <trkpt lat="43.0908896215260028839111328125" lon="13.0078723467886447906494140625">
        <ele>741.5999755859375</ele>
        <time>2021-06-06T09:37:10.000Z</time>
        <extensions>
          <ns3:TrackPointExtension>
            <ns3:atemp>18.0</ns3:atemp>
          </ns3:TrackPointExtension>
        </extensions>
      </trkpt>
      <trkpt lat="43.09090697206556797027587890625" lon="13.00789824686944484710693359375">
        <ele>742</ele>
        <time>2021-06-06T09:37:31.000Z</time>
        <extensions>
          <ns3:TrackPointExtension>
            <ns3:atemp>18.0</ns3:atemp>
          </ns3:TrackPointExtension>
        </extensions>
      </trkpt>
      <trkpt lat="43.0909229815006256103515625" lon="13.0079296790063381195068359375">
        <ele>742</ele>
        <time>2021-06-06T09:37:40.000Z</time>
        <extensions>
          <ns3:TrackPointExtension>
            <ns3:atemp>18.0</ns3:atemp>
          </ns3:TrackPointExtension>
        </extensions>
      </trkpt>
      <trkpt lat="43.09093479998409748077392578125" lon="13.00795859657227993011474609375">
        <ele>742</ele>
        <time>2021-06-06T09:37:42.000Z</time>
        <extensions>
          <ns3:TrackPointExtension>
            <ns3:atemp>18.0</ns3:atemp>
          </ns3:TrackPointExtension>
        </extensions>
      </trkpt>
      <trkpt lat="43.09095491655170917510986328125" lon="13.008049540221691131591796875">
        <ele>742</ele>
        <time>2021-06-06T09:37:45.000Z</time>
        <extensions>
          <ns3:TrackPointExtension>
            <ns3:atemp>18.0</ns3:atemp>
          </ns3:TrackPointExtension>
        </extensions>
      </trkpt>
      <trkpt lat="43.0909211374819278717041015625" lon="13.00825330428779125213623046875">
        <ele>742.20001220703125</ele>
        <time>2021-06-06T09:37:49.000Z</time>
        <extensions>
          <ns3:TrackPointExtension>
            <ns3:atemp>18.0</ns3:atemp>
          </ns3:TrackPointExtension>
        </extensions>
      </trkpt>
      <trkpt lat="43.09092021547257900238037109375" lon="13.00837517715990543365478515625">
        <ele>742.20001220703125</ele>
        <time>2021-06-06T09:37:51.000Z</time>
        <extensions>
          <ns3:TrackPointExtension>
            <ns3:atemp>18.0</ns3:atemp>
          </ns3:TrackPointExtension>
        </extensions>
      </trkpt>
      <trkpt lat="43.0909231491386890411376953125" lon="13.00842714495956897735595703125">
        <ele>742.20001220703125</ele>
        <time>2021-06-06T09:37:52.000Z</time>
        <extensions>
          <ns3:TrackPointExtension>
            <ns3:atemp>18.0</ns3:atemp>
          </ns3:TrackPointExtension>
        </extensions>
      </trkpt>
      <trkpt lat="43.09093848802149295806884765625" lon="13.00863300450146198272705078125">
        <ele>742.20001220703125</ele>
        <time>2021-06-06T09:37:56.000Z</time>
        <extensions>
          <ns3:TrackPointExtension>
            <ns3:atemp>18.0</ns3:atemp>
          </ns3:TrackPointExtension>
        </extensions>
      </trkpt>
      <trkpt lat="43.090991042554378509521484375" lon="13.00884037278592586517333984375">
        <ele>742.4000244140625</ele>
        <time>2021-06-06T09:38:00.000Z</time>
        <extensions>
          <ns3:TrackPointExtension>
            <ns3:atemp>18.0</ns3:atemp>
          </ns3:TrackPointExtension>
        </extensions>
      </trkpt>
      <trkpt lat="43.0910116620361804962158203125" lon="13.00889267586171627044677734375">
        <ele>742.79998779296875</ele>
        <time>2021-06-06T09:38:01.000Z</time>
        <extensions>
          <ns3:TrackPointExtension>
            <ns3:atemp>18.0</ns3:atemp>
          </ns3:TrackPointExtension>
        </extensions>
      </trkpt>
      <trkpt lat="43.091038651764392852783203125" lon="13.0089402012526988983154296875">
        <ele>743.20001220703125</ele>
        <time>2021-06-06T09:38:02.000Z</time>
        <extensions>
          <ns3:TrackPointExtension>
            <ns3:atemp>18.0</ns3:atemp>
          </ns3:TrackPointExtension>
        </extensions>
      </trkpt>
      <trkpt lat="43.091135881841182708740234375" lon="13.009082861244678497314453125">
        <ele>743.5999755859375</ele>
        <time>2021-06-06T09:38:05.000Z</time>
        <extensions>
          <ns3:TrackPointExtension>
            <ns3:atemp>18.0</ns3:atemp>
          </ns3:TrackPointExtension>
        </extensions>
      </trkpt>
      <trkpt lat="43.09121827594935894012451171875" lon="13.009166009724140167236328125">
        <ele>743.5999755859375</ele>
        <time>2021-06-06T09:38:07.000Z</time>
        <extensions>
          <ns3:TrackPointExtension>
            <ns3:atemp>18.0</ns3:atemp>
          </ns3:TrackPointExtension>
        </extensions>
      </trkpt>
      <trkpt lat="43.0914860777556896209716796875" lon="13.00936139188706874847412109375">
        <ele>743.5999755859375</ele>
        <time>2021-06-06T09:38:13.000Z</time>
        <extensions>
          <ns3:TrackPointExtension>
            <ns3:atemp>18.0</ns3:atemp>
          </ns3:TrackPointExtension>
        </extensions>
      </trkpt>
      <trkpt lat="43.091744072735309600830078125" lon="13.0094840191304683685302734375">
        <ele>743.79998779296875</ele>
        <time>2021-06-06T09:38:19.000Z</time>
        <extensions>
          <ns3:TrackPointExtension>
            <ns3:atemp>18.0</ns3:atemp>
          </ns3:TrackPointExtension>
        </extensions>
      </trkpt>
      <trkpt lat="43.0919162370264530181884765625" lon="13.00956708379089832305908203125">
        <ele>744</ele>
        <time>2021-06-06T09:38:23.000Z</time>
        <extensions>
          <ns3:TrackPointExtension>
            <ns3:atemp>18.0</ns3:atemp>
          </ns3:TrackPointExtension>
        </extensions>
      </trkpt>
      <trkpt lat="43.0919591523706912994384765625" lon="13.00959105603396892547607421875">
        <ele>744</ele>
        <time>2021-06-06T09:38:24.000Z</time>
        <extensions>
          <ns3:TrackPointExtension>
            <ns3:atemp>18.0</ns3:atemp>
          </ns3:TrackPointExtension>
        </extensions>
      </trkpt>
      <trkpt lat="43.09223525226116180419921875" lon="13.00980412401258945465087890625">
        <ele>744</ele>
        <time>2021-06-06T09:38:31.000Z</time>
        <extensions>
          <ns3:TrackPointExtension>
            <ns3:atemp>18.0</ns3:atemp>
          </ns3:TrackPointExtension>
        </extensions>
      </trkpt>
      <trkpt lat="43.09231999330222606658935546875" lon="13.00984569825232028961181640625">
        <ele>744.20001220703125</ele>
        <time>2021-06-06T09:38:33.000Z</time>
        <extensions>
          <ns3:TrackPointExtension>
            <ns3:atemp>18.0</ns3:atemp>
          </ns3:TrackPointExtension>
        </extensions>
      </trkpt>
      <trkpt lat="43.092457540333271026611328125" lon="13.00987838767468929290771484375">
        <ele>744</ele>
        <time>2021-06-06T09:38:36.000Z</time>
        <extensions>
          <ns3:TrackPointExtension>
            <ns3:atemp>18.0</ns3:atemp>
          </ns3:TrackPointExtension>
        </extensions>
      </trkpt>
      <trkpt lat="43.09279306791722774505615234375" lon="13.00989448092877864837646484375">
        <ele>744</ele>
        <time>2021-06-06T09:38:43.000Z</time>
        <extensions>
          <ns3:TrackPointExtension>
            <ns3:atemp>18.0</ns3:atemp>
          </ns3:TrackPointExtension>
        </extensions>
      </trkpt>
      <trkpt lat="43.0930511467158794403076171875" lon="13.0099862627685070037841796875">
        <ele>744</ele>
        <time>2021-06-06T09:38:49.000Z</time>
        <extensions>
          <ns3:TrackPointExtension>
            <ns3:atemp>18.0</ns3:atemp>
          </ns3:TrackPointExtension>
        </extensions>
      </trkpt>
      <trkpt lat="43.09329732321202754974365234375" lon="13.01010553725063800811767578125">
        <ele>744.20001220703125</ele>
        <time>2021-06-06T09:38:55.000Z</time>
        <extensions>
          <ns3:TrackPointExtension>
            <ns3:atemp>18.0</ns3:atemp>
          </ns3:TrackPointExtension>
        </extensions>
      </trkpt>
      <trkpt lat="43.0935756862163543701171875" lon="13.010270409286022186279296875">
        <ele>744.5999755859375</ele>
        <time>2021-06-06T09:39:02.000Z</time>
        <extensions>
          <ns3:TrackPointExtension>
            <ns3:atemp>18.0</ns3:atemp>
          </ns3:TrackPointExtension>
        </extensions>
      </trkpt>
      <trkpt lat="43.09379369951784610748291015625" lon="13.01047383807599544525146484375">
        <ele>744.79998779296875</ele>
        <time>2021-06-06T09:39:08.000Z</time>
        <extensions>
          <ns3:TrackPointExtension>
            <ns3:atemp>18.0</ns3:atemp>
          </ns3:TrackPointExtension>
        </extensions>
      </trkpt>
      <trkpt lat="43.09398245997726917266845703125" lon="13.01069252192974090576171875">
        <ele>745.20001220703125</ele>
        <time>2021-06-06T09:39:14.000Z</time>
        <extensions>
          <ns3:TrackPointExtension>
            <ns3:atemp>18.0</ns3:atemp>
          </ns3:TrackPointExtension>
        </extensions>
      </trkpt>
      <trkpt lat="43.09401045553386211395263671875" lon="13.010728061199188232421875">
        <ele>745.20001220703125</ele>
        <time>2021-06-06T09:39:15.000Z</time>
        <extensions>
          <ns3:TrackPointExtension>
            <ns3:atemp>18.0</ns3:atemp>
          </ns3:TrackPointExtension>
        </extensions>
      </trkpt>
      <trkpt lat="43.0941711366176605224609375" lon="13.010880947113037109375">
        <ele>745.20001220703125</ele>
        <time>2021-06-06T09:39:20.000Z</time>
        <extensions>
          <ns3:TrackPointExtension>
            <ns3:atemp>18.0</ns3:atemp>
          </ns3:TrackPointExtension>
        </extensions>
      </trkpt>
      <trkpt lat="43.09437339194118976593017578125" lon="13.01094825379550457000732421875">
        <ele>745</ele>
        <time>2021-06-06T09:39:25.000Z</time>
        <extensions>
          <ns3:TrackPointExtension>
            <ns3:atemp>18.0</ns3:atemp>
          </ns3:TrackPointExtension>
        </extensions>
      </trkpt>
      <trkpt lat="43.0946520902216434478759765625" lon="13.01096535287797451019287109375">
        <ele>745</ele>
        <time>2021-06-06T09:39:31.000Z</time>
        <extensions>
          <ns3:TrackPointExtension>
            <ns3:atemp>18.0</ns3:atemp>
          </ns3:TrackPointExtension>
        </extensions>
      </trkpt>
      <trkpt lat="43.09479181654751300811767578125" lon="13.0110004730522632598876953125">
        <ele>745</ele>
        <time>2021-06-06T09:39:34.000Z</time>
        <extensions>
          <ns3:TrackPointExtension>
            <ns3:atemp>18.0</ns3:atemp>
          </ns3:TrackPointExtension>
        </extensions>
      </trkpt>
      <trkpt lat="43.09491620399057865142822265625" lon="13.01107331179082393646240234375">
        <ele>745</ele>
        <time>2021-06-06T09:39:37.000Z</time>
        <extensions>
          <ns3:TrackPointExtension>
            <ns3:atemp>18.0</ns3:atemp>
          </ns3:TrackPointExtension>
        </extensions>
      </trkpt>
      <trkpt lat="43.09500471688807010650634765625" lon="13.01114003174006938934326171875">
        <ele>745</ele>
        <time>2021-06-06T09:39:39.000Z</time>
        <extensions>
          <ns3:TrackPointExtension>
            <ns3:atemp>18.0</ns3:atemp>
          </ns3:TrackPointExtension>
        </extensions>
      </trkpt>
      <trkpt lat="43.09515039436519145965576171875" lon="13.01121831871569156646728515625">
        <ele>745.4000244140625</ele>
        <time>2021-06-06T09:39:42.000Z</time>
        <extensions>
          <ns3:TrackPointExtension>
            <ns3:atemp>18.0</ns3:atemp>
          </ns3:TrackPointExtension>
        </extensions>
      </trkpt>
      <trkpt lat="43.0954212136566638946533203125" lon="13.0113072507083415985107421875">
        <ele>745.4000244140625</ele>
        <time>2021-06-06T09:39:47.000Z</time>
        <extensions>
          <ns3:TrackPointExtension>
            <ns3:atemp>18.0</ns3:atemp>
          </ns3:TrackPointExtension>
        </extensions>
      </trkpt>
      <trkpt lat="43.0957021750509738922119140625" lon="13.0114497430622577667236328125">
        <ele>744.5999755859375</ele>
        <time>2021-06-06T09:39:52.000Z</time>
        <extensions>
          <ns3:TrackPointExtension>
            <ns3:atemp>18.0</ns3:atemp>
          </ns3:TrackPointExtension>
        </extensions>
      </trkpt>
      <trkpt lat="43.09576009400188922882080078125" lon="13.01150229759514331817626953125">
        <ele>744.20001220703125</ele>
        <time>2021-06-06T09:39:53.000Z</time>
        <extensions>
          <ns3:TrackPointExtension>
            <ns3:atemp>18.0</ns3:atemp>
          </ns3:TrackPointExtension>
        </extensions>
      </trkpt>
      <trkpt lat="43.0958175100386142730712890625" lon="13.011564910411834716796875">
        <ele>744</ele>
        <time>2021-06-06T09:39:54.000Z</time>
        <extensions>
          <ns3:TrackPointExtension>
            <ns3:atemp>18.0</ns3:atemp>
          </ns3:TrackPointExtension>
        </extensions>
      </trkpt>
      <trkpt lat="43.095926307141780853271484375" lon="13.011700697243213653564453125">
        <ele>743.5999755859375</ele>
        <time>2021-06-06T09:39:56.000Z</time>
        <extensions>
          <ns3:TrackPointExtension>
            <ns3:atemp>19.0</ns3:atemp>
          </ns3:TrackPointExtension>
        </extensions>
      </trkpt>
      <trkpt lat="43.0961023271083831787109375" lon="13.01189339719712734222412109375">
        <ele>743.4000244140625</ele>
        <time>2021-06-06T09:39:59.000Z</time>
        <extensions>
          <ns3:TrackPointExtension>
            <ns3:atemp>19.0</ns3:atemp>
          </ns3:TrackPointExtension>
        </extensions>
      </trkpt>
      <trkpt lat="43.09623777866363525390625" lon="13.01198945380747318267822265625">
        <ele>743</ele>
        <time>2021-06-06T09:40:01.000Z</time>
        <extensions>
          <ns3:TrackPointExtension>
            <ns3:atemp>19.0</ns3:atemp>
          </ns3:TrackPointExtension>
        </extensions>
      </trkpt>
      <trkpt lat="43.09630827046930789947509765625" lon="13.01202901639044284820556640625">
        <ele>742.4000244140625</ele>
        <time>2021-06-06T09:40:02.000Z</time>
        <extensions>
          <ns3:TrackPointExtension>
            <ns3:atemp>19.0</ns3:atemp>
          </ns3:TrackPointExtension>
        </extensions>
      </trkpt>
      <trkpt lat="43.0964577198028564453125" lon="13.0121085606515407562255859375">
        <ele>741.20001220703125</ele>
        <time>2021-06-06T09:40:04.000Z</time>
        <extensions>
          <ns3:TrackPointExtension>
            <ns3:atemp>19.0</ns3:atemp>
          </ns3:TrackPointExtension>
        </extensions>
      </trkpt>
      <trkpt lat="43.09661437757313251495361328125" lon="13.01217972300946712493896484375">
        <ele>739.5999755859375</ele>
        <time>2021-06-06T09:40:06.000Z</time>
        <extensions>
          <ns3:TrackPointExtension>
            <ns3:atemp>19.0</ns3:atemp>
          </ns3:TrackPointExtension>
        </extensions>
      </trkpt>
      <trkpt lat="43.0966942571103572845458984375" lon="13.012208975851535797119140625">
        <ele>738.79998779296875</ele>
        <time>2021-06-06T09:40:07.000Z</time>
        <extensions>
          <ns3:TrackPointExtension>
            <ns3:atemp>19.0</ns3:atemp>
          </ns3:TrackPointExtension>
        </extensions>
      </trkpt>
      <trkpt lat="43.09677765704691410064697265625" lon="13.012237139046192169189453125">
        <ele>738</ele>
        <time>2021-06-06T09:40:08.000Z</time>
        <extensions>
          <ns3:TrackPointExtension>
            <ns3:atemp>19.0</ns3:atemp>
          </ns3:TrackPointExtension>
        </extensions>
      </trkpt>
      <trkpt lat="43.09704034589231014251708984375" lon="13.01230561919510364532470703125">
        <ele>737</ele>
        <time>2021-06-06T09:40:11.000Z</time>
        <extensions>
          <ns3:TrackPointExtension>
            <ns3:atemp>19.0</ns3:atemp>
          </ns3:TrackPointExtension>
        </extensions>
      </trkpt>
      <trkpt lat="43.09713372029364109039306640625" lon="13.01232171244919300079345703125">
        <ele>736.5999755859375</ele>
        <time>2021-06-06T09:40:12.000Z</time>
        <extensions>
          <ns3:TrackPointExtension>
            <ns3:atemp>19.0</ns3:atemp>
          </ns3:TrackPointExtension>
        </extensions>
      </trkpt>
      <trkpt lat="43.0973212234675884246826171875" lon="13.01234685815870761871337890625">
        <ele>735.5999755859375</ele>
        <time>2021-06-06T09:40:14.000Z</time>
        <extensions>
          <ns3:TrackPointExtension>
            <ns3:atemp>19.0</ns3:atemp>
          </ns3:TrackPointExtension>
        </extensions>
      </trkpt>
      <trkpt lat="43.09770159423351287841796875" lon="13.01239304244518280029296875">
        <ele>734.20001220703125</ele>
        <time>2021-06-06T09:40:18.000Z</time>
        <extensions>
          <ns3:TrackPointExtension>
            <ns3:atemp>19.0</ns3:atemp>
          </ns3:TrackPointExtension>
        </extensions>
      </trkpt>
      <trkpt lat="43.097802512347698211669921875" lon="13.0124133266508579254150390625">
        <ele>732.79998779296875</ele>
        <time>2021-06-06T09:40:19.000Z</time>
        <extensions>
          <ns3:TrackPointExtension>
            <ns3:atemp>19.0</ns3:atemp>
          </ns3:TrackPointExtension>
        </extensions>
      </trkpt>
      <trkpt lat="43.0980061925947666168212890625" lon="13.01246638409793376922607421875">
        <ele>731</ele>
        <time>2021-06-06T09:40:21.000Z</time>
        <extensions>
          <ns3:TrackPointExtension>
            <ns3:atemp>19.0</ns3:atemp>
          </ns3:TrackPointExtension>
        </extensions>
      </trkpt>
      <trkpt lat="43.098202832043170928955078125" lon="13.0125266499817371368408203125">
        <ele>729.5999755859375</ele>
        <time>2021-06-06T09:40:23.000Z</time>
        <extensions>
          <ns3:TrackPointExtension>
            <ns3:atemp>19.0</ns3:atemp>
          </ns3:TrackPointExtension>
        </extensions>
      </trkpt>
      <trkpt lat="43.09830106794834136962890625" lon="13.0125586688518524169921875">
        <ele>729.20001220703125</ele>
        <time>2021-06-06T09:40:24.000Z</time>
        <extensions>
          <ns3:TrackPointExtension>
            <ns3:atemp>19.0</ns3:atemp>
          </ns3:TrackPointExtension>
        </extensions>
      </trkpt>
      <trkpt lat="43.098497204482555389404296875" lon="13.012617342174053192138671875">
        <ele>728.4000244140625</ele>
        <time>2021-06-06T09:40:26.000Z</time>
        <extensions>
          <ns3:TrackPointExtension>
            <ns3:atemp>19.0</ns3:atemp>
          </ns3:TrackPointExtension>
        </extensions>
      </trkpt>
      <trkpt lat="43.09869241900742053985595703125" lon="13.0126768536865711212158203125">
        <ele>727</ele>
        <time>2021-06-06T09:40:28.000Z</time>
        <extensions>
          <ns3:TrackPointExtension>
            <ns3:atemp>19.0</ns3:atemp>
          </ns3:TrackPointExtension>
        </extensions>
      </trkpt>
      <trkpt lat="43.09887212701141834259033203125" lon="13.01274298690259456634521484375">
        <ele>726.20001220703125</ele>
        <time>2021-06-06T09:40:30.000Z</time>
        <extensions>
          <ns3:TrackPointExtension>
            <ns3:atemp>19.0</ns3:atemp>
          </ns3:TrackPointExtension>
        </extensions>
      </trkpt>
      <trkpt lat="43.09895276091992855072021484375" lon="13.01277659833431243896484375">
        <ele>725.5999755859375</ele>
        <time>2021-06-06T09:40:31.000Z</time>
        <extensions>
          <ns3:TrackPointExtension>
            <ns3:atemp>19.0</ns3:atemp>
          </ns3:TrackPointExtension>
        </extensions>
      </trkpt>
      <trkpt lat="43.0991064012050628662109375" lon="13.012838624417781829833984375">
        <ele>724.4000244140625</ele>
        <time>2021-06-06T09:40:33.000Z</time>
        <extensions>
          <ns3:TrackPointExtension>
            <ns3:atemp>19.0</ns3:atemp>
          </ns3:TrackPointExtension>
        </extensions>
      </trkpt>
      <trkpt lat="43.09917974285781383514404296875" lon="13.01286351867020130157470703125">
        <ele>723.4000244140625</ele>
        <time>2021-06-06T09:40:34.000Z</time>
        <extensions>
          <ns3:TrackPointExtension>
            <ns3:atemp>19.0</ns3:atemp>
          </ns3:TrackPointExtension>
        </extensions>
      </trkpt>
      <trkpt lat="43.09925568290054798126220703125" lon="13.012886904180049896240234375">
        <ele>722.4000244140625</ele>
        <time>2021-06-06T09:40:35.000Z</time>
        <extensions>
          <ns3:TrackPointExtension>
            <ns3:atemp>19.0</ns3:atemp>
          </ns3:TrackPointExtension>
        </extensions>
      </trkpt>
      <trkpt lat="43.0993328802287578582763671875" lon="13.01291716285049915313720703125">
        <ele>721.5999755859375</ele>
        <time>2021-06-06T09:40:36.000Z</time>
        <extensions>
          <ns3:TrackPointExtension>
            <ns3:atemp>19.0</ns3:atemp>
          </ns3:TrackPointExtension>
        </extensions>
      </trkpt>
      <trkpt lat="43.09947277419269084930419921875" lon="13.0129913426935672760009765625">
        <ele>721</ele>
        <time>2021-06-06T09:40:38.000Z</time>
        <extensions>
          <ns3:TrackPointExtension>
            <ns3:atemp>19.0</ns3:atemp>
          </ns3:TrackPointExtension>
        </extensions>
      </trkpt>
      <trkpt lat="43.0995233170688152313232421875" lon="13.01303199492394924163818359375">
        <ele>720.79998779296875</ele>
        <time>2021-06-06T09:40:39.000Z</time>
        <extensions>
          <ns3:TrackPointExtension>
            <ns3:atemp>19.0</ns3:atemp>
          </ns3:TrackPointExtension>
        </extensions>
      </trkpt>
      <trkpt lat="43.099667988717555999755859375" lon="13.0132082663476467132568359375">
        <ele>720.79998779296875</ele>
        <time>2021-06-06T09:40:43.000Z</time>
        <extensions>
          <ns3:TrackPointExtension>
            <ns3:atemp>19.0</ns3:atemp>
          </ns3:TrackPointExtension>
        </extensions>
      </trkpt>
      <trkpt lat="43.0997523106634616851806640625" lon="13.013310022652149200439453125">
        <ele>720.5999755859375</ele>
        <time>2021-06-06T09:40:45.000Z</time>
        <extensions>
          <ns3:TrackPointExtension>
            <ns3:atemp>19.0</ns3:atemp>
          </ns3:TrackPointExtension>
        </extensions>
      </trkpt>
      <trkpt lat="43.099891282618045806884765625" lon="13.01342175342142581939697265625">
        <ele>721.20001220703125</ele>
        <time>2021-06-06T09:40:48.000Z</time>
        <extensions>
          <ns3:TrackPointExtension>
            <ns3:atemp>19.0</ns3:atemp>
          </ns3:TrackPointExtension>
        </extensions>
      </trkpt>
      <trkpt lat="43.10002430342137813568115234375" lon="13.01349677145481109619140625">
        <ele>721.4000244140625</ele>
        <time>2021-06-06T09:40:51.000Z</time>
        <extensions>
          <ns3:TrackPointExtension>
            <ns3:atemp>19.0</ns3:atemp>
          </ns3:TrackPointExtension>
        </extensions>
      </trkpt>
      <trkpt lat="43.100116252899169921875" lon="13.01351730711758136749267578125">
        <ele>721.79998779296875</ele>
        <time>2021-06-06T09:40:53.000Z</time>
        <extensions>
          <ns3:TrackPointExtension>
            <ns3:atemp>19.0</ns3:atemp>
          </ns3:TrackPointExtension>
        </extensions>
      </trkpt>
      <trkpt lat="43.1003876589238643646240234375" lon="13.013564832508563995361328125">
        <ele>722</ele>
        <time>2021-06-06T09:40:59.000Z</time>
        <extensions>
          <ns3:TrackPointExtension>
            <ns3:atemp>19.0</ns3:atemp>
          </ns3:TrackPointExtension>
        </extensions>
      </trkpt>
      <trkpt lat="43.10069896280765533447265625" lon="13.013654015958309173583984375">
        <ele>722.20001220703125</ele>
        <time>2021-06-06T09:41:06.000Z</time>
        <extensions>
          <ns3:TrackPointExtension>
            <ns3:atemp>19.0</ns3:atemp>
          </ns3:TrackPointExtension>
        </extensions>
      </trkpt>
      <trkpt lat="43.10101102106273174285888671875" lon="13.01375049166381359100341796875">
        <ele>722.79998779296875</ele>
        <time>2021-06-06T09:41:13.000Z</time>
        <extensions>
          <ns3:TrackPointExtension>
            <ns3:atemp>19.0</ns3:atemp>
          </ns3:TrackPointExtension>
        </extensions>
      </trkpt>
      <trkpt lat="43.1012117676436901092529296875" lon="13.013808913528919219970703125">
        <ele>722.79998779296875</ele>
        <time>2021-06-06T09:41:18.000Z</time>
        <extensions>
          <ns3:TrackPointExtension>
            <ns3:atemp>19.0</ns3:atemp>
          </ns3:TrackPointExtension>
        </extensions>
      </trkpt>
      <trkpt lat="43.10147789306938648223876953125" lon="13.0138997733592987060546875">
        <ele>722.79998779296875</ele>
        <time>2021-06-06T09:41:25.000Z</time>
        <extensions>
          <ns3:TrackPointExtension>
            <ns3:atemp>19.0</ns3:atemp>
          </ns3:TrackPointExtension>
        </extensions>
      </trkpt>
      <trkpt lat="43.1017753668129444122314453125" lon="13.014018796384334564208984375">
        <ele>722.79998779296875</ele>
        <time>2021-06-06T09:41:32.000Z</time>
        <extensions>
          <ns3:TrackPointExtension>
            <ns3:atemp>19.0</ns3:atemp>
          </ns3:TrackPointExtension>
        </extensions>
      </trkpt>
      <trkpt lat="43.1020848266780376434326171875" lon="13.014145195484161376953125">
        <ele>722.20001220703125</ele>
        <time>2021-06-06T09:41:38.000Z</time>
        <extensions>
          <ns3:TrackPointExtension>
            <ns3:atemp>19.0</ns3:atemp>
          </ns3:TrackPointExtension>
        </extensions>
      </trkpt>
      <trkpt lat="43.1023476831614971160888671875" lon="13.01428534090518951416015625">
        <ele>721.20001220703125</ele>
        <time>2021-06-06T09:41:43.000Z</time>
        <extensions>
          <ns3:TrackPointExtension>
            <ns3:atemp>19.0</ns3:atemp>
          </ns3:TrackPointExtension>
        </extensions>
      </trkpt>
      <trkpt lat="43.10244633816182613372802734375" lon="13.0143351294100284576416015625">
        <ele>720.5999755859375</ele>
        <time>2021-06-06T09:41:45.000Z</time>
        <extensions>
          <ns3:TrackPointExtension>
            <ns3:atemp>19.0</ns3:atemp>
          </ns3:TrackPointExtension>
        </extensions>
      </trkpt>
      <trkpt lat="43.10249696485698223114013671875" lon="13.014362789690494537353515625">
        <ele>719.5999755859375</ele>
        <time>2021-06-06T09:41:46.000Z</time>
        <extensions>
          <ns3:TrackPointExtension>
            <ns3:atemp>19.0</ns3:atemp>
          </ns3:TrackPointExtension>
        </extensions>
      </trkpt>
      <trkpt lat="43.102699555456638336181640625" lon="13.0144799686968326568603515625">
        <ele>718.5999755859375</ele>
        <time>2021-06-06T09:41:50.000Z</time>
        <extensions>
          <ns3:TrackPointExtension>
            <ns3:atemp>19.0</ns3:atemp>
          </ns3:TrackPointExtension>
        </extensions>
      </trkpt>
      <trkpt lat="43.1028143875300884246826171875" lon="13.0145436711609363555908203125">
        <ele>718</ele>
        <time>2021-06-06T09:41:52.000Z</time>
        <extensions>
          <ns3:TrackPointExtension>
            <ns3:atemp>19.0</ns3:atemp>
          </ns3:TrackPointExtension>
        </extensions>
      </trkpt>
      <trkpt lat="43.10300222598016262054443359375" lon="13.01464450545608997344970703125">
        <ele>717.4000244140625</ele>
        <time>2021-06-06T09:41:55.000Z</time>
        <extensions>
          <ns3:TrackPointExtension>
            <ns3:atemp>19.0</ns3:atemp>
          </ns3:TrackPointExtension>
        </extensions>
      </trkpt>
      <trkpt lat="43.10323943383991718292236328125" lon="13.01477543078362941741943359375">
        <ele>716</ele>
        <time>2021-06-06T09:41:59.000Z</time>
        <extensions>
          <ns3:TrackPointExtension>
            <ns3:atemp>19.0</ns3:atemp>
          </ns3:TrackPointExtension>
        </extensions>
      </trkpt>
      <trkpt lat="43.10341604053974151611328125" lon="13.014875091612339019775390625">
        <ele>714.5999755859375</ele>
        <time>2021-06-06T09:42:02.000Z</time>
        <extensions>
          <ns3:TrackPointExtension>
            <ns3:atemp>19.0</ns3:atemp>
          </ns3:TrackPointExtension>
        </extensions>
      </trkpt>
      <trkpt lat="43.103533051908016204833984375" lon="13.01492328755557537078857421875">
        <ele>713.5999755859375</ele>
        <time>2021-06-06T09:42:04.000Z</time>
        <extensions>
          <ns3:TrackPointExtension>
            <ns3:atemp>19.0</ns3:atemp>
          </ns3:TrackPointExtension>
        </extensions>
      </trkpt>
      <trkpt lat="43.103592731058597564697265625" lon="13.0149543844163417816162109375">
        <ele>713.20001220703125</ele>
        <time>2021-06-06T09:42:05.000Z</time>
        <extensions>
          <ns3:TrackPointExtension>
            <ns3:atemp>19.0</ns3:atemp>
          </ns3:TrackPointExtension>
        </extensions>
      </trkpt>
      <trkpt lat="43.1038882769644260406494140625" lon="13.01514507271349430084228515625">
        <ele>712.20001220703125</ele>
        <time>2021-06-06T09:42:10.000Z</time>
        <extensions>
          <ns3:TrackPointExtension>
            <ns3:atemp>19.0</ns3:atemp>
          </ns3:TrackPointExtension>
        </extensions>
      </trkpt>
      <trkpt lat="43.10406639240682125091552734375" lon="13.0152534507215023040771484375">
        <ele>711.20001220703125</ele>
        <time>2021-06-06T09:42:13.000Z</time>
        <extensions>
          <ns3:TrackPointExtension>
            <ns3:atemp>19.0</ns3:atemp>
          </ns3:TrackPointExtension>
        </extensions>
      </trkpt>
      <trkpt lat="43.1041836552321910858154296875" lon="13.01532444544136524200439453125">
        <ele>709.79998779296875</ele>
        <time>2021-06-06T09:42:15.000Z</time>
        <extensions>
          <ns3:TrackPointExtension>
            <ns3:atemp>19.0</ns3:atemp>
          </ns3:TrackPointExtension>
        </extensions>
      </trkpt>
      <trkpt lat="43.104409463703632354736328125" lon="13.01545687951147556304931640625">
        <ele>708.5999755859375</ele>
        <time>2021-06-06T09:42:19.000Z</time>
        <extensions>
          <ns3:TrackPointExtension>
            <ns3:atemp>19.0</ns3:atemp>
          </ns3:TrackPointExtension>
        </extensions>
      </trkpt>
      <trkpt lat="43.104563690721988677978515625" lon="13.01555695943534374237060546875">
        <ele>708.20001220703125</ele>
        <time>2021-06-06T09:42:22.000Z</time>
        <extensions>
          <ns3:TrackPointExtension>
            <ns3:atemp>19.0</ns3:atemp>
          </ns3:TrackPointExtension>
        </extensions>
      </trkpt>
      <trkpt lat="43.10478187166154384613037109375" lon="13.015698529779911041259765625">
        <ele>707.5999755859375</ele>
        <time>2021-06-06T09:42:26.000Z</time>
        <extensions>
          <ns3:TrackPointExtension>
            <ns3:atemp>19.0</ns3:atemp>
          </ns3:TrackPointExtension>
        </extensions>
      </trkpt>
      <trkpt lat="43.10494213365018367767333984375" lon="13.01579819060862064361572265625">
        <ele>707.4000244140625</ele>
        <time>2021-06-06T09:42:29.000Z</time>
        <extensions>
          <ns3:TrackPointExtension>
            <ns3:atemp>19.0</ns3:atemp>
          </ns3:TrackPointExtension>
        </extensions>
      </trkpt>
      <trkpt lat="43.10521890409290790557861328125" lon="13.01598460413515567779541015625">
        <ele>706.4000244140625</ele>
        <time>2021-06-06T09:42:34.000Z</time>
        <extensions>
          <ns3:TrackPointExtension>
            <ns3:atemp>19.0</ns3:atemp>
          </ns3:TrackPointExtension>
        </extensions>
      </trkpt>
      <trkpt lat="43.10532585717737674713134765625" lon="13.01605761051177978515625">
        <ele>705.79998779296875</ele>
        <time>2021-06-06T09:42:36.000Z</time>
        <extensions>
          <ns3:TrackPointExtension>
            <ns3:atemp>19.0</ns3:atemp>
          </ns3:TrackPointExtension>
        </extensions>
      </trkpt>
      <trkpt lat="43.10558133758604526519775390625" lon="13.01624913699924945831298828125">
        <ele>705.4000244140625</ele>
        <time>2021-06-06T09:42:41.000Z</time>
        <extensions>
          <ns3:TrackPointExtension>
            <ns3:atemp>19.0</ns3:atemp>
          </ns3:TrackPointExtension>
        </extensions>
      </trkpt>
      <trkpt lat="43.10579323209822177886962890625" lon="13.0164212174713611602783203125">
        <ele>705</ele>
        <time>2021-06-06T09:42:45.000Z</time>
        <extensions>
          <ns3:TrackPointExtension>
            <ns3:atemp>19.0</ns3:atemp>
          </ns3:TrackPointExtension>
        </extensions>
      </trkpt>
      <trkpt lat="43.10584268532693386077880859375" lon="13.01646606065332889556884765625">
        <ele>705</ele>
        <time>2021-06-06T09:42:46.000Z</time>
        <extensions>
          <ns3:TrackPointExtension>
            <ns3:atemp>19.0</ns3:atemp>
          </ns3:TrackPointExtension>
        </extensions>
      </trkpt>
      <trkpt lat="43.1060635484755039215087890625" lon="13.01666923798620700836181640625">
        <ele>704.5999755859375</ele>
        <time>2021-06-06T09:42:51.000Z</time>
        <extensions>
          <ns3:TrackPointExtension>
            <ns3:atemp>19.0</ns3:atemp>
          </ns3:TrackPointExtension>
        </extensions>
      </trkpt>
      <trkpt lat="43.1063810549676418304443359375" lon="13.0168919451534748077392578125">
        <ele>704.4000244140625</ele>
        <time>2021-06-06T09:42:57.000Z</time>
        <extensions>
          <ns3:TrackPointExtension>
            <ns3:atemp>19.0</ns3:atemp>
          </ns3:TrackPointExtension>
        </extensions>
      </trkpt>
      <trkpt lat="43.1067941151559352874755859375" lon="13.01721020601689815521240234375">
        <ele>703.79998779296875</ele>
        <time>2021-06-06T09:43:05.000Z</time>
        <extensions>
          <ns3:TrackPointExtension>
            <ns3:atemp>19.0</ns3:atemp>
          </ns3:TrackPointExtension>
        </extensions>
      </trkpt>
      <trkpt lat="43.1069071032106876373291015625" lon="13.01728564314544200897216796875">
        <ele>703.4000244140625</ele>
        <time>2021-06-06T09:43:07.000Z</time>
        <extensions>
          <ns3:TrackPointExtension>
            <ns3:atemp>19.0</ns3:atemp>
          </ns3:TrackPointExtension>
        </extensions>
      </trkpt>
      <trkpt lat="43.107037357985973358154296875" lon="13.0173636786639690399169921875">
        <ele>702.79998779296875</ele>
        <time>2021-06-06T09:43:10.000Z</time>
        <extensions>
          <ns3:TrackPointExtension>
            <ns3:atemp>19.0</ns3:atemp>
          </ns3:TrackPointExtension>
        </extensions>
      </trkpt>
      <trkpt lat="43.10707859694957733154296875" lon="13.0173839628696441650390625">
        <ele>702</ele>
        <time>2021-06-06T09:43:12.000Z</time>
        <extensions>
          <ns3:TrackPointExtension>
            <ns3:atemp>19.0</ns3:atemp>
          </ns3:TrackPointExtension>
        </extensions>
      </trkpt>
      <trkpt lat="43.10708262026309967041015625" lon="13.0173858068883419036865234375">
        <ele>701.79998779296875</ele>
        <time>2021-06-06T09:43:13.000Z</time>
        <extensions>
          <ns3:TrackPointExtension>
            <ns3:atemp>19.0</ns3:atemp>
          </ns3:TrackPointExtension>
        </extensions>
      </trkpt>
      <trkpt lat="43.1070831231772899627685546875" lon="13.01738404668867588043212890625">
        <ele>701</ele>
        <time>2021-06-06T09:43:14.000Z</time>
        <extensions>
          <ns3:TrackPointExtension>
            <ns3:atemp>19.0</ns3:atemp>
          </ns3:TrackPointExtension>
        </extensions>
      </trkpt>
      <trkpt lat="43.107082955539226531982421875" lon="13.0173784308135509490966796875">
        <ele>699.79998779296875</ele>
        <time>2021-06-06T09:43:19.000Z</time>
        <extensions>
          <ns3:TrackPointExtension>
            <ns3:atemp>19.0</ns3:atemp>
          </ns3:TrackPointExtension>
        </extensions>
      </trkpt>
      <trkpt lat="43.10708220116794109344482421875" lon="13.01737868227064609527587890625">
        <ele>699.79998779296875</ele>
        <time>2021-06-06T09:43:26.000Z</time>
        <extensions>
          <ns3:TrackPointExtension>
            <ns3:atemp>19.0</ns3:atemp>
          </ns3:TrackPointExtension>
        </extensions>
      </trkpt>
      <trkpt lat="43.1070834584534168243408203125" lon="13.017379939556121826171875">
        <ele>699.5999755859375</ele>
        <time>2021-06-06T09:43:44.000Z</time>
        <extensions>
          <ns3:TrackPointExtension>
            <ns3:atemp>20.0</ns3:atemp>
          </ns3:TrackPointExtension>
        </extensions>
      </trkpt>
      <trkpt lat="43.10708203352987766265869140625" lon="13.01737884990870952606201171875">
        <ele>699.4000244140625</ele>
        <time>2021-06-06T09:43:58.000Z</time>
        <extensions>
          <ns3:TrackPointExtension>
            <ns3:atemp>20.0</ns3:atemp>
          </ns3:TrackPointExtension>
        </extensions>
      </trkpt>
      <trkpt lat="43.10708169825375080108642578125" lon="13.01737784408032894134521484375">
        <ele>699.5999755859375</ele>
        <time>2021-06-06T09:44:24.000Z</time>
        <extensions>
          <ns3:TrackPointExtension>
            <ns3:atemp>20.0</ns3:atemp>
          </ns3:TrackPointExtension>
        </extensions>
      </trkpt>
      <trkpt lat="43.10708136297762393951416015625" lon="13.01737801171839237213134765625">
        <ele>699.4000244140625</ele>
        <time>2021-06-06T09:44:42.000Z</time>
        <extensions>
          <ns3:TrackPointExtension>
            <ns3:atemp>20.0</ns3:atemp>
          </ns3:TrackPointExtension>
        </extensions>
      </trkpt>
      <trkpt lat="43.10708186589181423187255859375" lon="13.01737784408032894134521484375">
        <ele>699.4000244140625</ele>
        <time>2021-06-06T09:45:03.000Z</time>
        <extensions>
          <ns3:TrackPointExtension>
            <ns3:atemp>20.0</ns3:atemp>
          </ns3:TrackPointExtension>
        </extensions>
      </trkpt>
      <trkpt lat="43.10708253644406795501708984375" lon="13.01737926900386810302734375">
        <ele>699.4000244140625</ele>
        <time>2021-06-06T09:45:31.000Z</time>
        <extensions>
          <ns3:TrackPointExtension>
            <ns3:atemp>21.0</ns3:atemp>
          </ns3:TrackPointExtension>
        </extensions>
      </trkpt>
      <trkpt lat="43.107082284986972808837890625" lon="13.01737868227064609527587890625">
        <ele>699.5999755859375</ele>
        <time>2021-06-06T09:45:53.000Z</time>
        <extensions>
          <ns3:TrackPointExtension>
            <ns3:atemp>21.0</ns3:atemp>
          </ns3:TrackPointExtension>
        </extensions>
      </trkpt>
      <trkpt lat="43.1071307323873043060302734375" lon="13.01741053350269794464111328125">
        <ele>699.5999755859375</ele>
        <time>2021-06-06T09:46:00.000Z</time>
        <extensions>
          <ns3:TrackPointExtension>
            <ns3:atemp>21.0</ns3:atemp>
          </ns3:TrackPointExtension>
        </extensions>
      </trkpt>
      <trkpt lat="43.10726576484739780426025390625" lon="13.01748077385127544403076171875">
        <ele>699.4000244140625</ele>
        <time>2021-06-06T09:46:04.000Z</time>
        <extensions>
          <ns3:TrackPointExtension>
            <ns3:atemp>21.0</ns3:atemp>
          </ns3:TrackPointExtension>
        </extensions>
      </trkpt>
      <trkpt lat="43.10745008289813995361328125" lon="13.0175946839153766632080078125">
        <ele>699</ele>
        <time>2021-06-06T09:46:08.000Z</time>
        <extensions>
          <ns3:TrackPointExtension>
            <ns3:atemp>21.0</ns3:atemp>
          </ns3:TrackPointExtension>
        </extensions>
      </trkpt>
      <trkpt lat="43.10754823498427867889404296875" lon="13.01766626536846160888671875">
        <ele>698.79998779296875</ele>
        <time>2021-06-06T09:46:10.000Z</time>
        <extensions>
          <ns3:TrackPointExtension>
            <ns3:atemp>21.0</ns3:atemp>
          </ns3:TrackPointExtension>
        </extensions>
      </trkpt>
      <trkpt lat="43.10768469236791133880615234375" lon="13.017751760780811309814453125">
        <ele>698</ele>
        <time>2021-06-06T09:46:13.000Z</time>
        <extensions>
          <ns3:TrackPointExtension>
            <ns3:atemp>21.0</ns3:atemp>
          </ns3:TrackPointExtension>
        </extensions>
      </trkpt>
      <trkpt lat="43.1077771447598934173583984375" lon="13.01780984736979007720947265625">
        <ele>696.79998779296875</ele>
        <time>2021-06-06T09:46:15.000Z</time>
        <extensions>
          <ns3:TrackPointExtension>
            <ns3:atemp>21.0</ns3:atemp>
          </ns3:TrackPointExtension>
        </extensions>
      </trkpt>
      <trkpt lat="43.10782399959862232208251953125" lon="13.017844967544078826904296875">
        <ele>696.4000244140625</ele>
        <time>2021-06-06T09:46:16.000Z</time>
        <extensions>
          <ns3:TrackPointExtension>
            <ns3:atemp>21.0</ns3:atemp>
          </ns3:TrackPointExtension>
        </extensions>
      </trkpt>
      <trkpt lat="43.10787194408476352691650390625" lon="13.0178853683173656463623046875">
        <ele>695.79998779296875</ele>
        <time>2021-06-06T09:46:17.000Z</time>
        <extensions>
          <ns3:TrackPointExtension>
            <ns3:atemp>21.0</ns3:atemp>
          </ns3:TrackPointExtension>
        </extensions>
      </trkpt>
      <trkpt lat="43.10796883888542652130126953125" lon="13.01796533167362213134765625">
        <ele>694.79998779296875</ele>
        <time>2021-06-06T09:46:19.000Z</time>
        <extensions>
          <ns3:TrackPointExtension>
            <ns3:atemp>21.0</ns3:atemp>
          </ns3:TrackPointExtension>
        </extensions>
      </trkpt>
      <trkpt lat="43.10806841589510440826416015625" lon="13.01804889924824237823486328125">
        <ele>693.4000244140625</ele>
        <time>2021-06-06T09:46:21.000Z</time>
        <extensions>
          <ns3:TrackPointExtension>
            <ns3:atemp>21.0</ns3:atemp>
          </ns3:TrackPointExtension>
        </extensions>
      </trkpt>
      <trkpt lat="43.10817050747573375701904296875" lon="13.018134646117687225341796875">
        <ele>692.4000244140625</ele>
        <time>2021-06-06T09:46:23.000Z</time>
        <extensions>
          <ns3:TrackPointExtension>
            <ns3:atemp>21.0</ns3:atemp>
          </ns3:TrackPointExtension>
        </extensions>
      </trkpt>
      <trkpt lat="43.10822213999927043914794921875" lon="13.01817177794873714447021484375">
        <ele>691.5999755859375</ele>
        <time>2021-06-06T09:46:24.000Z</time>
        <extensions>
          <ns3:TrackPointExtension>
            <ns3:atemp>21.0</ns3:atemp>
          </ns3:TrackPointExtension>
        </extensions>
      </trkpt>
      <trkpt lat="43.10827511362731456756591796875" lon="13.01820212043821811676025390625">
        <ele>691</ele>
        <time>2021-06-06T09:46:25.000Z</time>
        <extensions>
          <ns3:TrackPointExtension>
            <ns3:atemp>21.0</ns3:atemp>
          </ns3:TrackPointExtension>
        </extensions>
      </trkpt>
      <trkpt lat="43.10837837867438793182373046875" lon="13.01826716400682926177978515625">
        <ele>689.79998779296875</ele>
        <time>2021-06-06T09:46:27.000Z</time>
        <extensions>
          <ns3:TrackPointExtension>
            <ns3:atemp>21.0</ns3:atemp>
          </ns3:TrackPointExtension>
        </extensions>
      </trkpt>
      <trkpt lat="43.10842615552246570587158203125" lon="13.01831276156008243560791015625">
        <ele>689.20001220703125</ele>
        <time>2021-06-06T09:46:28.000Z</time>
        <extensions>
          <ns3:TrackPointExtension>
            <ns3:atemp>21.0</ns3:atemp>
          </ns3:TrackPointExtension>
        </extensions>
      </trkpt>
      <trkpt lat="43.108470328152179718017578125" lon="13.01835701800882816314697265625">
        <ele>688.4000244140625</ele>
        <time>2021-06-06T09:46:29.000Z</time>
        <extensions>
          <ns3:TrackPointExtension>
            <ns3:atemp>21.0</ns3:atemp>
          </ns3:TrackPointExtension>
        </extensions>
      </trkpt>
      <trkpt lat="43.1085134111344814300537109375" lon="13.0183980055153369903564453125">
        <ele>687.79998779296875</ele>
        <time>2021-06-06T09:46:30.000Z</time>
        <extensions>
          <ns3:TrackPointExtension>
            <ns3:atemp>21.0</ns3:atemp>
          </ns3:TrackPointExtension>
        </extensions>
      </trkpt>
      <trkpt lat="43.10855649411678314208984375" lon="13.0184382386505603790283203125">
        <ele>687.4000244140625</ele>
        <time>2021-06-06T09:46:31.000Z</time>
        <extensions>
          <ns3:TrackPointExtension>
            <ns3:atemp>21.0</ns3:atemp>
          </ns3:TrackPointExtension>
        </extensions>
      </trkpt>
      <trkpt lat="43.10864089988172054290771484375" lon="13.018528930842876434326171875">
        <ele>686</ele>
        <time>2021-06-06T09:46:33.000Z</time>
        <extensions>
          <ns3:TrackPointExtension>
            <ns3:atemp>21.0</ns3:atemp>
          </ns3:TrackPointExtension>
        </extensions>
      </trkpt>
      <trkpt lat="43.10868331231176853179931640625" lon="13.01858282648026943206787109375">
        <ele>685.20001220703125</ele>
        <time>2021-06-06T09:46:34.000Z</time>
        <extensions>
          <ns3:TrackPointExtension>
            <ns3:atemp>21.0</ns3:atemp>
          </ns3:TrackPointExtension>
        </extensions>
      </trkpt>
      <trkpt lat="43.108732514083385467529296875" lon="13.01863898523151874542236328125">
        <ele>684.5999755859375</ele>
        <time>2021-06-06T09:46:35.000Z</time>
        <extensions>
          <ns3:TrackPointExtension>
            <ns3:atemp>21.0</ns3:atemp>
          </ns3:TrackPointExtension>
        </extensions>
      </trkpt>
      <trkpt lat="43.10887978412210941314697265625" lon="13.01878868602216243743896484375">
        <ele>683.20001220703125</ele>
        <time>2021-06-06T09:46:38.000Z</time>
        <extensions>
          <ns3:TrackPointExtension>
            <ns3:atemp>21.0</ns3:atemp>
          </ns3:TrackPointExtension>
        </extensions>
      </trkpt>
      <trkpt lat="43.1089278124272823333740234375" lon="13.01882288418710231781005859375">
        <ele>683</ele>
        <time>2021-06-06T09:46:39.000Z</time>
        <extensions>
          <ns3:TrackPointExtension>
            <ns3:atemp>21.0</ns3:atemp>
          </ns3:TrackPointExtension>
        </extensions>
      </trkpt>
      <trkpt lat="43.10897366143763065338134765625" lon="13.01885138265788555145263671875">
        <ele>682</ele>
        <time>2021-06-06T09:46:40.000Z</time>
        <extensions>
          <ns3:TrackPointExtension>
            <ns3:atemp>21.0</ns3:atemp>
          </ns3:TrackPointExtension>
        </extensions>
      </trkpt>
      <trkpt lat="43.1090612523257732391357421875" lon="13.0189101397991180419921875">
        <ele>680.79998779296875</ele>
        <time>2021-06-06T09:46:42.000Z</time>
        <extensions>
          <ns3:TrackPointExtension>
            <ns3:atemp>21.0</ns3:atemp>
          </ns3:TrackPointExtension>
        </extensions>
      </trkpt>
      <trkpt lat="43.10914926230907440185546875" lon="13.018992282450199127197265625">
        <ele>679.4000244140625</ele>
        <time>2021-06-06T09:46:44.000Z</time>
        <extensions>
          <ns3:TrackPointExtension>
            <ns3:atemp>21.0</ns3:atemp>
          </ns3:TrackPointExtension>
        </extensions>
      </trkpt>
      <trkpt lat="43.10919242911040782928466796875" lon="13.01902480423450469970703125">
        <ele>678.20001220703125</ele>
        <time>2021-06-06T09:46:45.000Z</time>
        <extensions>
          <ns3:TrackPointExtension>
            <ns3:atemp>21.0</ns3:atemp>
          </ns3:TrackPointExtension>
        </extensions>
      </trkpt>
      <trkpt lat="43.109293766319751739501953125" lon="13.01907316781580448150634765625">
        <ele>677</ele>
        <time>2021-06-06T09:46:47.000Z</time>
        <extensions>
          <ns3:TrackPointExtension>
            <ns3:atemp>21.0</ns3:atemp>
          </ns3:TrackPointExtension>
        </extensions>
      </trkpt>
      <trkpt lat="43.10934028588235378265380859375" lon="13.01910351030528545379638671875">
        <ele>676.5999755859375</ele>
        <time>2021-06-06T09:46:48.000Z</time>
        <extensions>
          <ns3:TrackPointExtension>
            <ns3:atemp>21.0</ns3:atemp>
          </ns3:TrackPointExtension>
        </extensions>
      </trkpt>
      <trkpt lat="43.1094256974756717681884765625" lon="13.01918515004217624664306640625">
        <ele>675.79998779296875</ele>
        <time>2021-06-06T09:46:50.000Z</time>
        <extensions>
          <ns3:TrackPointExtension>
            <ns3:atemp>21.0</ns3:atemp>
          </ns3:TrackPointExtension>
        </extensions>
      </trkpt>
      <trkpt lat="43.1095091812312602996826171875" lon="13.0192643590271472930908203125">
        <ele>674</ele>
        <time>2021-06-06T09:46:52.000Z</time>
        <extensions>
          <ns3:TrackPointExtension>
            <ns3:atemp>21.0</ns3:atemp>
          </ns3:TrackPointExtension>
        </extensions>
      </trkpt>
      <trkpt lat="43.109553270041942596435546875" lon="13.019293360412120819091796875">
        <ele>673.5999755859375</ele>
        <time>2021-06-06T09:46:53.000Z</time>
        <extensions>
          <ns3:TrackPointExtension>
            <ns3:atemp>21.0</ns3:atemp>
          </ns3:TrackPointExtension>
        </extensions>
      </trkpt>
      <trkpt lat="43.109674639999866485595703125" lon="13.01938631571829319000244140625">
        <ele>673</ele>
        <time>2021-06-06T09:46:56.000Z</time>
        <extensions>
          <ns3:TrackPointExtension>
            <ns3:atemp>21.0</ns3:atemp>
          </ns3:TrackPointExtension>
        </extensions>
      </trkpt>
      <trkpt lat="43.10972652398049831390380859375" lon="13.01946762017905712127685546875">
        <ele>672</ele>
        <time>2021-06-06T09:46:58.000Z</time>
        <extensions>
          <ns3:TrackPointExtension>
            <ns3:atemp>21.0</ns3:atemp>
          </ns3:TrackPointExtension>
        </extensions>
      </trkpt>
      <trkpt lat="43.10975485481321811676025390625" lon="13.0195104517042636871337890625">
        <ele>671.79998779296875</ele>
        <time>2021-06-06T09:46:59.000Z</time>
        <extensions>
          <ns3:TrackPointExtension>
            <ns3:atemp>21.0</ns3:atemp>
          </ns3:TrackPointExtension>
        </extensions>
      </trkpt>
      <trkpt lat="43.109858371317386627197265625" lon="13.01964162848889827728271484375">
        <ele>671.4000244140625</ele>
        <time>2021-06-06T09:47:02.000Z</time>
        <extensions>
          <ns3:TrackPointExtension>
            <ns3:atemp>21.0</ns3:atemp>
          </ns3:TrackPointExtension>
        </extensions>
      </trkpt>
      <trkpt lat="43.10992316342890262603759765625" lon="13.0197609029710292816162109375">
        <ele>670.79998779296875</ele>
        <time>2021-06-06T09:47:04.000Z</time>
        <extensions>
          <ns3:TrackPointExtension>
            <ns3:atemp>21.0</ns3:atemp>
          </ns3:TrackPointExtension>
        </extensions>
      </trkpt>
      <trkpt lat="43.10995702631771564483642578125" lon="13.01981731317937374114990234375">
        <ele>670.5999755859375</ele>
        <time>2021-06-06T09:47:05.000Z</time>
        <extensions>
          <ns3:TrackPointExtension>
            <ns3:atemp>21.0</ns3:atemp>
          </ns3:TrackPointExtension>
        </extensions>
      </trkpt>
      <trkpt lat="43.1100404262542724609375" lon="13.01991621963679790496826171875">
        <ele>670</ele>
        <time>2021-06-06T09:47:07.000Z</time>
        <extensions>
          <ns3:TrackPointExtension>
            <ns3:atemp>21.0</ns3:atemp>
          </ns3:TrackPointExtension>
        </extensions>
      </trkpt>
      <trkpt lat="43.11008778400719165802001953125" lon="13.01996399648487567901611328125">
        <ele>669.4000244140625</ele>
        <time>2021-06-06T09:47:08.000Z</time>
        <extensions>
          <ns3:TrackPointExtension>
            <ns3:atemp>21.0</ns3:atemp>
          </ns3:TrackPointExtension>
        </extensions>
      </trkpt>
      <trkpt lat="43.110139667987823486328125" lon="13.02001453936100006103515625">
        <ele>668.4000244140625</ele>
        <time>2021-06-06T09:47:09.000Z</time>
        <extensions>
          <ns3:TrackPointExtension>
            <ns3:atemp>21.0</ns3:atemp>
          </ns3:TrackPointExtension>
        </extensions>
      </trkpt>
      <trkpt lat="43.11023245565593242645263671875" lon="13.02011822350323200225830078125">
        <ele>667.20001220703125</ele>
        <time>2021-06-06T09:47:11.000Z</time>
        <extensions>
          <ns3:TrackPointExtension>
            <ns3:atemp>21.0</ns3:atemp>
          </ns3:TrackPointExtension>
        </extensions>
      </trkpt>
      <trkpt lat="43.11027620919048786163330078125" lon="13.02016767673194408416748046875">
        <ele>666.4000244140625</ele>
        <time>2021-06-06T09:47:12.000Z</time>
        <extensions>
          <ns3:TrackPointExtension>
            <ns3:atemp>21.0</ns3:atemp>
          </ns3:TrackPointExtension>
        </extensions>
      </trkpt>
      <trkpt lat="43.11031694523990154266357421875" lon="13.0202188901603221893310546875">
        <ele>665.5999755859375</ele>
        <time>2021-06-06T09:47:13.000Z</time>
        <extensions>
          <ns3:TrackPointExtension>
            <ns3:atemp>21.0</ns3:atemp>
          </ns3:TrackPointExtension>
        </extensions>
      </trkpt>
      <trkpt lat="43.11041736043989658355712890625" lon="13.0203194729983806610107421875">
        <ele>664.4000244140625</ele>
        <time>2021-06-06T09:47:15.000Z</time>
        <extensions>
          <ns3:TrackPointExtension>
            <ns3:atemp>21.0</ns3:atemp>
          </ns3:TrackPointExtension>
        </extensions>
      </trkpt>
      <trkpt lat="43.110526241362094879150390625" lon="13.02041955292224884033203125">
        <ele>663</ele>
        <time>2021-06-06T09:47:17.000Z</time>
        <extensions>
          <ns3:TrackPointExtension>
            <ns3:atemp>21.0</ns3:atemp>
          </ns3:TrackPointExtension>
        </extensions>
      </trkpt>
      <trkpt lat="43.11057678423821926116943359375" lon="13.0204619653522968292236328125">
        <ele>662</ele>
        <time>2021-06-06T09:47:18.000Z</time>
        <extensions>
          <ns3:TrackPointExtension>
            <ns3:atemp>21.0</ns3:atemp>
          </ns3:TrackPointExtension>
        </extensions>
      </trkpt>
      <trkpt lat="43.11067552305757999420166015625" lon="13.02054184488952159881591796875">
        <ele>660.4000244140625</ele>
        <time>2021-06-06T09:47:20.000Z</time>
        <extensions>
          <ns3:TrackPointExtension>
            <ns3:atemp>21.0</ns3:atemp>
          </ns3:TrackPointExtension>
        </extensions>
      </trkpt>
      <trkpt lat="43.1107721664011478424072265625" lon="13.02062834613025188446044921875">
        <ele>659.4000244140625</ele>
        <time>2021-06-06T09:47:22.000Z</time>
        <extensions>
          <ns3:TrackPointExtension>
            <ns3:atemp>21.0</ns3:atemp>
          </ns3:TrackPointExtension>
        </extensions>
      </trkpt>
      <trkpt lat="43.11082019470632076263427734375" lon="13.020681403577327728271484375">
        <ele>658.79998779296875</ele>
        <time>2021-06-06T09:47:23.000Z</time>
        <extensions>
          <ns3:TrackPointExtension>
            <ns3:atemp>21.0</ns3:atemp>
          </ns3:TrackPointExtension>
        </extensions>
      </trkpt>
      <trkpt lat="43.11086453497409820556640625" lon="13.0207409150898456573486328125">
        <ele>658</ele>
        <time>2021-06-06T09:47:24.000Z</time>
        <extensions>
          <ns3:TrackPointExtension>
            <ns3:atemp>21.0</ns3:atemp>
          </ns3:TrackPointExtension>
        </extensions>
      </trkpt>
      <trkpt lat="43.11092446558177471160888671875" lon="13.0208777077496051788330078125">
        <ele>657</ele>
        <time>2021-06-06T09:47:26.000Z</time>
        <extensions>
          <ns3:TrackPointExtension>
            <ns3:atemp>21.0</ns3:atemp>
          </ns3:TrackPointExtension>
        </extensions>
      </trkpt>
      <trkpt lat="43.11094776727259159088134765625" lon="13.02094384096562862396240234375">
        <ele>656.5999755859375</ele>
        <time>2021-06-06T09:47:27.000Z</time>
        <extensions>
          <ns3:TrackPointExtension>
            <ns3:atemp>21.0</ns3:atemp>
          </ns3:TrackPointExtension>
        </extensions>
      </trkpt>
      <trkpt lat="43.1109991483390331268310546875" lon="13.0210688151419162750244140625">
        <ele>656.20001220703125</ele>
        <time>2021-06-06T09:47:29.000Z</time>
        <extensions>
          <ns3:TrackPointExtension>
            <ns3:atemp>21.0</ns3:atemp>
          </ns3:TrackPointExtension>
        </extensions>
      </trkpt>
      <trkpt lat="43.1110382080078125" lon="13.021123297512531280517578125">
        <ele>656.20001220703125</ele>
        <time>2021-06-06T09:47:30.000Z</time>
        <extensions>
          <ns3:TrackPointExtension>
            <ns3:atemp>21.0</ns3:atemp>
          </ns3:TrackPointExtension>
        </extensions>
      </trkpt>
      <trkpt lat="43.1110833026468753814697265625" lon="13.0211643688380718231201171875">
        <ele>655.4000244140625</ele>
        <time>2021-06-06T09:47:31.000Z</time>
        <extensions>
          <ns3:TrackPointExtension>
            <ns3:atemp>21.0</ns3:atemp>
          </ns3:TrackPointExtension>
        </extensions>
      </trkpt>
      <trkpt lat="43.1111319176852703094482421875" lon="13.02120217122137546539306640625">
        <ele>654.5999755859375</ele>
        <time>2021-06-06T09:47:32.000Z</time>
        <extensions>
          <ns3:TrackPointExtension>
            <ns3:atemp>21.0</ns3:atemp>
          </ns3:TrackPointExtension>
        </extensions>
      </trkpt>
      <trkpt lat="43.11117910780012607574462890625" lon="13.02124433219432830810546875">
        <ele>654.20001220703125</ele>
        <time>2021-06-06T09:47:33.000Z</time>
        <extensions>
          <ns3:TrackPointExtension>
            <ns3:atemp>21.0</ns3:atemp>
          </ns3:TrackPointExtension>
        </extensions>
      </trkpt>
      <trkpt lat="43.11124985106289386749267578125" lon="13.02136779762804508209228515625">
        <ele>653.20001220703125</ele>
        <time>2021-06-06T09:47:35.000Z</time>
        <extensions>
          <ns3:TrackPointExtension>
            <ns3:atemp>21.0</ns3:atemp>
          </ns3:TrackPointExtension>
        </extensions>
      </trkpt>
      <trkpt lat="43.11130131594836711883544921875" lon="13.0215247906744480133056640625">
        <ele>652</ele>
        <time>2021-06-06T09:47:37.000Z</time>
        <extensions>
          <ns3:TrackPointExtension>
            <ns3:atemp>21.0</ns3:atemp>
          </ns3:TrackPointExtension>
        </extensions>
      </trkpt>
      <trkpt lat="43.111331574618816375732421875" lon="13.02160349674522876739501953125">
        <ele>650.20001220703125</ele>
        <time>2021-06-06T09:47:38.000Z</time>
        <extensions>
          <ns3:TrackPointExtension>
            <ns3:atemp>21.0</ns3:atemp>
          </ns3:TrackPointExtension>
        </extensions>
      </trkpt>
      <trkpt lat="43.11139754019677639007568359375" lon="13.0217608250677585601806640625">
        <ele>648.5999755859375</ele>
        <time>2021-06-06T09:47:40.000Z</time>
        <extensions>
          <ns3:TrackPointExtension>
            <ns3:atemp>21.0</ns3:atemp>
          </ns3:TrackPointExtension>
        </extensions>
      </trkpt>
      <trkpt lat="43.11147633008658885955810546875" lon="13.02192695438861846923828125">
        <ele>647</ele>
        <time>2021-06-06T09:47:42.000Z</time>
        <extensions>
          <ns3:TrackPointExtension>
            <ns3:atemp>21.0</ns3:atemp>
          </ns3:TrackPointExtension>
        </extensions>
      </trkpt>
      <trkpt lat="43.1115624122321605682373046875" lon="13.02208595909178256988525390625">
        <ele>645.4000244140625</ele>
        <time>2021-06-06T09:47:44.000Z</time>
        <extensions>
          <ns3:TrackPointExtension>
            <ns3:atemp>21.0</ns3:atemp>
          </ns3:TrackPointExtension>
        </extensions>
      </trkpt>
      <trkpt lat="43.11160658486187458038330078125" lon="13.02216558717191219329833984375">
        <ele>644.4000244140625</ele>
        <time>2021-06-06T09:47:45.000Z</time>
        <extensions>
          <ns3:TrackPointExtension>
            <ns3:atemp>21.0</ns3:atemp>
          </ns3:TrackPointExtension>
        </extensions>
      </trkpt>
      <trkpt lat="43.111693002283573150634765625" lon="13.02232786081731319427490234375">
        <ele>642.79998779296875</ele>
        <time>2021-06-06T09:47:47.000Z</time>
        <extensions>
          <ns3:TrackPointExtension>
            <ns3:atemp>21.0</ns3:atemp>
          </ns3:TrackPointExtension>
        </extensions>
      </trkpt>
      <trkpt lat="43.11178344301879405975341796875" lon="13.02247756160795688629150390625">
        <ele>641</ele>
        <time>2021-06-06T09:47:49.000Z</time>
        <extensions>
          <ns3:TrackPointExtension>
            <ns3:atemp>21.0</ns3:atemp>
          </ns3:TrackPointExtension>
        </extensions>
      </trkpt>
      <trkpt lat="43.11187832616269588470458984375" lon="13.0226107500493526458740234375">
        <ele>639.5999755859375</ele>
        <time>2021-06-06T09:47:51.000Z</time>
        <extensions>
          <ns3:TrackPointExtension>
            <ns3:atemp>21.0</ns3:atemp>
          </ns3:TrackPointExtension>
        </extensions>
      </trkpt>
      <trkpt lat="43.11202031560242176055908203125" lon="13.0228249914944171905517578125">
        <ele>638.4000244140625</ele>
        <time>2021-06-06T09:47:54.000Z</time>
        <extensions>
          <ns3:TrackPointExtension>
            <ns3:atemp>21.0</ns3:atemp>
          </ns3:TrackPointExtension>
        </extensions>
      </trkpt>
      <trkpt lat="43.1120789051055908203125" lon="13.02288726903498172760009765625">
        <ele>638</ele>
        <time>2021-06-06T09:47:55.000Z</time>
        <extensions>
          <ns3:TrackPointExtension>
            <ns3:atemp>21.0</ns3:atemp>
          </ns3:TrackPointExtension>
        </extensions>
      </trkpt>
      <trkpt lat="43.11220605857670307159423828125" lon="13.02297913469374179840087890625">
        <ele>637.20001220703125</ele>
        <time>2021-06-06T09:47:57.000Z</time>
        <extensions>
          <ns3:TrackPointExtension>
            <ns3:atemp>21.0</ns3:atemp>
          </ns3:TrackPointExtension>
        </extensions>
      </trkpt>
      <trkpt lat="43.112321980297565460205078125" lon="13.0230727605521678924560546875">
        <ele>636.20001220703125</ele>
        <time>2021-06-06T09:47:59.000Z</time>
        <extensions>
          <ns3:TrackPointExtension>
            <ns3:atemp>21.0</ns3:atemp>
          </ns3:TrackPointExtension>
        </extensions>
      </trkpt>
      <trkpt lat="43.1123734451830387115478515625" lon="13.02312866784632205963134765625">
        <ele>635.5999755859375</ele>
        <time>2021-06-06T09:48:00.000Z</time>
        <extensions>
          <ns3:TrackPointExtension>
            <ns3:atemp>21.0</ns3:atemp>
          </ns3:TrackPointExtension>
        </extensions>
      </trkpt>
      <trkpt lat="43.11247729696333408355712890625" lon="13.0232236348092555999755859375">
        <ele>634.79998779296875</ele>
        <time>2021-06-06T09:48:02.000Z</time>
        <extensions>
          <ns3:TrackPointExtension>
            <ns3:atemp>21.0</ns3:atemp>
          </ns3:TrackPointExtension>
        </extensions>
      </trkpt>
      <trkpt lat="43.11259967274963855743408203125" lon="13.0232903547585010528564453125">
        <ele>633.5999755859375</ele>
        <time>2021-06-06T09:48:04.000Z</time>
        <extensions>
          <ns3:TrackPointExtension>
            <ns3:atemp>21.0</ns3:atemp>
          </ns3:TrackPointExtension>
        </extensions>
      </trkpt>
      <trkpt lat="43.11271618120372295379638671875" lon="13.02332262508571147918701171875">
        <ele>632.4000244140625</ele>
        <time>2021-06-06T09:48:06.000Z</time>
        <extensions>
          <ns3:TrackPointExtension>
            <ns3:atemp>21.0</ns3:atemp>
          </ns3:TrackPointExtension>
        </extensions>
      </trkpt>
      <trkpt lat="43.11277024447917938232421875" lon="13.02332866005599498748779296875">
        <ele>631.79998779296875</ele>
        <time>2021-06-06T09:48:07.000Z</time>
        <extensions>
          <ns3:TrackPointExtension>
            <ns3:atemp>21.0</ns3:atemp>
          </ns3:TrackPointExtension>
        </extensions>
      </trkpt>
      <trkpt lat="43.11282330192625522613525390625" lon="13.0233411490917205810546875">
        <ele>631.20001220703125</ele>
        <time>2021-06-06T09:48:08.000Z</time>
        <extensions>
          <ns3:TrackPointExtension>
            <ns3:atemp>21.0</ns3:atemp>
          </ns3:TrackPointExtension>
        </extensions>
      </trkpt>
      <trkpt lat="43.11292715370655059814453125" lon="13.023439384996891021728515625">
        <ele>629.4000244140625</ele>
        <time>2021-06-06T09:48:11.000Z</time>
        <extensions>
          <ns3:TrackPointExtension>
            <ns3:atemp>21.0</ns3:atemp>
          </ns3:TrackPointExtension>
        </extensions>
      </trkpt>
      <trkpt lat="43.112954311072826385498046875" lon="13.02352027036249637603759765625">
        <ele>627.79998779296875</ele>
        <time>2021-06-06T09:48:13.000Z</time>
        <extensions>
          <ns3:TrackPointExtension>
            <ns3:atemp>21.0</ns3:atemp>
          </ns3:TrackPointExtension>
        </extensions>
      </trkpt>
      <trkpt lat="43.1129883415997028350830078125" lon="13.0236152373254299163818359375">
        <ele>626.4000244140625</ele>
        <time>2021-06-06T09:48:15.000Z</time>
        <extensions>
          <ns3:TrackPointExtension>
            <ns3:atemp>22.0</ns3:atemp>
          </ns3:TrackPointExtension>
        </extensions>
      </trkpt>
      <trkpt lat="43.1130087934434413909912109375" lon="13.0236685462296009063720703125">
        <ele>625.79998779296875</ele>
        <time>2021-06-06T09:48:16.000Z</time>
        <extensions>
          <ns3:TrackPointExtension>
            <ns3:atemp>22.0</ns3:atemp>
          </ns3:TrackPointExtension>
        </extensions>
      </trkpt>
      <trkpt lat="43.11302815563976764678955078125" lon="13.02372713573276996612548828125">
        <ele>625.20001220703125</ele>
        <time>2021-06-06T09:48:17.000Z</time>
        <extensions>
          <ns3:TrackPointExtension>
            <ns3:atemp>22.0</ns3:atemp>
          </ns3:TrackPointExtension>
        </extensions>
      </trkpt>
      <trkpt lat="43.11305765993893146514892578125" lon="13.02384800277650356292724609375">
        <ele>624.4000244140625</ele>
        <time>2021-06-06T09:48:20.000Z</time>
        <extensions>
          <ns3:TrackPointExtension>
            <ns3:atemp>22.0</ns3:atemp>
          </ns3:TrackPointExtension>
        </extensions>
      </trkpt>
      <trkpt lat="43.11306084506213665008544921875" lon="13.02384833805263042449951171875">
        <ele>624</ele>
        <time>2021-06-06T09:48:22.000Z</time>
        <extensions>
          <ns3:TrackPointExtension>
            <ns3:atemp>22.0</ns3:atemp>
          </ns3:TrackPointExtension>
        </extensions>
      </trkpt>
      <trkpt lat="43.11306201852858066558837890625" lon="13.02384800277650356292724609375">
        <ele>622.79998779296875</ele>
        <time>2021-06-06T09:48:25.000Z</time>
        <extensions>
          <ns3:TrackPointExtension>
            <ns3:atemp>22.0</ns3:atemp>
          </ns3:TrackPointExtension>
        </extensions>
      </trkpt>
      <trkpt lat="43.11306151561439037322998046875" lon="13.02384749986231327056884765625">
        <ele>621.79998779296875</ele>
        <time>2021-06-06T09:48:32.000Z</time>
        <extensions>
          <ns3:TrackPointExtension>
            <ns3:atemp>22.0</ns3:atemp>
          </ns3:TrackPointExtension>
        </extensions>
      </trkpt>
      <trkpt lat="43.1130597554147243499755859375" lon="13.023849092423915863037109375">
        <ele>621.79998779296875</ele>
        <time>2021-06-06T09:48:42.000Z</time>
        <extensions>
          <ns3:TrackPointExtension>
            <ns3:atemp>22.0</ns3:atemp>
          </ns3:TrackPointExtension>
        </extensions>
      </trkpt>
      <trkpt lat="43.1130590848624706268310546875" lon="13.0238489247858524322509765625">
        <ele>621.79998779296875</ele>
        <time>2021-06-06T09:48:54.000Z</time>
        <extensions>
          <ns3:TrackPointExtension>
            <ns3:atemp>22.0</ns3:atemp>
          </ns3:TrackPointExtension>
        </extensions>
      </trkpt>
      <trkpt lat="43.11305916868150234222412109375" lon="13.02385319955646991729736328125">
        <ele>621.5999755859375</ele>
        <time>2021-06-06T09:49:14.000Z</time>
        <extensions>
          <ns3:TrackPointExtension>
            <ns3:atemp>22.0</ns3:atemp>
          </ns3:TrackPointExtension>
        </extensions>
      </trkpt>
      <trkpt lat="43.11305916868150234222412109375" lon="13.0238526128232479095458984375">
        <ele>621.5999755859375</ele>
        <time>2021-06-06T09:49:22.000Z</time>
        <extensions>
          <ns3:TrackPointExtension>
            <ns3:atemp>22.0</ns3:atemp>
          </ns3:TrackPointExtension>
        </extensions>
      </trkpt>
      <trkpt lat="43.1130587495863437652587890625" lon="13.0238522775471210479736328125">
        <ele>622</ele>
        <time>2021-06-06T09:49:40.000Z</time>
        <extensions>
          <ns3:TrackPointExtension>
            <ns3:atemp>22.0</ns3:atemp>
          </ns3:TrackPointExtension>
        </extensions>
      </trkpt>
      <trkpt lat="43.11306050978600978851318359375" lon="13.02385034970939159393310546875">
        <ele>622</ele>
        <time>2021-06-06T09:50:09.000Z</time>
        <extensions>
          <ns3:TrackPointExtension>
            <ns3:atemp>23.0</ns3:atemp>
          </ns3:TrackPointExtension>
        </extensions>
      </trkpt>
      <trkpt lat="43.113057576119899749755859375" lon="13.02385412156581878662109375">
        <ele>622</ele>
        <time>2021-06-06T09:50:24.000Z</time>
        <extensions>
          <ns3:TrackPointExtension>
            <ns3:atemp>23.0</ns3:atemp>
          </ns3:TrackPointExtension>
        </extensions>
      </trkpt>
      <trkpt lat="43.11305765993893146514892578125" lon="13.02387147210538387298583984375">
        <ele>621.79998779296875</ele>
        <time>2021-06-06T09:50:36.000Z</time>
        <extensions>
          <ns3:TrackPointExtension>
            <ns3:atemp>23.0</ns3:atemp>
          </ns3:TrackPointExtension>
        </extensions>
      </trkpt>
      <trkpt lat="43.11305548064410686492919921875" lon="13.0238747410476207733154296875">
        <ele>621.79998779296875</ele>
        <time>2021-06-06T09:50:49.000Z</time>
        <extensions>
          <ns3:TrackPointExtension>
            <ns3:atemp>23.0</ns3:atemp>
          </ns3:TrackPointExtension>
        </extensions>
      </trkpt>
      <trkpt lat="43.11305497772991657257080078125" lon="13.023875243961811065673828125">
        <ele>621.79998779296875</ele>
        <time>2021-06-06T09:51:09.000Z</time>
        <extensions>
          <ns3:TrackPointExtension>
            <ns3:atemp>23.0</ns3:atemp>
          </ns3:TrackPointExtension>
        </extensions>
      </trkpt>
      <trkpt lat="43.11305464245378971099853515625" lon="13.023875243961811065673828125">
        <ele>621.79998779296875</ele>
        <time>2021-06-06T09:51:12.000Z</time>
        <extensions>
          <ns3:TrackPointExtension>
            <ns3:atemp>23.0</ns3:atemp>
          </ns3:TrackPointExtension>
        </extensions>
      </trkpt>
      <trkpt lat="43.11304843984544277191162109375" lon="13.02388630807399749755859375">
        <ele>621.79998779296875</ele>
        <time>2021-06-06T09:51:18.000Z</time>
        <extensions>
          <ns3:TrackPointExtension>
            <ns3:atemp>23.0</ns3:atemp>
          </ns3:TrackPointExtension>
        </extensions>
      </trkpt>
      <trkpt lat="43.11304374597966670989990234375" lon="13.0239481665194034576416015625">
        <ele>621.79998779296875</ele>
        <time>2021-06-06T09:51:20.000Z</time>
        <extensions>
          <ns3:TrackPointExtension>
            <ns3:atemp>23.0</ns3:atemp>
          </ns3:TrackPointExtension>
        </extensions>
      </trkpt>
      <trkpt lat="43.11305724084377288818359375" lon="13.0241101048886775970458984375">
        <ele>621.5999755859375</ele>
        <time>2021-06-06T09:51:23.000Z</time>
        <extensions>
          <ns3:TrackPointExtension>
            <ns3:atemp>23.0</ns3:atemp>
          </ns3:TrackPointExtension>
        </extensions>
      </trkpt>
      <trkpt lat="43.113059587776660919189453125" lon="13.024175651371479034423828125">
        <ele>621.5999755859375</ele>
        <time>2021-06-06T09:51:24.000Z</time>
        <extensions>
          <ns3:TrackPointExtension>
            <ns3:atemp>23.0</ns3:atemp>
          </ns3:TrackPointExtension>
        </extensions>
      </trkpt>
      <trkpt lat="43.113059587776660919189453125" lon="13.0242385156452655792236328125">
        <ele>621.79998779296875</ele>
        <time>2021-06-06T09:51:25.000Z</time>
        <extensions>
          <ns3:TrackPointExtension>
            <ns3:atemp>23.0</ns3:atemp>
          </ns3:TrackPointExtension>
        </extensions>
      </trkpt>
      <trkpt lat="43.11308129690587520599365234375" lon="13.02445418201386928558349609375">
        <ele>621.4000244140625</ele>
        <time>2021-06-06T09:51:29.000Z</time>
        <extensions>
          <ns3:TrackPointExtension>
            <ns3:atemp>23.0</ns3:atemp>
          </ns3:TrackPointExtension>
        </extensions>
      </trkpt>
      <trkpt lat="43.11310577206313610076904296875" lon="13.02454403601586818695068359375">
        <ele>620.79998779296875</ele>
        <time>2021-06-06T09:51:31.000Z</time>
        <extensions>
          <ns3:TrackPointExtension>
            <ns3:atemp>23.0</ns3:atemp>
          </ns3:TrackPointExtension>
        </extensions>
      </trkpt>
      <trkpt lat="43.1130959652364253997802734375" lon="13.02464813925325870513916015625">
        <ele>619.20001220703125</ele>
        <time>2021-06-06T09:51:33.000Z</time>
        <extensions>
          <ns3:TrackPointExtension>
            <ns3:atemp>23.0</ns3:atemp>
          </ns3:TrackPointExtension>
        </extensions>
      </trkpt>
      <trkpt lat="43.1130899302661418914794921875" lon="13.02470480091869831085205078125">
        <ele>619</ele>
        <time>2021-06-06T09:51:34.000Z</time>
        <extensions>
          <ns3:TrackPointExtension>
            <ns3:atemp>23.0</ns3:atemp>
          </ns3:TrackPointExtension>
        </extensions>
      </trkpt>
      <trkpt lat="43.11313100159168243408203125" lon="13.02489087916910648345947265625">
        <ele>618.5999755859375</ele>
        <time>2021-06-06T09:51:37.000Z</time>
        <extensions>
          <ns3:TrackPointExtension>
            <ns3:atemp>23.0</ns3:atemp>
          </ns3:TrackPointExtension>
        </extensions>
      </trkpt>
      <trkpt lat="43.11319696716964244842529296875" lon="13.025003783404827117919921875">
        <ele>618.20001220703125</ele>
        <time>2021-06-06T09:51:39.000Z</time>
        <extensions>
          <ns3:TrackPointExtension>
            <ns3:atemp>23.0</ns3:atemp>
          </ns3:TrackPointExtension>
        </extensions>
      </trkpt>
      <trkpt lat="43.11322814784944057464599609375" lon="13.0250482074916362762451171875">
        <ele>618</ele>
        <time>2021-06-06T09:51:40.000Z</time>
        <extensions>
          <ns3:TrackPointExtension>
            <ns3:atemp>23.0</ns3:atemp>
          </ns3:TrackPointExtension>
        </extensions>
      </trkpt>
      <trkpt lat="43.11325111426413059234619140625" lon="13.02508869208395481109619140625">
        <ele>617.4000244140625</ele>
        <time>2021-06-06T09:51:41.000Z</time>
        <extensions>
          <ns3:TrackPointExtension>
            <ns3:atemp>23.0</ns3:atemp>
          </ns3:TrackPointExtension>
        </extensions>
      </trkpt>
      <trkpt lat="43.11326653696596622467041015625" lon="13.02512372843921184539794921875">
        <ele>617</ele>
        <time>2021-06-06T09:51:42.000Z</time>
        <extensions>
          <ns3:TrackPointExtension>
            <ns3:atemp>23.0</ns3:atemp>
          </ns3:TrackPointExtension>
        </extensions>
      </trkpt>
      <trkpt lat="43.113280199468135833740234375" lon="13.0251477845013141632080078125">
        <ele>616.79998779296875</ele>
        <time>2021-06-06T09:51:43.000Z</time>
        <extensions>
          <ns3:TrackPointExtension>
            <ns3:atemp>23.0</ns3:atemp>
          </ns3:TrackPointExtension>
        </extensions>
      </trkpt>
      <trkpt lat="43.113303668797016143798828125" lon="13.02520905621349811553955078125">
        <ele>616</ele>
        <time>2021-06-06T09:51:45.000Z</time>
        <extensions>
          <ns3:TrackPointExtension>
            <ns3:atemp>23.0</ns3:atemp>
          </ns3:TrackPointExtension>
        </extensions>
      </trkpt>
      <trkpt lat="43.11331347562372684478759765625" lon="13.0252983234822750091552734375">
        <ele>614.79998779296875</ele>
        <time>2021-06-06T09:51:47.000Z</time>
        <extensions>
          <ns3:TrackPointExtension>
            <ns3:atemp>23.0</ns3:atemp>
          </ns3:TrackPointExtension>
        </extensions>
      </trkpt>
      <trkpt lat="43.11329872347414493560791015625" lon="13.02540133707225322723388671875">
        <ele>613.20001220703125</ele>
        <time>2021-06-06T09:51:49.000Z</time>
        <extensions>
          <ns3:TrackPointExtension>
            <ns3:atemp>23.0</ns3:atemp>
          </ns3:TrackPointExtension>
        </extensions>
      </trkpt>
      <trkpt lat="43.1132565625011920928955078125" lon="13.0255175940692424774169921875">
        <ele>612.4000244140625</ele>
        <time>2021-06-06T09:51:51.000Z</time>
        <extensions>
          <ns3:TrackPointExtension>
            <ns3:atemp>23.0</ns3:atemp>
          </ns3:TrackPointExtension>
        </extensions>
      </trkpt>
      <trkpt lat="43.11322756111621856689453125" lon="13.025580458343029022216796875">
        <ele>612</ele>
        <time>2021-06-06T09:51:52.000Z</time>
        <extensions>
          <ns3:TrackPointExtension>
            <ns3:atemp>23.0</ns3:atemp>
          </ns3:TrackPointExtension>
        </extensions>
      </trkpt>
      <trkpt lat="43.113192021846771240234375" lon="13.02565480582416057586669921875">
        <ele>611.79998779296875</ele>
        <time>2021-06-06T09:51:53.000Z</time>
        <extensions>
          <ns3:TrackPointExtension>
            <ns3:atemp>23.0</ns3:atemp>
          </ns3:TrackPointExtension>
        </extensions>
      </trkpt>
      <trkpt lat="43.1131284870207309722900390625" lon="13.0258025787770748138427734375">
        <ele>610.5999755859375</ele>
        <time>2021-06-06T09:51:55.000Z</time>
        <extensions>
          <ns3:TrackPointExtension>
            <ns3:atemp>23.0</ns3:atemp>
          </ns3:TrackPointExtension>
        </extensions>
      </trkpt>
      <trkpt lat="43.11307844705879688262939453125" lon="13.02590777166187763214111328125">
        <ele>609</ele>
        <time>2021-06-06T09:51:57.000Z</time>
        <extensions>
          <ns3:TrackPointExtension>
            <ns3:atemp>23.0</ns3:atemp>
          </ns3:TrackPointExtension>
        </extensions>
      </trkpt>
      <trkpt lat="43.11305682174861431121826171875" lon="13.0259563028812408447265625">
        <ele>607.5999755859375</ele>
        <time>2021-06-06T09:51:58.000Z</time>
        <extensions>
          <ns3:TrackPointExtension>
            <ns3:atemp>23.0</ns3:atemp>
          </ns3:TrackPointExtension>
        </extensions>
      </trkpt>
      <trkpt lat="43.11303670518100261688232421875" lon="13.02600885741412639617919921875">
        <ele>606.4000244140625</ele>
        <time>2021-06-06T09:51:59.000Z</time>
        <extensions>
          <ns3:TrackPointExtension>
            <ns3:atemp>23.0</ns3:atemp>
          </ns3:TrackPointExtension>
        </extensions>
      </trkpt>
      <trkpt lat="43.11301843263208866119384765625" lon="13.026062585413455963134765625">
        <ele>605.4000244140625</ele>
        <time>2021-06-06T09:52:00.000Z</time>
        <extensions>
          <ns3:TrackPointExtension>
            <ns3:atemp>23.0</ns3:atemp>
          </ns3:TrackPointExtension>
        </extensions>
      </trkpt>
      <trkpt lat="43.1130051054060459136962890625" lon="13.02611798979341983795166015625">
        <ele>603.5999755859375</ele>
        <time>2021-06-06T09:52:01.000Z</time>
        <extensions>
          <ns3:TrackPointExtension>
            <ns3:atemp>23.0</ns3:atemp>
          </ns3:TrackPointExtension>
        </extensions>
      </trkpt>
      <trkpt lat="43.11300653032958507537841796875" lon="13.026173897087574005126953125">
        <ele>600.20001220703125</ele>
        <time>2021-06-06T09:52:02.000Z</time>
        <extensions>
          <ns3:TrackPointExtension>
            <ns3:atemp>23.0</ns3:atemp>
          </ns3:TrackPointExtension>
        </extensions>
      </trkpt>
      <trkpt lat="43.113024048507213592529296875" lon="13.0262364260852336883544921875">
        <ele>599</ele>
        <time>2021-06-06T09:52:03.000Z</time>
        <extensions>
          <ns3:TrackPointExtension>
            <ns3:atemp>23.0</ns3:atemp>
          </ns3:TrackPointExtension>
        </extensions>
      </trkpt>
      <trkpt lat="43.1130792014300823211669921875" lon="13.02637699060142040252685546875">
        <ele>597.5999755859375</ele>
        <time>2021-06-06T09:52:05.000Z</time>
        <extensions>
          <ns3:TrackPointExtension>
            <ns3:atemp>23.0</ns3:atemp>
          </ns3:TrackPointExtension>
        </extensions>
      </trkpt>
      <trkpt lat="43.1131021678447723388671875" lon="13.02643951959908008575439453125">
        <ele>596.79998779296875</ele>
        <time>2021-06-06T09:52:06.000Z</time>
        <extensions>
          <ns3:TrackPointExtension>
            <ns3:atemp>23.0</ns3:atemp>
          </ns3:TrackPointExtension>
        </extensions>
      </trkpt>
      <trkpt lat="43.11311365105211734771728515625" lon="13.0264872126281261444091796875">
        <ele>595.79998779296875</ele>
        <time>2021-06-06T09:52:07.000Z</time>
        <extensions>
          <ns3:TrackPointExtension>
            <ns3:atemp>23.0</ns3:atemp>
          </ns3:TrackPointExtension>
        </extensions>
      </trkpt>
      <trkpt lat="43.11311717145144939422607421875" lon="13.0265210755169391632080078125">
        <ele>594.79998779296875</ele>
        <time>2021-06-06T09:52:08.000Z</time>
        <extensions>
          <ns3:TrackPointExtension>
            <ns3:atemp>23.0</ns3:atemp>
          </ns3:TrackPointExtension>
        </extensions>
      </trkpt>
      <trkpt lat="43.11311683617532253265380859375" lon="13.026556111872196197509765625">
        <ele>593.5999755859375</ele>
        <time>2021-06-06T09:52:09.000Z</time>
        <extensions>
          <ns3:TrackPointExtension>
            <ns3:atemp>23.0</ns3:atemp>
          </ns3:TrackPointExtension>
        </extensions>
      </trkpt>
      <trkpt lat="43.11312287114560604095458984375" lon="13.02659693174064159393310546875">
        <ele>592.4000244140625</ele>
        <time>2021-06-06T09:52:10.000Z</time>
        <extensions>
          <ns3:TrackPointExtension>
            <ns3:atemp>23.0</ns3:atemp>
          </ns3:TrackPointExtension>
        </extensions>
      </trkpt>
      <trkpt lat="43.11313494108617305755615234375" lon="13.02665158174932003021240234375">
        <ele>591</ele>
        <time>2021-06-06T09:52:11.000Z</time>
        <extensions>
          <ns3:TrackPointExtension>
            <ns3:atemp>23.0</ns3:atemp>
          </ns3:TrackPointExtension>
        </extensions>
      </trkpt>
      <trkpt lat="43.11315639875829219818115234375" lon="13.02670824341475963592529296875">
        <ele>589.5999755859375</ele>
        <time>2021-06-06T09:52:12.000Z</time>
        <extensions>
          <ns3:TrackPointExtension>
            <ns3:atemp>23.0</ns3:atemp>
          </ns3:TrackPointExtension>
        </extensions>
      </trkpt>
      <trkpt lat="43.113186322152614593505859375" lon="13.026765994727611541748046875">
        <ele>588.4000244140625</ele>
        <time>2021-06-06T09:52:13.000Z</time>
        <extensions>
          <ns3:TrackPointExtension>
            <ns3:atemp>23.0</ns3:atemp>
          </ns3:TrackPointExtension>
        </extensions>
      </trkpt>
      <trkpt lat="43.113218843936920166015625" lon="13.0268298648297786712646484375">
        <ele>587.20001220703125</ele>
        <time>2021-06-06T09:52:14.000Z</time>
        <extensions>
          <ns3:TrackPointExtension>
            <ns3:atemp>23.0</ns3:atemp>
          </ns3:TrackPointExtension>
        </extensions>
      </trkpt>
      <trkpt lat="43.113343901932239532470703125" lon="13.02705265581607818603515625">
        <ele>586.20001220703125</ele>
        <time>2021-06-06T09:52:17.000Z</time>
        <extensions>
          <ns3:TrackPointExtension>
            <ns3:atemp>23.0</ns3:atemp>
          </ns3:TrackPointExtension>
        </extensions>
      </trkpt>
      <trkpt lat="43.11345848254859447479248046875" lon="13.02720554172992706298828125">
        <ele>585.79998779296875</ele>
        <time>2021-06-06T09:52:19.000Z</time>
        <extensions>
          <ns3:TrackPointExtension>
            <ns3:atemp>23.0</ns3:atemp>
          </ns3:TrackPointExtension>
        </extensions>
      </trkpt>
      <trkpt lat="43.11360214836895465850830078125" lon="13.027341663837432861328125">
        <ele>585</ele>
        <time>2021-06-06T09:52:21.000Z</time>
        <extensions>
          <ns3:TrackPointExtension>
            <ns3:atemp>23.0</ns3:atemp>
          </ns3:TrackPointExtension>
        </extensions>
      </trkpt>
      <trkpt lat="43.113765008747577667236328125" lon="13.0274732597172260284423828125">
        <ele>583.4000244140625</ele>
        <time>2021-06-06T09:52:23.000Z</time>
        <extensions>
          <ns3:TrackPointExtension>
            <ns3:atemp>23.0</ns3:atemp>
          </ns3:TrackPointExtension>
        </extensions>
      </trkpt>
      <trkpt lat="43.113929964601993560791015625" lon="13.02762673236429691314697265625">
        <ele>581.79998779296875</ele>
        <time>2021-06-06T09:52:25.000Z</time>
        <extensions>
          <ns3:TrackPointExtension>
            <ns3:atemp>23.0</ns3:atemp>
          </ns3:TrackPointExtension>
        </extensions>
      </trkpt>
      <trkpt lat="43.114012777805328369140625" lon="13.027714826166629791259765625">
        <ele>581</ele>
        <time>2021-06-06T09:52:26.000Z</time>
        <extensions>
          <ns3:TrackPointExtension>
            <ns3:atemp>23.0</ns3:atemp>
          </ns3:TrackPointExtension>
        </extensions>
      </trkpt>
      <trkpt lat="43.11409617774188518524169921875" lon="13.02780861966311931610107421875">
        <ele>580.4000244140625</ele>
        <time>2021-06-06T09:52:27.000Z</time>
        <extensions>
          <ns3:TrackPointExtension>
            <ns3:atemp>23.0</ns3:atemp>
          </ns3:TrackPointExtension>
        </extensions>
      </trkpt>
      <trkpt lat="43.11424755491316318511962890625" lon="13.0280207656323909759521484375">
        <ele>578.4000244140625</ele>
        <time>2021-06-06T09:52:29.000Z</time>
        <extensions>
          <ns3:TrackPointExtension>
            <ns3:atemp>23.0</ns3:atemp>
          </ns3:TrackPointExtension>
        </extensions>
      </trkpt>
      <trkpt lat="43.11429281719028949737548828125" lon="13.02815948612987995147705078125">
        <ele>577.20001220703125</ele>
        <time>2021-06-06T09:52:30.000Z</time>
        <extensions>
          <ns3:TrackPointExtension>
            <ns3:atemp>23.0</ns3:atemp>
          </ns3:TrackPointExtension>
        </extensions>
      </trkpt>
      <trkpt lat="43.1143224053084850311279296875" lon="13.02830600179731845855712890625">
        <ele>575.5999755859375</ele>
        <time>2021-06-06T09:52:31.000Z</time>
        <extensions>
          <ns3:TrackPointExtension>
            <ns3:atemp>23.0</ns3:atemp>
          </ns3:TrackPointExtension>
        </extensions>
      </trkpt>
      <trkpt lat="43.1143371574580669403076171875" lon="13.02845813333988189697265625">
        <ele>573</ele>
        <time>2021-06-06T09:52:32.000Z</time>
        <extensions>
          <ns3:TrackPointExtension>
            <ns3:atemp>23.0</ns3:atemp>
          </ns3:TrackPointExtension>
        </extensions>
      </trkpt>
      <trkpt lat="43.11434612609446048736572265625" lon="13.0286162160336971282958984375">
        <ele>572</ele>
        <time>2021-06-06T09:52:33.000Z</time>
        <extensions>
          <ns3:TrackPointExtension>
            <ns3:atemp>23.0</ns3:atemp>
          </ns3:TrackPointExtension>
        </extensions>
      </trkpt>
      <trkpt lat="43.11435853131115436553955078125" lon="13.02877404727041721343994140625">
        <ele>571.20001220703125</ele>
        <time>2021-06-06T09:52:34.000Z</time>
        <extensions>
          <ns3:TrackPointExtension>
            <ns3:atemp>23.0</ns3:atemp>
          </ns3:TrackPointExtension>
        </extensions>
      </trkpt>
      <trkpt lat="43.1144149415194988250732421875" lon="13.0290822498500347137451171875">
        <ele>569.4000244140625</ele>
        <time>2021-06-06T09:52:36.000Z</time>
        <extensions>
          <ns3:TrackPointExtension>
            <ns3:atemp>23.0</ns3:atemp>
          </ns3:TrackPointExtension>
        </extensions>
      </trkpt>
      <trkpt lat="43.1144545041024684906005859375" lon="13.02923656068742275238037109375">
        <ele>568.20001220703125</ele>
        <time>2021-06-06T09:52:37.000Z</time>
        <extensions>
          <ns3:TrackPointExtension>
            <ns3:atemp>23.0</ns3:atemp>
          </ns3:TrackPointExtension>
        </extensions>
      </trkpt>
      <trkpt lat="43.11450152657926082611083984375" lon="13.0293917097151279449462890625">
        <ele>566.79998779296875</ele>
        <time>2021-06-06T09:52:38.000Z</time>
        <extensions>
          <ns3:TrackPointExtension>
            <ns3:atemp>23.0</ns3:atemp>
          </ns3:TrackPointExtension>
        </extensions>
      </trkpt>
      <trkpt lat="43.114549219608306884765625" lon="13.029546774923801422119140625">
        <ele>565.4000244140625</ele>
        <time>2021-06-06T09:52:39.000Z</time>
        <extensions>
          <ns3:TrackPointExtension>
            <ns3:atemp>23.0</ns3:atemp>
          </ns3:TrackPointExtension>
        </extensions>
      </trkpt>
      <trkpt lat="43.1145990081131458282470703125" lon="13.02969890646636486053466796875">
        <ele>564.20001220703125</ele>
        <time>2021-06-06T09:52:40.000Z</time>
        <extensions>
          <ns3:TrackPointExtension>
            <ns3:atemp>23.0</ns3:atemp>
          </ns3:TrackPointExtension>
        </extensions>
      </trkpt>
      <trkpt lat="43.114650137722492218017578125" lon="13.02984885871410369873046875">
        <ele>563</ele>
        <time>2021-06-06T09:52:41.000Z</time>
        <extensions>
          <ns3:TrackPointExtension>
            <ns3:atemp>23.0</ns3:atemp>
          </ns3:TrackPointExtension>
        </extensions>
      </trkpt>
      <trkpt lat="43.11474929563701152801513671875" lon="13.03014985285699367523193359375">
        <ele>561.4000244140625</ele>
        <time>2021-06-06T09:52:43.000Z</time>
        <extensions>
          <ns3:TrackPointExtension>
            <ns3:atemp>23.0</ns3:atemp>
          </ns3:TrackPointExtension>
        </extensions>
      </trkpt>
      <trkpt lat="43.11489949934184551239013671875" lon="13.03059509955346584320068359375">
        <ele>560</ele>
        <time>2021-06-06T09:52:46.000Z</time>
        <extensions>
          <ns3:TrackPointExtension>
            <ns3:atemp>23.0</ns3:atemp>
          </ns3:TrackPointExtension>
        </extensions>
      </trkpt>
      <trkpt lat="43.1149979867041110992431640625" lon="13.0308816768229007720947265625">
        <ele>558</ele>
        <time>2021-06-06T09:52:48.000Z</time>
        <extensions>
          <ns3:TrackPointExtension>
            <ns3:atemp>23.0</ns3:atemp>
          </ns3:TrackPointExtension>
        </extensions>
      </trkpt>
      <trkpt lat="43.1151049397885799407958984375" lon="13.03115534596145153045654296875">
        <ele>556</ele>
        <time>2021-06-06T09:52:50.000Z</time>
        <extensions>
          <ns3:TrackPointExtension>
            <ns3:atemp>23.0</ns3:atemp>
          </ns3:TrackPointExtension>
        </extensions>
      </trkpt>
      <trkpt lat="43.115160763263702392578125" lon="13.0312883667647838592529296875">
        <ele>555.20001220703125</ele>
        <time>2021-06-06T09:52:51.000Z</time>
        <extensions>
          <ns3:TrackPointExtension>
            <ns3:atemp>23.0</ns3:atemp>
          </ns3:TrackPointExtension>
        </extensions>
      </trkpt>
      <trkpt lat="43.115213401615619659423828125" lon="13.03141870535910129547119140625">
        <ele>554.5999755859375</ele>
        <time>2021-06-06T09:52:52.000Z</time>
        <extensions>
          <ns3:TrackPointExtension>
            <ns3:atemp>23.0</ns3:atemp>
          </ns3:TrackPointExtension>
        </extensions>
      </trkpt>
      <trkpt lat="43.11530099250376224517822265625" lon="13.03165406920015811920166015625">
        <ele>552.79998779296875</ele>
        <time>2021-06-06T09:52:54.000Z</time>
        <extensions>
          <ns3:TrackPointExtension>
            <ns3:atemp>23.0</ns3:atemp>
          </ns3:TrackPointExtension>
        </extensions>
      </trkpt>
      <trkpt lat="43.1153399683535099029541015625" lon="13.03175683133304119110107421875">
        <ele>552.20001220703125</ele>
        <time>2021-06-06T09:52:55.000Z</time>
        <extensions>
          <ns3:TrackPointExtension>
            <ns3:atemp>23.0</ns3:atemp>
          </ns3:TrackPointExtension>
        </extensions>
      </trkpt>
      <trkpt lat="43.115401156246662139892578125" lon="13.03191541694104671478271484375">
        <ele>551.79998779296875</ele>
        <time>2021-06-06T09:52:57.000Z</time>
        <extensions>
          <ns3:TrackPointExtension>
            <ns3:atemp>23.0</ns3:atemp>
          </ns3:TrackPointExtension>
        </extensions>
      </trkpt>
      <trkpt lat="43.115411214530467987060546875" lon="13.03195732645690441131591796875">
        <ele>551.5999755859375</ele>
        <time>2021-06-06T09:52:58.000Z</time>
        <extensions>
          <ns3:TrackPointExtension>
            <ns3:atemp>23.0</ns3:atemp>
          </ns3:TrackPointExtension>
        </extensions>
      </trkpt>
      <trkpt lat="43.1154251284897327423095703125" lon="13.031991608440876007080078125">
        <ele>551.5999755859375</ele>
        <time>2021-06-06T09:53:01.000Z</time>
        <extensions>
          <ns3:TrackPointExtension>
            <ns3:atemp>23.0</ns3:atemp>
          </ns3:TrackPointExtension>
        </extensions>
      </trkpt>
      <trkpt lat="43.1154281459748744964599609375" lon="13.0319877527654170989990234375">
        <ele>553.4000244140625</ele>
        <time>2021-06-06T09:53:06.000Z</time>
        <extensions>
          <ns3:TrackPointExtension>
            <ns3:atemp>23.0</ns3:atemp>
          </ns3:TrackPointExtension>
        </extensions>
      </trkpt>
      <trkpt lat="43.11542470939457416534423828125" lon="13.031988255679607391357421875">
        <ele>554.5999755859375</ele>
        <time>2021-06-06T09:53:08.000Z</time>
        <extensions>
          <ns3:TrackPointExtension>
            <ns3:atemp>23.0</ns3:atemp>
          </ns3:TrackPointExtension>
        </extensions>
      </trkpt>
      <trkpt lat="43.1154261343181133270263671875" lon="13.03199605084955692291259765625">
        <ele>555</ele>
        <time>2021-06-06T09:53:09.000Z</time>
        <extensions>
          <ns3:TrackPointExtension>
            <ns3:atemp>23.0</ns3:atemp>
          </ns3:TrackPointExtension>
        </extensions>
      </trkpt>
      <trkpt lat="43.11541683040559291839599609375" lon="13.03201046772301197052001953125">
        <ele>555.5999755859375</ele>
        <time>2021-06-06T09:53:20.000Z</time>
        <extensions>
          <ns3:TrackPointExtension>
            <ns3:atemp>23.0</ns3:atemp>
          </ns3:TrackPointExtension>
        </extensions>
      </trkpt>
      <trkpt lat="43.1154174171388149261474609375" lon="13.0320073664188385009765625">
        <ele>555.5999755859375</ele>
        <time>2021-06-06T09:53:33.000Z</time>
        <extensions>
          <ns3:TrackPointExtension>
            <ns3:atemp>23.0</ns3:atemp>
          </ns3:TrackPointExtension>
        </extensions>
      </trkpt>
      <trkpt lat="43.11541766859591007232666015625" lon="13.0320068635046482086181640625">
        <ele>555.5999755859375</ele>
        <time>2021-06-06T09:53:37.000Z</time>
        <extensions>
          <ns3:TrackPointExtension>
            <ns3:atemp>23.0</ns3:atemp>
          </ns3:TrackPointExtension>
        </extensions>
      </trkpt>
      <trkpt lat="43.11546226032078266143798828125" lon="13.032013736665248870849609375">
        <ele>555.79998779296875</ele>
        <time>2021-06-06T09:53:46.000Z</time>
        <extensions>
          <ns3:TrackPointExtension>
            <ns3:atemp>23.0</ns3:atemp>
          </ns3:TrackPointExtension>
        </extensions>
      </trkpt>
      <trkpt lat="43.1154770962893962860107421875" lon="13.03202237002551555633544921875">
        <ele>555.79998779296875</ele>
        <time>2021-06-06T09:53:47.000Z</time>
        <extensions>
          <ns3:TrackPointExtension>
            <ns3:atemp>23.0</ns3:atemp>
          </ns3:TrackPointExtension>
        </extensions>
      </trkpt>
      <trkpt lat="43.1155213527381420135498046875" lon="13.0321302451193332672119140625">
        <ele>555.79998779296875</ele>
        <time>2021-06-06T09:53:50.000Z</time>
        <extensions>
          <ns3:TrackPointExtension>
            <ns3:atemp>23.0</ns3:atemp>
          </ns3:TrackPointExtension>
        </extensions>
      </trkpt>
      <trkpt lat="43.11553166247904300689697265625" lon="13.03224273025989532470703125">
        <ele>555.79998779296875</ele>
        <time>2021-06-06T09:53:52.000Z</time>
        <extensions>
          <ns3:TrackPointExtension>
            <ns3:atemp>23.0</ns3:atemp>
          </ns3:TrackPointExtension>
        </extensions>
      </trkpt>
      <trkpt lat="43.11551749706268310546875" lon="13.032343648374080657958984375">
        <ele>555.79998779296875</ele>
        <time>2021-06-06T09:53:54.000Z</time>
        <extensions>
          <ns3:TrackPointExtension>
            <ns3:atemp>23.0</ns3:atemp>
          </ns3:TrackPointExtension>
        </extensions>
      </trkpt>
      <trkpt lat="43.115394450724124908447265625" lon="13.03244649432599544525146484375">
        <ele>554.79998779296875</ele>
        <time>2021-06-06T09:53:58.000Z</time>
        <extensions>
          <ns3:TrackPointExtension>
            <ns3:atemp>23.0</ns3:atemp>
          </ns3:TrackPointExtension>
        </extensions>
      </trkpt>
      <trkpt lat="43.11520962975919246673583984375" lon="13.032475411891937255859375">
        <ele>553.5999755859375</ele>
        <time>2021-06-06T09:54:02.000Z</time>
        <extensions>
          <ns3:TrackPointExtension>
            <ns3:atemp>23.0</ns3:atemp>
          </ns3:TrackPointExtension>
        </extensions>
      </trkpt>
      <trkpt lat="43.11515883542597293853759765625" lon="13.0324685387313365936279296875">
        <ele>552.5999755859375</ele>
        <time>2021-06-06T09:54:05.000Z</time>
        <extensions>
          <ns3:TrackPointExtension>
            <ns3:atemp>23.0</ns3:atemp>
          </ns3:TrackPointExtension>
        </extensions>
      </trkpt>
      <trkpt lat="43.11516009271144866943359375" lon="13.03246962837874889373779296875">
        <ele>550.79998779296875</ele>
        <time>2021-06-06T09:54:09.000Z</time>
        <extensions>
          <ns3:TrackPointExtension>
            <ns3:atemp>23.0</ns3:atemp>
          </ns3:TrackPointExtension>
        </extensions>
      </trkpt>
      <trkpt lat="43.11514978297054767608642578125" lon="13.03246309049427509307861328125">
        <ele>550.20001220703125</ele>
        <time>2021-06-06T09:54:11.000Z</time>
        <extensions>
          <ns3:TrackPointExtension>
            <ns3:atemp>23.0</ns3:atemp>
          </ns3:TrackPointExtension>
        </extensions>
      </trkpt>
      <trkpt lat="43.11509312130510807037353515625" lon="13.032484464347362518310546875">
        <ele>550</ele>
        <time>2021-06-06T09:54:13.000Z</time>
        <extensions>
          <ns3:TrackPointExtension>
            <ns3:atemp>23.0</ns3:atemp>
          </ns3:TrackPointExtension>
        </extensions>
      </trkpt>
      <trkpt lat="43.114968650043010711669921875" lon="13.0325637571513652801513671875">
        <ele>549.79998779296875</ele>
        <time>2021-06-06T09:54:16.000Z</time>
        <extensions>
          <ns3:TrackPointExtension>
            <ns3:atemp>23.0</ns3:atemp>
          </ns3:TrackPointExtension>
        </extensions>
      </trkpt>
      <trkpt lat="43.1148652173578739166259765625" lon="13.03264749236404895782470703125">
        <ele>549.5999755859375</ele>
        <time>2021-06-06T09:54:18.000Z</time>
        <extensions>
          <ns3:TrackPointExtension>
            <ns3:atemp>23.0</ns3:atemp>
          </ns3:TrackPointExtension>
        </extensions>
      </trkpt>
      <trkpt lat="43.114707134664058685302734375" lon="13.032820411026477813720703125">
        <ele>549.5999755859375</ele>
        <time>2021-06-06T09:54:21.000Z</time>
        <extensions>
          <ns3:TrackPointExtension>
            <ns3:atemp>23.0</ns3:atemp>
          </ns3:TrackPointExtension>
        </extensions>
      </trkpt>
      <trkpt lat="43.1145639717578887939453125" lon="13.03304714150726795196533203125">
        <ele>548</ele>
        <time>2021-06-06T09:54:24.000Z</time>
        <extensions>
          <ns3:TrackPointExtension>
            <ns3:atemp>23.0</ns3:atemp>
          </ns3:TrackPointExtension>
        </extensions>
      </trkpt>
      <trkpt lat="43.1145252473652362823486328125" lon="13.0331307090818881988525390625">
        <ele>547</ele>
        <time>2021-06-06T09:54:25.000Z</time>
        <extensions>
          <ns3:TrackPointExtension>
            <ns3:atemp>23.0</ns3:atemp>
          </ns3:TrackPointExtension>
        </extensions>
      </trkpt>
      <trkpt lat="43.114489205181598663330078125" lon="13.03321528248488903045654296875">
        <ele>546</ele>
        <time>2021-06-06T09:54:26.000Z</time>
        <extensions>
          <ns3:TrackPointExtension>
            <ns3:atemp>23.0</ns3:atemp>
          </ns3:TrackPointExtension>
        </extensions>
      </trkpt>
      <trkpt lat="43.11441921629011631011962890625" lon="13.0333965830504894256591796875">
        <ele>544.5999755859375</ele>
        <time>2021-06-06T09:54:28.000Z</time>
        <extensions>
          <ns3:TrackPointExtension>
            <ns3:atemp>23.0</ns3:atemp>
          </ns3:TrackPointExtension>
        </extensions>
      </trkpt>
      <trkpt lat="43.1143026240170001983642578125" lon="13.033675365149974822998046875">
        <ele>543.20001220703125</ele>
        <time>2021-06-06T09:54:31.000Z</time>
        <extensions>
          <ns3:TrackPointExtension>
            <ns3:atemp>23.0</ns3:atemp>
          </ns3:TrackPointExtension>
        </extensions>
      </trkpt>
      <trkpt lat="43.11425928957760334014892578125" lon="13.03376999683678150177001953125">
        <ele>542.4000244140625</ele>
        <time>2021-06-06T09:54:32.000Z</time>
        <extensions>
          <ns3:TrackPointExtension>
            <ns3:atemp>23.0</ns3:atemp>
          </ns3:TrackPointExtension>
        </extensions>
      </trkpt>
      <trkpt lat="43.1142107583582401275634765625" lon="13.0338616110384464263916015625">
        <ele>542</ele>
        <time>2021-06-06T09:54:33.000Z</time>
        <extensions>
          <ns3:TrackPointExtension>
            <ns3:atemp>23.0</ns3:atemp>
          </ns3:TrackPointExtension>
        </extensions>
      </trkpt>
      <trkpt lat="43.11404219828546047210693359375" lon="13.03413343615829944610595703125">
        <ele>540.79998779296875</ele>
        <time>2021-06-06T09:54:36.000Z</time>
        <extensions>
          <ns3:TrackPointExtension>
            <ns3:atemp>23.0</ns3:atemp>
          </ns3:TrackPointExtension>
        </extensions>
      </trkpt>
      <trkpt lat="43.1139363348484039306640625" lon="13.0343175865709781646728515625">
        <ele>539.5999755859375</ele>
        <time>2021-06-06T09:54:38.000Z</time>
        <extensions>
          <ns3:TrackPointExtension>
            <ns3:atemp>23.0</ns3:atemp>
          </ns3:TrackPointExtension>
        </extensions>
      </trkpt>
      <trkpt lat="43.11383374035358428955078125" lon="13.03450115025043487548828125">
        <ele>538.5999755859375</ele>
        <time>2021-06-06T09:54:40.000Z</time>
        <extensions>
          <ns3:TrackPointExtension>
            <ns3:atemp>23.0</ns3:atemp>
          </ns3:TrackPointExtension>
        </extensions>
      </trkpt>
      <trkpt lat="43.1137343309819698333740234375" lon="13.03468228317797183990478515625">
        <ele>537.20001220703125</ele>
        <time>2021-06-06T09:54:42.000Z</time>
        <extensions>
          <ns3:TrackPointExtension>
            <ns3:atemp>23.0</ns3:atemp>
          </ns3:TrackPointExtension>
        </extensions>
      </trkpt>
      <trkpt lat="43.11359561048448085784912109375" lon="13.03493994288146495819091796875">
        <ele>535.79998779296875</ele>
        <time>2021-06-06T09:54:45.000Z</time>
        <extensions>
          <ns3:TrackPointExtension>
            <ns3:atemp>22.0</ns3:atemp>
          </ns3:TrackPointExtension>
        </extensions>
      </trkpt>
      <trkpt lat="43.113460578024387359619140625" lon="13.03516122512519359588623046875">
        <ele>535</ele>
        <time>2021-06-06T09:54:48.000Z</time>
        <extensions>
          <ns3:TrackPointExtension>
            <ns3:atemp>22.0</ns3:atemp>
          </ns3:TrackPointExtension>
        </extensions>
      </trkpt>
      <trkpt lat="43.11329285614192485809326171875" lon="13.035436570644378662109375">
        <ele>534.79998779296875</ele>
        <time>2021-06-06T09:54:53.000Z</time>
        <extensions>
          <ns3:TrackPointExtension>
            <ns3:atemp>22.0</ns3:atemp>
          </ns3:TrackPointExtension>
        </extensions>
      </trkpt>
      <trkpt lat="43.113116919994354248046875" lon="13.03572465665638446807861328125">
        <ele>536</ele>
        <time>2021-06-06T09:54:59.000Z</time>
        <extensions>
          <ns3:TrackPointExtension>
            <ns3:atemp>22.0</ns3:atemp>
          </ns3:TrackPointExtension>
        </extensions>
      </trkpt>
      <trkpt lat="43.11298054642975330352783203125" lon="13.0360145866870880126953125">
        <ele>536.20001220703125</ele>
        <time>2021-06-06T09:55:05.000Z</time>
        <extensions>
          <ns3:TrackPointExtension>
            <ns3:atemp>22.0</ns3:atemp>
          </ns3:TrackPointExtension>
        </extensions>
      </trkpt>
      <trkpt lat="43.1128485314548015594482421875" lon="13.0364187620580196380615234375">
        <ele>535</ele>
        <time>2021-06-06T09:55:12.000Z</time>
        <extensions>
          <ns3:TrackPointExtension>
            <ns3:atemp>22.0</ns3:atemp>
          </ns3:TrackPointExtension>
        </extensions>
      </trkpt>
      <trkpt lat="43.112812153995037078857421875" lon="13.036606349050998687744140625">
        <ele>534.5999755859375</ele>
        <time>2021-06-06T09:55:15.000Z</time>
        <extensions>
          <ns3:TrackPointExtension>
            <ns3:atemp>22.0</ns3:atemp>
          </ns3:TrackPointExtension>
        </extensions>
      </trkpt>
      <trkpt lat="43.112778961658477783203125" lon="13.03684598766267299652099609375">
        <ele>534.4000244140625</ele>
        <time>2021-06-06T09:55:19.000Z</time>
        <extensions>
          <ns3:TrackPointExtension>
            <ns3:atemp>22.0</ns3:atemp>
          </ns3:TrackPointExtension>
        </extensions>
      </trkpt>
      <trkpt lat="43.11271953396499156951904296875" lon="13.03721378557384014129638671875">
        <ele>534.20001220703125</ele>
        <time>2021-06-06T09:55:25.000Z</time>
        <extensions>
          <ns3:TrackPointExtension>
            <ns3:atemp>22.0</ns3:atemp>
          </ns3:TrackPointExtension>
        </extensions>
      </trkpt>
      <trkpt lat="43.11268952675163745880126953125" lon="13.0373449623584747314453125">
        <ele>534.20001220703125</ele>
        <time>2021-06-06T09:55:27.000Z</time>
        <extensions>
          <ns3:TrackPointExtension>
            <ns3:atemp>22.0</ns3:atemp>
          </ns3:TrackPointExtension>
        </extensions>
      </trkpt>
      <trkpt lat="43.112713582813739776611328125" lon="13.03747412748634815216064453125">
        <ele>534.20001220703125</ele>
        <time>2021-06-06T09:55:29.000Z</time>
        <extensions>
          <ns3:TrackPointExtension>
            <ns3:atemp>22.0</ns3:atemp>
          </ns3:TrackPointExtension>
        </extensions>
      </trkpt>
      <trkpt lat="43.11282112263143062591552734375" lon="13.0376190505921840667724609375">
        <ele>534</ele>
        <time>2021-06-06T09:55:32.000Z</time>
        <extensions>
          <ns3:TrackPointExtension>
            <ns3:atemp>22.0</ns3:atemp>
          </ns3:TrackPointExtension>
        </extensions>
      </trkpt>
      <trkpt lat="43.11286051757633686065673828125" lon="13.037663139402866363525390625">
        <ele>534</ele>
        <time>2021-06-06T09:55:33.000Z</time>
        <extensions>
          <ns3:TrackPointExtension>
            <ns3:atemp>22.0</ns3:atemp>
          </ns3:TrackPointExtension>
        </extensions>
      </trkpt>
      <trkpt lat="43.113066963851451873779296875" lon="13.03786304779350757598876953125">
        <ele>533.79998779296875</ele>
        <time>2021-06-06T09:55:38.000Z</time>
        <extensions>
          <ns3:TrackPointExtension>
            <ns3:atemp>22.0</ns3:atemp>
          </ns3:TrackPointExtension>
        </extensions>
      </trkpt>
      <trkpt lat="43.11315405182540416717529296875" lon="13.0379291810095310211181640625">
        <ele>533.5999755859375</ele>
        <time>2021-06-06T09:55:40.000Z</time>
        <extensions>
          <ns3:TrackPointExtension>
            <ns3:atemp>22.0</ns3:atemp>
          </ns3:TrackPointExtension>
        </extensions>
      </trkpt>
      <trkpt lat="43.11340651474893093109130859375" lon="13.03814065642654895782470703125">
        <ele>533.20001220703125</ele>
        <time>2021-06-06T09:55:46.000Z</time>
        <extensions>
          <ns3:TrackPointExtension>
            <ns3:atemp>22.0</ns3:atemp>
          </ns3:TrackPointExtension>
        </extensions>
      </trkpt>
      <trkpt lat="43.11344347894191741943359375" lon="13.03818725980818271636962890625">
        <ele>533.20001220703125</ele>
        <time>2021-06-06T09:55:47.000Z</time>
        <extensions>
          <ns3:TrackPointExtension>
            <ns3:atemp>23.0</ns3:atemp>
          </ns3:TrackPointExtension>
        </extensions>
      </trkpt>
      <trkpt lat="43.113579936325550079345703125" lon="13.03836596198379993438720703125">
        <ele>533.20001220703125</ele>
        <time>2021-06-06T09:55:51.000Z</time>
        <extensions>
          <ns3:TrackPointExtension>
            <ns3:atemp>22.0</ns3:atemp>
          </ns3:TrackPointExtension>
        </extensions>
      </trkpt>
      <trkpt lat="43.11384757049381732940673828125" lon="13.03874884732067584991455078125">
        <ele>534.20001220703125</ele>
        <time>2021-06-06T09:55:59.000Z</time>
        <extensions>
          <ns3:TrackPointExtension>
            <ns3:atemp>22.0</ns3:atemp>
          </ns3:TrackPointExtension>
        </extensions>
      </trkpt>
      <trkpt lat="43.1139264442026615142822265625" lon="13.038904331624507904052734375">
        <ele>535</ele>
        <time>2021-06-06T09:56:02.000Z</time>
        <extensions>
          <ns3:TrackPointExtension>
            <ns3:atemp>22.0</ns3:atemp>
          </ns3:TrackPointExtension>
        </extensions>
      </trkpt>
      <trkpt lat="43.11400414444506168365478515625" lon="13.0391157232224941253662109375">
        <ele>536</ele>
        <time>2021-06-06T09:56:06.000Z</time>
        <extensions>
          <ns3:TrackPointExtension>
            <ns3:atemp>22.0</ns3:atemp>
          </ns3:TrackPointExtension>
        </extensions>
      </trkpt>
      <trkpt lat="43.11401889659464359283447265625" lon="13.03916961885988712310791015625">
        <ele>536.4000244140625</ele>
        <time>2021-06-06T09:56:07.000Z</time>
        <extensions>
          <ns3:TrackPointExtension>
            <ns3:atemp>22.0</ns3:atemp>
          </ns3:TrackPointExtension>
        </extensions>
      </trkpt>
      <trkpt lat="43.11409684829413890838623046875" lon="13.039371706545352935791015625">
        <ele>537.5999755859375</ele>
        <time>2021-06-06T09:56:11.000Z</time>
        <extensions>
          <ns3:TrackPointExtension>
            <ns3:atemp>22.0</ns3:atemp>
          </ns3:TrackPointExtension>
        </extensions>
      </trkpt>
      <trkpt lat="43.1141272746026515960693359375" lon="13.03941629827022552490234375">
        <ele>537.79998779296875</ele>
        <time>2021-06-06T09:56:12.000Z</time>
        <extensions>
          <ns3:TrackPointExtension>
            <ns3:atemp>22.0</ns3:atemp>
          </ns3:TrackPointExtension>
        </extensions>
      </trkpt>
      <trkpt lat="43.11419676057994365692138671875" lon="13.0395069904625415802001953125">
        <ele>538.20001220703125</ele>
        <time>2021-06-06T09:56:14.000Z</time>
        <extensions>
          <ns3:TrackPointExtension>
            <ns3:atemp>22.0</ns3:atemp>
          </ns3:TrackPointExtension>
        </extensions>
      </trkpt>
      <trkpt lat="43.1142630614340305328369140625" lon="13.039586283266544342041015625">
        <ele>538.79998779296875</ele>
        <time>2021-06-06T09:56:16.000Z</time>
        <extensions>
          <ns3:TrackPointExtension>
            <ns3:atemp>22.0</ns3:atemp>
          </ns3:TrackPointExtension>
        </extensions>
      </trkpt>
      <trkpt lat="43.11429499648511409759521484375" lon="13.0396213196218013763427734375">
        <ele>539.20001220703125</ele>
        <time>2021-06-06T09:56:17.000Z</time>
        <extensions>
          <ns3:TrackPointExtension>
            <ns3:atemp>22.0</ns3:atemp>
          </ns3:TrackPointExtension>
        </extensions>
      </trkpt>
      <trkpt lat="43.1143534183502197265625" lon="13.0396823398768901824951171875">
        <ele>539.79998779296875</ele>
        <time>2021-06-06T09:56:19.000Z</time>
        <extensions>
          <ns3:TrackPointExtension>
            <ns3:atemp>22.0</ns3:atemp>
          </ns3:TrackPointExtension>
        </extensions>
      </trkpt>
      <trkpt lat="43.11445944942533969879150390625" lon="13.03977395407855510711669921875">
        <ele>540.5999755859375</ele>
        <time>2021-06-06T09:56:23.000Z</time>
        <extensions>
          <ns3:TrackPointExtension>
            <ns3:atemp>22.0</ns3:atemp>
          </ns3:TrackPointExtension>
        </extensions>
      </trkpt>
      <trkpt lat="43.1144836731255054473876953125" lon="13.03979692049324512481689453125">
        <ele>541</ele>
        <time>2021-06-06T09:56:24.000Z</time>
        <extensions>
          <ns3:TrackPointExtension>
            <ns3:atemp>22.0</ns3:atemp>
          </ns3:TrackPointExtension>
        </extensions>
      </trkpt>
      <trkpt lat="43.11455433256924152374267578125" lon="13.03986783139407634735107421875">
        <ele>542.20001220703125</ele>
        <time>2021-06-06T09:56:27.000Z</time>
        <extensions>
          <ns3:TrackPointExtension>
            <ns3:atemp>22.0</ns3:atemp>
          </ns3:TrackPointExtension>
        </extensions>
      </trkpt>
      <trkpt lat="43.11463437974452972412109375" lon="13.0399374850094318389892578125">
        <ele>543.20001220703125</ele>
        <time>2021-06-06T09:56:30.000Z</time>
        <extensions>
          <ns3:TrackPointExtension>
            <ns3:atemp>22.0</ns3:atemp>
          </ns3:TrackPointExtension>
        </extensions>
      </trkpt>
      <trkpt lat="43.11472582630813121795654296875" lon="13.03999431431293487548828125">
        <ele>544.5999755859375</ele>
        <time>2021-06-06T09:56:33.000Z</time>
        <extensions>
          <ns3:TrackPointExtension>
            <ns3:atemp>22.0</ns3:atemp>
          </ns3:TrackPointExtension>
        </extensions>
      </trkpt>
      <trkpt lat="43.11478164978325366973876953125" lon="13.04004083387553691864013671875">
        <ele>545.5999755859375</ele>
        <time>2021-06-06T09:56:35.000Z</time>
        <extensions>
          <ns3:TrackPointExtension>
            <ns3:atemp>22.0</ns3:atemp>
          </ns3:TrackPointExtension>
        </extensions>
      </trkpt>
      <trkpt lat="43.1148018501698970794677734375" lon="13.040071092545986175537109375">
        <ele>546</ele>
        <time>2021-06-06T09:56:36.000Z</time>
        <extensions>
          <ns3:TrackPointExtension>
            <ns3:atemp>22.0</ns3:atemp>
          </ns3:TrackPointExtension>
        </extensions>
      </trkpt>
      <trkpt lat="43.11480679549276828765869140625" lon="13.0401681549847126007080078125">
        <ele>547.5999755859375</ele>
        <time>2021-06-06T09:56:39.000Z</time>
        <extensions>
          <ns3:TrackPointExtension>
            <ns3:atemp>22.0</ns3:atemp>
          </ns3:TrackPointExtension>
        </extensions>
      </trkpt>
      <trkpt lat="43.11480377800762653350830078125" lon="13.04020226933062076568603515625">
        <ele>548.20001220703125</ele>
        <time>2021-06-06T09:56:40.000Z</time>
        <extensions>
          <ns3:TrackPointExtension>
            <ns3:atemp>22.0</ns3:atemp>
          </ns3:TrackPointExtension>
        </extensions>
      </trkpt>
      <trkpt lat="43.11479472555220127105712890625" lon="13.04023546166718006134033203125">
        <ele>548.79998779296875</ele>
        <time>2021-06-06T09:56:41.000Z</time>
        <extensions>
          <ns3:TrackPointExtension>
            <ns3:atemp>22.0</ns3:atemp>
          </ns3:TrackPointExtension>
        </extensions>
      </trkpt>
      <trkpt lat="43.114788271486759185791015625" lon="13.04026429541409015655517578125">
        <ele>549.5999755859375</ele>
        <time>2021-06-06T09:56:42.000Z</time>
        <extensions>
          <ns3:TrackPointExtension>
            <ns3:atemp>22.0</ns3:atemp>
          </ns3:TrackPointExtension>
        </extensions>
      </trkpt>
      <trkpt lat="43.11478994786739349365234375" lon="13.0402912013232707977294921875">
        <ele>550.4000244140625</ele>
        <time>2021-06-06T09:56:43.000Z</time>
        <extensions>
          <ns3:TrackPointExtension>
            <ns3:atemp>22.0</ns3:atemp>
          </ns3:TrackPointExtension>
        </extensions>
      </trkpt>
      <trkpt lat="43.11479656957089900970458984375" lon="13.04031961597502231597900390625">
        <ele>551</ele>
        <time>2021-06-06T09:56:44.000Z</time>
        <extensions>
          <ns3:TrackPointExtension>
            <ns3:atemp>22.0</ns3:atemp>
          </ns3:TrackPointExtension>
        </extensions>
      </trkpt>
      <trkpt lat="43.1148075498640537261962890625" lon="13.04034794680774211883544921875">
        <ele>551.5999755859375</ele>
        <time>2021-06-06T09:56:45.000Z</time>
        <extensions>
          <ns3:TrackPointExtension>
            <ns3:atemp>22.0</ns3:atemp>
          </ns3:TrackPointExtension>
        </extensions>
      </trkpt>
      <trkpt lat="43.11485675163567066192626953125" lon="13.0404239706695079803466796875">
        <ele>553</ele>
        <time>2021-06-06T09:56:48.000Z</time>
        <extensions>
          <ns3:TrackPointExtension>
            <ns3:atemp>22.0</ns3:atemp>
          </ns3:TrackPointExtension>
        </extensions>
      </trkpt>
      <trkpt lat="43.1148963980376720428466796875" lon="13.04045573808252811431884765625">
        <ele>554</ele>
        <time>2021-06-06T09:56:50.000Z</time>
        <extensions>
          <ns3:TrackPointExtension>
            <ns3:atemp>22.0</ns3:atemp>
          </ns3:TrackPointExtension>
        </extensions>
      </trkpt>
      <trkpt lat="43.11491676606237888336181640625" lon="13.04047434590756893157958984375">
        <ele>554.5999755859375</ele>
        <time>2021-06-06T09:56:51.000Z</time>
        <extensions>
          <ns3:TrackPointExtension>
            <ns3:atemp>22.0</ns3:atemp>
          </ns3:TrackPointExtension>
        </extensions>
      </trkpt>
      <trkpt lat="43.1149958074092864990234375" lon="13.04053268395364284515380859375">
        <ele>555.5999755859375</ele>
        <time>2021-06-06T09:56:54.000Z</time>
        <extensions>
          <ns3:TrackPointExtension>
            <ns3:atemp>22.0</ns3:atemp>
          </ns3:TrackPointExtension>
        </extensions>
      </trkpt>
      <trkpt lat="43.1150502897799015045166015625" lon="13.04058331064879894256591796875">
        <ele>555.79998779296875</ele>
        <time>2021-06-06T09:56:56.000Z</time>
        <extensions>
          <ns3:TrackPointExtension>
            <ns3:atemp>22.0</ns3:atemp>
          </ns3:TrackPointExtension>
        </extensions>
      </trkpt>
      <trkpt lat="43.115245588123798370361328125" lon="13.04072387516498565673828125">
        <ele>555.79998779296875</ele>
        <time>2021-06-06T09:57:01.000Z</time>
        <extensions>
          <ns3:TrackPointExtension>
            <ns3:atemp>22.0</ns3:atemp>
          </ns3:TrackPointExtension>
        </extensions>
      </trkpt>
      <trkpt lat="43.1152962148189544677734375" lon="13.040762431919574737548828125">
        <ele>555.79998779296875</ele>
        <time>2021-06-06T09:57:02.000Z</time>
        <extensions>
          <ns3:TrackPointExtension>
            <ns3:atemp>22.0</ns3:atemp>
          </ns3:TrackPointExtension>
        </extensions>
      </trkpt>
      <trkpt lat="43.115493357181549072265625" lon="13.0409402959048748016357421875">
        <ele>555.4000244140625</ele>
        <time>2021-06-06T09:57:06.000Z</time>
        <extensions>
          <ns3:TrackPointExtension>
            <ns3:atemp>22.0</ns3:atemp>
          </ns3:TrackPointExtension>
        </extensions>
      </trkpt>
      <trkpt lat="43.115588240325450897216796875" lon="13.0410392023622989654541015625">
        <ele>553.79998779296875</ele>
        <time>2021-06-06T09:57:08.000Z</time>
        <extensions>
          <ns3:TrackPointExtension>
            <ns3:atemp>22.0</ns3:atemp>
          </ns3:TrackPointExtension>
        </extensions>
      </trkpt>
      <trkpt lat="43.11569259501993656158447265625" lon="13.0411347560584545135498046875">
        <ele>552.79998779296875</ele>
        <time>2021-06-06T09:57:10.000Z</time>
        <extensions>
          <ns3:TrackPointExtension>
            <ns3:atemp>22.0</ns3:atemp>
          </ns3:TrackPointExtension>
        </extensions>
      </trkpt>
      <trkpt lat="43.11582217924296855926513671875" lon="13.04125268943607807159423828125">
        <ele>552</ele>
        <time>2021-06-06T09:57:13.000Z</time>
        <extensions>
          <ns3:TrackPointExtension>
            <ns3:atemp>22.0</ns3:atemp>
          </ns3:TrackPointExtension>
        </extensions>
      </trkpt>
      <trkpt lat="43.11588831245899200439453125" lon="13.04137439467012882232666015625">
        <ele>552</ele>
        <time>2021-06-06T09:57:15.000Z</time>
        <extensions>
          <ns3:TrackPointExtension>
            <ns3:atemp>22.0</ns3:atemp>
          </ns3:TrackPointExtension>
        </extensions>
      </trkpt>
      <trkpt lat="43.115954361855983734130859375" lon="13.04153398610651493072509765625">
        <ele>552</ele>
        <time>2021-06-06T09:57:17.000Z</time>
        <extensions>
          <ns3:TrackPointExtension>
            <ns3:atemp>22.0</ns3:atemp>
          </ns3:TrackPointExtension>
        </extensions>
      </trkpt>
      <trkpt lat="43.116205148398876190185546875" lon="13.0421596951782703399658203125">
        <ele>551.5999755859375</ele>
        <time>2021-06-06T09:57:24.000Z</time>
        <extensions>
          <ns3:TrackPointExtension>
            <ns3:atemp>22.0</ns3:atemp>
          </ns3:TrackPointExtension>
        </extensions>
      </trkpt>
      <trkpt lat="43.11641561798751354217529296875" lon="13.04267141036689281463623046875">
        <ele>550.79998779296875</ele>
        <time>2021-06-06T09:57:28.000Z</time>
        <extensions>
          <ns3:TrackPointExtension>
            <ns3:atemp>22.0</ns3:atemp>
          </ns3:TrackPointExtension>
        </extensions>
      </trkpt>
      <trkpt lat="43.1164763867855072021484375" lon="13.04281641729176044464111328125">
        <ele>550.20001220703125</ele>
        <time>2021-06-06T09:57:29.000Z</time>
        <extensions>
          <ns3:TrackPointExtension>
            <ns3:atemp>22.0</ns3:atemp>
          </ns3:TrackPointExtension>
        </extensions>
      </trkpt>
      <trkpt lat="43.11659549362957477569580078125" lon="13.04310970008373260498046875">
        <ele>548.79998779296875</ele>
        <time>2021-06-06T09:57:31.000Z</time>
        <extensions>
          <ns3:TrackPointExtension>
            <ns3:atemp>22.0</ns3:atemp>
          </ns3:TrackPointExtension>
        </extensions>
      </trkpt>
      <trkpt lat="43.11665383167564868927001953125" lon="13.043250851333141326904296875">
        <ele>547.5999755859375</ele>
        <time>2021-06-06T09:57:32.000Z</time>
        <extensions>
          <ns3:TrackPointExtension>
            <ns3:atemp>22.0</ns3:atemp>
          </ns3:TrackPointExtension>
        </extensions>
      </trkpt>
      <trkpt lat="43.11671183444559574127197265625" lon="13.0433871410787105560302734375">
        <ele>545.4000244140625</ele>
        <time>2021-06-06T09:57:33.000Z</time>
        <extensions>
          <ns3:TrackPointExtension>
            <ns3:atemp>22.0</ns3:atemp>
          </ns3:TrackPointExtension>
        </extensions>
      </trkpt>
      <trkpt lat="43.1167766265571117401123046875" lon="13.04351932369172573089599609375">
        <ele>543</ele>
        <time>2021-06-06T09:57:34.000Z</time>
        <extensions>
          <ns3:TrackPointExtension>
            <ns3:atemp>22.0</ns3:atemp>
          </ns3:TrackPointExtension>
        </extensions>
      </trkpt>
      <trkpt lat="43.11684988439083099365234375" lon="13.04364454932510852813720703125">
        <ele>540.4000244140625</ele>
        <time>2021-06-06T09:57:35.000Z</time>
        <extensions>
          <ns3:TrackPointExtension>
            <ns3:atemp>22.0</ns3:atemp>
          </ns3:TrackPointExtension>
        </extensions>
      </trkpt>
      <trkpt lat="43.116925656795501708984375" lon="13.0437576211988925933837890625">
        <ele>537.5999755859375</ele>
        <time>2021-06-06T09:57:36.000Z</time>
        <extensions>
          <ns3:TrackPointExtension>
            <ns3:atemp>22.0</ns3:atemp>
          </ns3:TrackPointExtension>
        </extensions>
      </trkpt>
      <trkpt lat="43.11700117774307727813720703125" lon="13.04385761730372905731201171875">
        <ele>534.79998779296875</ele>
        <time>2021-06-06T09:57:37.000Z</time>
        <extensions>
          <ns3:TrackPointExtension>
            <ns3:atemp>22.0</ns3:atemp>
          </ns3:TrackPointExtension>
        </extensions>
      </trkpt>
      <trkpt lat="43.11707544140517711639404296875" lon="13.04394143633544445037841796875">
        <ele>532.20001220703125</ele>
        <time>2021-06-06T09:57:38.000Z</time>
        <extensions>
          <ns3:TrackPointExtension>
            <ns3:atemp>22.0</ns3:atemp>
          </ns3:TrackPointExtension>
        </extensions>
      </trkpt>
      <trkpt lat="43.11714685522019863128662109375" lon="13.044011257588863372802734375">
        <ele>530.20001220703125</ele>
        <time>2021-06-06T09:57:39.000Z</time>
        <extensions>
          <ns3:TrackPointExtension>
            <ns3:atemp>22.0</ns3:atemp>
          </ns3:TrackPointExtension>
        </extensions>
      </trkpt>
      <trkpt lat="43.1172118149697780609130859375" lon="13.04407931864261627197265625">
        <ele>528.79998779296875</ele>
        <time>2021-06-06T09:57:40.000Z</time>
        <extensions>
          <ns3:TrackPointExtension>
            <ns3:atemp>22.0</ns3:atemp>
          </ns3:TrackPointExtension>
        </extensions>
      </trkpt>
      <trkpt lat="43.1172607652842998504638671875" lon="13.04414344020187854766845703125">
        <ele>528.20001220703125</ele>
        <time>2021-06-06T09:57:41.000Z</time>
        <extensions>
          <ns3:TrackPointExtension>
            <ns3:atemp>22.0</ns3:atemp>
          </ns3:TrackPointExtension>
        </extensions>
      </trkpt>
      <trkpt lat="43.117298819124698638916015625" lon="13.044206388294696807861328125">
        <ele>527.79998779296875</ele>
        <time>2021-06-06T09:57:42.000Z</time>
        <extensions>
          <ns3:TrackPointExtension>
            <ns3:atemp>22.0</ns3:atemp>
          </ns3:TrackPointExtension>
        </extensions>
      </trkpt>
      <trkpt lat="43.117406107485294342041015625" lon="13.0443483777344226837158203125">
        <ele>527.4000244140625</ele>
        <time>2021-06-06T09:57:45.000Z</time>
        <extensions>
          <ns3:TrackPointExtension>
            <ns3:atemp>22.0</ns3:atemp>
          </ns3:TrackPointExtension>
        </extensions>
      </trkpt>
      <trkpt lat="43.11743888072669506072998046875" lon="13.04438534192740917205810546875">
        <ele>527.4000244140625</ele>
        <time>2021-06-06T09:57:46.000Z</time>
        <extensions>
          <ns3:TrackPointExtension>
            <ns3:atemp>22.0</ns3:atemp>
          </ns3:TrackPointExtension>
        </extensions>
      </trkpt>
      <trkpt lat="43.11747039668262004852294921875" lon="13.04452456533908843994140625">
        <ele>527.4000244140625</ele>
        <time>2021-06-06T09:57:49.000Z</time>
        <extensions>
          <ns3:TrackPointExtension>
            <ns3:atemp>22.0</ns3:atemp>
          </ns3:TrackPointExtension>
        </extensions>
      </trkpt>
      <trkpt lat="43.11745950020849704742431640625" lon="13.044684827327728271484375">
        <ele>529.79998779296875</ele>
        <time>2021-06-06T09:57:52.000Z</time>
        <extensions>
          <ns3:TrackPointExtension>
            <ns3:atemp>22.0</ns3:atemp>
          </ns3:TrackPointExtension>
        </extensions>
      </trkpt>
      <trkpt lat="43.11747509054839611053466796875" lon="13.0447416566312313079833984375">
        <ele>531.5999755859375</ele>
        <time>2021-06-06T09:57:53.000Z</time>
        <extensions>
          <ns3:TrackPointExtension>
            <ns3:atemp>22.0</ns3:atemp>
          </ns3:TrackPointExtension>
        </extensions>
      </trkpt>
      <trkpt lat="43.11749386601150035858154296875" lon="13.04480091668665409088134765625">
        <ele>532.4000244140625</ele>
        <time>2021-06-06T09:57:54.000Z</time>
        <extensions>
          <ns3:TrackPointExtension>
            <ns3:atemp>22.0</ns3:atemp>
          </ns3:TrackPointExtension>
        </extensions>
      </trkpt>
      <trkpt lat="43.11751046217978000640869140625" lon="13.04486252367496490478515625">
        <ele>533.4000244140625</ele>
        <time>2021-06-06T09:57:55.000Z</time>
        <extensions>
          <ns3:TrackPointExtension>
            <ns3:atemp>22.0</ns3:atemp>
          </ns3:TrackPointExtension>
        </extensions>
      </trkpt>
      <trkpt lat="43.117550946772098541259765625" lon="13.045001663267612457275390625">
        <ele>535</ele>
        <time>2021-06-06T09:57:57.000Z</time>
        <extensions>
          <ns3:TrackPointExtension>
            <ns3:atemp>22.0</ns3:atemp>
          </ns3:TrackPointExtension>
        </extensions>
      </trkpt>
      <trkpt lat="43.11761439777910709381103515625" lon="13.04521934129297733306884765625">
        <ele>536.20001220703125</ele>
        <time>2021-06-06T09:58:00.000Z</time>
        <extensions>
          <ns3:TrackPointExtension>
            <ns3:atemp>22.0</ns3:atemp>
          </ns3:TrackPointExtension>
        </extensions>
      </trkpt>
      <trkpt lat="43.11766888014972209930419921875" lon="13.04541313089430332183837890625">
        <ele>537.20001220703125</ele>
        <time>2021-06-06T09:58:03.000Z</time>
        <extensions>
          <ns3:TrackPointExtension>
            <ns3:atemp>22.0</ns3:atemp>
          </ns3:TrackPointExtension>
        </extensions>
      </trkpt>
      <trkpt lat="43.11768480576574802398681640625" lon="13.04547565989196300506591796875">
        <ele>537.20001220703125</ele>
        <time>2021-06-06T09:58:04.000Z</time>
        <extensions>
          <ns3:TrackPointExtension>
            <ns3:atemp>22.0</ns3:atemp>
          </ns3:TrackPointExtension>
        </extensions>
      </trkpt>
      <trkpt lat="43.11770240776240825653076171875" lon="13.04553617723286151885986328125">
        <ele>537.4000244140625</ele>
        <time>2021-06-06T09:58:05.000Z</time>
        <extensions>
          <ns3:TrackPointExtension>
            <ns3:atemp>22.0</ns3:atemp>
          </ns3:TrackPointExtension>
        </extensions>
      </trkpt>
      <trkpt lat="43.11781036667525768280029296875" lon="13.0459054000675678253173828125">
        <ele>537.79998779296875</ele>
        <time>2021-06-06T09:58:11.000Z</time>
        <extensions>
          <ns3:TrackPointExtension>
            <ns3:atemp>22.0</ns3:atemp>
          </ns3:TrackPointExtension>
        </extensions>
      </trkpt>
      <trkpt lat="43.1178729794919490814208984375" lon="13.04609139449894428253173828125">
        <ele>538.20001220703125</ele>
        <time>2021-06-06T09:58:14.000Z</time>
        <extensions>
          <ns3:TrackPointExtension>
            <ns3:atemp>22.0</ns3:atemp>
          </ns3:TrackPointExtension>
        </extensions>
      </trkpt>
      <trkpt lat="43.1179289706051349639892578125" lon="13.04620572365820407867431640625">
        <ele>538.4000244140625</ele>
        <time>2021-06-06T09:58:16.000Z</time>
        <extensions>
          <ns3:TrackPointExtension>
            <ns3:atemp>22.0</ns3:atemp>
          </ns3:TrackPointExtension>
        </extensions>
      </trkpt>
      <trkpt lat="43.11796157620847225189208984375" lon="13.0462604574859142303466796875">
        <ele>538.5999755859375</ele>
        <time>2021-06-06T09:58:17.000Z</time>
        <extensions>
          <ns3:TrackPointExtension>
            <ns3:atemp>22.0</ns3:atemp>
          </ns3:TrackPointExtension>
        </extensions>
      </trkpt>
      <trkpt lat="43.11811798252165317535400390625" lon="13.0465114116668701171875">
        <ele>539.4000244140625</ele>
        <time>2021-06-06T09:58:22.000Z</time>
        <extensions>
          <ns3:TrackPointExtension>
            <ns3:atemp>22.0</ns3:atemp>
          </ns3:TrackPointExtension>
        </extensions>
      </trkpt>
      <trkpt lat="43.1181928329169750213623046875" lon="13.04659598506987094879150390625">
        <ele>539.79998779296875</ele>
        <time>2021-06-06T09:58:24.000Z</time>
        <extensions>
          <ns3:TrackPointExtension>
            <ns3:atemp>22.0</ns3:atemp>
          </ns3:TrackPointExtension>
        </extensions>
      </trkpt>
      <trkpt lat="43.1184922344982624053955078125" lon="13.04684878326952457427978515625">
        <ele>540</ele>
        <time>2021-06-06T09:58:30.000Z</time>
        <extensions>
          <ns3:TrackPointExtension>
            <ns3:atemp>22.0</ns3:atemp>
          </ns3:TrackPointExtension>
        </extensions>
      </trkpt>
      <trkpt lat="43.11878367327153682708740234375" lon="13.0471455864608287811279296875">
        <ele>538.4000244140625</ele>
        <time>2021-06-06T09:58:36.000Z</time>
        <extensions>
          <ns3:TrackPointExtension>
            <ns3:atemp>22.0</ns3:atemp>
          </ns3:TrackPointExtension>
        </extensions>
      </trkpt>
      <trkpt lat="43.11887486837804317474365234375" lon="13.0472659505903720855712890625">
        <ele>537.20001220703125</ele>
        <time>2021-06-06T09:58:38.000Z</time>
        <extensions>
          <ns3:TrackPointExtension>
            <ns3:atemp>22.0</ns3:atemp>
          </ns3:TrackPointExtension>
        </extensions>
      </trkpt>
      <trkpt lat="43.11901417560875415802001953125" lon="13.04744540713727474212646484375">
        <ele>536</ele>
        <time>2021-06-06T09:58:41.000Z</time>
        <extensions>
          <ns3:TrackPointExtension>
            <ns3:atemp>22.0</ns3:atemp>
          </ns3:TrackPointExtension>
        </extensions>
      </trkpt>
      <trkpt lat="43.11905876733362674713134765625" lon="13.0475046671926975250244140625">
        <ele>535.79998779296875</ele>
        <time>2021-06-06T09:58:42.000Z</time>
        <extensions>
          <ns3:TrackPointExtension>
            <ns3:atemp>22.0</ns3:atemp>
          </ns3:TrackPointExtension>
        </extensions>
      </trkpt>
      <trkpt lat="43.11915163882076740264892578125" lon="13.04760868661105632781982421875">
        <ele>535.5999755859375</ele>
        <time>2021-06-06T09:58:44.000Z</time>
        <extensions>
          <ns3:TrackPointExtension>
            <ns3:atemp>22.0</ns3:atemp>
          </ns3:TrackPointExtension>
        </extensions>
      </trkpt>
      <trkpt lat="43.11933453194797039031982421875" lon="13.04781655780971050262451171875">
        <ele>535.4000244140625</ele>
        <time>2021-06-06T09:58:49.000Z</time>
        <extensions>
          <ns3:TrackPointExtension>
            <ns3:atemp>22.0</ns3:atemp>
          </ns3:TrackPointExtension>
        </extensions>
      </trkpt>
      <trkpt lat="43.1195671297609806060791015625" lon="13.04811160080134868621826171875">
        <ele>537.4000244140625</ele>
        <time>2021-06-06T09:58:57.000Z</time>
        <extensions>
          <ns3:TrackPointExtension>
            <ns3:atemp>22.0</ns3:atemp>
          </ns3:TrackPointExtension>
        </extensions>
      </trkpt>
      <trkpt lat="43.11958414502441883087158203125" lon="13.04816507734358310699462890625">
        <ele>537.5999755859375</ele>
        <time>2021-06-06T09:58:58.000Z</time>
        <extensions>
          <ns3:TrackPointExtension>
            <ns3:atemp>22.0</ns3:atemp>
          </ns3:TrackPointExtension>
        </extensions>
      </trkpt>
      <trkpt lat="43.11962504871189594268798828125" lon="13.04828376509249210357666015625">
        <ele>537.5999755859375</ele>
        <time>2021-06-06T09:59:00.000Z</time>
        <extensions>
          <ns3:TrackPointExtension>
            <ns3:atemp>22.0</ns3:atemp>
          </ns3:TrackPointExtension>
        </extensions>
      </trkpt>
      <trkpt lat="43.1196556426584720611572265625" lon="13.0483301170170307159423828125">
        <ele>537.79998779296875</ele>
        <time>2021-06-06T09:59:01.000Z</time>
        <extensions>
          <ns3:TrackPointExtension>
            <ns3:atemp>22.0</ns3:atemp>
          </ns3:TrackPointExtension>
        </extensions>
      </trkpt>
      <trkpt lat="43.1197589077055454254150390625" lon="13.04842893965542316436767578125">
        <ele>537.79998779296875</ele>
        <time>2021-06-06T09:59:04.000Z</time>
        <extensions>
          <ns3:TrackPointExtension>
            <ns3:atemp>22.0</ns3:atemp>
          </ns3:TrackPointExtension>
        </extensions>
      </trkpt>
      <trkpt lat="43.11978899873793125152587890625" lon="13.048483170568943023681640625">
        <ele>537.79998779296875</ele>
        <time>2021-06-06T09:59:05.000Z</time>
        <extensions>
          <ns3:TrackPointExtension>
            <ns3:atemp>22.0</ns3:atemp>
          </ns3:TrackPointExtension>
        </extensions>
      </trkpt>
      <trkpt lat="43.11986292712390422821044921875" lon="13.048689700663089752197265625">
        <ele>537.4000244140625</ele>
        <time>2021-06-06T09:59:08.000Z</time>
        <extensions>
          <ns3:TrackPointExtension>
            <ns3:atemp>22.0</ns3:atemp>
          </ns3:TrackPointExtension>
        </extensions>
      </trkpt>
      <trkpt lat="43.1198950298130512237548828125" lon="13.04874795489013195037841796875">
        <ele>537.20001220703125</ele>
        <time>2021-06-06T09:59:09.000Z</time>
        <extensions>
          <ns3:TrackPointExtension>
            <ns3:atemp>22.0</ns3:atemp>
          </ns3:TrackPointExtension>
        </extensions>
      </trkpt>
      <trkpt lat="43.12006426043808460235595703125" lon="13.04899153299629688262939453125">
        <ele>536.79998779296875</ele>
        <time>2021-06-06T09:59:14.000Z</time>
        <extensions>
          <ns3:TrackPointExtension>
            <ns3:atemp>22.0</ns3:atemp>
          </ns3:TrackPointExtension>
        </extensions>
      </trkpt>
      <trkpt lat="43.12013818882405757904052734375" lon="13.049086667597293853759765625">
        <ele>536.4000244140625</ele>
        <time>2021-06-06T09:59:16.000Z</time>
        <extensions>
          <ns3:TrackPointExtension>
            <ns3:atemp>22.0</ns3:atemp>
          </ns3:TrackPointExtension>
        </extensions>
      </trkpt>
      <trkpt lat="43.120268695056438446044921875" lon="13.04924927651882171630859375">
        <ele>536.4000244140625</ele>
        <time>2021-06-06T09:59:20.000Z</time>
        <extensions>
          <ns3:TrackPointExtension>
            <ns3:atemp>22.0</ns3:atemp>
          </ns3:TrackPointExtension>
        </extensions>
      </trkpt>
      <trkpt lat="43.12044044025242328643798828125" lon="13.049447424709796905517578125">
        <ele>536.20001220703125</ele>
        <time>2021-06-06T09:59:24.000Z</time>
        <extensions>
          <ns3:TrackPointExtension>
            <ns3:atemp>22.0</ns3:atemp>
          </ns3:TrackPointExtension>
        </extensions>
      </trkpt>
      <trkpt lat="43.1207536719739437103271484375" lon="13.0497671104967594146728515625">
        <ele>535.79998779296875</ele>
        <time>2021-06-06T09:59:31.000Z</time>
        <extensions>
          <ns3:TrackPointExtension>
            <ns3:atemp>22.0</ns3:atemp>
          </ns3:TrackPointExtension>
        </extensions>
      </trkpt>
      <trkpt lat="43.120793737471103668212890625" lon="13.04980591870844364166259765625">
        <ele>535.5999755859375</ele>
        <time>2021-06-06T09:59:32.000Z</time>
        <extensions>
          <ns3:TrackPointExtension>
            <ns3:atemp>22.0</ns3:atemp>
          </ns3:TrackPointExtension>
        </extensions>
      </trkpt>
      <trkpt lat="43.12093086540699005126953125" lon="13.04996349848806858062744140625">
        <ele>535.5999755859375</ele>
        <time>2021-06-06T09:59:36.000Z</time>
        <extensions>
          <ns3:TrackPointExtension>
            <ns3:atemp>22.0</ns3:atemp>
          </ns3:TrackPointExtension>
        </extensions>
      </trkpt>
      <trkpt lat="43.1212032772600650787353515625" lon="13.05027614347636699676513671875">
        <ele>535</ele>
        <time>2021-06-06T09:59:42.000Z</time>
        <extensions>
          <ns3:TrackPointExtension>
            <ns3:atemp>22.0</ns3:atemp>
          </ns3:TrackPointExtension>
        </extensions>
      </trkpt>
      <trkpt lat="43.121497817337512969970703125" lon="13.05059968493878841400146484375">
        <ele>534.5999755859375</ele>
        <time>2021-06-06T09:59:48.000Z</time>
        <extensions>
          <ns3:TrackPointExtension>
            <ns3:atemp>22.0</ns3:atemp>
          </ns3:TrackPointExtension>
        </extensions>
      </trkpt>
      <trkpt lat="43.1215425767004489898681640625" lon="13.05065064691007137298583984375">
        <ele>533.5999755859375</ele>
        <time>2021-06-06T09:59:49.000Z</time>
        <extensions>
          <ns3:TrackPointExtension>
            <ns3:atemp>22.0</ns3:atemp>
          </ns3:TrackPointExtension>
        </extensions>
      </trkpt>
      <trkpt lat="43.121634609997272491455078125" lon="13.05075927637517452239990234375">
        <ele>532.79998779296875</ele>
        <time>2021-06-06T09:59:51.000Z</time>
        <extensions>
          <ns3:TrackPointExtension>
            <ns3:atemp>22.0</ns3:atemp>
          </ns3:TrackPointExtension>
        </extensions>
      </trkpt>
      <trkpt lat="43.12172287143766880035400390625" lon="13.05089321918785572052001953125">
        <ele>532.4000244140625</ele>
        <time>2021-06-06T09:59:53.000Z</time>
        <extensions>
          <ns3:TrackPointExtension>
            <ns3:atemp>22.0</ns3:atemp>
          </ns3:TrackPointExtension>
        </extensions>
      </trkpt>
      <trkpt lat="43.1219123862683773040771484375" lon="13.05111475288867950439453125">
        <ele>530.79998779296875</ele>
        <time>2021-06-06T09:59:57.000Z</time>
        <extensions>
          <ns3:TrackPointExtension>
            <ns3:atemp>22.0</ns3:atemp>
          </ns3:TrackPointExtension>
        </extensions>
      </trkpt>
      <trkpt lat="43.1219641864299774169921875" lon="13.0511645413935184478759765625">
        <ele>529.79998779296875</ele>
        <time>2021-06-06T09:59:58.000Z</time>
        <extensions>
          <ns3:TrackPointExtension>
            <ns3:atemp>22.0</ns3:atemp>
          </ns3:TrackPointExtension>
        </extensions>
      </trkpt>
      <trkpt lat="43.12202009372413158416748046875" lon="13.0512111447751522064208984375">
        <ele>528.5999755859375</ele>
        <time>2021-06-06T09:59:59.000Z</time>
        <extensions>
          <ns3:TrackPointExtension>
            <ns3:atemp>22.0</ns3:atemp>
          </ns3:TrackPointExtension>
        </extensions>
      </trkpt>
      <trkpt lat="43.1220837123692035675048828125" lon="13.05125749669969081878662109375">
        <ele>527.20001220703125</ele>
        <time>2021-06-06T10:00:00.000Z</time>
        <extensions>
          <ns3:TrackPointExtension>
            <ns3:atemp>22.0</ns3:atemp>
          </ns3:TrackPointExtension>
        </extensions>
      </trkpt>
      <trkpt lat="43.1221993826329708099365234375" lon="13.05134450085461139678955078125">
        <ele>525.20001220703125</ele>
        <time>2021-06-06T10:00:02.000Z</time>
        <extensions>
          <ns3:TrackPointExtension>
            <ns3:atemp>22.0</ns3:atemp>
          </ns3:TrackPointExtension>
        </extensions>
      </trkpt>
      <trkpt lat="43.12230147421360015869140625" lon="13.05142831988632678985595703125">
        <ele>523.5999755859375</ele>
        <time>2021-06-06T10:00:04.000Z</time>
        <extensions>
          <ns3:TrackPointExtension>
            <ns3:atemp>22.0</ns3:atemp>
          </ns3:TrackPointExtension>
        </extensions>
      </trkpt>
      <trkpt lat="43.12234707176685333251953125" lon="13.0514756776392459869384765625">
        <ele>523</ele>
        <time>2021-06-06T10:00:05.000Z</time>
        <extensions>
          <ns3:TrackPointExtension>
            <ns3:atemp>22.0</ns3:atemp>
          </ns3:TrackPointExtension>
        </extensions>
      </trkpt>
      <trkpt lat="43.1223878078162670135498046875" lon="13.05153007619082927703857421875">
        <ele>522.4000244140625</ele>
        <time>2021-06-06T10:00:06.000Z</time>
        <extensions>
          <ns3:TrackPointExtension>
            <ns3:atemp>22.0</ns3:atemp>
          </ns3:TrackPointExtension>
        </extensions>
      </trkpt>
      <trkpt lat="43.12242493964731693267822265625" lon="13.05159914307296276092529296875">
        <ele>521.5999755859375</ele>
        <time>2021-06-06T10:00:07.000Z</time>
        <extensions>
          <ns3:TrackPointExtension>
            <ns3:atemp>22.0</ns3:atemp>
          </ns3:TrackPointExtension>
        </extensions>
      </trkpt>
      <trkpt lat="43.122454024851322174072265625" lon="13.05168874561786651611328125">
        <ele>520.79998779296875</ele>
        <time>2021-06-06T10:00:08.000Z</time>
        <extensions>
          <ns3:TrackPointExtension>
            <ns3:atemp>22.0</ns3:atemp>
          </ns3:TrackPointExtension>
        </extensions>
      </trkpt>
      <trkpt lat="43.12248026020824909210205078125" lon="13.0517831258475780487060546875">
        <ele>520.20001220703125</ele>
        <time>2021-06-06T10:00:09.000Z</time>
        <extensions>
          <ns3:TrackPointExtension>
            <ns3:atemp>22.0</ns3:atemp>
          </ns3:TrackPointExtension>
        </extensions>
      </trkpt>
      <trkpt lat="43.12251764349639415740966796875" lon="13.05187406949698925018310546875">
        <ele>519.20001220703125</ele>
        <time>2021-06-06T10:00:10.000Z</time>
        <extensions>
          <ns3:TrackPointExtension>
            <ns3:atemp>22.0</ns3:atemp>
          </ns3:TrackPointExtension>
        </extensions>
      </trkpt>
      <trkpt lat="43.12263272702693939208984375" lon="13.05206358432769775390625">
        <ele>517.79998779296875</ele>
        <time>2021-06-06T10:00:12.000Z</time>
        <extensions>
          <ns3:TrackPointExtension>
            <ns3:atemp>22.0</ns3:atemp>
          </ns3:TrackPointExtension>
        </extensions>
      </trkpt>
      <trkpt lat="43.1227522529661655426025390625" lon="13.05224555544555187225341796875">
        <ele>515.79998779296875</ele>
        <time>2021-06-06T10:00:14.000Z</time>
        <extensions>
          <ns3:TrackPointExtension>
            <ns3:atemp>22.0</ns3:atemp>
          </ns3:TrackPointExtension>
        </extensions>
      </trkpt>
      <trkpt lat="43.122806064784526824951171875" lon="13.052334487438201904296875">
        <ele>514.4000244140625</ele>
        <time>2021-06-06T10:00:15.000Z</time>
        <extensions>
          <ns3:TrackPointExtension>
            <ns3:atemp>22.0</ns3:atemp>
          </ns3:TrackPointExtension>
        </extensions>
      </trkpt>
      <trkpt lat="43.12285174615681171417236328125" lon="13.0524191446602344512939453125">
        <ele>512.79998779296875</ele>
        <time>2021-06-06T10:00:16.000Z</time>
        <extensions>
          <ns3:TrackPointExtension>
            <ns3:atemp>22.0</ns3:atemp>
          </ns3:TrackPointExtension>
        </extensions>
      </trkpt>
      <trkpt lat="43.12289164401590824127197265625" lon="13.05249902419745922088623046875">
        <ele>510.79998779296875</ele>
        <time>2021-06-06T10:00:17.000Z</time>
        <extensions>
          <ns3:TrackPointExtension>
            <ns3:atemp>22.0</ns3:atemp>
          </ns3:TrackPointExtension>
        </extensions>
      </trkpt>
      <trkpt lat="43.1229316256940364837646484375" lon="13.05257379077374935150146484375">
        <ele>508.79998779296875</ele>
        <time>2021-06-06T10:00:18.000Z</time>
        <extensions>
          <ns3:TrackPointExtension>
            <ns3:atemp>22.0</ns3:atemp>
          </ns3:TrackPointExtension>
        </extensions>
      </trkpt>
      <trkpt lat="43.12297412194311618804931640625" lon="13.05263933725655078887939453125">
        <ele>504.20001220703125</ele>
        <time>2021-06-06T10:00:19.000Z</time>
        <extensions>
          <ns3:TrackPointExtension>
            <ns3:atemp>22.0</ns3:atemp>
          </ns3:TrackPointExtension>
        </extensions>
      </trkpt>
      <trkpt lat="43.12302642501890659332275390625" lon="13.05269055068492889404296875">
        <ele>501.79998779296875</ele>
        <time>2021-06-06T10:00:20.000Z</time>
        <extensions>
          <ns3:TrackPointExtension>
            <ns3:atemp>22.0</ns3:atemp>
          </ns3:TrackPointExtension>
        </extensions>
      </trkpt>
      <trkpt lat="43.1230845116078853607177734375" lon="13.0527175404131412506103515625">
        <ele>500.20001220703125</ele>
        <time>2021-06-06T10:00:21.000Z</time>
        <extensions>
          <ns3:TrackPointExtension>
            <ns3:atemp>22.0</ns3:atemp>
          </ns3:TrackPointExtension>
        </extensions>
      </trkpt>
      <trkpt lat="43.12314829789102077484130859375" lon="13.05272198282182216644287109375">
        <ele>498.600006103515625</ele>
        <time>2021-06-06T10:00:22.000Z</time>
        <extensions>
          <ns3:TrackPointExtension>
            <ns3:atemp>22.0</ns3:atemp>
          </ns3:TrackPointExtension>
        </extensions>
      </trkpt>
      <trkpt lat="43.1232239864766597747802734375" lon="13.05269901640713214874267578125">
        <ele>497.399993896484375</ele>
        <time>2021-06-06T10:00:23.000Z</time>
        <extensions>
          <ns3:TrackPointExtension>
            <ns3:atemp>22.0</ns3:atemp>
          </ns3:TrackPointExtension>
        </extensions>
      </trkpt>
      <trkpt lat="43.12330235727131366729736328125" lon="13.05266280658543109893798828125">
        <ele>496.20001220703125</ele>
        <time>2021-06-06T10:00:24.000Z</time>
        <extensions>
          <ns3:TrackPointExtension>
            <ns3:atemp>22.0</ns3:atemp>
          </ns3:TrackPointExtension>
        </extensions>
      </trkpt>
      <trkpt lat="43.12338299117982387542724609375" lon="13.05261603556573390960693359375">
        <ele>495.399993896484375</ele>
        <time>2021-06-06T10:00:25.000Z</time>
        <extensions>
          <ns3:TrackPointExtension>
            <ns3:atemp>22.0</ns3:atemp>
          </ns3:TrackPointExtension>
        </extensions>
      </trkpt>
      <trkpt lat="43.1234670616686344146728515625" lon="13.05256775580346584320068359375">
        <ele>494.79998779296875</ele>
        <time>2021-06-06T10:00:26.000Z</time>
        <extensions>
          <ns3:TrackPointExtension>
            <ns3:atemp>22.0</ns3:atemp>
          </ns3:TrackPointExtension>
        </extensions>
      </trkpt>
      <trkpt lat="43.123632855713367462158203125" lon="13.05250053294003009796142578125">
        <ele>493.600006103515625</ele>
        <time>2021-06-06T10:00:28.000Z</time>
        <extensions>
          <ns3:TrackPointExtension>
            <ns3:atemp>22.0</ns3:atemp>
          </ns3:TrackPointExtension>
        </extensions>
      </trkpt>
      <trkpt lat="43.12380292452871799468994140625" lon="13.05247203446924686431884765625">
        <ele>492.20001220703125</ele>
        <time>2021-06-06T10:00:30.000Z</time>
        <extensions>
          <ns3:TrackPointExtension>
            <ns3:atemp>22.0</ns3:atemp>
          </ns3:TrackPointExtension>
        </extensions>
      </trkpt>
      <trkpt lat="43.123967461287975311279296875" lon="13.05248427204787731170654296875">
        <ele>490</ele>
        <time>2021-06-06T10:00:32.000Z</time>
        <extensions>
          <ns3:TrackPointExtension>
            <ns3:atemp>22.0</ns3:atemp>
          </ns3:TrackPointExtension>
        </extensions>
      </trkpt>
      <trkpt lat="43.124045245349407196044921875" lon="13.05249935947358608245849609375">
        <ele>488.79998779296875</ele>
        <time>2021-06-06T10:00:33.000Z</time>
        <extensions>
          <ns3:TrackPointExtension>
            <ns3:atemp>22.0</ns3:atemp>
          </ns3:TrackPointExtension>
        </extensions>
      </trkpt>
      <trkpt lat="43.1241255439817905426025390625" lon="13.052519895136356353759765625">
        <ele>487.79998779296875</ele>
        <time>2021-06-06T10:00:34.000Z</time>
        <extensions>
          <ns3:TrackPointExtension>
            <ns3:atemp>22.0</ns3:atemp>
          </ns3:TrackPointExtension>
        </extensions>
      </trkpt>
      <trkpt lat="43.12429971992969512939453125" lon="13.05256985127925872802734375">
        <ele>486</ele>
        <time>2021-06-06T10:00:36.000Z</time>
        <extensions>
          <ns3:TrackPointExtension>
            <ns3:atemp>22.0</ns3:atemp>
          </ns3:TrackPointExtension>
        </extensions>
      </trkpt>
      <trkpt lat="43.12446928583085536956787109375" lon="13.05262223817408084869384765625">
        <ele>484.79998779296875</ele>
        <time>2021-06-06T10:00:38.000Z</time>
        <extensions>
          <ns3:TrackPointExtension>
            <ns3:atemp>22.0</ns3:atemp>
          </ns3:TrackPointExtension>
        </extensions>
      </trkpt>
      <trkpt lat="43.12473029829561710357666015625" lon="13.05270337499678134918212890625">
        <ele>483.20001220703125</ele>
        <time>2021-06-06T10:00:41.000Z</time>
        <extensions>
          <ns3:TrackPointExtension>
            <ns3:atemp>22.0</ns3:atemp>
          </ns3:TrackPointExtension>
        </extensions>
      </trkpt>
      <trkpt lat="43.12489877454936504364013671875" lon="13.0527594499289989471435546875">
        <ele>482</ele>
        <time>2021-06-06T10:00:43.000Z</time>
        <extensions>
          <ns3:TrackPointExtension>
            <ns3:atemp>22.0</ns3:atemp>
          </ns3:TrackPointExtension>
        </extensions>
      </trkpt>
      <trkpt lat="43.1250616349279880523681640625" lon="13.052811920642852783203125">
        <ele>480.79998779296875</ele>
        <time>2021-06-06T10:00:45.000Z</time>
        <extensions>
          <ns3:TrackPointExtension>
            <ns3:atemp>22.0</ns3:atemp>
          </ns3:TrackPointExtension>
        </extensions>
      </trkpt>
      <trkpt lat="43.12529725022614002227783203125" lon="13.05287696421146392822265625">
        <ele>479.600006103515625</ele>
        <time>2021-06-06T10:00:48.000Z</time>
        <extensions>
          <ns3:TrackPointExtension>
            <ns3:atemp>22.0</ns3:atemp>
          </ns3:TrackPointExtension>
        </extensions>
      </trkpt>
      <trkpt lat="43.12566186301410198211669921875" lon="13.0529767088592052459716796875">
        <ele>478.399993896484375</ele>
        <time>2021-06-06T10:00:52.000Z</time>
        <extensions>
          <ns3:TrackPointExtension>
            <ns3:atemp>22.0</ns3:atemp>
          </ns3:TrackPointExtension>
        </extensions>
      </trkpt>
      <trkpt lat="43.12576194293797016143798828125" lon="13.053002022206783294677734375">
        <ele>477.79998779296875</ele>
        <time>2021-06-06T10:00:53.000Z</time>
        <extensions>
          <ns3:TrackPointExtension>
            <ns3:atemp>22.0</ns3:atemp>
          </ns3:TrackPointExtension>
        </extensions>
      </trkpt>
      <trkpt lat="43.12586269341409206390380859375" lon="13.05302917957305908203125">
        <ele>476.399993896484375</ele>
        <time>2021-06-06T10:00:54.000Z</time>
        <extensions>
          <ns3:TrackPointExtension>
            <ns3:atemp>22.0</ns3:atemp>
          </ns3:TrackPointExtension>
        </extensions>
      </trkpt>
      <trkpt lat="43.126060925424098968505859375" lon="13.05308290757238864898681640625">
        <ele>475.20001220703125</ele>
        <time>2021-06-06T10:00:56.000Z</time>
        <extensions>
          <ns3:TrackPointExtension>
            <ns3:atemp>22.0</ns3:atemp>
          </ns3:TrackPointExtension>
        </extensions>
      </trkpt>
      <trkpt lat="43.12624658457934856414794921875" lon="13.05312464945018291473388671875">
        <ele>474</ele>
        <time>2021-06-06T10:00:58.000Z</time>
        <extensions>
          <ns3:TrackPointExtension>
            <ns3:atemp>22.0</ns3:atemp>
          </ns3:TrackPointExtension>
        </extensions>
      </trkpt>
      <trkpt lat="43.12633006833493709564208984375" lon="13.05314342491328716278076171875">
        <ele>473</ele>
        <time>2021-06-06T10:00:59.000Z</time>
        <extensions>
          <ns3:TrackPointExtension>
            <ns3:atemp>22.0</ns3:atemp>
          </ns3:TrackPointExtension>
        </extensions>
      </trkpt>
      <trkpt lat="43.1264174915850162506103515625" lon="13.0531658045947551727294921875">
        <ele>471.79998779296875</ele>
        <time>2021-06-06T10:01:00.000Z</time>
        <extensions>
          <ns3:TrackPointExtension>
            <ns3:atemp>22.0</ns3:atemp>
          </ns3:TrackPointExtension>
        </extensions>
      </trkpt>
      <trkpt lat="43.12649217434227466583251953125" lon="13.05319480597972869873046875">
        <ele>471</ele>
        <time>2021-06-06T10:01:01.000Z</time>
        <extensions>
          <ns3:TrackPointExtension>
            <ns3:atemp>22.0</ns3:atemp>
          </ns3:TrackPointExtension>
        </extensions>
      </trkpt>
      <trkpt lat="43.12656291760504245758056640625" lon="13.05323344655334949493408203125">
        <ele>470.399993896484375</ele>
        <time>2021-06-06T10:01:02.000Z</time>
        <extensions>
          <ns3:TrackPointExtension>
            <ns3:atemp>22.0</ns3:atemp>
          </ns3:TrackPointExtension>
        </extensions>
      </trkpt>
      <trkpt lat="43.12661941163241863250732421875" lon="13.053282313048839569091796875">
        <ele>470.20001220703125</ele>
        <time>2021-06-06T10:01:03.000Z</time>
        <extensions>
          <ns3:TrackPointExtension>
            <ns3:atemp>22.0</ns3:atemp>
          </ns3:TrackPointExtension>
        </extensions>
      </trkpt>
      <trkpt lat="43.12673860229551792144775390625" lon="13.0534243024885654449462890625">
        <ele>470</ele>
        <time>2021-06-06T10:01:06.000Z</time>
        <extensions>
          <ns3:TrackPointExtension>
            <ns3:atemp>22.0</ns3:atemp>
          </ns3:TrackPointExtension>
        </extensions>
      </trkpt>
      <trkpt lat="43.12677003443241119384765625" lon="13.0534732528030872344970703125">
        <ele>470</ele>
        <time>2021-06-06T10:01:07.000Z</time>
        <extensions>
          <ns3:TrackPointExtension>
            <ns3:atemp>22.0</ns3:atemp>
          </ns3:TrackPointExtension>
        </extensions>
      </trkpt>
      <trkpt lat="43.12694513238966464996337890625" lon="13.05380576290190219879150390625">
        <ele>472</ele>
        <time>2021-06-06T10:01:13.000Z</time>
        <extensions>
          <ns3:TrackPointExtension>
            <ns3:atemp>22.0</ns3:atemp>
          </ns3:TrackPointExtension>
        </extensions>
      </trkpt>
      <trkpt lat="43.126994669437408447265625" lon="13.05391942150890827178955078125">
        <ele>473.20001220703125</ele>
        <time>2021-06-06T10:01:15.000Z</time>
        <extensions>
          <ns3:TrackPointExtension>
            <ns3:atemp>22.0</ns3:atemp>
          </ns3:TrackPointExtension>
        </extensions>
      </trkpt>
      <trkpt lat="43.127078153192996978759765625" lon="13.05413089692592620849609375">
        <ele>474.399993896484375</ele>
        <time>2021-06-06T10:01:19.000Z</time>
        <extensions>
          <ns3:TrackPointExtension>
            <ns3:atemp>22.0</ns3:atemp>
          </ns3:TrackPointExtension>
        </extensions>
      </trkpt>
      <trkpt lat="43.1271202303469181060791015625" lon="13.054202981293201446533203125">
        <ele>474.79998779296875</ele>
        <time>2021-06-06T10:01:21.000Z</time>
        <extensions>
          <ns3:TrackPointExtension>
            <ns3:atemp>22.0</ns3:atemp>
          </ns3:TrackPointExtension>
        </extensions>
      </trkpt>
      <trkpt lat="43.12715317122638225555419921875" lon="13.05426224134862422943115234375">
        <ele>475.600006103515625</ele>
        <time>2021-06-06T10:01:24.000Z</time>
        <extensions>
          <ns3:TrackPointExtension>
            <ns3:atemp>22.0</ns3:atemp>
          </ns3:TrackPointExtension>
        </extensions>
      </trkpt>
      <trkpt lat="43.12715635634958744049072265625" lon="13.05426743812859058380126953125">
        <ele>475.79998779296875</ele>
        <time>2021-06-06T10:01:25.000Z</time>
        <extensions>
          <ns3:TrackPointExtension>
            <ns3:atemp>22.0</ns3:atemp>
          </ns3:TrackPointExtension>
        </extensions>
      </trkpt>
      <trkpt lat="43.12715333886444568634033203125" lon="13.05426743812859058380126953125">
        <ele>476.79998779296875</ele>
        <time>2021-06-06T10:01:28.000Z</time>
        <extensions>
          <ns3:TrackPointExtension>
            <ns3:atemp>22.0</ns3:atemp>
          </ns3:TrackPointExtension>
        </extensions>
      </trkpt>
      <trkpt lat="43.12715359032154083251953125" lon="13.0542681924998760223388671875">
        <ele>477.79998779296875</ele>
        <time>2021-06-06T10:01:30.000Z</time>
        <extensions>
          <ns3:TrackPointExtension>
            <ns3:atemp>22.0</ns3:atemp>
          </ns3:TrackPointExtension>
        </extensions>
      </trkpt>
      <trkpt lat="43.12715015374124050140380859375" lon="13.054290823638439178466796875">
        <ele>478.79998779296875</ele>
        <time>2021-06-06T10:01:33.000Z</time>
        <extensions>
          <ns3:TrackPointExtension>
            <ns3:atemp>22.0</ns3:atemp>
          </ns3:TrackPointExtension>
        </extensions>
      </trkpt>
      <trkpt lat="43.12715702690184116363525390625" lon="13.0543158017098903656005859375">
        <ele>478.79998779296875</ele>
        <time>2021-06-06T10:01:34.000Z</time>
        <extensions>
          <ns3:TrackPointExtension>
            <ns3:atemp>22.0</ns3:atemp>
          </ns3:TrackPointExtension>
        </extensions>
      </trkpt>
      <trkpt lat="43.1272157840430736541748046875" lon="13.05439920164644718170166015625">
        <ele>479.20001220703125</ele>
        <time>2021-06-06T10:01:37.000Z</time>
        <extensions>
          <ns3:TrackPointExtension>
            <ns3:atemp>22.0</ns3:atemp>
          </ns3:TrackPointExtension>
        </extensions>
      </trkpt>
      <trkpt lat="43.1274072267115116119384765625" lon="13.054597936570644378662109375">
        <ele>479.20001220703125</ele>
        <time>2021-06-06T10:01:43.000Z</time>
        <extensions>
          <ns3:TrackPointExtension>
            <ns3:atemp>22.0</ns3:atemp>
          </ns3:TrackPointExtension>
        </extensions>
      </trkpt>
      <trkpt lat="43.12750160694122314453125" lon="13.0548096634447574615478515625">
        <ele>479.20001220703125</ele>
        <time>2021-06-06T10:01:48.000Z</time>
        <extensions>
          <ns3:TrackPointExtension>
            <ns3:atemp>22.0</ns3:atemp>
          </ns3:TrackPointExtension>
        </extensions>
      </trkpt>
      <trkpt lat="43.127546198666095733642578125" lon="13.0550265870988368988037109375">
        <ele>480.20001220703125</ele>
        <time>2021-06-06T10:01:52.000Z</time>
        <extensions>
          <ns3:TrackPointExtension>
            <ns3:atemp>22.0</ns3:atemp>
          </ns3:TrackPointExtension>
        </extensions>
      </trkpt>
      <trkpt lat="43.1275728531181812286376953125" lon="13.055167905986309051513671875">
        <ele>481.600006103515625</ele>
        <time>2021-06-06T10:01:55.000Z</time>
        <extensions>
          <ns3:TrackPointExtension>
            <ns3:atemp>22.0</ns3:atemp>
          </ns3:TrackPointExtension>
        </extensions>
      </trkpt>
      <trkpt lat="43.12765105627477169036865234375" lon="13.0553826503455638885498046875">
        <ele>482.600006103515625</ele>
        <time>2021-06-06T10:02:00.000Z</time>
        <extensions>
          <ns3:TrackPointExtension>
            <ns3:atemp>22.0</ns3:atemp>
          </ns3:TrackPointExtension>
        </extensions>
      </trkpt>
      <trkpt lat="43.1276719272136688232421875" lon="13.05541140027344226837158203125">
        <ele>483</ele>
        <time>2021-06-06T10:02:01.000Z</time>
        <extensions>
          <ns3:TrackPointExtension>
            <ns3:atemp>22.0</ns3:atemp>
          </ns3:TrackPointExtension>
        </extensions>
      </trkpt>
      <trkpt lat="43.12769279815256595611572265625" lon="13.0554302595555782318115234375">
        <ele>483.600006103515625</ele>
        <time>2021-06-06T10:02:02.000Z</time>
        <extensions>
          <ns3:TrackPointExtension>
            <ns3:atemp>22.0</ns3:atemp>
          </ns3:TrackPointExtension>
        </extensions>
      </trkpt>
      <trkpt lat="43.1277290917932987213134765625" lon="13.05545724928379058837890625">
        <ele>484.79998779296875</ele>
        <time>2021-06-06T10:02:04.000Z</time>
        <extensions>
          <ns3:TrackPointExtension>
            <ns3:atemp>22.0</ns3:atemp>
          </ns3:TrackPointExtension>
        </extensions>
      </trkpt>
      <trkpt lat="43.12777242623269557952880859375" lon="13.0554969795048236846923828125">
        <ele>486</ele>
        <time>2021-06-06T10:02:07.000Z</time>
        <extensions>
          <ns3:TrackPointExtension>
            <ns3:atemp>22.0</ns3:atemp>
          </ns3:TrackPointExtension>
        </extensions>
      </trkpt>
      <trkpt lat="43.12779321335256099700927734375" lon="13.05551835335791110992431640625">
        <ele>487</ele>
        <time>2021-06-06T10:02:09.000Z</time>
        <extensions>
          <ns3:TrackPointExtension>
            <ns3:atemp>22.0</ns3:atemp>
          </ns3:TrackPointExtension>
        </extensions>
      </trkpt>
      <trkpt lat="43.1278122402727603912353515625" lon="13.0555362068116664886474609375">
        <ele>488.399993896484375</ele>
        <time>2021-06-06T10:02:11.000Z</time>
        <extensions>
          <ns3:TrackPointExtension>
            <ns3:atemp>22.0</ns3:atemp>
          </ns3:TrackPointExtension>
        </extensions>
      </trkpt>
      <trkpt lat="43.12781810760498046875" lon="13.0555410683155059814453125">
        <ele>489.79998779296875</ele>
        <time>2021-06-06T10:02:13.000Z</time>
        <extensions>
          <ns3:TrackPointExtension>
            <ns3:atemp>22.0</ns3:atemp>
          </ns3:TrackPointExtension>
        </extensions>
      </trkpt>
      <trkpt lat="43.127829171717166900634765625" lon="13.0555486120283603668212890625">
        <ele>490.79998779296875</ele>
        <time>2021-06-06T10:02:15.000Z</time>
        <extensions>
          <ns3:TrackPointExtension>
            <ns3:atemp>22.0</ns3:atemp>
          </ns3:TrackPointExtension>
        </extensions>
      </trkpt>
      <trkpt lat="43.12784115783870220184326171875" lon="13.0555569939315319061279296875">
        <ele>491.79998779296875</ele>
        <time>2021-06-06T10:02:16.000Z</time>
        <extensions>
          <ns3:TrackPointExtension>
            <ns3:atemp>22.0</ns3:atemp>
          </ns3:TrackPointExtension>
        </extensions>
      </trkpt>
      <trkpt lat="43.12789144925773143768310546875" lon="13.05559881962835788726806640625">
        <ele>492.79998779296875</ele>
        <time>2021-06-06T10:02:19.000Z</time>
        <extensions>
          <ns3:TrackPointExtension>
            <ns3:atemp>22.0</ns3:atemp>
          </ns3:TrackPointExtension>
        </extensions>
      </trkpt>
      <trkpt lat="43.127906620502471923828125" lon="13.055622875690460205078125">
        <ele>493</ele>
        <time>2021-06-06T10:02:20.000Z</time>
        <extensions>
          <ns3:TrackPointExtension>
            <ns3:atemp>22.0</ns3:atemp>
          </ns3:TrackPointExtension>
        </extensions>
      </trkpt>
      <trkpt lat="43.128007538616657257080078125" lon="13.05576260201632976531982421875">
        <ele>493.399993896484375</ele>
        <time>2021-06-06T10:02:26.000Z</time>
        <extensions>
          <ns3:TrackPointExtension>
            <ns3:atemp>22.0</ns3:atemp>
          </ns3:TrackPointExtension>
        </extensions>
      </trkpt>
      <trkpt lat="43.12806176953017711639404296875" lon="13.0557869933545589447021484375">
        <ele>493.399993896484375</ele>
        <time>2021-06-06T10:02:29.000Z</time>
        <extensions>
          <ns3:TrackPointExtension>
            <ns3:atemp>22.0</ns3:atemp>
          </ns3:TrackPointExtension>
        </extensions>
      </trkpt>
      <trkpt lat="43.12807786278426647186279296875" lon="13.05580082349479198455810546875">
        <ele>493.79998779296875</ele>
        <time>2021-06-06T10:02:30.000Z</time>
        <extensions>
          <ns3:TrackPointExtension>
            <ns3:atemp>22.0</ns3:atemp>
          </ns3:TrackPointExtension>
        </extensions>
      </trkpt>
      <trkpt lat="43.12809714116156101226806640625" lon="13.05581591092050075531005859375">
        <ele>494.20001220703125</ele>
        <time>2021-06-06T10:02:31.000Z</time>
        <extensions>
          <ns3:TrackPointExtension>
            <ns3:atemp>22.0</ns3:atemp>
          </ns3:TrackPointExtension>
        </extensions>
      </trkpt>
      <trkpt lat="43.12815967015922069549560546875" lon="13.05586067028343677520751953125">
        <ele>495.20001220703125</ele>
        <time>2021-06-06T10:02:34.000Z</time>
        <extensions>
          <ns3:TrackPointExtension>
            <ns3:atemp>22.0</ns3:atemp>
          </ns3:TrackPointExtension>
        </extensions>
      </trkpt>
      <trkpt lat="43.128210715949535369873046875" lon="13.05591682903468608856201171875">
        <ele>496.20001220703125</ele>
        <time>2021-06-06T10:02:37.000Z</time>
        <extensions>
          <ns3:TrackPointExtension>
            <ns3:atemp>22.0</ns3:atemp>
          </ns3:TrackPointExtension>
        </extensions>
      </trkpt>
      <trkpt lat="43.12822454608976840972900390625" lon="13.0559341795742511749267578125">
        <ele>496.399993896484375</ele>
        <time>2021-06-06T10:02:38.000Z</time>
        <extensions>
          <ns3:TrackPointExtension>
            <ns3:atemp>22.0</ns3:atemp>
          </ns3:TrackPointExtension>
        </extensions>
      </trkpt>
      <trkpt lat="43.1282822974026203155517578125" lon="13.05600986815989017486572265625">
        <ele>497.399993896484375</ele>
        <time>2021-06-06T10:02:42.000Z</time>
        <extensions>
          <ns3:TrackPointExtension>
            <ns3:atemp>22.0</ns3:atemp>
          </ns3:TrackPointExtension>
        </extensions>
      </trkpt>
      <trkpt lat="43.12831389717757701873779296875" lon="13.05604507215321063995361328125">
        <ele>498</ele>
        <time>2021-06-06T10:02:44.000Z</time>
        <extensions>
          <ns3:TrackPointExtension>
            <ns3:atemp>22.0</ns3:atemp>
          </ns3:TrackPointExtension>
        </extensions>
      </trkpt>
      <trkpt lat="43.1283272244036197662353515625" lon="13.05605831556022167205810546875">
        <ele>498.79998779296875</ele>
        <time>2021-06-06T10:02:45.000Z</time>
        <extensions>
          <ns3:TrackPointExtension>
            <ns3:atemp>22.0</ns3:atemp>
          </ns3:TrackPointExtension>
        </extensions>
      </trkpt>
      <trkpt lat="43.1283755041658878326416015625" lon="13.05611363612115383148193359375">
        <ele>500.399993896484375</ele>
        <time>2021-06-06T10:02:48.000Z</time>
        <extensions>
          <ns3:TrackPointExtension>
            <ns3:atemp>22.0</ns3:atemp>
          </ns3:TrackPointExtension>
        </extensions>
      </trkpt>
      <trkpt lat="43.1284086965024471282958984375" lon="13.0561591498553752899169921875">
        <ele>501.399993896484375</ele>
        <time>2021-06-06T10:02:50.000Z</time>
        <extensions>
          <ns3:TrackPointExtension>
            <ns3:atemp>22.0</ns3:atemp>
          </ns3:TrackPointExtension>
        </extensions>
      </trkpt>
      <trkpt lat="43.12845840118825435638427734375" lon="13.05623969994485378265380859375">
        <ele>502.600006103515625</ele>
        <time>2021-06-06T10:02:53.000Z</time>
        <extensions>
          <ns3:TrackPointExtension>
            <ns3:atemp>22.0</ns3:atemp>
          </ns3:TrackPointExtension>
        </extensions>
      </trkpt>
      <trkpt lat="43.12855512835085391998291015625" lon="13.05635847151279449462890625">
        <ele>503.79998779296875</ele>
        <time>2021-06-06T10:02:58.000Z</time>
        <extensions>
          <ns3:TrackPointExtension>
            <ns3:atemp>22.0</ns3:atemp>
          </ns3:TrackPointExtension>
        </extensions>
      </trkpt>
      <trkpt lat="43.1286138854920864105224609375" lon="13.05642292834818363189697265625">
        <ele>504.399993896484375</ele>
        <time>2021-06-06T10:03:01.000Z</time>
        <extensions>
          <ns3:TrackPointExtension>
            <ns3:atemp>22.0</ns3:atemp>
          </ns3:TrackPointExtension>
        </extensions>
      </trkpt>
      <trkpt lat="43.1287050805985927581787109375" lon="13.05657430551946163177490234375">
        <ele>505</ele>
        <time>2021-06-06T10:03:07.000Z</time>
        <extensions>
          <ns3:TrackPointExtension>
            <ns3:atemp>22.0</ns3:atemp>
          </ns3:TrackPointExtension>
        </extensions>
      </trkpt>
      <trkpt lat="43.1287215091288089752197265625" lon="13.05659660138189792633056640625">
        <ele>505.399993896484375</ele>
        <time>2021-06-06T10:03:08.000Z</time>
        <extensions>
          <ns3:TrackPointExtension>
            <ns3:atemp>22.0</ns3:atemp>
          </ns3:TrackPointExtension>
        </extensions>
      </trkpt>
      <trkpt lat="43.12878898344933986663818359375" lon="13.05668008513748645782470703125">
        <ele>506.20001220703125</ele>
        <time>2021-06-06T10:03:12.000Z</time>
        <extensions>
          <ns3:TrackPointExtension>
            <ns3:atemp>22.0</ns3:atemp>
          </ns3:TrackPointExtension>
        </extensions>
      </trkpt>
      <trkpt lat="43.12883558683097362518310546875" lon="13.05671663023531436920166015625">
        <ele>507</ele>
        <time>2021-06-06T10:03:14.000Z</time>
        <extensions>
          <ns3:TrackPointExtension>
            <ns3:atemp>22.0</ns3:atemp>
          </ns3:TrackPointExtension>
        </extensions>
      </trkpt>
      <trkpt lat="43.12886081635951995849609375" lon="13.05672953836619853973388671875">
        <ele>507.20001220703125</ele>
        <time>2021-06-06T10:03:15.000Z</time>
        <extensions>
          <ns3:TrackPointExtension>
            <ns3:atemp>22.0</ns3:atemp>
          </ns3:TrackPointExtension>
        </extensions>
      </trkpt>
      <trkpt lat="43.12894999980926513671875" lon="13.056782595813274383544921875">
        <ele>508.399993896484375</ele>
        <time>2021-06-06T10:03:19.000Z</time>
        <extensions>
          <ns3:TrackPointExtension>
            <ns3:atemp>22.0</ns3:atemp>
          </ns3:TrackPointExtension>
        </extensions>
      </trkpt>
      <trkpt lat="43.12896248884499073028564453125" lon="13.05680346675217151641845703125">
        <ele>508.600006103515625</ele>
        <time>2021-06-06T10:03:20.000Z</time>
        <extensions>
          <ns3:TrackPointExtension>
            <ns3:atemp>22.0</ns3:atemp>
          </ns3:TrackPointExtension>
        </extensions>
      </trkpt>
      <trkpt lat="43.12896885909140110015869140625" lon="13.0568873696029186248779296875">
        <ele>509.600006103515625</ele>
        <time>2021-06-06T10:03:23.000Z</time>
        <extensions>
          <ns3:TrackPointExtension>
            <ns3:atemp>22.0</ns3:atemp>
          </ns3:TrackPointExtension>
        </extensions>
      </trkpt>
      <trkpt lat="43.12896919436752796173095703125" lon="13.05694629438221454620361328125">
        <ele>510</ele>
        <time>2021-06-06T10:03:25.000Z</time>
        <extensions>
          <ns3:TrackPointExtension>
            <ns3:atemp>22.0</ns3:atemp>
          </ns3:TrackPointExtension>
        </extensions>
      </trkpt>
      <trkpt lat="43.12897355295717716217041015625" lon="13.057064227759838104248046875">
        <ele>510.600006103515625</ele>
        <time>2021-06-06T10:03:29.000Z</time>
        <extensions>
          <ns3:TrackPointExtension>
            <ns3:atemp>22.0</ns3:atemp>
          </ns3:TrackPointExtension>
        </extensions>
      </trkpt>
      <trkpt lat="43.12897975556552410125732421875" lon="13.05715600959956645965576171875">
        <ele>511.20001220703125</ele>
        <time>2021-06-06T10:03:32.000Z</time>
        <extensions>
          <ns3:TrackPointExtension>
            <ns3:atemp>22.0</ns3:atemp>
          </ns3:TrackPointExtension>
        </extensions>
      </trkpt>
      <trkpt lat="43.12898361124098300933837890625" lon="13.05721702985465526580810546875">
        <ele>511.79998779296875</ele>
        <time>2021-06-06T10:03:34.000Z</time>
        <extensions>
          <ns3:TrackPointExtension>
            <ns3:atemp>22.0</ns3:atemp>
          </ns3:TrackPointExtension>
        </extensions>
      </trkpt>
      <trkpt lat="43.1289810128509998321533203125" lon="13.05733001790940761566162109375">
        <ele>513.20001220703125</ele>
        <time>2021-06-06T10:03:38.000Z</time>
        <extensions>
          <ns3:TrackPointExtension>
            <ns3:atemp>22.0</ns3:atemp>
          </ns3:TrackPointExtension>
        </extensions>
      </trkpt>
      <trkpt lat="43.12898025847971439361572265625" lon="13.057359941303730010986328125">
        <ele>513.4000244140625</ele>
        <time>2021-06-06T10:03:39.000Z</time>
        <extensions>
          <ns3:TrackPointExtension>
            <ns3:atemp>22.0</ns3:atemp>
          </ns3:TrackPointExtension>
        </extensions>
      </trkpt>
      <trkpt lat="43.1289808452129364013671875" lon="13.05745775811374187469482421875">
        <ele>514.4000244140625</ele>
        <time>2021-06-06T10:03:42.000Z</time>
        <extensions>
          <ns3:TrackPointExtension>
            <ns3:atemp>22.0</ns3:atemp>
          </ns3:TrackPointExtension>
        </extensions>
      </trkpt>
      <trkpt lat="43.12897346913814544677734375" lon="13.05759237147867679595947265625">
        <ele>515.5999755859375</ele>
        <time>2021-06-06T10:03:46.000Z</time>
        <extensions>
          <ns3:TrackPointExtension>
            <ns3:atemp>23.0</ns3:atemp>
          </ns3:TrackPointExtension>
        </extensions>
      </trkpt>
      <trkpt lat="43.12895645387470722198486328125" lon="13.05775699205696582794189453125">
        <ele>516.5999755859375</ele>
        <time>2021-06-06T10:03:51.000Z</time>
        <extensions>
          <ns3:TrackPointExtension>
            <ns3:atemp>23.0</ns3:atemp>
          </ns3:TrackPointExtension>
        </extensions>
      </trkpt>
      <trkpt lat="43.12893885187804698944091796875" lon="13.057854138314723968505859375">
        <ele>517.4000244140625</ele>
        <time>2021-06-06T10:03:54.000Z</time>
        <extensions>
          <ns3:TrackPointExtension>
            <ns3:atemp>23.0</ns3:atemp>
          </ns3:TrackPointExtension>
        </extensions>
      </trkpt>
      <trkpt lat="43.12893616966903209686279296875" lon="13.0578858219087123870849609375">
        <ele>517.79998779296875</ele>
        <time>2021-06-06T10:03:55.000Z</time>
        <extensions>
          <ns3:TrackPointExtension>
            <ns3:atemp>23.0</ns3:atemp>
          </ns3:TrackPointExtension>
        </extensions>
      </trkpt>
      <trkpt lat="43.12892376445233821868896484375" lon="13.058077432215213775634765625">
        <ele>519</ele>
        <time>2021-06-06T10:04:01.000Z</time>
        <extensions>
          <ns3:TrackPointExtension>
            <ns3:atemp>23.0</ns3:atemp>
          </ns3:TrackPointExtension>
        </extensions>
      </trkpt>
      <trkpt lat="43.128920830786228179931640625" lon="13.05810668505728244781494140625">
        <ele>519.20001220703125</ele>
        <time>2021-06-06T10:04:02.000Z</time>
        <extensions>
          <ns3:TrackPointExtension>
            <ns3:atemp>23.0</ns3:atemp>
          </ns3:TrackPointExtension>
        </extensions>
      </trkpt>
      <trkpt lat="43.12891471199691295623779296875" lon="13.05817038752138614654541015625">
        <ele>520</ele>
        <time>2021-06-06T10:04:04.000Z</time>
        <extensions>
          <ns3:TrackPointExtension>
            <ns3:atemp>23.0</ns3:atemp>
          </ns3:TrackPointExtension>
        </extensions>
      </trkpt>
      <trkpt lat="43.12889325432479381561279296875" lon="13.05830852128565311431884765625">
        <ele>521</ele>
        <time>2021-06-06T10:04:08.000Z</time>
        <extensions>
          <ns3:TrackPointExtension>
            <ns3:atemp>23.0</ns3:atemp>
          </ns3:TrackPointExtension>
        </extensions>
      </trkpt>
      <trkpt lat="43.128873221576213836669921875" lon="13.05837088264524936676025390625">
        <ele>521.4000244140625</ele>
        <time>2021-06-06T10:04:10.000Z</time>
        <extensions>
          <ns3:TrackPointExtension>
            <ns3:atemp>23.0</ns3:atemp>
          </ns3:TrackPointExtension>
        </extensions>
      </trkpt>
      <trkpt lat="43.12886106781661510467529296875" lon="13.05843223817646503448486328125">
        <ele>522.20001220703125</ele>
        <time>2021-06-06T10:04:12.000Z</time>
        <extensions>
          <ns3:TrackPointExtension>
            <ns3:atemp>23.0</ns3:atemp>
          </ns3:TrackPointExtension>
        </extensions>
      </trkpt>
      <trkpt lat="43.1288589723408222198486328125" lon="13.0585156381130218505859375">
        <ele>523.5999755859375</ele>
        <time>2021-06-06T10:04:15.000Z</time>
        <extensions>
          <ns3:TrackPointExtension>
            <ns3:atemp>23.0</ns3:atemp>
          </ns3:TrackPointExtension>
        </extensions>
      </trkpt>
      <trkpt lat="43.1288596428930759429931640625" lon="13.05854153819382190704345703125">
        <ele>524.20001220703125</ele>
        <time>2021-06-06T10:04:16.000Z</time>
        <extensions>
          <ns3:TrackPointExtension>
            <ns3:atemp>23.0</ns3:atemp>
          </ns3:TrackPointExtension>
        </extensions>
      </trkpt>
      <trkpt lat="43.128857128322124481201171875" lon="13.0585677735507488250732421875">
        <ele>524.5999755859375</ele>
        <time>2021-06-06T10:04:17.000Z</time>
        <extensions>
          <ns3:TrackPointExtension>
            <ns3:atemp>23.0</ns3:atemp>
          </ns3:TrackPointExtension>
        </extensions>
      </trkpt>
      <trkpt lat="43.128855116665363311767578125" lon="13.0586328171193599700927734375">
        <ele>525.5999755859375</ele>
        <time>2021-06-06T10:04:19.000Z</time>
        <extensions>
          <ns3:TrackPointExtension>
            <ns3:atemp>23.0</ns3:atemp>
          </ns3:TrackPointExtension>
        </extensions>
      </trkpt>
      <trkpt lat="43.12884396873414516448974609375" lon="13.05869869887828826904296875">
        <ele>527</ele>
        <time>2021-06-06T10:04:21.000Z</time>
        <extensions>
          <ns3:TrackPointExtension>
            <ns3:atemp>23.0</ns3:atemp>
          </ns3:TrackPointExtension>
        </extensions>
      </trkpt>
      <trkpt lat="43.12883039005100727081298828125" lon="13.05876449681818485260009765625">
        <ele>528.4000244140625</ele>
        <time>2021-06-06T10:04:23.000Z</time>
        <extensions>
          <ns3:TrackPointExtension>
            <ns3:atemp>23.0</ns3:atemp>
          </ns3:TrackPointExtension>
        </extensions>
      </trkpt>
      <trkpt lat="43.1288230977952480316162109375" lon="13.0587974376976490020751953125">
        <ele>529.20001220703125</ele>
        <time>2021-06-06T10:04:24.000Z</time>
        <extensions>
          <ns3:TrackPointExtension>
            <ns3:atemp>23.0</ns3:atemp>
          </ns3:TrackPointExtension>
        </extensions>
      </trkpt>
      <trkpt lat="43.12881630845367908477783203125" lon="13.05883389897644519805908203125">
        <ele>530</ele>
        <time>2021-06-06T10:04:25.000Z</time>
        <extensions>
          <ns3:TrackPointExtension>
            <ns3:atemp>23.0</ns3:atemp>
          </ns3:TrackPointExtension>
        </extensions>
      </trkpt>
      <trkpt lat="43.1287989579141139984130859375" lon="13.05889475159347057342529296875">
        <ele>531.20001220703125</ele>
        <time>2021-06-06T10:04:27.000Z</time>
        <extensions>
          <ns3:TrackPointExtension>
            <ns3:atemp>23.0</ns3:atemp>
          </ns3:TrackPointExtension>
        </extensions>
      </trkpt>
      <trkpt lat="43.12877775169909000396728515625" lon="13.05895174853503704071044921875">
        <ele>532.4000244140625</ele>
        <time>2021-06-06T10:04:29.000Z</time>
        <extensions>
          <ns3:TrackPointExtension>
            <ns3:atemp>23.0</ns3:atemp>
          </ns3:TrackPointExtension>
        </extensions>
      </trkpt>
      <trkpt lat="43.12876350246369838714599609375" lon="13.05900321342051029205322265625">
        <ele>533.4000244140625</ele>
        <time>2021-06-06T10:04:31.000Z</time>
        <extensions>
          <ns3:TrackPointExtension>
            <ns3:atemp>23.0</ns3:atemp>
          </ns3:TrackPointExtension>
        </extensions>
      </trkpt>
      <trkpt lat="43.12872880138456821441650390625" lon="13.05907286703586578369140625">
        <ele>535</ele>
        <time>2021-06-06T10:04:34.000Z</time>
        <extensions>
          <ns3:TrackPointExtension>
            <ns3:atemp>23.0</ns3:atemp>
          </ns3:TrackPointExtension>
        </extensions>
      </trkpt>
      <trkpt lat="43.12868915498256683349609375" lon="13.05914134718477725982666015625">
        <ele>536.4000244140625</ele>
        <time>2021-06-06T10:04:37.000Z</time>
        <extensions>
          <ns3:TrackPointExtension>
            <ns3:atemp>23.0</ns3:atemp>
          </ns3:TrackPointExtension>
        </extensions>
      </trkpt>
      <trkpt lat="43.1286631710827350616455078125" lon="13.0591856874525547027587890625">
        <ele>537.4000244140625</ele>
        <time>2021-06-06T10:04:39.000Z</time>
        <extensions>
          <ns3:TrackPointExtension>
            <ns3:atemp>23.0</ns3:atemp>
          </ns3:TrackPointExtension>
        </extensions>
      </trkpt>
      <trkpt lat="43.128658644855022430419921875" lon="13.0592098273336887359619140625">
        <ele>538.4000244140625</ele>
        <time>2021-06-06T10:04:40.000Z</time>
        <extensions>
          <ns3:TrackPointExtension>
            <ns3:atemp>23.0</ns3:atemp>
          </ns3:TrackPointExtension>
        </extensions>
      </trkpt>
      <trkpt lat="43.12864489853382110595703125" lon="13.0592708475887775421142578125">
        <ele>539.4000244140625</ele>
        <time>2021-06-06T10:04:42.000Z</time>
        <extensions>
          <ns3:TrackPointExtension>
            <ns3:atemp>23.0</ns3:atemp>
          </ns3:TrackPointExtension>
        </extensions>
      </trkpt>
      <trkpt lat="43.1286373548209667205810546875" lon="13.05930596776306629180908203125">
        <ele>540</ele>
        <time>2021-06-06T10:04:43.000Z</time>
        <extensions>
          <ns3:TrackPointExtension>
            <ns3:atemp>23.0</ns3:atemp>
          </ns3:TrackPointExtension>
        </extensions>
      </trkpt>
      <trkpt lat="43.12864380888640880584716796875" lon="13.05942834354937076568603515625">
        <ele>541.20001220703125</ele>
        <time>2021-06-06T10:04:46.000Z</time>
        <extensions>
          <ns3:TrackPointExtension>
            <ns3:atemp>23.0</ns3:atemp>
          </ns3:TrackPointExtension>
        </extensions>
      </trkpt>
      <trkpt lat="43.12864582054316997528076171875" lon="13.059468157589435577392578125">
        <ele>541.5999755859375</ele>
        <time>2021-06-06T10:04:47.000Z</time>
        <extensions>
          <ns3:TrackPointExtension>
            <ns3:atemp>23.0</ns3:atemp>
          </ns3:TrackPointExtension>
        </extensions>
      </trkpt>
      <trkpt lat="43.12865638174116611480712890625" lon="13.05954585783183574676513671875">
        <ele>542.4000244140625</ele>
        <time>2021-06-06T10:04:49.000Z</time>
        <extensions>
          <ns3:TrackPointExtension>
            <ns3:atemp>23.0</ns3:atemp>
          </ns3:TrackPointExtension>
        </extensions>
      </trkpt>
      <trkpt lat="43.1286983750760555267333984375" lon="13.05963269434869289398193359375">
        <ele>542.79998779296875</ele>
        <time>2021-06-06T10:04:51.000Z</time>
        <extensions>
          <ns3:TrackPointExtension>
            <ns3:atemp>23.0</ns3:atemp>
          </ns3:TrackPointExtension>
        </extensions>
      </trkpt>
      <trkpt lat="43.1287171505391597747802734375" lon="13.05971668101847171783447265625">
        <ele>543.5999755859375</ele>
        <time>2021-06-06T10:04:53.000Z</time>
        <extensions>
          <ns3:TrackPointExtension>
            <ns3:atemp>23.0</ns3:atemp>
          </ns3:TrackPointExtension>
        </extensions>
      </trkpt>
      <trkpt lat="43.12873383052647113800048828125" lon="13.05978373624384403228759765625">
        <ele>544.79998779296875</ele>
        <time>2021-06-06T10:04:55.000Z</time>
        <extensions>
          <ns3:TrackPointExtension>
            <ns3:atemp>23.0</ns3:atemp>
          </ns3:TrackPointExtension>
        </extensions>
      </trkpt>
      <trkpt lat="43.128741122782230377197265625" lon="13.05981826968491077423095703125">
        <ele>545.5999755859375</ele>
        <time>2021-06-06T10:04:56.000Z</time>
        <extensions>
          <ns3:TrackPointExtension>
            <ns3:atemp>23.0</ns3:atemp>
          </ns3:TrackPointExtension>
        </extensions>
      </trkpt>
      <trkpt lat="43.12874925322830677032470703125" lon="13.05985598824918270111083984375">
        <ele>546</ele>
        <time>2021-06-06T10:04:57.000Z</time>
        <extensions>
          <ns3:TrackPointExtension>
            <ns3:atemp>23.0</ns3:atemp>
          </ns3:TrackPointExtension>
        </extensions>
      </trkpt>
      <trkpt lat="43.128759898245334625244140625" lon="13.05998305790126323699951171875">
        <ele>547</ele>
        <time>2021-06-06T10:05:01.000Z</time>
        <extensions>
          <ns3:TrackPointExtension>
            <ns3:atemp>23.0</ns3:atemp>
          </ns3:TrackPointExtension>
        </extensions>
      </trkpt>
      <trkpt lat="43.12876367010176181793212890625" lon="13.060019351541996002197265625">
        <ele>547.4000244140625</ele>
        <time>2021-06-06T10:05:02.000Z</time>
        <extensions>
          <ns3:TrackPointExtension>
            <ns3:atemp>23.0</ns3:atemp>
          </ns3:TrackPointExtension>
        </extensions>
      </trkpt>
      <trkpt lat="43.12876970507204532623291015625" lon="13.06010006926953792572021484375">
        <ele>548.4000244140625</ele>
        <time>2021-06-06T10:05:04.000Z</time>
        <extensions>
          <ns3:TrackPointExtension>
            <ns3:atemp>23.0</ns3:atemp>
          </ns3:TrackPointExtension>
        </extensions>
      </trkpt>
      <trkpt lat="43.12878462485969066619873046875" lon="13.060204088687896728515625">
        <ele>549.5999755859375</ele>
        <time>2021-06-06T10:05:07.000Z</time>
        <extensions>
          <ns3:TrackPointExtension>
            <ns3:atemp>23.0</ns3:atemp>
          </ns3:TrackPointExtension>
        </extensions>
      </trkpt>
      <trkpt lat="43.12879418022930622100830078125" lon="13.0602287314832210540771484375">
        <ele>550</ele>
        <time>2021-06-06T10:05:08.000Z</time>
        <extensions>
          <ns3:TrackPointExtension>
            <ns3:atemp>23.0</ns3:atemp>
          </ns3:TrackPointExtension>
        </extensions>
      </trkpt>
      <trkpt lat="43.12879485078155994415283203125" lon="13.06027843616902828216552734375">
        <ele>550.79998779296875</ele>
        <time>2021-06-06T10:05:10.000Z</time>
        <extensions>
          <ns3:TrackPointExtension>
            <ns3:atemp>23.0</ns3:atemp>
          </ns3:TrackPointExtension>
        </extensions>
      </trkpt>
      <trkpt lat="43.12876601703464984893798828125" lon="13.06034616194665431976318359375">
        <ele>551.5999755859375</ele>
        <time>2021-06-06T10:05:12.000Z</time>
        <extensions>
          <ns3:TrackPointExtension>
            <ns3:atemp>23.0</ns3:atemp>
          </ns3:TrackPointExtension>
        </extensions>
      </trkpt>
      <trkpt lat="43.1287474930286407470703125" lon="13.06038337759673595428466796875">
        <ele>552</ele>
        <time>2021-06-06T10:05:13.000Z</time>
        <extensions>
          <ns3:TrackPointExtension>
            <ns3:atemp>23.0</ns3:atemp>
          </ns3:TrackPointExtension>
        </extensions>
      </trkpt>
      <trkpt lat="43.12864079140126705169677734375" lon="13.06051095016300678253173828125">
        <ele>553.20001220703125</ele>
        <time>2021-06-06T10:05:17.000Z</time>
        <extensions>
          <ns3:TrackPointExtension>
            <ns3:atemp>23.0</ns3:atemp>
          </ns3:TrackPointExtension>
        </extensions>
      </trkpt>
      <trkpt lat="43.1285672821104526519775390625" lon="13.06066903285682201385498046875">
        <ele>554</ele>
        <time>2021-06-06T10:05:21.000Z</time>
        <extensions>
          <ns3:TrackPointExtension>
            <ns3:atemp>23.0</ns3:atemp>
          </ns3:TrackPointExtension>
        </extensions>
      </trkpt>
      <trkpt lat="43.12856149859726428985595703125" lon="13.06092250160872936248779296875">
        <ele>554.20001220703125</ele>
        <time>2021-06-06T10:05:27.000Z</time>
        <extensions>
          <ns3:TrackPointExtension>
            <ns3:atemp>23.0</ns3:atemp>
          </ns3:TrackPointExtension>
        </extensions>
      </trkpt>
      <trkpt lat="43.12856719829142093658447265625" lon="13.0609653331339359283447265625">
        <ele>554.20001220703125</ele>
        <time>2021-06-06T10:05:28.000Z</time>
        <extensions>
          <ns3:TrackPointExtension>
            <ns3:atemp>23.0</ns3:atemp>
          </ns3:TrackPointExtension>
        </extensions>
      </trkpt>
      <trkpt lat="43.1286041624844074249267578125" lon="13.06119156070053577423095703125">
        <ele>555</ele>
        <time>2021-06-06T10:05:34.000Z</time>
        <extensions>
          <ns3:TrackPointExtension>
            <ns3:atemp>23.0</ns3:atemp>
          </ns3:TrackPointExtension>
        </extensions>
      </trkpt>
      <trkpt lat="43.128612041473388671875" lon="13.061276972293853759765625">
        <ele>555.4000244140625</ele>
        <time>2021-06-06T10:05:37.000Z</time>
        <extensions>
          <ns3:TrackPointExtension>
            <ns3:atemp>23.0</ns3:atemp>
          </ns3:TrackPointExtension>
        </extensions>
      </trkpt>
      <trkpt lat="43.12861363403499126434326171875" lon="13.0613354779779911041259765625">
        <ele>556.5999755859375</ele>
        <time>2021-06-06T10:05:39.000Z</time>
        <extensions>
          <ns3:TrackPointExtension>
            <ns3:atemp>23.0</ns3:atemp>
          </ns3:TrackPointExtension>
        </extensions>
      </trkpt>
      <trkpt lat="43.12861782498657703399658203125" lon="13.06136707775294780731201171875">
        <ele>557.20001220703125</ele>
        <time>2021-06-06T10:05:40.000Z</time>
        <extensions>
          <ns3:TrackPointExtension>
            <ns3:atemp>23.0</ns3:atemp>
          </ns3:TrackPointExtension>
        </extensions>
      </trkpt>
      <trkpt lat="43.12862603925168514251708984375" lon="13.06142843328416347503662109375">
        <ele>558</ele>
        <time>2021-06-06T10:05:42.000Z</time>
        <extensions>
          <ns3:TrackPointExtension>
            <ns3:atemp>23.0</ns3:atemp>
          </ns3:TrackPointExtension>
        </extensions>
      </trkpt>
      <trkpt lat="43.128640539944171905517578125" lon="13.06153002195060253143310546875">
        <ele>559</ele>
        <time>2021-06-06T10:05:45.000Z</time>
        <extensions>
          <ns3:TrackPointExtension>
            <ns3:atemp>23.0</ns3:atemp>
          </ns3:TrackPointExtension>
        </extensions>
      </trkpt>
      <trkpt lat="43.1286397017538547515869140625" lon="13.06156522594392299652099609375">
        <ele>559.4000244140625</ele>
        <time>2021-06-06T10:05:46.000Z</time>
        <extensions>
          <ns3:TrackPointExtension>
            <ns3:atemp>23.0</ns3:atemp>
          </ns3:TrackPointExtension>
        </extensions>
      </trkpt>
      <trkpt lat="43.12863844446837902069091796875" lon="13.0616734363138675689697265625">
        <ele>560.79998779296875</ele>
        <time>2021-06-06T10:05:49.000Z</time>
        <extensions>
          <ns3:TrackPointExtension>
            <ns3:atemp>23.0</ns3:atemp>
          </ns3:TrackPointExtension>
        </extensions>
      </trkpt>
      <trkpt lat="43.12863157130777835845947265625" lon="13.06175499223172664642333984375">
        <ele>561.79998779296875</ele>
        <time>2021-06-06T10:05:51.000Z</time>
        <extensions>
          <ns3:TrackPointExtension>
            <ns3:atemp>23.0</ns3:atemp>
          </ns3:TrackPointExtension>
        </extensions>
      </trkpt>
      <trkpt lat="43.12863777391612529754638671875" lon="13.06183495558798313140869140625">
        <ele>563</ele>
        <time>2021-06-06T10:05:53.000Z</time>
        <extensions>
          <ns3:TrackPointExtension>
            <ns3:atemp>23.0</ns3:atemp>
          </ns3:TrackPointExtension>
        </extensions>
      </trkpt>
      <trkpt lat="43.12866057269275188446044921875" lon="13.06190201081335544586181640625">
        <ele>564.20001220703125</ele>
        <time>2021-06-06T10:05:55.000Z</time>
        <extensions>
          <ns3:TrackPointExtension>
            <ns3:atemp>23.0</ns3:atemp>
          </ns3:TrackPointExtension>
        </extensions>
      </trkpt>
      <trkpt lat="43.12867767177522182464599609375" lon="13.06192564778029918670654296875">
        <ele>565</ele>
        <time>2021-06-06T10:05:56.000Z</time>
        <extensions>
          <ns3:TrackPointExtension>
            <ns3:atemp>23.0</ns3:atemp>
          </ns3:TrackPointExtension>
        </extensions>
      </trkpt>
      <trkpt lat="43.12869829125702381134033203125" lon="13.0619463510811328887939453125">
        <ele>565.5999755859375</ele>
        <time>2021-06-06T10:05:57.000Z</time>
        <extensions>
          <ns3:TrackPointExtension>
            <ns3:atemp>23.0</ns3:atemp>
          </ns3:TrackPointExtension>
        </extensions>
      </trkpt>
      <trkpt lat="43.12874170951545238494873046875" lon="13.06197577156126499176025390625">
        <ele>566.79998779296875</ele>
        <time>2021-06-06T10:05:59.000Z</time>
        <extensions>
          <ns3:TrackPointExtension>
            <ns3:atemp>23.0</ns3:atemp>
          </ns3:TrackPointExtension>
        </extensions>
      </trkpt>
      <trkpt lat="43.1287674419581890106201171875" lon="13.06199018843472003936767578125">
        <ele>567.4000244140625</ele>
        <time>2021-06-06T10:06:00.000Z</time>
        <extensions>
          <ns3:TrackPointExtension>
            <ns3:atemp>23.0</ns3:atemp>
          </ns3:TrackPointExtension>
        </extensions>
      </trkpt>
      <trkpt lat="43.12879367731511592864990234375" lon="13.062001504004001617431640625">
        <ele>568</ele>
        <time>2021-06-06T10:06:01.000Z</time>
        <extensions>
          <ns3:TrackPointExtension>
            <ns3:atemp>23.0</ns3:atemp>
          </ns3:TrackPointExtension>
        </extensions>
      </trkpt>
      <trkpt lat="43.1288515962660312652587890625" lon="13.06203830055892467498779296875">
        <ele>569.4000244140625</ele>
        <time>2021-06-06T10:06:03.000Z</time>
        <extensions>
          <ns3:TrackPointExtension>
            <ns3:atemp>23.0</ns3:atemp>
          </ns3:TrackPointExtension>
        </extensions>
      </trkpt>
      <trkpt lat="43.12889610417187213897705078125" lon="13.062090016901493072509765625">
        <ele>570.4000244140625</ele>
        <time>2021-06-06T10:06:05.000Z</time>
        <extensions>
          <ns3:TrackPointExtension>
            <ns3:atemp>23.0</ns3:atemp>
          </ns3:TrackPointExtension>
        </extensions>
      </trkpt>
      <trkpt lat="43.1289169751107692718505859375" lon="13.0621178448200225830078125">
        <ele>570.5999755859375</ele>
        <time>2021-06-06T10:06:06.000Z</time>
        <extensions>
          <ns3:TrackPointExtension>
            <ns3:atemp>23.0</ns3:atemp>
          </ns3:TrackPointExtension>
        </extensions>
      </trkpt>
      <trkpt lat="43.12895578332245349884033203125" lon="13.06216721422970294952392578125">
        <ele>572</ele>
        <time>2021-06-06T10:06:08.000Z</time>
        <extensions>
          <ns3:TrackPointExtension>
            <ns3:atemp>23.0</ns3:atemp>
          </ns3:TrackPointExtension>
        </extensions>
      </trkpt>
      <trkpt lat="43.1289914064109325408935546875" lon="13.06226142682135105133056640625">
        <ele>573.4000244140625</ele>
        <time>2021-06-06T10:06:11.000Z</time>
        <extensions>
          <ns3:TrackPointExtension>
            <ns3:atemp>23.0</ns3:atemp>
          </ns3:TrackPointExtension>
        </extensions>
      </trkpt>
      <trkpt lat="43.12901160679757595062255859375" lon="13.062333762645721435546875">
        <ele>574.4000244140625</ele>
        <time>2021-06-06T10:06:13.000Z</time>
        <extensions>
          <ns3:TrackPointExtension>
            <ns3:atemp>23.0</ns3:atemp>
          </ns3:TrackPointExtension>
        </extensions>
      </trkpt>
      <trkpt lat="43.12902887351810932159423828125" lon="13.06240375153720378875732421875">
        <ele>575.5999755859375</ele>
        <time>2021-06-06T10:06:15.000Z</time>
        <extensions>
          <ns3:TrackPointExtension>
            <ns3:atemp>23.0</ns3:atemp>
          </ns3:TrackPointExtension>
        </extensions>
      </trkpt>
      <trkpt lat="43.1290551088750362396240234375" lon="13.06247432716190814971923828125">
        <ele>576.5999755859375</ele>
        <time>2021-06-06T10:06:17.000Z</time>
        <extensions>
          <ns3:TrackPointExtension>
            <ns3:atemp>23.0</ns3:atemp>
          </ns3:TrackPointExtension>
        </extensions>
      </trkpt>
      <trkpt lat="43.12906600534915924072265625" lon="13.06250852532684803009033203125">
        <ele>577.20001220703125</ele>
        <time>2021-06-06T10:06:18.000Z</time>
        <extensions>
          <ns3:TrackPointExtension>
            <ns3:atemp>23.0</ns3:atemp>
          </ns3:TrackPointExtension>
        </extensions>
      </trkpt>
      <trkpt lat="43.1290747225284576416015625" lon="13.062548004090785980224609375">
        <ele>577.79998779296875</ele>
        <time>2021-06-06T10:06:19.000Z</time>
        <extensions>
          <ns3:TrackPointExtension>
            <ns3:atemp>23.0</ns3:atemp>
          </ns3:TrackPointExtension>
        </extensions>
      </trkpt>
      <trkpt lat="43.1290988624095916748046875" lon="13.062620423734188079833984375">
        <ele>579</ele>
        <time>2021-06-06T10:06:21.000Z</time>
        <extensions>
          <ns3:TrackPointExtension>
            <ns3:atemp>23.0</ns3:atemp>
          </ns3:TrackPointExtension>
        </extensions>
      </trkpt>
      <trkpt lat="43.129123337566852569580078125" lon="13.06269460357725620269775390625">
        <ele>580.20001220703125</ele>
        <time>2021-06-06T10:06:23.000Z</time>
        <extensions>
          <ns3:TrackPointExtension>
            <ns3:atemp>23.0</ns3:atemp>
          </ns3:TrackPointExtension>
        </extensions>
      </trkpt>
      <trkpt lat="43.129132725298404693603515625" lon="13.06273248977959156036376953125">
        <ele>580.79998779296875</ele>
        <time>2021-06-06T10:06:24.000Z</time>
        <extensions>
          <ns3:TrackPointExtension>
            <ns3:atemp>23.0</ns3:atemp>
          </ns3:TrackPointExtension>
        </extensions>
      </trkpt>
      <trkpt lat="43.12914102338254451751708984375" lon="13.06277289055287837982177734375">
        <ele>581.5999755859375</ele>
        <time>2021-06-06T10:06:25.000Z</time>
        <extensions>
          <ns3:TrackPointExtension>
            <ns3:atemp>23.0</ns3:atemp>
          </ns3:TrackPointExtension>
        </extensions>
      </trkpt>
      <trkpt lat="43.12916197814047336578369140625" lon="13.062849752604961395263671875">
        <ele>582.79998779296875</ele>
        <time>2021-06-06T10:06:27.000Z</time>
        <extensions>
          <ns3:TrackPointExtension>
            <ns3:atemp>23.0</ns3:atemp>
          </ns3:TrackPointExtension>
        </extensions>
      </trkpt>
      <trkpt lat="43.1291768141090869903564453125" lon="13.06298889219760894775390625">
        <ele>584.20001220703125</ele>
        <time>2021-06-06T10:06:30.000Z</time>
        <extensions>
          <ns3:TrackPointExtension>
            <ns3:atemp>23.0</ns3:atemp>
          </ns3:TrackPointExtension>
        </extensions>
      </trkpt>
      <trkpt lat="43.129176311194896697998046875" lon="13.06303038261830806732177734375">
        <ele>584.79998779296875</ele>
        <time>2021-06-06T10:06:31.000Z</time>
        <extensions>
          <ns3:TrackPointExtension>
            <ns3:atemp>23.0</ns3:atemp>
          </ns3:TrackPointExtension>
        </extensions>
      </trkpt>
      <trkpt lat="43.1291751377284526824951171875" lon="13.06306458078324794769287109375">
        <ele>585.4000244140625</ele>
        <time>2021-06-06T10:06:32.000Z</time>
        <extensions>
          <ns3:TrackPointExtension>
            <ns3:atemp>23.0</ns3:atemp>
          </ns3:TrackPointExtension>
        </extensions>
      </trkpt>
      <trkpt lat="43.12913549132645130157470703125" lon="13.063155524432659149169921875">
        <ele>586.5999755859375</ele>
        <time>2021-06-06T10:06:35.000Z</time>
        <extensions>
          <ns3:TrackPointExtension>
            <ns3:atemp>23.0</ns3:atemp>
          </ns3:TrackPointExtension>
        </extensions>
      </trkpt>
      <trkpt lat="43.129113949835300445556640625" lon="13.06317890994250774383544921875">
        <ele>586.5999755859375</ele>
        <time>2021-06-06T10:06:36.000Z</time>
        <extensions>
          <ns3:TrackPointExtension>
            <ns3:atemp>23.0</ns3:atemp>
          </ns3:TrackPointExtension>
        </extensions>
      </trkpt>
      <trkpt lat="43.1290427036583423614501953125" lon="13.063317798078060150146484375">
        <ele>587.5999755859375</ele>
        <time>2021-06-06T10:06:42.000Z</time>
        <extensions>
          <ns3:TrackPointExtension>
            <ns3:atemp>23.0</ns3:atemp>
          </ns3:TrackPointExtension>
        </extensions>
      </trkpt>
      <trkpt lat="43.1290544383227825164794921875" lon="13.0633838474750518798828125">
        <ele>588</ele>
        <time>2021-06-06T10:06:45.000Z</time>
        <extensions>
          <ns3:TrackPointExtension>
            <ns3:atemp>23.0</ns3:atemp>
          </ns3:TrackPointExtension>
        </extensions>
      </trkpt>
      <trkpt lat="43.1290956772863864898681640625" lon="13.063422739505767822265625">
        <ele>588.20001220703125</ele>
        <time>2021-06-06T10:06:47.000Z</time>
        <extensions>
          <ns3:TrackPointExtension>
            <ns3:atemp>23.0</ns3:atemp>
          </ns3:TrackPointExtension>
        </extensions>
      </trkpt>
      <trkpt lat="43.1291570328176021575927734375" lon="13.0634453706443309783935546875">
        <ele>588.5999755859375</ele>
        <time>2021-06-06T10:06:49.000Z</time>
        <extensions>
          <ns3:TrackPointExtension>
            <ns3:atemp>23.0</ns3:atemp>
          </ns3:TrackPointExtension>
        </extensions>
      </trkpt>
      <trkpt lat="43.1292324699461460113525390625" lon="13.0635016970336437225341796875">
        <ele>589</ele>
        <time>2021-06-06T10:06:52.000Z</time>
        <extensions>
          <ns3:TrackPointExtension>
            <ns3:atemp>23.0</ns3:atemp>
          </ns3:TrackPointExtension>
        </extensions>
      </trkpt>
      <trkpt lat="43.129298351705074310302734375" lon="13.06365801952779293060302734375">
        <ele>589.20001220703125</ele>
        <time>2021-06-06T10:06:56.000Z</time>
        <extensions>
          <ns3:TrackPointExtension>
            <ns3:atemp>23.0</ns3:atemp>
          </ns3:TrackPointExtension>
        </extensions>
      </trkpt>
      <trkpt lat="43.12937621958553791046142578125" lon="13.06382683105766773223876953125">
        <ele>589.79998779296875</ele>
        <time>2021-06-06T10:07:00.000Z</time>
        <extensions>
          <ns3:TrackPointExtension>
            <ns3:atemp>23.0</ns3:atemp>
          </ns3:TrackPointExtension>
        </extensions>
      </trkpt>
      <trkpt lat="43.12942516990005970001220703125" lon="13.0639160983264446258544921875">
        <ele>590</ele>
        <time>2021-06-06T10:07:02.000Z</time>
        <extensions>
          <ns3:TrackPointExtension>
            <ns3:atemp>23.0</ns3:atemp>
          </ns3:TrackPointExtension>
        </extensions>
      </trkpt>
      <trkpt lat="43.12959515489637851715087890625" lon="13.06423502974212169647216796875">
        <ele>590.4000244140625</ele>
        <time>2021-06-06T10:07:09.000Z</time>
        <extensions>
          <ns3:TrackPointExtension>
            <ns3:atemp>23.0</ns3:atemp>
          </ns3:TrackPointExtension>
        </extensions>
      </trkpt>
      <trkpt lat="43.1296948157250881195068359375" lon="13.06443250738084316253662109375">
        <ele>590.79998779296875</ele>
        <time>2021-06-06T10:07:13.000Z</time>
        <extensions>
          <ns3:TrackPointExtension>
            <ns3:atemp>23.0</ns3:atemp>
          </ns3:TrackPointExtension>
        </extensions>
      </trkpt>
      <trkpt lat="43.12983370386064052581787109375" lon="13.06468949653208255767822265625">
        <ele>591.5999755859375</ele>
        <time>2021-06-06T10:07:18.000Z</time>
        <extensions>
          <ns3:TrackPointExtension>
            <ns3:atemp>23.0</ns3:atemp>
          </ns3:TrackPointExtension>
        </extensions>
      </trkpt>
      <trkpt lat="43.12986421398818492889404296875" lon="13.06474448181688785552978515625">
        <ele>591.5999755859375</ele>
        <time>2021-06-06T10:07:19.000Z</time>
        <extensions>
          <ns3:TrackPointExtension>
            <ns3:atemp>23.0</ns3:atemp>
          </ns3:TrackPointExtension>
        </extensions>
      </trkpt>
      <trkpt lat="43.12992791645228862762451171875" lon="13.064849339425563812255859375">
        <ele>591.79998779296875</ele>
        <time>2021-06-06T10:07:21.000Z</time>
        <extensions>
          <ns3:TrackPointExtension>
            <ns3:atemp>23.0</ns3:atemp>
          </ns3:TrackPointExtension>
        </extensions>
      </trkpt>
      <trkpt lat="43.13002112321555614471435546875" lon="13.06500365026295185089111328125">
        <ele>592.20001220703125</ele>
        <time>2021-06-06T10:07:24.000Z</time>
        <extensions>
          <ns3:TrackPointExtension>
            <ns3:atemp>23.0</ns3:atemp>
          </ns3:TrackPointExtension>
        </extensions>
      </trkpt>
      <trkpt lat="43.1300790421664714813232421875" lon="13.06511311791837215423583984375">
        <ele>592.20001220703125</ele>
        <time>2021-06-06T10:07:26.000Z</time>
        <extensions>
          <ns3:TrackPointExtension>
            <ns3:atemp>23.0</ns3:atemp>
          </ns3:TrackPointExtension>
        </extensions>
      </trkpt>
      <trkpt lat="43.13013746403157711029052734375" lon="13.065223507583141326904296875">
        <ele>592.79998779296875</ele>
        <time>2021-06-06T10:07:28.000Z</time>
        <extensions>
          <ns3:TrackPointExtension>
            <ns3:atemp>23.0</ns3:atemp>
          </ns3:TrackPointExtension>
        </extensions>
      </trkpt>
      <trkpt lat="43.13019244931638240814208984375" lon="13.065326102077960968017578125">
        <ele>593.20001220703125</ele>
        <time>2021-06-06T10:07:30.000Z</time>
        <extensions>
          <ns3:TrackPointExtension>
            <ns3:atemp>23.0</ns3:atemp>
          </ns3:TrackPointExtension>
        </extensions>
      </trkpt>
      <trkpt lat="43.13033980317413806915283203125" lon="13.0655805766582489013671875">
        <ele>594</ele>
        <time>2021-06-06T10:07:35.000Z</time>
        <extensions>
          <ns3:TrackPointExtension>
            <ns3:atemp>23.0</ns3:atemp>
          </ns3:TrackPointExtension>
        </extensions>
      </trkpt>
      <trkpt lat="43.13044792972505092620849609375" lon="13.06579154916107654571533203125">
        <ele>594.5999755859375</ele>
        <time>2021-06-06T10:07:39.000Z</time>
        <extensions>
          <ns3:TrackPointExtension>
            <ns3:atemp>23.0</ns3:atemp>
          </ns3:TrackPointExtension>
        </extensions>
      </trkpt>
      <trkpt lat="43.13050526194274425506591796875" lon="13.06589104235172271728515625">
        <ele>595</ele>
        <time>2021-06-06T10:07:41.000Z</time>
        <extensions>
          <ns3:TrackPointExtension>
            <ns3:atemp>23.0</ns3:atemp>
          </ns3:TrackPointExtension>
        </extensions>
      </trkpt>
      <trkpt lat="43.130537532269954681396484375" lon="13.065936975181102752685546875">
        <ele>595.20001220703125</ele>
        <time>2021-06-06T10:07:42.000Z</time>
        <extensions>
          <ns3:TrackPointExtension>
            <ns3:atemp>23.0</ns3:atemp>
          </ns3:TrackPointExtension>
        </extensions>
      </trkpt>
      <trkpt lat="43.13061808235943317413330078125" lon="13.06601400487124919891357421875">
        <ele>595.4000244140625</ele>
        <time>2021-06-06T10:07:44.000Z</time>
        <extensions>
          <ns3:TrackPointExtension>
            <ns3:atemp>23.0</ns3:atemp>
          </ns3:TrackPointExtension>
        </extensions>
      </trkpt>
      <trkpt lat="43.130798377096652984619140625" lon="13.0660675652325153350830078125">
        <ele>595.79998779296875</ele>
        <time>2021-06-06T10:07:48.000Z</time>
        <extensions>
          <ns3:TrackPointExtension>
            <ns3:atemp>23.0</ns3:atemp>
          </ns3:TrackPointExtension>
        </extensions>
      </trkpt>
      <trkpt lat="43.130845315754413604736328125" lon="13.06606379337608814239501953125">
        <ele>595.79998779296875</ele>
        <time>2021-06-06T10:07:49.000Z</time>
        <extensions>
          <ns3:TrackPointExtension>
            <ns3:atemp>23.0</ns3:atemp>
          </ns3:TrackPointExtension>
        </extensions>
      </trkpt>
      <trkpt lat="43.13093625940382480621337890625" lon="13.06602037511765956878662109375">
        <ele>596.20001220703125</ele>
        <time>2021-06-06T10:07:51.000Z</time>
        <extensions>
          <ns3:TrackPointExtension>
            <ns3:atemp>23.0</ns3:atemp>
          </ns3:TrackPointExtension>
        </extensions>
      </trkpt>
      <trkpt lat="43.13098001293838024139404296875" lon="13.06599028408527374267578125">
        <ele>596.20001220703125</ele>
        <time>2021-06-06T10:07:52.000Z</time>
        <extensions>
          <ns3:TrackPointExtension>
            <ns3:atemp>23.0</ns3:atemp>
          </ns3:TrackPointExtension>
        </extensions>
      </trkpt>
      <trkpt lat="43.13114413060247898101806640625" lon="13.0658637173473834991455078125">
        <ele>597.20001220703125</ele>
        <time>2021-06-06T10:07:56.000Z</time>
        <extensions>
          <ns3:TrackPointExtension>
            <ns3:atemp>23.0</ns3:atemp>
          </ns3:TrackPointExtension>
        </extensions>
      </trkpt>
      <trkpt lat="43.13122518360614776611328125" lon="13.0658171139657497406005859375">
        <ele>597.79998779296875</ele>
        <time>2021-06-06T10:07:58.000Z</time>
        <extensions>
          <ns3:TrackPointExtension>
            <ns3:atemp>23.0</ns3:atemp>
          </ns3:TrackPointExtension>
        </extensions>
      </trkpt>
      <trkpt lat="43.131315708160400390625" lon="13.065786100924015045166015625">
        <ele>598.4000244140625</ele>
        <time>2021-06-06T10:08:00.000Z</time>
        <extensions>
          <ns3:TrackPointExtension>
            <ns3:atemp>23.0</ns3:atemp>
          </ns3:TrackPointExtension>
        </extensions>
      </trkpt>
      <trkpt lat="43.131444454193115234375" lon="13.06577595882117748260498046875">
        <ele>599.4000244140625</ele>
        <time>2021-06-06T10:08:03.000Z</time>
        <extensions>
          <ns3:TrackPointExtension>
            <ns3:atemp>23.0</ns3:atemp>
          </ns3:TrackPointExtension>
        </extensions>
      </trkpt>
      <trkpt lat="43.1314861960709095001220703125" lon="13.065784759819507598876953125">
        <ele>600</ele>
        <time>2021-06-06T10:08:04.000Z</time>
        <extensions>
          <ns3:TrackPointExtension>
            <ns3:atemp>23.0</ns3:atemp>
          </ns3:TrackPointExtension>
        </extensions>
      </trkpt>
      <trkpt lat="43.13152768649160861968994140625" lon="13.065795488655567169189453125">
        <ele>600.4000244140625</ele>
        <time>2021-06-06T10:08:05.000Z</time>
        <extensions>
          <ns3:TrackPointExtension>
            <ns3:atemp>23.0</ns3:atemp>
          </ns3:TrackPointExtension>
        </extensions>
      </trkpt>
      <trkpt lat="43.1315686739981174468994140625" lon="13.06581149809062480926513671875">
        <ele>600.5999755859375</ele>
        <time>2021-06-06T10:08:06.000Z</time>
        <extensions>
          <ns3:TrackPointExtension>
            <ns3:atemp>23.0</ns3:atemp>
          </ns3:TrackPointExtension>
        </extensions>
      </trkpt>
      <trkpt lat="43.13165324740111827850341796875" lon="13.06585977785289287567138671875">
        <ele>601.20001220703125</ele>
        <time>2021-06-06T10:08:08.000Z</time>
        <extensions>
          <ns3:TrackPointExtension>
            <ns3:atemp>23.0</ns3:atemp>
          </ns3:TrackPointExtension>
        </extensions>
      </trkpt>
      <trkpt lat="43.13169834204018115997314453125" lon="13.065884001553058624267578125">
        <ele>601.79998779296875</ele>
        <time>2021-06-06T10:08:09.000Z</time>
        <extensions>
          <ns3:TrackPointExtension>
            <ns3:atemp>23.0</ns3:atemp>
          </ns3:TrackPointExtension>
        </extensions>
      </trkpt>
      <trkpt lat="43.1318298541009426116943359375" lon="13.06597477756440639495849609375">
        <ele>602.79998779296875</ele>
        <time>2021-06-06T10:08:12.000Z</time>
        <extensions>
          <ns3:TrackPointExtension>
            <ns3:atemp>23.0</ns3:atemp>
          </ns3:TrackPointExtension>
        </extensions>
      </trkpt>
      <trkpt lat="43.131956420838832855224609375" lon="13.0660551600158214569091796875">
        <ele>604</ele>
        <time>2021-06-06T10:08:15.000Z</time>
        <extensions>
          <ns3:TrackPointExtension>
            <ns3:atemp>23.0</ns3:atemp>
          </ns3:TrackPointExtension>
        </extensions>
      </trkpt>
      <trkpt lat="43.131999671459197998046875" lon="13.0660821497440338134765625">
        <ele>604</ele>
        <time>2021-06-06T10:08:16.000Z</time>
        <extensions>
          <ns3:TrackPointExtension>
            <ns3:atemp>23.0</ns3:atemp>
          </ns3:TrackPointExtension>
        </extensions>
      </trkpt>
      <trkpt lat="43.13220578245818614959716796875" lon="13.06623545475304126739501953125">
        <ele>605.20001220703125</ele>
        <time>2021-06-06T10:08:21.000Z</time>
        <extensions>
          <ns3:TrackPointExtension>
            <ns3:atemp>23.0</ns3:atemp>
          </ns3:TrackPointExtension>
        </extensions>
      </trkpt>
      <trkpt lat="43.1322858296334743499755859375" lon="13.06629764847457408905029296875">
        <ele>605.79998779296875</ele>
        <time>2021-06-06T10:08:23.000Z</time>
        <extensions>
          <ns3:TrackPointExtension>
            <ns3:atemp>23.0</ns3:atemp>
          </ns3:TrackPointExtension>
        </extensions>
      </trkpt>
      <trkpt lat="43.1323626078665256500244140625" lon="13.06637207977473735809326171875">
        <ele>606.20001220703125</ele>
        <time>2021-06-06T10:08:25.000Z</time>
        <extensions>
          <ns3:TrackPointExtension>
            <ns3:atemp>23.0</ns3:atemp>
          </ns3:TrackPointExtension>
        </extensions>
      </trkpt>
      <trkpt lat="43.13243108801543712615966796875" lon="13.06644936092197895050048828125">
        <ele>606.4000244140625</ele>
        <time>2021-06-06T10:08:27.000Z</time>
        <extensions>
          <ns3:TrackPointExtension>
            <ns3:atemp>23.0</ns3:atemp>
          </ns3:TrackPointExtension>
        </extensions>
      </trkpt>
      <trkpt lat="43.13252446241676807403564453125" lon="13.0665810406208038330078125">
        <ele>607</ele>
        <time>2021-06-06T10:08:30.000Z</time>
        <extensions>
          <ns3:TrackPointExtension>
            <ns3:atemp>23.0</ns3:atemp>
          </ns3:TrackPointExtension>
        </extensions>
      </trkpt>
      <trkpt lat="43.13260979019105434417724609375" lon="13.06672847829759120941162109375">
        <ele>607.79998779296875</ele>
        <time>2021-06-06T10:08:33.000Z</time>
        <extensions>
          <ns3:TrackPointExtension>
            <ns3:atemp>23.0</ns3:atemp>
          </ns3:TrackPointExtension>
        </extensions>
      </trkpt>
      <trkpt lat="43.1326864846050739288330078125" lon="13.066893517971038818359375">
        <ele>609</ele>
        <time>2021-06-06T10:08:36.000Z</time>
        <extensions>
          <ns3:TrackPointExtension>
            <ns3:atemp>23.0</ns3:atemp>
          </ns3:TrackPointExtension>
        </extensions>
      </trkpt>
      <trkpt lat="43.13276653178036212921142578125" lon="13.067060150206089019775390625">
        <ele>609.79998779296875</ele>
        <time>2021-06-06T10:08:39.000Z</time>
        <extensions>
          <ns3:TrackPointExtension>
            <ns3:atemp>23.0</ns3:atemp>
          </ns3:TrackPointExtension>
        </extensions>
      </trkpt>
      <trkpt lat="43.1327991373836994171142578125" lon="13.06711069308221340179443359375">
        <ele>610</ele>
        <time>2021-06-06T10:08:40.000Z</time>
        <extensions>
          <ns3:TrackPointExtension>
            <ns3:atemp>23.0</ns3:atemp>
          </ns3:TrackPointExtension>
        </extensions>
      </trkpt>
      <trkpt lat="43.13283543102443218231201171875" lon="13.06715612299740314483642578125">
        <ele>610.4000244140625</ele>
        <time>2021-06-06T10:08:41.000Z</time>
        <extensions>
          <ns3:TrackPointExtension>
            <ns3:atemp>23.0</ns3:atemp>
          </ns3:TrackPointExtension>
        </extensions>
      </trkpt>
      <trkpt lat="43.132956884801387786865234375" lon="13.06726240552961826324462890625">
        <ele>611.20001220703125</ele>
        <time>2021-06-06T10:08:44.000Z</time>
        <extensions>
          <ns3:TrackPointExtension>
            <ns3:atemp>23.0</ns3:atemp>
          </ns3:TrackPointExtension>
        </extensions>
      </trkpt>
      <trkpt lat="43.1330901570618152618408203125" lon="13.06732200086116790771484375">
        <ele>612.5999755859375</ele>
        <time>2021-06-06T10:08:47.000Z</time>
        <extensions>
          <ns3:TrackPointExtension>
            <ns3:atemp>23.0</ns3:atemp>
          </ns3:TrackPointExtension>
        </extensions>
      </trkpt>
      <trkpt lat="43.133222758769989013671875" lon="13.06738008745014667510986328125">
        <ele>613.5999755859375</ele>
        <time>2021-06-06T10:08:50.000Z</time>
        <extensions>
          <ns3:TrackPointExtension>
            <ns3:atemp>23.0</ns3:atemp>
          </ns3:TrackPointExtension>
        </extensions>
      </trkpt>
      <trkpt lat="43.1332634948194026947021484375" lon="13.067408166825771331787109375">
        <ele>614</ele>
        <time>2021-06-06T10:08:51.000Z</time>
        <extensions>
          <ns3:TrackPointExtension>
            <ns3:atemp>23.0</ns3:atemp>
          </ns3:TrackPointExtension>
        </extensions>
      </trkpt>
      <trkpt lat="43.13333834521472454071044921875" lon="13.067475892603397369384765625">
        <ele>614.79998779296875</ele>
        <time>2021-06-06T10:08:53.000Z</time>
        <extensions>
          <ns3:TrackPointExtension>
            <ns3:atemp>23.0</ns3:atemp>
          </ns3:TrackPointExtension>
        </extensions>
      </trkpt>
      <trkpt lat="43.13344311900436878204345703125" lon="13.06760773994028568267822265625">
        <ele>615.79998779296875</ele>
        <time>2021-06-06T10:08:56.000Z</time>
        <extensions>
          <ns3:TrackPointExtension>
            <ns3:atemp>23.0</ns3:atemp>
          </ns3:TrackPointExtension>
        </extensions>
      </trkpt>
      <trkpt lat="43.1335038878023624420166015625" lon="13.06770622730255126953125">
        <ele>616.20001220703125</ele>
        <time>2021-06-06T10:08:58.000Z</time>
        <extensions>
          <ns3:TrackPointExtension>
            <ns3:atemp>23.0</ns3:atemp>
          </ns3:TrackPointExtension>
        </extensions>
      </trkpt>
      <trkpt lat="43.13352945260703563690185546875" lon="13.0677560158073902130126953125">
        <ele>616.4000244140625</ele>
        <time>2021-06-06T10:08:59.000Z</time>
        <extensions>
          <ns3:TrackPointExtension>
            <ns3:atemp>23.0</ns3:atemp>
          </ns3:TrackPointExtension>
        </extensions>
      </trkpt>
      <trkpt lat="43.13359114341437816619873046875" lon="13.0678559280931949615478515625">
        <ele>617</ele>
        <time>2021-06-06T10:09:01.000Z</time>
        <extensions>
          <ns3:TrackPointExtension>
            <ns3:atemp>23.0</ns3:atemp>
          </ns3:TrackPointExtension>
        </extensions>
      </trkpt>
      <trkpt lat="43.133675046265125274658203125" lon="13.06800286285579204559326171875">
        <ele>617.20001220703125</ele>
        <time>2021-06-06T10:09:04.000Z</time>
        <extensions>
          <ns3:TrackPointExtension>
            <ns3:atemp>23.0</ns3:atemp>
          </ns3:TrackPointExtension>
        </extensions>
      </trkpt>
      <trkpt lat="43.13385550864040851593017578125" lon="13.068281896412372589111328125">
        <ele>617.5999755859375</ele>
        <time>2021-06-06T10:09:10.000Z</time>
        <extensions>
          <ns3:TrackPointExtension>
            <ns3:atemp>23.0</ns3:atemp>
          </ns3:TrackPointExtension>
        </extensions>
      </trkpt>
      <trkpt lat="43.13394100405275821685791015625" lon="13.0684290826320648193359375">
        <ele>617.79998779296875</ele>
        <time>2021-06-06T10:09:13.000Z</time>
        <extensions>
          <ns3:TrackPointExtension>
            <ns3:atemp>23.0</ns3:atemp>
          </ns3:TrackPointExtension>
        </extensions>
      </trkpt>
      <trkpt lat="43.13402398489415645599365234375" lon="13.06858859024941921234130859375">
        <ele>618</ele>
        <time>2021-06-06T10:09:16.000Z</time>
        <extensions>
          <ns3:TrackPointExtension>
            <ns3:atemp>23.0</ns3:atemp>
          </ns3:TrackPointExtension>
        </extensions>
      </trkpt>
      <trkpt lat="43.13408114947378635406494140625" lon="13.0686937831342220306396484375">
        <ele>618.4000244140625</ele>
        <time>2021-06-06T10:09:18.000Z</time>
        <extensions>
          <ns3:TrackPointExtension>
            <ns3:atemp>23.0</ns3:atemp>
          </ns3:TrackPointExtension>
        </extensions>
      </trkpt>
      <trkpt lat="43.13420914113521575927734375" lon="13.0688899196684360504150390625">
        <ele>618.79998779296875</ele>
        <time>2021-06-06T10:09:22.000Z</time>
        <extensions>
          <ns3:TrackPointExtension>
            <ns3:atemp>23.0</ns3:atemp>
          </ns3:TrackPointExtension>
        </extensions>
      </trkpt>
      <trkpt lat="43.13428021967411041259765625" lon="13.06898094713687896728515625">
        <ele>619</ele>
        <time>2021-06-06T10:09:24.000Z</time>
        <extensions>
          <ns3:TrackPointExtension>
            <ns3:atemp>23.0</ns3:atemp>
          </ns3:TrackPointExtension>
        </extensions>
      </trkpt>
      <trkpt lat="43.1344906054437160491943359375" lon="13.0692107789218425750732421875">
        <ele>619.20001220703125</ele>
        <time>2021-06-06T10:09:30.000Z</time>
        <extensions>
          <ns3:TrackPointExtension>
            <ns3:atemp>23.0</ns3:atemp>
          </ns3:TrackPointExtension>
        </extensions>
      </trkpt>
      <trkpt lat="43.1347309984266757965087890625" lon="13.0693509243428707122802734375">
        <ele>619.4000244140625</ele>
        <time>2021-06-06T10:09:35.000Z</time>
        <extensions>
          <ns3:TrackPointExtension>
            <ns3:atemp>23.0</ns3:atemp>
          </ns3:TrackPointExtension>
        </extensions>
      </trkpt>
      <trkpt lat="43.13492906279861927032470703125" lon="13.06948528625071048736572265625">
        <ele>619.79998779296875</ele>
        <time>2021-06-06T10:09:40.000Z</time>
        <extensions>
          <ns3:TrackPointExtension>
            <ns3:atemp>23.0</ns3:atemp>
          </ns3:TrackPointExtension>
        </extensions>
      </trkpt>
      <trkpt lat="43.13500064425170421600341796875" lon="13.0695386789739131927490234375">
        <ele>619.79998779296875</ele>
        <time>2021-06-06T10:09:42.000Z</time>
        <extensions>
          <ns3:TrackPointExtension>
            <ns3:atemp>23.0</ns3:atemp>
          </ns3:TrackPointExtension>
        </extensions>
      </trkpt>
      <trkpt lat="43.135079853236675262451171875" lon="13.0695943348109722137451171875">
        <ele>619.79998779296875</ele>
        <time>2021-06-06T10:09:44.000Z</time>
        <extensions>
          <ns3:TrackPointExtension>
            <ns3:atemp>23.0</ns3:atemp>
          </ns3:TrackPointExtension>
        </extensions>
      </trkpt>
      <trkpt lat="43.1351189129054546356201171875" lon="13.0696307122707366943359375">
        <ele>619.79998779296875</ele>
        <time>2021-06-06T10:09:45.000Z</time>
        <extensions>
          <ns3:TrackPointExtension>
            <ns3:atemp>23.0</ns3:atemp>
          </ns3:TrackPointExtension>
        </extensions>
      </trkpt>
      <trkpt lat="43.13529417850077152252197265625" lon="13.069814778864383697509765625">
        <ele>619.79998779296875</ele>
        <time>2021-06-06T10:09:50.000Z</time>
        <extensions>
          <ns3:TrackPointExtension>
            <ns3:atemp>23.0</ns3:atemp>
          </ns3:TrackPointExtension>
        </extensions>
      </trkpt>
      <trkpt lat="43.13533005304634571075439453125" lon="13.06985056959092617034912109375">
        <ele>619.79998779296875</ele>
        <time>2021-06-06T10:09:51.000Z</time>
        <extensions>
          <ns3:TrackPointExtension>
            <ns3:atemp>23.0</ns3:atemp>
          </ns3:TrackPointExtension>
        </extensions>
      </trkpt>
      <trkpt lat="43.1354825198650360107421875" lon="13.06999574415385723114013671875">
        <ele>619.20001220703125</ele>
        <time>2021-06-06T10:09:55.000Z</time>
        <extensions>
          <ns3:TrackPointExtension>
            <ns3:atemp>23.0</ns3:atemp>
          </ns3:TrackPointExtension>
        </extensions>
      </trkpt>
      <trkpt lat="43.13562140800058841705322265625" lon="13.0701314471662044525146484375">
        <ele>618.5999755859375</ele>
        <time>2021-06-06T10:09:59.000Z</time>
        <extensions>
          <ns3:TrackPointExtension>
            <ns3:atemp>23.0</ns3:atemp>
          </ns3:TrackPointExtension>
        </extensions>
      </trkpt>
      <trkpt lat="43.1357405148446559906005859375" lon="13.07025239802896976470947265625">
        <ele>618.4000244140625</ele>
        <time>2021-06-06T10:10:02.000Z</time>
        <extensions>
          <ns3:TrackPointExtension>
            <ns3:atemp>23.0</ns3:atemp>
          </ns3:TrackPointExtension>
        </extensions>
      </trkpt>
      <trkpt lat="43.13609381206333637237548828125" lon="13.0705944634974002838134765625">
        <ele>617.79998779296875</ele>
        <time>2021-06-06T10:10:10.000Z</time>
        <extensions>
          <ns3:TrackPointExtension>
            <ns3:atemp>23.0</ns3:atemp>
          </ns3:TrackPointExtension>
        </extensions>
      </trkpt>
      <trkpt lat="43.136190958321094512939453125" lon="13.0706950463354587554931640625">
        <ele>617.5999755859375</ele>
        <time>2021-06-06T10:10:12.000Z</time>
        <extensions>
          <ns3:TrackPointExtension>
            <ns3:atemp>23.0</ns3:atemp>
          </ns3:TrackPointExtension>
        </extensions>
      </trkpt>
      <trkpt lat="43.1364422477781772613525390625" lon="13.07093921117484569549560546875">
        <ele>617.20001220703125</ele>
        <time>2021-06-06T10:10:17.000Z</time>
        <extensions>
          <ns3:TrackPointExtension>
            <ns3:atemp>23.0</ns3:atemp>
          </ns3:TrackPointExtension>
        </extensions>
      </trkpt>
      <trkpt lat="43.13660074956715106964111328125" lon="13.07109444402158260345458984375">
        <ele>616.20001220703125</ele>
        <time>2021-06-06T10:10:20.000Z</time>
        <extensions>
          <ns3:TrackPointExtension>
            <ns3:atemp>23.0</ns3:atemp>
          </ns3:TrackPointExtension>
        </extensions>
      </trkpt>
      <trkpt lat="43.13676386140286922454833984375" lon="13.071285970509052276611328125">
        <ele>615.5999755859375</ele>
        <time>2021-06-06T10:10:23.000Z</time>
        <extensions>
          <ns3:TrackPointExtension>
            <ns3:atemp>23.0</ns3:atemp>
          </ns3:TrackPointExtension>
        </extensions>
      </trkpt>
      <trkpt lat="43.1368140690028667449951171875" lon="13.0713548697531223297119140625">
        <ele>615.4000244140625</ele>
        <time>2021-06-06T10:10:24.000Z</time>
        <extensions>
          <ns3:TrackPointExtension>
            <ns3:atemp>23.0</ns3:atemp>
          </ns3:TrackPointExtension>
        </extensions>
      </trkpt>
      <trkpt lat="43.13686092384159564971923828125" lon="13.07142687030136585235595703125">
        <ele>615</ele>
        <time>2021-06-06T10:10:25.000Z</time>
        <extensions>
          <ns3:TrackPointExtension>
            <ns3:atemp>23.0</ns3:atemp>
          </ns3:TrackPointExtension>
        </extensions>
      </trkpt>
      <trkpt lat="43.13697609119117259979248046875" lon="13.07166810147464275360107421875">
        <ele>613.5999755859375</ele>
        <time>2021-06-06T10:10:28.000Z</time>
        <extensions>
          <ns3:TrackPointExtension>
            <ns3:atemp>23.0</ns3:atemp>
          </ns3:TrackPointExtension>
        </extensions>
      </trkpt>
      <trkpt lat="43.13701179809868335723876953125" lon="13.0717456340789794921875">
        <ele>613.20001220703125</ele>
        <time>2021-06-06T10:10:29.000Z</time>
        <extensions>
          <ns3:TrackPointExtension>
            <ns3:atemp>23.0</ns3:atemp>
          </ns3:TrackPointExtension>
        </extensions>
      </trkpt>
      <trkpt lat="43.13708170317113399505615234375" lon="13.07190061546862125396728515625">
        <ele>612.5999755859375</ele>
        <time>2021-06-06T10:10:31.000Z</time>
        <extensions>
          <ns3:TrackPointExtension>
            <ns3:atemp>23.0</ns3:atemp>
          </ns3:TrackPointExtension>
        </extensions>
      </trkpt>
      <trkpt lat="43.13714272342622280120849609375" lon="13.072050400078296661376953125">
        <ele>611.4000244140625</ele>
        <time>2021-06-06T10:10:33.000Z</time>
        <extensions>
          <ns3:TrackPointExtension>
            <ns3:atemp>23.0</ns3:atemp>
          </ns3:TrackPointExtension>
        </extensions>
      </trkpt>
      <trkpt lat="43.1371969543397426605224609375" lon="13.07220554910600185394287109375">
        <ele>611</ele>
        <time>2021-06-06T10:10:35.000Z</time>
        <extensions>
          <ns3:TrackPointExtension>
            <ns3:atemp>23.0</ns3:atemp>
          </ns3:TrackPointExtension>
        </extensions>
      </trkpt>
      <trkpt lat="43.13725587911903858184814453125" lon="13.0723536573350429534912109375">
        <ele>610.79998779296875</ele>
        <time>2021-06-06T10:10:37.000Z</time>
        <extensions>
          <ns3:TrackPointExtension>
            <ns3:atemp>23.0</ns3:atemp>
          </ns3:TrackPointExtension>
        </extensions>
      </trkpt>
      <trkpt lat="43.13733525574207305908203125" lon="13.0725610256195068359375">
        <ele>610.4000244140625</ele>
        <time>2021-06-06T10:10:40.000Z</time>
        <extensions>
          <ns3:TrackPointExtension>
            <ns3:atemp>23.0</ns3:atemp>
          </ns3:TrackPointExtension>
        </extensions>
      </trkpt>
      <trkpt lat="43.13738127239048480987548828125" lon="13.0727006681263446807861328125">
        <ele>609.5999755859375</ele>
        <time>2021-06-06T10:10:42.000Z</time>
        <extensions>
          <ns3:TrackPointExtension>
            <ns3:atemp>23.0</ns3:atemp>
          </ns3:TrackPointExtension>
        </extensions>
      </trkpt>
      <trkpt lat="43.137424774467945098876953125" lon="13.07283855043351650238037109375">
        <ele>609.20001220703125</ele>
        <time>2021-06-06T10:10:44.000Z</time>
        <extensions>
          <ns3:TrackPointExtension>
            <ns3:atemp>23.0</ns3:atemp>
          </ns3:TrackPointExtension>
        </extensions>
      </trkpt>
      <trkpt lat="43.13747699372470378875732421875" lon="13.0729702301323413848876953125">
        <ele>608.5999755859375</ele>
        <time>2021-06-06T10:10:46.000Z</time>
        <extensions>
          <ns3:TrackPointExtension>
            <ns3:atemp>22.0</ns3:atemp>
          </ns3:TrackPointExtension>
        </extensions>
      </trkpt>
      <trkpt lat="43.13761965371668338775634765625" lon="13.07315907441079616546630859375">
        <ele>608.20001220703125</ele>
        <time>2021-06-06T10:10:50.000Z</time>
        <extensions>
          <ns3:TrackPointExtension>
            <ns3:atemp>22.0</ns3:atemp>
          </ns3:TrackPointExtension>
        </extensions>
      </trkpt>
      <trkpt lat="43.13765720464289188385009765625" lon="13.07325907051563262939453125">
        <ele>608.20001220703125</ele>
        <time>2021-06-06T10:10:52.000Z</time>
        <extensions>
          <ns3:TrackPointExtension>
            <ns3:atemp>22.0</ns3:atemp>
          </ns3:TrackPointExtension>
        </extensions>
      </trkpt>
      <trkpt lat="43.13765502534806728363037109375" lon="13.073322772979736328125">
        <ele>608.20001220703125</ele>
        <time>2021-06-06T10:10:53.000Z</time>
        <extensions>
          <ns3:TrackPointExtension>
            <ns3:atemp>22.0</ns3:atemp>
          </ns3:TrackPointExtension>
        </extensions>
      </trkpt>
      <trkpt lat="43.1376358307898044586181640625" lon="13.07338722981512546539306640625">
        <ele>608</ele>
        <time>2021-06-06T10:10:54.000Z</time>
        <extensions>
          <ns3:TrackPointExtension>
            <ns3:atemp>22.0</ns3:atemp>
          </ns3:TrackPointExtension>
        </extensions>
      </trkpt>
      <trkpt lat="43.137573637068271636962890625" lon="13.07351052761077880859375">
        <ele>607.79998779296875</ele>
        <time>2021-06-06T10:10:56.000Z</time>
        <extensions>
          <ns3:TrackPointExtension>
            <ns3:atemp>22.0</ns3:atemp>
          </ns3:TrackPointExtension>
        </extensions>
      </trkpt>
      <trkpt lat="43.1374437175691127777099609375" lon="13.0737913213670253753662109375">
        <ele>607.5999755859375</ele>
        <time>2021-06-06T10:11:00.000Z</time>
        <extensions>
          <ns3:TrackPointExtension>
            <ns3:atemp>22.0</ns3:atemp>
          </ns3:TrackPointExtension>
        </extensions>
      </trkpt>
      <trkpt lat="43.1374155543744564056396484375" lon="13.07386952452361583709716796875">
        <ele>607.4000244140625</ele>
        <time>2021-06-06T10:11:01.000Z</time>
        <extensions>
          <ns3:TrackPointExtension>
            <ns3:atemp>22.0</ns3:atemp>
          </ns3:TrackPointExtension>
        </extensions>
      </trkpt>
      <trkpt lat="43.13740608282387256622314453125" lon="13.074129112064838409423828125">
        <ele>607.20001220703125</ele>
        <time>2021-06-06T10:11:04.000Z</time>
        <extensions>
          <ns3:TrackPointExtension>
            <ns3:atemp>22.0</ns3:atemp>
          </ns3:TrackPointExtension>
        </extensions>
      </trkpt>
      <trkpt lat="43.137489147484302520751953125" lon="13.074353076517581939697265625">
        <ele>607</ele>
        <time>2021-06-06T10:11:07.000Z</time>
        <extensions>
          <ns3:TrackPointExtension>
            <ns3:atemp>22.0</ns3:atemp>
          </ns3:TrackPointExtension>
        </extensions>
      </trkpt>
      <trkpt lat="43.13752410002052783966064453125" lon="13.07439859025180339813232421875">
        <ele>606.5999755859375</ele>
        <time>2021-06-06T10:11:08.000Z</time>
        <extensions>
          <ns3:TrackPointExtension>
            <ns3:atemp>22.0</ns3:atemp>
          </ns3:TrackPointExtension>
        </extensions>
      </trkpt>
      <trkpt lat="43.1376462243497371673583984375" lon="13.0744746141135692596435546875">
        <ele>606</ele>
        <time>2021-06-06T10:11:11.000Z</time>
        <extensions>
          <ns3:TrackPointExtension>
            <ns3:atemp>22.0</ns3:atemp>
          </ns3:TrackPointExtension>
        </extensions>
      </trkpt>
      <trkpt lat="43.1376975215971469879150390625" lon="13.0744561739265918731689453125">
        <ele>605.5999755859375</ele>
        <time>2021-06-06T10:11:12.000Z</time>
        <extensions>
          <ns3:TrackPointExtension>
            <ns3:atemp>22.0</ns3:atemp>
          </ns3:TrackPointExtension>
        </extensions>
      </trkpt>
      <trkpt lat="43.1377541832625865936279296875" lon="13.0744104087352752685546875">
        <ele>604.5999755859375</ele>
        <time>2021-06-06T10:11:13.000Z</time>
        <extensions>
          <ns3:TrackPointExtension>
            <ns3:atemp>22.0</ns3:atemp>
          </ns3:TrackPointExtension>
        </extensions>
      </trkpt>
      <trkpt lat="43.13780874945223331451416015625" lon="13.0743462033569812774658203125">
        <ele>603.4000244140625</ele>
        <time>2021-06-06T10:11:14.000Z</time>
        <extensions>
          <ns3:TrackPointExtension>
            <ns3:atemp>22.0</ns3:atemp>
          </ns3:TrackPointExtension>
        </extensions>
      </trkpt>
      <trkpt lat="43.13786574639379978179931640625" lon="13.07427504099905490875244140625">
        <ele>602.79998779296875</ele>
        <time>2021-06-06T10:11:15.000Z</time>
        <extensions>
          <ns3:TrackPointExtension>
            <ns3:atemp>22.0</ns3:atemp>
          </ns3:TrackPointExtension>
        </extensions>
      </trkpt>
      <trkpt lat="43.13792391680181026458740234375" lon="13.07419725693762302398681640625">
        <ele>602.4000244140625</ele>
        <time>2021-06-06T10:11:16.000Z</time>
        <extensions>
          <ns3:TrackPointExtension>
            <ns3:atemp>22.0</ns3:atemp>
          </ns3:TrackPointExtension>
        </extensions>
      </trkpt>
      <trkpt lat="43.13798242248594760894775390625" lon="13.07411310262978076934814453125">
        <ele>602</ele>
        <time>2021-06-06T10:11:17.000Z</time>
        <extensions>
          <ns3:TrackPointExtension>
            <ns3:atemp>22.0</ns3:atemp>
          </ns3:TrackPointExtension>
        </extensions>
      </trkpt>
      <trkpt lat="43.13816950656473636627197265625" lon="13.0738808400928974151611328125">
        <ele>601.20001220703125</ele>
        <time>2021-06-06T10:11:20.000Z</time>
        <extensions>
          <ns3:TrackPointExtension>
            <ns3:atemp>22.0</ns3:atemp>
          </ns3:TrackPointExtension>
        </extensions>
      </trkpt>
      <trkpt lat="43.1383043713867664337158203125" lon="13.07376977987587451934814453125">
        <ele>600.5999755859375</ele>
        <time>2021-06-06T10:11:22.000Z</time>
        <extensions>
          <ns3:TrackPointExtension>
            <ns3:atemp>22.0</ns3:atemp>
          </ns3:TrackPointExtension>
        </extensions>
      </trkpt>
      <trkpt lat="43.13837586902081966400146484375" lon="13.07373994030058383941650390625">
        <ele>600</ele>
        <time>2021-06-06T10:11:23.000Z</time>
        <extensions>
          <ns3:TrackPointExtension>
            <ns3:atemp>22.0</ns3:atemp>
          </ns3:TrackPointExtension>
        </extensions>
      </trkpt>
      <trkpt lat="43.1385310180485248565673828125" lon="13.07375603355467319488525390625">
        <ele>598.79998779296875</ele>
        <time>2021-06-06T10:11:25.000Z</time>
        <extensions>
          <ns3:TrackPointExtension>
            <ns3:atemp>22.0</ns3:atemp>
          </ns3:TrackPointExtension>
        </extensions>
      </trkpt>
      <trkpt lat="43.13861559145152568817138671875" lon="13.07379341684281826019287109375">
        <ele>597.79998779296875</ele>
        <time>2021-06-06T10:11:26.000Z</time>
        <extensions>
          <ns3:TrackPointExtension>
            <ns3:atemp>22.0</ns3:atemp>
          </ns3:TrackPointExtension>
        </extensions>
      </trkpt>
      <trkpt lat="43.13869941048324108123779296875" lon="13.0738335661590099334716796875">
        <ele>596.5999755859375</ele>
        <time>2021-06-06T10:11:27.000Z</time>
        <extensions>
          <ns3:TrackPointExtension>
            <ns3:atemp>22.0</ns3:atemp>
          </ns3:TrackPointExtension>
        </extensions>
      </trkpt>
      <trkpt lat="43.13885950483381748199462890625" lon="13.0739116854965686798095703125">
        <ele>596</ele>
        <time>2021-06-06T10:11:29.000Z</time>
        <extensions>
          <ns3:TrackPointExtension>
            <ns3:atemp>22.0</ns3:atemp>
          </ns3:TrackPointExtension>
        </extensions>
      </trkpt>
      <trkpt lat="43.13893930055201053619384765625" lon="13.07395837269723415374755859375">
        <ele>595.4000244140625</ele>
        <time>2021-06-06T10:11:30.000Z</time>
        <extensions>
          <ns3:TrackPointExtension>
            <ns3:atemp>22.0</ns3:atemp>
          </ns3:TrackPointExtension>
        </extensions>
      </trkpt>
      <trkpt lat="43.1390966288745403289794921875" lon="13.07410120032727718353271484375">
        <ele>594.20001220703125</ele>
        <time>2021-06-06T10:11:32.000Z</time>
        <extensions>
          <ns3:TrackPointExtension>
            <ns3:atemp>22.0</ns3:atemp>
          </ns3:TrackPointExtension>
        </extensions>
      </trkpt>
      <trkpt lat="43.13916460610926151275634765625" lon="13.0741869471967220306396484375">
        <ele>593.5999755859375</ele>
        <time>2021-06-06T10:11:33.000Z</time>
        <extensions>
          <ns3:TrackPointExtension>
            <ns3:atemp>22.0</ns3:atemp>
          </ns3:TrackPointExtension>
        </extensions>
      </trkpt>
      <trkpt lat="43.13922814093530178070068359375" lon="13.07427269406616687774658203125">
        <ele>593</ele>
        <time>2021-06-06T10:11:34.000Z</time>
        <extensions>
          <ns3:TrackPointExtension>
            <ns3:atemp>22.0</ns3:atemp>
          </ns3:TrackPointExtension>
        </extensions>
      </trkpt>
      <trkpt lat="43.139294274151325225830078125" lon="13.0743529088795185089111328125">
        <ele>591.79998779296875</ele>
        <time>2021-06-06T10:11:35.000Z</time>
        <extensions>
          <ns3:TrackPointExtension>
            <ns3:atemp>22.0</ns3:atemp>
          </ns3:TrackPointExtension>
        </extensions>
      </trkpt>
      <trkpt lat="43.1393583118915557861328125" lon="13.07443312369287014007568359375">
        <ele>590.79998779296875</ele>
        <time>2021-06-06T10:11:36.000Z</time>
        <extensions>
          <ns3:TrackPointExtension>
            <ns3:atemp>22.0</ns3:atemp>
          </ns3:TrackPointExtension>
        </extensions>
      </trkpt>
      <trkpt lat="43.1394905783236026763916015625" lon="13.0745855905115604400634765625">
        <ele>589</ele>
        <time>2021-06-06T10:11:38.000Z</time>
        <extensions>
          <ns3:TrackPointExtension>
            <ns3:atemp>22.0</ns3:atemp>
          </ns3:TrackPointExtension>
        </extensions>
      </trkpt>
      <trkpt lat="43.13956375233829021453857421875" lon="13.07464518584311008453369140625">
        <ele>588.20001220703125</ele>
        <time>2021-06-06T10:11:39.000Z</time>
        <extensions>
          <ns3:TrackPointExtension>
            <ns3:atemp>22.0</ns3:atemp>
          </ns3:TrackPointExtension>
        </extensions>
      </trkpt>
      <trkpt lat="43.13964371569454669952392578125" lon="13.07469547726213932037353515625">
        <ele>587.5999755859375</ele>
        <time>2021-06-06T10:11:40.000Z</time>
        <extensions>
          <ns3:TrackPointExtension>
            <ns3:atemp>22.0</ns3:atemp>
          </ns3:TrackPointExtension>
        </extensions>
      </trkpt>
      <trkpt lat="43.13980867154896259307861328125" lon="13.07476538233458995819091796875">
        <ele>586.4000244140625</ele>
        <time>2021-06-06T10:11:42.000Z</time>
        <extensions>
          <ns3:TrackPointExtension>
            <ns3:atemp>22.0</ns3:atemp>
          </ns3:TrackPointExtension>
        </extensions>
      </trkpt>
      <trkpt lat="43.13989148475229740142822265625" lon="13.07478968985378742218017578125">
        <ele>585.5999755859375</ele>
        <time>2021-06-06T10:11:43.000Z</time>
        <extensions>
          <ns3:TrackPointExtension>
            <ns3:atemp>22.0</ns3:atemp>
          </ns3:TrackPointExtension>
        </extensions>
      </trkpt>
      <trkpt lat="43.13997698016464710235595703125" lon="13.07481198571622371673583984375">
        <ele>585.20001220703125</ele>
        <time>2021-06-06T10:11:44.000Z</time>
        <extensions>
          <ns3:TrackPointExtension>
            <ns3:atemp>22.0</ns3:atemp>
          </ns3:TrackPointExtension>
        </extensions>
      </trkpt>
      <trkpt lat="43.140332959592342376708984375" lon="13.0749091319739818572998046875">
        <ele>584.4000244140625</ele>
        <time>2021-06-06T10:11:48.000Z</time>
        <extensions>
          <ns3:TrackPointExtension>
            <ns3:atemp>22.0</ns3:atemp>
          </ns3:TrackPointExtension>
        </extensions>
      </trkpt>
      <trkpt lat="43.1404166109859943389892578125" lon="13.07494995184242725372314453125">
        <ele>584.20001220703125</ele>
        <time>2021-06-06T10:11:49.000Z</time>
        <extensions>
          <ns3:TrackPointExtension>
            <ns3:atemp>22.0</ns3:atemp>
          </ns3:TrackPointExtension>
        </extensions>
      </trkpt>
      <trkpt lat="43.1405000947415828704833984375" lon="13.07499404065310955047607421875">
        <ele>584</ele>
        <time>2021-06-06T10:11:50.000Z</time>
        <extensions>
          <ns3:TrackPointExtension>
            <ns3:atemp>22.0</ns3:atemp>
          </ns3:TrackPointExtension>
        </extensions>
      </trkpt>
      <trkpt lat="43.14083285629749298095703125" lon="13.0752284824848175048828125">
        <ele>583</ele>
        <time>2021-06-06T10:11:54.000Z</time>
        <extensions>
          <ns3:TrackPointExtension>
            <ns3:atemp>22.0</ns3:atemp>
          </ns3:TrackPointExtension>
        </extensions>
      </trkpt>
      <trkpt lat="43.1409166753292083740234375" lon="13.0752886645495891571044921875">
        <ele>582.20001220703125</ele>
        <time>2021-06-06T10:11:55.000Z</time>
        <extensions>
          <ns3:TrackPointExtension>
            <ns3:atemp>22.0</ns3:atemp>
          </ns3:TrackPointExtension>
        </extensions>
      </trkpt>
      <trkpt lat="43.14100292511284351348876953125" lon="13.07534624822437763214111328125">
        <ele>580.5999755859375</ele>
        <time>2021-06-06T10:11:56.000Z</time>
        <extensions>
          <ns3:TrackPointExtension>
            <ns3:atemp>22.0</ns3:atemp>
          </ns3:TrackPointExtension>
        </extensions>
      </trkpt>
      <trkpt lat="43.1412501074373722076416015625" lon="13.075548671185970306396484375">
        <ele>578.79998779296875</ele>
        <time>2021-06-06T10:11:59.000Z</time>
        <extensions>
          <ns3:TrackPointExtension>
            <ns3:atemp>22.0</ns3:atemp>
          </ns3:TrackPointExtension>
        </extensions>
      </trkpt>
      <trkpt lat="43.14133484847843647003173828125" lon="13.0756145529448986053466796875">
        <ele>577.79998779296875</ele>
        <time>2021-06-06T10:12:00.000Z</time>
        <extensions>
          <ns3:TrackPointExtension>
            <ns3:atemp>22.0</ns3:atemp>
          </ns3:TrackPointExtension>
        </extensions>
      </trkpt>
      <trkpt lat="43.14150500111281871795654296875" lon="13.0757479928433895111083984375">
        <ele>575.79998779296875</ele>
        <time>2021-06-06T10:12:02.000Z</time>
        <extensions>
          <ns3:TrackPointExtension>
            <ns3:atemp>22.0</ns3:atemp>
          </ns3:TrackPointExtension>
        </extensions>
      </trkpt>
      <trkpt lat="43.14166174270212650299072265625" lon="13.07589232921600341796875">
        <ele>574.5999755859375</ele>
        <time>2021-06-06T10:12:04.000Z</time>
        <extensions>
          <ns3:TrackPointExtension>
            <ns3:atemp>22.0</ns3:atemp>
          </ns3:TrackPointExtension>
        </extensions>
      </trkpt>
      <trkpt lat="43.141733072698116302490234375" lon="13.07598042301833629608154296875">
        <ele>574.4000244140625</ele>
        <time>2021-06-06T10:12:05.000Z</time>
        <extensions>
          <ns3:TrackPointExtension>
            <ns3:atemp>22.0</ns3:atemp>
          </ns3:TrackPointExtension>
        </extensions>
      </trkpt>
      <trkpt lat="43.14179769717156887054443359375" lon="13.07606742717325687408447265625">
        <ele>573.5999755859375</ele>
        <time>2021-06-06T10:12:06.000Z</time>
        <extensions>
          <ns3:TrackPointExtension>
            <ns3:atemp>22.0</ns3:atemp>
          </ns3:TrackPointExtension>
        </extensions>
      </trkpt>
      <trkpt lat="43.1418559513986110687255859375" lon="13.076164908707141876220703125">
        <ele>572.79998779296875</ele>
        <time>2021-06-06T10:12:07.000Z</time>
        <extensions>
          <ns3:TrackPointExtension>
            <ns3:atemp>22.0</ns3:atemp>
          </ns3:TrackPointExtension>
        </extensions>
      </trkpt>
      <trkpt lat="43.141908086836338043212890625" lon="13.0762666650116443634033203125">
        <ele>571.79998779296875</ele>
        <time>2021-06-06T10:12:08.000Z</time>
        <extensions>
          <ns3:TrackPointExtension>
            <ns3:atemp>22.0</ns3:atemp>
          </ns3:TrackPointExtension>
        </extensions>
      </trkpt>
      <trkpt lat="43.14199433661997318267822265625" lon="13.076469339430332183837890625">
        <ele>570.4000244140625</ele>
        <time>2021-06-06T10:12:10.000Z</time>
        <extensions>
          <ns3:TrackPointExtension>
            <ns3:atemp>22.0</ns3:atemp>
          </ns3:TrackPointExtension>
        </extensions>
      </trkpt>
      <trkpt lat="43.142105229198932647705078125" lon="13.0767729319632053375244140625">
        <ele>570</ele>
        <time>2021-06-06T10:12:13.000Z</time>
        <extensions>
          <ns3:TrackPointExtension>
            <ns3:atemp>22.0</ns3:atemp>
          </ns3:TrackPointExtension>
        </extensions>
      </trkpt>
      <trkpt lat="43.14228753559291362762451171875" lon="13.07731482200324535369873046875">
        <ele>569.79998779296875</ele>
        <time>2021-06-06T10:12:19.000Z</time>
        <extensions>
          <ns3:TrackPointExtension>
            <ns3:atemp>22.0</ns3:atemp>
          </ns3:TrackPointExtension>
        </extensions>
      </trkpt>
      <trkpt lat="43.14239616505801677703857421875" lon="13.07766786776483058929443359375">
        <ele>569.79998779296875</ele>
        <time>2021-06-06T10:12:24.000Z</time>
        <extensions>
          <ns3:TrackPointExtension>
            <ns3:atemp>22.0</ns3:atemp>
          </ns3:TrackPointExtension>
        </extensions>
      </trkpt>
      <trkpt lat="43.14244846813380718231201171875" lon="13.07791002094745635986328125">
        <ele>570.4000244140625</ele>
        <time>2021-06-06T10:12:29.000Z</time>
        <extensions>
          <ns3:TrackPointExtension>
            <ns3:atemp>22.0</ns3:atemp>
          </ns3:TrackPointExtension>
        </extensions>
      </trkpt>
      <trkpt lat="43.14239448867738246917724609375" lon="13.07792368344962596893310546875">
        <ele>570.79998779296875</ele>
        <time>2021-06-06T10:12:32.000Z</time>
        <extensions>
          <ns3:TrackPointExtension>
            <ns3:atemp>22.0</ns3:atemp>
          </ns3:TrackPointExtension>
        </extensions>
      </trkpt>
      <trkpt lat="43.14236515201628208160400390625" lon="13.0778749845921993255615234375">
        <ele>571.5999755859375</ele>
        <time>2021-06-06T10:12:36.000Z</time>
        <extensions>
          <ns3:TrackPointExtension>
            <ns3:atemp>22.0</ns3:atemp>
          </ns3:TrackPointExtension>
        </extensions>
      </trkpt>
    </trkseg>
  </trk>
</gpx>
